<?xml version='1.0' encoding='UTF-8'?><gpx version="1.1" creator="JPX - https://github.com/jenetics/jpx" xmlns="http://www.topografix.com/GPX/1/1"><trk><trkseg><trkpt lat="45.10883728645646" lon="10.077098245100087"><ele>41.0</ele><time>2026-03-22T06:24:33Z</time></trkpt><trkpt lat="45.10883859640002" lon="10.077190976739663"><ele>41.0</ele><time>2026-03-22T06:24:35Z</time></trkpt><trkpt lat="45.10882247425971" lon="10.07729522621167"><ele>41.0</ele><time>2026-03-22T06:24:37Z</time></trkpt><trkpt lat="45.10880698988848" lon="10.07740325230775"><ele>41.0</ele><time>2026-03-22T06:24:39Z</time></trkpt><trkpt lat="45.10878808515383" lon="10.077517585982495"><ele>41.0</ele><time>2026-03-22T06:24:41Z</time></trkpt><trkpt lat="45.1087697452916" lon="10.07763403421031"><ele>41.0</ele><time>2026-03-22T06:24:43Z</time></trkpt><trkpt lat="45.1087450404363" lon="10.077748262824402"><ele>41.199999999999996</ele><time>2026-03-22T06:24:45Z</time></trkpt><trkpt lat="45.10868910316142" lon="10.077840722757013"><ele>41.4</ele><time>2026-03-22T06:24:47Z</time></trkpt><trkpt lat="45.108601782817566" lon="10.077869896712723"><ele>41.6</ele><time>2026-03-22T06:24:49Z</time></trkpt><trkpt lat="45.108509026464446" lon="10.077855531658079"><ele>41.8</ele><time>2026-03-22T06:24:51Z</time></trkpt><trkpt lat="45.10841781031399" lon="10.077836028803256"><ele>42.0</ele><time>2026-03-22T06:24:53Z</time></trkpt><trkpt lat="45.10832170867431" lon="10.07780095800517"><ele>41.8</ele><time>2026-03-22T06:24:55Z</time></trkpt><trkpt lat="45.108231033809034" lon="10.077779610310857"><ele>41.6</ele><time>2026-03-22T06:24:57Z</time></trkpt><trkpt lat="45.10814403973531" lon="10.0777518801899"><ele>41.4</ele><time>2026-03-22T06:24:59Z</time></trkpt><trkpt lat="45.108042062544264" lon="10.077721924089973"><ele>41.199999999999996</ele><time>2026-03-22T06:25:01Z</time></trkpt><trkpt lat="45.10792453733919" lon="10.077694624427068"><ele>41.0</ele><time>2026-03-22T06:25:03Z</time></trkpt><trkpt lat="45.10785831323029" lon="10.077675562159001"><ele>41.0</ele><time>2026-03-22T06:25:04Z</time></trkpt><trkpt lat="45.107789952717134" lon="10.07765650771548"><ele>41.0</ele><time>2026-03-22T06:25:05Z</time></trkpt><trkpt lat="45.1077275495375" lon="10.077639098931675"><ele>41.0</ele><time>2026-03-22T06:25:06Z</time></trkpt><trkpt lat="45.107664178616396" lon="10.077617826246167"><ele>41.0</ele><time>2026-03-22T06:25:07Z</time></trkpt><trkpt lat="45.10754714507454" lon="10.077575766378468"><ele>41.0</ele><time>2026-03-22T06:25:09Z</time></trkpt><trkpt lat="45.1074323459682" lon="10.077524706437215"><ele>41.0</ele><time>2026-03-22T06:25:11Z</time></trkpt><trkpt lat="45.10731641403139" lon="10.07747415202787"><ele>40.8</ele><time>2026-03-22T06:25:13Z</time></trkpt><trkpt lat="45.1072365372211" lon="10.077415256978073"><ele>40.599999999999994</ele><time>2026-03-22T06:25:15Z</time></trkpt><trkpt lat="45.10730221682176" lon="10.077242974033119"><ele>40.4</ele><time>2026-03-22T06:25:18Z</time></trkpt><trkpt lat="45.107389718517545" lon="10.077130374655248"><ele>40.2</ele><time>2026-03-22T06:25:20Z</time></trkpt><trkpt lat="45.107430960620455" lon="10.077061608208483"><ele>40.0</ele><time>2026-03-22T06:25:21Z</time></trkpt><trkpt lat="45.1075096901591" lon="10.076935620706541"><ele>40.0</ele><time>2026-03-22T06:25:22.999Z</time></trkpt><trkpt lat="45.10755399716782" lon="10.076868200101288"><ele>40.0</ele><time>2026-03-22T06:25:23.999Z</time></trkpt><trkpt lat="45.10763451414433" lon="10.076735672024451"><ele>40.0</ele><time>2026-03-22T06:25:25.999Z</time></trkpt><trkpt lat="45.10772358152766" lon="10.076620827132409"><ele>40.0</ele><time>2026-03-22T06:25:27.999Z</time></trkpt><trkpt lat="45.10776939863344" lon="10.076556677709531"><ele>40.0</ele><time>2026-03-22T06:25:28.999Z</time></trkpt><trkpt lat="45.1078185083876" lon="10.076499208767082"><ele>40.0</ele><time>2026-03-22T06:25:29.999Z</time></trkpt><trkpt lat="45.10787331854712" lon="10.07645353448909"><ele>40.0</ele><time>2026-03-22T06:25:30.999Z</time></trkpt><trkpt lat="45.10793282683035" lon="10.076409368740205"><ele>40.0</ele><time>2026-03-22T06:25:31.999Z</time></trkpt><trkpt lat="45.10799000442218" lon="10.076366697825692"><ele>40.0</ele><time>2026-03-22T06:25:32.999Z</time></trkpt><trkpt lat="45.10810074522481" lon="10.076291241410955"><ele>40.0</ele><time>2026-03-22T06:25:34.999Z</time></trkpt><trkpt lat="45.10821230620078" lon="10.076220753254509"><ele>40.0</ele><time>2026-03-22T06:25:36.999Z</time></trkpt><trkpt lat="45.108328596329685" lon="10.076156421242867"><ele>40.0</ele><time>2026-03-22T06:25:38.999Z</time></trkpt><trkpt lat="45.1084431997084" lon="10.076093974821243"><ele>40.0</ele><time>2026-03-22T06:25:40.999Z</time></trkpt><trkpt lat="45.1085571983517" lon="10.076023935890465"><ele>40.0</ele><time>2026-03-22T06:25:42.999Z</time></trkpt><trkpt lat="45.108660360706985" lon="10.075927244512535"><ele>40.0</ele><time>2026-03-22T06:25:44.999Z</time></trkpt><trkpt lat="45.108713336114796" lon="10.07586909791386"><ele>40.0</ele><time>2026-03-22T06:25:45.999Z</time></trkpt><trkpt lat="45.108763169651034" lon="10.07580815499403"><ele>39.57142857142857</ele><time>2026-03-22T06:25:46.999Z</time></trkpt><trkpt lat="45.10880850289285" lon="10.075740694100286"><ele>39.142857142857146</ele><time>2026-03-22T06:25:47.999Z</time></trkpt><trkpt lat="45.10884237578942" lon="10.075659934814825"><ele>38.714285714285715</ele><time>2026-03-22T06:25:48.999Z</time></trkpt><trkpt lat="45.10887376187002" lon="10.075578735778505"><ele>38.285714285714285</ele><time>2026-03-22T06:25:49.999Z</time></trkpt><trkpt lat="45.10890471404625" lon="10.075495639817486"><ele>37.857142857142854</ele><time>2026-03-22T06:25:50.999Z</time></trkpt><trkpt lat="45.1089335285197" lon="10.07541426866131"><ele>37.42857142857143</ele><time>2026-03-22T06:25:51.999Z</time></trkpt><trkpt lat="45.10896138874858" lon="10.075329046399053"><ele>37.0</ele><time>2026-03-22T06:25:53.001Z</time></trkpt><trkpt lat="45.10898373095014" lon="10.075240560634189"><ele>37.0</ele><time>2026-03-22T06:25:54.001Z</time></trkpt><trkpt lat="45.109009016617996" lon="10.075155935174072"><ele>37.0</ele><time>2026-03-22T06:25:55.001Z</time></trkpt><trkpt lat="45.10903339275603" lon="10.07507019285331"><ele>37.0</ele><time>2026-03-22T06:25:56.001Z</time></trkpt><trkpt lat="45.10905360307182" lon="10.07498447129066"><ele>37.0</ele><time>2026-03-22T06:25:57.001Z</time></trkpt><trkpt lat="45.10907802855806" lon="10.074897647330008"><ele>37.0</ele><time>2026-03-22T06:25:58.001Z</time></trkpt><trkpt lat="45.109102073634084" lon="10.074812642767276"><ele>37.0</ele><time>2026-03-22T06:25:59.001Z</time></trkpt><trkpt lat="45.10912473319655" lon="10.074726277815518"><ele>37.0</ele><time>2026-03-22T06:26:00.001Z</time></trkpt><trkpt lat="45.10914833929167" lon="10.074642351755623"><ele>37.4</ele><time>2026-03-22T06:26:01.001Z</time></trkpt><trkpt lat="45.1091772217164" lon="10.074561120085862"><ele>37.800000000000004</ele><time>2026-03-22T06:26:02.001Z</time></trkpt><trkpt lat="45.109230404776774" lon="10.074400603917969"><ele>38.2</ele><time>2026-03-22T06:26:04.001Z</time></trkpt><trkpt lat="45.10929254453399" lon="10.074247685673537"><ele>38.6</ele><time>2026-03-22T06:26:06.001Z</time></trkpt><trkpt lat="45.10936688434874" lon="10.074103641738626"><ele>39.0</ele><time>2026-03-22T06:26:08.001Z</time></trkpt><trkpt lat="45.10940258503155" lon="10.07402882554664"><ele>39.285714285714285</ele><time>2026-03-22T06:26:09.001Z</time></trkpt><trkpt lat="45.109443696051535" lon="10.073960692688665"><ele>39.57142857142857</ele><time>2026-03-22T06:26:10.001Z</time></trkpt><trkpt lat="45.10948399362006" lon="10.073888284870817"><ele>39.857142857142854</ele><time>2026-03-22T06:26:11.001Z</time></trkpt><trkpt lat="45.10952257782675" lon="10.073814222127575"><ele>40.14285714285714</ele><time>2026-03-22T06:26:12.001Z</time></trkpt><trkpt lat="45.109560910101976" lon="10.073740813007406"><ele>40.42857142857143</ele><time>2026-03-22T06:26:13.001Z</time></trkpt><trkpt lat="45.109600698174205" lon="10.073670992277384"><ele>40.71428571428571</ele><time>2026-03-22T06:26:14Z</time></trkpt><trkpt lat="45.10964354641114" lon="10.073600250259862"><ele>41.0</ele><time>2026-03-22T06:26:15Z</time></trkpt><trkpt lat="45.109686417244596" lon="10.073529254586918"><ele>40.99999999999999</ele><time>2026-03-22T06:26:16Z</time></trkpt><trkpt lat="45.10972952777722" lon="10.073454623914108"><ele>41.0</ele><time>2026-03-22T06:26:17Z</time></trkpt><trkpt lat="45.10976828768829" lon="10.073381783238947"><ele>41.0</ele><time>2026-03-22T06:26:18Z</time></trkpt><trkpt lat="45.10980755943209" lon="10.073306198496285"><ele>41.0</ele><time>2026-03-22T06:26:19Z</time></trkpt><trkpt lat="45.109845971787365" lon="10.073231591900694"><ele>41.0</ele><time>2026-03-22T06:26:20Z</time></trkpt><trkpt lat="45.10988597608647" lon="10.073161017254886"><ele>40.99999999999999</ele><time>2026-03-22T06:26:21Z</time></trkpt><trkpt lat="45.109925680540314" lon="10.07309129907938"><ele>41.0</ele><time>2026-03-22T06:26:22Z</time></trkpt><trkpt lat="45.10996511029069" lon="10.073018908411274"><ele>40.99999999999999</ele><time>2026-03-22T06:26:23Z</time></trkpt><trkpt lat="45.11000454500091" lon="10.072946076606557"><ele>41.0</ele><time>2026-03-22T06:26:24Z</time></trkpt><trkpt lat="45.11008129827069" lon="10.072800111782344"><ele>41.0</ele><time>2026-03-22T06:26:26Z</time></trkpt><trkpt lat="45.110118644796394" lon="10.072725899583236"><ele>41.0</ele><time>2026-03-22T06:26:27Z</time></trkpt><trkpt lat="45.110155380441775" lon="10.072652692800016"><ele>41.0</ele><time>2026-03-22T06:26:28Z</time></trkpt><trkpt lat="45.11019462387974" lon="10.072579261855967"><ele>40.99999999999999</ele><time>2026-03-22T06:26:29Z</time></trkpt><trkpt lat="45.11022983372614" lon="10.072504798296734"><ele>41.0</ele><time>2026-03-22T06:26:30Z</time></trkpt><trkpt lat="45.11026614404115" lon="10.072425867258715"><ele>41.0</ele><time>2026-03-22T06:26:31Z</time></trkpt><trkpt lat="45.11029501658114" lon="10.072345409476155"><ele>41.0</ele><time>2026-03-22T06:26:32Z</time></trkpt><trkpt lat="45.11032520497769" lon="10.072264664908912"><ele>41.0</ele><time>2026-03-22T06:26:33Z</time></trkpt><trkpt lat="45.110382331737846" lon="10.07210776011083"><ele>41.0</ele><time>2026-03-22T06:26:35Z</time></trkpt><trkpt lat="45.11041037243426" lon="10.072027877518122"><ele>41.0</ele><time>2026-03-22T06:26:36Z</time></trkpt><trkpt lat="45.11046766797125" lon="10.071864182254444"><ele>41.0</ele><time>2026-03-22T06:26:38Z</time></trkpt><trkpt lat="45.11049608395787" lon="10.071781651619027"><ele>40.99999999999999</ele><time>2026-03-22T06:26:39Z</time></trkpt><trkpt lat="45.110526045186774" lon="10.071698722293124"><ele>41.0</ele><time>2026-03-22T06:26:40Z</time></trkpt><trkpt lat="45.11055235232441" lon="10.071614836783084"><ele>41.0</ele><time>2026-03-22T06:26:41Z</time></trkpt><trkpt lat="45.110580744358856" lon="10.071533534584129"><ele>41.0</ele><time>2026-03-22T06:26:42Z</time></trkpt><trkpt lat="45.11061238042488" lon="10.071454323188973"><ele>41.0</ele><time>2026-03-22T06:26:43Z</time></trkpt><trkpt lat="45.110641460983835" lon="10.071370588349987"><ele>40.99999999999999</ele><time>2026-03-22T06:26:44Z</time></trkpt><trkpt lat="45.110675591148315" lon="10.071291373250505"><ele>41.0</ele><time>2026-03-22T06:26:45Z</time></trkpt><trkpt lat="45.11074258445252" lon="10.071148338509396"><ele>41.0</ele><time>2026-03-22T06:26:47Z</time></trkpt><trkpt lat="45.110789570814646" lon="10.071024346815209"><ele>41.0</ele><time>2026-03-22T06:26:49Z</time></trkpt><trkpt lat="45.1106592269877" lon="10.070868247301828"><ele>41.0</ele><time>2026-03-22T06:26:51Z</time></trkpt><trkpt lat="45.11059408839252" lon="10.070836287137325"><ele>41.0</ele><time>2026-03-22T06:26:52Z</time></trkpt><trkpt lat="45.11053443547649" lon="10.0707977212281"><ele>41.0</ele><time>2026-03-22T06:26:53Z</time></trkpt><trkpt lat="45.110468076081595" lon="10.070765252052407"><ele>40.42857142857142</ele><time>2026-03-22T06:26:54Z</time></trkpt><trkpt lat="45.11040424635814" lon="10.070718874812087"><ele>39.857142857142854</ele><time>2026-03-22T06:26:55Z</time></trkpt><trkpt lat="45.11033927034619" lon="10.070680646205949"><ele>39.285714285714285</ele><time>2026-03-22T06:26:56Z</time></trkpt><trkpt lat="45.110274919856295" lon="10.07063128842707"><ele>38.71428571428571</ele><time>2026-03-22T06:26:57Z</time></trkpt><trkpt lat="45.110213803482964" lon="10.070574092500856"><ele>38.14285714285714</ele><time>2026-03-22T06:26:58Z</time></trkpt><trkpt lat="45.11015505282417" lon="10.070507057255506"><ele>37.57142857142857</ele><time>2026-03-22T06:26:59Z</time></trkpt><trkpt lat="45.11010015283914" lon="10.070431768855975"><ele>37.0</ele><time>2026-03-22T06:27:00Z</time></trkpt><trkpt lat="45.11005658489851" lon="10.070340140196606"><ele>37.0</ele><time>2026-03-22T06:27:01Z</time></trkpt><trkpt lat="45.110019626800046" lon="10.07024006857496"><ele>37.0</ele><time>2026-03-22T06:27:01.999Z</time></trkpt><trkpt lat="45.10998747668535" lon="10.070139237456099"><ele>37.0</ele><time>2026-03-22T06:27:02.999Z</time></trkpt><trkpt lat="45.109954374377445" lon="10.070044045845181"><ele>37.0</ele><time>2026-03-22T06:27:03.999Z</time></trkpt><trkpt lat="45.109924252755306" lon="10.069945731778137"><ele>37.0</ele><time>2026-03-22T06:27:04.999Z</time></trkpt><trkpt lat="45.10989211562429" lon="10.069853992536645"><ele>37.0</ele><time>2026-03-22T06:27:05.999Z</time></trkpt><trkpt lat="45.109860160265065" lon="10.069761023431571"><ele>36.42857142857143</ele><time>2026-03-22T06:27:06.999Z</time></trkpt><trkpt lat="45.1098290453468" lon="10.069667799964943"><ele>35.857142857142854</ele><time>2026-03-22T06:27:07.999Z</time></trkpt><trkpt lat="45.10980445074904" lon="10.069576815022574"><ele>35.285714285714285</ele><time>2026-03-22T06:27:08.999Z</time></trkpt><trkpt lat="45.10977864728279" lon="10.069487979650955"><ele>34.714285714285715</ele><time>2026-03-22T06:27:09.999Z</time></trkpt><trkpt lat="45.10974876877057" lon="10.069401132782726"><ele>34.142857142857146</ele><time>2026-03-22T06:27:10.999Z</time></trkpt><trkpt lat="45.10971475608247" lon="10.069316890274564"><ele>33.57142857142857</ele><time>2026-03-22T06:27:11.999Z</time></trkpt><trkpt lat="45.10968235117342" lon="10.069236454797688"><ele>33.0</ele><time>2026-03-22T06:27:12.999Z</time></trkpt><trkpt lat="45.10965151354557" lon="10.06915427795798"><ele>33.0</ele><time>2026-03-22T06:27:13.999Z</time></trkpt><trkpt lat="45.10961433361692" lon="10.069074610112652"><ele>33.0</ele><time>2026-03-22T06:27:14.999Z</time></trkpt><trkpt lat="45.10957233963851" lon="10.069005920425422"><ele>33.0</ele><time>2026-03-22T06:27:15.999Z</time></trkpt><trkpt lat="45.109526042815354" lon="10.068939593914251"><ele>33.0</ele><time>2026-03-22T06:27:16.999Z</time></trkpt><trkpt lat="45.10948153919865" lon="10.068870451321981"><ele>33.0</ele><time>2026-03-22T06:27:17.999Z</time></trkpt><trkpt lat="45.10944072412067" lon="10.068800795033479"><ele>33.0</ele><time>2026-03-22T06:27:18.999Z</time></trkpt><trkpt lat="45.109400795931734" lon="10.068729590130964"><ele>33.0</ele><time>2026-03-22T06:27:19.999Z</time></trkpt><trkpt lat="45.109359803589264" lon="10.068660884937389"><ele>33.0</ele><time>2026-03-22T06:27:20.999Z</time></trkpt><trkpt lat="45.109319943753206" lon="10.068590964833234"><ele>33.0</ele><time>2026-03-22T06:27:21.999Z</time></trkpt><trkpt lat="45.109239180136605" lon="10.06845480251666"><ele>33.0</ele><time>2026-03-22T06:27:23.999Z</time></trkpt><trkpt lat="45.10915808092111" lon="10.068319329101612"><ele>33.0</ele><time>2026-03-22T06:27:25.999Z</time></trkpt><trkpt lat="45.10907690173912" lon="10.068185298948029"><ele>33.0</ele><time>2026-03-22T06:27:27.999Z</time></trkpt><trkpt lat="45.10899613101278" lon="10.068050123640951"><ele>33.199999999999996</ele><time>2026-03-22T06:27:29.999Z</time></trkpt><trkpt lat="45.10891598920921" lon="10.06791302034375"><ele>33.4</ele><time>2026-03-22T06:27:31.999Z</time></trkpt><trkpt lat="45.108830687004016" lon="10.067780441959634"><ele>33.599999999999994</ele><time>2026-03-22T06:27:33.999Z</time></trkpt><trkpt lat="45.10875103958503" lon="10.06764399855468"><ele>33.8</ele><time>2026-03-22T06:27:35.999Z</time></trkpt><trkpt lat="45.10870942571323" lon="10.06757517293987"><ele>34.0</ele><time>2026-03-22T06:27:36.999Z</time></trkpt><trkpt lat="45.10867061433949" lon="10.06750349615601"><ele>33.833333333333336</ele><time>2026-03-22T06:27:37.999Z</time></trkpt><trkpt lat="45.108625549232315" lon="10.067434661699558"><ele>33.66666666666667</ele><time>2026-03-22T06:27:38.999Z</time></trkpt><trkpt lat="45.108582863535645" lon="10.067364704925184"><ele>33.5</ele><time>2026-03-22T06:27:39.999Z</time></trkpt><trkpt lat="45.10853980472829" lon="10.067296553337245"><ele>33.333333333333336</ele><time>2026-03-22T06:27:40.999Z</time></trkpt><trkpt lat="45.108496964744184" lon="10.067226410991603"><ele>33.166666666666664</ele><time>2026-03-22T06:27:41.999Z</time></trkpt><trkpt lat="45.10845634820236" lon="10.067157975590266"><ele>33.0</ele><time>2026-03-22T06:27:42.999Z</time></trkpt><trkpt lat="45.10837574728098" lon="10.067019670488818"><ele>33.0</ele><time>2026-03-22T06:27:44.999Z</time></trkpt><trkpt lat="45.10829509067229" lon="10.066887673070223"><ele>33.0</ele><time>2026-03-22T06:27:46.999Z</time></trkpt><trkpt lat="45.108217041470844" lon="10.066760118812613"><ele>33.0</ele><time>2026-03-22T06:27:48.999Z</time></trkpt><trkpt lat="45.108143480846586" lon="10.066632536297073"><ele>33.0</ele><time>2026-03-22T06:27:50.999Z</time></trkpt><trkpt lat="45.10806728954714" lon="10.06650471706427"><ele>33.0</ele><time>2026-03-22T06:27:52.999Z</time></trkpt><trkpt lat="45.10799083808968" lon="10.066377060477386"><ele>33.0</ele><time>2026-03-22T06:27:54.999Z</time></trkpt><trkpt lat="45.107912985506864" lon="10.066252396266842"><ele>33.0</ele><time>2026-03-22T06:27:56.999Z</time></trkpt><trkpt lat="45.107836438914696" lon="10.066129301468603"><ele>33.0</ele><time>2026-03-22T06:27:59Z</time></trkpt><trkpt lat="45.10776329439187" lon="10.06600498725848"><ele>33.0</ele><time>2026-03-22T06:28:01Z</time></trkpt><trkpt lat="45.107687144538914" lon="10.065881935086859"><ele>33.0</ele><time>2026-03-22T06:28:03Z</time></trkpt><trkpt lat="45.10760615260385" lon="10.065751267664027"><ele>33.0</ele><time>2026-03-22T06:28:05Z</time></trkpt><trkpt lat="45.107531883002586" lon="10.065629944858312"><ele>33.0</ele><time>2026-03-22T06:28:07Z</time></trkpt><trkpt lat="45.10745184486606" lon="10.065502488206196"><ele>32.75</ele><time>2026-03-22T06:28:09Z</time></trkpt><trkpt lat="45.10737366487304" lon="10.06537919150451"><ele>32.5</ele><time>2026-03-22T06:28:11Z</time></trkpt><trkpt lat="45.10729680174444" lon="10.065256086958959"><ele>32.25</ele><time>2026-03-22T06:28:13Z</time></trkpt><trkpt lat="45.107223331839926" lon="10.065134766486887"><ele>32.0</ele><time>2026-03-22T06:28:15Z</time></trkpt><trkpt lat="45.10714677290465" lon="10.065019184040006"><ele>32.25</ele><time>2026-03-22T06:28:17Z</time></trkpt><trkpt lat="45.10707259417506" lon="10.06489686976376"><ele>32.5</ele><time>2026-03-22T06:28:19Z</time></trkpt><trkpt lat="45.106998226223254" lon="10.06477460921069"><ele>32.75</ele><time>2026-03-22T06:28:21Z</time></trkpt><trkpt lat="45.106925371381685" lon="10.064654671351246"><ele>33.0</ele><time>2026-03-22T06:28:23Z</time></trkpt><trkpt lat="45.106850935524456" lon="10.064529298228356"><ele>33.0</ele><time>2026-03-22T06:28:25Z</time></trkpt><trkpt lat="45.10677528924155" lon="10.064406707631319"><ele>33.0</ele><time>2026-03-22T06:28:27Z</time></trkpt><trkpt lat="45.106700636805336" lon="10.064286607265553"><ele>33.0</ele><time>2026-03-22T06:28:29Z</time></trkpt><trkpt lat="45.10662501488036" lon="10.064167223488356"><ele>33.0</ele><time>2026-03-22T06:28:31Z</time></trkpt><trkpt lat="45.10655335886962" lon="10.064056542440055"><ele>33.0</ele><time>2026-03-22T06:28:33Z</time></trkpt><trkpt lat="45.10648197437052" lon="10.06394845471727"><ele>33.4</ele><time>2026-03-22T06:28:35Z</time></trkpt><trkpt lat="45.106411962964316" lon="10.063840980223887"><ele>33.8</ele><time>2026-03-22T06:28:37Z</time></trkpt><trkpt lat="45.10634595210806" lon="10.063733472781523"><ele>34.2</ele><time>2026-03-22T06:28:39Z</time></trkpt><trkpt lat="45.106282618594605" lon="10.06363270039405"><ele>34.6</ele><time>2026-03-22T06:28:41Z</time></trkpt><trkpt lat="45.1062206063237" lon="10.063537435176654"><ele>35.0</ele><time>2026-03-22T06:28:43Z</time></trkpt><trkpt lat="45.10616250104518" lon="10.063438075635311"><ele>35.0</ele><time>2026-03-22T06:28:45Z</time></trkpt><trkpt lat="45.10610180212761" lon="10.063337202022002"><ele>35.0</ele><time>2026-03-22T06:28:47Z</time></trkpt><trkpt lat="45.10602636989803" lon="10.06318995566784"><ele>35.0</ele><time>2026-03-22T06:28:50Z</time></trkpt><trkpt lat="45.1059629574005" lon="10.06308835757285"><ele>35.0</ele><time>2026-03-22T06:28:52Z</time></trkpt><trkpt lat="45.10588676900974" lon="10.062983504594714"><ele>35.0</ele><time>2026-03-22T06:28:54Z</time></trkpt><trkpt lat="45.10580550041546" lon="10.06286817772203"><ele>34.8</ele><time>2026-03-22T06:28:56Z</time></trkpt><trkpt lat="45.10572987962446" lon="10.062747651430204"><ele>34.6</ele><time>2026-03-22T06:28:58Z</time></trkpt><trkpt lat="45.10564491313516" lon="10.062623045858338"><ele>34.4</ele><time>2026-03-22T06:29:00Z</time></trkpt><trkpt lat="45.10555807549778" lon="10.062493630510334"><ele>34.2</ele><time>2026-03-22T06:29:01.999Z</time></trkpt><trkpt lat="45.10551378987894" lon="10.062425606348983"><ele>34.0</ele><time>2026-03-22T06:29:02.999Z</time></trkpt><trkpt lat="45.10546684131789" lon="10.06235778588138"><ele>33.71428571428571</ele><time>2026-03-22T06:29:03.999Z</time></trkpt><trkpt lat="45.105414591255474" lon="10.06229257364597"><ele>33.42857142857143</ele><time>2026-03-22T06:29:04.999Z</time></trkpt><trkpt lat="45.105358989350954" lon="10.062232287676535"><ele>33.14285714285714</ele><time>2026-03-22T06:29:05.999Z</time></trkpt><trkpt lat="45.105300031220594" lon="10.062181463490866"><ele>32.857142857142854</ele><time>2026-03-22T06:29:06.999Z</time></trkpt><trkpt lat="45.105240798466006" lon="10.062133558965513"><ele>32.57142857142857</ele><time>2026-03-22T06:29:07.999Z</time></trkpt><trkpt lat="45.10517489690699" lon="10.06208591505192"><ele>32.285714285714285</ele><time>2026-03-22T06:29:08.999Z</time></trkpt><trkpt lat="45.10511919917822" lon="10.062033340389139"><ele>32.0</ele><time>2026-03-22T06:29:09.999Z</time></trkpt><trkpt lat="45.10500444134293" lon="10.061975017655046"><ele>32.0</ele><time>2026-03-22T06:29:11.999Z</time></trkpt><trkpt lat="45.10489326137086" lon="10.06195060361121"><ele>32.0</ele><time>2026-03-22T06:29:13.999Z</time></trkpt><trkpt lat="45.10478677251604" lon="10.061968919766269"><ele>32.0</ele><time>2026-03-22T06:29:15.999Z</time></trkpt><trkpt lat="45.10467960443262" lon="10.06199914296192"><ele>32.0</ele><time>2026-03-22T06:29:17.999Z</time></trkpt><trkpt lat="45.104572499859536" lon="10.06204575716101"><ele>32.0</ele><time>2026-03-22T06:29:19.999Z</time></trkpt><trkpt lat="45.10447152621083" lon="10.062102785207363"><ele>32.0</ele><time>2026-03-22T06:29:21.999Z</time></trkpt><trkpt lat="45.10437405675152" lon="10.0621638279804"><ele>32.0</ele><time>2026-03-22T06:29:23.999Z</time></trkpt><trkpt lat="45.10427763400998" lon="10.06221381487982"><ele>32.0</ele><time>2026-03-22T06:29:25.999Z</time></trkpt><trkpt lat="45.10417802381351" lon="10.062273523489146"><ele>32.0</ele><time>2026-03-22T06:29:27.999Z</time></trkpt><trkpt lat="45.104071286754994" lon="10.062338051277942"><ele>32.0</ele><time>2026-03-22T06:29:29.999Z</time></trkpt><trkpt lat="45.103964669445354" lon="10.062375652475831"><ele>32.4</ele><time>2026-03-22T06:29:31.999Z</time></trkpt><trkpt lat="45.10385845596551" lon="10.062436833922954"><ele>32.800000000000004</ele><time>2026-03-22T06:29:33.999Z</time></trkpt><trkpt lat="45.103753735535825" lon="10.062496390947162"><ele>33.2</ele><time>2026-03-22T06:29:35.999Z</time></trkpt><trkpt lat="45.10366872606465" lon="10.062569798886749"><ele>33.6</ele><time>2026-03-22T06:29:37.999Z</time></trkpt><trkpt lat="45.10355665389721" lon="10.062624205748206"><ele>34.0</ele><time>2026-03-22T06:29:39.999Z</time></trkpt><trkpt lat="45.10345845478435" lon="10.062673951895029"><ele>34.0</ele><time>2026-03-22T06:29:41.999Z</time></trkpt><trkpt lat="45.10335950365353" lon="10.062721859453122"><ele>34.0</ele><time>2026-03-22T06:29:43.999Z</time></trkpt><trkpt lat="45.10326291814745" lon="10.062668306315045"><ele>34.0</ele><time>2026-03-22T06:29:45.999Z</time></trkpt><trkpt lat="45.10324157469938" lon="10.062583796750827"><ele>34.0</ele><time>2026-03-22T06:29:46.999Z</time></trkpt><trkpt lat="45.1032482240828" lon="10.062494696073221"><ele>34.0</ele><time>2026-03-22T06:29:47.999Z</time></trkpt><trkpt lat="45.103262299020514" lon="10.06233295851483"><ele>34.25</ele><time>2026-03-22T06:29:49.999Z</time></trkpt><trkpt lat="45.103282354720015" lon="10.062171942356953"><ele>34.5</ele><time>2026-03-22T06:29:51.999Z</time></trkpt><trkpt lat="45.10328041563245" lon="10.062013385093037"><ele>34.75</ele><time>2026-03-22T06:29:53.999Z</time></trkpt><trkpt lat="45.10328037949908" lon="10.061852461297415"><ele>35.0</ele><time>2026-03-22T06:29:55.999Z</time></trkpt><trkpt lat="45.1032839240144" lon="10.061691618074091"><ele>35.2</ele><time>2026-03-22T06:29:57.999Z</time></trkpt><trkpt lat="45.103288297035164" lon="10.0615298278916"><ele>35.4</ele><time>2026-03-22T06:29:59.999Z</time></trkpt><trkpt lat="45.103286808852054" lon="10.061356121296017"><ele>35.6</ele><time>2026-03-22T06:30:01.998Z</time></trkpt><trkpt lat="45.10328987782152" lon="10.061266984873031"><ele>35.8</ele><time>2026-03-22T06:30:02.998Z</time></trkpt><trkpt lat="45.10329224332137" lon="10.061090531813024"><ele>36.0</ele><time>2026-03-22T06:30:05Z</time></trkpt><trkpt lat="45.103293261936216" lon="10.060998850999841"><ele>36.00000000000001</ele><time>2026-03-22T06:30:06Z</time></trkpt><trkpt lat="45.103299345841684" lon="10.060907081406581"><ele>36.0</ele><time>2026-03-22T06:30:07Z</time></trkpt><trkpt lat="45.10330134753628" lon="10.060813797380852"><ele>36.0</ele><time>2026-03-22T06:30:08Z</time></trkpt><trkpt lat="45.10330340735393" lon="10.060721394487764"><ele>36.0</ele><time>2026-03-22T06:30:09Z</time></trkpt><trkpt lat="45.10330096203206" lon="10.060630201439759"><ele>36.0</ele><time>2026-03-22T06:30:10Z</time></trkpt><trkpt lat="45.10330247566264" lon="10.060536209265393"><ele>36.00000000000001</ele><time>2026-03-22T06:30:11Z</time></trkpt><trkpt lat="45.10330744173552" lon="10.060444045241386"><ele>36.0</ele><time>2026-03-22T06:30:12Z</time></trkpt><trkpt lat="45.10330980644665" lon="10.060351229994097"><ele>35.85714285714286</ele><time>2026-03-22T06:30:13Z</time></trkpt><trkpt lat="45.103310897815014" lon="10.060258146791975"><ele>35.714285714285715</ele><time>2026-03-22T06:30:14Z</time></trkpt><trkpt lat="45.103314093167185" lon="10.060165513276925"><ele>35.57142857142857</ele><time>2026-03-22T06:30:15Z</time></trkpt><trkpt lat="45.103314597356324" lon="10.060072211812594"><ele>35.42857142857143</ele><time>2026-03-22T06:30:16Z</time></trkpt><trkpt lat="45.10331437788926" lon="10.059980361309577"><ele>35.285714285714285</ele><time>2026-03-22T06:30:17Z</time></trkpt><trkpt lat="45.103325395045346" lon="10.05988562166039"><ele>35.142857142857146</ele><time>2026-03-22T06:30:18Z</time></trkpt><trkpt lat="45.10331612504003" lon="10.059793600385992"><ele>35.0</ele><time>2026-03-22T06:30:19Z</time></trkpt><trkpt lat="45.103319138919815" lon="10.05970010244441"><ele>35.0</ele><time>2026-03-22T06:30:20Z</time></trkpt><trkpt lat="45.103321488341756" lon="10.059607603715559"><ele>35.0</ele><time>2026-03-22T06:30:21Z</time></trkpt><trkpt lat="45.10331967324313" lon="10.059516113721253"><ele>35.0</ele><time>2026-03-22T06:30:22Z</time></trkpt><trkpt lat="45.10331247593474" lon="10.059425928724492"><ele>35.0</ele><time>2026-03-22T06:30:23Z</time></trkpt><trkpt lat="45.103310782703545" lon="10.05933636192767"><ele>35.0</ele><time>2026-03-22T06:30:24Z</time></trkpt><trkpt lat="45.10325869952834" lon="10.059261574943646"><ele>35.0</ele><time>2026-03-22T06:30:25Z</time></trkpt><trkpt lat="45.10320955201657" lon="10.059197023842867"><ele>35.0</ele><time>2026-03-22T06:30:26Z</time></trkpt><trkpt lat="45.10315221038208" lon="10.059154120503445"><ele>35.166666666666664</ele><time>2026-03-22T06:30:27Z</time></trkpt><trkpt lat="45.103090033722886" lon="10.059126814896924"><ele>35.33333333333333</ele><time>2026-03-22T06:30:28Z</time></trkpt><trkpt lat="45.10302603185117" lon="10.059113563459386"><ele>35.5</ele><time>2026-03-22T06:30:29Z</time></trkpt><trkpt lat="45.102961263391535" lon="10.059104892668808"><ele>35.666666666666664</ele><time>2026-03-22T06:30:30Z</time></trkpt><trkpt lat="45.10284479617332" lon="10.059049670560945"><ele>35.833333333333336</ele><time>2026-03-22T06:30:32Z</time></trkpt><trkpt lat="45.10279693020037" lon="10.058976309766559"><ele>36.0</ele><time>2026-03-22T06:30:33Z</time></trkpt><trkpt lat="45.10276967676891" lon="10.058884670078836"><ele>36.2</ele><time>2026-03-22T06:30:34Z</time></trkpt><trkpt lat="45.10276196137979" lon="10.058794001932853"><ele>36.400000000000006</ele><time>2026-03-22T06:30:35Z</time></trkpt><trkpt lat="45.102729907916256" lon="10.058627861098676"><ele>36.6</ele><time>2026-03-22T06:30:37Z</time></trkpt><trkpt lat="45.102711016812194" lon="10.058474219054974"><ele>36.800000000000004</ele><time>2026-03-22T06:30:39Z</time></trkpt><trkpt lat="45.10268792608078" lon="10.058316124650815"><ele>37.0</ele><time>2026-03-22T06:30:41Z</time></trkpt><trkpt lat="45.102654020631554" lon="10.058178833391223"><ele>37.6</ele><time>2026-03-22T06:30:43Z</time></trkpt><trkpt lat="45.102620933957894" lon="10.058054650783003"><ele>38.2</ele><time>2026-03-22T06:30:45Z</time></trkpt><trkpt lat="45.10259159890391" lon="10.057938783523321"><ele>38.8</ele><time>2026-03-22T06:30:47Z</time></trkpt><trkpt lat="45.102558860475796" lon="10.057797913455598"><ele>39.4</ele><time>2026-03-22T06:30:49Z</time></trkpt><trkpt lat="45.10251986129522" lon="10.057637656819235"><ele>40.0</ele><time>2026-03-22T06:30:51Z</time></trkpt><trkpt lat="45.1024802707218" lon="10.057481134191683"><ele>39.8</ele><time>2026-03-22T06:30:53Z</time></trkpt><trkpt lat="45.10242332189023" lon="10.05733487339264"><ele>39.6</ele><time>2026-03-22T06:30:55Z</time></trkpt><trkpt lat="45.10236553586323" lon="10.057180390255358"><ele>39.4</ele><time>2026-03-22T06:30:57Z</time></trkpt><trkpt lat="45.10231049880215" lon="10.057019086244356"><ele>39.2</ele><time>2026-03-22T06:30:59Z</time></trkpt><trkpt lat="45.10228355534409" lon="10.056937695516655"><ele>39.0</ele><time>2026-03-22T06:31:00Z</time></trkpt><trkpt lat="45.10225454532869" lon="10.05685606788588"><ele>38.85714285714286</ele><time>2026-03-22T06:31:01Z</time></trkpt><trkpt lat="45.10222743142076" lon="10.056770473366244"><ele>38.71428571428571</ele><time>2026-03-22T06:31:01.999Z</time></trkpt><trkpt lat="45.10219788628876" lon="10.056686562880747"><ele>38.57142857142857</ele><time>2026-03-22T06:31:02.999Z</time></trkpt><trkpt lat="45.102170184532405" lon="10.05660025810153"><ele>38.42857142857143</ele><time>2026-03-22T06:31:03.999Z</time></trkpt><trkpt lat="45.10214439168243" lon="10.056510967106853"><ele>38.28571428571429</ele><time>2026-03-22T06:31:04.999Z</time></trkpt><trkpt lat="45.10211911230097" lon="10.05642391175697"><ele>38.14285714285714</ele><time>2026-03-22T06:31:05.999Z</time></trkpt><trkpt lat="45.102090309860365" lon="10.056339302127922"><ele>38.0</ele><time>2026-03-22T06:31:06.999Z</time></trkpt><trkpt lat="45.1020631903107" lon="10.056257202933654"><ele>37.714285714285715</ele><time>2026-03-22T06:31:07.999Z</time></trkpt><trkpt lat="45.10203242752988" lon="10.056172401920623"><ele>37.42857142857143</ele><time>2026-03-22T06:31:08.999Z</time></trkpt><trkpt lat="45.102002829764004" lon="10.05608984403494"><ele>37.142857142857146</ele><time>2026-03-22T06:31:09.999Z</time></trkpt><trkpt lat="45.101974400847624" lon="10.05600539466583"><ele>36.85714285714286</ele><time>2026-03-22T06:31:10.999Z</time></trkpt><trkpt lat="45.10194409851451" lon="10.055923026683907"><ele>36.57142857142857</ele><time>2026-03-22T06:31:11.999Z</time></trkpt><trkpt lat="45.101916275617455" lon="10.05583664656827"><ele>36.28571428571429</ele><time>2026-03-22T06:31:12.999Z</time></trkpt><trkpt lat="45.10188451794445" lon="10.05575543216682"><ele>36.0</ele><time>2026-03-22T06:31:13.999Z</time></trkpt><trkpt lat="45.10185714054727" lon="10.055670712857253"><ele>35.714285714285715</ele><time>2026-03-22T06:31:14.999Z</time></trkpt><trkpt lat="45.10182958224833" lon="10.055586266317064"><ele>35.42857142857143</ele><time>2026-03-22T06:31:15.999Z</time></trkpt><trkpt lat="45.101801304315096" lon="10.055500872739888"><ele>35.14285714285714</ele><time>2026-03-22T06:31:16.999Z</time></trkpt><trkpt lat="45.101772250813326" lon="10.05541782397217"><ele>34.85714285714286</ele><time>2026-03-22T06:31:17.999Z</time></trkpt><trkpt lat="45.10174613319938" lon="10.055332418393515"><ele>34.57142857142857</ele><time>2026-03-22T06:31:18.999Z</time></trkpt><trkpt lat="45.10171515042715" lon="10.055248941349706"><ele>34.285714285714285</ele><time>2026-03-22T06:31:19.999Z</time></trkpt><trkpt lat="45.101687143228624" lon="10.055168802469376"><ele>34.0</ele><time>2026-03-22T06:31:20.999Z</time></trkpt><trkpt lat="45.101658821280935" lon="10.055086422196599"><ele>34.0</ele><time>2026-03-22T06:31:21.999Z</time></trkpt><trkpt lat="45.101630207064716" lon="10.055004563270412"><ele>34.0</ele><time>2026-03-22T06:31:22.999Z</time></trkpt><trkpt lat="45.101575472832636" lon="10.054843193574929"><ele>34.0</ele><time>2026-03-22T06:31:24.999Z</time></trkpt><trkpt lat="45.101523904590756" lon="10.05468009613954"><ele>34.0</ele><time>2026-03-22T06:31:26.999Z</time></trkpt><trkpt lat="45.10149910598013" lon="10.054597271561265"><ele>34.0</ele><time>2026-03-22T06:31:27.999Z</time></trkpt><trkpt lat="45.101452667846075" lon="10.054430019955557"><ele>34.14285714285714</ele><time>2026-03-22T06:31:29.999Z</time></trkpt><trkpt lat="45.10142973112128" lon="10.054344901295538"><ele>34.285714285714285</ele><time>2026-03-22T06:31:30.999Z</time></trkpt><trkpt lat="45.10140662315414" lon="10.054257196757035"><ele>34.42857142857143</ele><time>2026-03-22T06:31:31.999Z</time></trkpt><trkpt lat="45.10138480452849" lon="10.05416940150087"><ele>34.57142857142857</ele><time>2026-03-22T06:31:32.999Z</time></trkpt><trkpt lat="45.10137431951136" lon="10.054078395768736"><ele>34.714285714285715</ele><time>2026-03-22T06:31:33.999Z</time></trkpt><trkpt lat="45.10137474777827" lon="10.05398677940157"><ele>34.857142857142854</ele><time>2026-03-22T06:31:34.999Z</time></trkpt><trkpt lat="45.101378179976884" lon="10.053893537418139"><ele>35.0</ele><time>2026-03-22T06:31:35.999Z</time></trkpt><trkpt lat="45.10138620645444" lon="10.053714079820093"><ele>35.0</ele><time>2026-03-22T06:31:37.999Z</time></trkpt><trkpt lat="45.10139220089934" lon="10.053624790927458"><ele>35.0</ele><time>2026-03-22T06:31:38.999Z</time></trkpt><trkpt lat="45.101399387889366" lon="10.053448223489797"><ele>35.0</ele><time>2026-03-22T06:31:40.999Z</time></trkpt><trkpt lat="45.10140404734001" lon="10.053357989822578"><ele>35.0</ele><time>2026-03-22T06:31:41.999Z</time></trkpt><trkpt lat="45.10141993827291" lon="10.05318060113824"><ele>35.0</ele><time>2026-03-22T06:31:43.999Z</time></trkpt><trkpt lat="45.10142719877957" lon="10.053091218900123"><ele>35.0</ele><time>2026-03-22T06:31:44.999Z</time></trkpt><trkpt lat="45.1014356296609" lon="10.053002155415458"><ele>35.0</ele><time>2026-03-22T06:31:45.999Z</time></trkpt><trkpt lat="45.10145546246174" lon="10.052826083026478"><ele>35.0</ele><time>2026-03-22T06:31:47.999Z</time></trkpt><trkpt lat="45.10146090630404" lon="10.052734986777956"><ele>35.0</ele><time>2026-03-22T06:31:48.999Z</time></trkpt><trkpt lat="45.10146783815766" lon="10.052646236562618"><ele>35.0</ele><time>2026-03-22T06:31:49.999Z</time></trkpt><trkpt lat="45.10147620280208" lon="10.052555865293881"><ele>35.0</ele><time>2026-03-22T06:31:50.999Z</time></trkpt><trkpt lat="45.10148971227443" lon="10.052379468580265"><ele>35.0</ele><time>2026-03-22T06:31:52.999Z</time></trkpt><trkpt lat="45.101496037894854" lon="10.052289601409518"><ele>35.166666666666664</ele><time>2026-03-22T06:31:53.999Z</time></trkpt><trkpt lat="45.10150333023988" lon="10.052199816525347"><ele>35.33333333333333</ele><time>2026-03-22T06:31:54.999Z</time></trkpt><trkpt lat="45.10151107877327" lon="10.052111219918697"><ele>35.5</ele><time>2026-03-22T06:31:55.999Z</time></trkpt><trkpt lat="45.10151818903636" lon="10.052021141280504"><ele>35.666666666666664</ele><time>2026-03-22T06:31:56.999Z</time></trkpt><trkpt lat="45.10153220262963" lon="10.05184405698184"><ele>35.833333333333336</ele><time>2026-03-22T06:31:58.999Z</time></trkpt><trkpt lat="45.10154771123168" lon="10.05166702496608"><ele>36.0</ele><time>2026-03-22T06:32:00.999Z</time></trkpt><trkpt lat="45.10156131447982" lon="10.051491554205777"><ele>36.166666666666664</ele><time>2026-03-22T06:32:02.998Z</time></trkpt><trkpt lat="45.10157455958134" lon="10.051316581419682"><ele>36.333333333333336</ele><time>2026-03-22T06:32:04.998Z</time></trkpt><trkpt lat="45.10160106607759" lon="10.051146679492017"><ele>36.5</ele><time>2026-03-22T06:32:06.998Z</time></trkpt><trkpt lat="45.10163238556539" lon="10.0510690880603"><ele>36.66666666666667</ele><time>2026-03-22T06:32:07.998Z</time></trkpt><trkpt lat="45.10169264365546" lon="10.05102125507754"><ele>36.833333333333336</ele><time>2026-03-22T06:32:09Z</time></trkpt><trkpt lat="45.10175800684986" lon="10.05102001920512"><ele>37.0</ele><time>2026-03-22T06:32:10Z</time></trkpt><trkpt lat="45.10182515042512" lon="10.051040293846038"><ele>37.0</ele><time>2026-03-22T06:32:11Z</time></trkpt><trkpt lat="45.1018909929634" lon="10.051059515568403"><ele>37.0</ele><time>2026-03-22T06:32:12Z</time></trkpt><trkpt lat="45.10195354440948" lon="10.051073873805903"><ele>37.0</ele><time>2026-03-22T06:32:13Z</time></trkpt><trkpt lat="45.10207930642064" lon="10.051090838448992"><ele>37.0</ele><time>2026-03-22T06:32:15Z</time></trkpt><trkpt lat="45.102204140746245" lon="10.051101885894981"><ele>37.0</ele><time>2026-03-22T06:32:17Z</time></trkpt><trkpt lat="45.10232833897177" lon="10.051109305286577"><ele>36.714285714285715</ele><time>2026-03-22T06:32:19Z</time></trkpt><trkpt lat="45.10245508665045" lon="10.051120357024569"><ele>36.42857142857143</ele><time>2026-03-22T06:32:21Z</time></trkpt><trkpt lat="45.10251933585633" lon="10.051125326041847"><ele>36.14285714285714</ele><time>2026-03-22T06:32:22Z</time></trkpt><trkpt lat="45.10258218801888" lon="10.051135156661857"><ele>35.85714285714286</ele><time>2026-03-22T06:32:23Z</time></trkpt><trkpt lat="45.102646299971745" lon="10.05114359039631"><ele>35.57142857142857</ele><time>2026-03-22T06:32:24Z</time></trkpt><trkpt lat="45.10270977285438" lon="10.051146491545826"><ele>35.285714285714285</ele><time>2026-03-22T06:32:25Z</time></trkpt><trkpt lat="45.1027744251241" lon="10.0511543006296"><ele>35.0</ele><time>2026-03-22T06:32:26Z</time></trkpt><trkpt lat="45.102839390885556" lon="10.051163329623316"><ele>35.0</ele><time>2026-03-22T06:32:27Z</time></trkpt><trkpt lat="45.102903547309346" lon="10.051172812387994"><ele>35.0</ele><time>2026-03-22T06:32:28Z</time></trkpt><trkpt lat="45.103026215742446" lon="10.051190214509408"><ele>35.0</ele><time>2026-03-22T06:32:30Z</time></trkpt><trkpt lat="45.103152028150454" lon="10.051208444336908"><ele>35.0</ele><time>2026-03-22T06:32:32Z</time></trkpt><trkpt lat="45.10327796797268" lon="10.05122729869848"><ele>35.0</ele><time>2026-03-22T06:32:34Z</time></trkpt><trkpt lat="45.103340801972344" lon="10.051235061730038"><ele>34.75</ele><time>2026-03-22T06:32:35Z</time></trkpt><trkpt lat="45.103464350110286" lon="10.051260031905338"><ele>34.5</ele><time>2026-03-22T06:32:37Z</time></trkpt><trkpt lat="45.103585522983956" lon="10.051285625682855"><ele>34.25</ele><time>2026-03-22T06:32:39Z</time></trkpt><trkpt lat="45.103711398575115" lon="10.051304972701686"><ele>34.0</ele><time>2026-03-22T06:32:41Z</time></trkpt><trkpt lat="45.103836653185674" lon="10.051326234173919"><ele>34.0</ele><time>2026-03-22T06:32:43Z</time></trkpt><trkpt lat="45.10395911357547" lon="10.051349642452715"><ele>34.0</ele><time>2026-03-22T06:32:45Z</time></trkpt><trkpt lat="45.10408251531044" lon="10.0513733704276"><ele>34.0</ele><time>2026-03-22T06:32:47Z</time></trkpt><trkpt lat="45.10420862170802" lon="10.051402364636758"><ele>34.0</ele><time>2026-03-22T06:32:49Z</time></trkpt><trkpt lat="45.10427100756753" lon="10.051414395444775"><ele>34.0</ele><time>2026-03-22T06:32:50Z</time></trkpt><trkpt lat="45.10439263334672" lon="10.051434977341753"><ele>33.8</ele><time>2026-03-22T06:32:52Z</time></trkpt><trkpt lat="45.104457436078135" lon="10.051448365775583"><ele>33.599999999999994</ele><time>2026-03-22T06:32:53Z</time></trkpt><trkpt lat="45.104581050726004" lon="10.051472954203604"><ele>33.4</ele><time>2026-03-22T06:32:55Z</time></trkpt><trkpt lat="45.10470684332368" lon="10.051481723736485"><ele>33.199999999999996</ele><time>2026-03-22T06:32:57Z</time></trkpt><trkpt lat="45.1048292930216" lon="10.05148984922108"><ele>33.0</ele><time>2026-03-22T06:32:59Z</time></trkpt><trkpt lat="45.10494905932715" lon="10.051484055623389"><ele>33.0</ele><time>2026-03-22T06:33:01Z</time></trkpt><trkpt lat="45.105070267711454" lon="10.051483271481983"><ele>33.0</ele><time>2026-03-22T06:33:03Z</time></trkpt><trkpt lat="45.105183236520496" lon="10.051440758361553"><ele>33.0</ele><time>2026-03-22T06:33:04.999Z</time></trkpt><trkpt lat="45.105236122568364" lon="10.051278221916291"><ele>33.0</ele><time>2026-03-22T06:33:06.999Z</time></trkpt><trkpt lat="45.10523526382982" lon="10.051185076130778"><ele>33.0</ele><time>2026-03-22T06:33:07.999Z</time></trkpt><trkpt lat="45.10523449561599" lon="10.051088734445694"><ele>33.0</ele><time>2026-03-22T06:33:08.999Z</time></trkpt><trkpt lat="45.10523389159518" lon="10.050996592573687"><ele>33.0</ele><time>2026-03-22T06:33:09.999Z</time></trkpt><trkpt lat="45.10523329161909" lon="10.050903471952378"><ele>33.0</ele><time>2026-03-22T06:33:10.999Z</time></trkpt><trkpt lat="45.10523300648469" lon="10.050809900139415"><ele>33.0</ele><time>2026-03-22T06:33:11.999Z</time></trkpt><trkpt lat="45.10523283585972" lon="10.05071730893439"><ele>33.0</ele><time>2026-03-22T06:33:12.999Z</time></trkpt><trkpt lat="45.10523323164019" lon="10.05062673023145"><ele>33.0</ele><time>2026-03-22T06:33:13.999Z</time></trkpt><trkpt lat="45.10523325128413" lon="10.050536515653569"><ele>33.0</ele><time>2026-03-22T06:33:14.999Z</time></trkpt><trkpt lat="45.10523485297238" lon="10.050360988658104"><ele>33.0</ele><time>2026-03-22T06:33:16.999Z</time></trkpt><trkpt lat="45.105234955345296" lon="10.050183135215066"><ele>33.0</ele><time>2026-03-22T06:33:18.999Z</time></trkpt><trkpt lat="45.10523507594913" lon="10.050005967552435"><ele>33.0</ele><time>2026-03-22T06:33:20.999Z</time></trkpt><trkpt lat="45.105234803323654" lon="10.049827740174159"><ele>33.0</ele><time>2026-03-22T06:33:22.999Z</time></trkpt><trkpt lat="45.10522934465922" lon="10.049648067885371"><ele>33.0</ele><time>2026-03-22T06:33:24.999Z</time></trkpt><trkpt lat="45.10522538967535" lon="10.049558501974516"><ele>33.0</ele><time>2026-03-22T06:33:25.999Z</time></trkpt><trkpt lat="45.105222457888644" lon="10.049469011512638"><ele>33.0</ele><time>2026-03-22T06:33:26.999Z</time></trkpt><trkpt lat="45.10521389654561" lon="10.04929288287614"><ele>33.0</ele><time>2026-03-22T06:33:28.999Z</time></trkpt><trkpt lat="45.10520797286788" lon="10.049115831788567"><ele>33.0</ele><time>2026-03-22T06:33:30.999Z</time></trkpt><trkpt lat="45.105191768783584" lon="10.048941584264657"><ele>33.285714285714285</ele><time>2026-03-22T06:33:32.999Z</time></trkpt><trkpt lat="45.105182115633454" lon="10.048853239339383"><ele>33.57142857142857</ele><time>2026-03-22T06:33:33.999Z</time></trkpt><trkpt lat="45.105175126249506" lon="10.04876364649072"><ele>33.85714285714286</ele><time>2026-03-22T06:33:34.999Z</time></trkpt><trkpt lat="45.10515672944865" lon="10.048588834570104"><ele>34.14285714285714</ele><time>2026-03-22T06:33:36.999Z</time></trkpt><trkpt lat="45.10514542832231" lon="10.048500589650386"><ele>34.42857142857143</ele><time>2026-03-22T06:33:37.999Z</time></trkpt><trkpt lat="45.10513458021604" lon="10.048410258365815"><ele>34.714285714285715</ele><time>2026-03-22T06:33:38.999Z</time></trkpt><trkpt lat="45.10512448298129" lon="10.048320362662968"><ele>35.0</ele><time>2026-03-22T06:33:39.999Z</time></trkpt><trkpt lat="45.10511374486192" lon="10.048232404428022"><ele>35.0</ele><time>2026-03-22T06:33:40.999Z</time></trkpt><trkpt lat="45.105103214454715" lon="10.04814413798044"><ele>35.0</ele><time>2026-03-22T06:33:41.999Z</time></trkpt><trkpt lat="45.10508082399271" lon="10.047969349920443"><ele>35.0</ele><time>2026-03-22T06:33:43.999Z</time></trkpt><trkpt lat="45.105053206237" lon="10.047799872336128"><ele>35.0</ele><time>2026-03-22T06:33:45.999Z</time></trkpt><trkpt lat="45.10501117585642" lon="10.047639001666004"><ele>35.0</ele><time>2026-03-22T06:33:47.999Z</time></trkpt><trkpt lat="45.104968623991766" lon="10.047486235742252"><ele>34.75</ele><time>2026-03-22T06:33:49.999Z</time></trkpt><trkpt lat="45.10492853515579" lon="10.047328007024722"><ele>34.5</ele><time>2026-03-22T06:33:51.999Z</time></trkpt><trkpt lat="45.104889898602856" lon="10.047164547261836"><ele>34.25</ele><time>2026-03-22T06:33:53.999Z</time></trkpt><trkpt lat="45.104850778929084" lon="10.04699922832036"><ele>34.0</ele><time>2026-03-22T06:33:55.999Z</time></trkpt><trkpt lat="45.104815388351454" lon="10.046828669589573"><ele>33.833333333333336</ele><time>2026-03-22T06:33:57.999Z</time></trkpt><trkpt lat="45.10477822983405" lon="10.046657631235703"><ele>33.66666666666667</ele><time>2026-03-22T06:33:59.999Z</time></trkpt><trkpt lat="45.10473853784258" lon="10.046486153089733"><ele>33.5</ele><time>2026-03-22T06:34:01.999Z</time></trkpt><trkpt lat="45.10471681873953" lon="10.046400804023252"><ele>33.333333333333336</ele><time>2026-03-22T06:34:02.999Z</time></trkpt><trkpt lat="45.104697756267065" lon="10.046312102438687"><ele>33.166666666666664</ele><time>2026-03-22T06:34:03.999Z</time></trkpt><trkpt lat="45.10467752234187" lon="10.0462253989178"><ele>33.0</ele><time>2026-03-22T06:34:04.999Z</time></trkpt><trkpt lat="45.10465880688609" lon="10.046137625633955"><ele>33.0</ele><time>2026-03-22T06:34:05.999Z</time></trkpt><trkpt lat="45.10464041171649" lon="10.0460494349831"><ele>33.0</ele><time>2026-03-22T06:34:06.998Z</time></trkpt><trkpt lat="45.104620178464" lon="10.04596395287076"><ele>33.0</ele><time>2026-03-22T06:34:07.998Z</time></trkpt><trkpt lat="45.10460026522648" lon="10.045878695554775"><ele>33.0</ele><time>2026-03-22T06:34:08.998Z</time></trkpt><trkpt lat="45.104558294718416" lon="10.045711573514327"><ele>33.0</ele><time>2026-03-22T06:34:10.998Z</time></trkpt><trkpt lat="45.10453830656513" lon="10.045626684793596"><ele>33.0</ele><time>2026-03-22T06:34:11.998Z</time></trkpt><trkpt lat="45.10451840167301" lon="10.045541988133808"><ele>33.0</ele><time>2026-03-22T06:34:12.998Z</time></trkpt><trkpt lat="45.10448209265125" lon="10.045376383025934"><ele>33.5</ele><time>2026-03-22T06:34:15Z</time></trkpt><trkpt lat="45.10444532988271" lon="10.045209221233828"><ele>34.0</ele><time>2026-03-22T06:34:17Z</time></trkpt><trkpt lat="45.10440436985577" lon="10.045042506444666"><ele>34.5</ele><time>2026-03-22T06:34:19Z</time></trkpt><trkpt lat="45.10436187525034" lon="10.04487753490552"><ele>35.0</ele><time>2026-03-22T06:34:21Z</time></trkpt><trkpt lat="45.104325332820586" lon="10.044709352683622"><ele>35.25</ele><time>2026-03-22T06:34:23Z</time></trkpt><trkpt lat="45.10429003938203" lon="10.044541003962687"><ele>35.5</ele><time>2026-03-22T06:34:25Z</time></trkpt><trkpt lat="45.10424857935602" lon="10.04437509742252"><ele>35.75</ele><time>2026-03-22T06:34:27Z</time></trkpt><trkpt lat="45.10420542009843" lon="10.04421040046997"><ele>36.0</ele><time>2026-03-22T06:34:29Z</time></trkpt><trkpt lat="45.10415762670353" lon="10.044050283302369"><ele>36.0</ele><time>2026-03-22T06:34:31Z</time></trkpt><trkpt lat="45.10410580943924" lon="10.043896734904305"><ele>36.0</ele><time>2026-03-22T06:34:33Z</time></trkpt><trkpt lat="45.10404972299279" lon="10.043751837697862"><ele>36.0</ele><time>2026-03-22T06:34:35Z</time></trkpt><trkpt lat="45.104001264269286" lon="10.043612883787512"><ele>36.0</ele><time>2026-03-22T06:34:37Z</time></trkpt><trkpt lat="45.103964610968795" lon="10.043473199487773"><ele>36.0</ele><time>2026-03-22T06:34:39Z</time></trkpt><trkpt lat="45.103911187574795" lon="10.043352984843699"><ele>36.0</ele><time>2026-03-22T06:34:41Z</time></trkpt><trkpt lat="45.103963819214314" lon="10.04321911924482"><ele>36.0</ele><time>2026-03-22T06:34:43Z</time></trkpt><trkpt lat="45.10403093358985" lon="10.043111353906886"><ele>36.0</ele><time>2026-03-22T06:34:45Z</time></trkpt><trkpt lat="45.10409931696564" lon="10.043009950622782"><ele>36.0</ele><time>2026-03-22T06:34:47Z</time></trkpt><trkpt lat="45.10416604011232" lon="10.042898344732516"><ele>36.2</ele><time>2026-03-22T06:34:49Z</time></trkpt><trkpt lat="45.1042276706564" lon="10.042795159665108"><ele>36.400000000000006</ele><time>2026-03-22T06:34:51Z</time></trkpt><trkpt lat="45.10429214022049" lon="10.04271213988701"><ele>36.6</ele><time>2026-03-22T06:34:53Z</time></trkpt><trkpt lat="45.10434854314958" lon="10.042621334627109"><ele>36.800000000000004</ele><time>2026-03-22T06:34:55Z</time></trkpt><trkpt lat="45.10440742285531" lon="10.042500981726937"><ele>37.0</ele><time>2026-03-22T06:34:57Z</time></trkpt><trkpt lat="45.10448445113133" lon="10.042375441255036"><ele>37.0</ele><time>2026-03-22T06:34:59Z</time></trkpt><trkpt lat="45.10456358429491" lon="10.042238565229555"><ele>37.0</ele><time>2026-03-22T06:35:01Z</time></trkpt><trkpt lat="45.104641375089834" lon="10.042102085418309"><ele>37.0</ele><time>2026-03-22T06:35:03Z</time></trkpt><trkpt lat="45.10472058334528" lon="10.041966143853028"><ele>37.0</ele><time>2026-03-22T06:35:05Z</time></trkpt><trkpt lat="45.10479630477939" lon="10.041828350385618"><ele>37.0</ele><time>2026-03-22T06:35:07Z</time></trkpt><trkpt lat="45.10487152575008" lon="10.041694759426163"><ele>37.0</ele><time>2026-03-22T06:35:09Z</time></trkpt><trkpt lat="45.1049448824828" lon="10.04157477691562"><ele>37.0</ele><time>2026-03-22T06:35:10.999Z</time></trkpt><trkpt lat="45.10501051412658" lon="10.041461615618019"><ele>37.0</ele><time>2026-03-22T06:35:12.999Z</time></trkpt><trkpt lat="45.10506607600459" lon="10.041352180492673"><ele>37.0</ele><time>2026-03-22T06:35:14.999Z</time></trkpt><trkpt lat="45.1051435583049" lon="10.041231098553393"><ele>37.25</ele><time>2026-03-22T06:35:16.999Z</time></trkpt><trkpt lat="45.10520403117119" lon="10.04110106366664"><ele>37.5</ele><time>2026-03-22T06:35:18.999Z</time></trkpt><trkpt lat="45.105086445965085" lon="10.040932151579222"><ele>37.75</ele><time>2026-03-22T06:35:21.999Z</time></trkpt><trkpt lat="45.10498126605236" lon="10.040880157956225"><ele>38.0</ele><time>2026-03-22T06:35:23.999Z</time></trkpt><trkpt lat="45.104874783543586" lon="10.040840622907304"><ele>38.25</ele><time>2026-03-22T06:35:25.999Z</time></trkpt><trkpt lat="45.10476198993736" lon="10.040813053081207"><ele>38.5</ele><time>2026-03-22T06:35:27.999Z</time></trkpt><trkpt lat="45.104653311006146" lon="10.040771575605538"><ele>38.75</ele><time>2026-03-22T06:35:29.999Z</time></trkpt><trkpt lat="45.1045419500876" lon="10.04073021873692"><ele>39.0</ele><time>2026-03-22T06:35:31.999Z</time></trkpt><trkpt lat="45.10443561286182" lon="10.04069543055844"><ele>39.0</ele><time>2026-03-22T06:35:33.999Z</time></trkpt><trkpt lat="45.104321373932855" lon="10.04066213589021"><ele>39.0</ele><time>2026-03-22T06:35:35.999Z</time></trkpt><trkpt lat="45.104206650084976" lon="10.040621484201314"><ele>39.0</ele><time>2026-03-22T06:35:37.999Z</time></trkpt><trkpt lat="45.10408992791169" lon="10.04057912597719"><ele>39.0</ele><time>2026-03-22T06:35:39.999Z</time></trkpt><trkpt lat="45.10396947181994" lon="10.040536044160964"><ele>38.5</ele><time>2026-03-22T06:35:41.999Z</time></trkpt><trkpt lat="45.1038521640782" lon="10.040490951710177"><ele>38.0</ele><time>2026-03-22T06:35:43.999Z</time></trkpt><trkpt lat="45.103734598188275" lon="10.040446692139904"><ele>37.5</ele><time>2026-03-22T06:35:45.999Z</time></trkpt><trkpt lat="45.103617649445795" lon="10.040405159514215"><ele>37.0</ele><time>2026-03-22T06:35:47.999Z</time></trkpt><trkpt lat="45.10350030630161" lon="10.0403678713962"><ele>37.0</ele><time>2026-03-22T06:35:49.999Z</time></trkpt><trkpt lat="45.10338309560484" lon="10.040331968322947"><ele>37.0</ele><time>2026-03-22T06:35:51.999Z</time></trkpt><trkpt lat="45.10326631113337" lon="10.04029377336902"><ele>37.0</ele><time>2026-03-22T06:35:53.999Z</time></trkpt><trkpt lat="45.10315126087481" lon="10.040251589372735"><ele>37.0</ele><time>2026-03-22T06:35:55.999Z</time></trkpt><trkpt lat="45.10303408690037" lon="10.0402032330264"><ele>36.5</ele><time>2026-03-22T06:35:57.999Z</time></trkpt><trkpt lat="45.102919680076816" lon="10.040152554429465"><ele>36.0</ele><time>2026-03-22T06:35:59.999Z</time></trkpt><trkpt lat="45.102806369595775" lon="10.04009686641439"><ele>35.5</ele><time>2026-03-22T06:36:01.999Z</time></trkpt><trkpt lat="45.102687773311715" lon="10.040055495634041"><ele>35.0</ele><time>2026-03-22T06:36:03.999Z</time></trkpt><trkpt lat="45.102571757055856" lon="10.039997956484221"><ele>35.0</ele><time>2026-03-22T06:36:05.999Z</time></trkpt><trkpt lat="45.10245546489954" lon="10.039941523640115"><ele>35.0</ele><time>2026-03-22T06:36:07.999Z</time></trkpt><trkpt lat="45.10233599089944" lon="10.039884281055059"><ele>35.0</ele><time>2026-03-22T06:36:09.999Z</time></trkpt><trkpt lat="45.102223733617144" lon="10.039835189805446"><ele>35.0</ele><time>2026-03-22T06:36:11.999Z</time></trkpt><trkpt lat="45.102109171428744" lon="10.039781837387581"><ele>35.25</ele><time>2026-03-22T06:36:13.998Z</time></trkpt><trkpt lat="45.1019945434315" lon="10.039728199648504"><ele>35.5</ele><time>2026-03-22T06:36:15.998Z</time></trkpt><trkpt lat="45.10188705472524" lon="10.039663440287125"><ele>35.75</ele><time>2026-03-22T06:36:17.998Z</time></trkpt><trkpt lat="45.101780332682914" lon="10.039591962647028"><ele>36.0</ele><time>2026-03-22T06:36:19.998Z</time></trkpt><trkpt lat="45.10167371306853" lon="10.039522802548701"><ele>36.25</ele><time>2026-03-22T06:36:22Z</time></trkpt><trkpt lat="45.10156189605996" lon="10.03945351578154"><ele>36.5</ele><time>2026-03-22T06:36:24Z</time></trkpt><trkpt lat="45.10145057029124" lon="10.039388528164862"><ele>36.75</ele><time>2026-03-22T06:36:26Z</time></trkpt><trkpt lat="45.10134099460862" lon="10.039323381546364"><ele>37.0</ele><time>2026-03-22T06:36:28Z</time></trkpt><trkpt lat="45.101233337187196" lon="10.039247002342114"><ele>37.0</ele><time>2026-03-22T06:36:30Z</time></trkpt><trkpt lat="45.10112280539766" lon="10.039185920942302"><ele>37.0</ele><time>2026-03-22T06:36:32Z</time></trkpt><trkpt lat="45.10101315127294" lon="10.039122983788612"><ele>37.0</ele><time>2026-03-22T06:36:34Z</time></trkpt><trkpt lat="45.10090858377669" lon="10.039054567856802"><ele>37.0</ele><time>2026-03-22T06:36:36Z</time></trkpt><trkpt lat="45.10080585613975" lon="10.038978242026852"><ele>37.2</ele><time>2026-03-22T06:36:38Z</time></trkpt><trkpt lat="45.10074556639149" lon="10.038943010793393"><ele>37.400000000000006</ele><time>2026-03-22T06:36:39Z</time></trkpt><trkpt lat="45.100632343145506" lon="10.038872260126738"><ele>37.599999999999994</ele><time>2026-03-22T06:36:41Z</time></trkpt><trkpt lat="45.10057122971079" lon="10.038840327632682"><ele>37.8</ele><time>2026-03-22T06:36:42Z</time></trkpt><trkpt lat="45.1004558355523" lon="10.038768261266702"><ele>38.0</ele><time>2026-03-22T06:36:44Z</time></trkpt><trkpt lat="45.100347558986705" lon="10.038706233846321"><ele>38.0</ele><time>2026-03-22T06:36:46Z</time></trkpt><trkpt lat="45.10025222517597" lon="10.038632714591587"><ele>38.0</ele><time>2026-03-22T06:36:48Z</time></trkpt><trkpt lat="45.10015134873195" lon="10.038546904149172"><ele>38.0</ele><time>2026-03-22T06:36:50Z</time></trkpt><trkpt lat="45.10004124028483" lon="10.038460408100681"><ele>38.0</ele><time>2026-03-22T06:36:52Z</time></trkpt><trkpt lat="45.0999854336065" lon="10.038415873189498"><ele>38.0</ele><time>2026-03-22T06:36:53Z</time></trkpt><trkpt lat="45.09993107173243" lon="10.038365392781284"><ele>38.4</ele><time>2026-03-22T06:36:54Z</time></trkpt><trkpt lat="45.099875676547" lon="10.038318833452951"><ele>38.8</ele><time>2026-03-22T06:36:55Z</time></trkpt><trkpt lat="45.09977053450571" lon="10.038227769867264"><ele>39.2</ele><time>2026-03-22T06:36:57Z</time></trkpt><trkpt lat="45.09966145756047" lon="10.038140294488803"><ele>39.6</ele><time>2026-03-22T06:36:59Z</time></trkpt><trkpt lat="45.09955357057438" lon="10.038054028596246"><ele>40.0</ele><time>2026-03-22T06:37:01Z</time></trkpt><trkpt lat="45.09944930844215" lon="10.037958435130259"><ele>39.2</ele><time>2026-03-22T06:37:03Z</time></trkpt><trkpt lat="45.09934514044227" lon="10.037863381427261"><ele>38.4</ele><time>2026-03-22T06:37:05Z</time></trkpt><trkpt lat="45.09923895148836" lon="10.03777086669604"><ele>37.6</ele><time>2026-03-22T06:37:07Z</time></trkpt><trkpt lat="45.099186873900166" lon="10.037717957665325"><ele>36.8</ele><time>2026-03-22T06:37:08Z</time></trkpt><trkpt lat="45.09913442539007" lon="10.037665772574455"><ele>36.0</ele><time>2026-03-22T06:37:09Z</time></trkpt><trkpt lat="45.09904178830314" lon="10.037553556306992"><ele>35.6</ele><time>2026-03-22T06:37:11Z</time></trkpt><trkpt lat="45.09894551304833" lon="10.037444008908233"><ele>35.2</ele><time>2026-03-22T06:37:13Z</time></trkpt><trkpt lat="45.09885060800275" lon="10.03733266935009"><ele>34.8</ele><time>2026-03-22T06:37:14.999Z</time></trkpt><trkpt lat="45.098800662124546" lon="10.037275468807168"><ele>34.4</ele><time>2026-03-22T06:37:15.999Z</time></trkpt><trkpt lat="45.098707729550924" lon="10.03716297951871"><ele>34.0</ele><time>2026-03-22T06:37:17.999Z</time></trkpt><trkpt lat="45.098655923762934" lon="10.037108966859641"><ele>34.0</ele><time>2026-03-22T06:37:18.999Z</time></trkpt><trkpt lat="45.0985657565559" lon="10.03699679554316"><ele>34.0</ele><time>2026-03-22T06:37:20.999Z</time></trkpt><trkpt lat="45.098470261685634" lon="10.036885890578592"><ele>34.0</ele><time>2026-03-22T06:37:22.999Z</time></trkpt><trkpt lat="45.09837272488357" lon="10.036783621896614"><ele>34.0</ele><time>2026-03-22T06:37:24.999Z</time></trkpt><trkpt lat="45.098271429406765" lon="10.036692671029671"><ele>35.0</ele><time>2026-03-22T06:37:26.999Z</time></trkpt><trkpt lat="45.098165558864956" lon="10.036621807541096"><ele>36.0</ele><time>2026-03-22T06:37:28.999Z</time></trkpt><trkpt lat="45.09806034509452" lon="10.036560170174871"><ele>37.0</ele><time>2026-03-22T06:37:30.999Z</time></trkpt><trkpt lat="45.09795661096943" lon="10.036498373766884"><ele>38.0</ele><time>2026-03-22T06:37:32.999Z</time></trkpt><trkpt lat="45.09785767190288" lon="10.036428723717217"><ele>38.0</ele><time>2026-03-22T06:37:34.999Z</time></trkpt><trkpt lat="45.09776471130859" lon="10.036336840483196"><ele>38.0</ele><time>2026-03-22T06:37:36.999Z</time></trkpt><trkpt lat="45.097680834967015" lon="10.036223074828207"><ele>38.0</ele><time>2026-03-22T06:37:38.999Z</time></trkpt><trkpt lat="45.097598811028845" lon="10.036107153593392"><ele>38.0</ele><time>2026-03-22T06:37:40.999Z</time></trkpt><trkpt lat="45.097516391645556" lon="10.035994972801547"><ele>38.0</ele><time>2026-03-22T06:37:42.999Z</time></trkpt><trkpt lat="45.09743330251595" lon="10.035878856626985"><ele>38.0</ele><time>2026-03-22T06:37:44.999Z</time></trkpt><trkpt lat="45.09735283533011" lon="10.035756938485212"><ele>38.0</ele><time>2026-03-22T06:37:46.999Z</time></trkpt><trkpt lat="45.09728184500622" lon="10.035624931860452"><ele>38.0</ele><time>2026-03-22T06:37:48.999Z</time></trkpt><trkpt lat="45.09722205847818" lon="10.035492283776673"><ele>37.4</ele><time>2026-03-22T06:37:50.999Z</time></trkpt><trkpt lat="45.09716332336307" lon="10.035365148755012"><ele>36.8</ele><time>2026-03-22T06:37:52.999Z</time></trkpt><trkpt lat="45.09711542091892" lon="10.035242581475256"><ele>36.2</ele><time>2026-03-22T06:37:54.999Z</time></trkpt><trkpt lat="45.09706677002005" lon="10.035128123701316"><ele>35.6</ele><time>2026-03-22T06:37:56.999Z</time></trkpt><trkpt lat="45.09704914532828" lon="10.035026732278087"><ele>35.0</ele><time>2026-03-22T06:37:58.999Z</time></trkpt><trkpt lat="45.09715941291383" lon="10.03499048821173"><ele>35.2</ele><time>2026-03-22T06:38:00.999Z</time></trkpt><trkpt lat="45.09725943095861" lon="10.034970461896513"><ele>35.4</ele><time>2026-03-22T06:38:02.999Z</time></trkpt><trkpt lat="45.097363990674566" lon="10.034950356165055"><ele>35.6</ele><time>2026-03-22T06:38:04.999Z</time></trkpt><trkpt lat="45.09747750396869" lon="10.034932110629832"><ele>35.8</ele><time>2026-03-22T06:38:06.999Z</time></trkpt><trkpt lat="45.09758552045719" lon="10.034921108476954"><ele>36.0</ele><time>2026-03-22T06:38:08.999Z</time></trkpt><trkpt lat="45.09770554971175" lon="10.034907642334105"><ele>36.0</ele><time>2026-03-22T06:38:10.999Z</time></trkpt><trkpt lat="45.09782505880578" lon="10.034889484031433"><ele>36.0</ele><time>2026-03-22T06:38:12.999Z</time></trkpt><trkpt lat="45.0979415578302" lon="10.034870633033059"><ele>36.0</ele><time>2026-03-22T06:38:14.999Z</time></trkpt><trkpt lat="45.09805935312264" lon="10.034865882193845"><ele>36.0</ele><time>2026-03-22T06:38:16.999Z</time></trkpt><trkpt lat="45.09817916461216" lon="10.034860493413307"><ele>35.4</ele><time>2026-03-22T06:38:18.999Z</time></trkpt><trkpt lat="45.098303150400284" lon="10.03484543905936"><ele>34.8</ele><time>2026-03-22T06:38:20.998Z</time></trkpt><trkpt lat="45.09836576138454" lon="10.034834092133929"><ele>34.199999999999996</ele><time>2026-03-22T06:38:21.998Z</time></trkpt><trkpt lat="45.09848956753039" lon="10.034811897976954"><ele>33.6</ele><time>2026-03-22T06:38:23.998Z</time></trkpt><trkpt lat="45.09855239201677" lon="10.034800182969825"><ele>33.0</ele><time>2026-03-22T06:38:24.998Z</time></trkpt><trkpt lat="45.098680436424246" lon="10.03478177573204"><ele>33.0</ele><time>2026-03-22T06:38:27Z</time></trkpt><trkpt lat="45.09874484934896" lon="10.034772044083235"><ele>33.0</ele><time>2026-03-22T06:38:28Z</time></trkpt><trkpt lat="45.09880718896811" lon="10.03475896504374"><ele>33.0</ele><time>2026-03-22T06:38:29Z</time></trkpt><trkpt lat="45.098871463009694" lon="10.034748248438687"><ele>33.0</ele><time>2026-03-22T06:38:30Z</time></trkpt><trkpt lat="45.09893478204284" lon="10.034737087222348"><ele>33.0</ele><time>2026-03-22T06:38:31Z</time></trkpt><trkpt lat="45.099059763653976" lon="10.034718910125829"><ele>33.0</ele><time>2026-03-22T06:38:33Z</time></trkpt><trkpt lat="45.0991842416712" lon="10.034703149132342"><ele>32.6</ele><time>2026-03-22T06:38:35Z</time></trkpt><trkpt lat="45.09924704948241" lon="10.034693915634806"><ele>32.199999999999996</ele><time>2026-03-22T06:38:36Z</time></trkpt><trkpt lat="45.09937199489575" lon="10.03467766350454"><ele>31.8</ele><time>2026-03-22T06:38:38Z</time></trkpt><trkpt lat="45.09949599413043" lon="10.034663182770812"><ele>31.4</ele><time>2026-03-22T06:38:40Z</time></trkpt><trkpt lat="45.09961859481583" lon="10.034645101451007"><ele>31.0</ele><time>2026-03-22T06:38:42Z</time></trkpt><trkpt lat="45.09974116783498" lon="10.034620433636789"><ele>31.000000000000004</ele><time>2026-03-22T06:38:44Z</time></trkpt><trkpt lat="45.09985600436303" lon="10.034560931677218"><ele>31.0</ele><time>2026-03-22T06:38:46Z</time></trkpt><trkpt lat="45.099970226623974" lon="10.034484652370303"><ele>31.0</ele><time>2026-03-22T06:38:48Z</time></trkpt><trkpt lat="45.100028588565976" lon="10.034449231319604"><ele>31.0</ele><time>2026-03-22T06:38:49Z</time></trkpt><trkpt lat="45.10008655832692" lon="10.03441256434147"><ele>31.000000000000004</ele><time>2026-03-22T06:38:50Z</time></trkpt><trkpt lat="45.1001469809561" lon="10.03437451314709"><ele>31.0</ele><time>2026-03-22T06:38:51Z</time></trkpt><trkpt lat="45.10025998124224" lon="10.034298757088736"><ele>31.4</ele><time>2026-03-22T06:38:53Z</time></trkpt><trkpt lat="45.10037462392037" lon="10.034220794913459"><ele>31.8</ele><time>2026-03-22T06:38:55Z</time></trkpt><trkpt lat="45.100433584744046" lon="10.034186978960626"><ele>32.199999999999996</ele><time>2026-03-22T06:38:56Z</time></trkpt><trkpt lat="45.10049342934454" lon="10.034152070015482"><ele>32.6</ele><time>2026-03-22T06:38:57Z</time></trkpt><trkpt lat="45.10061011325997" lon="10.034082434725226"><ele>33.0</ele><time>2026-03-22T06:38:59Z</time></trkpt><trkpt lat="45.100723652898026" lon="10.034009302562195"><ele>33.0</ele><time>2026-03-22T06:39:01Z</time></trkpt><trkpt lat="45.10078143410762" lon="10.03397143263422"><ele>33.0</ele><time>2026-03-22T06:39:02Z</time></trkpt><trkpt lat="45.100895062895475" lon="10.033903231917552"><ele>33.0</ele><time>2026-03-22T06:39:04Z</time></trkpt><trkpt lat="45.10100922529998" lon="10.033833332108232"><ele>33.0</ele><time>2026-03-22T06:39:06Z</time></trkpt><trkpt lat="45.10112364692178" lon="10.033759610936013"><ele>33.0</ele><time>2026-03-22T06:39:08Z</time></trkpt><trkpt lat="45.10123765211686" lon="10.033688775262762"><ele>33.0</ele><time>2026-03-22T06:39:10Z</time></trkpt><trkpt lat="45.10129501500295" lon="10.0336519976236"><ele>33.0</ele><time>2026-03-22T06:39:11Z</time></trkpt><trkpt lat="45.10135337227656" lon="10.033615675366187"><ele>33.0</ele><time>2026-03-22T06:39:12Z</time></trkpt><trkpt lat="45.10146925828178" lon="10.033550327721027"><ele>33.0</ele><time>2026-03-22T06:39:14Z</time></trkpt><trkpt lat="45.10152735194244" lon="10.033512922113982"><ele>33.0</ele><time>2026-03-22T06:39:15Z</time></trkpt><trkpt lat="45.10164214712912" lon="10.033442770065118"><ele>33.0</ele><time>2026-03-22T06:39:17Z</time></trkpt><trkpt lat="45.1017554651931" lon="10.033371805897426"><ele>33.0</ele><time>2026-03-22T06:39:19Z</time></trkpt><trkpt lat="45.10186951381033" lon="10.033303493110347"><ele>33.0</ele><time>2026-03-22T06:39:20.999Z</time></trkpt><trkpt lat="45.10198270113685" lon="10.033231856576483"><ele>33.0</ele><time>2026-03-22T06:39:22.999Z</time></trkpt><trkpt lat="45.10209357266029" lon="10.033154553166904"><ele>33.0</ele><time>2026-03-22T06:39:24.999Z</time></trkpt><trkpt lat="45.10219961612812" lon="10.033065412432896"><ele>33.0</ele><time>2026-03-22T06:39:26.999Z</time></trkpt><trkpt lat="45.102299616999304" lon="10.032958172207687"><ele>33.0</ele><time>2026-03-22T06:39:28.999Z</time></trkpt><trkpt lat="45.102388523896714" lon="10.03283508678348"><ele>33.0</ele><time>2026-03-22T06:39:30.999Z</time></trkpt><trkpt lat="45.10247217721825" lon="10.032704399387484"><ele>33.0</ele><time>2026-03-22T06:39:32.999Z</time></trkpt><trkpt lat="45.102556574917735" lon="10.032573799620955"><ele>33.199999999999996</ele><time>2026-03-22T06:39:34.999Z</time></trkpt><trkpt lat="45.102640115712106" lon="10.03244372485548"><ele>33.4</ele><time>2026-03-22T06:39:36.999Z</time></trkpt><trkpt lat="45.102725195860586" lon="10.032312263066972"><ele>33.599999999999994</ele><time>2026-03-22T06:39:38.999Z</time></trkpt><trkpt lat="45.10280867193769" lon="10.032180824387328"><ele>33.8</ele><time>2026-03-22T06:39:40.999Z</time></trkpt><trkpt lat="45.102849220162845" lon="10.032111615703894"><ele>34.0</ele><time>2026-03-22T06:39:41.999Z</time></trkpt><trkpt lat="45.1029295095532" lon="10.031977689253427"><ele>34.0</ele><time>2026-03-22T06:39:43.999Z</time></trkpt><trkpt lat="45.102969026252715" lon="10.031908044274205"><ele>34.0</ele><time>2026-03-22T06:39:44.999Z</time></trkpt><trkpt lat="45.103007294641486" lon="10.031836305970653"><ele>34.0</ele><time>2026-03-22T06:39:45.999Z</time></trkpt><trkpt lat="45.103082362134614" lon="10.031696345366854"><ele>34.0</ele><time>2026-03-22T06:39:47.999Z</time></trkpt><trkpt lat="45.10316268541517" lon="10.031560101171936"><ele>34.0</ele><time>2026-03-22T06:39:49.999Z</time></trkpt><trkpt lat="45.10320321450695" lon="10.03149101534501"><ele>34.0</ele><time>2026-03-22T06:39:50.999Z</time></trkpt><trkpt lat="45.10324264720499" lon="10.031419488228014"><ele>34.285714285714285</ele><time>2026-03-22T06:39:51.999Z</time></trkpt><trkpt lat="45.103285689842565" lon="10.031344255606106"><ele>34.57142857142857</ele><time>2026-03-22T06:39:52.999Z</time></trkpt><trkpt lat="45.1033293649259" lon="10.031267807507907"><ele>34.85714285714286</ele><time>2026-03-22T06:39:53.999Z</time></trkpt><trkpt lat="45.103375981039996" lon="10.031186965256863"><ele>35.14285714285714</ele><time>2026-03-22T06:39:54.999Z</time></trkpt><trkpt lat="45.10342285065858" lon="10.031105056633045"><ele>35.42857142857143</ele><time>2026-03-22T06:39:55.999Z</time></trkpt><trkpt lat="45.103472151358844" lon="10.03102032464117"><ele>35.714285714285715</ele><time>2026-03-22T06:39:56.999Z</time></trkpt><trkpt lat="45.10352291815558" lon="10.03093568117516"><ele>36.0</ele><time>2026-03-22T06:39:57.999Z</time></trkpt><trkpt lat="45.10357566102957" lon="10.030852538532322"><ele>36.666666666666664</ele><time>2026-03-22T06:39:58.999Z</time></trkpt><trkpt lat="45.103640212434456" lon="10.030777957195083"><ele>37.333333333333336</ele><time>2026-03-22T06:39:59.999Z</time></trkpt><trkpt lat="45.103719869337" lon="10.030736994778536"><ele>38.0</ele><time>2026-03-22T06:40:00.999Z</time></trkpt><trkpt lat="45.10379522716704" lon="10.030677687893684"><ele>38.66666666666667</ele><time>2026-03-22T06:40:01.999Z</time></trkpt><trkpt lat="45.10386725615016" lon="10.030619639061157"><ele>39.333333333333336</ele><time>2026-03-22T06:40:02.999Z</time></trkpt><trkpt lat="45.103938489590746" lon="10.030561452823298"><ele>40.0</ele><time>2026-03-22T06:40:03.999Z</time></trkpt><trkpt lat="45.104003585197916" lon="10.030501770382635"><ele>40.0</ele><time>2026-03-22T06:40:04.999Z</time></trkpt><trkpt lat="45.10405939668278" lon="10.030444932443672"><ele>40.0</ele><time>2026-03-22T06:40:05.999Z</time></trkpt><trkpt lat="45.10411681190168" lon="10.030350704952685"><ele>40.0</ele><time>2026-03-22T06:40:06.999Z</time></trkpt><trkpt lat="45.10419658092304" lon="10.030297285011217"><ele>40.0</ele><time>2026-03-22T06:40:07.999Z</time></trkpt><trkpt lat="45.10425677389813" lon="10.030131667284689"><ele>40.0</ele><time>2026-03-22T06:40:09.999Z</time></trkpt><trkpt lat="45.10426209716891" lon="10.03003756006496"><ele>40.0</ele><time>2026-03-22T06:40:10.999Z</time></trkpt><trkpt lat="45.104270501228896" lon="10.029869045873681"><ele>39.6</ele><time>2026-03-22T06:40:12.999Z</time></trkpt><trkpt lat="45.10427452273569" lon="10.02971092314274"><ele>39.2</ele><time>2026-03-22T06:40:14.999Z</time></trkpt><trkpt lat="45.10427433130031" lon="10.02955930472008"><ele>38.8</ele><time>2026-03-22T06:40:16.999Z</time></trkpt><trkpt lat="45.10428029339885" lon="10.029413149628663"><ele>38.4</ele><time>2026-03-22T06:40:18.999Z</time></trkpt><trkpt lat="45.104304936898544" lon="10.029276170985892"><ele>38.0</ele><time>2026-03-22T06:40:20.999Z</time></trkpt><trkpt lat="45.104337925246064" lon="10.02915146912516"><ele>37.8</ele><time>2026-03-22T06:40:22.999Z</time></trkpt><trkpt lat="45.10437631002617" lon="10.02903222631036"><ele>37.599999999999994</ele><time>2026-03-22T06:40:24.999Z</time></trkpt><trkpt lat="45.10444363824366" lon="10.0289406907273"><ele>37.400000000000006</ele><time>2026-03-22T06:40:26.999Z</time></trkpt><trkpt lat="45.10453281197133" lon="10.028867022669525"><ele>37.2</ele><time>2026-03-22T06:40:28.998Z</time></trkpt><trkpt lat="45.10463192918702" lon="10.028786806232098"><ele>37.0</ele><time>2026-03-22T06:40:30.998Z</time></trkpt><trkpt lat="45.10472632737655" lon="10.028705961207828"><ele>37.0</ele><time>2026-03-22T06:40:33Z</time></trkpt><trkpt lat="45.10482350623608" lon="10.028629597753623"><ele>37.0</ele><time>2026-03-22T06:40:35Z</time></trkpt><trkpt lat="45.10492438453823" lon="10.028552120226369"><ele>37.0</ele><time>2026-03-22T06:40:37Z</time></trkpt><trkpt lat="45.1050279417358" lon="10.028481956220253"><ele>37.0</ele><time>2026-03-22T06:40:39Z</time></trkpt><trkpt lat="45.10513492263226" lon="10.02841683265921"><ele>36.5</ele><time>2026-03-22T06:40:41Z</time></trkpt><trkpt lat="45.10523627973771" lon="10.028319387363279"><ele>36.0</ele><time>2026-03-22T06:40:43Z</time></trkpt><trkpt lat="45.105347482763335" lon="10.028257585041509"><ele>35.5</ele><time>2026-03-22T06:40:45Z</time></trkpt><trkpt lat="45.10545923896863" lon="10.028196125846426"><ele>35.0</ele><time>2026-03-22T06:40:47Z</time></trkpt><trkpt lat="45.10557246265521" lon="10.028134888485365"><ele>34.5</ele><time>2026-03-22T06:40:49Z</time></trkpt><trkpt lat="45.105695489864175" lon="10.028116668420356"><ele>34.0</ele><time>2026-03-22T06:40:51Z</time></trkpt><trkpt lat="45.10580903335905" lon="10.028062527873033"><ele>33.5</ele><time>2026-03-22T06:40:53Z</time></trkpt><trkpt lat="45.10592347800965" lon="10.028016299151439"><ele>33.0</ele><time>2026-03-22T06:40:55Z</time></trkpt><trkpt lat="45.10603886924925" lon="10.027988645515563"><ele>33.0</ele><time>2026-03-22T06:40:57Z</time></trkpt><trkpt lat="45.1061559209444" lon="10.027979604164136"><ele>33.0</ele><time>2026-03-22T06:40:59Z</time></trkpt><trkpt lat="45.106276400098906" lon="10.027982477912511"><ele>33.0</ele><time>2026-03-22T06:41:01Z</time></trkpt><trkpt lat="45.10639447815719" lon="10.027986812074685"><ele>33.0</ele><time>2026-03-22T06:41:03Z</time></trkpt><trkpt lat="45.10651151113724" lon="10.027992209669637"><ele>33.5</ele><time>2026-03-22T06:41:05Z</time></trkpt><trkpt lat="45.10662609490731" lon="10.027997494306431"><ele>34.0</ele><time>2026-03-22T06:41:07Z</time></trkpt><trkpt lat="45.10673980335307" lon="10.028002229321055"><ele>34.5</ele><time>2026-03-22T06:41:09Z</time></trkpt><trkpt lat="45.10685350296682" lon="10.02800667459461"><ele>35.0</ele><time>2026-03-22T06:41:11Z</time></trkpt><trkpt lat="45.10696691384041" lon="10.028011108579777"><ele>35.0</ele><time>2026-03-22T06:41:13Z</time></trkpt><trkpt lat="45.107081634243954" lon="10.028015577735726"><ele>35.0</ele><time>2026-03-22T06:41:15Z</time></trkpt><trkpt lat="45.10719598105404" lon="10.028019302274227"><ele>35.0</ele><time>2026-03-22T06:41:17Z</time></trkpt><trkpt lat="45.1073090354158" lon="10.028022986657916"><ele>35.0</ele><time>2026-03-22T06:41:19Z</time></trkpt><trkpt lat="45.107422242729356" lon="10.028026587834738"><ele>34.4</ele><time>2026-03-22T06:41:21Z</time></trkpt><trkpt lat="45.107534026032596" lon="10.028029563658855"><ele>33.8</ele><time>2026-03-22T06:41:23Z</time></trkpt><trkpt lat="45.10764469896813" lon="10.028032509921141"><ele>33.2</ele><time>2026-03-22T06:41:25Z</time></trkpt><trkpt lat="45.107756942404656" lon="10.028035497993866"><ele>32.6</ele><time>2026-03-22T06:41:26.999Z</time></trkpt><trkpt lat="45.10787027216718" lon="10.028038514985875"><ele>32.0</ele><time>2026-03-22T06:41:28.999Z</time></trkpt><trkpt lat="45.10798276256851" lon="10.028041509632867"><ele>32.0</ele><time>2026-03-22T06:41:30.999Z</time></trkpt><trkpt lat="45.10809525910803" lon="10.028044504443223"><ele>32.0</ele><time>2026-03-22T06:41:32.999Z</time></trkpt><trkpt lat="45.108210404783286" lon="10.0280461979334"><ele>32.0</ele><time>2026-03-22T06:41:34.999Z</time></trkpt><trkpt lat="45.1083262394442" lon="10.02804286638697"><ele>32.0</ele><time>2026-03-22T06:41:36.999Z</time></trkpt><trkpt lat="45.10844169763201" lon="10.028031738591167"><ele>32.25</ele><time>2026-03-22T06:41:38.999Z</time></trkpt><trkpt lat="45.10856053178284" lon="10.028005437704653"><ele>32.5</ele><time>2026-03-22T06:41:40.999Z</time></trkpt><trkpt lat="45.108674866465414" lon="10.027974189773676"><ele>32.75</ele><time>2026-03-22T06:41:42.999Z</time></trkpt><trkpt lat="45.1087884451591" lon="10.027939812832466"><ele>33.0</ele><time>2026-03-22T06:41:44.999Z</time></trkpt><trkpt lat="45.108902921803455" lon="10.027904173836205"><ele>33.0</ele><time>2026-03-22T06:41:46.999Z</time></trkpt><trkpt lat="45.10901782087425" lon="10.027867911399344"><ele>33.0</ele><time>2026-03-22T06:41:48.999Z</time></trkpt><trkpt lat="45.10913145145069" lon="10.027829961257122"><ele>33.0</ele><time>2026-03-22T06:41:50.999Z</time></trkpt><trkpt lat="45.10924492042136" lon="10.02779206509256"><ele>33.0</ele><time>2026-03-22T06:41:52.999Z</time></trkpt><trkpt lat="45.109357682574085" lon="10.027754404963957"><ele>32.75</ele><time>2026-03-22T06:41:54.999Z</time></trkpt><trkpt lat="45.10947239792731" lon="10.027716092529118"><ele>32.5</ele><time>2026-03-22T06:41:56.999Z</time></trkpt><trkpt lat="45.1095872142029" lon="10.027677746378645"><ele>32.25</ele><time>2026-03-22T06:41:58.999Z</time></trkpt><trkpt lat="45.10970038467427" lon="10.027639949885158"><ele>32.0</ele><time>2026-03-22T06:42:00.999Z</time></trkpt><trkpt lat="45.10981297797803" lon="10.027602226260626"><ele>32.25</ele><time>2026-03-22T06:42:02.999Z</time></trkpt><trkpt lat="45.1099256288677" lon="10.02756399537242"><ele>32.5</ele><time>2026-03-22T06:42:04.999Z</time></trkpt><trkpt lat="45.11003838088833" lon="10.027525730157425"><ele>32.75</ele><time>2026-03-22T06:42:06.999Z</time></trkpt><trkpt lat="45.11015230537512" lon="10.027485819029991"><ele>33.0</ele><time>2026-03-22T06:42:08.999Z</time></trkpt><trkpt lat="45.11026127897416" lon="10.027445547371855"><ele>33.0</ele><time>2026-03-22T06:42:10.999Z</time></trkpt><trkpt lat="45.110372660332885" lon="10.027403183851575"><ele>33.0</ele><time>2026-03-22T06:42:12.999Z</time></trkpt><trkpt lat="45.11047861565483" lon="10.027341805992737"><ele>33.0</ele><time>2026-03-22T06:42:14.999Z</time></trkpt><trkpt lat="45.11059077014907" lon="10.027295674440252"><ele>33.0</ele><time>2026-03-22T06:42:16.999Z</time></trkpt><trkpt lat="45.11070506548042" lon="10.027251444218239"><ele>33.5</ele><time>2026-03-22T06:42:18.999Z</time></trkpt><trkpt lat="45.110815796539605" lon="10.0272005028077"><ele>34.0</ele><time>2026-03-22T06:42:20.999Z</time></trkpt><trkpt lat="45.11093074240999" lon="10.027160396167831"><ele>34.5</ele><time>2026-03-22T06:42:22.999Z</time></trkpt><trkpt lat="45.11104055119751" lon="10.027103411222107"><ele>35.0</ele><time>2026-03-22T06:42:24.999Z</time></trkpt><trkpt lat="45.11115256395092" lon="10.027044468912967"><ele>35.0</ele><time>2026-03-22T06:42:26.999Z</time></trkpt><trkpt lat="45.11126346001157" lon="10.02698598485573"><ele>35.0</ele><time>2026-03-22T06:42:28.999Z</time></trkpt><trkpt lat="45.11137398209278" lon="10.026926525633439"><ele>35.0</ele><time>2026-03-22T06:42:30.999Z</time></trkpt><trkpt lat="45.11148364001298" lon="10.026867531317938"><ele>35.0</ele><time>2026-03-22T06:42:32.999Z</time></trkpt><trkpt lat="45.11159254113761" lon="10.026808621992764"><ele>34.25</ele><time>2026-03-22T06:42:34.999Z</time></trkpt><trkpt lat="45.11170010590708" lon="10.026749712194915"><ele>33.5</ele><time>2026-03-22T06:42:36.998Z</time></trkpt><trkpt lat="45.111808031600766" lon="10.026690520390883"><ele>32.75</ele><time>2026-03-22T06:42:39Z</time></trkpt><trkpt lat="45.11191516714031" lon="10.026630422571257"><ele>32.0</ele><time>2026-03-22T06:42:41Z</time></trkpt><trkpt lat="45.112022190127334" lon="10.026570387854566"><ele>32.0</ele><time>2026-03-22T06:42:43Z</time></trkpt><trkpt lat="45.11212833476916" lon="10.026510845868577"><ele>32.0</ele><time>2026-03-22T06:42:45Z</time></trkpt><trkpt lat="45.11223549654878" lon="10.02645073519536"><ele>32.0</ele><time>2026-03-22T06:42:47Z</time></trkpt><trkpt lat="45.11234285262527" lon="10.026391264156157"><ele>32.0</ele><time>2026-03-22T06:42:49Z</time></trkpt><trkpt lat="45.11245151539416" lon="10.026332531766665"><ele>32.0</ele><time>2026-03-22T06:42:51Z</time></trkpt><trkpt lat="45.11256164884343" lon="10.026274703938642"><ele>32.0</ele><time>2026-03-22T06:42:53Z</time></trkpt><trkpt lat="45.11267178243788" lon="10.02622252995558"><ele>32.0</ele><time>2026-03-22T06:42:55Z</time></trkpt><trkpt lat="45.11278401399101" lon="10.026178419498086"><ele>32.0</ele><time>2026-03-22T06:42:57Z</time></trkpt><trkpt lat="45.11289684056809" lon="10.026137829784332"><ele>32.0</ele><time>2026-03-22T06:42:59Z</time></trkpt><trkpt lat="45.11301042775625" lon="10.02609840731522"><ele>32.0</ele><time>2026-03-22T06:43:01Z</time></trkpt><trkpt lat="45.113122927424754" lon="10.026061441996639"><ele>32.0</ele><time>2026-03-22T06:43:03Z</time></trkpt><trkpt lat="45.11323641592319" lon="10.026025752165129"><ele>32.0</ele><time>2026-03-22T06:43:05Z</time></trkpt><trkpt lat="45.11335072164596" lon="10.025990374348213"><ele>32.25</ele><time>2026-03-22T06:43:07Z</time></trkpt><trkpt lat="45.11346521657033" lon="10.025956558384285"><ele>32.5</ele><time>2026-03-22T06:43:09Z</time></trkpt><trkpt lat="45.11357473057116" lon="10.025924534635708"><ele>32.75</ele><time>2026-03-22T06:43:11Z</time></trkpt><trkpt lat="45.113679792375684" lon="10.025888766139921"><ele>33.0</ele><time>2026-03-22T06:43:13Z</time></trkpt><trkpt lat="45.11379472356339" lon="10.025850919150145"><ele>33.0</ele><time>2026-03-22T06:43:15Z</time></trkpt><trkpt lat="45.11391395042391" lon="10.025813422745003"><ele>33.0</ele><time>2026-03-22T06:43:17Z</time></trkpt><trkpt lat="45.11403124701966" lon="10.025776533397387"><ele>33.0</ele><time>2026-03-22T06:43:19Z</time></trkpt><trkpt lat="45.114150010388414" lon="10.025739182760038"><ele>33.0</ele><time>2026-03-22T06:43:21Z</time></trkpt><trkpt lat="45.11426554561049" lon="10.025702847350397"><ele>32.5</ele><time>2026-03-22T06:43:23Z</time></trkpt><trkpt lat="45.11437941134481" lon="10.025667036961371"><ele>32.0</ele><time>2026-03-22T06:43:25Z</time></trkpt><trkpt lat="45.11449126079742" lon="10.025631860762989"><ele>31.5</ele><time>2026-03-22T06:43:27Z</time></trkpt><trkpt lat="45.11460318675023" lon="10.025596660467826"><ele>31.0</ele><time>2026-03-22T06:43:29Z</time></trkpt><trkpt lat="45.11471518202299" lon="10.025558208264618"><ele>31.0</ele><time>2026-03-22T06:43:31Z</time></trkpt><trkpt lat="45.11482777603259" lon="10.025516997735405"><ele>31.0</ele><time>2026-03-22T06:43:33Z</time></trkpt><trkpt lat="45.11494046814743" lon="10.025474328217943"><ele>31.0</ele><time>2026-03-22T06:43:34.999Z</time></trkpt><trkpt lat="45.11505118135868" lon="10.025431624553054"><ele>31.0</ele><time>2026-03-22T06:43:36.999Z</time></trkpt><trkpt lat="45.11516216206109" lon="10.025388817708233"><ele>31.0</ele><time>2026-03-22T06:43:38.999Z</time></trkpt><trkpt lat="45.115271551711224" lon="10.02534662457752"><ele>31.0</ele><time>2026-03-22T06:43:40.999Z</time></trkpt><trkpt lat="45.11538279622811" lon="10.025303715955102"><ele>31.0</ele><time>2026-03-22T06:43:42.999Z</time></trkpt><trkpt lat="45.115492491175644" lon="10.02525968641652"><ele>31.0</ele><time>2026-03-22T06:43:44.999Z</time></trkpt><trkpt lat="45.11560098977909" lon="10.025212782935185"><ele>31.0</ele><time>2026-03-22T06:43:46.999Z</time></trkpt><trkpt lat="45.115709481427565" lon="10.025143478026608"><ele>31.0</ele><time>2026-03-22T06:43:48.999Z</time></trkpt><trkpt lat="45.11580695100484" lon="10.025043163696974"><ele>31.0</ele><time>2026-03-22T06:43:50.999Z</time></trkpt><trkpt lat="45.115887529952985" lon="10.024915424119264"><ele>31.0</ele><time>2026-03-22T06:43:52.999Z</time></trkpt><trkpt lat="45.11594971378092" lon="10.024768721107154"><ele>31.25</ele><time>2026-03-22T06:43:54.999Z</time></trkpt><trkpt lat="45.11600731266228" lon="10.02462031411324"><ele>31.5</ele><time>2026-03-22T06:43:56.999Z</time></trkpt><trkpt lat="45.116061401144464" lon="10.02447470977783"><ele>31.75</ele><time>2026-03-22T06:43:58.999Z</time></trkpt><trkpt lat="45.116117233094464" lon="10.02432441211007"><ele>32.0</ele><time>2026-03-22T06:44:00.999Z</time></trkpt><trkpt lat="45.11617143031757" lon="10.024178515041537"><ele>32.0</ele><time>2026-03-22T06:44:02.999Z</time></trkpt><trkpt lat="45.11622621071575" lon="10.024031048077084"><ele>32.0</ele><time>2026-03-22T06:44:04.999Z</time></trkpt><trkpt lat="45.11628107322148" lon="10.02388336006735"><ele>32.0</ele><time>2026-03-22T06:44:06.999Z</time></trkpt><trkpt lat="45.116337363751626" lon="10.02373747914726"><ele>32.0</ele><time>2026-03-22T06:44:08.999Z</time></trkpt><trkpt lat="45.11639575126967" lon="10.023594539008464"><ele>32.0</ele><time>2026-03-22T06:44:10.999Z</time></trkpt><trkpt lat="45.116460975958525" lon="10.023453965399407"><ele>32.0</ele><time>2026-03-22T06:44:12.999Z</time></trkpt><trkpt lat="45.116529794838286" lon="10.023318339683378"><ele>32.0</ele><time>2026-03-22T06:44:14.999Z</time></trkpt><trkpt lat="45.1166016929102" lon="10.023186680977817"><ele>32.0</ele><time>2026-03-22T06:44:16.999Z</time></trkpt><trkpt lat="45.11667527848743" lon="10.023054445317367"><ele>32.25</ele><time>2026-03-22T06:44:18.999Z</time></trkpt><trkpt lat="45.11674837104011" lon="10.022923095694411"><ele>32.5</ele><time>2026-03-22T06:44:20.999Z</time></trkpt><trkpt lat="45.11682210706821" lon="10.022792758716287"><ele>32.75</ele><time>2026-03-22T06:44:22.999Z</time></trkpt><trkpt lat="45.11689857200457" lon="10.022667761458568"><ele>33.0</ele><time>2026-03-22T06:44:24.999Z</time></trkpt><trkpt lat="45.1169799545358" lon="10.022549895445284"><ele>32.8</ele><time>2026-03-22T06:44:26.999Z</time></trkpt><trkpt lat="45.11706173143714" lon="10.02244286701334"><ele>32.599999999999994</ele><time>2026-03-22T06:44:28.999Z</time></trkpt><trkpt lat="45.117144387655" lon="10.022349687486653"><ele>32.400000000000006</ele><time>2026-03-22T06:44:30.999Z</time></trkpt><trkpt lat="45.11722285755755" lon="10.022259861803093"><ele>32.2</ele><time>2026-03-22T06:44:32.999Z</time></trkpt><trkpt lat="45.117297267586515" lon="10.02217272941104"><ele>32.0</ele><time>2026-03-22T06:44:34.999Z</time></trkpt><trkpt lat="45.117369167617355" lon="10.022087742102956"><ele>31.999999999999996</ele><time>2026-03-22T06:44:36.999Z</time></trkpt><trkpt lat="45.117440679954264" lon="10.022003213194267"><ele>32.0</ele><time>2026-03-22T06:44:38.999Z</time></trkpt><trkpt lat="45.11750780750915" lon="10.021923867056582"><ele>32.0</ele><time>2026-03-22T06:44:40.999Z</time></trkpt><trkpt lat="45.1175719772994" lon="10.0218480169635"><ele>32.0</ele><time>2026-03-22T06:44:42.999Z</time></trkpt><trkpt lat="45.11762464510056" lon="10.021759128547034"><ele>31.999999999999996</ele><time>2026-03-22T06:44:45Z</time></trkpt><trkpt lat="45.11769153817684" lon="10.021706693661866"><ele>32.0</ele><time>2026-03-22T06:44:47Z</time></trkpt><trkpt lat="45.11773984964951" lon="10.021620201821099"><ele>32.0</ele><time>2026-03-22T06:44:49Z</time></trkpt><trkpt lat="45.11782507936675" lon="10.021551913134429"><ele>32.0</ele><time>2026-03-22T06:44:51Z</time></trkpt><trkpt lat="45.117908529800886" lon="10.021456134851253"><ele>32.0</ele><time>2026-03-22T06:44:53Z</time></trkpt><trkpt lat="45.11799912899759" lon="10.021350644492088"><ele>32.0</ele><time>2026-03-22T06:44:55Z</time></trkpt><trkpt lat="45.11809270592628" lon="10.02123801003457"><ele>32.0</ele><time>2026-03-22T06:44:57Z</time></trkpt><trkpt lat="45.11817345868816" lon="10.02110855394698"><ele>32.25</ele><time>2026-03-22T06:44:59Z</time></trkpt><trkpt lat="45.11827423756532" lon="10.021010693170645"><ele>32.5</ele><time>2026-03-22T06:45:01Z</time></trkpt><trkpt lat="45.118362183117426" lon="10.020889837906703"><ele>32.75</ele><time>2026-03-22T06:45:03Z</time></trkpt><trkpt lat="45.11844790468884" lon="10.020766079908663"><ele>33.0</ele><time>2026-03-22T06:45:05Z</time></trkpt><trkpt lat="45.1185320364439" lon="10.020642918764079"><ele>33.0</ele><time>2026-03-22T06:45:07Z</time></trkpt><trkpt lat="45.11856421016791" lon="10.02056368841098"><ele>33.0</ele><time>2026-03-22T06:45:08Z</time></trkpt><trkpt lat="45.11864982516259" lon="10.020442235772128"><ele>33.0</ele><time>2026-03-22T06:45:10Z</time></trkpt><trkpt lat="45.11874379075254" lon="10.020331920089799"><ele>33.0</ele><time>2026-03-22T06:45:12Z</time></trkpt><trkpt lat="45.1188272567563" lon="10.0202091825568"><ele>33.0</ele><time>2026-03-22T06:45:14Z</time></trkpt><trkpt lat="45.118911325488256" lon="10.020085558594127"><ele>33.0</ele><time>2026-03-22T06:45:16Z</time></trkpt><trkpt lat="45.118995670029655" lon="10.019960489032671"><ele>33.0</ele><time>2026-03-22T06:45:18Z</time></trkpt><trkpt lat="45.119066459631235" lon="10.019820358489378"><ele>33.0</ele><time>2026-03-22T06:45:20Z</time></trkpt><trkpt lat="45.11914709127465" lon="10.019693576432894"><ele>33.0</ele><time>2026-03-22T06:45:22Z</time></trkpt><trkpt lat="45.11920078656755" lon="10.019640960844137"><ele>33.0</ele><time>2026-03-22T06:45:23Z</time></trkpt><trkpt lat="45.1192640661699" lon="10.019494827710638"><ele>33.0</ele><time>2026-03-22T06:45:25Z</time></trkpt><trkpt lat="45.11933403166832" lon="10.019351362750973"><ele>33.0</ele><time>2026-03-22T06:45:27Z</time></trkpt><trkpt lat="45.119411504351824" lon="10.019213991101223"><ele>33.0</ele><time>2026-03-22T06:45:29Z</time></trkpt><trkpt lat="45.11945921065155" lon="10.019055574082858"><ele>33.0</ele><time>2026-03-22T06:45:31Z</time></trkpt><trkpt lat="45.119522118752215" lon="10.018907895809146"><ele>32.75</ele><time>2026-03-22T06:45:33Z</time></trkpt><trkpt lat="45.119585588108755" lon="10.018757878463383"><ele>32.5</ele><time>2026-03-22T06:45:35Z</time></trkpt><trkpt lat="45.1196501021245" lon="10.018605598310614"><ele>32.25</ele><time>2026-03-22T06:45:37Z</time></trkpt><trkpt lat="45.119713470207635" lon="10.018453515232746"><ele>32.0</ele><time>2026-03-22T06:45:39Z</time></trkpt><trkpt lat="45.11977546075836" lon="10.01830323319917"><ele>32.33333333333333</ele><time>2026-03-22T06:45:41Z</time></trkpt><trkpt lat="45.11982024236026" lon="10.018240417179104"><ele>32.666666666666664</ele><time>2026-03-22T06:45:42Z</time></trkpt><trkpt lat="45.11988412705439" lon="10.01809128582829"><ele>33.0</ele><time>2026-03-22T06:45:43.999Z</time></trkpt><trkpt lat="45.11994786083455" lon="10.017941521992581"><ele>33.333333333333336</ele><time>2026-03-22T06:45:45.999Z</time></trkpt><trkpt lat="45.11996587776261" lon="10.017855517110567"><ele>33.66666666666667</ele><time>2026-03-22T06:45:46.999Z</time></trkpt><trkpt lat="45.11999852403054" lon="10.017779037995009"><ele>34.0</ele><time>2026-03-22T06:45:47.999Z</time></trkpt><trkpt lat="45.120063190737106" lon="10.017627565134076"><ele>34.0</ele><time>2026-03-22T06:45:49.999Z</time></trkpt><trkpt lat="45.12012765361491" lon="10.017477109976076"><ele>34.0</ele><time>2026-03-22T06:45:51.999Z</time></trkpt><trkpt lat="45.12019132077629" lon="10.017327682264723"><ele>34.0</ele><time>2026-03-22T06:45:53.999Z</time></trkpt><trkpt lat="45.12025361721772" lon="10.017179072900928"><ele>34.0</ele><time>2026-03-22T06:45:55.999Z</time></trkpt><trkpt lat="45.1203167369682" lon="10.017033780115618"><ele>34.0</ele><time>2026-03-22T06:45:57.999Z</time></trkpt><trkpt lat="45.12037923832794" lon="10.016884617464816"><ele>34.0</ele><time>2026-03-22T06:45:59.999Z</time></trkpt><trkpt lat="45.12042485322028" lon="10.016821982511374"><ele>34.0</ele><time>2026-03-22T06:46:00.999Z</time></trkpt><trkpt lat="45.120488626345775" lon="10.01667698101561"><ele>34.0</ele><time>2026-03-22T06:46:02.999Z</time></trkpt><trkpt lat="45.120539477816024" lon="10.016519563215535"><ele>34.0</ele><time>2026-03-22T06:46:04.999Z</time></trkpt><trkpt lat="45.120604549433104" lon="10.016375800289744"><ele>33.75</ele><time>2026-03-22T06:46:06.999Z</time></trkpt><trkpt lat="45.12067282736571" lon="10.016233786223047"><ele>33.5</ele><time>2026-03-22T06:46:08.999Z</time></trkpt><trkpt lat="45.120759278625435" lon="10.016109810050674"><ele>33.25</ele><time>2026-03-22T06:46:10.999Z</time></trkpt><trkpt lat="45.12082129240171" lon="10.015958338333881"><ele>33.0</ele><time>2026-03-22T06:46:12.999Z</time></trkpt><trkpt lat="45.120908056005355" lon="10.0158346929248"><ele>33.75</ele><time>2026-03-22T06:46:14.999Z</time></trkpt><trkpt lat="45.12098305404626" lon="10.01569600741318"><ele>34.5</ele><time>2026-03-22T06:46:16.999Z</time></trkpt><trkpt lat="45.12104502973704" lon="10.015546568395889"><ele>35.25</ele><time>2026-03-22T06:46:18.999Z</time></trkpt><trkpt lat="45.121132738519535" lon="10.015423773485487"><ele>36.0</ele><time>2026-03-22T06:46:20.999Z</time></trkpt><trkpt lat="45.12120905898396" lon="10.01528745879885"><ele>36.0</ele><time>2026-03-22T06:46:22.999Z</time></trkpt><trkpt lat="45.12128468690381" lon="10.015152381258511"><ele>36.0</ele><time>2026-03-22T06:46:24.999Z</time></trkpt><trkpt lat="45.121312235573335" lon="10.01506656436241"><ele>36.0</ele><time>2026-03-22T06:46:25.999Z</time></trkpt><trkpt lat="45.12138771355497" lon="10.0149383862046"><ele>36.0</ele><time>2026-03-22T06:46:27.999Z</time></trkpt><trkpt lat="45.121466163468" lon="10.014802528357396"><ele>36.0</ele><time>2026-03-22T06:46:29.999Z</time></trkpt><trkpt lat="45.12154433742281" lon="10.014669251771933"><ele>36.2</ele><time>2026-03-22T06:46:31.999Z</time></trkpt><trkpt lat="45.1216249514947" lon="10.014539909802272"><ele>36.400000000000006</ele><time>2026-03-22T06:46:33.999Z</time></trkpt><trkpt lat="45.12170838458873" lon="10.014409569825697"><ele>36.6</ele><time>2026-03-22T06:46:35.999Z</time></trkpt><trkpt lat="45.121789376997214" lon="10.014276139074665"><ele>36.800000000000004</ele><time>2026-03-22T06:46:37.999Z</time></trkpt><trkpt lat="45.12183069262902" lon="10.01420715255405"><ele>37.0</ele><time>2026-03-22T06:46:38.999Z</time></trkpt><trkpt lat="45.12188353292176" lon="10.014154930205104"><ele>36.16666666666667</ele><time>2026-03-22T06:46:39.999Z</time></trkpt><trkpt lat="45.12192612400779" lon="10.01408815246534"><ele>35.333333333333336</ele><time>2026-03-22T06:46:40.999Z</time></trkpt><trkpt lat="45.121957081372166" lon="10.014005769912925"><ele>34.5</ele><time>2026-03-22T06:46:41.999Z</time></trkpt><trkpt lat="45.12201099031942" lon="10.013955036022223"><ele>33.666666666666664</ele><time>2026-03-22T06:46:42.999Z</time></trkpt><trkpt lat="45.12204121871943" lon="10.0138703042884"><ele>32.83333333333333</ele><time>2026-03-22T06:46:43.999Z</time></trkpt><trkpt lat="45.12209428870578" lon="10.01381868277489"><ele>32.0</ele><time>2026-03-22T06:46:44.999Z</time></trkpt><trkpt lat="45.12216375736342" lon="10.013670406582186"><ele>32.0</ele><time>2026-03-22T06:46:46.999Z</time></trkpt><trkpt lat="45.122207218651354" lon="10.013604466897398"><ele>32.0</ele><time>2026-03-22T06:46:47.999Z</time></trkpt><trkpt lat="45.12229957257347" lon="10.01348646849865"><ele>32.0</ele><time>2026-03-22T06:46:49.999Z</time></trkpt><trkpt lat="45.12238097081304" lon="10.013354869935604"><ele>32.0</ele><time>2026-03-22T06:46:52Z</time></trkpt><trkpt lat="45.12242176309601" lon="10.013286116853447"><ele>32.0</ele><time>2026-03-22T06:46:53Z</time></trkpt><trkpt lat="45.12249996620923" lon="10.013151204272651"><ele>31.75</ele><time>2026-03-22T06:46:55Z</time></trkpt><trkpt lat="45.1225732372454" lon="10.01300781498334"><ele>31.5</ele><time>2026-03-22T06:46:57Z</time></trkpt><trkpt lat="45.12262616984299" lon="10.012848310405717"><ele>31.25</ele><time>2026-03-22T06:46:59Z</time></trkpt><trkpt lat="45.122687587474914" lon="10.01270118142728"><ele>31.0</ele><time>2026-03-22T06:47:01Z</time></trkpt><trkpt lat="45.12275047952559" lon="10.012547945943016"><ele>31.6</ele><time>2026-03-22T06:47:03Z</time></trkpt><trkpt lat="45.1228068315017" lon="10.012392422354319"><ele>32.2</ele><time>2026-03-22T06:47:05Z</time></trkpt><trkpt lat="45.12285897921008" lon="10.012236362030752"><ele>32.8</ele><time>2026-03-22T06:47:07Z</time></trkpt><trkpt lat="45.12288666387782" lon="10.012153088999222"><ele>33.4</ele><time>2026-03-22T06:47:08Z</time></trkpt><trkpt lat="45.1229392093135" lon="10.011995975141367"><ele>34.0</ele><time>2026-03-22T06:47:10Z</time></trkpt><trkpt lat="45.12299461573663" lon="10.011835972359181"><ele>34.0</ele><time>2026-03-22T06:47:12Z</time></trkpt><trkpt lat="45.123047021575836" lon="10.01167282858207"><ele>34.0</ele><time>2026-03-22T06:47:14Z</time></trkpt><trkpt lat="45.12309933078886" lon="10.011512416263189"><ele>34.0</ele><time>2026-03-22T06:47:16Z</time></trkpt><trkpt lat="45.12315291295974" lon="10.011352800431602"><ele>34.0</ele><time>2026-03-22T06:47:18Z</time></trkpt><trkpt lat="45.12318084918489" lon="10.011272084785153"><ele>34.0</ele><time>2026-03-22T06:47:19Z</time></trkpt><trkpt lat="45.12320571753655" lon="10.011190116631413"><ele>34.0</ele><time>2026-03-22T06:47:20Z</time></trkpt><trkpt lat="45.12323146879244" lon="10.011108333622811"><ele>34.0</ele><time>2026-03-22T06:47:21Z</time></trkpt><trkpt lat="45.12326037408391" lon="10.011027350593814"><ele>34.0</ele><time>2026-03-22T06:47:22Z</time></trkpt><trkpt lat="45.123288249929715" lon="10.010946656726679"><ele>34.0</ele><time>2026-03-22T06:47:23Z</time></trkpt><trkpt lat="45.1233461307629" lon="10.010787843009512"><ele>34.0</ele><time>2026-03-22T06:47:25Z</time></trkpt><trkpt lat="45.123396797305915" lon="10.010630743300938"><ele>34.0</ele><time>2026-03-22T06:47:27Z</time></trkpt><trkpt lat="45.12344849783788" lon="10.010474191552053"><ele>34.0</ele><time>2026-03-22T06:47:29Z</time></trkpt><trkpt lat="45.123474981995976" lon="10.010392871917329"><ele>34.0</ele><time>2026-03-22T06:47:30Z</time></trkpt><trkpt lat="45.12352781599538" lon="10.01023265240306"><ele>34.0</ele><time>2026-03-22T06:47:32Z</time></trkpt><trkpt lat="45.12358075640382" lon="10.010074662923612"><ele>34.0</ele><time>2026-03-22T06:47:34Z</time></trkpt><trkpt lat="45.12363184077195" lon="10.009914659073885"><ele>34.0</ele><time>2026-03-22T06:47:36Z</time></trkpt><trkpt lat="45.123684870752044" lon="10.0097585256506"><ele>34.0</ele><time>2026-03-22T06:47:38Z</time></trkpt><trkpt lat="45.1237390465309" lon="10.009600611201988"><ele>34.0</ele><time>2026-03-22T06:47:40Z</time></trkpt><trkpt lat="45.12376430659255" lon="10.00951879204951"><ele>34.0</ele><time>2026-03-22T06:47:41Z</time></trkpt><trkpt lat="45.12380516121994" lon="10.009448890369413"><ele>34.0</ele><time>2026-03-22T06:47:42Z</time></trkpt><trkpt lat="45.123858980810404" lon="10.00928869633517"><ele>34.0</ele><time>2026-03-22T06:47:44Z</time></trkpt><trkpt lat="45.12388630791423" lon="10.009206271941823"><ele>34.0</ele><time>2026-03-22T06:47:45Z</time></trkpt><trkpt lat="45.12393944721527" lon="10.009044659536466"><ele>34.0</ele><time>2026-03-22T06:47:47Z</time></trkpt><trkpt lat="45.12396659326059" lon="10.008961988684568"><ele>34.0</ele><time>2026-03-22T06:47:48Z</time></trkpt><trkpt lat="45.12402007537729" lon="10.008801144964373"><ele>34.0</ele><time>2026-03-22T06:47:50Z</time></trkpt><trkpt lat="45.12407514912849" lon="10.00864017927073"><ele>34.0</ele><time>2026-03-22T06:47:52Z</time></trkpt><trkpt lat="45.12413097474664" lon="10.008479516475813"><ele>34.0</ele><time>2026-03-22T06:47:53.999Z</time></trkpt><trkpt lat="45.12414454195386" lon="10.008391781209703"><ele>34.6</ele><time>2026-03-22T06:47:54.999Z</time></trkpt><trkpt lat="45.124197881047714" lon="10.00823952622857"><ele>35.2</ele><time>2026-03-22T06:47:56.999Z</time></trkpt><trkpt lat="45.1242467417147" lon="10.008089691227852"><ele>35.800000000000004</ele><time>2026-03-22T06:47:58.999Z</time></trkpt><trkpt lat="45.12430193197467" lon="10.007929614007796"><ele>36.4</ele><time>2026-03-22T06:48:00.999Z</time></trkpt><trkpt lat="45.124328923507726" lon="10.007844915682655"><ele>37.0</ele><time>2026-03-22T06:48:01.999Z</time></trkpt><trkpt lat="45.12435354449689" lon="10.00776271724678"><ele>37.0</ele><time>2026-03-22T06:48:02.999Z</time></trkpt><trkpt lat="45.12440548063212" lon="10.007608567532682"><ele>37.0</ele><time>2026-03-22T06:48:04.999Z</time></trkpt><trkpt lat="45.12445107750208" lon="10.007457150417473"><ele>37.0</ele><time>2026-03-22T06:48:06.999Z</time></trkpt><trkpt lat="45.12449631834616" lon="10.007314311587061"><ele>37.0</ele><time>2026-03-22T06:48:08.999Z</time></trkpt><trkpt lat="45.12454783668226" lon="10.007186692062941"><ele>37.8</ele><time>2026-03-22T06:48:10.999Z</time></trkpt><trkpt lat="45.12458369388919" lon="10.007056931207051"><ele>38.6</ele><time>2026-03-22T06:48:12.999Z</time></trkpt><trkpt lat="45.124499355037166" lon="10.006874983334049"><ele>39.4</ele><time>2026-03-22T06:48:15.999Z</time></trkpt><trkpt lat="45.124398207617446" lon="10.006771675977124"><ele>40.199999999999996</ele><time>2026-03-22T06:48:17.999Z</time></trkpt><trkpt lat="45.12434441203626" lon="10.00671607771115"><ele>41.0</ele><time>2026-03-22T06:48:18.999Z</time></trkpt><trkpt lat="45.12429871214689" lon="10.006642601531594"><ele>40.99999999999999</ele><time>2026-03-22T06:48:19.999Z</time></trkpt><trkpt lat="45.124242595918055" lon="10.006583210451792"><ele>41.0</ele><time>2026-03-22T06:48:20.999Z</time></trkpt><trkpt lat="45.12418802953394" lon="10.006525385092957"><ele>41.0</ele><time>2026-03-22T06:48:21.999Z</time></trkpt><trkpt lat="45.1241343262049" lon="10.006468474420936"><ele>41.0</ele><time>2026-03-22T06:48:22.999Z</time></trkpt><trkpt lat="45.124072500190266" lon="10.0064029558311"><ele>41.0</ele><time>2026-03-22T06:48:23.999Z</time></trkpt><trkpt lat="45.12401446155252" lon="10.006341450869261"><ele>40.99999999999999</ele><time>2026-03-22T06:48:24.999Z</time></trkpt><trkpt lat="45.12395370207145" lon="10.006277062857444"><ele>41.0</ele><time>2026-03-22T06:48:25.999Z</time></trkpt><trkpt lat="45.12389639869742" lon="10.006217230502648"><ele>41.285714285714285</ele><time>2026-03-22T06:48:26.999Z</time></trkpt><trkpt lat="45.12383991653738" lon="10.006163679378437"><ele>41.57142857142857</ele><time>2026-03-22T06:48:27.999Z</time></trkpt><trkpt lat="45.123787636934786" lon="10.006096471094997"><ele>41.85714285714286</ele><time>2026-03-22T06:48:28.999Z</time></trkpt><trkpt lat="45.12372738428424" lon="10.006039513895349"><ele>42.14285714285714</ele><time>2026-03-22T06:48:29.999Z</time></trkpt><trkpt lat="45.12367052537668" lon="10.005983638743693"><ele>42.42857142857143</ele><time>2026-03-22T06:48:30.999Z</time></trkpt><trkpt lat="45.123617534690275" lon="10.005923618024628"><ele>42.714285714285715</ele><time>2026-03-22T06:48:31.999Z</time></trkpt><trkpt lat="45.123564339223904" lon="10.005867914316863"><ele>43.0</ele><time>2026-03-22T06:48:32.999Z</time></trkpt><trkpt lat="45.12351334055596" lon="10.005812677320684"><ele>43.00000000000001</ele><time>2026-03-22T06:48:33.999Z</time></trkpt><trkpt lat="45.12346484433535" lon="10.005752732741568"><ele>43.0</ele><time>2026-03-22T06:48:34.999Z</time></trkpt><trkpt lat="45.123416654952166" lon="10.005692905252019"><ele>43.0</ele><time>2026-03-22T06:48:35.999Z</time></trkpt><trkpt lat="45.123316059976254" lon="10.005588105288664"><ele>43.0</ele><time>2026-03-22T06:48:37.999Z</time></trkpt><trkpt lat="45.123263670454264" lon="10.005536442137034"><ele>43.0</ele><time>2026-03-22T06:48:38.999Z</time></trkpt><trkpt lat="45.12321187645792" lon="10.005482454382992"><ele>43.00000000000001</ele><time>2026-03-22T06:48:39.999Z</time></trkpt><trkpt lat="45.123159390214994" lon="10.005431151507919"><ele>43.0</ele><time>2026-03-22T06:48:40.999Z</time></trkpt><trkpt lat="45.123105275784894" lon="10.005380445730621"><ele>41.75</ele><time>2026-03-22T06:48:41.999Z</time></trkpt><trkpt lat="45.123007661138196" lon="10.005283753956522"><ele>40.5</ele><time>2026-03-22T06:48:43.999Z</time></trkpt><trkpt lat="45.12293589354001" lon="10.00522803029987"><ele>39.25</ele><time>2026-03-22T06:48:45.999Z</time></trkpt><trkpt lat="45.123002971273934" lon="10.005045632057291"><ele>38.0</ele><time>2026-03-22T06:48:46.999Z</time></trkpt><trkpt lat="45.12308158175612" lon="10.004928176779188"><ele>38.25</ele><time>2026-03-22T06:48:48.999Z</time></trkpt><trkpt lat="45.123175120008156" lon="10.004832168823198"><ele>38.5</ele><time>2026-03-22T06:48:50.999Z</time></trkpt><trkpt lat="45.12325985309505" lon="10.004732709903871"><ele>38.75</ele><time>2026-03-22T06:48:52.999Z</time></trkpt><trkpt lat="45.12335014191993" lon="10.004625342536299"><ele>39.0</ele><time>2026-03-22T06:48:54.999Z</time></trkpt><trkpt lat="45.12344359814299" lon="10.004518587786286"><ele>39.0</ele><time>2026-03-22T06:48:57Z</time></trkpt><trkpt lat="45.12353557018133" lon="10.004411577058104"><ele>39.0</ele><time>2026-03-22T06:48:59Z</time></trkpt><trkpt lat="45.123626895214116" lon="10.004306153920755"><ele>39.0</ele><time>2026-03-22T06:49:01Z</time></trkpt><trkpt lat="45.1237187426333" lon="10.004198907996257"><ele>39.0</ele><time>2026-03-22T06:49:03Z</time></trkpt><trkpt lat="45.12380969578225" lon="10.00409194372611"><ele>38.25</ele><time>2026-03-22T06:49:05Z</time></trkpt><trkpt lat="45.12389938002776" lon="10.00398653130328"><ele>37.5</ele><time>2026-03-22T06:49:07Z</time></trkpt><trkpt lat="45.123991490970035" lon="10.003880179856123"><ele>36.75</ele><time>2026-03-22T06:49:09Z</time></trkpt><trkpt lat="45.12408249584221" lon="10.00377563833252"><ele>36.0</ele><time>2026-03-22T06:49:11Z</time></trkpt><trkpt lat="45.12417261495173" lon="10.003668123157247"><ele>36.0</ele><time>2026-03-22T06:49:13Z</time></trkpt><trkpt lat="45.124261616538924" lon="10.003556452283446"><ele>36.0</ele><time>2026-03-22T06:49:15Z</time></trkpt><trkpt lat="45.12434852112179" lon="10.003438193399557"><ele>36.0</ele><time>2026-03-22T06:49:17Z</time></trkpt><trkpt lat="45.12443401832755" lon="10.003315061633485"><ele>36.0</ele><time>2026-03-22T06:49:19Z</time></trkpt><trkpt lat="45.124523234804435" lon="10.003188601236829"><ele>34.5</ele><time>2026-03-22T06:49:21Z</time></trkpt><trkpt lat="45.12460293648139" lon="10.003057780818086"><ele>33.0</ele><time>2026-03-22T06:49:23Z</time></trkpt><trkpt lat="45.124682061330525" lon="10.0029257509065"><ele>31.5</ele><time>2026-03-22T06:49:25Z</time></trkpt><trkpt lat="45.12476192963893" lon="10.002795153591052"><ele>30.0</ele><time>2026-03-22T06:49:27Z</time></trkpt><trkpt lat="45.12484150755517" lon="10.002664182140219"><ele>30.5</ele><time>2026-03-22T06:49:29Z</time></trkpt><trkpt lat="45.124924099367405" lon="10.002537695891322"><ele>31.0</ele><time>2026-03-22T06:49:31Z</time></trkpt><trkpt lat="45.12500714992913" lon="10.002409132337865"><ele>31.5</ele><time>2026-03-22T06:49:33Z</time></trkpt><trkpt lat="45.12509648488782" lon="10.002287613602817"><ele>32.0</ele><time>2026-03-22T06:49:35Z</time></trkpt><trkpt lat="45.12519110833101" lon="10.002170988914271"><ele>32.0</ele><time>2026-03-22T06:49:37Z</time></trkpt><trkpt lat="45.1252863654941" lon="10.002054627048839"><ele>32.0</ele><time>2026-03-22T06:49:39Z</time></trkpt><trkpt lat="45.125383144655665" lon="10.001949124024902"><ele>32.0</ele><time>2026-03-22T06:49:41Z</time></trkpt><trkpt lat="45.12547821241997" lon="10.001841307763819"><ele>32.0</ele><time>2026-03-22T06:49:43Z</time></trkpt><trkpt lat="45.12553057824613" lon="10.001790157233636"><ele>32.0</ele><time>2026-03-22T06:49:44Z</time></trkpt><trkpt lat="45.12562408310218" lon="10.001680697048284"><ele>31.400000000000002</ele><time>2026-03-22T06:49:46Z</time></trkpt><trkpt lat="45.125672456996504" lon="10.001622215709487"><ele>30.800000000000004</ele><time>2026-03-22T06:49:47Z</time></trkpt><trkpt lat="45.12576680195431" lon="10.001512981775972"><ele>30.2</ele><time>2026-03-22T06:49:49Z</time></trkpt><trkpt lat="45.125864820613856" lon="10.00139916633402"><ele>29.6</ele><time>2026-03-22T06:49:51Z</time></trkpt><trkpt lat="45.12595394116261" lon="10.001291480158592"><ele>29.0</ele><time>2026-03-22T06:49:53Z</time></trkpt><trkpt lat="45.12604649543874" lon="10.001182347773096"><ele>29.0</ele><time>2026-03-22T06:49:55Z</time></trkpt><trkpt lat="45.1261324107801" lon="10.001068920176879"><ele>29.0</ele><time>2026-03-22T06:49:57Z</time></trkpt><trkpt lat="45.12621744702286" lon="10.000962420155092"><ele>29.0</ele><time>2026-03-22T06:49:58.999Z</time></trkpt><trkpt lat="45.12630061574596" lon="10.000851200233615"><ele>29.0</ele><time>2026-03-22T06:50:00.999Z</time></trkpt><trkpt lat="45.12638692352483" lon="10.000747800688755"><ele>29.0</ele><time>2026-03-22T06:50:02.999Z</time></trkpt><trkpt lat="45.126480541322245" lon="10.000642451719735"><ele>29.0</ele><time>2026-03-22T06:50:04.999Z</time></trkpt><trkpt lat="45.12657583141867" lon="10.000531810250385"><ele>29.0</ele><time>2026-03-22T06:50:06.999Z</time></trkpt><trkpt lat="45.12667078830601" lon="10.000428340560104"><ele>29.0</ele><time>2026-03-22T06:50:08.999Z</time></trkpt><trkpt lat="45.126764474678204" lon="10.00031674867295"><ele>29.0</ele><time>2026-03-22T06:50:10.999Z</time></trkpt><trkpt lat="45.12686223988817" lon="10.000221792038868"><ele>29.0</ele><time>2026-03-22T06:50:12.999Z</time></trkpt><trkpt lat="45.126961278610004" lon="10.000128471809441"><ele>29.0</ele><time>2026-03-22T06:50:14.999Z</time></trkpt><trkpt lat="45.12701550609978" lon="10.000080027840385"><ele>29.0</ele><time>2026-03-22T06:50:15.999Z</time></trkpt><trkpt lat="45.12712078906898" lon="9.999996662640722"><ele>29.0</ele><time>2026-03-22T06:50:17.999Z</time></trkpt><trkpt lat="45.127228696992574" lon="9.999917405136744"><ele>29.0</ele><time>2026-03-22T06:50:19.999Z</time></trkpt><trkpt lat="45.12734133378796" lon="9.999855104987395"><ele>29.0</ele><time>2026-03-22T06:50:21.999Z</time></trkpt><trkpt lat="45.127454274956285" lon="9.999789448501636"><ele>29.0</ele><time>2026-03-22T06:50:23.999Z</time></trkpt><trkpt lat="45.12755558263906" lon="9.999692885246752"><ele>29.0</ele><time>2026-03-22T06:50:25.999Z</time></trkpt><trkpt lat="45.12757880366176" lon="9.999609884814586"><ele>29.0</ele><time>2026-03-22T06:50:26.999Z</time></trkpt><trkpt lat="45.12753059703713" lon="9.999507086891358"><ele>30.499999999999996</ele><time>2026-03-22T06:50:27.999Z</time></trkpt><trkpt lat="45.127565252165326" lon="9.999344783453429"><ele>32.0</ele><time>2026-03-22T06:50:29.999Z</time></trkpt><trkpt lat="45.127625451814744" lon="9.999187661396506"><ele>33.5</ele><time>2026-03-22T06:50:31.999Z</time></trkpt><trkpt lat="45.12767381991007" lon="9.999122677318878"><ele>35.0</ele><time>2026-03-22T06:50:32.999Z</time></trkpt><trkpt lat="45.127717178504376" lon="9.999054858472979"><ele>36.5</ele><time>2026-03-22T06:50:33.999Z</time></trkpt><trkpt lat="45.127761226193456" lon="9.998988415145709"><ele>38.0</ele><time>2026-03-22T06:50:34.999Z</time></trkpt><trkpt lat="45.12783961368228" lon="9.998855577456698"><ele>38.0</ele><time>2026-03-22T06:50:36.999Z</time></trkpt><trkpt lat="45.127881333177925" lon="9.998783993506326"><ele>38.0</ele><time>2026-03-22T06:50:37.999Z</time></trkpt><trkpt lat="45.127959623807115" lon="9.998647449725812"><ele>38.0</ele><time>2026-03-22T06:50:39.999Z</time></trkpt><trkpt lat="45.12803460435064" lon="9.998514566248524"><ele>38.0</ele><time>2026-03-22T06:50:41.999Z</time></trkpt><trkpt lat="45.12810007872209" lon="9.998391528561333"><ele>38.0</ele><time>2026-03-22T06:50:43.999Z</time></trkpt><trkpt lat="45.12807517566488" lon="9.998247155340497"><ele>37.199999999999996</ele><time>2026-03-22T06:50:45.999Z</time></trkpt><trkpt lat="45.12796495378271" lon="9.998160325440077"><ele>36.4</ele><time>2026-03-22T06:50:47.999Z</time></trkpt><trkpt lat="45.127878790313986" lon="9.998039704408116"><ele>35.599999999999994</ele><time>2026-03-22T06:50:49.999Z</time></trkpt><trkpt lat="45.12785271218512" lon="9.997949412267392"><ele>34.8</ele><time>2026-03-22T06:50:50.999Z</time></trkpt><trkpt lat="45.12786944642605" lon="9.997855736860693"><ele>34.0</ele><time>2026-03-22T06:50:51.999Z</time></trkpt><trkpt lat="45.12793276470518" lon="9.997772943614843"><ele>34.0</ele><time>2026-03-22T06:50:52.999Z</time></trkpt><trkpt lat="45.12798678645439" lon="9.997711868599302"><ele>34.0</ele><time>2026-03-22T06:50:53.999Z</time></trkpt><trkpt lat="45.12803764777706" lon="9.997655318697769"><ele>34.0</ele><time>2026-03-22T06:50:54.999Z</time></trkpt><trkpt lat="45.12808458642976" lon="9.997589239682203"><ele>34.0</ele><time>2026-03-22T06:50:55.999Z</time></trkpt><trkpt lat="45.12817465165257" lon="9.997460654251737"><ele>34.0</ele><time>2026-03-22T06:50:57.999Z</time></trkpt><trkpt lat="45.12821987380472" lon="9.997396497236577"><ele>34.0</ele><time>2026-03-22T06:50:58.999Z</time></trkpt><trkpt lat="45.1282653192807" lon="9.997332720016006"><ele>34.8</ele><time>2026-03-22T06:50:59.999Z</time></trkpt><trkpt lat="45.12832351114459" lon="9.997288596058379"><ele>35.599999999999994</ele><time>2026-03-22T06:51:00.999Z</time></trkpt><trkpt lat="45.12841562699915" lon="9.997168171364006"><ele>36.4</ele><time>2026-03-22T06:51:03Z</time></trkpt><trkpt lat="45.128450002335185" lon="9.997092081458105"><ele>37.199999999999996</ele><time>2026-03-22T06:51:04Z</time></trkpt><trkpt lat="45.12854199981846" lon="9.996979821223656"><ele>38.0</ele><time>2026-03-22T06:51:06Z</time></trkpt><trkpt lat="45.12863220524845" lon="9.99685988748306"><ele>38.0</ele><time>2026-03-22T06:51:08Z</time></trkpt><trkpt lat="45.12872044329238" lon="9.99673475496396"><ele>38.0</ele><time>2026-03-22T06:51:10Z</time></trkpt><trkpt lat="45.12876458687716" lon="9.996670660175994"><ele>38.0</ele><time>2026-03-22T06:51:11Z</time></trkpt><trkpt lat="45.12881095411642" lon="9.996606925380298"><ele>38.0</ele><time>2026-03-22T06:51:12Z</time></trkpt><trkpt lat="45.12885496920344" lon="9.996541552819938"><ele>38.0</ele><time>2026-03-22T06:51:13Z</time></trkpt><trkpt lat="45.12890264647883" lon="9.996477996654164"><ele>38.0</ele><time>2026-03-22T06:51:14Z</time></trkpt><trkpt lat="45.12894776595228" lon="9.996412463720986"><ele>38.0</ele><time>2026-03-22T06:51:15Z</time></trkpt><trkpt lat="45.12899525646717" lon="9.996350253091267"><ele>38.0</ele><time>2026-03-22T06:51:16Z</time></trkpt><trkpt lat="45.129084234504425" lon="9.996225074588532"><ele>38.0</ele><time>2026-03-22T06:51:18Z</time></trkpt><trkpt lat="45.12916971546035" lon="9.996102400255262"><ele>38.0</ele><time>2026-03-22T06:51:20Z</time></trkpt><trkpt lat="45.12925201905306" lon="9.995979021755128"><ele>38.0</ele><time>2026-03-22T06:51:22Z</time></trkpt><trkpt lat="45.129333865986055" lon="9.995883657247669"><ele>38.0</ele><time>2026-03-22T06:51:24Z</time></trkpt><trkpt lat="45.12945418452826" lon="9.995934684904771"><ele>38.0</ele><time>2026-03-22T06:51:26Z</time></trkpt><trkpt lat="45.12953726350474" lon="9.996000152521233"><ele>38.0</ele><time>2026-03-22T06:51:28Z</time></trkpt><trkpt lat="45.12963215870754" lon="9.996054610128272"><ele>38.0</ele><time>2026-03-22T06:51:30Z</time></trkpt><trkpt lat="45.12970316064672" lon="9.996133865079793"><ele>38.0</ele><time>2026-03-22T06:51:32Z</time></trkpt><trkpt lat="45.129756118660346" lon="9.99625281970694"><ele>38.0</ele><time>2026-03-22T06:51:34Z</time></trkpt><trkpt lat="45.12982009953042" lon="9.99634880177289"><ele>38.0</ele><time>2026-03-22T06:51:36Z</time></trkpt><trkpt lat="45.129878736381734" lon="9.996450471692498"><ele>38.0</ele><time>2026-03-22T06:51:38Z</time></trkpt><trkpt lat="45.12991255332841" lon="9.996571959443607"><ele>38.0</ele><time>2026-03-22T06:51:40Z</time></trkpt><trkpt lat="45.12993973230251" lon="9.99669440763024"><ele>38.0</ele><time>2026-03-22T06:51:42Z</time></trkpt><trkpt lat="45.12994962584923" lon="9.996784396489872"><ele>38.0</ele><time>2026-03-22T06:51:44Z</time></trkpt><trkpt lat="45.12996678268348" lon="9.996897248408356"><ele>38.4</ele><time>2026-03-22T06:51:46Z</time></trkpt><trkpt lat="45.12999220041159" lon="9.99700847611969"><ele>38.8</ele><time>2026-03-22T06:51:48Z</time></trkpt><trkpt lat="45.13003350679195" lon="9.997113584247556"><ele>39.2</ele><time>2026-03-22T06:51:50Z</time></trkpt><trkpt lat="45.13006167799267" lon="9.997223207051674"><ele>39.6</ele><time>2026-03-22T06:51:52Z</time></trkpt><trkpt lat="45.130076577128335" lon="9.997344451791944"><ele>40.0</ele><time>2026-03-22T06:51:54Z</time></trkpt><trkpt lat="45.13014822228318" lon="9.997610806848106"><ele>40.0</ele><time>2026-03-22T06:51:56Z</time></trkpt><trkpt lat="45.13016285847879" lon="9.997762834152343"><ele>40.0</ele><time>2026-03-22T06:51:58Z</time></trkpt><trkpt lat="45.13017144768429" lon="9.997918623177027"><ele>40.0</ele><time>2026-03-22T06:51:59.999Z</time></trkpt><trkpt lat="45.13018988287943" lon="9.998074285976307"><ele>40.0</ele><time>2026-03-22T06:52:01.999Z</time></trkpt><trkpt lat="45.13021042712995" lon="9.99823243483305"><ele>40.0</ele><time>2026-03-22T06:52:03.999Z</time></trkpt><trkpt lat="45.1302243242491" lon="9.998394209023653"><ele>40.25</ele><time>2026-03-22T06:52:05.999Z</time></trkpt><trkpt lat="45.130244060303056" lon="9.998553873828923"><ele>40.5</ele><time>2026-03-22T06:52:07.999Z</time></trkpt><trkpt lat="45.13026099255948" lon="9.998710689436464"><ele>40.75</ele><time>2026-03-22T06:52:09.999Z</time></trkpt><trkpt lat="45.130276153925344" lon="9.998872137276459"><ele>41.0</ele><time>2026-03-22T06:52:11.999Z</time></trkpt><trkpt lat="45.13029293626463" lon="9.999035608632752"><ele>41.0</ele><time>2026-03-22T06:52:13.999Z</time></trkpt><trkpt lat="45.1302924156894" lon="9.999189428128435"><ele>41.0</ele><time>2026-03-22T06:52:15.999Z</time></trkpt><trkpt lat="45.13030659912136" lon="9.99934736915603"><ele>41.0</ele><time>2026-03-22T06:52:17.999Z</time></trkpt><trkpt lat="45.13032386644637" lon="9.999513074002047"><ele>41.0</ele><time>2026-03-22T06:52:19.999Z</time></trkpt><trkpt lat="45.13034205921573" lon="9.999676304518358"><ele>41.0</ele><time>2026-03-22T06:52:21.999Z</time></trkpt><trkpt lat="45.130357597942556" lon="9.999839061921358"><ele>41.0</ele><time>2026-03-22T06:52:23.999Z</time></trkpt><trkpt lat="45.130374934475874" lon="10.000000405609164"><ele>41.0</ele><time>2026-03-22T06:52:25.999Z</time></trkpt><trkpt lat="45.130391420960635" lon="10.000158973947347"><ele>41.0</ele><time>2026-03-22T06:52:27.999Z</time></trkpt><trkpt lat="45.13040871316159" lon="10.000315764804641"><ele>41.0</ele><time>2026-03-22T06:52:29.999Z</time></trkpt><trkpt lat="45.13042517238326" lon="10.000475365421341"><ele>41.0</ele><time>2026-03-22T06:52:31.999Z</time></trkpt><trkpt lat="45.1304305175758" lon="10.000644448912558"><ele>41.0</ele><time>2026-03-22T06:52:33.999Z</time></trkpt><trkpt lat="45.13039570761731" lon="10.000808066888771"><ele>41.0</ele><time>2026-03-22T06:52:35.999Z</time></trkpt><trkpt lat="45.1303526034502" lon="10.000950256610329"><ele>40.75</ele><time>2026-03-22T06:52:37.999Z</time></trkpt><trkpt lat="45.13031017706165" lon="10.001090210757539"><ele>40.5</ele><time>2026-03-22T06:52:39.999Z</time></trkpt><trkpt lat="45.13024817036674" lon="10.001220333165083"><ele>40.25</ele><time>2026-03-22T06:52:41.999Z</time></trkpt><trkpt lat="45.13020179448104" lon="10.001334308342862"><ele>40.0</ele><time>2026-03-22T06:52:43.999Z</time></trkpt><trkpt lat="45.13004561595661" lon="10.001349134632276"><ele>40.0</ele><time>2026-03-22T06:52:45.999Z</time></trkpt><trkpt lat="45.12994161714675" lon="10.001232890439956"><ele>40.0</ele><time>2026-03-22T06:52:47.999Z</time></trkpt><trkpt lat="45.12983613429138" lon="10.001182283211673"><ele>40.0</ele><time>2026-03-22T06:52:49.999Z</time></trkpt><trkpt lat="45.12973516965929" lon="10.001111939590512"><ele>40.0</ele><time>2026-03-22T06:52:51.999Z</time></trkpt><trkpt lat="45.12963108108328" lon="10.001039739235821"><ele>39.75</ele><time>2026-03-22T06:52:53.999Z</time></trkpt><trkpt lat="45.12952710104161" lon="10.00096765964292"><ele>39.5</ele><time>2026-03-22T06:52:55.999Z</time></trkpt><trkpt lat="45.129420862056676" lon="10.00089401421244"><ele>39.25</ele><time>2026-03-22T06:52:57.999Z</time></trkpt><trkpt lat="45.12931638954933" lon="10.000821593306858"><ele>39.0</ele><time>2026-03-22T06:52:59.999Z</time></trkpt><trkpt lat="45.129208705194" lon="10.000746641451833"><ele>39.0</ele><time>2026-03-22T06:53:01.999Z</time></trkpt><trkpt lat="45.12910311253858" lon="10.000672928415588"><ele>39.0</ele><time>2026-03-22T06:53:03.999Z</time></trkpt><trkpt lat="45.12899664428446" lon="10.000599449468282"><ele>39.0</ele><time>2026-03-22T06:53:05.998Z</time></trkpt><trkpt lat="45.128895180328406" lon="10.00052942427719"><ele>39.0</ele><time>2026-03-22T06:53:07.998Z</time></trkpt><trkpt lat="45.12879225878429" lon="10.000458390199201"><ele>39.0</ele><time>2026-03-22T06:53:10Z</time></trkpt><trkpt lat="45.128687404890236" lon="10.000386193179546"><ele>39.0</ele><time>2026-03-22T06:53:12Z</time></trkpt><trkpt lat="45.12858240388463" lon="10.00031392615737"><ele>39.0</ele><time>2026-03-22T06:53:14Z</time></trkpt><trkpt lat="45.12847967646594" lon="10.00024322391808"><ele>39.0</ele><time>2026-03-22T06:53:16Z</time></trkpt><trkpt lat="45.12836627681905" lon="10.00016517650725"><ele>39.0</ele><time>2026-03-22T06:53:18Z</time></trkpt><trkpt lat="45.12826549586863" lon="10.000095813707112"><ele>39.0</ele><time>2026-03-22T06:53:20Z</time></trkpt><trkpt lat="45.128159026504704" lon="10.000023440737756"><ele>39.0</ele><time>2026-03-22T06:53:22Z</time></trkpt><trkpt lat="45.12805322153276" lon="9.999952780900903"><ele>39.0</ele><time>2026-03-22T06:53:24Z</time></trkpt><trkpt lat="45.12794828954832" lon="9.999882704020127"><ele>39.0</ele><time>2026-03-22T06:53:26Z</time></trkpt><trkpt lat="45.12785392262222" lon="9.999819682871308"><ele>39.0</ele><time>2026-03-22T06:53:28Z</time></trkpt><trkpt lat="45.12777569780034" lon="9.999762221942495"><ele>39.0</ele><time>2026-03-22T06:53:30Z</time></trkpt><trkpt lat="45.12768867788642" lon="9.999707067775923"><ele>39.0</ele><time>2026-03-22T06:53:32Z</time></trkpt><trkpt lat="45.12760602052637" lon="9.99961032091256"><ele>39.0</ele><time>2026-03-22T06:53:34Z</time></trkpt><trkpt lat="45.12750723379846" lon="9.999599995035789"><ele>39.0</ele><time>2026-03-22T06:53:36Z</time></trkpt><trkpt lat="45.12753331314655" lon="9.999736286204941"><ele>39.0</ele><time>2026-03-22T06:53:40Z</time></trkpt><trkpt lat="45.127631910603455" lon="9.999752154352878"><ele>39.0</ele><time>2026-03-22T06:53:42Z</time></trkpt><trkpt lat="45.127722117143826" lon="9.999782265960977"><ele>39.0</ele><time>2026-03-22T06:53:44Z</time></trkpt><trkpt lat="45.12781047316474" lon="9.999839963055585"><ele>39.0</ele><time>2026-03-22T06:53:46Z</time></trkpt><trkpt lat="45.12789577812976" lon="9.999908190457704"><ele>39.0</ele><time>2026-03-22T06:53:48Z</time></trkpt><trkpt lat="45.1279830333904" lon="9.99997809915532"><ele>39.0</ele><time>2026-03-22T06:53:50Z</time></trkpt><trkpt lat="45.1280685006724" lon="10.000043460636642"><ele>39.0</ele><time>2026-03-22T06:53:52Z</time></trkpt><trkpt lat="45.128152546872506" lon="10.000099386195082"><ele>39.0</ele><time>2026-03-22T06:53:54Z</time></trkpt><trkpt lat="45.12823286499542" lon="10.000150557550759"><ele>39.0</ele><time>2026-03-22T06:53:56Z</time></trkpt><trkpt lat="45.12830947701577" lon="10.000204760208106"><ele>39.0</ele><time>2026-03-22T06:53:58Z</time></trkpt><trkpt lat="45.128384143176" lon="10.000260559173743"><ele>39.0</ele><time>2026-03-22T06:54:00Z</time></trkpt><trkpt lat="45.128460640393406" lon="10.000315212318812"><ele>39.0</ele><time>2026-03-22T06:54:02Z</time></trkpt><trkpt lat="45.12853431458595" lon="10.000373717300242"><ele>39.0</ele><time>2026-03-22T06:54:03.999Z</time></trkpt><trkpt lat="45.12861065628786" lon="10.000428168756637"><ele>39.0</ele><time>2026-03-22T06:54:05.999Z</time></trkpt><trkpt lat="45.12868956188236" lon="10.000482751854511"><ele>39.0</ele><time>2026-03-22T06:54:07.999Z</time></trkpt><trkpt lat="45.12876729445098" lon="10.000535401054648"><ele>39.0</ele><time>2026-03-22T06:54:09.999Z</time></trkpt><trkpt lat="45.12883935859631" lon="10.000592932484475"><ele>39.0</ele><time>2026-03-22T06:54:11.999Z</time></trkpt><trkpt lat="45.128918700154195" lon="10.000644374153834"><ele>39.0</ele><time>2026-03-22T06:54:13.999Z</time></trkpt><trkpt lat="45.12898938003149" lon="10.000700426182794"><ele>39.0</ele><time>2026-03-22T06:54:15.999Z</time></trkpt><trkpt lat="45.12907364376237" lon="10.0007566437206"><ele>39.0</ele><time>2026-03-22T06:54:17.999Z</time></trkpt><trkpt lat="45.129154589664395" lon="10.00080764941708"><ele>39.0</ele><time>2026-03-22T06:54:19.999Z</time></trkpt><trkpt lat="45.12923154809834" lon="10.000857826281182"><ele>39.0</ele><time>2026-03-22T06:54:21.999Z</time></trkpt><trkpt lat="45.129305630520925" lon="10.00090485057345"><ele>39.0</ele><time>2026-03-22T06:54:23.999Z</time></trkpt><trkpt lat="45.12938454117788" lon="10.000963644971678"><ele>39.0</ele><time>2026-03-22T06:54:25.999Z</time></trkpt><trkpt lat="45.1294587157984" lon="10.001029261934908"><ele>39.0</ele><time>2026-03-22T06:54:27.999Z</time></trkpt><trkpt lat="45.12954032640172" lon="10.001083959484784"><ele>39.0</ele><time>2026-03-22T06:54:29.999Z</time></trkpt><trkpt lat="45.12962112917453" lon="10.001132988258254"><ele>39.0</ele><time>2026-03-22T06:54:31.999Z</time></trkpt><trkpt lat="45.12970289072979" lon="10.001191685268294"><ele>39.0</ele><time>2026-03-22T06:54:33.999Z</time></trkpt><trkpt lat="45.12977779775612" lon="10.001248493883393"><ele>39.0</ele><time>2026-03-22T06:54:35.999Z</time></trkpt><trkpt lat="45.12985335069387" lon="10.001297082792256"><ele>39.0</ele><time>2026-03-22T06:54:37.999Z</time></trkpt><trkpt lat="45.12992569136991" lon="10.001340526956474"><ele>39.0</ele><time>2026-03-22T06:54:39.999Z</time></trkpt><trkpt lat="45.12998969208239" lon="10.001398388451797"><ele>39.0</ele><time>2026-03-22T06:54:41.999Z</time></trkpt><trkpt lat="45.13001814101266" lon="10.001490167362043"><ele>39.0</ele><time>2026-03-22T06:54:43.999Z</time></trkpt><trkpt lat="45.12999057102877" lon="10.001595941591496"><ele>39.166666666666664</ele><time>2026-03-22T06:54:46.999Z</time></trkpt><trkpt lat="45.130051349816185" lon="10.001535125944812"><ele>39.333333333333336</ele><time>2026-03-22T06:54:50.999Z</time></trkpt><trkpt lat="45.1300627872517" lon="10.001415061552388"><ele>39.5</ele><time>2026-03-22T07:00:57.999Z</time></trkpt><trkpt lat="45.130102755146595" lon="10.001341632165246"><ele>39.66666666666667</ele><time>2026-03-22T07:00:59.999Z</time></trkpt><trkpt lat="45.13017433114901" lon="10.001294627381581"><ele>39.833333333333336</ele><time>2026-03-22T07:01:01.999Z</time></trkpt><trkpt lat="45.130240219188934" lon="10.00120446874758"><ele>40.0</ele><time>2026-03-22T07:01:03.999Z</time></trkpt><trkpt lat="45.13028740808011" lon="10.001083141681315"><ele>40.0</ele><time>2026-03-22T07:01:05.999Z</time></trkpt><trkpt lat="45.13033255609261" lon="10.000951904097178"><ele>40.0</ele><time>2026-03-22T07:01:07.999Z</time></trkpt><trkpt lat="45.13038023625865" lon="10.00082262219023"><ele>40.0</ele><time>2026-03-22T07:01:09.999Z</time></trkpt><trkpt lat="45.130422543782274" lon="10.000688648458848"><ele>40.0</ele><time>2026-03-22T07:01:11.999Z</time></trkpt><trkpt lat="45.13044763330761" lon="10.000548788864853"><ele>40.0</ele><time>2026-03-22T07:01:13.999Z</time></trkpt><trkpt lat="45.13045570574726" lon="10.00040370133905"><ele>40.25</ele><time>2026-03-22T07:01:15.999Z</time></trkpt><trkpt lat="45.13048393027582" lon="10.000179889851022"><ele>40.5</ele><time>2026-03-22T07:01:18.998Z</time></trkpt><trkpt lat="45.130469163856304" lon="10.000039544884613"><ele>40.75</ele><time>2026-03-22T07:01:20.998Z</time></trkpt><trkpt lat="45.13045308523058" lon="9.999891656399447"><ele>41.0</ele><time>2026-03-22T07:01:22.998Z</time></trkpt><trkpt lat="45.13043702772749" lon="9.999743961542512"><ele>41.0</ele><time>2026-03-22T07:01:24.998Z</time></trkpt><trkpt lat="45.13042140452892" lon="9.999600537451387"><ele>41.0</ele><time>2026-03-22T07:01:26.998Z</time></trkpt><trkpt lat="45.13040593235105" lon="9.99945844120281"><ele>41.0</ele><time>2026-03-22T07:01:28.998Z</time></trkpt><trkpt lat="45.130337306729324" lon="9.999327687550036"><ele>41.0</ele><time>2026-03-22T07:01:30.998Z</time></trkpt><trkpt lat="45.13032182558724" lon="9.999185682846516"><ele>41.0</ele><time>2026-03-22T07:01:33Z</time></trkpt><trkpt lat="45.13030537473516" lon="9.999043965347436"><ele>41.0</ele><time>2026-03-22T07:01:35Z</time></trkpt><trkpt lat="45.13035134890939" lon="9.998957940072984"><ele>41.0</ele><time>2026-03-22T07:01:36Z</time></trkpt><trkpt lat="45.13033645551528" lon="9.998821537618253"><ele>41.0</ele><time>2026-03-22T07:01:38Z</time></trkpt><trkpt lat="45.13028311855249" lon="9.998757298200891"><ele>41.0</ele><time>2026-03-22T07:01:39Z</time></trkpt><trkpt lat="45.13026440675132" lon="9.99860533483895"><ele>41.0</ele><time>2026-03-22T07:01:41Z</time></trkpt><trkpt lat="45.13030263785471" lon="9.998511263932942"><ele>41.0</ele><time>2026-03-22T07:01:43Z</time></trkpt><trkpt lat="45.13029233051066" lon="9.998416382000512"><ele>40.8</ele><time>2026-03-22T07:01:44Z</time></trkpt><trkpt lat="45.13027355893602" lon="9.9982435842847"><ele>40.599999999999994</ele><time>2026-03-22T07:01:46Z</time></trkpt><trkpt lat="45.130257559176485" lon="9.998096302060697"><ele>40.4</ele><time>2026-03-22T07:01:48Z</time></trkpt><trkpt lat="45.13019479009089" lon="9.998034946635649"><ele>40.2</ele><time>2026-03-22T07:01:49Z</time></trkpt><trkpt lat="45.130233820244875" lon="9.997877307925737"><ele>40.0</ele><time>2026-03-22T07:01:51Z</time></trkpt><trkpt lat="45.130217761029456" lon="9.997728870556612"><ele>40.0</ele><time>2026-03-22T07:01:53Z</time></trkpt><trkpt lat="45.1302017307996" lon="9.997580701087205"><ele>40.0</ele><time>2026-03-22T07:01:55Z</time></trkpt><trkpt lat="45.13018521737808" lon="9.997427334936944"><ele>40.0</ele><time>2026-03-22T07:01:57Z</time></trkpt><trkpt lat="45.13016887217487" lon="9.997275385099973"><ele>40.0</ele><time>2026-03-22T07:01:59Z</time></trkpt><trkpt lat="45.130152611350816" lon="9.997124219667304"><ele>40.0</ele><time>2026-03-22T07:02:01Z</time></trkpt><trkpt lat="45.13006521398231" lon="9.997062658970338"><ele>40.0</ele><time>2026-03-22T07:02:02Z</time></trkpt><trkpt lat="45.13004693086705" lon="9.996901436489907"><ele>40.0</ele><time>2026-03-22T07:02:04Z</time></trkpt><trkpt lat="45.13004004024989" lon="9.996747841258712"><ele>40.0</ele><time>2026-03-22T07:02:06Z</time></trkpt><trkpt lat="45.1300198566625" lon="9.996592142067813"><ele>40.0</ele><time>2026-03-22T07:02:08Z</time></trkpt><trkpt lat="45.13000252381269" lon="9.996438606643565"><ele>40.0</ele><time>2026-03-22T07:02:10Z</time></trkpt><trkpt lat="45.12995965275169" lon="9.99629796277304"><ele>39.6</ele><time>2026-03-22T07:02:12Z</time></trkpt><trkpt lat="45.12989391812828" lon="9.99617926256206"><ele>39.2</ele><time>2026-03-22T07:02:14Z</time></trkpt><trkpt lat="45.12983058311557" lon="9.996060105495781"><ele>38.8</ele><time>2026-03-22T07:02:16Z</time></trkpt><trkpt lat="45.12974139934473" lon="9.99596500341329"><ele>38.4</ele><time>2026-03-22T07:02:18Z</time></trkpt><trkpt lat="45.12966208499601" lon="9.995895600682287"><ele>38.0</ele><time>2026-03-22T07:02:20Z</time></trkpt><trkpt lat="45.12957841378525" lon="9.995837672521318"><ele>37.4</ele><time>2026-03-22T07:02:22Z</time></trkpt><trkpt lat="45.12949649167052" lon="9.99576620236655"><ele>36.8</ele><time>2026-03-22T07:02:23.999Z</time></trkpt><trkpt lat="45.12940663232046" lon="9.995692144249334"><ele>36.2</ele><time>2026-03-22T07:02:25.999Z</time></trkpt><trkpt lat="45.12939471196649" lon="9.995571369364454"><ele>35.6</ele><time>2026-03-22T07:02:26.999Z</time></trkpt><trkpt lat="45.129308504397265" lon="9.995497437117061"><ele>35.0</ele><time>2026-03-22T07:02:28.999Z</time></trkpt><trkpt lat="45.12922075609228" lon="9.995422183523745"><ele>35.0</ele><time>2026-03-22T07:02:30.999Z</time></trkpt><trkpt lat="45.12911954921199" lon="9.995335387772872"><ele>35.0</ele><time>2026-03-22T07:02:32.999Z</time></trkpt><trkpt lat="45.12903099389287" lon="9.995259442056744"><ele>35.0</ele><time>2026-03-22T07:02:34.999Z</time></trkpt><trkpt lat="45.12893125747528" lon="9.995173907376667"><ele>35.0</ele><time>2026-03-22T07:02:36.999Z</time></trkpt><trkpt lat="45.12883185022154" lon="9.995088654980895"><ele>34.6</ele><time>2026-03-22T07:02:38.999Z</time></trkpt><trkpt lat="45.128744884285105" lon="9.995014072351207"><ele>34.2</ele><time>2026-03-22T07:02:40.999Z</time></trkpt><trkpt lat="45.128685168131646" lon="9.994962342257786"><ele>33.8</ele><time>2026-03-22T07:02:42.999Z</time></trkpt><trkpt lat="45.12854345334155" lon="9.99483921064746"><ele>33.4</ele><time>2026-03-22T07:02:44.999Z</time></trkpt><trkpt lat="45.12844829234081" lon="9.994756528087555"><ele>33.0</ele><time>2026-03-22T07:02:46.999Z</time></trkpt><trkpt lat="45.12835376415333" lon="9.994674395403651"><ele>31.75</ele><time>2026-03-22T07:02:48.999Z</time></trkpt><trkpt lat="45.12825489434818" lon="9.994589268717045"><ele>30.5</ele><time>2026-03-22T07:02:50.999Z</time></trkpt><trkpt lat="45.12816576261885" lon="9.99451255595887"><ele>29.25</ele><time>2026-03-22T07:02:52.999Z</time></trkpt><trkpt lat="45.12806310720408" lon="9.994424203767341"><ele>28.0</ele><time>2026-03-22T07:02:54.999Z</time></trkpt><trkpt lat="45.12796604588481" lon="9.994340754873468"><ele>28.0</ele><time>2026-03-22T07:02:56.999Z</time></trkpt><trkpt lat="45.12786351029438" lon="9.994252737582254"><ele>27.999999999999996</ele><time>2026-03-22T07:02:58.999Z</time></trkpt><trkpt lat="45.12776635398979" lon="9.994169150991175"><ele>27.999999999999996</ele><time>2026-03-22T07:03:00.999Z</time></trkpt><trkpt lat="45.127679679231214" lon="9.994094402719076"><ele>28.0</ele><time>2026-03-22T07:03:02.999Z</time></trkpt><trkpt lat="45.127588598114556" lon="9.994015854221105"><ele>28.0</ele><time>2026-03-22T07:03:04.999Z</time></trkpt><trkpt lat="45.12748825694555" lon="9.99392931984892"><ele>29.799999999999997</ele><time>2026-03-22T07:03:06.999Z</time></trkpt><trkpt lat="45.12739144321851" lon="9.993845827707652"><ele>31.599999999999998</ele><time>2026-03-22T07:03:08.999Z</time></trkpt><trkpt lat="45.12729963814044" lon="9.993766654951985"><ele>33.400000000000006</ele><time>2026-03-22T07:03:10.999Z</time></trkpt><trkpt lat="45.127202732577565" lon="9.993683083461814"><ele>35.2</ele><time>2026-03-22T07:03:12.999Z</time></trkpt><trkpt lat="45.127106724556036" lon="9.993600457145481"><ele>37.0</ele><time>2026-03-22T07:03:14.999Z</time></trkpt><trkpt lat="45.12700881747446" lon="9.9935163465363"><ele>37.0</ele><time>2026-03-22T07:03:16.999Z</time></trkpt><trkpt lat="45.12690999095527" lon="9.993431445883129"><ele>37.0</ele><time>2026-03-22T07:03:18.999Z</time></trkpt><trkpt lat="45.12680943695942" lon="9.993344350307451"><ele>37.0</ele><time>2026-03-22T07:03:20.999Z</time></trkpt><trkpt lat="45.12671386454401" lon="9.993261559905223"><ele>37.0</ele><time>2026-03-22T07:03:22.999Z</time></trkpt><trkpt lat="45.12661725512404" lon="9.993177871201965"><ele>37.5</ele><time>2026-03-22T07:03:24.999Z</time></trkpt><trkpt lat="45.12651771090432" lon="9.993091630636105"><ele>38.0</ele><time>2026-03-22T07:03:26.998Z</time></trkpt><trkpt lat="45.12642281235793" lon="9.99301038663098"><ele>38.5</ele><time>2026-03-22T07:03:28.998Z</time></trkpt><trkpt lat="45.126321450466264" lon="9.992923609321284"><ele>39.0</ele><time>2026-03-22T07:03:30.998Z</time></trkpt><trkpt lat="45.1262253184289" lon="9.992841309389066"><ele>39.0</ele><time>2026-03-22T07:03:32.998Z</time></trkpt><trkpt lat="45.12613004271042" lon="9.992759742570616"><ele>39.0</ele><time>2026-03-22T07:03:34.998Z</time></trkpt><trkpt lat="45.126030079173105" lon="9.992674162369246"><ele>39.0</ele><time>2026-03-22T07:03:36.998Z</time></trkpt><trkpt lat="45.12594027274885" lon="9.992596887074406"><ele>39.0</ele><time>2026-03-22T07:03:39Z</time></trkpt><trkpt lat="45.12583844194072" lon="9.992509189978042"><ele>39.5</ele><time>2026-03-22T07:03:41Z</time></trkpt><trkpt lat="45.125736861113445" lon="9.992421708149891"><ele>40.0</ele><time>2026-03-22T07:03:43Z</time></trkpt><trkpt lat="45.125634986285824" lon="9.99233487187043"><ele>40.5</ele><time>2026-03-22T07:03:45Z</time></trkpt><trkpt lat="45.12553370813002" lon="9.992248746961076"><ele>41.0</ele><time>2026-03-22T07:03:47Z</time></trkpt><trkpt lat="45.12543488550798" lon="9.992163500911039"><ele>41.0</ele><time>2026-03-22T07:03:49Z</time></trkpt><trkpt lat="45.1253361892953" lon="9.992077011611856"><ele>41.0</ele><time>2026-03-22T07:03:51Z</time></trkpt><trkpt lat="45.12524397475842" lon="9.991996201317043"><ele>41.0</ele><time>2026-03-22T07:03:53Z</time></trkpt><trkpt lat="45.125140037228874" lon="9.991905973758211"><ele>41.0</ele><time>2026-03-22T07:03:55Z</time></trkpt><trkpt lat="45.125045026472414" lon="9.991824676165377"><ele>41.0</ele><time>2026-03-22T07:03:57Z</time></trkpt><trkpt lat="45.12495135446676" lon="9.99174452369576"><ele>41.0</ele><time>2026-03-22T07:03:59Z</time></trkpt><trkpt lat="45.124820786858805" lon="9.99172701078872"><ele>41.0</ele><time>2026-03-22T07:04:01Z</time></trkpt><trkpt lat="45.12472223322489" lon="9.991635720572162"><ele>41.0</ele><time>2026-03-22T07:04:03Z</time></trkpt><trkpt lat="45.12462184583517" lon="9.99155407596791"><ele>40.5</ele><time>2026-03-22T07:04:05Z</time></trkpt><trkpt lat="45.12452223827301" lon="9.991458598974042"><ele>40.0</ele><time>2026-03-22T07:04:07Z</time></trkpt><trkpt lat="45.1244265645196" lon="9.991368619302024"><ele>39.5</ele><time>2026-03-22T07:04:09Z</time></trkpt><trkpt lat="45.124324515010485" lon="9.991287828636985"><ele>39.0</ele><time>2026-03-22T07:04:11Z</time></trkpt><trkpt lat="45.124228019493266" lon="9.991196060283396"><ele>39.0</ele><time>2026-03-22T07:04:13Z</time></trkpt><trkpt lat="45.12413158982608" lon="9.991114267798572"><ele>39.0</ele><time>2026-03-22T07:04:15Z</time></trkpt><trkpt lat="45.12402896217101" lon="9.991035017263382"><ele>39.0</ele><time>2026-03-22T07:04:17Z</time></trkpt><trkpt lat="45.123933813310906" lon="9.990941058097148"><ele>39.0</ele><time>2026-03-22T07:04:19Z</time></trkpt><trkpt lat="45.123853097780724" lon="9.990797256358448"><ele>39.25</ele><time>2026-03-22T07:04:21Z</time></trkpt><trkpt lat="45.123756188368304" lon="9.990713838964544"><ele>39.5</ele><time>2026-03-22T07:04:23Z</time></trkpt><trkpt lat="45.12366043645517" lon="9.990631417948176"><ele>39.75</ele><time>2026-03-22T07:04:25Z</time></trkpt><trkpt lat="45.12356294494347" lon="9.99054722562129"><ele>40.0</ele><time>2026-03-22T07:04:26.999Z</time></trkpt><trkpt lat="45.123466079953644" lon="9.990463198539997"><ele>40.0</ele><time>2026-03-22T07:04:28.999Z</time></trkpt><trkpt lat="45.12337617451128" lon="9.990385208623552"><ele>40.0</ele><time>2026-03-22T07:04:30.999Z</time></trkpt><trkpt lat="45.1233074287962" lon="9.990325574015722"><ele>40.0</ele><time>2026-03-22T07:04:31.999Z</time></trkpt><trkpt lat="45.123206753876836" lon="9.990238241896511"><ele>40.0</ele><time>2026-03-22T07:04:33.999Z</time></trkpt><trkpt lat="45.123117628964366" lon="9.990160929069548"><ele>40.0</ele><time>2026-03-22T07:04:35.999Z</time></trkpt><trkpt lat="45.12302101901732" lon="9.990077123226051"><ele>40.0</ele><time>2026-03-22T07:04:37.999Z</time></trkpt><trkpt lat="45.12291869039827" lon="9.989988553090274"><ele>40.0</ele><time>2026-03-22T07:04:39.999Z</time></trkpt><trkpt lat="45.12282038760064" lon="9.98990400792647"><ele>40.0</ele><time>2026-03-22T07:04:41.999Z</time></trkpt><trkpt lat="45.122719096541964" lon="9.98981689265774"><ele>40.0</ele><time>2026-03-22T07:04:43.999Z</time></trkpt><trkpt lat="45.12262101882523" lon="9.98973254106602"><ele>40.0</ele><time>2026-03-22T07:04:45.999Z</time></trkpt><trkpt lat="45.122519160674216" lon="9.989644938119174"><ele>40.0</ele><time>2026-03-22T07:04:47.999Z</time></trkpt><trkpt lat="45.12242875524387" lon="9.989565760026233"><ele>40.0</ele><time>2026-03-22T07:04:49.999Z</time></trkpt><trkpt lat="45.12233569028996" lon="9.989482876275623"><ele>40.0</ele><time>2026-03-22T07:04:51.999Z</time></trkpt><trkpt lat="45.122234721295754" lon="9.989398464520365"><ele>39.8</ele><time>2026-03-22T07:04:53.999Z</time></trkpt><trkpt lat="45.12213751742716" lon="9.989324451502686"><ele>39.6</ele><time>2026-03-22T07:04:55.999Z</time></trkpt><trkpt lat="45.12204913664128" lon="9.989258475158909"><ele>39.4</ele><time>2026-03-22T07:04:57.999Z</time></trkpt><trkpt lat="45.121952633652306" lon="9.989201782470698"><ele>39.2</ele><time>2026-03-22T07:04:59.999Z</time></trkpt><trkpt lat="45.121858802828065" lon="9.98917239046988"><ele>39.0</ele><time>2026-03-22T07:05:01.999Z</time></trkpt><trkpt lat="45.121739827367236" lon="9.989154868761272"><ele>38.6</ele><time>2026-03-22T07:05:03.999Z</time></trkpt><trkpt lat="45.12167641169518" lon="9.989259435913752"><ele>38.2</ele><time>2026-03-22T07:05:04.999Z</time></trkpt><trkpt lat="45.12155798479537" lon="9.98927660838768"><ele>37.800000000000004</ele><time>2026-03-22T07:05:06.999Z</time></trkpt><trkpt lat="45.12145824536112" lon="9.989324667265501"><ele>37.4</ele><time>2026-03-22T07:05:08.999Z</time></trkpt><trkpt lat="45.12136194506815" lon="9.989384529169994"><ele>37.0</ele><time>2026-03-22T07:05:10.999Z</time></trkpt><trkpt lat="45.12126448465352" lon="9.989437080126212"><ele>36.800000000000004</ele><time>2026-03-22T07:05:12.999Z</time></trkpt><trkpt lat="45.121180595154314" lon="9.98949439185913"><ele>36.6</ele><time>2026-03-22T07:05:14.999Z</time></trkpt><trkpt lat="45.121088314905315" lon="9.989540627126082"><ele>36.400000000000006</ele><time>2026-03-22T07:05:16.999Z</time></trkpt><trkpt lat="45.12100660693555" lon="9.989595651019817"><ele>36.2</ele><time>2026-03-22T07:05:18.999Z</time></trkpt><trkpt lat="45.12090224858415" lon="9.989561162860438"><ele>36.0</ele><time>2026-03-22T07:05:20.999Z</time></trkpt><trkpt lat="45.120833792165385" lon="9.989602318179845"><ele>36.0</ele><time>2026-03-22T07:05:22.999Z</time></trkpt><trkpt lat="45.12075393811144" lon="9.989633831222454"><ele>36.0</ele><time>2026-03-22T07:05:24.999Z</time></trkpt><trkpt lat="45.1206500977815" lon="9.9896644822192"><ele>36.0</ele><time>2026-03-22T07:05:26.999Z</time></trkpt><trkpt lat="45.1205432093769" lon="9.989733662461006"><ele>36.0</ele><time>2026-03-22T07:05:28.998Z</time></trkpt><trkpt lat="45.120435531439774" lon="9.989792303123762"><ele>36.0</ele><time>2026-03-22T07:05:30.998Z</time></trkpt><trkpt lat="45.12033707558698" lon="9.989860261882868"><ele>36.75</ele><time>2026-03-22T07:05:32.998Z</time></trkpt><trkpt lat="45.12023710664884" lon="9.989917286036393"><ele>37.5</ele><time>2026-03-22T07:05:34.998Z</time></trkpt><trkpt lat="45.12012702098367" lon="9.989984862786807"><ele>38.25</ele><time>2026-03-22T07:05:36.998Z</time></trkpt><trkpt lat="45.12001697099723" lon="9.990051560837534"><ele>39.0</ele><time>2026-03-22T07:05:38.998Z</time></trkpt><trkpt lat="45.119904499654986" lon="9.99011835888839"><ele>38.4</ele><time>2026-03-22T07:05:40.998Z</time></trkpt><trkpt lat="45.11979238843371" lon="9.99018775454386"><ele>37.8</ele><time>2026-03-22T07:05:42.998Z</time></trkpt><trkpt lat="45.11967818817908" lon="9.990254733582297"><ele>37.2</ele><time>2026-03-22T07:05:45Z</time></trkpt><trkpt lat="45.11961955061342" lon="9.990287740043552"><ele>36.6</ele><time>2026-03-22T07:05:46Z</time></trkpt><trkpt lat="45.119502207543334" lon="9.990355385514563"><ele>36.0</ele><time>2026-03-22T07:05:48Z</time></trkpt><trkpt lat="45.11938755697501" lon="9.990428625426892"><ele>36.0</ele><time>2026-03-22T07:05:50Z</time></trkpt><trkpt lat="45.119269486629406" lon="9.990496407398485"><ele>36.0</ele><time>2026-03-22T07:05:52Z</time></trkpt><trkpt lat="45.1191546732491" lon="9.990566985853077"><ele>36.0</ele><time>2026-03-22T07:05:54Z</time></trkpt><trkpt lat="45.11904165637572" lon="9.990637555777987"><ele>36.0</ele><time>2026-03-22T07:05:56Z</time></trkpt><trkpt lat="45.11892710257723" lon="9.99070475164144"><ele>36.0</ele><time>2026-03-22T07:05:58Z</time></trkpt><trkpt lat="45.11886902649466" lon="9.990739403535725"><ele>36.0</ele><time>2026-03-22T07:05:59Z</time></trkpt><trkpt lat="45.11881167281274" lon="9.9907763949017"><ele>36.0</ele><time>2026-03-22T07:06:00Z</time></trkpt><trkpt lat="45.11875280748094" lon="9.990809510321528"><ele>36.0</ele><time>2026-03-22T07:06:01Z</time></trkpt><trkpt lat="45.11869403677498" lon="9.990842759167094"><ele>36.0</ele><time>2026-03-22T07:06:02Z</time></trkpt><trkpt lat="45.118635365793594" lon="9.990879788249499"><ele>36.0</ele><time>2026-03-22T07:06:03Z</time></trkpt><trkpt lat="45.118576799318134" lon="9.990917408285503"><ele>36.0</ele><time>2026-03-22T07:06:04Z</time></trkpt><trkpt lat="45.11851715994026" lon="9.990955409841892"><ele>36.0</ele><time>2026-03-22T07:06:05Z</time></trkpt><trkpt lat="45.118455798895205" lon="9.990992499147758"><ele>35.714285714285715</ele><time>2026-03-22T07:06:06Z</time></trkpt><trkpt lat="45.11839408849721" lon="9.991031344501796"><ele>35.42857142857143</ele><time>2026-03-22T07:06:07Z</time></trkpt><trkpt lat="45.1183347093991" lon="9.99107036765128"><ele>35.14285714285714</ele><time>2026-03-22T07:06:08Z</time></trkpt><trkpt lat="45.11827425915434" lon="9.991105343093711"><ele>34.85714285714286</ele><time>2026-03-22T07:06:09Z</time></trkpt><trkpt lat="45.118212237735584" lon="9.991144343291657"><ele>34.57142857142857</ele><time>2026-03-22T07:06:10Z</time></trkpt><trkpt lat="45.11815058218736" lon="9.991180095576906"><ele>34.285714285714285</ele><time>2026-03-22T07:06:11Z</time></trkpt><trkpt lat="45.11808924800355" lon="9.991216495937616"><ele>34.0</ele><time>2026-03-22T07:06:12Z</time></trkpt><trkpt lat="45.11802739895977" lon="9.991254430818806"><ele>34.71428571428571</ele><time>2026-03-22T07:06:13Z</time></trkpt><trkpt lat="45.11796620445642" lon="9.991289247294137"><ele>35.42857142857143</ele><time>2026-03-22T07:06:14Z</time></trkpt><trkpt lat="45.11790392474475" lon="9.991326707838404"><ele>36.14285714285714</ele><time>2026-03-22T07:06:15Z</time></trkpt><trkpt lat="45.11784189368736" lon="9.991362984053554"><ele>36.857142857142854</ele><time>2026-03-22T07:06:16Z</time></trkpt><trkpt lat="45.117781443557796" lon="9.991403151277083"><ele>37.57142857142857</ele><time>2026-03-22T07:06:17Z</time></trkpt><trkpt lat="45.11771819468533" lon="9.991437844606898"><ele>38.285714285714285</ele><time>2026-03-22T07:06:18Z</time></trkpt><trkpt lat="45.11765474498389" lon="9.99147320167258"><ele>39.0</ele><time>2026-03-22T07:06:19Z</time></trkpt><trkpt lat="45.11759386802996" lon="9.991508717944159"><ele>39.0</ele><time>2026-03-22T07:06:20Z</time></trkpt><trkpt lat="45.11753119795581" lon="9.991546712104183"><ele>39.0</ele><time>2026-03-22T07:06:21Z</time></trkpt><trkpt lat="45.11746948745399" lon="9.991583781864229"><ele>39.0</ele><time>2026-03-22T07:06:22Z</time></trkpt><trkpt lat="45.11740800548525" lon="9.991623019915009"><ele>39.0</ele><time>2026-03-22T07:06:23Z</time></trkpt><trkpt lat="45.117344054061995" lon="9.991660370783725"><ele>39.0</ele><time>2026-03-22T07:06:24Z</time></trkpt><trkpt lat="45.11728224847993" lon="9.991697185576848"><ele>39.0</ele><time>2026-03-22T07:06:25Z</time></trkpt><trkpt lat="45.11722066279437" lon="9.991737866796585"><ele>39.0</ele><time>2026-03-22T07:06:26Z</time></trkpt><trkpt lat="45.11715734924442" lon="9.991777348960133"><ele>39.0</ele><time>2026-03-22T07:06:27Z</time></trkpt><trkpt lat="45.11709608637775" lon="9.991817398196591"><ele>39.0</ele><time>2026-03-22T07:06:28Z</time></trkpt><trkpt lat="45.11703281492325" lon="9.991854608427833"><ele>39.0</ele><time>2026-03-22T07:06:29Z</time></trkpt><trkpt lat="45.11696993589502" lon="9.99189209883519"><ele>39.0</ele><time>2026-03-22T07:06:30Z</time></trkpt><trkpt lat="45.11690697750693" lon="9.991931773206057"><ele>39.0</ele><time>2026-03-22T07:06:30.999Z</time></trkpt><trkpt lat="45.11684192038987" lon="9.99196974199352"><ele>39.0</ele><time>2026-03-22T07:06:31.999Z</time></trkpt><trkpt lat="45.116778496761" lon="9.992011398267223"><ele>39.0</ele><time>2026-03-22T07:06:32.999Z</time></trkpt><trkpt lat="45.11671726062073" lon="9.99204732750708"><ele>39.0</ele><time>2026-03-22T07:06:33.999Z</time></trkpt><trkpt lat="45.1166518631646" lon="9.992084700858332"><ele>39.0</ele><time>2026-03-22T07:06:34.999Z</time></trkpt><trkpt lat="45.116586141199384" lon="9.992123404742571"><ele>39.0</ele><time>2026-03-22T07:06:35.999Z</time></trkpt><trkpt lat="45.116520440759466" lon="9.992159545979575"><ele>39.0</ele><time>2026-03-22T07:06:36.999Z</time></trkpt><trkpt lat="45.11645649689118" lon="9.99219889315329"><ele>39.0</ele><time>2026-03-22T07:06:37.999Z</time></trkpt><trkpt lat="45.116391845314546" lon="9.992238550207805"><ele>39.0</ele><time>2026-03-22T07:06:38.999Z</time></trkpt><trkpt lat="45.11632880300384" lon="9.992280531302214"><ele>39.0</ele><time>2026-03-22T07:06:39.999Z</time></trkpt><trkpt lat="45.11626472089285" lon="9.992317772882936"><ele>39.0</ele><time>2026-03-22T07:06:40.999Z</time></trkpt><trkpt lat="45.11620036223941" lon="9.992356157874934"><ele>39.0</ele><time>2026-03-22T07:06:41.999Z</time></trkpt><trkpt lat="45.1161367690329" lon="9.992393789531338"><ele>39.0</ele><time>2026-03-22T07:06:42.999Z</time></trkpt><trkpt lat="45.116073415071035" lon="9.992428493788848"><ele>39.0</ele><time>2026-03-22T07:06:43.999Z</time></trkpt><trkpt lat="45.11600679507039" lon="9.992464425388889"><ele>39.0</ele><time>2026-03-22T07:06:44.999Z</time></trkpt><trkpt lat="45.11594091772709" lon="9.992500095456087"><ele>39.0</ele><time>2026-03-22T07:06:45.999Z</time></trkpt><trkpt lat="45.115874911282866" lon="9.992540027117446"><ele>39.0</ele><time>2026-03-22T07:06:46.999Z</time></trkpt><trkpt lat="45.11580966567172" lon="9.992579117991816"><ele>39.0</ele><time>2026-03-22T07:06:47.999Z</time></trkpt><trkpt lat="45.11574054121453" lon="9.992614141721662"><ele>39.0</ele><time>2026-03-22T07:06:48.999Z</time></trkpt><trkpt lat="45.115673551212" lon="9.992652369433381"><ele>39.0</ele><time>2026-03-22T07:06:49.999Z</time></trkpt><trkpt lat="45.11560765518773" lon="9.992692066796486"><ele>39.0</ele><time>2026-03-22T07:06:50.999Z</time></trkpt><trkpt lat="45.1155402510095" lon="9.992730529092373"><ele>39.0</ele><time>2026-03-22T07:06:51.999Z</time></trkpt><trkpt lat="45.11547224339292" lon="9.992769063583776"><ele>39.0</ele><time>2026-03-22T07:06:52.999Z</time></trkpt><trkpt lat="45.11540618409664" lon="9.992808671746143"><ele>39.0</ele><time>2026-03-22T07:06:53.999Z</time></trkpt><trkpt lat="45.115339215192314" lon="9.992848846089526"><ele>39.0</ele><time>2026-03-22T07:06:54.999Z</time></trkpt><trkpt lat="45.11527460855731" lon="9.992888844760335"><ele>39.0</ele><time>2026-03-22T07:06:55.999Z</time></trkpt><trkpt lat="45.11520789714238" lon="9.992928209203228"><ele>39.0</ele><time>2026-03-22T07:06:56.999Z</time></trkpt><trkpt lat="45.11514179700563" lon="9.992970146814896"><ele>39.0</ele><time>2026-03-22T07:06:57.999Z</time></trkpt><trkpt lat="45.115076345269635" lon="9.993009400101526"><ele>39.0</ele><time>2026-03-22T07:06:58.999Z</time></trkpt><trkpt lat="45.1150104965101" lon="9.993048612769543"><ele>39.0</ele><time>2026-03-22T07:06:59.999Z</time></trkpt><trkpt lat="45.11494433466355" lon="9.993088055219433"><ele>39.0</ele><time>2026-03-22T07:07:00.999Z</time></trkpt><trkpt lat="45.11487836025228" lon="9.993127102117631"><ele>39.0</ele><time>2026-03-22T07:07:01.999Z</time></trkpt><trkpt lat="45.114813400805716" lon="9.993167177732339"><ele>39.0</ele><time>2026-03-22T07:07:02.999Z</time></trkpt><trkpt lat="45.1147472266716" lon="9.993208208240004"><ele>39.0</ele><time>2026-03-22T07:07:03.999Z</time></trkpt><trkpt lat="45.114680788453164" lon="9.993246493149414"><ele>39.0</ele><time>2026-03-22T07:07:04.999Z</time></trkpt><trkpt lat="45.11461300148139" lon="9.993285606223768"><ele>39.0</ele><time>2026-03-22T07:07:05.999Z</time></trkpt><trkpt lat="45.1145477819928" lon="9.993323869440257"><ele>39.0</ele><time>2026-03-22T07:07:06.999Z</time></trkpt><trkpt lat="45.114479886823986" lon="9.993363645030453"><ele>39.0</ele><time>2026-03-22T07:07:07.999Z</time></trkpt><trkpt lat="45.11441487684578" lon="9.993405043086375"><ele>39.0</ele><time>2026-03-22T07:07:08.999Z</time></trkpt><trkpt lat="45.11434771837643" lon="9.993443894276847"><ele>39.0</ele><time>2026-03-22T07:07:09.999Z</time></trkpt><trkpt lat="45.114282129800706" lon="9.993483689482678"><ele>39.0</ele><time>2026-03-22T07:07:10.999Z</time></trkpt><trkpt lat="45.11421619051766" lon="9.993524061145385"><ele>39.0</ele><time>2026-03-22T07:07:11.999Z</time></trkpt><trkpt lat="45.114149642749844" lon="9.993563499492044"><ele>39.0</ele><time>2026-03-22T07:07:12.999Z</time></trkpt><trkpt lat="45.114080815246915" lon="9.99360083907589"><ele>39.0</ele><time>2026-03-22T07:07:13.999Z</time></trkpt><trkpt lat="45.1140156841221" lon="9.99363972599419"><ele>39.0</ele><time>2026-03-22T07:07:14.999Z</time></trkpt><trkpt lat="45.113947273703495" lon="9.993682917923017"><ele>39.0</ele><time>2026-03-22T07:07:15.999Z</time></trkpt><trkpt lat="45.113883804771" lon="9.993725860170883"><ele>39.0</ele><time>2026-03-22T07:07:16.999Z</time></trkpt><trkpt lat="45.113815965375345" lon="9.993765165525668"><ele>39.0</ele><time>2026-03-22T07:07:17.999Z</time></trkpt><trkpt lat="45.1137489410194" lon="9.99380227805253"><ele>39.0</ele><time>2026-03-22T07:07:18.999Z</time></trkpt><trkpt lat="45.11368360571398" lon="9.993841982068362"><ele>39.0</ele><time>2026-03-22T07:07:19.999Z</time></trkpt><trkpt lat="45.11361779066657" lon="9.993881502373782"><ele>39.0</ele><time>2026-03-22T07:07:20.999Z</time></trkpt><trkpt lat="45.113550320445114" lon="9.993915526667386"><ele>39.0</ele><time>2026-03-22T07:07:21.999Z</time></trkpt><trkpt lat="45.11348164404986" lon="9.993955061852793"><ele>39.0</ele><time>2026-03-22T07:07:22.999Z</time></trkpt><trkpt lat="45.11341733280956" lon="9.993998016584849"><ele>39.0</ele><time>2026-03-22T07:07:23.999Z</time></trkpt><trkpt lat="45.11334686040902" lon="9.994035906234291"><ele>39.0</ele><time>2026-03-22T07:07:24.999Z</time></trkpt><trkpt lat="45.113277213631406" lon="9.994077217778637"><ele>39.0</ele><time>2026-03-22T07:07:25.999Z</time></trkpt><trkpt lat="45.11321108157116" lon="9.994115863032329"><ele>39.0</ele><time>2026-03-22T07:07:26.999Z</time></trkpt><trkpt lat="45.11314329254135" lon="9.994156456910783"><ele>39.0</ele><time>2026-03-22T07:07:27.999Z</time></trkpt><trkpt lat="45.113077356656554" lon="9.994198179189418"><ele>39.0</ele><time>2026-03-22T07:07:28.999Z</time></trkpt><trkpt lat="45.11301024647702" lon="9.994236971262922"><ele>39.142857142857146</ele><time>2026-03-22T07:07:29.999Z</time></trkpt><trkpt lat="45.112943162014204" lon="9.99427759246755"><ele>39.285714285714285</ele><time>2026-03-22T07:07:30.998Z</time></trkpt><trkpt lat="45.11287717170189" lon="9.994319311314886"><ele>39.42857142857143</ele><time>2026-03-22T07:07:31.998Z</time></trkpt><trkpt lat="45.11281115896058" lon="9.99436208812643"><ele>39.57142857142857</ele><time>2026-03-22T07:07:32.998Z</time></trkpt><trkpt lat="45.11274378755645" lon="9.99440164809294"><ele>39.714285714285715</ele><time>2026-03-22T07:07:33.998Z</time></trkpt><trkpt lat="45.11267721715241" lon="9.99444239258757"><ele>39.857142857142854</ele><time>2026-03-22T07:07:34.998Z</time></trkpt><trkpt lat="45.11261021775302" lon="9.99448400761645"><ele>40.0</ele><time>2026-03-22T07:07:35.998Z</time></trkpt><trkpt lat="45.11253915883228" lon="9.994520040725313"><ele>40.0</ele><time>2026-03-22T07:07:36.998Z</time></trkpt><trkpt lat="45.1124696120928" lon="9.994552606781289"><ele>40.0</ele><time>2026-03-22T07:07:37.998Z</time></trkpt><trkpt lat="45.11239667115599" lon="9.994565350864285"><ele>40.0</ele><time>2026-03-22T07:07:38.998Z</time></trkpt><trkpt lat="45.11232551911831" lon="9.994572009389213"><ele>40.0</ele><time>2026-03-22T07:07:39.998Z</time></trkpt><trkpt lat="45.11225058307369" lon="9.994567672508007"><ele>40.0</ele><time>2026-03-22T07:07:40.998Z</time></trkpt><trkpt lat="45.11217771591932" lon="9.994553429586075"><ele>40.0</ele><time>2026-03-22T07:07:41.998Z</time></trkpt><trkpt lat="45.11210729775564" lon="9.994527050750653"><ele>40.0</ele><time>2026-03-22T07:07:42.998Z</time></trkpt><trkpt lat="45.11203836176936" lon="9.994487308296698"><ele>39.857142857142854</ele><time>2026-03-22T07:07:43.998Z</time></trkpt><trkpt lat="45.11197326553299" lon="9.994441975159724"><ele>39.714285714285715</ele><time>2026-03-22T07:07:44.998Z</time></trkpt><trkpt lat="45.11191091712513" lon="9.994391372214425"><ele>39.57142857142857</ele><time>2026-03-22T07:07:45.998Z</time></trkpt><trkpt lat="45.111857246033566" lon="9.994336958430384"><ele>39.42857142857143</ele><time>2026-03-22T07:07:46.998Z</time></trkpt><trkpt lat="45.111807415349915" lon="9.994272739690986"><ele>39.285714285714285</ele><time>2026-03-22T07:07:47.998Z</time></trkpt><trkpt lat="45.11174798875103" lon="9.994211531922213"><ele>39.142857142857146</ele><time>2026-03-22T07:07:48.998Z</time></trkpt><trkpt lat="45.111691203585316" lon="9.994151190919707"><ele>39.0</ele><time>2026-03-22T07:07:50Z</time></trkpt><trkpt lat="45.111634934014305" lon="9.994089124460837"><ele>38.85714285714286</ele><time>2026-03-22T07:07:51Z</time></trkpt><trkpt lat="45.11158021581068" lon="9.994027772794631"><ele>38.71428571428571</ele><time>2026-03-22T07:07:52Z</time></trkpt><trkpt lat="45.111525055600396" lon="9.993965057154162"><ele>38.57142857142857</ele><time>2026-03-22T07:07:53Z</time></trkpt><trkpt lat="45.11146854765885" lon="9.993904553355794"><ele>38.42857142857143</ele><time>2026-03-22T07:07:54Z</time></trkpt><trkpt lat="45.1114102869376" lon="9.993841710146704"><ele>38.28571428571429</ele><time>2026-03-22T07:07:55Z</time></trkpt><trkpt lat="45.11135242796185" lon="9.993781586241388"><ele>38.14285714285714</ele><time>2026-03-22T07:07:56Z</time></trkpt><trkpt lat="45.111293203186875" lon="9.993722266858567"><ele>38.0</ele><time>2026-03-22T07:07:57Z</time></trkpt><trkpt lat="45.111235688626195" lon="9.993663950754154"><ele>38.0</ele><time>2026-03-22T07:07:58Z</time></trkpt><trkpt lat="45.11117786008192" lon="9.993600707589055"><ele>38.0</ele><time>2026-03-22T07:07:59Z</time></trkpt><trkpt lat="45.111121827685956" lon="9.993536635240492"><ele>38.0</ele><time>2026-03-22T07:08:00Z</time></trkpt><trkpt lat="45.11106480206127" lon="9.993473123087956"><ele>38.0</ele><time>2026-03-22T07:08:01Z</time></trkpt><trkpt lat="45.11100704043135" lon="9.99341166856173"><ele>38.0</ele><time>2026-03-22T07:08:02Z</time></trkpt><trkpt lat="45.11094932962143" lon="9.993352233146805"><ele>38.0</ele><time>2026-03-22T07:08:03Z</time></trkpt><trkpt lat="45.11089235654051" lon="9.99328876764433"><ele>38.0</ele><time>2026-03-22T07:08:04Z</time></trkpt><trkpt lat="45.110835075387534" lon="9.993227416390376"><ele>38.0</ele><time>2026-03-22T07:08:05Z</time></trkpt><trkpt lat="45.11077725942092" lon="9.99316132851389"><ele>38.0</ele><time>2026-03-22T07:08:06Z</time></trkpt><trkpt lat="45.110719408098845" lon="9.993098914445037"><ele>38.0</ele><time>2026-03-22T07:08:07Z</time></trkpt><trkpt lat="45.11066134967221" lon="9.993036036322312"><ele>38.0</ele><time>2026-03-22T07:08:08Z</time></trkpt><trkpt lat="45.110602688557485" lon="9.992973459537987"><ele>38.0</ele><time>2026-03-22T07:08:09Z</time></trkpt><trkpt lat="45.11054446411163" lon="9.992912984120874"><ele>38.0</ele><time>2026-03-22T07:08:10Z</time></trkpt><trkpt lat="45.11048603551902" lon="9.9928466821126"><ele>38.0</ele><time>2026-03-22T07:08:11Z</time></trkpt><trkpt lat="45.11042790584165" lon="9.992782237397499"><ele>37.857142857142854</ele><time>2026-03-22T07:08:12Z</time></trkpt><trkpt lat="45.11036978463671" lon="9.992720063548507"><ele>37.714285714285715</ele><time>2026-03-22T07:08:13Z</time></trkpt><trkpt lat="45.110310469740725" lon="9.992656220853629"><ele>37.57142857142857</ele><time>2026-03-22T07:08:14Z</time></trkpt><trkpt lat="45.11025350568047" lon="9.992592537917863"><ele>37.42857142857143</ele><time>2026-03-22T07:08:15Z</time></trkpt><trkpt lat="45.11019646399247" lon="9.992529215922152"><ele>37.285714285714285</ele><time>2026-03-22T07:08:16Z</time></trkpt><trkpt lat="45.110139376400525" lon="9.992466653484382"><ele>37.142857142857146</ele><time>2026-03-22T07:08:17Z</time></trkpt><trkpt lat="45.11008223578479" lon="9.992404689091273"><ele>37.0</ele><time>2026-03-22T07:08:18Z</time></trkpt><trkpt lat="45.11002686524593" lon="9.992343084754388"><ele>37.0</ele><time>2026-03-22T07:08:19Z</time></trkpt><trkpt lat="45.10997099521149" lon="9.992279624610045"><ele>37.0</ele><time>2026-03-22T07:08:20Z</time></trkpt><trkpt lat="45.10991511362161" lon="9.992218013352236"><ele>37.0</ele><time>2026-03-22T07:08:21Z</time></trkpt><trkpt lat="45.1098605076049" lon="9.992156579500376"><ele>37.0</ele><time>2026-03-22T07:08:22Z</time></trkpt><trkpt lat="45.10980586902076" lon="9.992095438210335"><ele>37.0</ele><time>2026-03-22T07:08:23Z</time></trkpt><trkpt lat="45.10975192240845" lon="9.992035810771016"><ele>37.0</ele><time>2026-03-22T07:08:24Z</time></trkpt><trkpt lat="45.1096978675857" lon="9.9919744410671"><ele>37.0</ele><time>2026-03-22T07:08:25Z</time></trkpt><trkpt lat="45.109642664879644" lon="9.991914317978456"><ele>36.85714285714286</ele><time>2026-03-22T07:08:26Z</time></trkpt><trkpt lat="45.10958844135968" lon="9.991853518023769"><ele>36.714285714285715</ele><time>2026-03-22T07:08:27Z</time></trkpt><trkpt lat="45.109530709439284" lon="9.991789778182573"><ele>36.57142857142857</ele><time>2026-03-22T07:08:28Z</time></trkpt><trkpt lat="45.109474728967996" lon="9.991726480129214"><ele>36.42857142857143</ele><time>2026-03-22T07:08:29Z</time></trkpt><trkpt lat="45.10941852559131" lon="9.99165809251648"><ele>36.285714285714285</ele><time>2026-03-22T07:08:30Z</time></trkpt><trkpt lat="45.109359521216966" lon="9.991592603604607"><ele>36.142857142857146</ele><time>2026-03-22T07:08:31Z</time></trkpt><trkpt lat="45.10929915247706" lon="9.991525137301664"><ele>36.0</ele><time>2026-03-22T07:08:32Z</time></trkpt><trkpt lat="45.10923828887017" lon="9.991454093184071"><ele>36.5</ele><time>2026-03-22T07:08:32.999Z</time></trkpt><trkpt lat="45.10917762902667" lon="9.99138405078101"><ele>37.0</ele><time>2026-03-22T07:08:33.999Z</time></trkpt><trkpt lat="45.10911632177417" lon="9.991314427426335"><ele>37.5</ele><time>2026-03-22T07:08:34.999Z</time></trkpt><trkpt lat="45.10905527494881" lon="9.991241512621587"><ele>38.0</ele><time>2026-03-22T07:08:35.999Z</time></trkpt><trkpt lat="45.10899302116841" lon="9.991167827604823"><ele>38.5</ele><time>2026-03-22T07:08:36.999Z</time></trkpt><trkpt lat="45.10893171383076" lon="9.991097111636654"><ele>39.0</ele><time>2026-03-22T07:08:37.999Z</time></trkpt><trkpt lat="45.10887022626903" lon="9.991021372111105"><ele>39.0</ele><time>2026-03-22T07:08:38.999Z</time></trkpt><trkpt lat="45.108807322354814" lon="9.99094907160231"><ele>39.0</ele><time>2026-03-22T07:08:39.999Z</time></trkpt><trkpt lat="45.108745525028105" lon="9.990878608632634"><ele>39.0</ele><time>2026-03-22T07:08:40.999Z</time></trkpt><trkpt lat="45.10868304374518" lon="9.990805677008044"><ele>39.0</ele><time>2026-03-22T07:08:41.999Z</time></trkpt><trkpt lat="45.10862256176187" lon="9.990733713608826"><ele>39.0</ele><time>2026-03-22T07:08:42.999Z</time></trkpt><trkpt lat="45.10856091382951" lon="9.990662574729306"><ele>39.0</ele><time>2026-03-22T07:08:43.999Z</time></trkpt><trkpt lat="45.10849831069774" lon="9.990589126130661"><ele>39.0</ele><time>2026-03-22T07:08:44.999Z</time></trkpt><trkpt lat="45.10843938570249" lon="9.990521958980803"><ele>39.0</ele><time>2026-03-22T07:08:45.999Z</time></trkpt><trkpt lat="45.10837570316967" lon="9.990450998522846"><ele>39.0</ele><time>2026-03-22T07:08:46.999Z</time></trkpt><trkpt lat="45.10831517775961" lon="9.990381821840286"><ele>39.0</ele><time>2026-03-22T07:08:47.999Z</time></trkpt><trkpt lat="45.10825366175282" lon="9.990314388694237"><ele>39.0</ele><time>2026-03-22T07:08:48.999Z</time></trkpt><trkpt lat="45.10819515745906" lon="9.990245033718145"><ele>39.0</ele><time>2026-03-22T07:08:49.999Z</time></trkpt><trkpt lat="45.10813210810507" lon="9.990176137929247"><ele>39.0</ele><time>2026-03-22T07:08:50.999Z</time></trkpt><trkpt lat="45.10807315638956" lon="9.99010567687033"><ele>39.0</ele><time>2026-03-22T07:08:51.999Z</time></trkpt><trkpt lat="45.10801219350923" lon="9.990036080461733"><ele>39.0</ele><time>2026-03-22T07:08:52.999Z</time></trkpt><trkpt lat="45.107951804557004" lon="9.989966510714094"><ele>39.0</ele><time>2026-03-22T07:08:53.999Z</time></trkpt><trkpt lat="45.10789245096115" lon="9.989896789791059"><ele>39.0</ele><time>2026-03-22T07:08:54.999Z</time></trkpt><trkpt lat="45.107831949998875" lon="9.989825909817208"><ele>39.0</ele><time>2026-03-22T07:08:55.999Z</time></trkpt><trkpt lat="45.10777226034243" lon="9.989756634155203"><ele>38.833333333333336</ele><time>2026-03-22T07:08:56.999Z</time></trkpt><trkpt lat="45.107710785897815" lon="9.989686801682607"><ele>38.666666666666664</ele><time>2026-03-22T07:08:57.999Z</time></trkpt><trkpt lat="45.10764969905695" lon="9.98961448470086"><ele>38.5</ele><time>2026-03-22T07:08:58.999Z</time></trkpt><trkpt lat="45.107588546133215" lon="9.989547434961654"><ele>38.33333333333333</ele><time>2026-03-22T07:08:59.999Z</time></trkpt><trkpt lat="45.10752750965944" lon="9.98947746725305"><ele>38.166666666666664</ele><time>2026-03-22T07:09:00.999Z</time></trkpt><trkpt lat="45.10746543775895" lon="9.989411709690089"><ele>38.0</ele><time>2026-03-22T07:09:01.999Z</time></trkpt><trkpt lat="45.107409477117805" lon="9.989346467080342"><ele>38.33333333333333</ele><time>2026-03-22T07:09:02.999Z</time></trkpt><trkpt lat="45.1073560935151" lon="9.989284773836454"><ele>38.666666666666664</ele><time>2026-03-22T07:09:03.999Z</time></trkpt><trkpt lat="45.107306563078104" lon="9.98922662578675"><ele>39.0</ele><time>2026-03-22T07:09:04.999Z</time></trkpt><trkpt lat="45.10722237279993" lon="9.989136444854692"><ele>39.333333333333336</ele><time>2026-03-22T07:09:06.999Z</time></trkpt><trkpt lat="45.107164437944995" lon="9.989062913509127"><ele>39.66666666666667</ele><time>2026-03-22T07:09:08.999Z</time></trkpt><trkpt lat="45.10711483123029" lon="9.988994446661103"><ele>40.0</ele><time>2026-03-22T07:09:11.999Z</time></trkpt><trkpt lat="45.10704695434041" lon="9.988844915378268"><ele>40.2</ele><time>2026-03-22T07:09:48.998Z</time></trkpt><trkpt lat="45.106978877622765" lon="9.988780396338939"><ele>40.4</ele><time>2026-03-22T07:09:50.998Z</time></trkpt><trkpt lat="45.10690041710459" lon="9.988702407191813"><ele>40.599999999999994</ele><time>2026-03-22T07:09:52.998Z</time></trkpt><trkpt lat="45.106815114943664" lon="9.988614434251922"><ele>40.8</ele><time>2026-03-22T07:09:54.998Z</time></trkpt><trkpt lat="45.10672155332841" lon="9.98851655637817"><ele>41.0</ele><time>2026-03-22T07:09:57Z</time></trkpt><trkpt lat="45.106625493407414" lon="9.988420016256619"><ele>40.599999999999994</ele><time>2026-03-22T07:09:59Z</time></trkpt><trkpt lat="45.10653058539188" lon="9.988316582100257"><ele>40.199999999999996</ele><time>2026-03-22T07:10:01Z</time></trkpt><trkpt lat="45.10643160352811" lon="9.9882091691371"><ele>39.8</ele><time>2026-03-22T07:10:03Z</time></trkpt><trkpt lat="45.106375014350505" lon="9.988160592173928"><ele>39.4</ele><time>2026-03-22T07:10:04Z</time></trkpt><trkpt lat="45.10632331935676" lon="9.988108965625816"><ele>39.0</ele><time>2026-03-22T07:10:05Z</time></trkpt><trkpt lat="45.10622241824297" lon="9.988002462724719"><ele>39.0</ele><time>2026-03-22T07:10:07Z</time></trkpt><trkpt lat="45.10612176845876" lon="9.987889159126494"><ele>39.0</ele><time>2026-03-22T07:10:09Z</time></trkpt><trkpt lat="45.10607008344585" lon="9.987832263823636"><ele>39.0</ele><time>2026-03-22T07:10:10Z</time></trkpt><trkpt lat="45.10601812912834" lon="9.987772612078514"><ele>39.0</ele><time>2026-03-22T07:10:11Z</time></trkpt><trkpt lat="45.10596681787891" lon="9.9877165838812"><ele>39.0</ele><time>2026-03-22T07:10:12Z</time></trkpt><trkpt lat="45.10591356407104" lon="9.987658565012882"><ele>39.0</ele><time>2026-03-22T07:10:13Z</time></trkpt><trkpt lat="45.10585862844001" lon="9.987601606107027"><ele>39.0</ele><time>2026-03-22T07:10:14Z</time></trkpt><trkpt lat="45.10580327797695" lon="9.987542631452282"><ele>39.0</ele><time>2026-03-22T07:10:15Z</time></trkpt><trkpt lat="45.105744246093344" lon="9.987487046880558"><ele>39.0</ele><time>2026-03-22T07:10:16Z</time></trkpt><trkpt lat="45.105691909292986" lon="9.98742953876632"><ele>39.0</ele><time>2026-03-22T07:10:17Z</time></trkpt><trkpt lat="45.10563417150519" lon="9.987374148381802"><ele>39.0</ele><time>2026-03-22T07:10:18Z</time></trkpt><trkpt lat="45.10557541173429" lon="9.987321010552836"><ele>39.0</ele><time>2026-03-22T07:10:19Z</time></trkpt><trkpt lat="45.10551616851751" lon="9.987265795377668"><ele>39.0</ele><time>2026-03-22T07:10:20Z</time></trkpt><trkpt lat="45.1054611967044" lon="9.987204038750285"><ele>38.85714285714286</ele><time>2026-03-22T07:10:21Z</time></trkpt><trkpt lat="45.10540696927734" lon="9.987141238528691"><ele>38.71428571428571</ele><time>2026-03-22T07:10:22Z</time></trkpt><trkpt lat="45.10535336827667" lon="9.987075558974484"><ele>38.57142857142857</ele><time>2026-03-22T07:10:23Z</time></trkpt><trkpt lat="45.105300523001155" lon="9.98701204858435"><ele>38.42857142857143</ele><time>2026-03-22T07:10:24Z</time></trkpt><trkpt lat="45.10524700192868" lon="9.986942823681305"><ele>38.28571428571429</ele><time>2026-03-22T07:10:25Z</time></trkpt><trkpt lat="45.105196445639024" lon="9.986873651521563"><ele>38.14285714285714</ele><time>2026-03-22T07:10:26Z</time></trkpt><trkpt lat="45.105147385479256" lon="9.986803563270618"><ele>38.0</ele><time>2026-03-22T07:10:27Z</time></trkpt><trkpt lat="45.1051007714967" lon="9.986730725639624"><ele>38.0</ele><time>2026-03-22T07:10:28Z</time></trkpt><trkpt lat="45.10505490310381" lon="9.986653726724523"><ele>38.0</ele><time>2026-03-22T07:10:29Z</time></trkpt><trkpt lat="45.10501030707907" lon="9.986576104023895"><ele>38.0</ele><time>2026-03-22T07:10:30Z</time></trkpt><trkpt lat="45.10496154479022" lon="9.986509769697497"><ele>38.0</ele><time>2026-03-22T07:10:31Z</time></trkpt><trkpt lat="45.10490344240758" lon="9.9864560322287"><ele>38.0</ele><time>2026-03-22T07:10:32Z</time></trkpt><trkpt lat="45.10483592937554" lon="9.98641755167018"><ele>38.0</ele><time>2026-03-22T07:10:33Z</time></trkpt><trkpt lat="45.104767113548036" lon="9.986392841834988"><ele>38.0</ele><time>2026-03-22T07:10:34Z</time></trkpt><trkpt lat="45.10470095261898" lon="9.986348433327594"><ele>38.0</ele><time>2026-03-22T07:10:34.999Z</time></trkpt><trkpt lat="45.10464262689554" lon="9.986288857795037"><ele>38.0</ele><time>2026-03-22T07:10:35.999Z</time></trkpt><trkpt lat="45.1045882198896" lon="9.986218984424898"><ele>38.0</ele><time>2026-03-22T07:10:36.999Z</time></trkpt><trkpt lat="45.10452886391432" lon="9.986152573863338"><ele>38.0</ele><time>2026-03-22T07:10:37.999Z</time></trkpt><trkpt lat="45.10447176698463" lon="9.986086322642496"><ele>38.0</ele><time>2026-03-22T07:10:38.999Z</time></trkpt><trkpt lat="45.104417041427325" lon="9.986016529600004"><ele>38.0</ele><time>2026-03-22T07:10:39.999Z</time></trkpt><trkpt lat="45.10436071029891" lon="9.985951854393353"><ele>38.0</ele><time>2026-03-22T07:10:40.999Z</time></trkpt><trkpt lat="45.10430243510412" lon="9.985884648358224"><ele>37.857142857142854</ele><time>2026-03-22T07:10:41.999Z</time></trkpt><trkpt lat="45.10424471628213" lon="9.98581365272809"><ele>37.714285714285715</ele><time>2026-03-22T07:10:42.999Z</time></trkpt><trkpt lat="45.10418507768981" lon="9.98574607406836"><ele>37.57142857142857</ele><time>2026-03-22T07:10:43.999Z</time></trkpt><trkpt lat="45.104126979924104" lon="9.985679650407882"><ele>37.42857142857143</ele><time>2026-03-22T07:10:44.999Z</time></trkpt><trkpt lat="45.10406925576071" lon="9.985616839963335"><ele>37.285714285714285</ele><time>2026-03-22T07:10:45.999Z</time></trkpt><trkpt lat="45.10401090614642" lon="9.985552567438086"><ele>37.142857142857146</ele><time>2026-03-22T07:10:46.999Z</time></trkpt><trkpt lat="45.10395330323502" lon="9.985486982415896"><ele>37.0</ele><time>2026-03-22T07:10:47.999Z</time></trkpt><trkpt lat="45.10389494685095" lon="9.98542289025865"><ele>37.285714285714285</ele><time>2026-03-22T07:10:48.999Z</time></trkpt><trkpt lat="45.1038382389506" lon="9.985356376702523"><ele>37.57142857142857</ele><time>2026-03-22T07:10:49.999Z</time></trkpt><trkpt lat="45.103780965376025" lon="9.985290797493933"><ele>37.85714285714286</ele><time>2026-03-22T07:10:50.999Z</time></trkpt><trkpt lat="45.10372433304679" lon="9.985225584367447"><ele>38.14285714285714</ele><time>2026-03-22T07:10:51.999Z</time></trkpt><trkpt lat="45.10366714343703" lon="9.985159009867887"><ele>38.42857142857142</ele><time>2026-03-22T07:10:52.999Z</time></trkpt><trkpt lat="45.103612984881586" lon="9.98509594896339"><ele>38.714285714285715</ele><time>2026-03-22T07:10:53.999Z</time></trkpt><trkpt lat="45.10355441866828" lon="9.98502690675691"><ele>39.0</ele><time>2026-03-22T07:10:54.999Z</time></trkpt><trkpt lat="45.103495951979745" lon="9.984959415996437"><ele>39.0</ele><time>2026-03-22T07:10:55.999Z</time></trkpt><trkpt lat="45.10344036694391" lon="9.984896386490274"><ele>39.0</ele><time>2026-03-22T07:10:56.999Z</time></trkpt><trkpt lat="45.10338322815055" lon="9.984829517057214"><ele>39.0</ele><time>2026-03-22T07:10:57.999Z</time></trkpt><trkpt lat="45.103325617581746" lon="9.984765453134065"><ele>39.0</ele><time>2026-03-22T07:10:58.999Z</time></trkpt><trkpt lat="45.103267976020085" lon="9.984699653474973"><ele>39.0</ele><time>2026-03-22T07:10:59.999Z</time></trkpt><trkpt lat="45.10321141993068" lon="9.984636533231008"><ele>39.0</ele><time>2026-03-22T07:11:00.999Z</time></trkpt><trkpt lat="45.103152304818984" lon="9.984571149517567"><ele>39.0</ele><time>2026-03-22T07:11:01.999Z</time></trkpt><trkpt lat="45.103094275047795" lon="9.984507401601778"><ele>39.0</ele><time>2026-03-22T07:11:02.999Z</time></trkpt><trkpt lat="45.103035489856154" lon="9.984440491018708"><ele>39.0</ele><time>2026-03-22T07:11:03.999Z</time></trkpt><trkpt lat="45.102979501512955" lon="9.984374248942395"><ele>39.0</ele><time>2026-03-22T07:11:04.999Z</time></trkpt><trkpt lat="45.10292124975902" lon="9.984309450028796"><ele>39.0</ele><time>2026-03-22T07:11:05.999Z</time></trkpt><trkpt lat="45.10286208275177" lon="9.984242598221913"><ele>39.0</ele><time>2026-03-22T07:11:06.999Z</time></trkpt><trkpt lat="45.10280389311961" lon="9.984177923629522"><ele>39.0</ele><time>2026-03-22T07:11:07.999Z</time></trkpt><trkpt lat="45.10274525220371" lon="9.984109159154803"><ele>39.0</ele><time>2026-03-22T07:11:08.999Z</time></trkpt><trkpt lat="45.10268705682489" lon="9.98404688318189"><ele>39.0</ele><time>2026-03-22T07:11:09.999Z</time></trkpt><trkpt lat="45.10262989300382" lon="9.983979381758525"><ele>39.0</ele><time>2026-03-22T07:11:10.999Z</time></trkpt><trkpt lat="45.102572243173526" lon="9.983915781778718"><ele>39.0</ele><time>2026-03-22T07:11:11.999Z</time></trkpt><trkpt lat="45.10251434190917" lon="9.983847185393078"><ele>39.0</ele><time>2026-03-22T07:11:12.999Z</time></trkpt><trkpt lat="45.10245728603888" lon="9.98378386425335"><ele>39.0</ele><time>2026-03-22T07:11:13.999Z</time></trkpt><trkpt lat="45.102400174410015" lon="9.983716821439632"><ele>39.0</ele><time>2026-03-22T07:11:14.999Z</time></trkpt><trkpt lat="45.10234340039773" lon="9.98365015163856"><ele>39.0</ele><time>2026-03-22T07:11:15.999Z</time></trkpt><trkpt lat="45.10228499091462" lon="9.983584139248908"><ele>39.166666666666664</ele><time>2026-03-22T07:11:16.999Z</time></trkpt><trkpt lat="45.10222480115115" lon="9.983518992916775"><ele>39.333333333333336</ele><time>2026-03-22T07:11:17.999Z</time></trkpt><trkpt lat="45.10216440885249" lon="9.983455289484601"><ele>39.5</ele><time>2026-03-22T07:11:18.999Z</time></trkpt><trkpt lat="45.102104216538564" lon="9.983396416573255"><ele>39.66666666666667</ele><time>2026-03-22T07:11:19.999Z</time></trkpt><trkpt lat="45.102042357063965" lon="9.983338859512036"><ele>39.833333333333336</ele><time>2026-03-22T07:11:20.999Z</time></trkpt><trkpt lat="45.10197547976111" lon="9.983287248080233"><ele>40.0</ele><time>2026-03-22T07:11:21.999Z</time></trkpt><trkpt lat="45.10190406365493" lon="9.983252831049036"><ele>40.0</ele><time>2026-03-22T07:11:22.999Z</time></trkpt><trkpt lat="45.101829901238915" lon="9.98323022476925"><ele>40.0</ele><time>2026-03-22T07:11:23.999Z</time></trkpt><trkpt lat="45.101754462446536" lon="9.983221931262133"><ele>40.0</ele><time>2026-03-22T07:11:24.999Z</time></trkpt><trkpt lat="45.10167933625204" lon="9.983224529562518"><ele>40.0</ele><time>2026-03-22T07:11:25.999Z</time></trkpt><trkpt lat="45.101605160916115" lon="9.983242610230485"><ele>40.0</ele><time>2026-03-22T07:11:26.999Z</time></trkpt><trkpt lat="45.10153440933756" lon="9.983274489887147"><ele>40.0</ele><time>2026-03-22T07:11:27.999Z</time></trkpt><trkpt lat="45.10146527517761" lon="9.983319651488296"><ele>39.57142857142857</ele><time>2026-03-22T07:11:28.999Z</time></trkpt><trkpt lat="45.10139969397483" lon="9.983372579300786"><ele>39.142857142857146</ele><time>2026-03-22T07:11:29.999Z</time></trkpt><trkpt lat="45.10133842765371" lon="9.983434017860318"><ele>38.714285714285715</ele><time>2026-03-22T07:11:30.999Z</time></trkpt><trkpt lat="45.101285672206906" lon="9.983505540671233"><ele>38.285714285714285</ele><time>2026-03-22T07:11:31.999Z</time></trkpt><trkpt lat="45.10123644639625" lon="9.983581648377108"><ele>37.857142857142854</ele><time>2026-03-22T07:11:32.999Z</time></trkpt><trkpt lat="45.101193317952756" lon="9.98366459797778"><ele>37.42857142857143</ele><time>2026-03-22T07:11:33.999Z</time></trkpt><trkpt lat="45.10115551435048" lon="9.983750766221913"><ele>37.0</ele><time>2026-03-22T07:11:34.998Z</time></trkpt><trkpt lat="45.10111643980149" lon="9.98383743676296"><ele>37.0</ele><time>2026-03-22T07:11:35.998Z</time></trkpt><trkpt lat="45.101079891771775" lon="9.983922305062492"><ele>37.0</ele><time>2026-03-22T07:11:36.998Z</time></trkpt><trkpt lat="45.10104046219693" lon="9.98400642362583"><ele>37.0</ele><time>2026-03-22T07:11:37.998Z</time></trkpt><trkpt lat="45.10100235380962" lon="9.984090478559065"><ele>37.0</ele><time>2026-03-22T07:11:38.998Z</time></trkpt><trkpt lat="45.10096442877316" lon="9.98417064785383"><ele>37.0</ele><time>2026-03-22T07:11:39.998Z</time></trkpt><trkpt lat="45.100927075130755" lon="9.984255318764653"><ele>37.0</ele><time>2026-03-22T07:11:40.998Z</time></trkpt><trkpt lat="45.10089241522265" lon="9.984333246745656"><ele>37.0</ele><time>2026-03-22T07:11:41.998Z</time></trkpt><trkpt lat="45.1008566856676" lon="9.984413434422775"><ele>37.4</ele><time>2026-03-22T07:11:42.998Z</time></trkpt><trkpt lat="45.100821825973355" lon="9.984489718904998"><ele>37.800000000000004</ele><time>2026-03-22T07:11:43.998Z</time></trkpt><trkpt lat="45.10075607171645" lon="9.98463665403573"><ele>38.2</ele><time>2026-03-22T07:11:45.998Z</time></trkpt><trkpt lat="45.10069748223379" lon="9.984776229458845"><ele>38.6</ele><time>2026-03-22T07:11:47.998Z</time></trkpt><trkpt lat="45.10063961321833" lon="9.984907370750598"><ele>39.0</ele><time>2026-03-22T07:11:49.998Z</time></trkpt><trkpt lat="45.100584418169475" lon="9.98502580958725"><ele>39.0</ele><time>2026-03-22T07:11:51.998Z</time></trkpt><trkpt lat="45.10053816182036" lon="9.985131644858175"><ele>39.0</ele><time>2026-03-22T07:11:53.998Z</time></trkpt><trkpt lat="45.10049688917151" lon="9.98523063580074"><ele>39.0</ele><time>2026-03-22T07:11:55.998Z</time></trkpt><trkpt lat="45.10045597276532" lon="9.985328047812333"><ele>39.0</ele><time>2026-03-22T07:11:58.998Z</time></trkpt><trkpt lat="45.10042142364566" lon="9.985413125457592"><ele>39.0</ele><time>2026-03-22T07:12:06Z</time></trkpt><trkpt lat="45.10038459343807" lon="9.985486108270795"><ele>39.0</ele><time>2026-03-22T07:12:14Z</time></trkpt><trkpt lat="45.10033794581381" lon="9.985574680235061"><ele>39.0</ele><time>2026-03-22T07:12:17Z</time></trkpt><trkpt lat="45.10030050577713" lon="9.985663818761273"><ele>39.0</ele><time>2026-03-22T07:12:19Z</time></trkpt><trkpt lat="45.10026000620203" lon="9.985768782149224"><ele>39.0</ele><time>2026-03-22T07:12:21Z</time></trkpt><trkpt lat="45.100204357308385" lon="9.98587988283884"><ele>39.0</ele><time>2026-03-22T07:12:23Z</time></trkpt><trkpt lat="45.10015017951721" lon="9.986002805958734"><ele>39.0</ele><time>2026-03-22T07:12:25Z</time></trkpt><trkpt lat="45.10009273137552" lon="9.986127289413597"><ele>39.0</ele><time>2026-03-22T07:12:27Z</time></trkpt><trkpt lat="45.10002508350392" lon="9.986263013819503"><ele>39.0</ele><time>2026-03-22T07:12:29Z</time></trkpt><trkpt lat="45.09995816587477" lon="9.986407977970396"><ele>39.0</ele><time>2026-03-22T07:12:31Z</time></trkpt><trkpt lat="45.09989489162444" lon="9.986543677743793"><ele>39.0</ele><time>2026-03-22T07:12:33Z</time></trkpt><trkpt lat="45.09982927139953" lon="9.986690299920914"><ele>39.25</ele><time>2026-03-22T07:12:35Z</time></trkpt><trkpt lat="45.09975611338995" lon="9.986831905489595"><ele>39.5</ele><time>2026-03-22T07:12:36.999Z</time></trkpt><trkpt lat="45.09968218718336" lon="9.986971468574254"><ele>39.75</ele><time>2026-03-22T07:12:38.999Z</time></trkpt><trkpt lat="45.09960513916725" lon="9.987108927714416"><ele>40.0</ele><time>2026-03-22T07:12:40.999Z</time></trkpt><trkpt lat="45.099525292935375" lon="9.987245464489005"><ele>40.0</ele><time>2026-03-22T07:12:42.999Z</time></trkpt><trkpt lat="45.09948507831404" lon="9.987316377340841"><ele>40.0</ele><time>2026-03-22T07:12:43.999Z</time></trkpt><trkpt lat="45.09940251051627" lon="9.987454558903744"><ele>40.0</ele><time>2026-03-22T07:12:45.999Z</time></trkpt><trkpt lat="45.09931687291128" lon="9.987583121879394"><ele>40.0</ele><time>2026-03-22T07:12:47.999Z</time></trkpt><trkpt lat="45.09923302943576" lon="9.987715575563005"><ele>40.0</ele><time>2026-03-22T07:12:49.999Z</time></trkpt><trkpt lat="45.09919062931146" lon="9.987786359383218"><ele>39.857142857142854</ele><time>2026-03-22T07:12:50.999Z</time></trkpt><trkpt lat="45.09914954444538" lon="9.987855112464262"><ele>39.714285714285715</ele><time>2026-03-22T07:12:51.999Z</time></trkpt><trkpt lat="45.09910602296691" lon="9.987926390738378"><ele>39.57142857142857</ele><time>2026-03-22T07:12:52.999Z</time></trkpt><trkpt lat="45.099059919953824" lon="9.987991103902889"><ele>39.42857142857143</ele><time>2026-03-22T07:12:53.999Z</time></trkpt><trkpt lat="45.09901439312035" lon="9.988060576766848"><ele>39.285714285714285</ele><time>2026-03-22T07:12:54.999Z</time></trkpt><trkpt lat="45.09897011322062" lon="9.988132235068756"><ele>39.142857142857146</ele><time>2026-03-22T07:12:55.999Z</time></trkpt><trkpt lat="45.09892396482323" lon="9.988204919326137"><ele>39.0</ele><time>2026-03-22T07:12:56.999Z</time></trkpt><trkpt lat="45.09887779725852" lon="9.988271065111054"><ele>39.0</ele><time>2026-03-22T07:12:57.999Z</time></trkpt><trkpt lat="45.098831633045336" lon="9.98834087600059"><ele>39.0</ele><time>2026-03-22T07:12:58.999Z</time></trkpt><trkpt lat="45.098782702236974" lon="9.98841140948886"><ele>39.0</ele><time>2026-03-22T07:12:59.999Z</time></trkpt><trkpt lat="45.09873490972844" lon="9.988483700436912"><ele>39.0</ele><time>2026-03-22T07:13:00.999Z</time></trkpt><trkpt lat="45.098687740993405" lon="9.988554785735115"><ele>39.0</ele><time>2026-03-22T07:13:01.999Z</time></trkpt><trkpt lat="45.098640580214465" lon="9.988628945583544"><ele>39.0</ele><time>2026-03-22T07:13:02.999Z</time></trkpt><trkpt lat="45.09859323462442" lon="9.988703485089138"><ele>39.0</ele><time>2026-03-22T07:13:03.999Z</time></trkpt><trkpt lat="45.09854326919756" lon="9.9887757332678"><ele>39.0</ele><time>2026-03-22T07:13:04.999Z</time></trkpt><trkpt lat="45.09849749500871" lon="9.988846726190811"><ele>39.0</ele><time>2026-03-22T07:13:05.999Z</time></trkpt><trkpt lat="45.098450896805545" lon="9.98892180919252"><ele>39.0</ele><time>2026-03-22T07:13:06.999Z</time></trkpt><trkpt lat="45.09840290113474" lon="9.988992427937783"><ele>39.0</ele><time>2026-03-22T07:13:07.999Z</time></trkpt><trkpt lat="45.098357108049385" lon="9.989066111666936"><ele>39.0</ele><time>2026-03-22T07:13:08.999Z</time></trkpt><trkpt lat="45.09831052812683" lon="9.989141214083512"><ele>39.0</ele><time>2026-03-22T07:13:09.999Z</time></trkpt><trkpt lat="45.098265954466235" lon="9.98921337563618"><ele>39.0</ele><time>2026-03-22T07:13:10.999Z</time></trkpt><trkpt lat="45.09822261719163" lon="9.989288056432242"><ele>38.85714285714286</ele><time>2026-03-22T07:13:11.999Z</time></trkpt><trkpt lat="45.09817837723092" lon="9.989359825227655"><ele>38.71428571428571</ele><time>2026-03-22T07:13:12.999Z</time></trkpt><trkpt lat="45.098132974009935" lon="9.98943253621977"><ele>38.57142857142857</ele><time>2026-03-22T07:13:13.999Z</time></trkpt><trkpt lat="45.098086487493525" lon="9.989505939477992"><ele>38.42857142857143</ele><time>2026-03-22T07:13:14.999Z</time></trkpt><trkpt lat="45.098039047764395" lon="9.989574094718172"><ele>38.28571428571429</ele><time>2026-03-22T07:13:15.999Z</time></trkpt><trkpt lat="45.09798885116901" lon="9.98963883137447"><ele>38.14285714285714</ele><time>2026-03-22T07:13:16.999Z</time></trkpt><trkpt lat="45.09793607048599" lon="9.989698214367817"><ele>38.0</ele><time>2026-03-22T07:13:17.999Z</time></trkpt><trkpt lat="45.097879337171136" lon="9.989753555765745"><ele>38.0</ele><time>2026-03-22T07:13:18.999Z</time></trkpt><trkpt lat="45.0978196670254" lon="9.98979781761341"><ele>38.0</ele><time>2026-03-22T07:13:19.999Z</time></trkpt><trkpt lat="45.09775790768124" lon="9.989833999298828"><ele>38.0</ele><time>2026-03-22T07:13:20.999Z</time></trkpt><trkpt lat="45.09769394302272" lon="9.98986167628304"><ele>38.0</ele><time>2026-03-22T07:13:21.999Z</time></trkpt><trkpt lat="45.09762884344407" lon="9.989891886003736"><ele>38.0</ele><time>2026-03-22T07:13:22.999Z</time></trkpt><trkpt lat="45.097562758175634" lon="9.989918019150048"><ele>38.0</ele><time>2026-03-22T07:13:23.999Z</time></trkpt><trkpt lat="45.097496811103866" lon="9.98994173046162"><ele>38.0</ele><time>2026-03-22T07:13:24.999Z</time></trkpt><trkpt lat="45.09743093934242" lon="9.989969774305438"><ele>37.857142857142854</ele><time>2026-03-22T07:13:25.999Z</time></trkpt><trkpt lat="45.09736410922353" lon="9.989994082057178"><ele>37.714285714285715</ele><time>2026-03-22T07:13:26.999Z</time></trkpt><trkpt lat="45.09730010251348" lon="9.990024630749641"><ele>37.57142857142857</ele><time>2026-03-22T07:13:27.999Z</time></trkpt><trkpt lat="45.097232819069305" lon="9.990054029474633"><ele>37.42857142857143</ele><time>2026-03-22T07:13:28.999Z</time></trkpt><trkpt lat="45.097165737382525" lon="9.990077179066999"><ele>37.285714285714285</ele><time>2026-03-22T07:13:29.999Z</time></trkpt><trkpt lat="45.09709765803049" lon="9.990104245801888"><ele>37.142857142857146</ele><time>2026-03-22T07:13:30.999Z</time></trkpt><trkpt lat="45.09703214608719" lon="9.990123406458457"><ele>37.0</ele><time>2026-03-22T07:13:31.999Z</time></trkpt><trkpt lat="45.09696214472551" lon="9.990146452486277"><ele>37.0</ele><time>2026-03-22T07:13:32.999Z</time></trkpt><trkpt lat="45.09689193269385" lon="9.990167872463775"><ele>37.0</ele><time>2026-03-22T07:13:33.999Z</time></trkpt><trkpt lat="45.0968207421982" lon="9.990188116042543"><ele>37.0</ele><time>2026-03-22T07:13:34.999Z</time></trkpt><trkpt lat="45.0967545154414" lon="9.99020698831351"><ele>37.0</ele><time>2026-03-22T07:13:35.999Z</time></trkpt><trkpt lat="45.096682870850465" lon="9.990224688587332"><ele>37.0</ele><time>2026-03-22T07:13:36.998Z</time></trkpt><trkpt lat="45.09661329902639" lon="9.990245813805625"><ele>37.0</ele><time>2026-03-22T07:13:37.998Z</time></trkpt><trkpt lat="45.09654542353687" lon="9.990266068490746"><ele>37.0</ele><time>2026-03-22T07:13:38.998Z</time></trkpt><trkpt lat="45.09647412994374" lon="9.990286387147385"><ele>37.285714285714285</ele><time>2026-03-22T07:13:39.998Z</time></trkpt><trkpt lat="45.096402935297995" lon="9.990305240905741"><ele>37.57142857142857</ele><time>2026-03-22T07:13:40.998Z</time></trkpt><trkpt lat="45.096333825516254" lon="9.99032158697063"><ele>37.85714285714286</ele><time>2026-03-22T07:13:41.998Z</time></trkpt><trkpt lat="45.09626434660934" lon="9.990330708428269"><ele>38.14285714285714</ele><time>2026-03-22T07:13:42.998Z</time></trkpt><trkpt lat="45.096196060804566" lon="9.99033775174851"><ele>38.42857142857142</ele><time>2026-03-22T07:13:43.998Z</time></trkpt><trkpt lat="45.09612772361168" lon="9.990334432768178"><ele>38.714285714285715</ele><time>2026-03-22T07:13:44.998Z</time></trkpt><trkpt lat="45.09605790110363" lon="9.990343723009275"><ele>39.0</ele><time>2026-03-22T07:13:45.998Z</time></trkpt><trkpt lat="45.09598809649101" lon="9.990365759145291"><ele>39.0</ele><time>2026-03-22T07:13:46.998Z</time></trkpt><trkpt lat="45.0959206819378" lon="9.990390177793728"><ele>39.0</ele><time>2026-03-22T07:13:47.998Z</time></trkpt><trkpt lat="45.095848863985424" lon="9.990410952276804"><ele>39.0</ele><time>2026-03-22T07:13:48.998Z</time></trkpt><trkpt lat="45.095779595931695" lon="9.990436191854535"><ele>39.0</ele><time>2026-03-22T07:13:49.998Z</time></trkpt><trkpt lat="45.09570689005057" lon="9.990455257442596"><ele>39.0</ele><time>2026-03-22T07:13:50.998Z</time></trkpt><trkpt lat="45.09563654124569" lon="9.990477359943029"><ele>39.0</ele><time>2026-03-22T07:13:51.998Z</time></trkpt><trkpt lat="45.09556301659939" lon="9.990499346227034"><ele>39.0</ele><time>2026-03-22T07:13:52.998Z</time></trkpt><trkpt lat="45.095489436040985" lon="9.990522144021645"><ele>39.142857142857146</ele><time>2026-03-22T07:13:53.998Z</time></trkpt><trkpt lat="45.095417342320346" lon="9.990546909677196"><ele>39.285714285714285</ele><time>2026-03-22T07:13:54.998Z</time></trkpt><trkpt lat="45.095346749149215" lon="9.990574001217636"><ele>39.42857142857143</ele><time>2026-03-22T07:13:55.998Z</time></trkpt><trkpt lat="45.0952745757277" lon="9.990603460204124"><ele>39.57142857142857</ele><time>2026-03-22T07:13:56.998Z</time></trkpt><trkpt lat="45.09520390399984" lon="9.990631282070625"><ele>39.714285714285715</ele><time>2026-03-22T07:13:57.998Z</time></trkpt><trkpt lat="45.0951323699294" lon="9.990654291020986"><ele>39.857142857142854</ele><time>2026-03-22T07:13:58.998Z</time></trkpt><trkpt lat="45.095059421003775" lon="9.99067717892141"><ele>40.0</ele><time>2026-03-22T07:13:59.998Z</time></trkpt><trkpt lat="45.09498518868775" lon="9.990691283822944"><ele>39.333333333333336</ele><time>2026-03-22T07:14:00.998Z</time></trkpt><trkpt lat="45.09491054537876" lon="9.99069705845505"><ele>38.66666666666667</ele><time>2026-03-22T07:14:01.998Z</time></trkpt><trkpt lat="45.0948341519328" lon="9.99070124691569"><ele>38.0</ele><time>2026-03-22T07:14:02.998Z</time></trkpt><trkpt lat="45.09475952575014" lon="9.990701092536042"><ele>37.333333333333336</ele><time>2026-03-22T07:14:03.998Z</time></trkpt><trkpt lat="45.094684519800545" lon="9.99070727228385"><ele>36.666666666666664</ele><time>2026-03-22T07:14:04.998Z</time></trkpt><trkpt lat="45.09460895875078" lon="9.990708522556394"><ele>36.0</ele><time>2026-03-22T07:14:05.998Z</time></trkpt><trkpt lat="45.094535801554116" lon="9.990711576017395"><ele>36.00000000000001</ele><time>2026-03-22T07:14:06.998Z</time></trkpt><trkpt lat="45.09446257276151" lon="9.990717350399573"><ele>36.0</ele><time>2026-03-22T07:14:08Z</time></trkpt><trkpt lat="45.0943895700026" lon="9.990729652679006"><ele>36.0</ele><time>2026-03-22T07:14:09Z</time></trkpt><trkpt lat="45.09431627664728" lon="9.99074872975869"><ele>36.0</ele><time>2026-03-22T07:14:10Z</time></trkpt><trkpt lat="45.09424450672429" lon="9.990780360670861"><ele>36.0</ele><time>2026-03-22T07:14:11Z</time></trkpt><trkpt lat="45.094173457040974" lon="9.990821455701019"><ele>36.00000000000001</ele><time>2026-03-22T07:14:12Z</time></trkpt><trkpt lat="45.09410616266643" lon="9.990869433543915"><ele>36.0</ele><time>2026-03-22T07:14:13Z</time></trkpt><trkpt lat="45.09403913853966" lon="9.99092245300949"><ele>36.333333333333336</ele><time>2026-03-22T07:14:14Z</time></trkpt><trkpt lat="45.09397343089757" lon="9.990978911394912"><ele>36.666666666666664</ele><time>2026-03-22T07:14:15Z</time></trkpt><trkpt lat="45.09391095438374" lon="9.99104006716726"><ele>37.0</ele><time>2026-03-22T07:14:16Z</time></trkpt><trkpt lat="45.09384748819441" lon="9.991105672182757"><ele>37.33333333333333</ele><time>2026-03-22T07:14:17Z</time></trkpt><trkpt lat="45.09378751808114" lon="9.991170978098191"><ele>37.666666666666664</ele><time>2026-03-22T07:14:18Z</time></trkpt><trkpt lat="45.09372723159644" lon="9.991232591889762"><ele>38.0</ele><time>2026-03-22T07:14:19Z</time></trkpt><trkpt lat="45.09366454198127" lon="9.991289412392023"><ele>38.0</ele><time>2026-03-22T07:14:20Z</time></trkpt><trkpt lat="45.09360009630356" lon="9.991345348317084"><ele>38.0</ele><time>2026-03-22T07:14:21Z</time></trkpt><trkpt lat="45.09353637486004" lon="9.991398206422204"><ele>38.0</ele><time>2026-03-22T07:14:22Z</time></trkpt><trkpt lat="45.09347228299954" lon="9.991453825823891"><ele>38.0</ele><time>2026-03-22T07:14:23Z</time></trkpt><trkpt lat="45.093409300788416" lon="9.991508155535772"><ele>38.0</ele><time>2026-03-22T07:14:24Z</time></trkpt><trkpt lat="45.09334392333569" lon="9.99156084628061"><ele>38.0</ele><time>2026-03-22T07:14:25Z</time></trkpt><trkpt lat="45.09327906871985" lon="9.99161060877464"><ele>38.0</ele><time>2026-03-22T07:14:26Z</time></trkpt><trkpt lat="45.0932155981014" lon="9.991656102058998"><ele>37.857142857142854</ele><time>2026-03-22T07:14:27Z</time></trkpt><trkpt lat="45.093153393781854" lon="9.991693416487493"><ele>37.714285714285715</ele><time>2026-03-22T07:14:28Z</time></trkpt><trkpt lat="45.09309105061023" lon="9.99172800670136"><ele>37.57142857142857</ele><time>2026-03-22T07:14:29Z</time></trkpt><trkpt lat="45.09302426681919" lon="9.991762287763345"><ele>37.42857142857143</ele><time>2026-03-22T07:14:30Z</time></trkpt><trkpt lat="45.092955237031326" lon="9.991793976053808"><ele>37.285714285714285</ele><time>2026-03-22T07:14:31Z</time></trkpt><trkpt lat="45.09288520860219" lon="9.991820104615252"><ele>37.142857142857146</ele><time>2026-03-22T07:14:32Z</time></trkpt><trkpt lat="45.09281446293059" lon="9.991846849982574"><ele>37.0</ele><time>2026-03-22T07:14:33Z</time></trkpt><trkpt lat="45.092744114540366" lon="9.991873172128455"><ele>37.0</ele><time>2026-03-22T07:14:34Z</time></trkpt><trkpt lat="45.092672076410416" lon="9.991892137646403"><ele>37.0</ele><time>2026-03-22T07:14:35Z</time></trkpt><trkpt lat="45.092599581868775" lon="9.99190679603774"><ele>37.0</ele><time>2026-03-22T07:14:36Z</time></trkpt><trkpt lat="45.09252504958865" lon="9.991918904981333"><ele>37.0</ele><time>2026-03-22T07:14:37Z</time></trkpt><trkpt lat="45.09245254931988" lon="9.9919304335371"><ele>37.0</ele><time>2026-03-22T07:14:38Z</time></trkpt><trkpt lat="45.09237887286451" lon="9.991938894694314"><ele>37.0</ele><time>2026-03-22T07:14:39Z</time></trkpt><trkpt lat="45.09230344216592" lon="9.991938431761882"><ele>37.0</ele><time>2026-03-22T07:14:39.999Z</time></trkpt><trkpt lat="45.09222866605278" lon="9.991934324555176"><ele>37.16666666666667</ele><time>2026-03-22T07:14:40.999Z</time></trkpt><trkpt lat="45.09215222373923" lon="9.991930355689883"><ele>37.333333333333336</ele><time>2026-03-22T07:14:41.999Z</time></trkpt><trkpt lat="45.092076928464365" lon="9.991921082532178"><ele>37.5</ele><time>2026-03-22T07:14:42.999Z</time></trkpt><trkpt lat="45.09200131679151" lon="9.991909491436434"><ele>37.666666666666664</ele><time>2026-03-22T07:14:43.999Z</time></trkpt><trkpt lat="45.09192836384597" lon="9.99189310982645"><ele>37.83333333333333</ele><time>2026-03-22T07:14:44.999Z</time></trkpt><trkpt lat="45.0918522431242" lon="9.991871975987326"><ele>38.0</ele><time>2026-03-22T07:14:45.999Z</time></trkpt><trkpt lat="45.09177931852792" lon="9.991852452701524"><ele>38.0</ele><time>2026-03-22T07:14:46.999Z</time></trkpt><trkpt lat="45.091703817375986" lon="9.991833939578822"><ele>38.0</ele><time>2026-03-22T07:14:47.999Z</time></trkpt><trkpt lat="45.091630564079246" lon="9.99181625211994"><ele>38.0</ele><time>2026-03-22T07:14:48.999Z</time></trkpt><trkpt lat="45.09155617311588" lon="9.991792306244959"><ele>38.0</ele><time>2026-03-22T07:14:49.999Z</time></trkpt><trkpt lat="45.09148040043879" lon="9.991773811088631"><ele>38.0</ele><time>2026-03-22T07:14:50.999Z</time></trkpt><trkpt lat="45.09140434188008" lon="9.99175607173499"><ele>38.0</ele><time>2026-03-22T07:14:51.999Z</time></trkpt><trkpt lat="45.09133008227652" lon="9.991739192406255"><ele>37.83333333333333</ele><time>2026-03-22T07:14:52.999Z</time></trkpt><trkpt lat="45.09125559737349" lon="9.991720086775798"><ele>37.666666666666664</ele><time>2026-03-22T07:14:53.999Z</time></trkpt><trkpt lat="45.091181436211464" lon="9.991702742020061"><ele>37.5</ele><time>2026-03-22T07:14:54.999Z</time></trkpt><trkpt lat="45.091107139644535" lon="9.991687655238184"><ele>37.333333333333336</ele><time>2026-03-22T07:14:55.999Z</time></trkpt><trkpt lat="45.09103295324006" lon="9.991673292529155"><ele>37.16666666666667</ele><time>2026-03-22T07:14:56.999Z</time></trkpt><trkpt lat="45.09095800189118" lon="9.99165790597295"><ele>37.0</ele><time>2026-03-22T07:14:57.999Z</time></trkpt><trkpt lat="45.090883546935586" lon="9.991642329191057"><ele>36.833333333333336</ele><time>2026-03-22T07:14:58.999Z</time></trkpt><trkpt lat="45.090809196800045" lon="9.99162772916616"><ele>36.66666666666667</ele><time>2026-03-22T07:14:59.999Z</time></trkpt><trkpt lat="45.09073404811767" lon="9.991611924770403"><ele>36.5</ele><time>2026-03-22T07:15:00.999Z</time></trkpt><trkpt lat="45.090659699668194" lon="9.991598246850817"><ele>36.333333333333336</ele><time>2026-03-22T07:15:01.999Z</time></trkpt><trkpt lat="45.09058305069972" lon="9.991580967636075"><ele>36.166666666666664</ele><time>2026-03-22T07:15:02.999Z</time></trkpt><trkpt lat="45.090506961477836" lon="9.991565334114044"><ele>36.0</ele><time>2026-03-22T07:15:03.999Z</time></trkpt><trkpt lat="45.09043114909902" lon="9.991549366560879"><ele>36.5</ele><time>2026-03-22T07:15:04.999Z</time></trkpt><trkpt lat="45.09035595586883" lon="9.99152825933245"><ele>37.0</ele><time>2026-03-22T07:15:05.999Z</time></trkpt><trkpt lat="45.090289655739035" lon="9.99149158809484"><ele>37.5</ele><time>2026-03-22T07:15:06.999Z</time></trkpt><trkpt lat="45.09021986138999" lon="9.99145466865"><ele>38.0</ele><time>2026-03-22T07:15:07.999Z</time></trkpt><trkpt lat="45.090142982981895" lon="9.991431982907516"><ele>38.5</ele><time>2026-03-22T07:15:08.999Z</time></trkpt><trkpt lat="45.09006675252301" lon="9.991428476322335"><ele>39.0</ele><time>2026-03-22T07:15:09.999Z</time></trkpt><trkpt lat="45.089989097560434" lon="9.991440511688554"><ele>38.833333333333336</ele><time>2026-03-22T07:15:10.999Z</time></trkpt><trkpt lat="45.089913347542755" lon="9.991442148200452"><ele>38.666666666666664</ele><time>2026-03-22T07:15:11.999Z</time></trkpt><trkpt lat="45.08983561515578" lon="9.99142421133981"><ele>38.5</ele><time>2026-03-22T07:15:12.999Z</time></trkpt><trkpt lat="45.08976108713356" lon="9.991401322696003"><ele>38.33333333333333</ele><time>2026-03-22T07:15:13.999Z</time></trkpt><trkpt lat="45.089685218913914" lon="9.991380960563946"><ele>38.166666666666664</ele><time>2026-03-22T07:15:14.999Z</time></trkpt><trkpt lat="45.08961004554996" lon="9.99135821221656"><ele>38.0</ele><time>2026-03-22T07:15:15.999Z</time></trkpt><trkpt lat="45.08953513788756" lon="9.991332924574282"><ele>38.0</ele><time>2026-03-22T07:15:16.999Z</time></trkpt><trkpt lat="45.089459982010354" lon="9.99130981536679"><ele>38.0</ele><time>2026-03-22T07:15:17.999Z</time></trkpt><trkpt lat="45.08938558825767" lon="9.99128042079073"><ele>38.0</ele><time>2026-03-22T07:15:18.999Z</time></trkpt><trkpt lat="45.08931186817835" lon="9.991255092958616"><ele>38.0</ele><time>2026-03-22T07:15:19.999Z</time></trkpt><trkpt lat="45.089237949709094" lon="9.99123011465216"><ele>38.0</ele><time>2026-03-22T07:15:20.999Z</time></trkpt><trkpt lat="45.08916510025582" lon="9.991204312724516"><ele>38.0</ele><time>2026-03-22T07:15:21.999Z</time></trkpt><trkpt lat="45.08909185156552" lon="9.991177663798636"><ele>38.0</ele><time>2026-03-22T07:15:22.999Z</time></trkpt><trkpt lat="45.089019345930645" lon="9.991150199354706"><ele>38.0</ele><time>2026-03-22T07:15:23.999Z</time></trkpt><trkpt lat="45.088947639607106" lon="9.99112104066038"><ele>38.0</ele><time>2026-03-22T07:15:24.999Z</time></trkpt><trkpt lat="45.088875484813116" lon="9.991083702182875"><ele>38.0</ele><time>2026-03-22T07:15:25.999Z</time></trkpt><trkpt lat="45.08880486203262" lon="9.991045307466075"><ele>38.0</ele><time>2026-03-22T07:15:26.999Z</time></trkpt><trkpt lat="45.088734640434424" lon="9.990996153983836"><ele>38.0</ele><time>2026-03-22T07:15:27.999Z</time></trkpt><trkpt lat="45.08866632892985" lon="9.990944464304857"><ele>38.0</ele><time>2026-03-22T07:15:28.999Z</time></trkpt><trkpt lat="45.088599680286556" lon="9.990885757268153"><ele>38.0</ele><time>2026-03-22T07:15:29.999Z</time></trkpt><trkpt lat="45.088533330558946" lon="9.99081948357211"><ele>38.0</ele><time>2026-03-22T07:15:30.999Z</time></trkpt><trkpt lat="45.088468439548876" lon="9.990752633888283"><ele>38.0</ele><time>2026-03-22T07:15:31.999Z</time></trkpt><trkpt lat="45.08840436381409" lon="9.990678548512326"><ele>38.0</ele><time>2026-03-22T07:15:32.999Z</time></trkpt><trkpt lat="45.088342962122795" lon="9.99060493830505"><ele>38.0</ele><time>2026-03-22T07:15:33.999Z</time></trkpt><trkpt lat="45.08827893528537" lon="9.990527897398765"><ele>37.5</ele><time>2026-03-22T07:15:34.999Z</time></trkpt><trkpt lat="45.0882167778956" lon="9.990452576749254"><ele>37.0</ele><time>2026-03-22T07:15:35.999Z</time></trkpt><trkpt lat="45.088152574934426" lon="9.990375348695745"><ele>36.5</ele><time>2026-03-22T07:15:36.999Z</time></trkpt><trkpt lat="45.08809180088831" lon="9.990297169804071"><ele>36.0</ele><time>2026-03-22T07:15:37.999Z</time></trkpt><trkpt lat="45.08802898257023" lon="9.990216803220447"><ele>35.5</ele><time>2026-03-22T07:15:38.999Z</time></trkpt><trkpt lat="45.08796523661576" lon="9.990143891695801"><ele>35.0</ele><time>2026-03-22T07:15:39.999Z</time></trkpt><trkpt lat="45.08790049333791" lon="9.990064772344102"><ele>35.166666666666664</ele><time>2026-03-22T07:15:40.998Z</time></trkpt><trkpt lat="45.08783795566334" lon="9.989986887682"><ele>35.33333333333333</ele><time>2026-03-22T07:15:41.998Z</time></trkpt><trkpt lat="45.087776365118245" lon="9.989913833003548"><ele>35.5</ele><time>2026-03-22T07:15:42.998Z</time></trkpt><trkpt lat="45.087715647918586" lon="9.989837128214806"><ele>35.666666666666664</ele><time>2026-03-22T07:15:43.998Z</time></trkpt><trkpt lat="45.08765375834973" lon="9.989763592124719"><ele>35.833333333333336</ele><time>2026-03-22T07:15:44.998Z</time></trkpt><trkpt lat="45.087592533347106" lon="9.98968909486258"><ele>36.0</ele><time>2026-03-22T07:15:45.998Z</time></trkpt><trkpt lat="45.087531783183245" lon="9.98961556448117"><ele>36.0</ele><time>2026-03-22T07:15:46.998Z</time></trkpt><trkpt lat="45.0874703430895" lon="9.989542976484186"><ele>36.0</ele><time>2026-03-22T07:15:47.998Z</time></trkpt><trkpt lat="45.08740937153674" lon="9.989468880939121"><ele>36.0</ele><time>2026-03-22T07:15:48.998Z</time></trkpt><trkpt lat="45.0873488442077" lon="9.989397511687356"><ele>36.0</ele><time>2026-03-22T07:15:49.998Z</time></trkpt><trkpt lat="45.0872899750537" lon="9.989325382060333"><ele>36.0</ele><time>2026-03-22T07:15:50.998Z</time></trkpt><trkpt lat="45.08723000907341" lon="9.989252531141748"><ele>36.0</ele><time>2026-03-22T07:15:51.998Z</time></trkpt><trkpt lat="45.087172628234164" lon="9.989180205567074"><ele>36.0</ele><time>2026-03-22T07:15:52.998Z</time></trkpt><trkpt lat="45.08711251142729" lon="9.989107026101138"><ele>36.0</ele><time>2026-03-22T07:15:53.998Z</time></trkpt><trkpt lat="45.087054074964186" lon="9.989034915458486"><ele>36.0</ele><time>2026-03-22T07:15:54.998Z</time></trkpt><trkpt lat="45.086994802374484" lon="9.988962642468033"><ele>36.0</ele><time>2026-03-22T07:15:55.998Z</time></trkpt><trkpt lat="45.08693469786344" lon="9.988890509002236"><ele>36.0</ele><time>2026-03-22T07:15:56.998Z</time></trkpt><trkpt lat="45.086875390783234" lon="9.988817426391902"><ele>36.0</ele><time>2026-03-22T07:15:57.998Z</time></trkpt><trkpt lat="45.086814611462586" lon="9.988745867996908"><ele>36.0</ele><time>2026-03-22T07:15:58.998Z</time></trkpt><trkpt lat="45.086754575983974" lon="9.988673098934148"><ele>36.0</ele><time>2026-03-22T07:15:59.998Z</time></trkpt><trkpt lat="45.086695370522094" lon="9.988601065198079"><ele>36.0</ele><time>2026-03-22T07:16:00.998Z</time></trkpt><trkpt lat="45.086635992777154" lon="9.988528984328685"><ele>36.0</ele><time>2026-03-22T07:16:01.998Z</time></trkpt><trkpt lat="45.08657619470282" lon="9.988455840575428"><ele>36.0</ele><time>2026-03-22T07:16:02.998Z</time></trkpt><trkpt lat="45.08651593764889" lon="9.98838522457132"><ele>36.0</ele><time>2026-03-22T07:16:03.998Z</time></trkpt><trkpt lat="45.086458387638075" lon="9.988312177383735"><ele>35.833333333333336</ele><time>2026-03-22T07:16:04.998Z</time></trkpt><trkpt lat="45.08639977555485" lon="9.988239131456908"><ele>35.666666666666664</ele><time>2026-03-22T07:16:05.998Z</time></trkpt><trkpt lat="45.086339475905994" lon="9.98816717503767"><ele>35.5</ele><time>2026-03-22T07:16:06.998Z</time></trkpt><trkpt lat="45.08627973886" lon="9.988095928144357"><ele>35.33333333333333</ele><time>2026-03-22T07:16:07.998Z</time></trkpt><trkpt lat="45.086220801484295" lon="9.988024415292175"><ele>35.166666666666664</ele><time>2026-03-22T07:16:08.998Z</time></trkpt><trkpt lat="45.0861613784926" lon="9.987953543411663"><ele>35.0</ele><time>2026-03-22T07:16:09.998Z</time></trkpt><trkpt lat="45.086100914586616" lon="9.987882106431101"><ele>35.0</ele><time>2026-03-22T07:16:10.998Z</time></trkpt><trkpt lat="45.08604028778269" lon="9.987806452365877"><ele>35.0</ele><time>2026-03-22T07:16:11.998Z</time></trkpt><trkpt lat="45.08598090704966" lon="9.98773546789626"><ele>35.0</ele><time>2026-03-22T07:16:12.998Z</time></trkpt><trkpt lat="45.08592068564257" lon="9.987662890709332"><ele>35.0</ele><time>2026-03-22T07:16:14Z</time></trkpt><trkpt lat="45.085861744536395" lon="9.98759246519964"><ele>35.0</ele><time>2026-03-22T07:16:15Z</time></trkpt><trkpt lat="45.0858023371554" lon="9.987521151692391"><ele>35.0</ele><time>2026-03-22T07:16:16Z</time></trkpt><trkpt lat="45.085743008296824" lon="9.987447261829526"><ele>35.0</ele><time>2026-03-22T07:16:17Z</time></trkpt><trkpt lat="45.08568561721349" lon="9.987375408016318"><ele>35.0</ele><time>2026-03-22T07:16:18Z</time></trkpt><trkpt lat="45.0856260139191" lon="9.987301488066421"><ele>35.0</ele><time>2026-03-22T07:16:19Z</time></trkpt><trkpt lat="45.08556581109343" lon="9.98722964006157"><ele>35.0</ele><time>2026-03-22T07:16:20Z</time></trkpt><trkpt lat="45.08550569428419" lon="9.98715717645883"><ele>35.0</ele><time>2026-03-22T07:16:21Z</time></trkpt><trkpt lat="45.08544641346294" lon="9.98708687466503"><ele>35.0</ele><time>2026-03-22T07:16:22Z</time></trkpt><trkpt lat="45.08538682441286" lon="9.987014586204499"><ele>35.0</ele><time>2026-03-22T07:16:23Z</time></trkpt><trkpt lat="45.08532667387018" lon="9.986945290911265"><ele>35.0</ele><time>2026-03-22T07:16:24Z</time></trkpt><trkpt lat="45.08526547523411" lon="9.986875753832164"><ele>35.0</ele><time>2026-03-22T07:16:25Z</time></trkpt><trkpt lat="45.08520285198333" lon="9.986811123693448"><ele>35.0</ele><time>2026-03-22T07:16:26Z</time></trkpt><trkpt lat="45.08513853399951" lon="9.986749829459688"><ele>35.0</ele><time>2026-03-22T07:16:27Z</time></trkpt><trkpt lat="45.08506989112035" lon="9.986689576558723"><ele>35.0</ele><time>2026-03-22T07:16:28Z</time></trkpt><trkpt lat="45.08500003721677" lon="9.986639143682993"><ele>35.0</ele><time>2026-03-22T07:16:29Z</time></trkpt><trkpt lat="45.0849273361214" lon="9.986592905258409"><ele>35.0</ele><time>2026-03-22T07:16:30Z</time></trkpt><trkpt lat="45.08485313857899" lon="9.986553937634877"><ele>35.0</ele><time>2026-03-22T07:16:31Z</time></trkpt><trkpt lat="45.084778676176555" lon="9.986517448884104"><ele>35.0</ele><time>2026-03-22T07:16:32Z</time></trkpt><trkpt lat="45.08470280880192" lon="9.98648594231617"><ele>35.0</ele><time>2026-03-22T07:16:33Z</time></trkpt><trkpt lat="45.08462692896175" lon="9.986460751486206"><ele>35.0</ele><time>2026-03-22T07:16:34Z</time></trkpt><trkpt lat="45.08454833528402" lon="9.986441856954418"><ele>35.0</ele><time>2026-03-22T07:16:35Z</time></trkpt><trkpt lat="45.08447043244678" lon="9.986429818154727"><ele>35.0</ele><time>2026-03-22T07:16:36Z</time></trkpt><trkpt lat="45.08439375957539" lon="9.986423881063791"><ele>35.0</ele><time>2026-03-22T07:16:37Z</time></trkpt><trkpt lat="45.08431680890587" lon="9.98642455922793"><ele>35.0</ele><time>2026-03-22T07:16:38Z</time></trkpt><trkpt lat="45.084238248662324" lon="9.98643140145793"><ele>35.0</ele><time>2026-03-22T07:16:39Z</time></trkpt><trkpt lat="45.08416110164813" lon="9.986441403298198"><ele>35.0</ele><time>2026-03-22T07:16:40Z</time></trkpt><trkpt lat="45.084083892414945" lon="9.986461235634755"><ele>35.33333333333333</ele><time>2026-03-22T07:16:41Z</time></trkpt><trkpt lat="45.08400483789945" lon="9.986488423388646"><ele>35.666666666666664</ele><time>2026-03-22T07:16:42Z</time></trkpt><trkpt lat="45.08392924989886" lon="9.986517332712424"><ele>36.0</ele><time>2026-03-22T07:16:43Z</time></trkpt><trkpt lat="45.08385257070129" lon="9.98654960332981"><ele>36.333333333333336</ele><time>2026-03-22T07:16:44Z</time></trkpt><trkpt lat="45.083780288406956" lon="9.98658939715445"><ele>36.66666666666667</ele><time>2026-03-22T07:16:44.999Z</time></trkpt><trkpt lat="45.08370857710634" lon="9.986633288988015"><ele>37.0</ele><time>2026-03-22T07:16:45.999Z</time></trkpt><trkpt lat="45.08363796513787" lon="9.986679696999998"><ele>37.0</ele><time>2026-03-22T07:16:46.999Z</time></trkpt><trkpt lat="45.08356928872534" lon="9.986728096357803"><ele>37.0</ele><time>2026-03-22T07:16:47.999Z</time></trkpt><trkpt lat="45.08348962834615" lon="9.98677547382835"><ele>37.0</ele><time>2026-03-22T07:16:48.999Z</time></trkpt><trkpt lat="45.08341796951488" lon="9.98682807565004"><ele>37.0</ele><time>2026-03-22T07:16:49.999Z</time></trkpt><trkpt lat="45.08334058561846" lon="9.986887416387365"><ele>37.0</ele><time>2026-03-22T07:16:50.999Z</time></trkpt><trkpt lat="45.0832780635483" lon="9.986939938660608"><ele>37.0</ele><time>2026-03-22T07:16:51.999Z</time></trkpt><trkpt lat="45.08321944323242" lon="9.986985325721575"><ele>36.66666666666667</ele><time>2026-03-22T07:16:52.999Z</time></trkpt><trkpt lat="45.083147090969284" lon="9.987040716192357"><ele>36.333333333333336</ele><time>2026-03-22T07:16:53.999Z</time></trkpt><trkpt lat="45.08307391063363" lon="9.98708842103702"><ele>36.0</ele><time>2026-03-22T07:16:54.999Z</time></trkpt><trkpt lat="45.082998987932136" lon="9.987129409505899"><ele>35.666666666666664</ele><time>2026-03-22T07:16:55.999Z</time></trkpt><trkpt lat="45.082923617330295" lon="9.987167923763753"><ele>35.33333333333333</ele><time>2026-03-22T07:16:56.999Z</time></trkpt><trkpt lat="45.08284623907993" lon="9.987200714153339"><ele>35.0</ele><time>2026-03-22T07:16:57.999Z</time></trkpt><trkpt lat="45.082769998126096" lon="9.987233446645794"><ele>35.0</ele><time>2026-03-22T07:16:58.999Z</time></trkpt><trkpt lat="45.08269490381205" lon="9.98726667351308"><ele>35.0</ele><time>2026-03-22T07:16:59.999Z</time></trkpt><trkpt lat="45.082620545784934" lon="9.987297613255272"><ele>35.0</ele><time>2026-03-22T07:17:00.999Z</time></trkpt><trkpt lat="45.08254619556862" lon="9.987325330593338"><ele>35.0</ele><time>2026-03-22T07:17:01.999Z</time></trkpt><trkpt lat="45.08247207074334" lon="9.987355373981227"><ele>35.0</ele><time>2026-03-22T07:17:02.999Z</time></trkpt><trkpt lat="45.0824002665116" lon="9.987385456137694"><ele>35.0</ele><time>2026-03-22T07:17:03.999Z</time></trkpt><trkpt lat="45.08232598894321" lon="9.98741732168967"><ele>35.33333333333333</ele><time>2026-03-22T07:17:04.999Z</time></trkpt><trkpt lat="45.08225272613291" lon="9.987448742222588"><ele>35.666666666666664</ele><time>2026-03-22T07:17:05.999Z</time></trkpt><trkpt lat="45.08217893084518" lon="9.987479134032915"><ele>36.0</ele><time>2026-03-22T07:17:06.999Z</time></trkpt><trkpt lat="45.08210685362615" lon="9.987510050943735"><ele>36.333333333333336</ele><time>2026-03-22T07:17:07.999Z</time></trkpt><trkpt lat="45.08203196348512" lon="9.987536447786619"><ele>36.66666666666667</ele><time>2026-03-22T07:17:08.999Z</time></trkpt><trkpt lat="45.08195863057756" lon="9.987566851681489"><ele>37.0</ele><time>2026-03-22T07:17:09.999Z</time></trkpt><trkpt lat="45.081884286813526" lon="9.98759917796312"><ele>37.0</ele><time>2026-03-22T07:17:10.999Z</time></trkpt><trkpt lat="45.0818122506458" lon="9.987629797715488"><ele>37.0</ele><time>2026-03-22T07:17:11.999Z</time></trkpt><trkpt lat="45.081739141902865" lon="9.987657577239652"><ele>37.0</ele><time>2026-03-22T07:17:12.999Z</time></trkpt><trkpt lat="45.08166493293643" lon="9.987688497564063"><ele>37.0</ele><time>2026-03-22T07:17:13.999Z</time></trkpt><trkpt lat="45.08159187574247" lon="9.987716707817201"><ele>37.0</ele><time>2026-03-22T07:17:14.999Z</time></trkpt><trkpt lat="45.081518007748194" lon="9.987746736061348"><ele>37.0</ele><time>2026-03-22T07:17:15.999Z</time></trkpt><trkpt lat="45.08144396826761" lon="9.987777551963898"><ele>36.833333333333336</ele><time>2026-03-22T07:17:16.999Z</time></trkpt><trkpt lat="45.08137179023273" lon="9.987812193788399"><ele>36.66666666666667</ele><time>2026-03-22T07:17:17.999Z</time></trkpt><trkpt lat="45.08129964658959" lon="9.987851251342208"><ele>36.5</ele><time>2026-03-22T07:17:18.999Z</time></trkpt><trkpt lat="45.0812288519747" lon="9.98789603621638"><ele>36.333333333333336</ele><time>2026-03-22T07:17:19.999Z</time></trkpt><trkpt lat="45.081159916698816" lon="9.987942251898021"><ele>36.166666666666664</ele><time>2026-03-22T07:17:20.999Z</time></trkpt><trkpt lat="45.08109073331819" lon="9.987993450475894"><ele>36.0</ele><time>2026-03-22T07:17:21.999Z</time></trkpt><trkpt lat="45.08101771579035" lon="9.988025604494219"><ele>36.0</ele><time>2026-03-22T07:17:22.999Z</time></trkpt><trkpt lat="45.08094277504742" lon="9.988046825725606"><ele>36.0</ele><time>2026-03-22T07:17:23.999Z</time></trkpt><trkpt lat="45.08086716526395" lon="9.988071204380365"><ele>36.0</ele><time>2026-03-22T07:17:24.999Z</time></trkpt><trkpt lat="45.080792218008966" lon="9.988101525083378"><ele>36.0</ele><time>2026-03-22T07:17:25.999Z</time></trkpt><trkpt lat="45.08071856256027" lon="9.988133018596258"><ele>36.0</ele><time>2026-03-22T07:17:26.999Z</time></trkpt><trkpt lat="45.080642062934416" lon="9.988156115926992"><ele>36.0</ele><time>2026-03-22T07:17:27.999Z</time></trkpt><trkpt lat="45.080563598960026" lon="9.988159967048164"><ele>36.333333333333336</ele><time>2026-03-22T07:17:28.999Z</time></trkpt><trkpt lat="45.0804822668516" lon="9.988168031886282"><ele>36.666666666666664</ele><time>2026-03-22T07:17:29.999Z</time></trkpt><trkpt lat="45.08041514510933" lon="9.988227035143382"><ele>37.0</ele><time>2026-03-22T07:17:30.999Z</time></trkpt><trkpt lat="45.08034608094159" lon="9.988272039528539"><ele>37.33333333333333</ele><time>2026-03-22T07:17:31.999Z</time></trkpt><trkpt lat="45.08025707340023" lon="9.988264238020722"><ele>37.666666666666664</ele><time>2026-03-22T07:17:32.999Z</time></trkpt><trkpt lat="45.08018388632011" lon="9.988296787610963"><ele>38.0</ele><time>2026-03-22T07:17:33.999Z</time></trkpt><trkpt lat="45.08010864853566" lon="9.988328734031112"><ele>38.0</ele><time>2026-03-22T07:17:34.999Z</time></trkpt><trkpt lat="45.08003354616272" lon="9.988360455956109"><ele>38.0</ele><time>2026-03-22T07:17:35.999Z</time></trkpt><trkpt lat="45.07995882362467" lon="9.988390611965812"><ele>38.0</ele><time>2026-03-22T07:17:36.999Z</time></trkpt><trkpt lat="45.079884550227895" lon="9.988422863108301"><ele>38.0</ele><time>2026-03-22T07:17:37.999Z</time></trkpt><trkpt lat="45.07981147111066" lon="9.98845661966323"><ele>38.0</ele><time>2026-03-22T07:17:38.999Z</time></trkpt><trkpt lat="45.07973535367746" lon="9.988483210144643"><ele>38.0</ele><time>2026-03-22T07:17:39.999Z</time></trkpt><trkpt lat="45.0796631988332" lon="9.988512443314438"><ele>38.0</ele><time>2026-03-22T07:17:40.999Z</time></trkpt><trkpt lat="45.07958799270204" lon="9.98854347970427"><ele>38.0</ele><time>2026-03-22T07:17:41.999Z</time></trkpt><trkpt lat="45.07951218178677" lon="9.988574324058492"><ele>38.0</ele><time>2026-03-22T07:17:42.999Z</time></trkpt><trkpt lat="45.079435953728776" lon="9.988605018384604"><ele>38.0</ele><time>2026-03-22T07:17:43.999Z</time></trkpt><trkpt lat="45.07936191146147" lon="9.988636485816727"><ele>38.0</ele><time>2026-03-22T07:17:44.999Z</time></trkpt><trkpt lat="45.07928335223161" lon="9.988661021395277"><ele>38.0</ele><time>2026-03-22T07:17:45.998Z</time></trkpt><trkpt lat="45.079207766535205" lon="9.988687166119703"><ele>38.0</ele><time>2026-03-22T07:17:46.998Z</time></trkpt><trkpt lat="45.07913070494408" lon="9.988709801190181"><ele>38.0</ele><time>2026-03-22T07:17:47.998Z</time></trkpt><trkpt lat="45.0790533594915" lon="9.988727381516906"><ele>38.0</ele><time>2026-03-22T07:17:48.998Z</time></trkpt><trkpt lat="45.07897568735445" lon="9.988746305148734"><ele>38.0</ele><time>2026-03-22T07:17:49.998Z</time></trkpt><trkpt lat="45.07889888234063" lon="9.988763692176981"><ele>38.0</ele><time>2026-03-22T07:17:50.998Z</time></trkpt><trkpt lat="45.078822186058865" lon="9.98878062756875"><ele>38.0</ele><time>2026-03-22T07:17:51.998Z</time></trkpt><trkpt lat="45.07874513164198" lon="9.988799668352453"><ele>37.83333333333333</ele><time>2026-03-22T07:17:52.998Z</time></trkpt><trkpt lat="45.07866943942134" lon="9.988816932655654"><ele>37.666666666666664</ele><time>2026-03-22T07:17:53.998Z</time></trkpt><trkpt lat="45.07859229667642" lon="9.988833807759567"><ele>37.5</ele><time>2026-03-22T07:17:54.998Z</time></trkpt><trkpt lat="45.078515522386056" lon="9.988852180369658"><ele>37.333333333333336</ele><time>2026-03-22T07:17:55.998Z</time></trkpt><trkpt lat="45.078439878582074" lon="9.988869447535489"><ele>37.16666666666667</ele><time>2026-03-22T07:17:56.998Z</time></trkpt><trkpt lat="45.07836355076166" lon="9.988886349722833"><ele>37.0</ele><time>2026-03-22T07:17:57.998Z</time></trkpt><trkpt lat="45.07828593474081" lon="9.988897043852342"><ele>36.833333333333336</ele><time>2026-03-22T07:17:58.998Z</time></trkpt><trkpt lat="45.07820817997275" lon="9.98890164412349"><ele>36.66666666666667</ele><time>2026-03-22T07:17:59.998Z</time></trkpt><trkpt lat="45.07813119402256" lon="9.98890217279389"><ele>36.5</ele><time>2026-03-22T07:18:00.998Z</time></trkpt><trkpt lat="45.07805383088213" lon="9.988903173085369"><ele>36.333333333333336</ele><time>2026-03-22T07:18:01.998Z</time></trkpt><trkpt lat="45.07797596260103" lon="9.988900935867948"><ele>36.166666666666664</ele><time>2026-03-22T07:18:02.998Z</time></trkpt><trkpt lat="45.0778969629022" lon="9.988899559681172"><ele>36.0</ele><time>2026-03-22T07:18:03.998Z</time></trkpt><trkpt lat="45.07781957590836" lon="9.988896271504117"><ele>36.0</ele><time>2026-03-22T07:18:04.998Z</time></trkpt><trkpt lat="45.07774283775861" lon="9.988891748262784"><ele>36.0</ele><time>2026-03-22T07:18:05.998Z</time></trkpt><trkpt lat="45.077667127460245" lon="9.988891759457251"><ele>36.0</ele><time>2026-03-22T07:18:06.998Z</time></trkpt><trkpt lat="45.07758961156757" lon="9.988893044738761"><ele>36.0</ele><time>2026-03-22T07:18:07.998Z</time></trkpt><trkpt lat="45.077514474280775" lon="9.988895935984884"><ele>36.0</ele><time>2026-03-22T07:18:08.998Z</time></trkpt><trkpt lat="45.077434225238" lon="9.98889582596408"><ele>36.0</ele><time>2026-03-22T07:18:09.998Z</time></trkpt><trkpt lat="45.077359433568496" lon="9.988901254842194"><ele>36.0</ele><time>2026-03-22T07:18:10.998Z</time></trkpt><trkpt lat="45.07728344336063" lon="9.988904712676009"><ele>36.0</ele><time>2026-03-22T07:18:11.998Z</time></trkpt><trkpt lat="45.07720520674121" lon="9.98890990560884"><ele>36.0</ele><time>2026-03-22T07:18:12.998Z</time></trkpt><trkpt lat="45.07712747964869" lon="9.988907940516876"><ele>36.0</ele><time>2026-03-22T07:18:13.998Z</time></trkpt><trkpt lat="45.07705009601825" lon="9.988907916851156"><ele>36.0</ele><time>2026-03-22T07:18:14.998Z</time></trkpt><trkpt lat="45.07697296495226" lon="9.988912399782711"><ele>36.0</ele><time>2026-03-22T07:18:15.998Z</time></trkpt><trkpt lat="45.07689447320231" lon="9.988911948971428"><ele>36.0</ele><time>2026-03-22T07:18:16.998Z</time></trkpt><trkpt lat="45.07681786091137" lon="9.988923042584135"><ele>36.0</ele><time>2026-03-22T07:18:17.998Z</time></trkpt><trkpt lat="45.07674655726906" lon="9.988967762255934"><ele>36.0</ele><time>2026-03-22T07:18:19Z</time></trkpt><trkpt lat="45.07668915190995" lon="9.98905134262003"><ele>36.0</ele><time>2026-03-22T07:18:20Z</time></trkpt><trkpt lat="45.076657895133934" lon="9.989166655127347"><ele>36.0</ele><time>2026-03-22T07:18:21Z</time></trkpt><trkpt lat="45.076652585206666" lon="9.989288786410151"><ele>36.0</ele><time>2026-03-22T07:18:22Z</time></trkpt><trkpt lat="45.07664970450179" lon="9.989403668714194"><ele>36.166666666666664</ele><time>2026-03-22T07:18:23Z</time></trkpt><trkpt lat="45.076646403472225" lon="9.98951606409442"><ele>36.333333333333336</ele><time>2026-03-22T07:18:24Z</time></trkpt><trkpt lat="45.07663936083429" lon="9.989625546645097"><ele>36.5</ele><time>2026-03-22T07:18:25Z</time></trkpt><trkpt lat="45.07662911392768" lon="9.989735662470192"><ele>36.66666666666667</ele><time>2026-03-22T07:18:26Z</time></trkpt><trkpt lat="45.076622182026036" lon="9.989847400432188"><ele>36.833333333333336</ele><time>2026-03-22T07:18:27Z</time></trkpt><trkpt lat="45.07661604539475" lon="9.989956084917715"><ele>37.0</ele><time>2026-03-22T07:18:28Z</time></trkpt><trkpt lat="45.07660647863422" lon="9.990064093503149"><ele>37.5</ele><time>2026-03-22T07:18:29Z</time></trkpt><trkpt lat="45.07659525738495" lon="9.99017372553674"><ele>38.0</ele><time>2026-03-22T07:18:30Z</time></trkpt><trkpt lat="45.076583167271885" lon="9.990281094492664"><ele>38.5</ele><time>2026-03-22T07:18:31Z</time></trkpt><trkpt lat="45.07656891061941" lon="9.990389629117162"><ele>39.0</ele><time>2026-03-22T07:18:32Z</time></trkpt><trkpt lat="45.07654758118471" lon="9.990496508944993"><ele>39.5</ele><time>2026-03-22T07:18:33Z</time></trkpt><trkpt lat="45.07651866179872" lon="9.990599474332724"><ele>40.0</ele><time>2026-03-22T07:18:34Z</time></trkpt><trkpt lat="45.07647954183855" lon="9.990698334735136"><ele>40.0</ele><time>2026-03-22T07:18:35Z</time></trkpt><trkpt lat="45.076436919714396" lon="9.990789559333608"><ele>40.0</ele><time>2026-03-22T07:18:36Z</time></trkpt><trkpt lat="45.07638954229428" lon="9.990877918764106"><ele>40.0</ele><time>2026-03-22T07:18:37Z</time></trkpt><trkpt lat="45.076342015768006" lon="9.990968507168015"><ele>40.0</ele><time>2026-03-22T07:18:38Z</time></trkpt><trkpt lat="45.07630106480694" lon="9.99106248604932"><ele>40.0</ele><time>2026-03-22T07:18:39Z</time></trkpt><trkpt lat="45.07626821302584" lon="9.991160952055292"><ele>40.0</ele><time>2026-03-22T07:18:40Z</time></trkpt><trkpt lat="45.07624321799249" lon="9.991268447946938"><ele>39.66666666666667</ele><time>2026-03-22T07:18:41Z</time></trkpt><trkpt lat="45.07622281485586" lon="9.991375784531371"><ele>39.333333333333336</ele><time>2026-03-22T07:18:42Z</time></trkpt><trkpt lat="45.076207974273956" lon="9.991482829890437"><ele>39.0</ele><time>2026-03-22T07:18:43Z</time></trkpt><trkpt lat="45.07619297096173" lon="9.99157780755941"><ele>38.666666666666664</ele><time>2026-03-22T07:18:44Z</time></trkpt><trkpt lat="45.076155662730955" lon="9.991654437458422"><ele>38.33333333333333</ele><time>2026-03-22T07:18:45Z</time></trkpt><trkpt lat="45.07600971056859" lon="9.991679560586014"><ele>38.0</ele><time>2026-03-22T07:18:47Z</time></trkpt><trkpt lat="45.07593268830725" lon="9.991676898828322"><ele>38.0</ele><time>2026-03-22T07:18:48Z</time></trkpt><trkpt lat="45.07585972020791" lon="9.991683971316016"><ele>38.0</ele><time>2026-03-22T07:18:49Z</time></trkpt><trkpt lat="45.075785545038464" lon="9.991698775558659"><ele>38.0</ele><time>2026-03-22T07:18:49.999Z</time></trkpt><trkpt lat="45.07570808060569" lon="9.991708721183572"><ele>38.0</ele><time>2026-03-22T07:18:50.999Z</time></trkpt><trkpt lat="45.07562949032741" lon="9.991711070621841"><ele>38.0</ele><time>2026-03-22T07:18:51.999Z</time></trkpt><trkpt lat="45.07555306073592" lon="9.9917010100751"><ele>38.0</ele><time>2026-03-22T07:18:52.999Z</time></trkpt><trkpt lat="45.07547483520611" lon="9.991680747297721"><ele>38.0</ele><time>2026-03-22T07:18:53.999Z</time></trkpt><trkpt lat="45.07539930623864" lon="9.991654652992946"><ele>38.0</ele><time>2026-03-22T07:18:54.999Z</time></trkpt><trkpt lat="45.07532209156424" lon="9.991639166189579"><ele>38.0</ele><time>2026-03-22T07:18:55.999Z</time></trkpt><trkpt lat="45.0752434666509" lon="9.991637513713501"><ele>38.0</ele><time>2026-03-22T07:18:56.999Z</time></trkpt><trkpt lat="45.075162806236904" lon="9.991648371140078"><ele>38.0</ele><time>2026-03-22T07:18:57.999Z</time></trkpt><trkpt lat="45.07508433311857" lon="9.991678813842892"><ele>38.0</ele><time>2026-03-22T07:18:58.999Z</time></trkpt><trkpt lat="45.07501155411159" lon="9.991726518082457"><ele>38.0</ele><time>2026-03-22T07:18:59.999Z</time></trkpt><trkpt lat="45.074939026538544" lon="9.99178817545424"><ele>38.0</ele><time>2026-03-22T07:19:00.999Z</time></trkpt><trkpt lat="45.07487154965618" lon="9.99184602211615"><ele>38.0</ele><time>2026-03-22T07:19:01.999Z</time></trkpt><trkpt lat="45.07479903221223" lon="9.991898691160817"><ele>38.0</ele><time>2026-03-22T07:19:02.999Z</time></trkpt><trkpt lat="45.07472628461551" lon="9.991950017787204"><ele>38.0</ele><time>2026-03-22T07:19:03.999Z</time></trkpt><trkpt lat="45.07465624819885" lon="9.992002499632576"><ele>38.0</ele><time>2026-03-22T07:19:04.999Z</time></trkpt><trkpt lat="45.07458469541467" lon="9.992054110213036"><ele>38.166666666666664</ele><time>2026-03-22T07:19:05.999Z</time></trkpt><trkpt lat="45.07451711459751" lon="9.992106431398723"><ele>38.33333333333333</ele><time>2026-03-22T07:19:06.999Z</time></trkpt><trkpt lat="45.07444842683531" lon="9.992158318379131"><ele>38.5</ele><time>2026-03-22T07:19:07.999Z</time></trkpt><trkpt lat="45.07437742304895" lon="9.992207029853079"><ele>38.666666666666664</ele><time>2026-03-22T07:19:08.999Z</time></trkpt><trkpt lat="45.07430700893765" lon="9.992257759982577"><ele>38.833333333333336</ele><time>2026-03-22T07:19:09.999Z</time></trkpt><trkpt lat="45.07423990654206" lon="9.992310570390277"><ele>39.0</ele><time>2026-03-22T07:19:10.999Z</time></trkpt><trkpt lat="45.074169320201186" lon="9.99235659429169"><ele>38.833333333333336</ele><time>2026-03-22T07:19:11.999Z</time></trkpt><trkpt lat="45.074097288757564" lon="9.992402327729591"><ele>38.666666666666664</ele><time>2026-03-22T07:19:12.999Z</time></trkpt><trkpt lat="45.07402823537831" lon="9.992450502390573"><ele>38.5</ele><time>2026-03-22T07:19:13.999Z</time></trkpt><trkpt lat="45.073958914792456" lon="9.992501406684916"><ele>38.33333333333333</ele><time>2026-03-22T07:19:14.999Z</time></trkpt><trkpt lat="45.07388953913026" lon="9.992550631157597"><ele>38.166666666666664</ele><time>2026-03-22T07:19:15.999Z</time></trkpt><trkpt lat="45.073820642339925" lon="9.99260190743439"><ele>38.0</ele><time>2026-03-22T07:19:16.999Z</time></trkpt><trkpt lat="45.07375186340152" lon="9.992652005242853"><ele>37.83333333333333</ele><time>2026-03-22T07:19:17.999Z</time></trkpt><trkpt lat="45.07367936349753" lon="9.992698207213815"><ele>37.666666666666664</ele><time>2026-03-22T07:19:18.999Z</time></trkpt><trkpt lat="45.07360625380855" lon="9.992733781413568"><ele>37.5</ele><time>2026-03-22T07:19:19.999Z</time></trkpt><trkpt lat="45.07352954108213" lon="9.992764536326451"><ele>37.333333333333336</ele><time>2026-03-22T07:19:20.999Z</time></trkpt><trkpt lat="45.073450025934086" lon="9.9927811475875"><ele>37.16666666666667</ele><time>2026-03-22T07:19:21.999Z</time></trkpt><trkpt lat="45.07337219528429" lon="9.992790485765187"><ele>37.0</ele><time>2026-03-22T07:19:22.999Z</time></trkpt><trkpt lat="45.07329178126633" lon="9.99279486710913"><ele>36.833333333333336</ele><time>2026-03-22T07:19:23.999Z</time></trkpt><trkpt lat="45.07321545025053" lon="9.992804576822662"><ele>36.66666666666667</ele><time>2026-03-22T07:19:24.999Z</time></trkpt><trkpt lat="45.0731373457219" lon="9.9928139918069"><ele>36.5</ele><time>2026-03-22T07:19:25.999Z</time></trkpt><trkpt lat="45.07306060609937" lon="9.992828439351298"><ele>36.333333333333336</ele><time>2026-03-22T07:19:26.999Z</time></trkpt><trkpt lat="45.072984479847584" lon="9.992840352308592"><ele>36.166666666666664</ele><time>2026-03-22T07:19:27.999Z</time></trkpt><trkpt lat="45.07290705474922" lon="9.99284747911256"><ele>36.0</ele><time>2026-03-22T07:19:28.999Z</time></trkpt><trkpt lat="45.07283069218749" lon="9.992852077560999"><ele>36.0</ele><time>2026-03-22T07:19:29.999Z</time></trkpt><trkpt lat="45.072753105739366" lon="9.992857778834768"><ele>36.0</ele><time>2026-03-22T07:19:30.999Z</time></trkpt><trkpt lat="45.07267588175056" lon="9.992866141672682"><ele>36.0</ele><time>2026-03-22T07:19:31.999Z</time></trkpt><trkpt lat="45.07259883062769" lon="9.992876533826934"><ele>36.0</ele><time>2026-03-22T07:19:32.999Z</time></trkpt><trkpt lat="45.0725236695296" lon="9.992898007884035"><ele>36.0</ele><time>2026-03-22T07:19:33.999Z</time></trkpt><trkpt lat="45.07244794140723" lon="9.992932625976987"><ele>36.0</ele><time>2026-03-22T07:19:34.999Z</time></trkpt><trkpt lat="45.072378268932994" lon="9.992985703681796"><ele>36.166666666666664</ele><time>2026-03-22T07:19:35.999Z</time></trkpt><trkpt lat="45.07231512205886" lon="9.993053158675176"><ele>36.333333333333336</ele><time>2026-03-22T07:19:36.999Z</time></trkpt><trkpt lat="45.07225683019488" lon="9.993131193325224"><ele>36.5</ele><time>2026-03-22T07:19:37.999Z</time></trkpt><trkpt lat="45.07220423953778" lon="9.99321552999621"><ele>36.66666666666667</ele><time>2026-03-22T07:19:38.999Z</time></trkpt><trkpt lat="45.07215065767381" lon="9.993297850493356"><ele>36.833333333333336</ele><time>2026-03-22T07:19:39.999Z</time></trkpt><trkpt lat="45.07209525461148" lon="9.993372196613901"><ele>37.0</ele><time>2026-03-22T07:19:40.999Z</time></trkpt><trkpt lat="45.07203124840482" lon="9.993437788847446"><ele>37.0</ele><time>2026-03-22T07:19:41.999Z</time></trkpt><trkpt lat="45.071956482077844" lon="9.993475674710751"><ele>37.0</ele><time>2026-03-22T07:19:42.999Z</time></trkpt><trkpt lat="45.071874801254026" lon="9.99348701735136"><ele>37.0</ele><time>2026-03-22T07:19:43.999Z</time></trkpt><trkpt lat="45.07179436280639" lon="9.99348078047611"><ele>37.0</ele><time>2026-03-22T07:19:44.999Z</time></trkpt><trkpt lat="45.071715243261906" lon="9.993469876839152"><ele>37.0</ele><time>2026-03-22T07:19:45.999Z</time></trkpt><trkpt lat="45.071637479909285" lon="9.99344490616468"><ele>37.0</ele><time>2026-03-22T07:19:46.999Z</time></trkpt><trkpt lat="45.071560407400675" lon="9.99342808801796"><ele>37.16666666666667</ele><time>2026-03-22T07:19:47.999Z</time></trkpt><trkpt lat="45.07148135408788" lon="9.99341824443145"><ele>37.333333333333336</ele><time>2026-03-22T07:19:48.999Z</time></trkpt><trkpt lat="45.07140457292838" lon="9.993406806449412"><ele>37.5</ele><time>2026-03-22T07:19:49.999Z</time></trkpt><trkpt lat="45.07132826798112" lon="9.993394887142912"><ele>37.666666666666664</ele><time>2026-03-22T07:19:50.999Z</time></trkpt><trkpt lat="45.07125089378306" lon="9.993383965789624"><ele>37.83333333333333</ele><time>2026-03-22T07:19:51.998Z</time></trkpt><trkpt lat="45.07117313638411" lon="9.99337211829204"><ele>38.0</ele><time>2026-03-22T07:19:52.998Z</time></trkpt><trkpt lat="45.071094868400614" lon="9.993362985904934"><ele>38.0</ele><time>2026-03-22T07:19:53.998Z</time></trkpt><trkpt lat="45.071018690847765" lon="9.993353253650069"><ele>38.0</ele><time>2026-03-22T07:19:54.998Z</time></trkpt><trkpt lat="45.07094345908144" lon="9.993343025156339"><ele>38.0</ele><time>2026-03-22T07:19:55.998Z</time></trkpt><trkpt lat="45.070866338060505" lon="9.993333061509333"><ele>38.0</ele><time>2026-03-22T07:19:56.998Z</time></trkpt><trkpt lat="45.07078514433016" lon="9.993333390896893"><ele>38.0</ele><time>2026-03-22T07:19:57.998Z</time></trkpt><trkpt lat="45.07070866283337" lon="9.99335380686738"><ele>38.0</ele><time>2026-03-22T07:19:58.998Z</time></trkpt><trkpt lat="45.07062938765342" lon="9.99337642291009"><ele>38.166666666666664</ele><time>2026-03-22T07:19:59.998Z</time></trkpt><trkpt lat="45.07055013776111" lon="9.993399028298807"><ele>38.33333333333333</ele><time>2026-03-22T07:20:00.998Z</time></trkpt><trkpt lat="45.07047122541308" lon="9.993395361180447"><ele>38.5</ele><time>2026-03-22T07:20:01.998Z</time></trkpt><trkpt lat="45.07039207338406" lon="9.993359586103432"><ele>38.666666666666664</ele><time>2026-03-22T07:20:02.998Z</time></trkpt><trkpt lat="45.07032341027917" lon="9.993298640267056"><ele>38.833333333333336</ele><time>2026-03-22T07:20:03.998Z</time></trkpt><trkpt lat="45.0702613124192" lon="9.993225534659018"><ele>39.0</ele><time>2026-03-22T07:20:04.998Z</time></trkpt><trkpt lat="45.070203925279436" lon="9.993149293711294"><ele>39.0</ele><time>2026-03-22T07:20:05.998Z</time></trkpt><trkpt lat="45.07014438100917" lon="9.99307514144922"><ele>39.0</ele><time>2026-03-22T07:20:06.998Z</time></trkpt><trkpt lat="45.07008259725866" lon="9.993007039492486"><ele>39.0</ele><time>2026-03-22T07:20:07.998Z</time></trkpt><trkpt lat="45.07001845024119" lon="9.992945955008333"><ele>39.0</ele><time>2026-03-22T07:20:08.998Z</time></trkpt><trkpt lat="45.069956357197725" lon="9.992881772188671"><ele>39.0</ele><time>2026-03-22T07:20:09.998Z</time></trkpt><trkpt lat="45.0698888939788" lon="9.992828875274695"><ele>39.0</ele><time>2026-03-22T07:20:10.998Z</time></trkpt><trkpt lat="45.06982829641736" lon="9.992758333961007"><ele>38.833333333333336</ele><time>2026-03-22T07:20:11.998Z</time></trkpt><trkpt lat="45.06976593344089" lon="9.992691367660969"><ele>38.666666666666664</ele><time>2026-03-22T07:20:12.998Z</time></trkpt><trkpt lat="45.06970473551418" lon="9.992623797435948"><ele>38.5</ele><time>2026-03-22T07:20:13.998Z</time></trkpt><trkpt lat="45.0696441627809" lon="9.992555482325223"><ele>38.33333333333333</ele><time>2026-03-22T07:20:14.998Z</time></trkpt><trkpt lat="45.069583118358" lon="9.992487006224527"><ele>38.166666666666664</ele><time>2026-03-22T07:20:15.998Z</time></trkpt><trkpt lat="45.06952157377677" lon="9.992421020069473"><ele>38.0</ele><time>2026-03-22T07:20:16.998Z</time></trkpt><trkpt lat="45.06946129845454" lon="9.992350647369147"><ele>38.0</ele><time>2026-03-22T07:20:17.998Z</time></trkpt><trkpt lat="45.069400172546665" lon="9.992281370093933"><ele>38.0</ele><time>2026-03-22T07:20:18.998Z</time></trkpt><trkpt lat="45.06933862427757" lon="9.992213753643872"><ele>38.0</ele><time>2026-03-22T07:20:19.998Z</time></trkpt><trkpt lat="45.069276549292994" lon="9.992144674160793"><ele>38.0</ele><time>2026-03-22T07:20:20.998Z</time></trkpt><trkpt lat="45.069215684769524" lon="9.992080192285188"><ele>38.0</ele><time>2026-03-22T07:20:21.998Z</time></trkpt><trkpt lat="45.0691546648583" lon="9.992009116349667"><ele>38.0</ele><time>2026-03-22T07:20:22.998Z</time></trkpt><trkpt lat="45.06909079522288" lon="9.991940499411395"><ele>38.0</ele><time>2026-03-22T07:20:24Z</time></trkpt><trkpt lat="45.06902595107828" lon="9.991871297571683"><ele>38.0</ele><time>2026-03-22T07:20:25Z</time></trkpt><trkpt lat="45.068963455853" lon="9.991798953494438"><ele>38.0</ele><time>2026-03-22T07:20:26Z</time></trkpt><trkpt lat="45.06890070277571" lon="9.991729073728857"><ele>38.0</ele><time>2026-03-22T07:20:27Z</time></trkpt><trkpt lat="45.06883631125196" lon="9.991661704981476"><ele>38.0</ele><time>2026-03-22T07:20:28Z</time></trkpt><trkpt lat="45.068771804769746" lon="9.991597335916499"><ele>38.0</ele><time>2026-03-22T07:20:29Z</time></trkpt><trkpt lat="45.068710169808384" lon="9.991528551796804"><ele>38.0</ele><time>2026-03-22T07:20:30Z</time></trkpt><trkpt lat="45.06864837322543" lon="9.991462200349154"><ele>38.0</ele><time>2026-03-22T07:20:31Z</time></trkpt><trkpt lat="45.06858542182165" lon="9.99139664356903"><ele>38.0</ele><time>2026-03-22T07:20:32Z</time></trkpt><trkpt lat="45.068523693967116" lon="9.991329049590208"><ele>38.0</ele><time>2026-03-22T07:20:33Z</time></trkpt><trkpt lat="45.06846119351822" lon="9.99126208199117"><ele>38.0</ele><time>2026-03-22T07:20:34Z</time></trkpt><trkpt lat="45.0683985301743" lon="9.991195355686123"><ele>38.0</ele><time>2026-03-22T07:20:35Z</time></trkpt><trkpt lat="45.068336927088325" lon="9.991126930729477"><ele>38.0</ele><time>2026-03-22T07:20:36Z</time></trkpt><trkpt lat="45.06827388671741" lon="9.991060404919311"><ele>38.0</ele><time>2026-03-22T07:20:37Z</time></trkpt><trkpt lat="45.06821266006953" lon="9.990991152661122"><ele>38.0</ele><time>2026-03-22T07:20:38Z</time></trkpt><trkpt lat="45.06815091488219" lon="9.990920448139015"><ele>38.0</ele><time>2026-03-22T07:20:39Z</time></trkpt><trkpt lat="45.06809000267773" lon="9.99085408384354"><ele>38.0</ele><time>2026-03-22T07:20:40Z</time></trkpt><trkpt lat="45.06802376293232" lon="9.990795403405112"><ele>38.0</ele><time>2026-03-22T07:20:41Z</time></trkpt><trkpt lat="45.067953548212095" lon="9.990749395730788"><ele>38.0</ele><time>2026-03-22T07:20:42Z</time></trkpt><trkpt lat="45.06787752321439" lon="9.99071785842498"><ele>38.0</ele><time>2026-03-22T07:20:43Z</time></trkpt><trkpt lat="45.06780171419876" lon="9.990708527209193"><ele>38.0</ele><time>2026-03-22T07:20:44Z</time></trkpt><trkpt lat="45.06772364598133" lon="9.990697356964526"><ele>38.0</ele><time>2026-03-22T07:20:45Z</time></trkpt><trkpt lat="45.067641151599645" lon="9.990718782288312"><ele>38.0</ele><time>2026-03-22T07:20:46Z</time></trkpt><trkpt lat="45.0675622587882" lon="9.990746441657853"><ele>38.0</ele><time>2026-03-22T07:20:47Z</time></trkpt><trkpt lat="45.06748297071453" lon="9.990770290244189"><ele>37.83333333333333</ele><time>2026-03-22T07:20:48Z</time></trkpt><trkpt lat="45.06740551965509" lon="9.99078411309611"><ele>37.666666666666664</ele><time>2026-03-22T07:20:49Z</time></trkpt><trkpt lat="45.0673252282449" lon="9.990775489036755"><ele>37.5</ele><time>2026-03-22T07:20:50Z</time></trkpt><trkpt lat="45.06724444193602" lon="9.990775966001202"><ele>37.333333333333336</ele><time>2026-03-22T07:20:51Z</time></trkpt><trkpt lat="45.06716685289776" lon="9.990754456993116"><ele>37.16666666666667</ele><time>2026-03-22T07:20:52Z</time></trkpt><trkpt lat="45.06708898956167" lon="9.990724578366468"><ele>37.0</ele><time>2026-03-22T07:20:53Z</time></trkpt><trkpt lat="45.067010000177234" lon="9.990692784317627"><ele>37.0</ele><time>2026-03-22T07:20:53.999Z</time></trkpt><trkpt lat="45.06693490462676" lon="9.990658327877915"><ele>37.0</ele><time>2026-03-22T07:20:54.999Z</time></trkpt><trkpt lat="45.066858845870435" lon="9.990622934443891"><ele>37.0</ele><time>2026-03-22T07:20:55.999Z</time></trkpt><trkpt lat="45.06678185716855" lon="9.990589327563322"><ele>37.0</ele><time>2026-03-22T07:20:56.999Z</time></trkpt><trkpt lat="45.06670744911703" lon="9.990553096777907"><ele>37.0</ele><time>2026-03-22T07:20:57.999Z</time></trkpt><trkpt lat="45.06663149684881" lon="9.99052541220146"><ele>37.0</ele><time>2026-03-22T07:20:58.999Z</time></trkpt><trkpt lat="45.066547514868184" lon="9.99053201195462"><ele>36.833333333333336</ele><time>2026-03-22T07:20:59.999Z</time></trkpt><trkpt lat="45.0664678273423" lon="9.990558682218746"><ele>36.66666666666667</ele><time>2026-03-22T07:21:00.999Z</time></trkpt><trkpt lat="45.066393312146005" lon="9.990612026373546"><ele>36.5</ele><time>2026-03-22T07:21:01.999Z</time></trkpt><trkpt lat="45.06632225896952" lon="9.990672340106872"><ele>36.333333333333336</ele><time>2026-03-22T07:21:02.999Z</time></trkpt><trkpt lat="45.066252663302876" lon="9.990731231835984"><ele>36.166666666666664</ele><time>2026-03-22T07:21:03.999Z</time></trkpt><trkpt lat="45.06618324141767" lon="9.99078716790294"><ele>36.0</ele><time>2026-03-22T07:21:04.999Z</time></trkpt><trkpt lat="45.06611386718132" lon="9.990837641932988"><ele>35.833333333333336</ele><time>2026-03-22T07:21:05.999Z</time></trkpt><trkpt lat="45.066043948615444" lon="9.990890558667319"><ele>35.666666666666664</ele><time>2026-03-22T07:21:06.999Z</time></trkpt><trkpt lat="45.065977481547634" lon="9.990948016229249"><ele>35.5</ele><time>2026-03-22T07:21:07.999Z</time></trkpt><trkpt lat="45.065909223519434" lon="9.991005287974762"><ele>35.33333333333333</ele><time>2026-03-22T07:21:08.999Z</time></trkpt><trkpt lat="45.065842835644176" lon="9.991062186100622"><ele>35.166666666666664</ele><time>2026-03-22T07:21:09.999Z</time></trkpt><trkpt lat="45.065784866627666" lon="9.991133704275054"><ele>35.0</ele><time>2026-03-22T07:21:10.999Z</time></trkpt><trkpt lat="45.06573458870706" lon="9.991218976145495"><ele>35.0</ele><time>2026-03-22T07:21:11.999Z</time></trkpt><trkpt lat="45.065696321840036" lon="9.991321932647045"><ele>35.0</ele><time>2026-03-22T07:21:12.999Z</time></trkpt><trkpt lat="45.06566605379158" lon="9.991427461976402"><ele>35.0</ele><time>2026-03-22T07:21:13.999Z</time></trkpt><trkpt lat="45.06564036695871" lon="9.991537170146106"><ele>35.0</ele><time>2026-03-22T07:21:14.999Z</time></trkpt><trkpt lat="45.06561824636667" lon="9.991644837604174"><ele>35.0</ele><time>2026-03-22T07:21:15.999Z</time></trkpt><trkpt lat="45.0655928968682" lon="9.991750237196177"><ele>35.0</ele><time>2026-03-22T07:21:16.999Z</time></trkpt><trkpt lat="45.0655672403845" lon="9.991858135088568"><ele>35.166666666666664</ele><time>2026-03-22T07:21:17.999Z</time></trkpt><trkpt lat="45.06554357244038" lon="9.991963749967745"><ele>35.33333333333333</ele><time>2026-03-22T07:21:18.999Z</time></trkpt><trkpt lat="45.06551848370901" lon="9.99207097070669"><ele>35.5</ele><time>2026-03-22T07:21:19.999Z</time></trkpt><trkpt lat="45.06549223435681" lon="9.992177354805827"><ele>35.666666666666664</ele><time>2026-03-22T07:21:20.999Z</time></trkpt><trkpt lat="45.0654665142883" lon="9.99228223470683"><ele>35.833333333333336</ele><time>2026-03-22T07:21:21.999Z</time></trkpt><trkpt lat="45.06544017355568" lon="9.992385505423865"><ele>36.0</ele><time>2026-03-22T07:21:22.999Z</time></trkpt><trkpt lat="45.065416229970694" lon="9.99249145328541"><ele>35.833333333333336</ele><time>2026-03-22T07:21:23.999Z</time></trkpt><trkpt lat="45.06539360963068" lon="9.992597800402866"><ele>35.666666666666664</ele><time>2026-03-22T07:21:24.999Z</time></trkpt><trkpt lat="45.06537076177835" lon="9.992706003792769"><ele>35.5</ele><time>2026-03-22T07:21:25.999Z</time></trkpt><trkpt lat="45.065347399013575" lon="9.992811759920354"><ele>35.33333333333333</ele><time>2026-03-22T07:21:26.999Z</time></trkpt><trkpt lat="45.065323580392025" lon="9.992916547025356"><ele>35.166666666666664</ele><time>2026-03-22T07:21:27.999Z</time></trkpt><trkpt lat="45.06529294289878" lon="9.993020882769313"><ele>35.0</ele><time>2026-03-22T07:21:28.999Z</time></trkpt><trkpt lat="45.06526245688243" lon="9.99312366970765"><ele>35.0</ele><time>2026-03-22T07:21:29.999Z</time></trkpt><trkpt lat="45.065237043536506" lon="9.993226025721322"><ele>35.0</ele><time>2026-03-22T07:21:30.999Z</time></trkpt><trkpt lat="45.06520930175427" lon="9.993329979146164"><ele>35.0</ele><time>2026-03-22T07:21:31.999Z</time></trkpt><trkpt lat="45.065182108995835" lon="9.993432095928336"><ele>35.0</ele><time>2026-03-22T07:21:32.999Z</time></trkpt><trkpt lat="45.06515462928742" lon="9.99353557323274"><ele>35.0</ele><time>2026-03-22T07:21:33.999Z</time></trkpt><trkpt lat="45.06512334268258" lon="9.993635765912718"><ele>35.0</ele><time>2026-03-22T07:21:34.999Z</time></trkpt><trkpt lat="45.06508953170707" lon="9.993735053219275"><ele>35.0</ele><time>2026-03-22T07:21:35.999Z</time></trkpt><trkpt lat="45.06505420249833" lon="9.993830976802832"><ele>35.0</ele><time>2026-03-22T07:21:36.999Z</time></trkpt><trkpt lat="45.06501688278241" lon="9.993927801600368"><ele>35.0</ele><time>2026-03-22T07:21:37.999Z</time></trkpt><trkpt lat="45.0649805798107" lon="9.994026561107134"><ele>35.0</ele><time>2026-03-22T07:21:38.999Z</time></trkpt><trkpt lat="45.0649448282171" lon="9.994123575742213"><ele>35.0</ele><time>2026-03-22T07:21:39.999Z</time></trkpt><trkpt lat="45.06490641860397" lon="9.994223197342864"><ele>35.0</ele><time>2026-03-22T07:21:40.999Z</time></trkpt><trkpt lat="45.06487027552924" lon="9.994320426931075"><ele>35.0</ele><time>2026-03-22T07:21:41.999Z</time></trkpt><trkpt lat="45.06483087974524" lon="9.994418139648033"><ele>35.0</ele><time>2026-03-22T07:21:42.999Z</time></trkpt><trkpt lat="45.06479234646198" lon="9.994514109254808"><ele>35.0</ele><time>2026-03-22T07:21:43.999Z</time></trkpt><trkpt lat="45.06475295129286" lon="9.994610288029937"><ele>35.0</ele><time>2026-03-22T07:21:44.999Z</time></trkpt><trkpt lat="45.064714952837996" lon="9.994709740657688"><ele>35.0</ele><time>2026-03-22T07:21:45.999Z</time></trkpt><trkpt lat="45.064678109759505" lon="9.994807660635885"><ele>35.0</ele><time>2026-03-22T07:21:46.999Z</time></trkpt><trkpt lat="45.064636285767556" lon="9.994904965110472"><ele>35.0</ele><time>2026-03-22T07:21:47.999Z</time></trkpt><trkpt lat="45.06459441564603" lon="9.995000157642115"><ele>35.0</ele><time>2026-03-22T07:21:48.999Z</time></trkpt><trkpt lat="45.06454900205205" lon="9.995092709939245"><ele>35.0</ele><time>2026-03-22T07:21:49.999Z</time></trkpt><trkpt lat="45.06450661970616" lon="9.995186953247089"><ele>35.0</ele><time>2026-03-22T07:21:50.999Z</time></trkpt><trkpt lat="45.06446434357976" lon="9.9952791353808"><ele>35.0</ele><time>2026-03-22T07:21:51.999Z</time></trkpt><trkpt lat="45.06442090003999" lon="9.99537270605862"><ele>35.0</ele><time>2026-03-22T07:21:52.999Z</time></trkpt><trkpt lat="45.06437924924749" lon="9.995467812460548"><ele>35.0</ele><time>2026-03-22T07:21:53.999Z</time></trkpt><trkpt lat="45.06433811721083" lon="9.995563586420547"><ele>35.0</ele><time>2026-03-22T07:21:54.999Z</time></trkpt><trkpt lat="45.06429584967849" lon="9.995657535762508"><ele>35.0</ele><time>2026-03-22T07:21:55.998Z</time></trkpt><trkpt lat="45.064255242255776" lon="9.995750729821328"><ele>35.0</ele><time>2026-03-22T07:21:56.998Z</time></trkpt><trkpt lat="45.06421319786999" lon="9.995844007133684"><ele>35.0</ele><time>2026-03-22T07:21:57.998Z</time></trkpt><trkpt lat="45.06417205998127" lon="9.995935414242897"><ele>35.0</ele><time>2026-03-22T07:21:58.998Z</time></trkpt><trkpt lat="45.0641294065773" lon="9.996027614327675"><ele>35.166666666666664</ele><time>2026-03-22T07:21:59.998Z</time></trkpt><trkpt lat="45.064084244857746" lon="9.996116770024674"><ele>35.33333333333333</ele><time>2026-03-22T07:22:00.998Z</time></trkpt><trkpt lat="45.06403507103064" lon="9.99620098523097"><ele>35.5</ele><time>2026-03-22T07:22:01.998Z</time></trkpt><trkpt lat="45.06396786592839" lon="9.996251301051842"><ele>35.666666666666664</ele><time>2026-03-22T07:22:02.998Z</time></trkpt><trkpt lat="45.06388556884776" lon="9.996238519776425"><ele>35.833333333333336</ele><time>2026-03-22T07:22:03.998Z</time></trkpt><trkpt lat="45.06381013748276" lon="9.996179914341043"><ele>36.0</ele><time>2026-03-22T07:22:04.998Z</time></trkpt><trkpt lat="45.06375081662695" lon="9.996100681771946"><ele>36.0</ele><time>2026-03-22T07:22:05.998Z</time></trkpt><trkpt lat="45.06369129554737" lon="9.99602289972804"><ele>36.0</ele><time>2026-03-22T07:22:06.998Z</time></trkpt><trkpt lat="45.06363423211305" lon="9.995949512221015"><ele>36.0</ele><time>2026-03-22T07:22:07.998Z</time></trkpt><trkpt lat="45.063577271225384" lon="9.995872922490133"><ele>36.0</ele><time>2026-03-22T07:22:08.998Z</time></trkpt><trkpt lat="45.0635211845613" lon="9.99579718042861"><ele>36.0</ele><time>2026-03-22T07:22:09.998Z</time></trkpt><trkpt lat="45.06346629018366" lon="9.995721856517493"><ele>36.0</ele><time>2026-03-22T07:22:10.998Z</time></trkpt><trkpt lat="45.0634128853229" lon="9.995641964745577"><ele>36.0</ele><time>2026-03-22T07:22:11.998Z</time></trkpt><trkpt lat="45.06335728780862" lon="9.99556747386903"><ele>36.0</ele><time>2026-03-22T07:22:12.998Z</time></trkpt><trkpt lat="45.063294190920345" lon="9.995502194092433"><ele>36.0</ele><time>2026-03-22T07:22:13.998Z</time></trkpt><trkpt lat="45.06322667403502" lon="9.995444764923187"><ele>36.0</ele><time>2026-03-22T07:22:14.998Z</time></trkpt><trkpt lat="45.063157839075956" lon="9.995394416624448"><ele>36.0</ele><time>2026-03-22T07:22:15.998Z</time></trkpt><trkpt lat="45.06308203990917" lon="9.995357694225918"><ele>36.0</ele><time>2026-03-22T07:22:16.998Z</time></trkpt><trkpt lat="45.06300573569008" lon="9.995326602625031"><ele>36.0</ele><time>2026-03-22T07:22:17.998Z</time></trkpt><trkpt lat="45.06293043667754" lon="9.995294620257651"><ele>36.0</ele><time>2026-03-22T07:22:18.998Z</time></trkpt><trkpt lat="45.06285600464118" lon="9.995254875830248"><ele>36.0</ele><time>2026-03-22T07:22:19.998Z</time></trkpt><trkpt lat="45.06278258794934" lon="9.995207725890918"><ele>36.0</ele><time>2026-03-22T07:22:20.998Z</time></trkpt><trkpt lat="45.062709286960086" lon="9.995165457483717"><ele>36.0</ele><time>2026-03-22T07:22:21.998Z</time></trkpt><trkpt lat="45.062636042991905" lon="9.995121131451612"><ele>36.0</ele><time>2026-03-22T07:22:22.998Z</time></trkpt><trkpt lat="45.06256473405002" lon="9.995075413809444"><ele>36.0</ele><time>2026-03-22T07:22:23.998Z</time></trkpt><trkpt lat="45.062494951453225" lon="9.995026816030185"><ele>36.0</ele><time>2026-03-22T07:22:24.998Z</time></trkpt><trkpt lat="45.062424504454576" lon="9.994977566645488"><ele>36.0</ele><time>2026-03-22T07:22:25.998Z</time></trkpt><trkpt lat="45.06235208550277" lon="9.994931938513448"><ele>36.0</ele><time>2026-03-22T07:22:26.998Z</time></trkpt><trkpt lat="45.062279959740444" lon="9.99488344206148"><ele>36.0</ele><time>2026-03-22T07:22:27.998Z</time></trkpt><trkpt lat="45.062210321524205" lon="9.994836416960709"><ele>36.0</ele><time>2026-03-22T07:22:29Z</time></trkpt><trkpt lat="45.06213810635881" lon="9.994789161237279"><ele>35.833333333333336</ele><time>2026-03-22T07:22:30Z</time></trkpt><trkpt lat="45.06206582679823" lon="9.994746246074467"><ele>35.666666666666664</ele><time>2026-03-22T07:22:31Z</time></trkpt><trkpt lat="45.061992171818204" lon="9.994704540079836"><ele>35.5</ele><time>2026-03-22T07:22:32Z</time></trkpt><trkpt lat="45.06191711681593" lon="9.994667412945573"><ele>35.33333333333333</ele><time>2026-03-22T07:22:33Z</time></trkpt><trkpt lat="45.06184317385346" lon="9.994636242720969"><ele>35.166666666666664</ele><time>2026-03-22T07:22:34Z</time></trkpt><trkpt lat="45.06176669471841" lon="9.994602158911068"><ele>35.0</ele><time>2026-03-22T07:22:35Z</time></trkpt><trkpt lat="45.06169231144293" lon="9.994568394972415"><ele>35.0</ele><time>2026-03-22T07:22:36Z</time></trkpt><trkpt lat="45.061616215249806" lon="9.994533650159157"><ele>35.0</ele><time>2026-03-22T07:22:37Z</time></trkpt><trkpt lat="45.06154307578231" lon="9.994499608319842"><ele>35.0</ele><time>2026-03-22T07:22:38Z</time></trkpt><trkpt lat="45.06146873977142" lon="9.99446524989587"><ele>35.0</ele><time>2026-03-22T07:22:39Z</time></trkpt><trkpt lat="45.06139447234398" lon="9.994429626462296"><ele>35.0</ele><time>2026-03-22T07:22:40Z</time></trkpt><trkpt lat="45.061320556968084" lon="9.994396270590183"><ele>35.0</ele><time>2026-03-22T07:22:41Z</time></trkpt><trkpt lat="45.06124545453853" lon="9.994361512125316"><ele>34.83333333333333</ele><time>2026-03-22T07:22:42Z</time></trkpt><trkpt lat="45.06117066397422" lon="9.994326548414001"><ele>34.666666666666664</ele><time>2026-03-22T07:22:43Z</time></trkpt><trkpt lat="45.06109646422089" lon="9.994292286350126"><ele>34.5</ele><time>2026-03-22T07:22:44Z</time></trkpt><trkpt lat="45.06102290352269" lon="9.994258348165063"><ele>34.333333333333336</ele><time>2026-03-22T07:22:45Z</time></trkpt><trkpt lat="45.06094922413551" lon="9.994224403488818"><ele>34.16666666666667</ele><time>2026-03-22T07:22:46Z</time></trkpt><trkpt lat="45.060874441600596" lon="9.994194258137338"><ele>34.0</ele><time>2026-03-22T07:22:47Z</time></trkpt><trkpt lat="45.06080044945385" lon="9.994155001809021"><ele>34.0</ele><time>2026-03-22T07:22:48Z</time></trkpt><trkpt lat="45.0607261401207" lon="9.994116649317297"><ele>34.0</ele><time>2026-03-22T07:22:49Z</time></trkpt><trkpt lat="45.06065457663302" lon="9.994074778937872"><ele>34.0</ele><time>2026-03-22T07:22:50Z</time></trkpt><trkpt lat="45.06058325278648" lon="9.994028780182907"><ele>34.0</ele><time>2026-03-22T07:22:51Z</time></trkpt><trkpt lat="45.060511513864334" lon="9.993979627256707"><ele>34.0</ele><time>2026-03-22T07:22:52Z</time></trkpt><trkpt lat="45.06044167828368" lon="9.993931018983304"><ele>34.0</ele><time>2026-03-22T07:22:53Z</time></trkpt><trkpt lat="45.06037195390642" lon="9.99387769676246"><ele>34.0</ele><time>2026-03-22T07:22:54Z</time></trkpt><trkpt lat="45.06030313320597" lon="9.993823683273623"><ele>34.0</ele><time>2026-03-22T07:22:55Z</time></trkpt><trkpt lat="45.060236090751864" lon="9.993767661353248"><ele>34.0</ele><time>2026-03-22T07:22:56Z</time></trkpt><trkpt lat="45.06016981377374" lon="9.993709744414499"><ele>34.0</ele><time>2026-03-22T07:22:57Z</time></trkpt><trkpt lat="45.06010479672135" lon="9.993655611552946"><ele>34.0</ele><time>2026-03-22T07:22:58Z</time></trkpt><trkpt lat="45.06003864888378" lon="9.993595540648311"><ele>34.0</ele><time>2026-03-22T07:22:59Z</time></trkpt><trkpt lat="45.05997168973326" lon="9.993535017188972"><ele>34.0</ele><time>2026-03-22T07:23:00Z</time></trkpt><trkpt lat="45.05990590737028" lon="9.993478842108686"><ele>34.0</ele><time>2026-03-22T07:23:00.999Z</time></trkpt><trkpt lat="45.05983888684082" lon="9.99341865143151"><ele>34.0</ele><time>2026-03-22T07:23:01.999Z</time></trkpt><trkpt lat="45.05977345974338" lon="9.993361055157647"><ele>34.0</ele><time>2026-03-22T07:23:02.999Z</time></trkpt><trkpt lat="45.05970543182039" lon="9.99330278594564"><ele>34.0</ele><time>2026-03-22T07:23:03.999Z</time></trkpt><trkpt lat="45.059639640717315" lon="9.993241179810159"><ele>34.0</ele><time>2026-03-22T07:23:04.999Z</time></trkpt><trkpt lat="45.059575619088214" lon="9.993180114467963"><ele>34.0</ele><time>2026-03-22T07:23:05.999Z</time></trkpt><trkpt lat="45.05951236289394" lon="9.99311772801318"><ele>34.0</ele><time>2026-03-22T07:23:06.999Z</time></trkpt><trkpt lat="45.05944901099536" lon="9.99305428124797"><ele>34.0</ele><time>2026-03-22T07:23:07.999Z</time></trkpt><trkpt lat="45.05938313749" lon="9.99299447434463"><ele>34.0</ele><time>2026-03-22T07:23:08.999Z</time></trkpt><trkpt lat="45.05931855653118" lon="9.992932892454906"><ele>34.0</ele><time>2026-03-22T07:23:09.999Z</time></trkpt><trkpt lat="45.059253110129134" lon="9.992868382317113"><ele>34.0</ele><time>2026-03-22T07:23:10.999Z</time></trkpt><trkpt lat="45.05918797072549" lon="9.992806322852749"><ele>34.0</ele><time>2026-03-22T07:23:11.999Z</time></trkpt><trkpt lat="45.059123801877774" lon="9.992739406396513"><ele>34.0</ele><time>2026-03-22T07:23:12.999Z</time></trkpt><trkpt lat="45.0590590938294" lon="9.992676714490756"><ele>34.0</ele><time>2026-03-22T07:23:13.999Z</time></trkpt><trkpt lat="45.058994235207685" lon="9.992609919590608"><ele>34.0</ele><time>2026-03-22T07:23:14.999Z</time></trkpt><trkpt lat="45.058930890845104" lon="9.992540120858699"><ele>34.0</ele><time>2026-03-22T07:23:15.999Z</time></trkpt><trkpt lat="45.05887047438176" lon="9.992467184778851"><ele>34.0</ele><time>2026-03-22T07:23:16.999Z</time></trkpt><trkpt lat="45.05880973725174" lon="9.992391877713521"><ele>34.16666666666667</ele><time>2026-03-22T07:23:17.999Z</time></trkpt><trkpt lat="45.058751386022124" lon="9.992313880999674"><ele>34.333333333333336</ele><time>2026-03-22T07:23:18.999Z</time></trkpt><trkpt lat="45.058694844698515" lon="9.992235526305025"><ele>34.5</ele><time>2026-03-22T07:23:19.999Z</time></trkpt><trkpt lat="45.05863732902473" lon="9.992156839293973"><ele>34.666666666666664</ele><time>2026-03-22T07:23:20.999Z</time></trkpt><trkpt lat="45.058582378131284" lon="9.992076199634175"><ele>34.83333333333333</ele><time>2026-03-22T07:23:21.999Z</time></trkpt><trkpt lat="45.05854025439444" lon="9.991977675244344"><ele>35.0</ele><time>2026-03-22T07:23:22.999Z</time></trkpt><trkpt lat="45.058489710052214" lon="9.991892188898198"><ele>35.0</ele><time>2026-03-22T07:23:23.999Z</time></trkpt><trkpt lat="45.058438724465546" lon="9.99180471991085"><ele>35.0</ele><time>2026-03-22T07:23:24.999Z</time></trkpt><trkpt lat="45.058379016347665" lon="9.9917292130637"><ele>35.0</ele><time>2026-03-22T07:23:25.999Z</time></trkpt><trkpt lat="45.05833272545791" lon="9.991638240962676"><ele>35.0</ele><time>2026-03-22T07:23:26.999Z</time></trkpt><trkpt lat="45.05828191281408" lon="9.991549278487142"><ele>35.0</ele><time>2026-03-22T07:23:27.999Z</time></trkpt><trkpt lat="45.05822892151324" lon="9.99146500562927"><ele>35.0</ele><time>2026-03-22T07:23:28.999Z</time></trkpt><trkpt lat="45.058176830475276" lon="9.991382000526047"><ele>35.166666666666664</ele><time>2026-03-22T07:23:29.999Z</time></trkpt><trkpt lat="45.05811976561101" lon="9.991306884954733"><ele>35.33333333333333</ele><time>2026-03-22T07:23:30.999Z</time></trkpt><trkpt lat="45.058059777969035" lon="9.991231700755336"><ele>35.5</ele><time>2026-03-22T07:23:31.999Z</time></trkpt><trkpt lat="45.05799760536873" lon="9.991161471102332"><ele>35.666666666666664</ele><time>2026-03-22T07:23:32.999Z</time></trkpt><trkpt lat="45.05793589837582" lon="9.991091024936724"><ele>35.833333333333336</ele><time>2026-03-22T07:23:33.999Z</time></trkpt><trkpt lat="45.0578694980239" lon="9.991030427148136"><ele>36.0</ele><time>2026-03-22T07:23:34.999Z</time></trkpt><trkpt lat="45.0577986966297" lon="9.990973439048746"><ele>36.0</ele><time>2026-03-22T07:23:35.999Z</time></trkpt><trkpt lat="45.05772838264374" lon="9.99092232485064"><ele>36.0</ele><time>2026-03-22T07:23:36.999Z</time></trkpt><trkpt lat="45.0576547936604" lon="9.99087082742295"><ele>36.0</ele><time>2026-03-22T07:23:37.999Z</time></trkpt><trkpt lat="45.05758317463628" lon="9.990823810193742"><ele>36.0</ele><time>2026-03-22T07:23:38.999Z</time></trkpt><trkpt lat="45.057510778860404" lon="9.99077594058681"><ele>36.0</ele><time>2026-03-22T07:23:39.999Z</time></trkpt><trkpt lat="45.05743779894211" lon="9.990723773077564"><ele>36.0</ele><time>2026-03-22T07:23:40.999Z</time></trkpt><trkpt lat="45.05736802248451" lon="9.990669941427498"><ele>36.333333333333336</ele><time>2026-03-22T07:23:41.999Z</time></trkpt><trkpt lat="45.05729736044492" lon="9.99061644865246"><ele>36.666666666666664</ele><time>2026-03-22T07:23:42.999Z</time></trkpt><trkpt lat="45.05722570988862" lon="9.99056736467355"><ele>37.0</ele><time>2026-03-22T07:23:43.999Z</time></trkpt><trkpt lat="45.05715446552798" lon="9.99051868759702"><ele>37.33333333333333</ele><time>2026-03-22T07:23:44.999Z</time></trkpt><trkpt lat="45.05708256247217" lon="9.990467148420834"><ele>37.666666666666664</ele><time>2026-03-22T07:23:45.999Z</time></trkpt><trkpt lat="45.0570107511863" lon="9.990420354792299"><ele>38.0</ele><time>2026-03-22T07:23:46.999Z</time></trkpt><trkpt lat="45.056939340849034" lon="9.990370670294174"><ele>38.0</ele><time>2026-03-22T07:23:47.999Z</time></trkpt><trkpt lat="45.05686809026246" lon="9.990322097966121"><ele>38.0</ele><time>2026-03-22T07:23:48.999Z</time></trkpt><trkpt lat="45.056796937902924" lon="9.990272010507503"><ele>38.0</ele><time>2026-03-22T07:23:49.999Z</time></trkpt><trkpt lat="45.05672415361238" lon="9.990230716966474"><ele>38.0</ele><time>2026-03-22T07:23:50.999Z</time></trkpt><trkpt lat="45.05665138644966" lon="9.990191183338528"><ele>38.0</ele><time>2026-03-22T07:23:51.999Z</time></trkpt><trkpt lat="45.05657612918102" lon="9.99015939278375"><ele>38.0</ele><time>2026-03-22T07:23:52.999Z</time></trkpt><trkpt lat="45.05650244572096" lon="9.990142406517972"><ele>37.83333333333333</ele><time>2026-03-22T07:23:53.999Z</time></trkpt><trkpt lat="45.05642540489087" lon="9.990145051283063"><ele>37.666666666666664</ele><time>2026-03-22T07:23:54.999Z</time></trkpt><trkpt lat="45.05635032016282" lon="9.990158766238416"><ele>37.5</ele><time>2026-03-22T07:23:55.999Z</time></trkpt><trkpt lat="45.05627588571282" lon="9.990178735185404"><ele>37.333333333333336</ele><time>2026-03-22T07:23:56.999Z</time></trkpt><trkpt lat="45.05620435349806" lon="9.990201334563933"><ele>37.16666666666667</ele><time>2026-03-22T07:23:57.999Z</time></trkpt><trkpt lat="45.05613088546209" lon="9.990225960721178"><ele>37.0</ele><time>2026-03-22T07:23:58.999Z</time></trkpt><trkpt lat="45.056055907404634" lon="9.990246170560038"><ele>37.0</ele><time>2026-03-22T07:23:59.999Z</time></trkpt><trkpt lat="45.05597914114616" lon="9.990269316009762"><ele>37.0</ele><time>2026-03-22T07:24:00.999Z</time></trkpt><trkpt lat="45.055906995872064" lon="9.990293269091099"><ele>37.0</ele><time>2026-03-22T07:24:01.999Z</time></trkpt><trkpt lat="45.05583236383105" lon="9.990315763737213"><ele>37.0</ele><time>2026-03-22T07:24:02.999Z</time></trkpt><trkpt lat="45.05575726221457" lon="9.990332706271252"><ele>37.0</ele><time>2026-03-22T07:24:03.998Z</time></trkpt><trkpt lat="45.05568202202463" lon="9.990342560241135"><ele>37.0</ele><time>2026-03-22T07:24:04.998Z</time></trkpt><trkpt lat="45.05560727754906" lon="9.990347205338862"><ele>37.0</ele><time>2026-03-22T07:24:05.998Z</time></trkpt><trkpt lat="45.055532852992386" lon="9.990341526517547"><ele>37.0</ele><time>2026-03-22T07:24:06.998Z</time></trkpt><trkpt lat="45.05545948838142" lon="9.990320940455234"><ele>37.0</ele><time>2026-03-22T07:24:07.998Z</time></trkpt><trkpt lat="45.05538856799965" lon="9.990282910176765"><ele>37.0</ele><time>2026-03-22T07:24:08.998Z</time></trkpt><trkpt lat="45.055322684021895" lon="9.990234395662794"><ele>37.0</ele><time>2026-03-22T07:24:09.998Z</time></trkpt><trkpt lat="45.05525493900398" lon="9.99018411797117"><ele>37.0</ele><time>2026-03-22T07:24:10.998Z</time></trkpt><trkpt lat="45.055187880409655" lon="9.990135256089934"><ele>37.0</ele><time>2026-03-22T07:24:11.998Z</time></trkpt><trkpt lat="45.05512463015569" lon="9.990070774623184"><ele>37.0</ele><time>2026-03-22T07:24:12.998Z</time></trkpt><trkpt lat="45.05506963075967" lon="9.989996187616798"><ele>37.0</ele><time>2026-03-22T07:24:13.998Z</time></trkpt><trkpt lat="45.05502378085754" lon="9.989908248288652"><ele>37.0</ele><time>2026-03-22T07:24:14.998Z</time></trkpt><trkpt lat="45.05497614641411" lon="9.989819060187584"><ele>37.0</ele><time>2026-03-22T07:24:15.998Z</time></trkpt><trkpt lat="45.05492561056074" lon="9.98973823298996"><ele>37.0</ele><time>2026-03-22T07:24:16.998Z</time></trkpt><trkpt lat="45.0548685569843" lon="9.989660162183753"><ele>37.0</ele><time>2026-03-22T07:24:17.998Z</time></trkpt><trkpt lat="45.054819268097944" lon="9.98957807293488"><ele>37.0</ele><time>2026-03-22T07:24:18.998Z</time></trkpt><trkpt lat="45.05476639050857" lon="9.989496559461134"><ele>37.0</ele><time>2026-03-22T07:24:19.998Z</time></trkpt><trkpt lat="45.05471629982254" lon="9.989414832702275"><ele>37.0</ele><time>2026-03-22T07:24:20.998Z</time></trkpt><trkpt lat="45.054662132601734" lon="9.989332345524092"><ele>37.0</ele><time>2026-03-22T07:24:21.998Z</time></trkpt><trkpt lat="45.054610344507324" lon="9.989252332859978"><ele>37.0</ele><time>2026-03-22T07:24:22.998Z</time></trkpt><trkpt lat="45.05455678011572" lon="9.989171698616088"><ele>37.0</ele><time>2026-03-22T07:24:23.998Z</time></trkpt><trkpt lat="45.054504092461926" lon="9.989089031012814"><ele>37.0</ele><time>2026-03-22T07:24:24.998Z</time></trkpt><trkpt lat="45.054451086209326" lon="9.989004302100062"><ele>37.0</ele><time>2026-03-22T07:24:25.998Z</time></trkpt><trkpt lat="45.05440027532412" lon="9.988923162804083"><ele>37.0</ele><time>2026-03-22T07:24:26.998Z</time></trkpt><trkpt lat="45.05434905841185" lon="9.988840529935871"><ele>37.0</ele><time>2026-03-22T07:24:27.998Z</time></trkpt><trkpt lat="45.054298604698296" lon="9.988758958595735"><ele>37.0</ele><time>2026-03-22T07:24:28.998Z</time></trkpt><trkpt lat="45.05424614651605" lon="9.988678659773212"><ele>37.0</ele><time>2026-03-22T07:24:29.998Z</time></trkpt><trkpt lat="45.05419355800262" lon="9.988599454110714"><ele>37.0</ele><time>2026-03-22T07:24:30.998Z</time></trkpt><trkpt lat="45.054141081082136" lon="9.988518921117944"><ele>37.0</ele><time>2026-03-22T07:24:31.998Z</time></trkpt><trkpt lat="45.05409034918632" lon="9.988441197534302"><ele>37.0</ele><time>2026-03-22T07:24:32.998Z</time></trkpt><trkpt lat="45.05404366757988" lon="9.988361509051154"><ele>37.0</ele><time>2026-03-22T07:24:33.998Z</time></trkpt><trkpt lat="45.053990456870594" lon="9.988302757348636"><ele>37.0</ele><time>2026-03-22T07:24:35Z</time></trkpt><trkpt lat="45.053926219351865" lon="9.988256030637272"><ele>37.0</ele><time>2026-03-22T07:24:36Z</time></trkpt><trkpt lat="45.05385102092017" lon="9.988236346384875"><ele>37.0</ele><time>2026-03-22T07:24:37Z</time></trkpt><trkpt lat="45.053776381966856" lon="9.988226633745166"><ele>37.0</ele><time>2026-03-22T07:24:38Z</time></trkpt><trkpt lat="45.053695882161975" lon="9.988218386180696"><ele>37.0</ele><time>2026-03-22T07:24:39Z</time></trkpt><trkpt lat="45.05361752837395" lon="9.98820695160386"><ele>37.0</ele><time>2026-03-22T07:24:40Z</time></trkpt><trkpt lat="45.05353860172304" lon="9.988192100142145"><ele>37.0</ele><time>2026-03-22T07:24:41Z</time></trkpt><trkpt lat="45.053458774964184" lon="9.988179039409665"><ele>37.0</ele><time>2026-03-22T07:24:42Z</time></trkpt><trkpt lat="45.05337898819311" lon="9.988165782396068"><ele>37.0</ele><time>2026-03-22T07:24:43Z</time></trkpt><trkpt lat="45.05329947326105" lon="9.988153247159778"><ele>37.0</ele><time>2026-03-22T07:24:44Z</time></trkpt><trkpt lat="45.053219990165104" lon="9.988139225176434"><ele>37.0</ele><time>2026-03-22T07:24:45Z</time></trkpt><trkpt lat="45.05314319323733" lon="9.98813190206019"><ele>37.0</ele><time>2026-03-22T07:24:46Z</time></trkpt><trkpt lat="45.05307095266252" lon="9.988126031438485"><ele>37.0</ele><time>2026-03-22T07:24:47Z</time></trkpt><trkpt lat="45.05300157519082" lon="9.988113630453544"><ele>37.0</ele><time>2026-03-22T07:24:48Z</time></trkpt><trkpt lat="45.05293313117772" lon="9.988105537950545"><ele>37.0</ele><time>2026-03-22T07:24:49Z</time></trkpt><trkpt lat="45.0528681556423" lon="9.988092066830832"><ele>36.85714285714286</ele><time>2026-03-22T07:24:50Z</time></trkpt><trkpt lat="45.0528028816724" lon="9.988079446167387"><ele>36.714285714285715</ele><time>2026-03-22T07:24:51Z</time></trkpt><trkpt lat="45.05273995607292" lon="9.988064750809823"><ele>36.57142857142857</ele><time>2026-03-22T07:24:52Z</time></trkpt><trkpt lat="45.05267462538564" lon="9.988052761133062"><ele>36.42857142857143</ele><time>2026-03-22T07:24:53Z</time></trkpt><trkpt lat="45.05260652822281" lon="9.988040225920239"><ele>36.285714285714285</ele><time>2026-03-22T07:24:54Z</time></trkpt><trkpt lat="45.05253931703212" lon="9.988028939253564"><ele>36.142857142857146</ele><time>2026-03-22T07:24:55Z</time></trkpt><trkpt lat="45.05247090059351" lon="9.988017097666681"><ele>36.0</ele><time>2026-03-22T07:24:56Z</time></trkpt><trkpt lat="45.05240317220135" lon="9.988002457139334"><ele>36.00000000000001</ele><time>2026-03-22T07:24:57Z</time></trkpt><trkpt lat="45.05233413893005" lon="9.98798943910613"><ele>36.0</ele><time>2026-03-22T07:24:58Z</time></trkpt><trkpt lat="45.05226770006918" lon="9.987971100083563"><ele>36.0</ele><time>2026-03-22T07:24:59Z</time></trkpt><trkpt lat="45.05219946450056" lon="9.9879555649837"><ele>36.0</ele><time>2026-03-22T07:25:00Z</time></trkpt><trkpt lat="45.05213068147358" lon="9.987939777071093"><ele>36.0</ele><time>2026-03-22T07:25:01Z</time></trkpt><trkpt lat="45.05205973518614" lon="9.987919560863123"><ele>36.00000000000001</ele><time>2026-03-22T07:25:02Z</time></trkpt><trkpt lat="45.051986293396766" lon="9.987903594132389"><ele>36.0</ele><time>2026-03-22T07:25:03Z</time></trkpt><trkpt lat="45.05191136694532" lon="9.987887774819287"><ele>36.00000000000001</ele><time>2026-03-22T07:25:04Z</time></trkpt><trkpt lat="45.0518353697218" lon="9.987879258075008"><ele>36.0</ele><time>2026-03-22T07:25:05Z</time></trkpt><trkpt lat="45.051761806130806" lon="9.987870064930831"><ele>36.0</ele><time>2026-03-22T07:25:06Z</time></trkpt><trkpt lat="45.05168998126065" lon="9.987856850706653"><ele>36.0</ele><time>2026-03-22T07:25:06.999Z</time></trkpt><trkpt lat="45.0516148722166" lon="9.98784350662662"><ele>36.0</ele><time>2026-03-22T07:25:07.999Z</time></trkpt><trkpt lat="45.051540523160554" lon="9.987831115204965"><ele>36.00000000000001</ele><time>2026-03-22T07:25:08.999Z</time></trkpt><trkpt lat="45.05146727149446" lon="9.9878194938319"><ele>36.0</ele><time>2026-03-22T07:25:09.999Z</time></trkpt><trkpt lat="45.05139406405612" lon="9.987805258088878"><ele>35.85714285714286</ele><time>2026-03-22T07:25:10.999Z</time></trkpt><trkpt lat="45.05132046170404" lon="9.987793518437297"><ele>35.714285714285715</ele><time>2026-03-22T07:25:11.999Z</time></trkpt><trkpt lat="45.05124618270422" lon="9.987779883475353"><ele>35.57142857142857</ele><time>2026-03-22T07:25:12.999Z</time></trkpt><trkpt lat="45.05117325814559" lon="9.987764470733492"><ele>35.42857142857143</ele><time>2026-03-22T07:25:13.999Z</time></trkpt><trkpt lat="45.05109906809104" lon="9.98774796778594"><ele>35.285714285714285</ele><time>2026-03-22T07:25:14.999Z</time></trkpt><trkpt lat="45.05102661308157" lon="9.98773447375248"><ele>35.142857142857146</ele><time>2026-03-22T07:25:15.999Z</time></trkpt><trkpt lat="45.050953372963306" lon="9.987723638165866"><ele>35.0</ele><time>2026-03-22T07:25:16.999Z</time></trkpt><trkpt lat="45.05088146621136" lon="9.987711441959854"><ele>35.0</ele><time>2026-03-22T07:25:17.999Z</time></trkpt><trkpt lat="45.05081136568852" lon="9.9876940681647"><ele>35.0</ele><time>2026-03-22T07:25:18.999Z</time></trkpt><trkpt lat="45.050741245399294" lon="9.987682072592998"><ele>35.0</ele><time>2026-03-22T07:25:19.999Z</time></trkpt><trkpt lat="45.05067119481395" lon="9.98767111267585"><ele>35.0</ele><time>2026-03-22T07:25:20.999Z</time></trkpt><trkpt lat="45.05060080553613" lon="9.987661490910487"><ele>35.0</ele><time>2026-03-22T07:25:21.999Z</time></trkpt><trkpt lat="45.050529986939736" lon="9.987646679422028"><ele>35.0</ele><time>2026-03-22T07:25:22.999Z</time></trkpt><trkpt lat="45.050457043942494" lon="9.98763416232285"><ele>35.0</ele><time>2026-03-22T07:25:23.999Z</time></trkpt><trkpt lat="45.050383719905945" lon="9.987620895995962"><ele>35.0</ele><time>2026-03-22T07:25:24.999Z</time></trkpt><trkpt lat="45.050309174050504" lon="9.98760978694494"><ele>35.0</ele><time>2026-03-22T07:25:25.999Z</time></trkpt><trkpt lat="45.050231089754774" lon="9.987594569440532"><ele>35.0</ele><time>2026-03-22T07:25:26.999Z</time></trkpt><trkpt lat="45.05015531263638" lon="9.987581224411567"><ele>35.0</ele><time>2026-03-22T07:25:27.999Z</time></trkpt><trkpt lat="45.050078407007554" lon="9.98756822231621"><ele>35.0</ele><time>2026-03-22T07:25:28.999Z</time></trkpt><trkpt lat="45.050002301913935" lon="9.987555104790243"><ele>35.0</ele><time>2026-03-22T07:25:29.999Z</time></trkpt><trkpt lat="45.04992524881808" lon="9.987542140409376"><ele>35.0</ele><time>2026-03-22T07:25:30.999Z</time></trkpt><trkpt lat="45.04984894736721" lon="9.987529278784256"><ele>35.0</ele><time>2026-03-22T07:25:31.999Z</time></trkpt><trkpt lat="45.049772169955695" lon="9.987513081852763"><ele>35.0</ele><time>2026-03-22T07:25:32.999Z</time></trkpt><trkpt lat="45.04969636523806" lon="9.987498104063585"><ele>35.0</ele><time>2026-03-22T07:25:33.999Z</time></trkpt><trkpt lat="45.049619778064574" lon="9.987486494404624"><ele>35.0</ele><time>2026-03-22T07:25:34.999Z</time></trkpt><trkpt lat="45.049541579973386" lon="9.987475333776983"><ele>35.0</ele><time>2026-03-22T07:25:35.999Z</time></trkpt><trkpt lat="45.04946369543458" lon="9.987460380560961"><ele>35.0</ele><time>2026-03-22T07:25:36.999Z</time></trkpt><trkpt lat="45.04938612555118" lon="9.987446545711096"><ele>35.0</ele><time>2026-03-22T07:25:37.999Z</time></trkpt><trkpt lat="45.049306812397816" lon="9.987432779670806"><ele>35.0</ele><time>2026-03-22T07:25:38.999Z</time></trkpt><trkpt lat="45.04922904353213" lon="9.987417731941951"><ele>35.0</ele><time>2026-03-22T07:25:39.999Z</time></trkpt><trkpt lat="45.04915060924754" lon="9.987404468466115"><ele>35.0</ele><time>2026-03-22T07:25:40.999Z</time></trkpt><trkpt lat="45.04906928371514" lon="9.987393745403617"><ele>35.0</ele><time>2026-03-22T07:25:41.999Z</time></trkpt><trkpt lat="45.04898980413869" lon="9.987383010466765"><ele>35.33333333333333</ele><time>2026-03-22T07:25:42.999Z</time></trkpt><trkpt lat="45.04891121870647" lon="9.98736958994849"><ele>35.666666666666664</ele><time>2026-03-22T07:25:43.999Z</time></trkpt><trkpt lat="45.04883178182441" lon="9.98735667599593"><ele>36.0</ele><time>2026-03-22T07:25:44.999Z</time></trkpt><trkpt lat="45.04875292028226" lon="9.987346963381652"><ele>36.333333333333336</ele><time>2026-03-22T07:25:45.999Z</time></trkpt><trkpt lat="45.048672285361846" lon="9.987337120729038"><ele>36.66666666666667</ele><time>2026-03-22T07:25:46.999Z</time></trkpt><trkpt lat="45.04859429875625" lon="9.98732499410517"><ele>37.0</ele><time>2026-03-22T07:25:47.999Z</time></trkpt><trkpt lat="45.04851718912915" lon="9.987312856003316"><ele>37.0</ele><time>2026-03-22T07:25:48.999Z</time></trkpt><trkpt lat="45.048439825158006" lon="9.987302416292431"><ele>37.0</ele><time>2026-03-22T07:25:49.999Z</time></trkpt><trkpt lat="45.048363332231304" lon="9.987290613155274"><ele>37.0</ele><time>2026-03-22T07:25:50.999Z</time></trkpt><trkpt lat="45.04828754904956" lon="9.987278422595148"><ele>37.0</ele><time>2026-03-22T07:25:51.999Z</time></trkpt><trkpt lat="45.04820967356716" lon="9.987267204915112"><ele>37.0</ele><time>2026-03-22T07:25:52.999Z</time></trkpt><trkpt lat="45.04813696285182" lon="9.987257068553745"><ele>37.0</ele><time>2026-03-22T07:25:53.999Z</time></trkpt><trkpt lat="45.04806429800147" lon="9.987243349775346"><ele>37.0</ele><time>2026-03-22T07:25:54.999Z</time></trkpt><trkpt lat="45.04799361632439" lon="9.987236319602916"><ele>37.0</ele><time>2026-03-22T07:25:55.999Z</time></trkpt><trkpt lat="45.04792320704506" lon="9.987230866188542"><ele>37.0</ele><time>2026-03-22T07:25:56.999Z</time></trkpt><trkpt lat="45.04785112091704" lon="9.98722265615257"><ele>37.0</ele><time>2026-03-22T07:25:57.999Z</time></trkpt><trkpt lat="45.04777722693316" lon="9.98721016195664"><ele>37.0</ele><time>2026-03-22T07:25:58.999Z</time></trkpt><trkpt lat="45.047705162918035" lon="9.987198899968513"><ele>37.0</ele><time>2026-03-22T07:25:59.999Z</time></trkpt><trkpt lat="45.047631733008124" lon="9.987190719581857"><ele>37.0</ele><time>2026-03-22T07:26:00.999Z</time></trkpt><trkpt lat="45.04755710057111" lon="9.987182296117213"><ele>37.0</ele><time>2026-03-22T07:26:01.999Z</time></trkpt><trkpt lat="45.04748119713536" lon="9.987172005393099"><ele>37.0</ele><time>2026-03-22T07:26:02.999Z</time></trkpt><trkpt lat="45.04740733261602" lon="9.987159289269767"><ele>37.0</ele><time>2026-03-22T07:26:03.999Z</time></trkpt><trkpt lat="45.04733254002864" lon="9.987146192790412"><ele>37.0</ele><time>2026-03-22T07:26:04.999Z</time></trkpt><trkpt lat="45.047258100011426" lon="9.9871363231139"><ele>37.0</ele><time>2026-03-22T07:26:05.999Z</time></trkpt><trkpt lat="45.04718341081262" lon="9.987127759491372"><ele>37.0</ele><time>2026-03-22T07:26:06.998Z</time></trkpt><trkpt lat="45.047109203956275" lon="9.987116526622001"><ele>36.57142857142857</ele><time>2026-03-22T07:26:07.998Z</time></trkpt><trkpt lat="45.04703633970019" lon="9.987107027173398"><ele>36.14285714285714</ele><time>2026-03-22T07:26:08.998Z</time></trkpt><trkpt lat="45.046965938818815" lon="9.987095599804125"><ele>35.71428571428571</ele><time>2026-03-22T07:26:09.998Z</time></trkpt><trkpt lat="45.0468935766717" lon="9.987087788692431"><ele>35.285714285714285</ele><time>2026-03-22T07:26:10.998Z</time></trkpt><trkpt lat="45.04681837165131" lon="9.987081008199583"><ele>34.857142857142854</ele><time>2026-03-22T07:26:11.998Z</time></trkpt><trkpt lat="45.04674413128878" lon="9.98707295870834"><ele>34.42857142857142</ele><time>2026-03-22T07:26:12.998Z</time></trkpt><trkpt lat="45.04666991183827" lon="9.987061845010732"><ele>34.0</ele><time>2026-03-22T07:26:13.998Z</time></trkpt><trkpt lat="45.04659473993655" lon="9.98705153592062"><ele>34.0</ele><time>2026-03-22T07:26:14.998Z</time></trkpt><trkpt lat="45.046519314015185" lon="9.987041299299062"><ele>34.0</ele><time>2026-03-22T07:26:15.998Z</time></trkpt><trkpt lat="45.04644565908957" lon="9.98702975586603"><ele>34.0</ele><time>2026-03-22T07:26:16.998Z</time></trkpt><trkpt lat="45.04637197396459" lon="9.987021254908512"><ele>34.0</ele><time>2026-03-22T07:26:17.998Z</time></trkpt><trkpt lat="45.04629751793358" lon="9.987014394078457"><ele>34.0</ele><time>2026-03-22T07:26:18.998Z</time></trkpt><trkpt lat="45.04622000821817" lon="9.98701123726704"><ele>34.0</ele><time>2026-03-22T07:26:19.998Z</time></trkpt><trkpt lat="45.04614336503231" lon="9.98700865187609"><ele>34.0</ele><time>2026-03-22T07:26:20.998Z</time></trkpt><trkpt lat="45.04606702940891" lon="9.987010598272345"><ele>34.0</ele><time>2026-03-22T07:26:21.998Z</time></trkpt><trkpt lat="45.04599021879477" lon="9.987016952098093"><ele>34.0</ele><time>2026-03-22T07:26:22.998Z</time></trkpt><trkpt lat="45.045912175136735" lon="9.987033203981873"><ele>34.0</ele><time>2026-03-22T07:26:23.998Z</time></trkpt><trkpt lat="45.045836298769146" lon="9.987054812006846"><ele>34.0</ele><time>2026-03-22T07:26:24.998Z</time></trkpt><trkpt lat="45.04575869726689" lon="9.987076260883232"><ele>34.0</ele><time>2026-03-22T07:26:25.998Z</time></trkpt><trkpt lat="45.04568229553969" lon="9.987099014966521"><ele>34.0</ele><time>2026-03-22T07:26:26.998Z</time></trkpt><trkpt lat="45.04560542137671" lon="9.987127601159647"><ele>34.0</ele><time>2026-03-22T07:26:27.998Z</time></trkpt><trkpt lat="45.04552685390646" lon="9.987155313944637"><ele>34.0</ele><time>2026-03-22T07:26:28.998Z</time></trkpt><trkpt lat="45.045448726946866" lon="9.987179217999637"><ele>34.0</ele><time>2026-03-22T07:26:29.998Z</time></trkpt><trkpt lat="45.04537044694663" lon="9.987205338481969"><ele>34.0</ele><time>2026-03-22T07:26:30.998Z</time></trkpt><trkpt lat="45.04529238141392" lon="9.987229727905499"><ele>34.0</ele><time>2026-03-22T07:26:31.998Z</time></trkpt><trkpt lat="45.04521516346225" lon="9.987253410238015"><ele>34.0</ele><time>2026-03-22T07:26:32.998Z</time></trkpt><trkpt lat="45.04513615323058" lon="9.987277356476921"><ele>34.0</ele><time>2026-03-22T07:26:33.998Z</time></trkpt><trkpt lat="45.045059818577705" lon="9.987302376503532"><ele>34.0</ele><time>2026-03-22T07:26:34.998Z</time></trkpt><trkpt lat="45.04498472813019" lon="9.98732458876104"><ele>34.0</ele><time>2026-03-22T07:26:35.998Z</time></trkpt><trkpt lat="45.04491056941451" lon="9.9873471007182"><ele>34.0</ele><time>2026-03-22T07:26:36.998Z</time></trkpt><trkpt lat="45.0448380492328" lon="9.98737297641203"><ele>34.0</ele><time>2026-03-22T07:26:37.998Z</time></trkpt><trkpt lat="45.04476764529674" lon="9.987396789554742"><ele>34.16666666666667</ele><time>2026-03-22T07:26:38.998Z</time></trkpt><trkpt lat="45.04469556518612" lon="9.987419931935102"><ele>34.333333333333336</ele><time>2026-03-22T07:26:39.998Z</time></trkpt><trkpt lat="45.044622127502436" lon="9.98744131262889"><ele>34.5</ele><time>2026-03-22T07:26:41Z</time></trkpt><trkpt lat="45.04454930451709" lon="9.9874654473349"><ele>34.666666666666664</ele><time>2026-03-22T07:26:42Z</time></trkpt><trkpt lat="45.044476610779085" lon="9.98748851849897"><ele>34.83333333333333</ele><time>2026-03-22T07:26:43Z</time></trkpt><trkpt lat="45.04440310683257" lon="9.987515853348972"><ele>35.0</ele><time>2026-03-22T07:26:44Z</time></trkpt><trkpt lat="45.0443296475224" lon="9.987541243106222"><ele>35.0</ele><time>2026-03-22T07:26:45Z</time></trkpt><trkpt lat="45.04425388960831" lon="9.987564499334601"><ele>35.0</ele><time>2026-03-22T07:26:46Z</time></trkpt><trkpt lat="45.04417798485117" lon="9.987587262074427"><ele>35.0</ele><time>2026-03-22T07:26:47Z</time></trkpt><trkpt lat="45.04410200216432" lon="9.987610870130029"><ele>35.0</ele><time>2026-03-22T07:26:48Z</time></trkpt><trkpt lat="45.04402748477743" lon="9.987635927098461"><ele>35.0</ele><time>2026-03-22T07:26:49Z</time></trkpt><trkpt lat="45.04395089702406" lon="9.987659322174983"><ele>35.0</ele><time>2026-03-22T07:26:50Z</time></trkpt><trkpt lat="45.04387461910596" lon="9.987684569500582"><ele>35.166666666666664</ele><time>2026-03-22T07:26:51Z</time></trkpt><trkpt lat="45.043796537316446" lon="9.98771157995275"><ele>35.33333333333333</ele><time>2026-03-22T07:26:52Z</time></trkpt><trkpt lat="45.043717736062035" lon="9.987737805505397"><ele>35.5</ele><time>2026-03-22T07:26:53Z</time></trkpt><trkpt lat="45.04364126845927" lon="9.987764135656489"><ele>35.666666666666664</ele><time>2026-03-22T07:26:54Z</time></trkpt><trkpt lat="45.043560674396744" lon="9.9877884654939"><ele>35.833333333333336</ele><time>2026-03-22T07:26:55Z</time></trkpt><trkpt lat="45.04348107571079" lon="9.987812113447914"><ele>36.0</ele><time>2026-03-22T07:26:56Z</time></trkpt><trkpt lat="45.043402801658814" lon="9.987836777708168"><ele>36.0</ele><time>2026-03-22T07:26:57Z</time></trkpt><trkpt lat="45.04332407564084" lon="9.987863984941798"><ele>36.0</ele><time>2026-03-22T07:26:58Z</time></trkpt><trkpt lat="45.043247916286646" lon="9.987890900504889"><ele>36.0</ele><time>2026-03-22T07:26:59Z</time></trkpt><trkpt lat="45.04317023902281" lon="9.987916465743874"><ele>36.0</ele><time>2026-03-22T07:27:00Z</time></trkpt><trkpt lat="45.04309359501357" lon="9.987938244526125"><ele>36.0</ele><time>2026-03-22T07:27:01Z</time></trkpt><trkpt lat="45.04301849751672" lon="9.98796080667064"><ele>36.0</ele><time>2026-03-22T07:27:02Z</time></trkpt><trkpt lat="45.04294421749501" lon="9.98798270630914"><ele>36.142857142857146</ele><time>2026-03-22T07:27:03Z</time></trkpt><trkpt lat="45.04287122009146" lon="9.98800848310142"><ele>36.285714285714285</ele><time>2026-03-22T07:27:04Z</time></trkpt><trkpt lat="45.04279942287019" lon="9.988033141136444"><ele>36.42857142857143</ele><time>2026-03-22T07:27:05Z</time></trkpt><trkpt lat="45.04272839097691" lon="9.988056877803153"><ele>36.57142857142857</ele><time>2026-03-22T07:27:06Z</time></trkpt><trkpt lat="45.042654959715335" lon="9.988079970989922"><ele>36.714285714285715</ele><time>2026-03-22T07:27:07Z</time></trkpt><trkpt lat="45.042580660502374" lon="9.988102860588798"><ele>36.85714285714286</ele><time>2026-03-22T07:27:08Z</time></trkpt><trkpt lat="45.04250691700557" lon="9.98812484469456"><ele>37.0</ele><time>2026-03-22T07:27:09Z</time></trkpt><trkpt lat="45.04243302860566" lon="9.988149056360783"><ele>37.0</ele><time>2026-03-22T07:27:10Z</time></trkpt><trkpt lat="45.04235928357726" lon="9.988176042466183"><ele>37.0</ele><time>2026-03-22T07:27:10.999Z</time></trkpt><trkpt lat="45.04228753778334" lon="9.988199088541986"><ele>37.0</ele><time>2026-03-22T07:27:11.999Z</time></trkpt><trkpt lat="45.04221577831523" lon="9.988220762194713"><ele>37.0</ele><time>2026-03-22T07:27:12.999Z</time></trkpt><trkpt lat="45.04214557809018" lon="9.988243558101304"><ele>37.0</ele><time>2026-03-22T07:27:13.999Z</time></trkpt><trkpt lat="45.042078995117336" lon="9.98827450602922"><ele>37.0</ele><time>2026-03-22T07:27:14.999Z</time></trkpt><trkpt lat="45.04201186535452" lon="9.988299830437205"><ele>37.0</ele><time>2026-03-22T07:27:15.999Z</time></trkpt><trkpt lat="45.0419407373577" lon="9.988319891742975"><ele>36.833333333333336</ele><time>2026-03-22T07:27:16.999Z</time></trkpt><trkpt lat="45.04186786864283" lon="9.988343335121582"><ele>36.66666666666667</ele><time>2026-03-22T07:27:17.999Z</time></trkpt><trkpt lat="45.04179445208137" lon="9.988367683300831"><ele>36.5</ele><time>2026-03-22T07:27:18.999Z</time></trkpt><trkpt lat="45.04171957406931" lon="9.988390274367934"><ele>36.333333333333336</ele><time>2026-03-22T07:27:19.999Z</time></trkpt><trkpt lat="45.041644892996835" lon="9.988411520755431"><ele>36.166666666666664</ele><time>2026-03-22T07:27:20.999Z</time></trkpt><trkpt lat="45.041570049078935" lon="9.988434902158989"><ele>36.0</ele><time>2026-03-22T07:27:21.999Z</time></trkpt><trkpt lat="45.04149656299271" lon="9.988457394321431"><ele>36.00000000000001</ele><time>2026-03-22T07:27:22.999Z</time></trkpt><trkpt lat="45.04142498001455" lon="9.988482965076832"><ele>36.0</ele><time>2026-03-22T07:27:23.999Z</time></trkpt><trkpt lat="45.041354796676124" lon="9.988506608649196"><ele>36.0</ele><time>2026-03-22T07:27:24.999Z</time></trkpt><trkpt lat="45.041285627235006" lon="9.988529235420053"><ele>36.0</ele><time>2026-03-22T07:27:25.999Z</time></trkpt><trkpt lat="45.04121680094233" lon="9.988548906533085"><ele>36.0</ele><time>2026-03-22T07:27:26.999Z</time></trkpt><trkpt lat="45.041149672332395" lon="9.988575169229291"><ele>36.00000000000001</ele><time>2026-03-22T07:27:27.999Z</time></trkpt><trkpt lat="45.041083593852015" lon="9.988600960605305"><ele>36.0</ele><time>2026-03-22T07:27:28.999Z</time></trkpt><trkpt lat="45.04101289586375" lon="9.988622390795676"><ele>36.00000000000001</ele><time>2026-03-22T07:27:29.999Z</time></trkpt><trkpt lat="45.04094290497595" lon="9.98864547651921"><ele>36.0</ele><time>2026-03-22T07:27:30.999Z</time></trkpt><trkpt lat="45.040869934593076" lon="9.988669754644176"><ele>36.0</ele><time>2026-03-22T07:27:31.999Z</time></trkpt><trkpt lat="45.04079752262584" lon="9.98869357855686"><ele>36.0</ele><time>2026-03-22T07:27:32.999Z</time></trkpt><trkpt lat="45.040724635509996" lon="9.98871664853423"><ele>36.0</ele><time>2026-03-22T07:27:33.999Z</time></trkpt><trkpt lat="45.04065027136582" lon="9.988740888362512"><ele>36.00000000000001</ele><time>2026-03-22T07:27:34.999Z</time></trkpt><trkpt lat="45.04057809059336" lon="9.988766061295609"><ele>36.0</ele><time>2026-03-22T07:27:35.999Z</time></trkpt><trkpt lat="45.04050380617884" lon="9.988789589739707"><ele>36.166666666666664</ele><time>2026-03-22T07:27:36.999Z</time></trkpt><trkpt lat="45.040429377921114" lon="9.988813364034334"><ele>36.333333333333336</ele><time>2026-03-22T07:27:37.999Z</time></trkpt><trkpt lat="45.04035702088612" lon="9.988837698860305"><ele>36.5</ele><time>2026-03-22T07:27:38.999Z</time></trkpt><trkpt lat="45.04028371749447" lon="9.988860373932544"><ele>36.66666666666667</ele><time>2026-03-22T07:27:39.999Z</time></trkpt><trkpt lat="45.040209729222845" lon="9.988884519800182"><ele>36.833333333333336</ele><time>2026-03-22T07:27:40.999Z</time></trkpt><trkpt lat="45.040133628279975" lon="9.98890861426426"><ele>37.0</ele><time>2026-03-22T07:27:41.999Z</time></trkpt><trkpt lat="45.04005734393025" lon="9.988934078207365"><ele>37.0</ele><time>2026-03-22T07:27:42.999Z</time></trkpt><trkpt lat="45.03998260632696" lon="9.988959337260576"><ele>37.0</ele><time>2026-03-22T07:27:43.999Z</time></trkpt><trkpt lat="45.039906209331974" lon="9.988983281603398"><ele>37.0</ele><time>2026-03-22T07:27:44.999Z</time></trkpt><trkpt lat="45.039829376071" lon="9.98900917697534"><ele>37.0</ele><time>2026-03-22T07:27:45.999Z</time></trkpt><trkpt lat="45.03975234576443" lon="9.98903609713866"><ele>37.0</ele><time>2026-03-22T07:27:46.999Z</time></trkpt><trkpt lat="45.039675452464586" lon="9.989062074004844"><ele>37.0</ele><time>2026-03-22T07:27:47.999Z</time></trkpt><trkpt lat="45.0395964713468" lon="9.989086231282906"><ele>36.833333333333336</ele><time>2026-03-22T07:27:48.999Z</time></trkpt><trkpt lat="45.03951890002464" lon="9.989109712420538"><ele>36.66666666666667</ele><time>2026-03-22T07:27:49.999Z</time></trkpt><trkpt lat="45.03944135310192" lon="9.98913570681406"><ele>36.5</ele><time>2026-03-22T07:27:50.999Z</time></trkpt><trkpt lat="45.03936411467605" lon="9.989160737983587"><ele>36.333333333333336</ele><time>2026-03-22T07:27:51.999Z</time></trkpt><trkpt lat="45.03928737766942" lon="9.989187264175206"><ele>36.166666666666664</ele><time>2026-03-22T07:27:52.999Z</time></trkpt><trkpt lat="45.03921037658822" lon="9.989212731929955"><ele>36.0</ele><time>2026-03-22T07:27:53.999Z</time></trkpt><trkpt lat="45.03913501377745" lon="9.989237330598465"><ele>35.5</ele><time>2026-03-22T07:27:54.999Z</time></trkpt><trkpt lat="45.039058307077454" lon="9.989256898334567"><ele>35.0</ele><time>2026-03-22T07:27:55.999Z</time></trkpt><trkpt lat="45.03898412180143" lon="9.989280969406362"><ele>34.5</ele><time>2026-03-22T07:27:56.999Z</time></trkpt><trkpt lat="45.03891331099506" lon="9.98931004155739"><ele>34.0</ele><time>2026-03-22T07:27:57.999Z</time></trkpt><trkpt lat="45.038835919459935" lon="9.989333010743094"><ele>33.5</ele><time>2026-03-22T07:27:58.999Z</time></trkpt><trkpt lat="45.03876384545493" lon="9.98935826935148"><ele>33.0</ele><time>2026-03-22T07:27:59.999Z</time></trkpt><trkpt lat="45.03868871614405" lon="9.989383462585891"><ele>33.0</ele><time>2026-03-22T07:28:00.999Z</time></trkpt><trkpt lat="45.038614071584625" lon="9.9894088129982"><ele>33.0</ele><time>2026-03-22T07:28:01.999Z</time></trkpt><trkpt lat="45.0385410298474" lon="9.989435679446045"><ele>33.0</ele><time>2026-03-22T07:28:02.999Z</time></trkpt><trkpt lat="45.038469590207335" lon="9.989465302216544"><ele>33.0</ele><time>2026-03-22T07:28:03.999Z</time></trkpt><trkpt lat="45.038395553120225" lon="9.989495033714014"><ele>33.0</ele><time>2026-03-22T07:28:04.999Z</time></trkpt><trkpt lat="45.038322382138176" lon="9.989524838615504"><ele>33.0</ele><time>2026-03-22T07:28:05.999Z</time></trkpt><trkpt lat="45.03824507994691" lon="9.989549569378827"><ele>33.714285714285715</ele><time>2026-03-22T07:28:06.999Z</time></trkpt><trkpt lat="45.03817560704608" lon="9.989574751560307"><ele>34.42857142857143</ele><time>2026-03-22T07:28:07.999Z</time></trkpt><trkpt lat="45.03810539737925" lon="9.989608276107013"><ele>35.14285714285714</ele><time>2026-03-22T07:28:08.999Z</time></trkpt><trkpt lat="45.03803512960263" lon="9.98963994553503"><ele>35.85714285714286</ele><time>2026-03-22T07:28:09.999Z</time></trkpt><trkpt lat="45.03796285312648" lon="9.989672045472343"><ele>36.57142857142858</ele><time>2026-03-22T07:28:10.999Z</time></trkpt><trkpt lat="45.03789278909481" lon="9.989703531543238"><ele>37.285714285714285</ele><time>2026-03-22T07:28:11.998Z</time></trkpt><trkpt lat="45.03782002897404" lon="9.9897352292403"><ele>38.0</ele><time>2026-03-22T07:28:12.998Z</time></trkpt><trkpt lat="45.03774782298376" lon="9.98976662825792"><ele>38.0</ele><time>2026-03-22T07:28:13.998Z</time></trkpt><trkpt lat="45.03767417973785" lon="9.989798035393465"><ele>38.0</ele><time>2026-03-22T07:28:14.998Z</time></trkpt><trkpt lat="45.03760277224843" lon="9.989833230862518"><ele>38.0</ele><time>2026-03-22T07:28:15.998Z</time></trkpt><trkpt lat="45.03752825867474" lon="9.98986911977356"><ele>38.0</ele><time>2026-03-22T07:28:16.998Z</time></trkpt><trkpt lat="45.0374559984565" lon="9.989904454157319"><ele>38.0</ele><time>2026-03-22T07:28:17.998Z</time></trkpt><trkpt lat="45.03738497828935" lon="9.989942835731664"><ele>38.0</ele><time>2026-03-22T07:28:18.998Z</time></trkpt><trkpt lat="45.037313837088824" lon="9.989989239687576"><ele>38.0</ele><time>2026-03-22T07:28:19.998Z</time></trkpt><trkpt lat="45.037243969896934" lon="9.99003524683988"><ele>38.0</ele><time>2026-03-22T07:28:20.998Z</time></trkpt><trkpt lat="45.03717658843265" lon="9.990085513279674"><ele>38.0</ele><time>2026-03-22T07:28:21.998Z</time></trkpt><trkpt lat="45.037107627550846" lon="9.990136502156677"><ele>38.0</ele><time>2026-03-22T07:28:22.998Z</time></trkpt><trkpt lat="45.037039402151386" lon="9.990189843574358"><ele>38.0</ele><time>2026-03-22T07:28:23.998Z</time></trkpt><trkpt lat="45.03696940166156" lon="9.990244984874545"><ele>38.0</ele><time>2026-03-22T07:28:24.998Z</time></trkpt><trkpt lat="45.03690005750234" lon="9.990297047988943"><ele>38.0</ele><time>2026-03-22T07:28:25.998Z</time></trkpt><trkpt lat="45.0368315089964" lon="9.990340642135806"><ele>38.0</ele><time>2026-03-22T07:28:26.998Z</time></trkpt><trkpt lat="45.03676203635454" lon="9.990385441777208"><ele>38.0</ele><time>2026-03-22T07:28:27.998Z</time></trkpt><trkpt lat="45.03669017849399" lon="9.99042068773645"><ele>38.0</ele><time>2026-03-22T07:28:28.998Z</time></trkpt><trkpt lat="45.036617503686394" lon="9.990438821530708"><ele>38.0</ele><time>2026-03-22T07:28:29.998Z</time></trkpt><trkpt lat="45.036541658758715" lon="9.99044543928649"><ele>38.0</ele><time>2026-03-22T07:28:30.998Z</time></trkpt><trkpt lat="45.036467203095604" lon="9.990440376634137"><ele>38.0</ele><time>2026-03-22T07:28:31.998Z</time></trkpt><trkpt lat="45.03639229539052" lon="9.990427092821143"><ele>38.0</ele><time>2026-03-22T07:28:32.998Z</time></trkpt><trkpt lat="45.036317133061786" lon="9.990407835038644"><ele>38.0</ele><time>2026-03-22T07:28:33.998Z</time></trkpt><trkpt lat="45.03624147192705" lon="9.990388505426981"><ele>38.0</ele><time>2026-03-22T07:28:34.998Z</time></trkpt><trkpt lat="45.03616711379128" lon="9.990372762443352"><ele>38.0</ele><time>2026-03-22T07:28:35.998Z</time></trkpt><trkpt lat="45.03609222830959" lon="9.990357020151437"><ele>38.0</ele><time>2026-03-22T07:28:36.998Z</time></trkpt><trkpt lat="45.03601492033081" lon="9.990336658329907"><ele>38.0</ele><time>2026-03-22T07:28:37.998Z</time></trkpt><trkpt lat="45.03594003030411" lon="9.990318039473902"><ele>38.0</ele><time>2026-03-22T07:28:38.998Z</time></trkpt><trkpt lat="45.035864602474895" lon="9.990297155018192"><ele>38.0</ele><time>2026-03-22T07:28:39.998Z</time></trkpt><trkpt lat="45.03579035405495" lon="9.990277733965963"><ele>38.0</ele><time>2026-03-22T07:28:40.998Z</time></trkpt><trkpt lat="45.03571412839777" lon="9.990260067423183"><ele>38.0</ele><time>2026-03-22T07:28:41.998Z</time></trkpt><trkpt lat="45.035639033686074" lon="9.990242108752987"><ele>38.0</ele><time>2026-03-22T07:28:42.998Z</time></trkpt><trkpt lat="45.035564039428664" lon="9.99022001414676"><ele>37.83333333333333</ele><time>2026-03-22T07:28:43.998Z</time></trkpt><trkpt lat="45.035489747131734" lon="9.990196697784995"><ele>37.666666666666664</ele><time>2026-03-22T07:28:44.998Z</time></trkpt><trkpt lat="45.035416213303954" lon="9.990165846408072"><ele>37.5</ele><time>2026-03-22T07:28:45.998Z</time></trkpt><trkpt lat="45.035342275902565" lon="9.99013696353054"><ele>37.333333333333336</ele><time>2026-03-22T07:28:47Z</time></trkpt><trkpt lat="45.03526855295041" lon="9.990106302450823"><ele>37.16666666666667</ele><time>2026-03-22T07:28:48Z</time></trkpt><trkpt lat="45.03519691435744" lon="9.990070518838785"><ele>37.0</ele><time>2026-03-22T07:28:49Z</time></trkpt><trkpt lat="45.035125229981695" lon="9.990030193083037"><ele>37.42857142857143</ele><time>2026-03-22T07:28:50Z</time></trkpt><trkpt lat="45.03505617233399" lon="9.989992335238394"><ele>37.857142857142854</ele><time>2026-03-22T07:28:51Z</time></trkpt><trkpt lat="45.03498709917399" lon="9.989952922388618"><ele>38.285714285714285</ele><time>2026-03-22T07:28:52Z</time></trkpt><trkpt lat="45.0349178762961" lon="9.989911916108076"><ele>38.714285714285715</ele><time>2026-03-22T07:28:53Z</time></trkpt><trkpt lat="45.03485161259709" lon="9.989868483458565"><ele>39.142857142857146</ele><time>2026-03-22T07:28:54Z</time></trkpt><trkpt lat="45.03478333753607" lon="9.989828955049477"><ele>39.57142857142857</ele><time>2026-03-22T07:28:55Z</time></trkpt><trkpt lat="45.03471669201159" lon="9.989784377019983"><ele>40.0</ele><time>2026-03-22T07:28:56Z</time></trkpt><trkpt lat="45.0346491221423" lon="9.989737624345846"><ele>40.0</ele><time>2026-03-22T07:28:57Z</time></trkpt><trkpt lat="45.03458031509407" lon="9.989694910101772"><ele>40.0</ele><time>2026-03-22T07:28:58Z</time></trkpt><trkpt lat="45.034513246614125" lon="9.989653895367566"><ele>40.0</ele><time>2026-03-22T07:28:59Z</time></trkpt><trkpt lat="45.03444377826888" lon="9.989610832128324"><ele>40.0</ele><time>2026-03-22T07:29:00Z</time></trkpt><trkpt lat="45.034374450521376" lon="9.989565683538135"><ele>40.0</ele><time>2026-03-22T07:29:01Z</time></trkpt><trkpt lat="45.03430533100454" lon="9.989520785952202"><ele>40.0</ele><time>2026-03-22T07:29:02Z</time></trkpt><trkpt lat="45.03423412817116" lon="9.989476355363148"><ele>40.0</ele><time>2026-03-22T07:29:03Z</time></trkpt><trkpt lat="45.034165286641176" lon="9.989433889793641"><ele>40.0</ele><time>2026-03-22T07:29:04Z</time></trkpt><trkpt lat="45.03409127401387" lon="9.989390530418326"><ele>40.0</ele><time>2026-03-22T07:29:05Z</time></trkpt><trkpt lat="45.034019992495615" lon="9.989352325334641"><ele>40.0</ele><time>2026-03-22T07:29:06Z</time></trkpt><trkpt lat="45.0339468003425" lon="9.98931793020897"><ele>40.0</ele><time>2026-03-22T07:29:07Z</time></trkpt><trkpt lat="45.03387446877904" lon="9.989280983452549"><ele>40.0</ele><time>2026-03-22T07:29:08Z</time></trkpt><trkpt lat="45.03380229920713" lon="9.989246629937865"><ele>39.833333333333336</ele><time>2026-03-22T07:29:09Z</time></trkpt><trkpt lat="45.03372845720936" lon="9.989216952078323"><ele>39.66666666666667</ele><time>2026-03-22T07:29:10Z</time></trkpt><trkpt lat="45.03365352666015" lon="9.98919172998936"><ele>39.5</ele><time>2026-03-22T07:29:11Z</time></trkpt><trkpt lat="45.0335789869034" lon="9.98916607603016"><ele>39.333333333333336</ele><time>2026-03-22T07:29:12Z</time></trkpt><trkpt lat="45.03350450405231" lon="9.989141632452114"><ele>39.166666666666664</ele><time>2026-03-22T07:29:13Z</time></trkpt><trkpt lat="45.033432792040394" lon="9.989121569406786"><ele>39.0</ele><time>2026-03-22T07:29:14Z</time></trkpt><trkpt lat="45.03336252963593" lon="9.989101794912635"><ele>39.0</ele><time>2026-03-22T07:29:15Z</time></trkpt><trkpt lat="45.0332909833625" lon="9.989085158617446"><ele>39.0</ele><time>2026-03-22T07:29:15.999Z</time></trkpt><trkpt lat="45.03321962232548" lon="9.98907048628667"><ele>39.0</ele><time>2026-03-22T07:29:16.999Z</time></trkpt><trkpt lat="45.03315328593791" lon="9.989062092884572"><ele>39.0</ele><time>2026-03-22T07:29:17.999Z</time></trkpt><trkpt lat="45.033086032361695" lon="9.989047096058844"><ele>39.0</ele><time>2026-03-22T07:29:18.999Z</time></trkpt><trkpt lat="45.03301469887605" lon="9.989028788525513"><ele>39.0</ele><time>2026-03-22T07:29:19.999Z</time></trkpt><trkpt lat="45.0329433474552" lon="9.989015621075021"><ele>39.0</ele><time>2026-03-22T07:29:20.999Z</time></trkpt><trkpt lat="45.0328672123156" lon="9.989001063250683"><ele>39.0</ele><time>2026-03-22T07:29:21.999Z</time></trkpt><trkpt lat="45.03279429883117" lon="9.988988032138307"><ele>39.0</ele><time>2026-03-22T07:29:22.999Z</time></trkpt><trkpt lat="45.03272126227269" lon="9.988974405756696"><ele>39.0</ele><time>2026-03-22T07:29:23.999Z</time></trkpt><trkpt lat="45.032646647207045" lon="9.988962034653273"><ele>39.0</ele><time>2026-03-22T07:29:24.999Z</time></trkpt><trkpt lat="45.032572038002364" lon="9.988945940645483"><ele>39.0</ele><time>2026-03-22T07:29:25.999Z</time></trkpt><trkpt lat="45.03249804439806" lon="9.988931959159785"><ele>39.0</ele><time>2026-03-22T07:29:26.999Z</time></trkpt><trkpt lat="45.03242544134562" lon="9.988920958210434"><ele>39.0</ele><time>2026-03-22T07:29:27.999Z</time></trkpt><trkpt lat="45.03235140521837" lon="9.988907968096829"><ele>39.0</ele><time>2026-03-22T07:29:28.999Z</time></trkpt><trkpt lat="45.03227669279264" lon="9.988903731413249"><ele>39.0</ele><time>2026-03-22T07:29:29.999Z</time></trkpt><trkpt lat="45.03220199870534" lon="9.988905652489992"><ele>39.0</ele><time>2026-03-22T07:29:30.999Z</time></trkpt><trkpt lat="45.03212591079786" lon="9.988915291616147"><ele>39.0</ele><time>2026-03-22T07:29:31.999Z</time></trkpt><trkpt lat="45.03205133399145" lon="9.98893415990924"><ele>39.0</ele><time>2026-03-22T07:29:32.999Z</time></trkpt><trkpt lat="45.03197802990971" lon="9.988956874345702"><ele>39.0</ele><time>2026-03-22T07:29:33.999Z</time></trkpt><trkpt lat="45.03190761871198" lon="9.988986166692824"><ele>39.0</ele><time>2026-03-22T07:29:34.999Z</time></trkpt><trkpt lat="45.03183836989913" lon="9.98902754226605"><ele>39.0</ele><time>2026-03-22T07:29:35.999Z</time></trkpt><trkpt lat="45.03176941102609" lon="9.98906988291762"><ele>39.0</ele><time>2026-03-22T07:29:36.999Z</time></trkpt><trkpt lat="45.03170424671594" lon="9.989121292831204"><ele>39.0</ele><time>2026-03-22T07:29:37.999Z</time></trkpt><trkpt lat="45.031641246758454" lon="9.989173000945726"><ele>39.0</ele><time>2026-03-22T07:29:38.999Z</time></trkpt><trkpt lat="45.0315818088682" lon="9.989231227649345"><ele>39.0</ele><time>2026-03-22T07:29:39.999Z</time></trkpt><trkpt lat="45.031527619390864" lon="9.989294413143956"><ele>39.0</ele><time>2026-03-22T07:29:40.999Z</time></trkpt><trkpt lat="45.03148016286495" lon="9.989361834138561"><ele>38.42857142857143</ele><time>2026-03-22T07:29:41.999Z</time></trkpt><trkpt lat="45.03143304910187" lon="9.989430815997894"><ele>37.857142857142854</ele><time>2026-03-22T07:29:42.999Z</time></trkpt><trkpt lat="45.03138639953506" lon="9.989502647116385"><ele>37.285714285714285</ele><time>2026-03-22T07:29:43.999Z</time></trkpt><trkpt lat="45.03134306843533" lon="9.98957933253879"><ele>36.714285714285715</ele><time>2026-03-22T07:29:44.999Z</time></trkpt><trkpt lat="45.031300755613586" lon="9.989660738033809"><ele>36.14285714285714</ele><time>2026-03-22T07:29:45.999Z</time></trkpt><trkpt lat="45.03126358900153" lon="9.989750093245185"><ele>35.57142857142857</ele><time>2026-03-22T07:29:46.999Z</time></trkpt><trkpt lat="45.031231958764245" lon="9.989843710241592"><ele>35.0</ele><time>2026-03-22T07:29:47.999Z</time></trkpt><trkpt lat="45.03119586476009" lon="9.989937359957102"><ele>35.0</ele><time>2026-03-22T07:29:48.999Z</time></trkpt><trkpt lat="45.031161953244926" lon="9.990030892163285"><ele>35.0</ele><time>2026-03-22T07:29:49.999Z</time></trkpt><trkpt lat="45.031126516312085" lon="9.9901220586576"><ele>35.0</ele><time>2026-03-22T07:29:50.999Z</time></trkpt><trkpt lat="45.031092312758304" lon="9.990215859025135"><ele>35.0</ele><time>2026-03-22T07:29:51.999Z</time></trkpt><trkpt lat="45.031060356448954" lon="9.990309528372508"><ele>35.0</ele><time>2026-03-22T07:29:52.999Z</time></trkpt><trkpt lat="45.03102711935916" lon="9.990403447592378"><ele>35.0</ele><time>2026-03-22T07:29:53.999Z</time></trkpt><trkpt lat="45.03099424497263" lon="9.990499359341687"><ele>35.0</ele><time>2026-03-22T07:29:54.999Z</time></trkpt><trkpt lat="45.030957945379505" lon="9.990593864079724"><ele>35.0</ele><time>2026-03-22T07:29:55.999Z</time></trkpt><trkpt lat="45.030925686515864" lon="9.990692380154814"><ele>35.0</ele><time>2026-03-22T07:29:56.999Z</time></trkpt><trkpt lat="45.030890930797426" lon="9.990788529931752"><ele>35.0</ele><time>2026-03-22T07:29:57.999Z</time></trkpt><trkpt lat="45.03085643871053" lon="9.990886854358765"><ele>35.0</ele><time>2026-03-22T07:29:58.999Z</time></trkpt><trkpt lat="45.03082093542467" lon="9.990985377257093"><ele>35.0</ele><time>2026-03-22T07:29:59.999Z</time></trkpt><trkpt lat="45.030783958811945" lon="9.991082392344511"><ele>35.0</ele><time>2026-03-22T07:30:00.999Z</time></trkpt><trkpt lat="45.03074942422232" lon="9.991178013259345"><ele>35.166666666666664</ele><time>2026-03-22T07:30:01.999Z</time></trkpt><trkpt lat="45.03071348222517" lon="9.991276875074693"><ele>35.33333333333333</ele><time>2026-03-22T07:30:02.999Z</time></trkpt><trkpt lat="45.03068195580236" lon="9.99137102633703"><ele>35.5</ele><time>2026-03-22T07:30:03.999Z</time></trkpt><trkpt lat="45.030648059311446" lon="9.991463358297795"><ele>35.666666666666664</ele><time>2026-03-22T07:30:04.999Z</time></trkpt><trkpt lat="45.03061423752865" lon="9.99155728636809"><ele>35.833333333333336</ele><time>2026-03-22T07:30:05.999Z</time></trkpt><trkpt lat="45.030581041486776" lon="9.991651618509042"><ele>36.0</ele><time>2026-03-22T07:30:06.999Z</time></trkpt><trkpt lat="45.0305464652603" lon="9.991745846004411"><ele>36.00000000000001</ele><time>2026-03-22T07:30:07.999Z</time></trkpt><trkpt lat="45.030511981863675" lon="9.991837580567395"><ele>36.0</ele><time>2026-03-22T07:30:08.999Z</time></trkpt><trkpt lat="45.03047871684462" lon="9.991930824672894"><ele>36.0</ele><time>2026-03-22T07:30:09.999Z</time></trkpt><trkpt lat="45.030447104344006" lon="9.992023722345461"><ele>36.0</ele><time>2026-03-22T07:30:10.999Z</time></trkpt><trkpt lat="45.03041466785651" lon="9.992116473270634"><ele>36.0</ele><time>2026-03-22T07:30:11.999Z</time></trkpt><trkpt lat="45.03038089614031" lon="9.992206667691498"><ele>36.00000000000001</ele><time>2026-03-22T07:30:12.999Z</time></trkpt><trkpt lat="45.03034771274349" lon="9.992296424115374"><ele>36.0</ele><time>2026-03-22T07:30:13.999Z</time></trkpt><trkpt lat="45.030317889062694" lon="9.99238599285907"><ele>36.0</ele><time>2026-03-22T07:30:14.999Z</time></trkpt><trkpt lat="45.03028945783277" lon="9.992470820301953"><ele>36.0</ele><time>2026-03-22T07:30:15.998Z</time></trkpt><trkpt lat="45.03025759993015" lon="9.992553941089154"><ele>36.0</ele><time>2026-03-22T07:30:16.998Z</time></trkpt><trkpt lat="45.03023041073034" lon="9.992634526285766"><ele>36.0</ele><time>2026-03-22T07:30:17.998Z</time></trkpt><trkpt lat="45.03017359582425" lon="9.992787539899247"><ele>36.0</ele><time>2026-03-22T07:30:19.998Z</time></trkpt><trkpt lat="45.030143350442955" lon="9.99287539318165"><ele>36.0</ele><time>2026-03-22T07:30:20.998Z</time></trkpt><trkpt lat="45.03011141551576" lon="9.992969867679784"><ele>36.333333333333336</ele><time>2026-03-22T07:30:21.998Z</time></trkpt><trkpt lat="45.03007550689479" lon="9.9930643928365"><ele>36.666666666666664</ele><time>2026-03-22T07:30:22.998Z</time></trkpt><trkpt lat="45.03003972136837" lon="9.993164580764102"><ele>37.0</ele><time>2026-03-22T07:30:23.998Z</time></trkpt><trkpt lat="45.030009055105545" lon="9.993264247968492"><ele>37.33333333333333</ele><time>2026-03-22T07:30:24.998Z</time></trkpt><trkpt lat="45.02997399905205" lon="9.993362389573186"><ele>37.666666666666664</ele><time>2026-03-22T07:30:25.998Z</time></trkpt><trkpt lat="45.02993565645063" lon="9.993459205022486"><ele>38.0</ele><time>2026-03-22T07:30:26.998Z</time></trkpt><trkpt lat="45.02989865838208" lon="9.993557442099137"><ele>38.5</ele><time>2026-03-22T07:30:27.998Z</time></trkpt><trkpt lat="45.029865000640896" lon="9.993656165528153"><ele>39.0</ele><time>2026-03-22T07:30:28.998Z</time></trkpt><trkpt lat="45.029830163813614" lon="9.993753275769532"><ele>39.5</ele><time>2026-03-22T07:30:29.998Z</time></trkpt><trkpt lat="45.02979696007014" lon="9.993851831784987"><ele>40.0</ele><time>2026-03-22T07:30:30.998Z</time></trkpt><trkpt lat="45.02976330815287" lon="9.993946591999896"><ele>40.5</ele><time>2026-03-22T07:30:31.998Z</time></trkpt><trkpt lat="45.029728633761586" lon="9.994039834325575"><ele>41.0</ele><time>2026-03-22T07:30:32.998Z</time></trkpt><trkpt lat="45.02969436620295" lon="9.994130253022986"><ele>40.857142857142854</ele><time>2026-03-22T07:30:33.998Z</time></trkpt><trkpt lat="45.02965838833813" lon="9.994218894798077"><ele>40.714285714285715</ele><time>2026-03-22T07:30:34.998Z</time></trkpt><trkpt lat="45.02962775340598" lon="9.994308290881358"><ele>40.57142857142857</ele><time>2026-03-22T07:30:35.998Z</time></trkpt><trkpt lat="45.029596020723254" lon="9.994401681326755"><ele>40.42857142857143</ele><time>2026-03-22T07:30:36.998Z</time></trkpt><trkpt lat="45.029562312057266" lon="9.9944947410063"><ele>40.285714285714285</ele><time>2026-03-22T07:30:37.998Z</time></trkpt><trkpt lat="45.02952898319532" lon="9.994588977870219"><ele>40.14285714285714</ele><time>2026-03-22T07:30:38.998Z</time></trkpt><trkpt lat="45.02949543938835" lon="9.994682939322885"><ele>40.0</ele><time>2026-03-22T07:30:39.998Z</time></trkpt><trkpt lat="45.02946190498581" lon="9.994776098812553"><ele>40.0</ele><time>2026-03-22T07:30:40.998Z</time></trkpt><trkpt lat="45.02942860079742" lon="9.994865214088966"><ele>40.0</ele><time>2026-03-22T07:30:41.998Z</time></trkpt><trkpt lat="45.02939699107659" lon="9.994953657731024"><ele>40.0</ele><time>2026-03-22T07:30:42.998Z</time></trkpt><trkpt lat="45.02936483192545" lon="9.995042289544545"><ele>40.0</ele><time>2026-03-22T07:30:43.998Z</time></trkpt><trkpt lat="45.02933113789827" lon="9.995134685897494"><ele>40.0</ele><time>2026-03-22T07:30:44.998Z</time></trkpt><trkpt lat="45.02929870463903" lon="9.99523008700479"><ele>40.0</ele><time>2026-03-22T07:30:45.998Z</time></trkpt><trkpt lat="45.02926476763651" lon="9.995324211309224"><ele>40.0</ele><time>2026-03-22T07:30:46.998Z</time></trkpt><trkpt lat="45.02922959845558" lon="9.995419631451332"><ele>40.0</ele><time>2026-03-22T07:30:47.998Z</time></trkpt><trkpt lat="45.02919313726632" lon="9.995513023803959"><ele>40.0</ele><time>2026-03-22T07:30:48.998Z</time></trkpt><trkpt lat="45.02915800813304" lon="9.995610927458754"><ele>40.0</ele><time>2026-03-22T07:30:49.998Z</time></trkpt><trkpt lat="45.02912096199026" lon="9.995707984379814"><ele>40.0</ele><time>2026-03-22T07:30:50.998Z</time></trkpt><trkpt lat="45.029086102212425" lon="9.995806454701397"><ele>40.0</ele><time>2026-03-22T07:30:51.998Z</time></trkpt><trkpt lat="45.02905028290152" lon="9.995902800568246"><ele>40.0</ele><time>2026-03-22T07:30:53Z</time></trkpt><trkpt lat="45.02901785941008" lon="9.996001691871625"><ele>40.0</ele><time>2026-03-22T07:30:54Z</time></trkpt><trkpt lat="45.02898105698924" lon="9.996099067635399"><ele>40.0</ele><time>2026-03-22T07:30:55Z</time></trkpt><trkpt lat="45.028947114279575" lon="9.996198012401772"><ele>40.0</ele><time>2026-03-22T07:30:56Z</time></trkpt><trkpt lat="45.02891043402564" lon="9.99629319677225"><ele>40.0</ele><time>2026-03-22T07:30:57Z</time></trkpt><trkpt lat="45.028873319246884" lon="9.996389519975624"><ele>40.0</ele><time>2026-03-22T07:30:58Z</time></trkpt><trkpt lat="45.028839306281824" lon="9.996486955724853"><ele>40.0</ele><time>2026-03-22T07:30:59Z</time></trkpt><trkpt lat="45.028807947183196" lon="9.996581615754911"><ele>40.14285714285714</ele><time>2026-03-22T07:31:00Z</time></trkpt><trkpt lat="45.02877616662218" lon="9.996678234209751"><ele>40.285714285714285</ele><time>2026-03-22T07:31:01Z</time></trkpt><trkpt lat="45.02874310822503" lon="9.99677228560329"><ele>40.42857142857143</ele><time>2026-03-22T07:31:02Z</time></trkpt><trkpt lat="45.02870754928384" lon="9.996863808606918"><ele>40.57142857142857</ele><time>2026-03-22T07:31:03Z</time></trkpt><trkpt lat="45.02867287676223" lon="9.996956818893583"><ele>40.714285714285715</ele><time>2026-03-22T07:31:04Z</time></trkpt><trkpt lat="45.028638082934975" lon="9.997051322665103"><ele>40.857142857142854</ele><time>2026-03-22T07:31:05Z</time></trkpt><trkpt lat="45.028601802046005" lon="9.997144189784787"><ele>41.0</ele><time>2026-03-22T07:31:06Z</time></trkpt><trkpt lat="45.028569285802625" lon="9.997239962216026"><ele>41.0</ele><time>2026-03-22T07:31:07Z</time></trkpt><trkpt lat="45.02853604534632" lon="9.99733643601333"><ele>41.0</ele><time>2026-03-22T07:31:08Z</time></trkpt><trkpt lat="45.02850411827044" lon="9.997432907680018"><ele>41.0</ele><time>2026-03-22T07:31:09Z</time></trkpt><trkpt lat="45.02846697136444" lon="9.997529207793976"><ele>41.0</ele><time>2026-03-22T07:31:10Z</time></trkpt><trkpt lat="45.02843136300232" lon="9.99762694192767"><ele>41.0</ele><time>2026-03-22T07:31:11Z</time></trkpt><trkpt lat="45.028394614377085" lon="9.997724888991984"><ele>41.0</ele><time>2026-03-22T07:31:12Z</time></trkpt><trkpt lat="45.028360254525644" lon="9.997822542417081"><ele>41.0</ele><time>2026-03-22T07:31:13Z</time></trkpt><trkpt lat="45.02832650697302" lon="9.99791924814171"><ele>41.0</ele><time>2026-03-22T07:31:14Z</time></trkpt><trkpt lat="45.02829190593907" lon="9.998017281897175"><ele>41.0</ele><time>2026-03-22T07:31:15Z</time></trkpt><trkpt lat="45.02825745797026" lon="9.998111710923654"><ele>41.0</ele><time>2026-03-22T07:31:16Z</time></trkpt><trkpt lat="45.02822198260269" lon="9.998205210876382"><ele>41.0</ele><time>2026-03-22T07:31:17Z</time></trkpt><trkpt lat="45.028178519063424" lon="9.998286607636999"><ele>41.0</ele><time>2026-03-22T07:31:18Z</time></trkpt><trkpt lat="45.028109207830305" lon="9.998338051473976"><ele>40.83333333333333</ele><time>2026-03-22T07:31:19Z</time></trkpt><trkpt lat="45.02803631357195" lon="9.998356167572753"><ele>40.666666666666664</ele><time>2026-03-22T07:31:19.999Z</time></trkpt><trkpt lat="45.02795720081075" lon="9.99831984243817"><ele>40.5</ele><time>2026-03-22T07:31:20.999Z</time></trkpt><trkpt lat="45.027886171003026" lon="9.998270360347291"><ele>40.333333333333336</ele><time>2026-03-22T07:31:21.999Z</time></trkpt><trkpt lat="45.02782236146877" lon="9.998220251785712"><ele>40.16666666666667</ele><time>2026-03-22T07:31:22.999Z</time></trkpt><trkpt lat="45.02775911206895" lon="9.99816431481649"><ele>40.0</ele><time>2026-03-22T07:31:23.999Z</time></trkpt><trkpt lat="45.027692449234436" lon="9.998108897300035"><ele>40.16666666666667</ele><time>2026-03-22T07:31:24.999Z</time></trkpt><trkpt lat="45.02762694456146" lon="9.998058579237261"><ele>40.333333333333336</ele><time>2026-03-22T07:31:25.999Z</time></trkpt><trkpt lat="45.02755821493869" lon="9.998010644484369"><ele>40.5</ele><time>2026-03-22T07:31:26.999Z</time></trkpt><trkpt lat="45.02749082549596" lon="9.997963880367337"><ele>40.666666666666664</ele><time>2026-03-22T07:31:27.999Z</time></trkpt><trkpt lat="45.02742315956675" lon="9.997917309957295"><ele>40.83333333333333</ele><time>2026-03-22T07:31:28.999Z</time></trkpt><trkpt lat="45.0273564696733" lon="9.997870840586398"><ele>41.0</ele><time>2026-03-22T07:31:29.999Z</time></trkpt><trkpt lat="45.027290005882364" lon="9.997822366343238"><ele>41.0</ele><time>2026-03-22T07:31:30.999Z</time></trkpt><trkpt lat="45.027225195530995" lon="9.997775686566094"><ele>41.0</ele><time>2026-03-22T07:31:31.999Z</time></trkpt><trkpt lat="45.0271584665315" lon="9.997724753296978"><ele>41.0</ele><time>2026-03-22T07:31:32.999Z</time></trkpt><trkpt lat="45.02709189240702" lon="9.99767674651926"><ele>41.0</ele><time>2026-03-22T07:31:33.999Z</time></trkpt><trkpt lat="45.027024285073686" lon="9.997628167766894"><ele>41.0</ele><time>2026-03-22T07:31:34.999Z</time></trkpt><trkpt lat="45.02695703719909" lon="9.997578279592691"><ele>41.0</ele><time>2026-03-22T07:31:35.999Z</time></trkpt><trkpt lat="45.026889881254" lon="9.997529978645852"><ele>40.99999999999999</ele><time>2026-03-22T07:31:36.999Z</time></trkpt><trkpt lat="45.02682322213689" lon="9.997488113272773"><ele>41.0</ele><time>2026-03-22T07:31:37.999Z</time></trkpt><trkpt lat="45.026752965672735" lon="9.99745528853354"><ele>41.0</ele><time>2026-03-22T07:31:38.999Z</time></trkpt><trkpt lat="45.02668144820775" lon="9.997450267563822"><ele>41.0</ele><time>2026-03-22T07:31:39.999Z</time></trkpt><trkpt lat="45.02661339381851" lon="9.997480591496059"><ele>41.0</ele><time>2026-03-22T07:31:40.999Z</time></trkpt><trkpt lat="45.026555347320546" lon="9.997544331079464"><ele>40.99999999999999</ele><time>2026-03-22T07:31:41.999Z</time></trkpt><trkpt lat="45.02650836188509" lon="9.997624310325964"><ele>41.0</ele><time>2026-03-22T07:31:42.999Z</time></trkpt><trkpt lat="45.02647021188577" lon="9.997717881584936"><ele>41.14285714285714</ele><time>2026-03-22T07:31:43.999Z</time></trkpt><trkpt lat="45.02643755252438" lon="9.99781118547188"><ele>41.285714285714285</ele><time>2026-03-22T07:31:44.999Z</time></trkpt><trkpt lat="45.02640908864641" lon="9.997904262677427"><ele>41.42857142857143</ele><time>2026-03-22T07:31:45.999Z</time></trkpt><trkpt lat="45.02638458627346" lon="9.998000193251988"><ele>41.57142857142857</ele><time>2026-03-22T07:31:46.999Z</time></trkpt><trkpt lat="45.02634079764254" lon="9.998082703776717"><ele>41.714285714285715</ele><time>2026-03-22T07:31:47.999Z</time></trkpt><trkpt lat="45.02630274313452" lon="9.99816819270181"><ele>41.857142857142854</ele><time>2026-03-22T07:31:48.999Z</time></trkpt><trkpt lat="45.0262689791354" lon="9.998260361059723"><ele>42.0</ele><time>2026-03-22T07:31:49.999Z</time></trkpt><trkpt lat="45.02623311444074" lon="9.998347101967136"><ele>42.0</ele><time>2026-03-22T07:31:50.999Z</time></trkpt><trkpt lat="45.026196418449985" lon="9.998432120371115"><ele>42.0</ele><time>2026-03-22T07:31:51.999Z</time></trkpt><trkpt lat="45.02616333431575" lon="9.998514629375938"><ele>42.0</ele><time>2026-03-22T07:31:52.999Z</time></trkpt><trkpt lat="45.026129593574915" lon="9.998596423128317"><ele>42.0</ele><time>2026-03-22T07:31:53.999Z</time></trkpt><trkpt lat="45.02609811494933" lon="9.998677243065028"><ele>42.0</ele><time>2026-03-22T07:31:54.999Z</time></trkpt><trkpt lat="45.02603032076327" lon="9.998824850703855"><ele>42.0</ele><time>2026-03-22T07:31:56.999Z</time></trkpt><trkpt lat="45.02597930299044" lon="9.99894454620034"><ele>42.0</ele><time>2026-03-22T07:31:58.999Z</time></trkpt><trkpt lat="45.02593810277708" lon="9.999054588569917"><ele>42.0</ele><time>2026-03-22T07:32:00.999Z</time></trkpt><trkpt lat="45.02589890576922" lon="9.999152148176451"><ele>42.0</ele><time>2026-03-22T07:32:02.999Z</time></trkpt><trkpt lat="45.02585478033314" lon="9.999239167935658"><ele>42.0</ele><time>2026-03-22T07:32:04.999Z</time></trkpt><trkpt lat="45.02580949992407" lon="9.999326109381522"><ele>42.0</ele><time>2026-03-22T07:32:06.999Z</time></trkpt><trkpt lat="45.02576249171031" lon="9.999419761433247"><ele>42.0</ele><time>2026-03-22T07:32:08.999Z</time></trkpt><trkpt lat="45.02571243560049" lon="9.999532777264301"><ele>42.2</ele><time>2026-03-22T07:32:10.999Z</time></trkpt><trkpt lat="45.025657943256576" lon="9.999657400457776"><ele>42.400000000000006</ele><time>2026-03-22T07:32:12.999Z</time></trkpt><trkpt lat="45.02560003770652" lon="9.99977337576553"><ele>42.599999999999994</ele><time>2026-03-22T07:32:14.999Z</time></trkpt><trkpt lat="45.025521514817385" lon="9.999874425356955"><ele>42.8</ele><time>2026-03-22T07:32:16.999Z</time></trkpt><trkpt lat="45.02544369760708" lon="9.999999650812196"><ele>43.0</ele><time>2026-03-22T07:32:18.998Z</time></trkpt><trkpt lat="45.02534840693071" lon="10.00011516400785"><ele>43.00000000000001</ele><time>2026-03-22T07:32:20.998Z</time></trkpt><trkpt lat="45.02529799675657" lon="10.00016962805565"><ele>43.0</ele><time>2026-03-22T07:32:21.998Z</time></trkpt><trkpt lat="45.02524064080345" lon="10.000230765934154"><ele>43.0</ele><time>2026-03-22T07:32:22.998Z</time></trkpt><trkpt lat="45.025181379228385" lon="10.000292237316712"><ele>43.0</ele><time>2026-03-22T07:32:23.998Z</time></trkpt><trkpt lat="45.025123317924454" lon="10.000356325811234"><ele>43.0</ele><time>2026-03-22T07:32:24.998Z</time></trkpt><trkpt lat="45.02506416667094" lon="10.00042131340847"><ele>43.00000000000001</ele><time>2026-03-22T07:32:25.998Z</time></trkpt><trkpt lat="45.02500343799533" lon="10.000490711782758"><ele>43.0</ele><time>2026-03-22T07:32:26.998Z</time></trkpt><trkpt lat="45.02494083358448" lon="10.000561071364906"><ele>42.833333333333336</ele><time>2026-03-22T07:32:27.998Z</time></trkpt><trkpt lat="45.024873527752646" lon="10.000632568279869"><ele>42.66666666666667</ele><time>2026-03-22T07:32:28.998Z</time></trkpt><trkpt lat="45.024807609960384" lon="10.000707083550099"><ele>42.5</ele><time>2026-03-22T07:32:29.998Z</time></trkpt><trkpt lat="45.02474059277622" lon="10.000782453585492"><ele>42.333333333333336</ele><time>2026-03-22T07:32:30.998Z</time></trkpt><trkpt lat="45.024675253419524" lon="10.000860716293943"><ele>42.166666666666664</ele><time>2026-03-22T07:32:31.998Z</time></trkpt><trkpt lat="45.024607720881555" lon="10.000940710305594"><ele>42.0</ele><time>2026-03-22T07:32:32.998Z</time></trkpt><trkpt lat="45.02454094200848" lon="10.001021986093146"><ele>41.666666666666664</ele><time>2026-03-22T07:32:33.998Z</time></trkpt><trkpt lat="45.02447437124695" lon="10.001101501855135"><ele>41.333333333333336</ele><time>2026-03-22T07:32:34.998Z</time></trkpt><trkpt lat="45.02440244059224" lon="10.001180477081606"><ele>41.0</ele><time>2026-03-22T07:32:35.998Z</time></trkpt><trkpt lat="45.02433441486646" lon="10.001254906137618"><ele>40.66666666666667</ele><time>2026-03-22T07:32:36.998Z</time></trkpt><trkpt lat="45.02426287298872" lon="10.001330672260769"><ele>40.333333333333336</ele><time>2026-03-22T07:32:37.998Z</time></trkpt><trkpt lat="45.02419386962437" lon="10.001409039679407"><ele>40.0</ele><time>2026-03-22T07:32:38.998Z</time></trkpt><trkpt lat="45.0241250913521" lon="10.001485880713002"><ele>39.66666666666667</ele><time>2026-03-22T07:32:39.998Z</time></trkpt><trkpt lat="45.024060146532555" lon="10.001565304086881"><ele>39.333333333333336</ele><time>2026-03-22T07:32:40.998Z</time></trkpt><trkpt lat="45.02399196535131" lon="10.001639697988484"><ele>39.0</ele><time>2026-03-22T07:32:41.998Z</time></trkpt><trkpt lat="45.02392532364492" lon="10.001717223250663"><ele>38.666666666666664</ele><time>2026-03-22T07:32:42.998Z</time></trkpt><trkpt lat="45.02385802628131" lon="10.001790369328614"><ele>38.33333333333333</ele><time>2026-03-22T07:32:43.998Z</time></trkpt><trkpt lat="45.023792939964586" lon="10.001865943637345"><ele>38.0</ele><time>2026-03-22T07:32:44.998Z</time></trkpt><trkpt lat="45.02373093474049" lon="10.00194253953933"><ele>37.83333333333333</ele><time>2026-03-22T07:32:45.998Z</time></trkpt><trkpt lat="45.02366733588581" lon="10.00201154806336"><ele>37.666666666666664</ele><time>2026-03-22T07:32:46.998Z</time></trkpt><trkpt lat="45.02360956106025" lon="10.002083477264746"><ele>37.5</ele><time>2026-03-22T07:32:47.998Z</time></trkpt><trkpt lat="45.023545766240304" lon="10.002148553464185"><ele>37.333333333333336</ele><time>2026-03-22T07:32:48.998Z</time></trkpt><trkpt lat="45.023486947528625" lon="10.002217302885965"><ele>37.16666666666667</ele><time>2026-03-22T07:32:49.998Z</time></trkpt><trkpt lat="45.023432382382275" lon="10.002288153015225"><ele>37.0</ele><time>2026-03-22T07:32:50.998Z</time></trkpt><trkpt lat="45.023381754392474" lon="10.002359874991008"><ele>37.0</ele><time>2026-03-22T07:32:51.998Z</time></trkpt><trkpt lat="45.02333335403057" lon="10.002440957642134"><ele>37.0</ele><time>2026-03-22T07:32:52.998Z</time></trkpt><trkpt lat="45.023286486815" lon="10.002524514134866"><ele>37.0</ele><time>2026-03-22T07:32:53.998Z</time></trkpt><trkpt lat="45.02323811460262" lon="10.002608962699474"><ele>37.0</ele><time>2026-03-22T07:32:54.998Z</time></trkpt><trkpt lat="45.02319459758878" lon="10.002696980627988"><ele>37.0</ele><time>2026-03-22T07:32:55.998Z</time></trkpt><trkpt lat="45.02315059845222" lon="10.00278540179834"><ele>37.0</ele><time>2026-03-22T07:32:56.998Z</time></trkpt><trkpt lat="45.0231075422522" lon="10.002871965455077"><ele>36.833333333333336</ele><time>2026-03-22T07:32:58Z</time></trkpt><trkpt lat="45.02306285908698" lon="10.002959933053365"><ele>36.66666666666667</ele><time>2026-03-22T07:32:59Z</time></trkpt><trkpt lat="45.0230177431188" lon="10.003046493096866"><ele>36.5</ele><time>2026-03-22T07:33:00Z</time></trkpt><trkpt lat="45.0229738235546" lon="10.003135312737935"><ele>36.333333333333336</ele><time>2026-03-22T07:33:01Z</time></trkpt><trkpt lat="45.022928998290254" lon="10.003222825573111"><ele>36.166666666666664</ele><time>2026-03-22T07:33:02Z</time></trkpt><trkpt lat="45.0228840177381" lon="10.00330964035791"><ele>36.0</ele><time>2026-03-22T07:33:03Z</time></trkpt><trkpt lat="45.02284088878434" lon="10.003398035785736"><ele>36.0</ele><time>2026-03-22T07:33:04Z</time></trkpt><trkpt lat="45.02279639762862" lon="10.003487556565442"><ele>36.0</ele><time>2026-03-22T07:33:05Z</time></trkpt><trkpt lat="45.0227519067808" lon="10.003576870869352"><ele>36.0</ele><time>2026-03-22T07:33:06Z</time></trkpt><trkpt lat="45.022702334389116" lon="10.003664742918565"><ele>36.0</ele><time>2026-03-22T07:33:07Z</time></trkpt><trkpt lat="45.02265496817642" lon="10.003754848903272"><ele>36.0</ele><time>2026-03-22T07:33:08Z</time></trkpt><trkpt lat="45.02260821245867" lon="10.003849374740717"><ele>36.0</ele><time>2026-03-22T07:33:09Z</time></trkpt><trkpt lat="45.022563706736115" lon="10.003941393715753"><ele>36.0</ele><time>2026-03-22T07:33:10Z</time></trkpt><trkpt lat="45.0225191960742" lon="10.004032010501302"><ele>36.0</ele><time>2026-03-22T07:33:11Z</time></trkpt><trkpt lat="45.02247543116192" lon="10.00412268353835"><ele>36.0</ele><time>2026-03-22T07:33:12Z</time></trkpt><trkpt lat="45.022430133877805" lon="10.004209840001405"><ele>36.0</ele><time>2026-03-22T07:33:13Z</time></trkpt><trkpt lat="45.022384120785496" lon="10.004296700955816"><ele>36.0</ele><time>2026-03-22T07:33:14Z</time></trkpt><trkpt lat="45.02233786212109" lon="10.004384527322323"><ele>36.0</ele><time>2026-03-22T07:33:15Z</time></trkpt><trkpt lat="45.02229416525118" lon="10.004474854464895"><ele>36.166666666666664</ele><time>2026-03-22T07:33:16Z</time></trkpt><trkpt lat="45.02225039503931" lon="10.004565793936981"><ele>36.333333333333336</ele><time>2026-03-22T07:33:17Z</time></trkpt><trkpt lat="45.02220573972404" lon="10.004655302664132"><ele>36.5</ele><time>2026-03-22T07:33:18Z</time></trkpt><trkpt lat="45.022159870914884" lon="10.004743830630417"><ele>36.66666666666667</ele><time>2026-03-22T07:33:19Z</time></trkpt><trkpt lat="45.02211399254837" lon="10.004830617213871"><ele>36.833333333333336</ele><time>2026-03-22T07:33:20Z</time></trkpt><trkpt lat="45.02206847720645" lon="10.004920241042138"><ele>37.0</ele><time>2026-03-22T07:33:21Z</time></trkpt><trkpt lat="45.02202172827663" lon="10.005010776877747"><ele>37.0</ele><time>2026-03-22T07:33:22Z</time></trkpt><trkpt lat="45.02197518841243" lon="10.005101572137287"><ele>37.0</ele><time>2026-03-22T07:33:22.999Z</time></trkpt><trkpt lat="45.021930132732386" lon="10.005193646680937"><ele>37.0</ele><time>2026-03-22T07:33:23.999Z</time></trkpt><trkpt lat="45.02188419305513" lon="10.005281139588194"><ele>37.0</ele><time>2026-03-22T07:33:24.999Z</time></trkpt><trkpt lat="45.021839353576624" lon="10.005370890747752"><ele>37.0</ele><time>2026-03-22T07:33:25.999Z</time></trkpt><trkpt lat="45.021793304564646" lon="10.0054583647037"><ele>37.0</ele><time>2026-03-22T07:33:26.999Z</time></trkpt><trkpt lat="45.02175065035762" lon="10.005550256075287"><ele>37.0</ele><time>2026-03-22T07:33:27.999Z</time></trkpt><trkpt lat="45.02170351901423" lon="10.005638368968969"><ele>37.0</ele><time>2026-03-22T07:33:28.999Z</time></trkpt><trkpt lat="45.02166241602905" lon="10.005726354112646"><ele>37.0</ele><time>2026-03-22T07:33:29.999Z</time></trkpt><trkpt lat="45.021620306432915" lon="10.005812427352422"><ele>37.0</ele><time>2026-03-22T07:33:30.999Z</time></trkpt><trkpt lat="45.02157735954142" lon="10.00589704485306"><ele>37.0</ele><time>2026-03-22T07:33:31.999Z</time></trkpt><trkpt lat="45.021534150821516" lon="10.005983904497953"><ele>37.0</ele><time>2026-03-22T07:33:32.999Z</time></trkpt><trkpt lat="45.02148879395861" lon="10.006072274064891"><ele>36.66666666666667</ele><time>2026-03-22T07:33:33.999Z</time></trkpt><trkpt lat="45.0214426448403" lon="10.00615845436003"><ele>36.333333333333336</ele><time>2026-03-22T07:33:34.999Z</time></trkpt><trkpt lat="45.0213977298866" lon="10.00624547854413"><ele>36.0</ele><time>2026-03-22T07:33:35.999Z</time></trkpt><trkpt lat="45.021354428814604" lon="10.006334797440756"><ele>35.666666666666664</ele><time>2026-03-22T07:33:36.999Z</time></trkpt><trkpt lat="45.021310026295446" lon="10.006422828452786"><ele>35.33333333333333</ele><time>2026-03-22T07:33:37.999Z</time></trkpt><trkpt lat="45.021265193313916" lon="10.006511258857833"><ele>35.0</ele><time>2026-03-22T07:33:38.999Z</time></trkpt><trkpt lat="45.02122125011011" lon="10.006598831262156"><ele>35.5</ele><time>2026-03-22T07:33:39.999Z</time></trkpt><trkpt lat="45.02117634743735" lon="10.006687869378494"><ele>36.0</ele><time>2026-03-22T07:33:40.999Z</time></trkpt><trkpt lat="45.02112976185869" lon="10.006775699872074"><ele>36.5</ele><time>2026-03-22T07:33:41.999Z</time></trkpt><trkpt lat="45.021086425053504" lon="10.006865311388587"><ele>37.0</ele><time>2026-03-22T07:33:42.999Z</time></trkpt><trkpt lat="45.02104030914471" lon="10.006952950473078"><ele>37.5</ele><time>2026-03-22T07:33:43.999Z</time></trkpt><trkpt lat="45.0209968884748" lon="10.007039405638444"><ele>38.0</ele><time>2026-03-22T07:33:44.999Z</time></trkpt><trkpt lat="45.0209534399273" lon="10.007126459371849"><ele>38.0</ele><time>2026-03-22T07:33:45.999Z</time></trkpt><trkpt lat="45.02091066940179" lon="10.00721330861814"><ele>38.0</ele><time>2026-03-22T07:33:46.999Z</time></trkpt><trkpt lat="45.020864871690954" lon="10.007300603174352"><ele>38.0</ele><time>2026-03-22T07:33:47.999Z</time></trkpt><trkpt lat="45.020821318510784" lon="10.007386624015037"><ele>38.0</ele><time>2026-03-22T07:33:48.999Z</time></trkpt><trkpt lat="45.02077939332264" lon="10.007474117174178"><ele>38.0</ele><time>2026-03-22T07:33:49.999Z</time></trkpt><trkpt lat="45.0207350225035" lon="10.007560805537615"><ele>38.0</ele><time>2026-03-22T07:33:50.999Z</time></trkpt><trkpt lat="45.02069087278015" lon="10.007645484419672"><ele>38.0</ele><time>2026-03-22T07:33:51.999Z</time></trkpt><trkpt lat="45.02064713157463" lon="10.00773151492817"><ele>38.0</ele><time>2026-03-22T07:33:52.999Z</time></trkpt><trkpt lat="45.0206056917572" lon="10.00781948655582"><ele>38.0</ele><time>2026-03-22T07:33:53.999Z</time></trkpt><trkpt lat="45.0205631576669" lon="10.007904786330554"><ele>38.0</ele><time>2026-03-22T07:33:54.999Z</time></trkpt><trkpt lat="45.020518130597445" lon="10.007992198866534"><ele>38.0</ele><time>2026-03-22T07:33:55.999Z</time></trkpt><trkpt lat="45.02047116498275" lon="10.008076833522813"><ele>38.0</ele><time>2026-03-22T07:33:56.999Z</time></trkpt><trkpt lat="45.020425894441914" lon="10.008161116606734"><ele>38.0</ele><time>2026-03-22T07:33:57.999Z</time></trkpt><trkpt lat="45.02038489292492" lon="10.008250119135274"><ele>38.0</ele><time>2026-03-22T07:33:58.999Z</time></trkpt><trkpt lat="45.020344331667594" lon="10.008336522651977"><ele>38.0</ele><time>2026-03-22T07:33:59.999Z</time></trkpt><trkpt lat="45.020305080381775" lon="10.008421329962584"><ele>38.0</ele><time>2026-03-22T07:34:00.999Z</time></trkpt><trkpt lat="45.02026287138886" lon="10.008501864747466"><ele>38.0</ele><time>2026-03-22T07:34:01.999Z</time></trkpt><trkpt lat="45.020222849261856" lon="10.008582687820065"><ele>38.0</ele><time>2026-03-22T07:34:02.999Z</time></trkpt><trkpt lat="45.020181579712805" lon="10.008659223480494"><ele>38.0</ele><time>2026-03-22T07:34:03.999Z</time></trkpt><trkpt lat="45.02014287154424" lon="10.00873567011315"><ele>37.83333333333333</ele><time>2026-03-22T07:34:04.999Z</time></trkpt><trkpt lat="45.020108048148906" lon="10.008811934845854"><ele>37.666666666666664</ele><time>2026-03-22T07:34:05.999Z</time></trkpt><trkpt lat="45.020071923870766" lon="10.008886015908704"><ele>37.5</ele><time>2026-03-22T07:34:06.999Z</time></trkpt><trkpt lat="45.01999435853925" lon="10.00900036706977"><ele>37.333333333333336</ele><time>2026-03-22T07:34:08.999Z</time></trkpt><trkpt lat="45.019870932503856" lon="10.008983362904532"><ele>37.16666666666667</ele><time>2026-03-22T07:34:10.999Z</time></trkpt><trkpt lat="45.01982680365193" lon="10.008885340711114"><ele>37.0</ele><time>2026-03-22T07:34:11.999Z</time></trkpt><trkpt lat="45.01978717441787" lon="10.00879733909793"><ele>36.85714285714286</ele><time>2026-03-22T07:34:12.999Z</time></trkpt><trkpt lat="45.01974333653934" lon="10.008725382431011"><ele>36.714285714285715</ele><time>2026-03-22T07:34:13.999Z</time></trkpt><trkpt lat="45.019694495979884" lon="10.008645782433002"><ele>36.57142857142857</ele><time>2026-03-22T07:34:14.999Z</time></trkpt><trkpt lat="45.01964740375128" lon="10.008563722400094"><ele>36.42857142857143</ele><time>2026-03-22T07:34:15.999Z</time></trkpt><trkpt lat="45.019601663163975" lon="10.008480089213482"><ele>36.285714285714285</ele><time>2026-03-22T07:34:16.999Z</time></trkpt><trkpt lat="45.01955695726792" lon="10.008395654332729"><ele>36.142857142857146</ele><time>2026-03-22T07:34:17.999Z</time></trkpt><trkpt lat="45.019510405833955" lon="10.00831430486546"><ele>36.0</ele><time>2026-03-22T07:34:18.999Z</time></trkpt><trkpt lat="45.019460709873194" lon="10.008235841088332"><ele>36.0</ele><time>2026-03-22T07:34:19.999Z</time></trkpt><trkpt lat="45.01940952494784" lon="10.008156577226009"><ele>36.0</ele><time>2026-03-22T07:34:20.999Z</time></trkpt><trkpt lat="45.01935835829983" lon="10.008074635737069"><ele>36.0</ele><time>2026-03-22T07:34:21.998Z</time></trkpt><trkpt lat="45.01930620396885" lon="10.007992256048283"><ele>36.0</ele><time>2026-03-22T07:34:22.998Z</time></trkpt><trkpt lat="45.019254789192324" lon="10.007910596907362"><ele>36.0</ele><time>2026-03-22T07:34:23.998Z</time></trkpt><trkpt lat="45.01920411375837" lon="10.00782236321206"><ele>36.0</ele><time>2026-03-22T07:34:24.998Z</time></trkpt><trkpt lat="45.01915326040973" lon="10.00773485092369"><ele>36.333333333333336</ele><time>2026-03-22T07:34:25.998Z</time></trkpt><trkpt lat="45.019101220228784" lon="10.00764746276544"><ele>36.666666666666664</ele><time>2026-03-22T07:34:26.998Z</time></trkpt><trkpt lat="45.01905054544468" lon="10.00755840438649"><ele>37.0</ele><time>2026-03-22T07:34:27.998Z</time></trkpt><trkpt lat="45.018998806651375" lon="10.007475679418581"><ele>37.33333333333333</ele><time>2026-03-22T07:34:28.998Z</time></trkpt><trkpt lat="45.01895121603189" lon="10.007389317498887"><ele>37.666666666666664</ele><time>2026-03-22T07:34:29.998Z</time></trkpt><trkpt lat="45.01890020859504" lon="10.007308072121095"><ele>38.0</ele><time>2026-03-22T07:34:30.998Z</time></trkpt><trkpt lat="45.01884800824889" lon="10.007224111331304"><ele>38.0</ele><time>2026-03-22T07:34:31.998Z</time></trkpt><trkpt lat="45.018796436554496" lon="10.00714175729331"><ele>38.0</ele><time>2026-03-22T07:34:32.998Z</time></trkpt><trkpt lat="45.0187436723082" lon="10.007056915600357"><ele>38.0</ele><time>2026-03-22T07:34:33.998Z</time></trkpt><trkpt lat="45.0186936481399" lon="10.006974362236463"><ele>38.0</ele><time>2026-03-22T07:34:34.998Z</time></trkpt><trkpt lat="45.018643563097434" lon="10.006889860035324"><ele>38.0</ele><time>2026-03-22T07:34:35.998Z</time></trkpt><trkpt lat="45.01859176752925" lon="10.006804797194622"><ele>38.0</ele><time>2026-03-22T07:34:36.998Z</time></trkpt><trkpt lat="45.01854068922954" lon="10.00672153928432"><ele>38.166666666666664</ele><time>2026-03-22T07:34:37.998Z</time></trkpt><trkpt lat="45.01849042537213" lon="10.00663604210753"><ele>38.33333333333333</ele><time>2026-03-22T07:34:38.998Z</time></trkpt><trkpt lat="45.01844116155767" lon="10.006551108993694"><ele>38.5</ele><time>2026-03-22T07:34:39.998Z</time></trkpt><trkpt lat="45.01838955737594" lon="10.006467632506343"><ele>38.666666666666664</ele><time>2026-03-22T07:34:40.998Z</time></trkpt><trkpt lat="45.018337807785244" lon="10.00638303075599"><ele>38.833333333333336</ele><time>2026-03-22T07:34:41.998Z</time></trkpt><trkpt lat="45.018287165236835" lon="10.006298682260852"><ele>39.0</ele><time>2026-03-22T07:34:42.998Z</time></trkpt><trkpt lat="45.01823640235608" lon="10.006214233565776"><ele>39.0</ele><time>2026-03-22T07:34:43.998Z</time></trkpt><trkpt lat="45.01818537146268" lon="10.006128901655126"><ele>39.0</ele><time>2026-03-22T07:34:44.998Z</time></trkpt><trkpt lat="45.01813454326929" lon="10.006044469058386"><ele>39.0</ele><time>2026-03-22T07:34:45.998Z</time></trkpt><trkpt lat="45.01808206685795" lon="10.005959474342939"><ele>39.0</ele><time>2026-03-22T07:34:46.998Z</time></trkpt><trkpt lat="45.018029225866506" lon="10.005875981737626"><ele>39.0</ele><time>2026-03-22T07:34:47.998Z</time></trkpt><trkpt lat="45.017976493258004" lon="10.005792808618237"><ele>39.0</ele><time>2026-03-22T07:34:48.998Z</time></trkpt><trkpt lat="45.0179251613816" lon="10.005708686609093"><ele>39.0</ele><time>2026-03-22T07:34:49.998Z</time></trkpt><trkpt lat="45.017874668853416" lon="10.005624606991436"><ele>39.0</ele><time>2026-03-22T07:34:50.998Z</time></trkpt><trkpt lat="45.01782234001195" lon="10.005541204852413"><ele>39.0</ele><time>2026-03-22T07:34:51.998Z</time></trkpt><trkpt lat="45.01776968885259" lon="10.005456611156344"><ele>39.0</ele><time>2026-03-22T07:34:52.998Z</time></trkpt><trkpt lat="45.01771790512298" lon="10.005373421313081"><ele>39.0</ele><time>2026-03-22T07:34:53.998Z</time></trkpt><trkpt lat="45.01766664847733" lon="10.005289667138893"><ele>39.0</ele><time>2026-03-22T07:34:54.998Z</time></trkpt><trkpt lat="45.01761509267783" lon="10.00520398916751"><ele>39.0</ele><time>2026-03-22T07:34:55.998Z</time></trkpt><trkpt lat="45.01756357896088" lon="10.005120269517182"><ele>39.0</ele><time>2026-03-22T07:34:56.998Z</time></trkpt><trkpt lat="45.01750970448954" lon="10.00503551472051"><ele>39.0</ele><time>2026-03-22T07:34:57.998Z</time></trkpt><trkpt lat="45.01746018428459" lon="10.004950278055276"><ele>39.0</ele><time>2026-03-22T07:34:58.998Z</time></trkpt><trkpt lat="45.017405262053366" lon="10.004863019005505"><ele>39.0</ele><time>2026-03-22T07:34:59.998Z</time></trkpt><trkpt lat="45.0173519841229" lon="10.004780783511416"><ele>39.0</ele><time>2026-03-22T07:35:00.998Z</time></trkpt><trkpt lat="45.017299521257605" lon="10.00469465988931"><ele>38.833333333333336</ele><time>2026-03-22T07:35:01.998Z</time></trkpt><trkpt lat="45.01724707081407" lon="10.004610853960132"><ele>38.666666666666664</ele><time>2026-03-22T07:35:02.998Z</time></trkpt><trkpt lat="45.017195386808496" lon="10.004527379828613"><ele>38.5</ele><time>2026-03-22T07:35:04Z</time></trkpt><trkpt lat="45.01714433766638" lon="10.004444630913214"><ele>38.33333333333333</ele><time>2026-03-22T07:35:05Z</time></trkpt><trkpt lat="45.01709368062471" lon="10.004363133011463"><ele>38.166666666666664</ele><time>2026-03-22T07:35:06Z</time></trkpt><trkpt lat="45.01704188694073" lon="10.004281107114881"><ele>38.0</ele><time>2026-03-22T07:35:07Z</time></trkpt><trkpt lat="45.016991764413405" lon="10.004199295242262"><ele>38.0</ele><time>2026-03-22T07:35:08Z</time></trkpt><trkpt lat="45.016942421917435" lon="10.004112703746676"><ele>38.0</ele><time>2026-03-22T07:35:09Z</time></trkpt><trkpt lat="45.01689190014492" lon="10.004028466546316"><ele>38.0</ele><time>2026-03-22T07:35:10Z</time></trkpt><trkpt lat="45.01683924525887" lon="10.0039406642846"><ele>38.0</ele><time>2026-03-22T07:35:11Z</time></trkpt><trkpt lat="45.01678597448647" lon="10.003855888286045"><ele>38.0</ele><time>2026-03-22T07:35:12Z</time></trkpt><trkpt lat="45.01673480931181" lon="10.003769127368436"><ele>38.0</ele><time>2026-03-22T07:35:13Z</time></trkpt><trkpt lat="45.016681130890426" lon="10.00368573405751"><ele>38.0</ele><time>2026-03-22T07:35:14Z</time></trkpt><trkpt lat="45.01662903180011" lon="10.003604182203178"><ele>38.0</ele><time>2026-03-22T07:35:15Z</time></trkpt><trkpt lat="45.01658109266481" lon="10.003524810864459"><ele>38.0</ele><time>2026-03-22T07:35:16Z</time></trkpt><trkpt lat="45.01653167081922" lon="10.003438852898437"><ele>38.0</ele><time>2026-03-22T07:35:17Z</time></trkpt><trkpt lat="45.01648095789207" lon="10.003359103874207"><ele>38.0</ele><time>2026-03-22T07:35:18Z</time></trkpt><trkpt lat="45.016430335769066" lon="10.00327503393004"><ele>38.0</ele><time>2026-03-22T07:35:19Z</time></trkpt><trkpt lat="45.016379706681256" lon="10.0031903887647"><ele>38.0</ele><time>2026-03-22T07:35:20Z</time></trkpt><trkpt lat="45.01632795889309" lon="10.003109907972295"><ele>38.0</ele><time>2026-03-22T07:35:21Z</time></trkpt><trkpt lat="45.01628010353423" lon="10.003021838658265"><ele>38.0</ele><time>2026-03-22T07:35:22Z</time></trkpt><trkpt lat="45.01622683856093" lon="10.002936036544973"><ele>38.0</ele><time>2026-03-22T07:35:23Z</time></trkpt><trkpt lat="45.01617662172327" lon="10.002852499012713"><ele>38.0</ele><time>2026-03-22T07:35:24Z</time></trkpt><trkpt lat="45.01612630836404" lon="10.002767721816685"><ele>38.0</ele><time>2026-03-22T07:35:25Z</time></trkpt><trkpt lat="45.016073853163554" lon="10.002682975981037"><ele>38.0</ele><time>2026-03-22T07:35:26Z</time></trkpt><trkpt lat="45.016022950666255" lon="10.002598372294196"><ele>38.0</ele><time>2026-03-22T07:35:26.999Z</time></trkpt><trkpt lat="45.01597192000669" lon="10.002514060356459"><ele>38.0</ele><time>2026-03-22T07:35:27.999Z</time></trkpt><trkpt lat="45.01591940632684" lon="10.002435290505202"><ele>38.0</ele><time>2026-03-22T07:35:28.999Z</time></trkpt><trkpt lat="45.01586815002435" lon="10.002350862710605"><ele>38.0</ele><time>2026-03-22T07:35:29.999Z</time></trkpt><trkpt lat="45.015815766232045" lon="10.00227425523119"><ele>38.0</ele><time>2026-03-22T07:35:30.999Z</time></trkpt><trkpt lat="45.015765179346715" lon="10.002191486357074"><ele>38.0</ele><time>2026-03-22T07:35:31.999Z</time></trkpt><trkpt lat="45.015714934427926" lon="10.002110727928676"><ele>38.0</ele><time>2026-03-22T07:35:32.999Z</time></trkpt><trkpt lat="45.0156643424323" lon="10.002027232284474"><ele>38.0</ele><time>2026-03-22T07:35:33.999Z</time></trkpt><trkpt lat="45.015612766402676" lon="10.00194912521677"><ele>38.0</ele><time>2026-03-22T07:35:34.999Z</time></trkpt><trkpt lat="45.015563302161006" lon="10.001877840247934"><ele>38.0</ele><time>2026-03-22T07:35:35.999Z</time></trkpt><trkpt lat="45.01551563105224" lon="10.00180737873021"><ele>38.0</ele><time>2026-03-22T07:35:36.999Z</time></trkpt><trkpt lat="45.01547491801613" lon="10.001735458987842"><ele>38.0</ele><time>2026-03-22T07:35:37.999Z</time></trkpt><trkpt lat="45.015433901623005" lon="10.001665125365895"><ele>38.0</ele><time>2026-03-22T07:35:38.999Z</time></trkpt><trkpt lat="45.01538730224047" lon="10.001590681783444"><ele>38.0</ele><time>2026-03-22T07:35:39.999Z</time></trkpt><trkpt lat="45.01533752734444" lon="10.00151613098663"><ele>38.0</ele><time>2026-03-22T07:35:40.999Z</time></trkpt><trkpt lat="45.01528883838175" lon="10.001437895525358"><ele>38.0</ele><time>2026-03-22T07:35:41.999Z</time></trkpt><trkpt lat="45.01523897699958" lon="10.001358105195099"><ele>38.0</ele><time>2026-03-22T07:35:42.999Z</time></trkpt><trkpt lat="45.015187563513734" lon="10.001276445186331"><ele>38.0</ele><time>2026-03-22T07:35:43.999Z</time></trkpt><trkpt lat="45.01514020873993" lon="10.001191867040307"><ele>38.0</ele><time>2026-03-22T07:35:44.999Z</time></trkpt><trkpt lat="45.01509122825178" lon="10.001112681670309"><ele>38.0</ele><time>2026-03-22T07:35:45.999Z</time></trkpt><trkpt lat="45.01504241560202" lon="10.001032410365664"><ele>38.0</ele><time>2026-03-22T07:35:46.999Z</time></trkpt><trkpt lat="45.01499327955549" lon="10.000951677550615"><ele>38.0</ele><time>2026-03-22T07:35:47.999Z</time></trkpt><trkpt lat="45.014944310240374" lon="10.000869507757688"><ele>38.0</ele><time>2026-03-22T07:35:48.999Z</time></trkpt><trkpt lat="45.01489507545697" lon="10.000789661211778"><ele>38.0</ele><time>2026-03-22T07:35:49.999Z</time></trkpt><trkpt lat="45.014844897533315" lon="10.000709503663604"><ele>38.0</ele><time>2026-03-22T07:35:50.999Z</time></trkpt><trkpt lat="45.0147948108547" lon="10.00062751296014"><ele>38.166666666666664</ele><time>2026-03-22T07:35:51.999Z</time></trkpt><trkpt lat="45.01474477232328" lon="10.000545062542443"><ele>38.33333333333333</ele><time>2026-03-22T07:35:52.999Z</time></trkpt><trkpt lat="45.01469335119488" lon="10.000463527530728"><ele>38.5</ele><time>2026-03-22T07:35:53.999Z</time></trkpt><trkpt lat="45.014644277562276" lon="10.000382266937516"><ele>38.666666666666664</ele><time>2026-03-22T07:35:54.999Z</time></trkpt><trkpt lat="45.01459494597269" lon="10.000294129920807"><ele>38.833333333333336</ele><time>2026-03-22T07:35:55.999Z</time></trkpt><trkpt lat="45.01454441982881" lon="10.000213016922842"><ele>39.0</ele><time>2026-03-22T07:35:56.999Z</time></trkpt><trkpt lat="45.01449218638117" lon="10.000130912906537"><ele>39.0</ele><time>2026-03-22T07:35:57.999Z</time></trkpt><trkpt lat="45.01443926238768" lon="10.00004789432034"><ele>39.0</ele><time>2026-03-22T07:35:58.999Z</time></trkpt><trkpt lat="45.014389742696885" lon="9.9999576126885"><ele>39.0</ele><time>2026-03-22T07:35:59.999Z</time></trkpt><trkpt lat="45.01433947873202" lon="9.999875380805094"><ele>39.0</ele><time>2026-03-22T07:36:00.999Z</time></trkpt><trkpt lat="45.01428761395312" lon="9.999790685587227"><ele>39.0</ele><time>2026-03-22T07:36:01.999Z</time></trkpt><trkpt lat="45.014234376335445" lon="9.999709149657733"><ele>39.0</ele><time>2026-03-22T07:36:02.999Z</time></trkpt><trkpt lat="45.01418392782811" lon="9.999625597117605"><ele>38.833333333333336</ele><time>2026-03-22T07:36:03.999Z</time></trkpt><trkpt lat="45.01413565919096" lon="9.999539565263515"><ele>38.666666666666664</ele><time>2026-03-22T07:36:04.999Z</time></trkpt><trkpt lat="45.014085490744506" lon="9.999458818162319"><ele>38.5</ele><time>2026-03-22T07:36:05.999Z</time></trkpt><trkpt lat="45.01403211736357" lon="9.999381200101675"><ele>38.33333333333333</ele><time>2026-03-22T07:36:06.999Z</time></trkpt><trkpt lat="45.013978220342814" lon="9.99930289236099"><ele>38.166666666666664</ele><time>2026-03-22T07:36:07.999Z</time></trkpt><trkpt lat="45.01393154963246" lon="9.999217542929896"><ele>38.0</ele><time>2026-03-22T07:36:08.999Z</time></trkpt><trkpt lat="45.01388418945" lon="9.999134172005501"><ele>38.0</ele><time>2026-03-22T07:36:09.999Z</time></trkpt><trkpt lat="45.01383391915793" lon="9.999051923487553"><ele>38.0</ele><time>2026-03-22T07:36:10.999Z</time></trkpt><trkpt lat="45.013782081329566" lon="9.998970254676557"><ele>38.0</ele><time>2026-03-22T07:36:11.999Z</time></trkpt><trkpt lat="45.01373056573751" lon="9.998891193896046"><ele>38.0</ele><time>2026-03-22T07:36:12.999Z</time></trkpt><trkpt lat="45.01367999421364" lon="9.998810112992613"><ele>38.0</ele><time>2026-03-22T07:36:13.999Z</time></trkpt><trkpt lat="45.013631920103926" lon="9.998729378455419"><ele>38.0</ele><time>2026-03-22T07:36:14.999Z</time></trkpt><trkpt lat="45.01358396307718" lon="9.998646925232011"><ele>38.0</ele><time>2026-03-22T07:36:15.999Z</time></trkpt><trkpt lat="45.01352940153746" lon="9.998572515410986"><ele>38.0</ele><time>2026-03-22T07:36:16.999Z</time></trkpt><trkpt lat="45.01348027675753" lon="9.998491906236772"><ele>38.0</ele><time>2026-03-22T07:36:17.999Z</time></trkpt><trkpt lat="45.01343517577749" lon="9.998410310005799"><ele>38.0</ele><time>2026-03-22T07:36:18.999Z</time></trkpt><trkpt lat="45.01339063416167" lon="9.998331381692656"><ele>38.0</ele><time>2026-03-22T07:36:19.999Z</time></trkpt><trkpt lat="45.013343710696276" lon="9.998255441144687"><ele>38.0</ele><time>2026-03-22T07:36:20.999Z</time></trkpt><trkpt lat="45.01329853254925" lon="9.99817654188983"><ele>38.0</ele><time>2026-03-22T07:36:21.999Z</time></trkpt><trkpt lat="45.01325435592911" lon="9.998095970604687"><ele>38.42857142857142</ele><time>2026-03-22T07:36:22.999Z</time></trkpt><trkpt lat="45.01320834768046" lon="9.998015236803115"><ele>38.85714285714286</ele><time>2026-03-22T07:36:23.999Z</time></trkpt><trkpt lat="45.01315753712199" lon="9.997937583854743"><ele>39.285714285714285</ele><time>2026-03-22T07:36:24.999Z</time></trkpt><trkpt lat="45.01310892337288" lon="9.997864354764793"><ele>39.71428571428571</ele><time>2026-03-22T07:36:25.999Z</time></trkpt><trkpt lat="45.01306377465738" lon="9.997785569251443"><ele>40.14285714285714</ele><time>2026-03-22T07:36:26.998Z</time></trkpt><trkpt lat="45.01301420260042" lon="9.997707428643954"><ele>40.57142857142857</ele><time>2026-03-22T07:36:27.998Z</time></trkpt><trkpt lat="45.01296781864361" lon="9.997625564149976"><ele>41.0</ele><time>2026-03-22T07:36:28.998Z</time></trkpt><trkpt lat="45.01291964956172" lon="9.997544185014357"><ele>40.71428571428571</ele><time>2026-03-22T07:36:29.998Z</time></trkpt><trkpt lat="45.012870338142626" lon="9.997465313179353"><ele>40.42857142857143</ele><time>2026-03-22T07:36:30.998Z</time></trkpt><trkpt lat="45.01282161442182" lon="9.997383359115783"><ele>40.14285714285714</ele><time>2026-03-22T07:36:31.998Z</time></trkpt><trkpt lat="45.01277204935222" lon="9.997305827023247"><ele>39.857142857142854</ele><time>2026-03-22T07:36:32.998Z</time></trkpt><trkpt lat="45.01271988446852" lon="9.997227946412112"><ele>39.57142857142857</ele><time>2026-03-22T07:36:33.998Z</time></trkpt><trkpt lat="45.012670316979715" lon="9.997152847939642"><ele>39.285714285714285</ele><time>2026-03-22T07:36:34.998Z</time></trkpt><trkpt lat="45.012624990927115" lon="9.997074987719394"><ele>39.0</ele><time>2026-03-22T07:36:35.998Z</time></trkpt><trkpt lat="45.012582651544676" lon="9.996998709147446"><ele>39.0</ele><time>2026-03-22T07:36:36.998Z</time></trkpt><trkpt lat="45.01253911716766" lon="9.99692604265863"><ele>39.0</ele><time>2026-03-22T07:36:37.998Z</time></trkpt><trkpt lat="45.01249575188042" lon="9.996855416985424"><ele>39.0</ele><time>2026-03-22T07:36:38.998Z</time></trkpt><trkpt lat="45.01245450571847" lon="9.996781883794089"><ele>39.0</ele><time>2026-03-22T07:36:39.998Z</time></trkpt><trkpt lat="45.01241276295169" lon="9.996710841323635"><ele>39.0</ele><time>2026-03-22T07:36:40.998Z</time></trkpt><trkpt lat="45.01237005740582" lon="9.996641875090718"><ele>39.0</ele><time>2026-03-22T07:36:41.998Z</time></trkpt><trkpt lat="45.01232967064597" lon="9.996568511805636"><ele>39.0</ele><time>2026-03-22T07:36:42.998Z</time></trkpt><trkpt lat="45.01225556933564" lon="9.996421926824066"><ele>39.166666666666664</ele><time>2026-03-22T07:36:44.998Z</time></trkpt><trkpt lat="45.012174848369014" lon="9.996274525424303"><ele>39.333333333333336</ele><time>2026-03-22T07:36:46.998Z</time></trkpt><trkpt lat="45.012132342618266" lon="9.996193355087696"><ele>39.5</ele><time>2026-03-22T07:36:47.998Z</time></trkpt><trkpt lat="45.012090057663606" lon="9.99610554412573"><ele>39.66666666666667</ele><time>2026-03-22T07:36:48.998Z</time></trkpt><trkpt lat="45.012042205082665" lon="9.996017945953945"><ele>39.833333333333336</ele><time>2026-03-22T07:36:49.998Z</time></trkpt><trkpt lat="45.01199001522281" lon="9.995932078477537"><ele>40.0</ele><time>2026-03-22T07:36:50.998Z</time></trkpt><trkpt lat="45.01193609560022" lon="9.995846357051269"><ele>39.833333333333336</ele><time>2026-03-22T07:36:51.998Z</time></trkpt><trkpt lat="45.011878996747576" lon="9.995765987654075"><ele>39.66666666666667</ele><time>2026-03-22T07:36:52.998Z</time></trkpt><trkpt lat="45.01182320492541" lon="9.99568009048686"><ele>39.5</ele><time>2026-03-22T07:36:53.998Z</time></trkpt><trkpt lat="45.011766470230235" lon="9.995595893553075"><ele>39.333333333333336</ele><time>2026-03-22T07:36:54.998Z</time></trkpt><trkpt lat="45.0117140758146" lon="9.995510610797972"><ele>39.166666666666664</ele><time>2026-03-22T07:36:55.998Z</time></trkpt><trkpt lat="45.011661114689566" lon="9.995425665686005"><ele>39.0</ele><time>2026-03-22T07:36:56.998Z</time></trkpt><trkpt lat="45.01160665436493" lon="9.99534124160548"><ele>39.0</ele><time>2026-03-22T07:36:57.998Z</time></trkpt><trkpt lat="45.01155237597393" lon="9.995250751209156"><ele>39.0</ele><time>2026-03-22T07:36:58.998Z</time></trkpt><trkpt lat="45.01149701954779" lon="9.995169710387785"><ele>39.0</ele><time>2026-03-22T07:36:59.998Z</time></trkpt><trkpt lat="45.01144125451246" lon="9.995083797377728"><ele>39.0</ele><time>2026-03-22T07:37:00.998Z</time></trkpt><trkpt lat="45.01138461788043" lon="9.994999572341015"><ele>39.0</ele><time>2026-03-22T07:37:01.998Z</time></trkpt><trkpt lat="45.011327936763294" lon="9.994917374968347"><ele>39.0</ele><time>2026-03-22T07:37:02.998Z</time></trkpt><trkpt lat="45.011270577997706" lon="9.994834164382091"><ele>39.166666666666664</ele><time>2026-03-22T07:37:03.998Z</time></trkpt><trkpt lat="45.01121491392644" lon="9.994754954274585"><ele>39.333333333333336</ele><time>2026-03-22T07:37:04.998Z</time></trkpt><trkpt lat="45.011154767633975" lon="9.994683143269356"><ele>39.5</ele><time>2026-03-22T07:37:05.998Z</time></trkpt><trkpt lat="45.011097746111176" lon="9.994615398122816"><ele>39.66666666666667</ele><time>2026-03-22T07:37:06.998Z</time></trkpt><trkpt lat="45.01104180517792" lon="9.994549196882904"><ele>39.833333333333336</ele><time>2026-03-22T07:37:07.998Z</time></trkpt><trkpt lat="45.01098666846252" lon="9.994481481380793"><ele>40.0</ele><time>2026-03-22T07:37:08.998Z</time></trkpt><trkpt lat="45.010930748151985" lon="9.994409672134063"><ele>40.0</ele><time>2026-03-22T07:37:10Z</time></trkpt><trkpt lat="45.0108754281185" lon="9.994334566609266"><ele>40.0</ele><time>2026-03-22T07:37:11Z</time></trkpt><trkpt lat="45.010819078864216" lon="9.994262281179738"><ele>40.0</ele><time>2026-03-22T07:37:12Z</time></trkpt><trkpt lat="45.010765864858726" lon="9.994186169642237"><ele>40.0</ele><time>2026-03-22T07:37:13Z</time></trkpt><trkpt lat="45.010710383695745" lon="9.99411166952708"><ele>40.0</ele><time>2026-03-22T07:37:14Z</time></trkpt><trkpt lat="45.010654497661264" lon="9.994040044555966"><ele>40.0</ele><time>2026-03-22T07:37:15Z</time></trkpt><trkpt lat="45.010599676922475" lon="9.993962401641467"><ele>40.0</ele><time>2026-03-22T07:37:16Z</time></trkpt><trkpt lat="45.01054764583679" lon="9.9938831495462"><ele>40.0</ele><time>2026-03-22T07:37:17Z</time></trkpt><trkpt lat="45.01049468042614" lon="9.993804898716515"><ele>40.0</ele><time>2026-03-22T07:37:18Z</time></trkpt><trkpt lat="45.01044376133071" lon="9.993726742091102"><ele>40.0</ele><time>2026-03-22T07:37:19Z</time></trkpt><trkpt lat="45.01039149343297" lon="9.993649798814088"><ele>40.0</ele><time>2026-03-22T07:37:20Z</time></trkpt><trkpt lat="45.01033772381219" lon="9.99357474148729"><ele>40.0</ele><time>2026-03-22T07:37:21Z</time></trkpt><trkpt lat="45.010284710112394" lon="9.993500488990435"><ele>40.0</ele><time>2026-03-22T07:37:22Z</time></trkpt><trkpt lat="45.01023396182055" lon="9.993423045543317"><ele>40.0</ele><time>2026-03-22T07:37:23Z</time></trkpt><trkpt lat="45.01018407584303" lon="9.99334000022487"><ele>40.0</ele><time>2026-03-22T07:37:24Z</time></trkpt><trkpt lat="45.01013249429639" lon="9.993261291871537"><ele>40.0</ele><time>2026-03-22T07:37:25Z</time></trkpt><trkpt lat="45.01008028975667" lon="9.993183765348528"><ele>40.0</ele><time>2026-03-22T07:37:26Z</time></trkpt><trkpt lat="45.01002602732777" lon="9.993108764602365"><ele>40.0</ele><time>2026-03-22T07:37:27Z</time></trkpt><trkpt lat="45.00997276270022" lon="9.993037604823314"><ele>39.833333333333336</ele><time>2026-03-22T07:37:28Z</time></trkpt><trkpt lat="45.0099254367121" lon="9.992966243682751"><ele>39.66666666666667</ele><time>2026-03-22T07:37:29Z</time></trkpt><trkpt lat="45.00988100466011" lon="9.99289789838247"><ele>39.5</ele><time>2026-03-22T07:37:30Z</time></trkpt><trkpt lat="45.00983731285957" lon="9.99282995409244"><ele>39.333333333333336</ele><time>2026-03-22T07:37:31Z</time></trkpt><trkpt lat="45.00979594215729" lon="9.9927597860126"><ele>39.166666666666664</ele><time>2026-03-22T07:37:31.999Z</time></trkpt><trkpt lat="45.009714421007835" lon="9.992631305724242"><ele>39.0</ele><time>2026-03-22T07:37:33.999Z</time></trkpt><trkpt lat="45.00964472914252" lon="9.992513646920395"><ele>38.833333333333336</ele><time>2026-03-22T07:37:35.999Z</time></trkpt><trkpt lat="45.009585273047776" lon="9.992429514182989"><ele>38.666666666666664</ele><time>2026-03-22T07:37:37.999Z</time></trkpt><trkpt lat="45.009536444667766" lon="9.992351884618378"><ele>38.5</ele><time>2026-03-22T07:38:45.998Z</time></trkpt><trkpt lat="45.00948156883782" lon="9.99225555910487"><ele>38.33333333333333</ele><time>2026-03-22T07:38:48.998Z</time></trkpt><trkpt lat="45.00943496615189" lon="9.992177178259752"><ele>38.166666666666664</ele><time>2026-03-22T07:38:51.998Z</time></trkpt><trkpt lat="45.00938225619782" lon="9.992090264306436"><ele>38.0</ele><time>2026-03-22T07:38:55.998Z</time></trkpt><trkpt lat="45.009329031824834" lon="9.992003594479264"><ele>38.0</ele><time>2026-03-22T07:38:59.998Z</time></trkpt><trkpt lat="45.00928678794049" lon="9.991930609105465"><ele>38.0</ele><time>2026-03-22T07:39:02.998Z</time></trkpt><trkpt lat="45.0092381393971" lon="9.991856448240247"><ele>38.0</ele><time>2026-03-22T07:39:05.998Z</time></trkpt><trkpt lat="45.009184847431605" lon="9.991751442282112"><ele>38.0</ele><time>2026-03-22T07:39:08.998Z</time></trkpt><trkpt lat="45.009144016991414" lon="9.991680723256552"><ele>38.0</ele><time>2026-03-22T07:39:10.998Z</time></trkpt><trkpt lat="45.00907786310055" lon="9.991595469208356"><ele>38.0</ele><time>2026-03-22T07:39:13.998Z</time></trkpt><trkpt lat="45.00902469596222" lon="9.991506402425555"><ele>38.33333333333333</ele><time>2026-03-22T07:39:17Z</time></trkpt><trkpt lat="45.008989153079675" lon="9.991423885457193"><ele>38.666666666666664</ele><time>2026-03-22T07:39:19Z</time></trkpt><trkpt lat="45.008931874651935" lon="9.991331076932564"><ele>39.0</ele><time>2026-03-22T07:39:21Z</time></trkpt><trkpt lat="45.00887421981652" lon="9.991229642806081"><ele>39.333333333333336</ele><time>2026-03-22T07:39:23Z</time></trkpt><trkpt lat="45.00881546440569" lon="9.99112959027285"><ele>39.66666666666667</ele><time>2026-03-22T07:39:25Z</time></trkpt><trkpt lat="45.008764939225145" lon="9.991035783143118"><ele>40.0</ele><time>2026-03-22T07:39:27Z</time></trkpt><trkpt lat="45.00871169717465" lon="9.99095670839462"><ele>40.0</ele><time>2026-03-22T07:39:29Z</time></trkpt><trkpt lat="45.00866178118389" lon="9.990868977940199"><ele>40.0</ele><time>2026-03-22T07:39:31Z</time></trkpt><trkpt lat="45.0085986184907" lon="9.990771718460662"><ele>40.0</ele><time>2026-03-22T07:39:33Z</time></trkpt><trkpt lat="45.00853200504199" lon="9.990661989867277"><ele>40.0</ele><time>2026-03-22T07:39:35Z</time></trkpt><trkpt lat="45.00846535426291" lon="9.990544683317296"><ele>40.0</ele><time>2026-03-22T07:39:36.999Z</time></trkpt><trkpt lat="45.00839589909991" lon="9.99042229203726"><ele>40.0</ele><time>2026-03-22T07:39:38.999Z</time></trkpt><trkpt lat="45.00832030556613" lon="9.990296422752351"><ele>40.0</ele><time>2026-03-22T07:39:40.999Z</time></trkpt><trkpt lat="45.00824175405211" lon="9.990168748259705"><ele>40.0</ele><time>2026-03-22T07:39:42.999Z</time></trkpt><trkpt lat="45.008172246041426" lon="9.990045382536108"><ele>40.0</ele><time>2026-03-22T07:39:44.999Z</time></trkpt><trkpt lat="45.008094395932375" lon="9.989915078774905"><ele>40.14285714285714</ele><time>2026-03-22T07:39:46.999Z</time></trkpt><trkpt lat="45.008049979511696" lon="9.989844482497245"><ele>40.285714285714285</ele><time>2026-03-22T07:39:47.999Z</time></trkpt><trkpt lat="45.008007016896286" lon="9.98977371067945"><ele>40.42857142857143</ele><time>2026-03-22T07:39:48.999Z</time></trkpt><trkpt lat="45.00796788497545" lon="9.989701303130529"><ele>40.57142857142857</ele><time>2026-03-22T07:39:49.999Z</time></trkpt><trkpt lat="45.00791856126644" lon="9.989627312730065"><ele>40.714285714285715</ele><time>2026-03-22T07:39:50.999Z</time></trkpt><trkpt lat="45.00787329770786" lon="9.989552070097995"><ele>40.857142857142854</ele><time>2026-03-22T07:39:51.999Z</time></trkpt><trkpt lat="45.00783287261387" lon="9.989471078698621"><ele>41.0</ele><time>2026-03-22T07:39:52.999Z</time></trkpt><trkpt lat="45.007794303079535" lon="9.989390418748139"><ele>40.99999999999999</ele><time>2026-03-22T07:39:53.999Z</time></trkpt><trkpt lat="45.00775669488034" lon="9.989309801349036"><ele>41.0</ele><time>2026-03-22T07:39:54.999Z</time></trkpt><trkpt lat="45.007719383771175" lon="9.989225705754142"><ele>41.0</ele><time>2026-03-22T07:39:55.999Z</time></trkpt><trkpt lat="45.00768200532656" lon="9.989141039591305"><ele>41.0</ele><time>2026-03-22T07:39:56.999Z</time></trkpt><trkpt lat="45.0076447399954" lon="9.98905140514141"><ele>41.0</ele><time>2026-03-22T07:39:57.999Z</time></trkpt><trkpt lat="45.00761102209517" lon="9.988955118934319"><ele>40.99999999999999</ele><time>2026-03-22T07:39:58.999Z</time></trkpt><trkpt lat="45.00757885316731" lon="9.988857167737686"><ele>41.0</ele><time>2026-03-22T07:39:59.999Z</time></trkpt><trkpt lat="45.007547601343504" lon="9.98876076929524"><ele>40.99999999999999</ele><time>2026-03-22T07:40:00.999Z</time></trkpt><trkpt lat="45.00751609257706" lon="9.988665848840595"><ele>41.0</ele><time>2026-03-22T07:40:01.999Z</time></trkpt><trkpt lat="45.00748446164821" lon="9.98857957050724"><ele>41.0</ele><time>2026-03-22T07:40:02.999Z</time></trkpt><trkpt lat="45.0074489793139" lon="9.988494236763971"><ele>41.0</ele><time>2026-03-22T07:40:03.999Z</time></trkpt><trkpt lat="45.00741335565468" lon="9.988414015526592"><ele>41.0</ele><time>2026-03-22T07:40:04.999Z</time></trkpt><trkpt lat="45.007377356022495" lon="9.988336907429245"><ele>40.99999999999999</ele><time>2026-03-22T07:40:05.999Z</time></trkpt><trkpt lat="45.00734173778984" lon="9.988261176146516"><ele>41.0</ele><time>2026-03-22T07:40:06.999Z</time></trkpt><trkpt lat="45.00729978187034" lon="9.988187168284666"><ele>40.99999999999999</ele><time>2026-03-22T07:40:07.999Z</time></trkpt><trkpt lat="45.007256894938685" lon="9.988115283136976"><ele>41.0</ele><time>2026-03-22T07:40:08.999Z</time></trkpt><trkpt lat="45.0072134051906" lon="9.988044948157375"><ele>41.0</ele><time>2026-03-22T07:40:09.999Z</time></trkpt><trkpt lat="45.00716892940936" lon="9.987976026791266"><ele>41.0</ele><time>2026-03-22T07:40:10.999Z</time></trkpt><trkpt lat="45.0071262399011" lon="9.987904372336544"><ele>41.0</ele><time>2026-03-22T07:40:11.999Z</time></trkpt><trkpt lat="45.00708388552763" lon="9.987834832880415"><ele>40.99999999999999</ele><time>2026-03-22T07:40:12.999Z</time></trkpt><trkpt lat="45.00704135978152" lon="9.987762846119201"><ele>41.0</ele><time>2026-03-22T07:40:13.999Z</time></trkpt><trkpt lat="45.00699671698463" lon="9.987692915990813"><ele>40.99999999999999</ele><time>2026-03-22T07:40:14.999Z</time></trkpt><trkpt lat="45.00695072666986" lon="9.987623102902646"><ele>41.0</ele><time>2026-03-22T07:40:15.999Z</time></trkpt><trkpt lat="45.00690693147206" lon="9.987556320338914"><ele>41.0</ele><time>2026-03-22T07:40:16.999Z</time></trkpt><trkpt lat="45.00686208065523" lon="9.987484688003164"><ele>41.0</ele><time>2026-03-22T07:40:17.999Z</time></trkpt><trkpt lat="45.006818357816094" lon="9.987412468571048"><ele>41.0</ele><time>2026-03-22T07:40:18.999Z</time></trkpt><trkpt lat="45.00677327731638" lon="9.987342362718476"><ele>40.99999999999999</ele><time>2026-03-22T07:40:19.999Z</time></trkpt><trkpt lat="45.00672785481561" lon="9.98727043256051"><ele>41.0</ele><time>2026-03-22T07:40:20.999Z</time></trkpt><trkpt lat="45.00668308889119" lon="9.98719978556351"><ele>40.99999999999999</ele><time>2026-03-22T07:40:21.999Z</time></trkpt><trkpt lat="45.00663619553826" lon="9.987126289633375"><ele>41.0</ele><time>2026-03-22T07:40:22.999Z</time></trkpt><trkpt lat="45.00658883273926" lon="9.987049057070422"><ele>41.0</ele><time>2026-03-22T07:40:23.999Z</time></trkpt><trkpt lat="45.00654023084422" lon="9.98696820620608"><ele>41.0</ele><time>2026-03-22T07:40:24.999Z</time></trkpt><trkpt lat="45.00649276379703" lon="9.986890976842062"><ele>41.0</ele><time>2026-03-22T07:40:25.999Z</time></trkpt><trkpt lat="45.006443792626655" lon="9.986810275290386"><ele>40.99999999999999</ele><time>2026-03-22T07:40:26.999Z</time></trkpt><trkpt lat="45.00639371503426" lon="9.986730417833833"><ele>41.0</ele><time>2026-03-22T07:40:27.999Z</time></trkpt><trkpt lat="45.00633711631683" lon="9.98664951255038"><ele>41.166666666666664</ele><time>2026-03-22T07:40:28.999Z</time></trkpt><trkpt lat="45.00627994518632" lon="9.986570941862809"><ele>41.33333333333333</ele><time>2026-03-22T07:40:29.999Z</time></trkpt><trkpt lat="45.0062215757466" lon="9.986493531933165"><ele>41.5</ele><time>2026-03-22T07:40:30.999Z</time></trkpt><trkpt lat="45.006158123790485" lon="9.986414992367582"><ele>41.666666666666664</ele><time>2026-03-22T07:40:31.999Z</time></trkpt><trkpt lat="45.00609225302899" lon="9.986348478220538"><ele>41.833333333333336</ele><time>2026-03-22T07:40:32.999Z</time></trkpt><trkpt lat="45.00602086931749" lon="9.986287273728001"><ele>42.0</ele><time>2026-03-22T07:40:33.999Z</time></trkpt><trkpt lat="45.005947184850136" lon="9.986234679045632"><ele>42.0</ele><time>2026-03-22T07:40:34.999Z</time></trkpt><trkpt lat="45.00587399260568" lon="9.986178315629429"><ele>42.0</ele><time>2026-03-22T07:40:35.999Z</time></trkpt><trkpt lat="45.005800088518015" lon="9.986119072635006"><ele>42.0</ele><time>2026-03-22T07:40:36.998Z</time></trkpt><trkpt lat="45.00572836031653" lon="9.98606599684186"><ele>42.0</ele><time>2026-03-22T07:40:37.998Z</time></trkpt><trkpt lat="45.00565516419326" lon="9.986010583019926"><ele>42.0</ele><time>2026-03-22T07:40:38.998Z</time></trkpt><trkpt lat="45.00558545177337" lon="9.985954334107747"><ele>42.0</ele><time>2026-03-22T07:40:39.998Z</time></trkpt><trkpt lat="45.005516741321046" lon="9.985895970325727"><ele>41.666666666666664</ele><time>2026-03-22T07:40:40.998Z</time></trkpt><trkpt lat="45.00544804494571" lon="9.985840509966158"><ele>41.333333333333336</ele><time>2026-03-22T07:40:41.998Z</time></trkpt><trkpt lat="45.00538005583233" lon="9.985785534239696"><ele>41.0</ele><time>2026-03-22T07:40:42.998Z</time></trkpt><trkpt lat="45.005312637450565" lon="9.985726538804979"><ele>40.66666666666667</ele><time>2026-03-22T07:40:43.998Z</time></trkpt><trkpt lat="45.00524591817601" lon="9.985669024242776"><ele>40.333333333333336</ele><time>2026-03-22T07:40:44.998Z</time></trkpt><trkpt lat="45.00517680654786" lon="9.985614492780593"><ele>40.0</ele><time>2026-03-22T07:40:45.998Z</time></trkpt><trkpt lat="45.0051066676671" lon="9.985558125032096"><ele>40.0</ele><time>2026-03-22T07:40:46.998Z</time></trkpt><trkpt lat="45.0050366766951" lon="9.985502958264993"><ele>40.0</ele><time>2026-03-22T07:40:47.998Z</time></trkpt><trkpt lat="45.00496490492304" lon="9.985445685213039"><ele>40.0</ele><time>2026-03-22T07:40:48.998Z</time></trkpt><trkpt lat="45.00489300924224" lon="9.985391418238084"><ele>40.0</ele><time>2026-03-22T07:40:49.998Z</time></trkpt><trkpt lat="45.00482385194202" lon="9.985338762802085"><ele>40.0</ele><time>2026-03-22T07:40:50.998Z</time></trkpt><trkpt lat="45.00475723111689" lon="9.985278405781097"><ele>40.0</ele><time>2026-03-22T07:40:51.998Z</time></trkpt><trkpt lat="45.00468816526932" lon="9.985224458079296"><ele>40.0</ele><time>2026-03-22T07:40:52.998Z</time></trkpt><trkpt lat="45.004615839643236" lon="9.985168668539979"><ele>40.0</ele><time>2026-03-22T07:40:53.998Z</time></trkpt><trkpt lat="45.00454199397625" lon="9.985118200197759"><ele>40.0</ele><time>2026-03-22T07:40:54.998Z</time></trkpt><trkpt lat="45.00446791729301" lon="9.985063044649628"><ele>40.0</ele><time>2026-03-22T07:40:55.998Z</time></trkpt><trkpt lat="45.00439625169302" lon="9.98500399390369"><ele>40.0</ele><time>2026-03-22T07:40:56.998Z</time></trkpt><trkpt lat="45.00432467112647" lon="9.984944968414593"><ele>40.0</ele><time>2026-03-22T07:40:57.998Z</time></trkpt><trkpt lat="45.00425220475459" lon="9.984888225886296"><ele>40.16666666666667</ele><time>2026-03-22T07:40:58.998Z</time></trkpt><trkpt lat="45.00418031492923" lon="9.984830333392027"><ele>40.333333333333336</ele><time>2026-03-22T07:40:59.998Z</time></trkpt><trkpt lat="45.00410915625879" lon="9.984773383346418"><ele>40.5</ele><time>2026-03-22T07:41:00.998Z</time></trkpt><trkpt lat="45.0040356957343" lon="9.984719566697853"><ele>40.666666666666664</ele><time>2026-03-22T07:41:01.998Z</time></trkpt><trkpt lat="45.00396391036966" lon="9.984662266484786"><ele>40.83333333333333</ele><time>2026-03-22T07:41:02.998Z</time></trkpt><trkpt lat="45.003891380799416" lon="9.984604163772099"><ele>41.0</ele><time>2026-03-22T07:41:03.998Z</time></trkpt><trkpt lat="45.00381982307688" lon="9.984545264250622"><ele>41.0</ele><time>2026-03-22T07:41:04.998Z</time></trkpt><trkpt lat="45.00374735247293" lon="9.984488623799907"><ele>41.0</ele><time>2026-03-22T07:41:05.998Z</time></trkpt><trkpt lat="45.00367578079868" lon="9.984431008222595"><ele>41.0</ele><time>2026-03-22T07:41:06.998Z</time></trkpt><trkpt lat="45.003604543179904" lon="9.984372086134456"><ele>41.0</ele><time>2026-03-22T07:41:07.998Z</time></trkpt><trkpt lat="45.003532236408674" lon="9.984314784779983"><ele>41.0</ele><time>2026-03-22T07:41:08.998Z</time></trkpt><trkpt lat="45.00346003805687" lon="9.984256726078156"><ele>41.0</ele><time>2026-03-22T07:41:09.998Z</time></trkpt><trkpt lat="45.00338731625168" lon="9.984196149894144"><ele>40.83333333333333</ele><time>2026-03-22T07:41:10.998Z</time></trkpt><trkpt lat="45.003314488941335" lon="9.984139602698152"><ele>40.666666666666664</ele><time>2026-03-22T07:41:11.998Z</time></trkpt><trkpt lat="45.00324121088196" lon="9.984078398128505"><ele>40.5</ele><time>2026-03-22T07:41:12.998Z</time></trkpt><trkpt lat="45.00316698048068" lon="9.984021558747955"><ele>40.333333333333336</ele><time>2026-03-22T07:41:13.998Z</time></trkpt><trkpt lat="45.00309174702732" lon="9.98396213532082"><ele>40.16666666666667</ele><time>2026-03-22T07:41:14.998Z</time></trkpt><trkpt lat="45.00301513467435" lon="9.983902646743925"><ele>40.0</ele><time>2026-03-22T07:41:15.998Z</time></trkpt><trkpt lat="45.00294145226737" lon="9.983841903959746"><ele>40.0</ele><time>2026-03-22T07:41:16.998Z</time></trkpt><trkpt lat="45.0028659382985" lon="9.983781252707631"><ele>40.0</ele><time>2026-03-22T07:41:17.998Z</time></trkpt><trkpt lat="45.00279387001894" lon="9.98371681785524"><ele>40.0</ele><time>2026-03-22T07:41:18.998Z</time></trkpt><trkpt lat="45.00272366563113" lon="9.983647865120389"><ele>40.0</ele><time>2026-03-22T07:41:19.998Z</time></trkpt><trkpt lat="45.00265850169013" lon="9.983570312369954"><ele>40.0</ele><time>2026-03-22T07:41:20.998Z</time></trkpt><trkpt lat="45.00259819060864" lon="9.983482170598725"><ele>40.0</ele><time>2026-03-22T07:41:22Z</time></trkpt><trkpt lat="45.002545000007345" lon="9.983386088369839"><ele>40.333333333333336</ele><time>2026-03-22T07:41:23Z</time></trkpt><trkpt lat="45.00249328158128" lon="9.983287004829842"><ele>40.66666666666667</ele><time>2026-03-22T07:41:24Z</time></trkpt><trkpt lat="45.00243912817438" lon="9.983193066174506"><ele>41.0</ele><time>2026-03-22T07:41:25Z</time></trkpt><trkpt lat="45.00237221255842" lon="9.983110112955265"><ele>41.333333333333336</ele><time>2026-03-22T07:41:26Z</time></trkpt><trkpt lat="45.00229779109324" lon="9.98304227480481"><ele>41.666666666666664</ele><time>2026-03-22T07:41:27Z</time></trkpt><trkpt lat="45.00221639838383" lon="9.982993311811196"><ele>42.0</ele><time>2026-03-22T07:41:28Z</time></trkpt><trkpt lat="45.002140406203246" lon="9.98292494830789"><ele>42.0</ele><time>2026-03-22T07:41:29Z</time></trkpt><trkpt lat="45.00206112599144" lon="9.982874941333167"><ele>42.0</ele><time>2026-03-22T07:41:30Z</time></trkpt><trkpt lat="45.00197967420369" lon="9.982823564664605"><ele>42.0</ele><time>2026-03-22T07:41:31Z</time></trkpt><trkpt lat="45.00189876912762" lon="9.98277485395151"><ele>42.0</ele><time>2026-03-22T07:41:32Z</time></trkpt><trkpt lat="45.00181055161093" lon="9.982746190544383"><ele>42.0</ele><time>2026-03-22T07:41:33Z</time></trkpt><trkpt lat="45.001729631858105" lon="9.982700217215267"><ele>42.0</ele><time>2026-03-22T07:41:34Z</time></trkpt><trkpt lat="45.001649121732704" lon="9.98264727933014"><ele>42.0</ele><time>2026-03-22T07:41:35Z</time></trkpt><trkpt lat="45.001569458495034" lon="9.982598566413818"><ele>42.0</ele><time>2026-03-22T07:41:36Z</time></trkpt><trkpt lat="45.00148898757796" lon="9.982550577173944"><ele>42.0</ele><time>2026-03-22T07:41:37Z</time></trkpt><trkpt lat="45.001409109735185" lon="9.982501413786316"><ele>42.0</ele><time>2026-03-22T07:41:38Z</time></trkpt><trkpt lat="45.001329893963096" lon="9.982454659164315"><ele>42.0</ele><time>2026-03-22T07:41:39Z</time></trkpt><trkpt lat="45.001250552676126" lon="9.982403259209708"><ele>42.0</ele><time>2026-03-22T07:41:40Z</time></trkpt><trkpt lat="45.00117174860417" lon="9.982353598992502"><ele>42.0</ele><time>2026-03-22T07:41:41Z</time></trkpt><trkpt lat="45.00109177906572" lon="9.982304133229096"><ele>42.0</ele><time>2026-03-22T07:41:42Z</time></trkpt><trkpt lat="45.001013519689664" lon="9.982256712411164"><ele>42.0</ele><time>2026-03-22T07:41:43Z</time></trkpt><trkpt lat="45.000932678202076" lon="9.98220529983051"><ele>42.0</ele><time>2026-03-22T07:41:43.999Z</time></trkpt><trkpt lat="45.00085288359041" lon="9.982157637560652"><ele>42.0</ele><time>2026-03-22T07:41:44.999Z</time></trkpt><trkpt lat="45.00077293949939" lon="9.98211164695007"><ele>42.0</ele><time>2026-03-22T07:41:45.999Z</time></trkpt><trkpt lat="45.00068892894106" lon="9.982065234919599"><ele>42.0</ele><time>2026-03-22T07:41:46.999Z</time></trkpt><trkpt lat="45.00060837157397" lon="9.982021263449608"><ele>42.0</ele><time>2026-03-22T07:41:47.999Z</time></trkpt><trkpt lat="45.00052638776579" lon="9.981977600109868"><ele>42.0</ele><time>2026-03-22T07:41:48.999Z</time></trkpt><trkpt lat="45.000442790597475" lon="9.981935015311882"><ele>42.0</ele><time>2026-03-22T07:41:49.999Z</time></trkpt><trkpt lat="45.00035869081406" lon="9.98189461630665"><ele>42.0</ele><time>2026-03-22T07:41:50.999Z</time></trkpt><trkpt lat="45.00027439565274" lon="9.98185564190437"><ele>42.0</ele><time>2026-03-22T07:41:51.999Z</time></trkpt><trkpt lat="45.00019178081433" lon="9.98181417754867"><ele>42.0</ele><time>2026-03-22T07:41:52.999Z</time></trkpt><trkpt lat="45.00010730809652" lon="9.981772064137239"><ele>42.0</ele><time>2026-03-22T07:41:53.999Z</time></trkpt><trkpt lat="45.0000235489282" lon="9.981731773784261"><ele>42.0</ele><time>2026-03-22T07:41:54.999Z</time></trkpt><trkpt lat="44.99993772107669" lon="9.981690410277047"><ele>42.0</ele><time>2026-03-22T07:41:55.999Z</time></trkpt><trkpt lat="44.99985219912179" lon="9.981656418788425"><ele>42.0</ele><time>2026-03-22T07:41:56.999Z</time></trkpt><trkpt lat="44.999767810823286" lon="9.9816158284865"><ele>42.0</ele><time>2026-03-22T07:41:57.999Z</time></trkpt><trkpt lat="44.99968381932191" lon="9.981579210318642"><ele>42.166666666666664</ele><time>2026-03-22T07:41:58.999Z</time></trkpt><trkpt lat="44.99959918349834" lon="9.981541560742482"><ele>42.333333333333336</ele><time>2026-03-22T07:41:59.999Z</time></trkpt><trkpt lat="44.99951630542347" lon="9.981502320482148"><ele>42.5</ele><time>2026-03-22T07:42:00.999Z</time></trkpt><trkpt lat="44.999432007158255" lon="9.981463684108054"><ele>42.66666666666667</ele><time>2026-03-22T07:42:01.999Z</time></trkpt><trkpt lat="44.999347348701" lon="9.981423283091312"><ele>42.833333333333336</ele><time>2026-03-22T07:42:02.999Z</time></trkpt><trkpt lat="44.999263113471685" lon="9.981384503871734"><ele>43.0</ele><time>2026-03-22T07:42:03.999Z</time></trkpt><trkpt lat="44.999179323447606" lon="9.981345233613325"><ele>43.0</ele><time>2026-03-22T07:42:04.999Z</time></trkpt><trkpt lat="44.999094514448196" lon="9.981308434164207"><ele>43.0</ele><time>2026-03-22T07:42:05.999Z</time></trkpt><trkpt lat="44.99901042306273" lon="9.981272203209661"><ele>43.0</ele><time>2026-03-22T07:42:06.999Z</time></trkpt><trkpt lat="44.998932116840265" lon="9.981213524210716"><ele>43.0</ele><time>2026-03-22T07:42:07.999Z</time></trkpt><trkpt lat="44.998847795988006" lon="9.981174992585736"><ele>43.0</ele><time>2026-03-22T07:42:08.999Z</time></trkpt><trkpt lat="44.99876445091741" lon="9.981136906867073"><ele>43.0</ele><time>2026-03-22T07:42:09.999Z</time></trkpt><trkpt lat="44.99867469632916" lon="9.981119848668872"><ele>43.0</ele><time>2026-03-22T07:42:10.999Z</time></trkpt><trkpt lat="44.99859089741826" lon="9.981081074201269"><ele>43.0</ele><time>2026-03-22T07:42:11.999Z</time></trkpt><trkpt lat="44.998508584994724" lon="9.98104237201906"><ele>43.0</ele><time>2026-03-22T07:42:12.999Z</time></trkpt><trkpt lat="44.99842789716821" lon="9.980980969846994"><ele>43.0</ele><time>2026-03-22T07:42:13.999Z</time></trkpt><trkpt lat="44.99834477239044" lon="9.980942566844293"><ele>43.0</ele><time>2026-03-22T07:42:14.999Z</time></trkpt><trkpt lat="44.99826164365417" lon="9.980905010538377"><ele>43.0</ele><time>2026-03-22T07:42:15.999Z</time></trkpt><trkpt lat="44.99817278831615" lon="9.980889100179594"><ele>42.5</ele><time>2026-03-22T07:42:16.999Z</time></trkpt><trkpt lat="44.998090293790646" lon="9.98084910939319"><ele>42.0</ele><time>2026-03-22T07:42:17.999Z</time></trkpt><trkpt lat="44.998007290285074" lon="9.980809313916863"><ele>41.5</ele><time>2026-03-22T07:42:18.999Z</time></trkpt><trkpt lat="44.99792467075736" lon="9.980772768751127"><ele>41.0</ele><time>2026-03-22T07:42:19.999Z</time></trkpt><trkpt lat="44.99784093310205" lon="9.980732257304291"><ele>40.5</ele><time>2026-03-22T07:42:20.999Z</time></trkpt><trkpt lat="44.997756487803755" lon="9.980694149184927"><ele>40.0</ele><time>2026-03-22T07:42:21.999Z</time></trkpt><trkpt lat="44.99767214017727" lon="9.980652831073591"><ele>40.0</ele><time>2026-03-22T07:42:22.999Z</time></trkpt><trkpt lat="44.9975868006115" lon="9.980614121132898"><ele>40.0</ele><time>2026-03-22T07:42:23.999Z</time></trkpt><trkpt lat="44.99750216244556" lon="9.980574314957714"><ele>40.0</ele><time>2026-03-22T07:42:24.999Z</time></trkpt><trkpt lat="44.99741870877186" lon="9.980533088471809"><ele>40.0</ele><time>2026-03-22T07:42:25.999Z</time></trkpt><trkpt lat="44.997333957099" lon="9.980492894910011"><ele>40.0</ele><time>2026-03-22T07:42:26.999Z</time></trkpt><trkpt lat="44.99724966687329" lon="9.980456992645042"><ele>40.0</ele><time>2026-03-22T07:42:27.999Z</time></trkpt><trkpt lat="44.997163265796594" lon="9.980420297903448"><ele>40.0</ele><time>2026-03-22T07:42:28.999Z</time></trkpt><trkpt lat="44.997079894801224" lon="9.980384287093695"><ele>40.0</ele><time>2026-03-22T07:42:29.999Z</time></trkpt><trkpt lat="44.99699585331643" lon="9.980339268362952"><ele>40.0</ele><time>2026-03-22T07:42:30.999Z</time></trkpt><trkpt lat="44.99691219796427" lon="9.980305231298129"><ele>40.0</ele><time>2026-03-22T07:42:31.999Z</time></trkpt><trkpt lat="44.99682585509733" lon="9.980263293092237"><ele>40.0</ele><time>2026-03-22T07:42:32.999Z</time></trkpt><trkpt lat="44.99674046499422" lon="9.980226674318986"><ele>40.0</ele><time>2026-03-22T07:42:33.999Z</time></trkpt><trkpt lat="44.996655141909834" lon="9.980188544792806"><ele>40.0</ele><time>2026-03-22T07:42:34.999Z</time></trkpt><trkpt lat="44.99656892984335" lon="9.98014939222142"><ele>40.0</ele><time>2026-03-22T07:42:35.999Z</time></trkpt><trkpt lat="44.99648563765128" lon="9.980113864360769"><ele>40.0</ele><time>2026-03-22T07:42:36.999Z</time></trkpt><trkpt lat="44.99639863922407" lon="9.98007346383313"><ele>40.0</ele><time>2026-03-22T07:42:37.999Z</time></trkpt><trkpt lat="44.99631315961853" lon="9.980040783485611"><ele>40.0</ele><time>2026-03-22T07:42:38.999Z</time></trkpt><trkpt lat="44.996227683803674" lon="9.980002686219533"><ele>40.0</ele><time>2026-03-22T07:42:39.999Z</time></trkpt><trkpt lat="44.99614129672095" lon="9.979966255809403"><ele>40.0</ele><time>2026-03-22T07:42:40.999Z</time></trkpt><trkpt lat="44.996055787713665" lon="9.97992836476711"><ele>40.0</ele><time>2026-03-22T07:42:41.999Z</time></trkpt><trkpt lat="44.9959714382944" lon="9.979888710220349"><ele>40.0</ele><time>2026-03-22T07:42:42.998Z</time></trkpt><trkpt lat="44.99588560852286" lon="9.979849958467916"><ele>40.0</ele><time>2026-03-22T07:42:43.998Z</time></trkpt><trkpt lat="44.9957998869365" lon="9.97981083389898"><ele>40.0</ele><time>2026-03-22T07:42:44.998Z</time></trkpt><trkpt lat="44.99571561681836" lon="9.979770871926748"><ele>40.0</ele><time>2026-03-22T07:42:45.998Z</time></trkpt><trkpt lat="44.99563135226806" lon="9.97972926704931"><ele>40.333333333333336</ele><time>2026-03-22T07:42:46.998Z</time></trkpt><trkpt lat="44.99554624736411" lon="9.979689412731554"><ele>40.66666666666667</ele><time>2026-03-22T07:42:47.998Z</time></trkpt><trkpt lat="44.995461528671036" lon="9.979651312155607"><ele>41.0</ele><time>2026-03-22T07:42:48.998Z</time></trkpt><trkpt lat="44.995376433226006" lon="9.979610834132425"><ele>41.333333333333336</ele><time>2026-03-22T07:42:49.998Z</time></trkpt><trkpt lat="44.99529289403111" lon="9.979568166391777"><ele>41.666666666666664</ele><time>2026-03-22T07:42:50.998Z</time></trkpt><trkpt lat="44.995207755870254" lon="9.979524855763707"><ele>42.0</ele><time>2026-03-22T07:42:51.998Z</time></trkpt><trkpt lat="44.9951243350445" lon="9.97948624542416"><ele>42.0</ele><time>2026-03-22T07:42:52.998Z</time></trkpt><trkpt lat="44.99504132186119" lon="9.979442859725335"><ele>42.0</ele><time>2026-03-22T07:42:53.998Z</time></trkpt><trkpt lat="44.994958832334" lon="9.979399493740482"><ele>42.0</ele><time>2026-03-22T07:42:54.998Z</time></trkpt><trkpt lat="44.994875103720574" lon="9.979356305971322"><ele>42.0</ele><time>2026-03-22T07:42:55.998Z</time></trkpt><trkpt lat="44.99479272170071" lon="9.979312134289819"><ele>42.0</ele><time>2026-03-22T07:42:56.998Z</time></trkpt><trkpt lat="44.99470971508584" lon="9.979265078097667"><ele>42.0</ele><time>2026-03-22T07:42:57.998Z</time></trkpt><trkpt lat="44.99462683114282" lon="9.979218041935"><ele>41.666666666666664</ele><time>2026-03-22T07:42:58.998Z</time></trkpt><trkpt lat="44.9945452343975" lon="9.979170390530859"><ele>41.333333333333336</ele><time>2026-03-22T07:42:59.998Z</time></trkpt><trkpt lat="44.994463677233426" lon="9.979122058653688"><ele>41.0</ele><time>2026-03-22T07:43:00.998Z</time></trkpt><trkpt lat="44.99438222149349" lon="9.979073072800004"><ele>40.66666666666667</ele><time>2026-03-22T07:43:01.998Z</time></trkpt><trkpt lat="44.99430107247797" lon="9.979028271969106"><ele>40.333333333333336</ele><time>2026-03-22T07:43:02.998Z</time></trkpt><trkpt lat="44.994219358599736" lon="9.978979361577492"><ele>40.0</ele><time>2026-03-22T07:43:03.998Z</time></trkpt><trkpt lat="44.9941386462683" lon="9.97893744461661"><ele>40.66666666666667</ele><time>2026-03-22T07:43:04.998Z</time></trkpt><trkpt lat="44.994058053943235" lon="9.978891085860297"><ele>41.333333333333336</ele><time>2026-03-22T07:43:05.998Z</time></trkpt><trkpt lat="44.993977103371265" lon="9.978842874740026"><ele>42.0</ele><time>2026-03-22T07:43:06.998Z</time></trkpt><trkpt lat="44.99389739006054" lon="9.978796359513252"><ele>42.666666666666664</ele><time>2026-03-22T07:43:07.998Z</time></trkpt><trkpt lat="44.99381998011455" lon="9.9787515235299"><ele>43.33333333333333</ele><time>2026-03-22T07:43:08.998Z</time></trkpt><trkpt lat="44.993743136054576" lon="9.978711209980352"><ele>44.0</ele><time>2026-03-22T07:43:09.998Z</time></trkpt><trkpt lat="44.99366633602187" lon="9.978669487703375"><ele>44.0</ele><time>2026-03-22T07:43:10.998Z</time></trkpt><trkpt lat="44.993589529319756" lon="9.978630017961011"><ele>44.0</ele><time>2026-03-22T07:43:11.998Z</time></trkpt><trkpt lat="44.99351298495768" lon="9.978597196949377"><ele>44.0</ele><time>2026-03-22T07:43:12.998Z</time></trkpt><trkpt lat="44.993436865568015" lon="9.978572705984732"><ele>44.0</ele><time>2026-03-22T07:43:13.998Z</time></trkpt><trkpt lat="44.99336030042481" lon="9.97856554062955"><ele>44.0</ele><time>2026-03-22T07:43:14.998Z</time></trkpt><trkpt lat="44.99328610802065" lon="9.9785897816509"><ele>44.0</ele><time>2026-03-22T07:43:15.998Z</time></trkpt><trkpt lat="44.99321942301612" lon="9.978649490290984"><ele>44.166666666666664</ele><time>2026-03-22T07:43:16.998Z</time></trkpt><trkpt lat="44.99316843752448" lon="9.97872908827282"><ele>44.33333333333333</ele><time>2026-03-22T07:43:17.998Z</time></trkpt><trkpt lat="44.99312752178408" lon="9.978813007614638"><ele>44.5</ele><time>2026-03-22T07:43:18.998Z</time></trkpt><trkpt lat="44.99309434643201" lon="9.978896749616094"><ele>44.666666666666664</ele><time>2026-03-22T07:43:19.998Z</time></trkpt><trkpt lat="44.9930600754595" lon="9.97897229407976"><ele>44.833333333333336</ele><time>2026-03-22T07:43:20.998Z</time></trkpt><trkpt lat="44.992989152215785" lon="9.979113086376723"><ele>45.0</ele><time>2026-03-22T07:43:22.998Z</time></trkpt><trkpt lat="44.99292717392068" lon="9.979247061495245"><ele>44.5</ele><time>2026-03-22T07:43:24.998Z</time></trkpt><trkpt lat="44.99287235772859" lon="9.979342002106213"><ele>44.0</ele><time>2026-03-22T07:43:26.998Z</time></trkpt><trkpt lat="44.99281097462526" lon="9.979367423047192"><ele>43.5</ele><time>2026-03-22T07:43:32Z</time></trkpt><trkpt lat="44.99276666432782" lon="9.979434481826983"><ele>43.0</ele><time>2026-03-22T07:43:34Z</time></trkpt><trkpt lat="44.99277271570254" lon="9.979529940156022"><ele>42.5</ele><time>2026-03-22T07:43:35Z</time></trkpt><trkpt lat="44.99272372160659" lon="9.97963652602488"><ele>42.0</ele><time>2026-03-22T07:43:37Z</time></trkpt><trkpt lat="44.992673156801914" lon="9.979757865140844"><ele>42.0</ele><time>2026-03-22T07:43:39Z</time></trkpt><trkpt lat="44.99261523627389" lon="9.979890634921446"><ele>42.0</ele><time>2026-03-22T07:43:41Z</time></trkpt><trkpt lat="44.99254993081686" lon="9.980028648116896"><ele>42.0</ele><time>2026-03-22T07:43:43Z</time></trkpt><trkpt lat="44.99247866681702" lon="9.980168137614347"><ele>42.0</ele><time>2026-03-22T07:43:45Z</time></trkpt><trkpt lat="44.992410308673094" lon="9.980322066482636"><ele>42.0</ele><time>2026-03-22T07:43:47Z</time></trkpt><trkpt lat="44.992373449859" lon="9.98040209864078"><ele>42.0</ele><time>2026-03-22T07:43:47.999Z</time></trkpt><trkpt lat="44.99233526884167" lon="9.980483634263535"><ele>42.0</ele><time>2026-03-22T07:43:48.999Z</time></trkpt><trkpt lat="44.99229422577605" lon="9.980563674815057"><ele>42.0</ele><time>2026-03-22T07:43:49.999Z</time></trkpt><trkpt lat="44.9922565284424" lon="9.980645374854516"><ele>42.0</ele><time>2026-03-22T07:43:50.999Z</time></trkpt><trkpt lat="44.992220353808044" lon="9.98072784429814"><ele>42.0</ele><time>2026-03-22T07:43:51.999Z</time></trkpt><trkpt lat="44.99217658696365" lon="9.980815992257485"><ele>42.0</ele><time>2026-03-22T07:43:52.999Z</time></trkpt><trkpt lat="44.99213880465888" lon="9.980899208910413"><ele>42.0</ele><time>2026-03-22T07:43:53.999Z</time></trkpt><trkpt lat="44.99209858450686" lon="9.980987869221375"><ele>42.0</ele><time>2026-03-22T07:43:54.999Z</time></trkpt><trkpt lat="44.99205654437859" lon="9.981075477225971"><ele>42.0</ele><time>2026-03-22T07:43:55.999Z</time></trkpt><trkpt lat="44.992015160154104" lon="9.981164199068214"><ele>42.0</ele><time>2026-03-22T07:43:56.999Z</time></trkpt><trkpt lat="44.991974822762344" lon="9.981253318462672"><ele>42.0</ele><time>2026-03-22T07:43:57.999Z</time></trkpt><trkpt lat="44.99193282204434" lon="9.981339081915056"><ele>42.0</ele><time>2026-03-22T07:43:58.999Z</time></trkpt><trkpt lat="44.99189503991136" lon="9.981427193032923"><ele>42.0</ele><time>2026-03-22T07:43:59.999Z</time></trkpt><trkpt lat="44.99185717293769" lon="9.981512287917795"><ele>42.0</ele><time>2026-03-22T07:44:00.999Z</time></trkpt><trkpt lat="44.99181821744812" lon="9.981591619186734"><ele>42.0</ele><time>2026-03-22T07:44:01.999Z</time></trkpt><trkpt lat="44.99177843865001" lon="9.981672203385124"><ele>42.0</ele><time>2026-03-22T07:44:02.999Z</time></trkpt><trkpt lat="44.99174048486863" lon="9.981751230772737"><ele>42.0</ele><time>2026-03-22T07:44:03.999Z</time></trkpt><trkpt lat="44.991699981124434" lon="9.981832320700228"><ele>42.0</ele><time>2026-03-22T07:44:04.999Z</time></trkpt><trkpt lat="44.99166320780582" lon="9.981909082905645"><ele>42.0</ele><time>2026-03-22T07:44:05.999Z</time></trkpt><trkpt lat="44.99162503150507" lon="9.981990685841259"><ele>42.0</ele><time>2026-03-22T07:44:06.999Z</time></trkpt><trkpt lat="44.9915889788649" lon="9.98207151270396"><ele>42.142857142857146</ele><time>2026-03-22T07:44:07.999Z</time></trkpt><trkpt lat="44.991552726023144" lon="9.982152593681995"><ele>42.285714285714285</ele><time>2026-03-22T07:44:08.999Z</time></trkpt><trkpt lat="44.99151566050186" lon="9.98223073836506"><ele>42.42857142857143</ele><time>2026-03-22T07:44:09.999Z</time></trkpt><trkpt lat="44.99147617550752" lon="9.982307092599955"><ele>42.57142857142857</ele><time>2026-03-22T07:44:10.999Z</time></trkpt><trkpt lat="44.99143956294286" lon="9.982385764111488"><ele>42.714285714285715</ele><time>2026-03-22T07:44:11.999Z</time></trkpt><trkpt lat="44.9914052341046" lon="9.982464695955573"><ele>42.85714285714286</ele><time>2026-03-22T07:44:12.999Z</time></trkpt><trkpt lat="44.99136894040358" lon="9.982544221584089"><ele>43.0</ele><time>2026-03-22T07:44:13.999Z</time></trkpt><trkpt lat="44.99132993334373" lon="9.982621426627045"><ele>43.00000000000001</ele><time>2026-03-22T07:44:14.999Z</time></trkpt><trkpt lat="44.99129291380324" lon="9.982698048596925"><ele>43.0</ele><time>2026-03-22T07:44:15.999Z</time></trkpt><trkpt lat="44.99125503499441" lon="9.98277357150634"><ele>43.0</ele><time>2026-03-22T07:44:16.999Z</time></trkpt><trkpt lat="44.991214296917384" lon="9.98284976947527"><ele>43.0</ele><time>2026-03-22T07:44:17.999Z</time></trkpt><trkpt lat="44.99117607523485" lon="9.982928442980876"><ele>43.0</ele><time>2026-03-22T07:44:18.999Z</time></trkpt><trkpt lat="44.99113960878733" lon="9.983008593839523"><ele>43.00000000000001</ele><time>2026-03-22T07:44:19.999Z</time></trkpt><trkpt lat="44.99110247835165" lon="9.983089990558321"><ele>43.0</ele><time>2026-03-22T07:44:20.999Z</time></trkpt><trkpt lat="44.991068978598214" lon="9.983172093061528"><ele>43.00000000000001</ele><time>2026-03-22T07:44:21.999Z</time></trkpt><trkpt lat="44.991034467469106" lon="9.98325231710198"><ele>43.0</ele><time>2026-03-22T07:44:22.999Z</time></trkpt><trkpt lat="44.9909966598954" lon="9.983333727391736"><ele>43.0</ele><time>2026-03-22T07:44:23.999Z</time></trkpt><trkpt lat="44.990959167526974" lon="9.983413677091692"><ele>43.0</ele><time>2026-03-22T07:44:24.999Z</time></trkpt><trkpt lat="44.99092344326893" lon="9.983495527233465"><ele>43.0</ele><time>2026-03-22T07:44:25.999Z</time></trkpt><trkpt lat="44.99088546675016" lon="9.983580459409765"><ele>43.00000000000001</ele><time>2026-03-22T07:44:26.999Z</time></trkpt><trkpt lat="44.99084843801144" lon="9.983662444924539"><ele>43.0</ele><time>2026-03-22T07:44:27.999Z</time></trkpt><trkpt lat="44.990810471788414" lon="9.983744071452183"><ele>43.00000000000001</ele><time>2026-03-22T07:44:28.999Z</time></trkpt><trkpt lat="44.99075981759399" lon="9.983816217243145"><ele>43.0</ele><time>2026-03-22T07:44:29.999Z</time></trkpt><trkpt lat="44.99072071704199" lon="9.983899963202697"><ele>43.0</ele><time>2026-03-22T07:44:30.999Z</time></trkpt><trkpt lat="44.99069406007451" lon="9.983995617590569"><ele>43.0</ele><time>2026-03-22T07:44:31.999Z</time></trkpt><trkpt lat="44.99065239945155" lon="9.984076841447942"><ele>43.0</ele><time>2026-03-22T07:44:32.999Z</time></trkpt><trkpt lat="44.99061271338351" lon="9.984162380633954"><ele>43.00000000000001</ele><time>2026-03-22T07:44:33.999Z</time></trkpt><trkpt lat="44.9905719853116" lon="9.984246618543338"><ele>43.0</ele><time>2026-03-22T07:44:34.999Z</time></trkpt><trkpt lat="44.99053546710406" lon="9.984331649302327"><ele>43.142857142857146</ele><time>2026-03-22T07:44:35.999Z</time></trkpt><trkpt lat="44.99049481254879" lon="9.984414405460218"><ele>43.285714285714285</ele><time>2026-03-22T07:44:36.999Z</time></trkpt><trkpt lat="44.9904554523257" lon="9.98449534650253"><ele>43.42857142857143</ele><time>2026-03-22T07:44:37.999Z</time></trkpt><trkpt lat="44.99041849454754" lon="9.98458165935453"><ele>43.57142857142857</ele><time>2026-03-22T07:44:38.999Z</time></trkpt><trkpt lat="44.99038564297025" lon="9.984665126378111"><ele>43.714285714285715</ele><time>2026-03-22T07:44:39.999Z</time></trkpt><trkpt lat="44.990352329254925" lon="9.984746337670929"><ele>43.85714285714286</ele><time>2026-03-22T07:44:40.999Z</time></trkpt><trkpt lat="44.99031775204675" lon="9.984822826888484"><ele>44.0</ele><time>2026-03-22T07:44:41.999Z</time></trkpt><trkpt lat="44.99025285615622" lon="9.984923955555871"><ele>44.0</ele><time>2026-03-22T07:44:43.999Z</time></trkpt><trkpt lat="44.99018426050286" lon="9.984850316533176"><ele>44.0</ele><time>2026-03-22T07:44:44.998Z</time></trkpt><trkpt lat="44.99010969362558" lon="9.98470933703584"><ele>44.0</ele><time>2026-03-22T07:44:46.998Z</time></trkpt><trkpt lat="44.990026548803286" lon="9.98458831688863"><ele>44.0</ele><time>2026-03-22T07:44:48.998Z</time></trkpt><trkpt lat="44.989977858928626" lon="9.984528969349581"><ele>44.0</ele><time>2026-03-22T07:44:49.998Z</time></trkpt><trkpt lat="44.98992817357848" lon="9.984473129912116"><ele>44.0</ele><time>2026-03-22T07:44:50.998Z</time></trkpt><trkpt lat="44.989876875540126" lon="9.984412638571326"><ele>44.0</ele><time>2026-03-22T07:44:51.998Z</time></trkpt><trkpt lat="44.98982590606255" lon="9.984348553193808"><ele>44.0</ele><time>2026-03-22T07:44:52.998Z</time></trkpt><trkpt lat="44.98977176809199" lon="9.984285136542544"><ele>44.0</ele><time>2026-03-22T07:44:53.998Z</time></trkpt><trkpt lat="44.98971783149487" lon="9.984221650978022"><ele>44.0</ele><time>2026-03-22T07:44:54.998Z</time></trkpt><trkpt lat="44.98966208735887" lon="9.984156458534569"><ele>44.0</ele><time>2026-03-22T07:44:55.998Z</time></trkpt><trkpt lat="44.98960616621061" lon="9.984093794259312"><ele>44.0</ele><time>2026-03-22T07:44:56.998Z</time></trkpt><trkpt lat="44.98954992105704" lon="9.984027230884623"><ele>44.0</ele><time>2026-03-22T07:44:57.998Z</time></trkpt><trkpt lat="44.9894947451875" lon="9.983959627219035"><ele>44.0</ele><time>2026-03-22T07:44:58.998Z</time></trkpt><trkpt lat="44.98943944489318" lon="9.983893689447378"><ele>44.0</ele><time>2026-03-22T07:44:59.998Z</time></trkpt><trkpt lat="44.98938363269499" lon="9.983827353953513"><ele>44.0</ele><time>2026-03-22T07:45:00.998Z</time></trkpt><trkpt lat="44.98932733601309" lon="9.983757522992958"><ele>44.0</ele><time>2026-03-22T07:45:01.998Z</time></trkpt><trkpt lat="44.98926949876646" lon="9.98368776644837"><ele>44.0</ele><time>2026-03-22T07:45:02.998Z</time></trkpt><trkpt lat="44.98920870779322" lon="9.983619168237098"><ele>44.0</ele><time>2026-03-22T07:45:03.998Z</time></trkpt><trkpt lat="44.98914816970179" lon="9.98355443958234"><ele>44.0</ele><time>2026-03-22T07:45:04.998Z</time></trkpt><trkpt lat="44.98908506711789" lon="9.983488792992782"><ele>44.0</ele><time>2026-03-22T07:45:05.998Z</time></trkpt><trkpt lat="44.98901909376124" lon="9.983424979603702"><ele>44.0</ele><time>2026-03-22T07:45:06.998Z</time></trkpt><trkpt lat="44.98895402884353" lon="9.983363017252287"><ele>44.0</ele><time>2026-03-22T07:45:07.998Z</time></trkpt><trkpt lat="44.98888426259515" lon="9.9833058937896"><ele>44.0</ele><time>2026-03-22T07:45:08.998Z</time></trkpt><trkpt lat="44.98881378315069" lon="9.983252304880438"><ele>44.0</ele><time>2026-03-22T07:45:09.998Z</time></trkpt><trkpt lat="44.98874248653066" lon="9.983201136360039"><ele>43.83333333333333</ele><time>2026-03-22T07:45:10.998Z</time></trkpt><trkpt lat="44.98866889259913" lon="9.98315741453182"><ele>43.666666666666664</ele><time>2026-03-22T07:45:11.998Z</time></trkpt><trkpt lat="44.98859270743159" lon="9.983116918412534"><ele>43.5</ele><time>2026-03-22T07:45:12.998Z</time></trkpt><trkpt lat="44.988517604045505" lon="9.983081580322112"><ele>43.333333333333336</ele><time>2026-03-22T07:45:13.998Z</time></trkpt><trkpt lat="44.98844017687386" lon="9.98304195555737"><ele>43.16666666666667</ele><time>2026-03-22T07:45:14.998Z</time></trkpt><trkpt lat="44.988364716772516" lon="9.983000901441436"><ele>43.0</ele><time>2026-03-22T07:45:15.998Z</time></trkpt><trkpt lat="44.9882883975312" lon="9.982960860504413"><ele>42.833333333333336</ele><time>2026-03-22T07:45:16.998Z</time></trkpt><trkpt lat="44.98821121403269" lon="9.982916823461174"><ele>42.66666666666667</ele><time>2026-03-22T07:45:17.998Z</time></trkpt><trkpt lat="44.988131945335944" lon="9.982876786118773"><ele>42.5</ele><time>2026-03-22T07:45:18.998Z</time></trkpt><trkpt lat="44.98805582728171" lon="9.982838715288601"><ele>42.333333333333336</ele><time>2026-03-22T07:45:19.998Z</time></trkpt><trkpt lat="44.98797576877729" lon="9.982798008393369"><ele>42.166666666666664</ele><time>2026-03-22T07:45:20.998Z</time></trkpt><trkpt lat="44.987897546790435" lon="9.982758816464218"><ele>42.0</ele><time>2026-03-22T07:45:21.998Z</time></trkpt><trkpt lat="44.98781847055526" lon="9.98272129845854"><ele>42.0</ele><time>2026-03-22T07:45:22.998Z</time></trkpt><trkpt lat="44.98773832394448" lon="9.982683187915843"><ele>42.0</ele><time>2026-03-22T07:45:23.998Z</time></trkpt><trkpt lat="44.987659379033985" lon="9.982641113449999"><ele>42.0</ele><time>2026-03-22T07:45:24.998Z</time></trkpt><trkpt lat="44.987580834347945" lon="9.982594505687597"><ele>42.0</ele><time>2026-03-22T07:45:25.998Z</time></trkpt><trkpt lat="44.987498511538924" lon="9.982554165193942"><ele>42.0</ele><time>2026-03-22T07:45:26.998Z</time></trkpt><trkpt lat="44.987420396964524" lon="9.982515441511168"><ele>42.0</ele><time>2026-03-22T07:45:27.998Z</time></trkpt><trkpt lat="44.98734033351671" lon="9.982475360881505"><ele>42.333333333333336</ele><time>2026-03-22T07:45:28.998Z</time></trkpt><trkpt lat="44.98725971084624" lon="9.982433229119339"><ele>42.666666666666664</ele><time>2026-03-22T07:45:29.998Z</time></trkpt><trkpt lat="44.98717917517278" lon="9.982394629339263"><ele>43.0</ele><time>2026-03-22T07:45:30.998Z</time></trkpt><trkpt lat="44.98709861757051" lon="9.982349522447587"><ele>43.33333333333333</ele><time>2026-03-22T07:45:31.998Z</time></trkpt><trkpt lat="44.9870178859988" lon="9.982307432184616"><ele>43.666666666666664</ele><time>2026-03-22T07:45:32.998Z</time></trkpt><trkpt lat="44.986937096763384" lon="9.982264939772362"><ele>44.0</ele><time>2026-03-22T07:45:34Z</time></trkpt><trkpt lat="44.98685685005306" lon="9.982225256522327"><ele>44.0</ele><time>2026-03-22T07:45:35Z</time></trkpt><trkpt lat="44.986777269938486" lon="9.982183507158101"><ele>44.0</ele><time>2026-03-22T07:45:36Z</time></trkpt><trkpt lat="44.9866979927569" lon="9.982142425533457"><ele>44.0</ele><time>2026-03-22T07:45:37Z</time></trkpt><trkpt lat="44.98662042362935" lon="9.982099597623579"><ele>44.0</ele><time>2026-03-22T07:45:38Z</time></trkpt><trkpt lat="44.98654241229785" lon="9.982060196744586"><ele>44.0</ele><time>2026-03-22T07:45:39Z</time></trkpt><trkpt lat="44.986464763345126" lon="9.982016818589013"><ele>44.0</ele><time>2026-03-22T07:45:40Z</time></trkpt><trkpt lat="44.98638777678092" lon="9.981973534532047"><ele>44.0</ele><time>2026-03-22T07:45:41Z</time></trkpt><trkpt lat="44.98631067264755" lon="9.981932742802195"><ele>44.0</ele><time>2026-03-22T07:45:42Z</time></trkpt><trkpt lat="44.986231204975475" lon="9.98189185409551"><ele>44.0</ele><time>2026-03-22T07:45:43Z</time></trkpt><trkpt lat="44.9861527366609" lon="9.981849453064166"><ele>44.0</ele><time>2026-03-22T07:45:44Z</time></trkpt><trkpt lat="44.98607489443007" lon="9.98180873118577"><ele>44.0</ele><time>2026-03-22T07:45:45Z</time></trkpt><trkpt lat="44.98599416299832" lon="9.981770338019123"><ele>44.0</ele><time>2026-03-22T07:45:46Z</time></trkpt><trkpt lat="44.985913837467635" lon="9.98173339289605"><ele>44.0</ele><time>2026-03-22T07:45:47Z</time></trkpt><trkpt lat="44.985835076681894" lon="9.981692619809673"><ele>44.0</ele><time>2026-03-22T07:45:48Z</time></trkpt><trkpt lat="44.985754034833924" lon="9.98164922753716"><ele>44.0</ele><time>2026-03-22T07:45:49Z</time></trkpt><trkpt lat="44.98567397282411" lon="9.981607868110755"><ele>44.0</ele><time>2026-03-22T07:45:50Z</time></trkpt><trkpt lat="44.98559425214836" lon="9.981566482779016"><ele>44.0</ele><time>2026-03-22T07:45:51Z</time></trkpt><trkpt lat="44.98551388396931" lon="9.981524069453119"><ele>44.0</ele><time>2026-03-22T07:45:51.999Z</time></trkpt><trkpt lat="44.985435371200495" lon="9.981482400408074"><ele>44.166666666666664</ele><time>2026-03-22T07:45:52.999Z</time></trkpt><trkpt lat="44.98535465416047" lon="9.981444498437218"><ele>44.33333333333333</ele><time>2026-03-22T07:45:53.999Z</time></trkpt><trkpt lat="44.98527477869131" lon="9.981405680716609"><ele>44.5</ele><time>2026-03-22T07:45:54.999Z</time></trkpt><trkpt lat="44.98519666182102" lon="9.981365698391455"><ele>44.666666666666664</ele><time>2026-03-22T07:45:55.999Z</time></trkpt><trkpt lat="44.98511845546329" lon="9.981325039918515"><ele>44.833333333333336</ele><time>2026-03-22T07:45:56.999Z</time></trkpt><trkpt lat="44.98504130255028" lon="9.981283749477875"><ele>45.0</ele><time>2026-03-22T07:45:57.999Z</time></trkpt><trkpt lat="44.984965936899606" lon="9.98124395608558"><ele>45.285714285714285</ele><time>2026-03-22T07:45:58.999Z</time></trkpt><trkpt lat="44.98489124610503" lon="9.981206303954517"><ele>45.57142857142858</ele><time>2026-03-22T07:45:59.999Z</time></trkpt><trkpt lat="44.98481944194945" lon="9.981172674856786"><ele>45.85714285714286</ele><time>2026-03-22T07:46:00.999Z</time></trkpt><trkpt lat="44.984749337146866" lon="9.981136779108368"><ele>46.14285714285714</ele><time>2026-03-22T07:46:01.999Z</time></trkpt><trkpt lat="44.984678450455775" lon="9.981104393232348"><ele>46.42857142857143</ele><time>2026-03-22T07:46:02.999Z</time></trkpt><trkpt lat="44.98460912855363" lon="9.981074517992727"><ele>46.714285714285715</ele><time>2026-03-22T07:46:03.999Z</time></trkpt><trkpt lat="44.984542025912326" lon="9.981045553209215"><ele>47.0</ele><time>2026-03-22T07:46:04.999Z</time></trkpt><trkpt lat="44.98447759783119" lon="9.981016506018044"><ele>47.0</ele><time>2026-03-22T07:46:05.999Z</time></trkpt><trkpt lat="44.984413653515446" lon="9.980985152526234"><ele>47.0</ele><time>2026-03-22T07:46:06.999Z</time></trkpt><trkpt lat="44.98434936096713" lon="9.98095431463325"><ele>47.0</ele><time>2026-03-22T07:46:07.999Z</time></trkpt><trkpt lat="44.984285357686176" lon="9.98092419022143"><ele>47.0</ele><time>2026-03-22T07:46:08.999Z</time></trkpt><trkpt lat="44.9842217691237" lon="9.980895224698973"><ele>47.0</ele><time>2026-03-22T07:46:09.999Z</time></trkpt><trkpt lat="44.98416036082133" lon="9.980865704952434"><ele>47.0</ele><time>2026-03-22T07:46:10.999Z</time></trkpt><trkpt lat="44.984110512540894" lon="9.980809159134234"><ele>47.0</ele><time>2026-03-22T07:46:11.999Z</time></trkpt><trkpt lat="44.984027007449875" lon="9.980736177813313"><ele>47.0</ele><time>2026-03-22T07:46:13.999Z</time></trkpt><trkpt lat="44.983874724521854" lon="9.980967453488848"><ele>47.0</ele><time>2026-03-22T07:46:15.999Z</time></trkpt><trkpt lat="44.983840946826604" lon="9.98113216484831"><ele>47.0</ele><time>2026-03-22T07:46:17.999Z</time></trkpt><trkpt lat="44.98381964075797" lon="9.981294967194588"><ele>47.0</ele><time>2026-03-22T07:46:19.999Z</time></trkpt><trkpt lat="44.98377861900322" lon="9.98144794392685"><ele>47.0</ele><time>2026-03-22T07:46:21.999Z</time></trkpt><trkpt lat="44.98375077041605" lon="9.9816079479072"><ele>47.0</ele><time>2026-03-22T07:46:23.999Z</time></trkpt><trkpt lat="44.98372309917033" lon="9.981771058248418"><ele>47.0</ele><time>2026-03-22T07:46:25.999Z</time></trkpt><trkpt lat="44.98369557194856" lon="9.981933319676738"><ele>47.0</ele><time>2026-03-22T07:46:27.999Z</time></trkpt><trkpt lat="44.98366796561936" lon="9.982096047404058"><ele>47.0</ele><time>2026-03-22T07:46:29.999Z</time></trkpt><trkpt lat="44.9836402163665" lon="9.98225961798555"><ele>47.0</ele><time>2026-03-22T07:46:31.999Z</time></trkpt><trkpt lat="44.9836117098876" lon="9.982427648881695"><ele>47.0</ele><time>2026-03-22T07:46:33.999Z</time></trkpt><trkpt lat="44.983582506349464" lon="9.982600971142396"><ele>47.0</ele><time>2026-03-22T07:46:35.999Z</time></trkpt><trkpt lat="44.983567401318666" lon="9.98269042817143"><ele>47.0</ele><time>2026-03-22T07:46:36.999Z</time></trkpt><trkpt lat="44.98355208591706" lon="9.982781131059362"><ele>47.0</ele><time>2026-03-22T07:46:37.999Z</time></trkpt><trkpt lat="44.98353664470786" lon="9.98287257906618"><ele>47.0</ele><time>2026-03-22T07:46:38.999Z</time></trkpt><trkpt lat="44.98352091237947" lon="9.982965751160453"><ele>47.0</ele><time>2026-03-22T07:46:39.999Z</time></trkpt><trkpt lat="44.98350507743646" lon="9.983059530987704"><ele>47.0</ele><time>2026-03-22T07:46:40.999Z</time></trkpt><trkpt lat="44.983488970796564" lon="9.983154919885456"><ele>47.0</ele><time>2026-03-22T07:46:41.999Z</time></trkpt><trkpt lat="44.98347309180764" lon="9.983248960580442"><ele>47.0</ele><time>2026-03-22T07:46:42.999Z</time></trkpt><trkpt lat="44.983457111741814" lon="9.98334359985593"><ele>47.0</ele><time>2026-03-22T07:46:43.999Z</time></trkpt><trkpt lat="44.98344106253615" lon="9.983438648608658"><ele>47.0</ele><time>2026-03-22T07:46:44.999Z</time></trkpt><trkpt lat="44.98342505859773" lon="9.983533429393985"><ele>47.0</ele><time>2026-03-22T07:46:45.999Z</time></trkpt><trkpt lat="44.98340895213881" lon="9.983628817108224"><ele>47.0</ele><time>2026-03-22T07:46:46.999Z</time></trkpt><trkpt lat="44.98339283831277" lon="9.983724248574141"><ele>47.0</ele><time>2026-03-22T07:46:47.999Z</time></trkpt><trkpt lat="44.983376894088686" lon="9.983818675595387"><ele>47.0</ele><time>2026-03-22T07:46:48.998Z</time></trkpt><trkpt lat="44.98336075464498" lon="9.983914258763512"><ele>46.57142857142857</ele><time>2026-03-22T07:46:49.998Z</time></trkpt><trkpt lat="44.98334449275643" lon="9.98401056710866"><ele>46.14285714285714</ele><time>2026-03-22T07:46:50.998Z</time></trkpt><trkpt lat="44.983328010617704" lon="9.98410817981946"><ele>45.714285714285715</ele><time>2026-03-22T07:46:51.998Z</time></trkpt><trkpt lat="44.98331174749234" lon="9.984204495509918"><ele>45.285714285714285</ele><time>2026-03-22T07:46:52.998Z</time></trkpt><trkpt lat="44.98329554487532" lon="9.984300452817632"><ele>44.857142857142854</ele><time>2026-03-22T07:46:53.998Z</time></trkpt><trkpt lat="44.983279855613574" lon="9.984393369902493"><ele>44.42857142857143</ele><time>2026-03-22T07:46:54.998Z</time></trkpt><trkpt lat="44.98326467839074" lon="9.984483254452105"><ele>44.0</ele><time>2026-03-22T07:46:55.998Z</time></trkpt><trkpt lat="44.98324962485042" lon="9.98457240657798"><ele>44.0</ele><time>2026-03-22T07:46:56.998Z</time></trkpt><trkpt lat="44.983234833577704" lon="9.984660005438606"><ele>44.0</ele><time>2026-03-22T07:46:57.998Z</time></trkpt><trkpt lat="44.9832199360258" lon="9.984748233695365"><ele>44.0</ele><time>2026-03-22T07:46:58.998Z</time></trkpt><trkpt lat="44.98320456029729" lon="9.98483929386141"><ele>44.0</ele><time>2026-03-22T07:46:59.998Z</time></trkpt><trkpt lat="44.98318876138578" lon="9.984932860274288"><ele>44.0</ele><time>2026-03-22T07:47:00.998Z</time></trkpt><trkpt lat="44.98317345304838" lon="9.985023521393591"><ele>44.0</ele><time>2026-03-22T07:47:01.998Z</time></trkpt><trkpt lat="44.983158688983856" lon="9.985110959127745"><ele>44.0</ele><time>2026-03-22T07:47:02.998Z</time></trkpt><trkpt lat="44.98314367993809" lon="9.985199847718018"><ele>44.0</ele><time>2026-03-22T07:47:03.998Z</time></trkpt><trkpt lat="44.98312853483513" lon="9.985290642078786"><ele>44.0</ele><time>2026-03-22T07:47:04.998Z</time></trkpt><trkpt lat="44.98311354105429" lon="9.98538114729381"><ele>44.0</ele><time>2026-03-22T07:47:05.998Z</time></trkpt><trkpt lat="44.98309862980945" lon="9.98547115430026"><ele>44.0</ele><time>2026-03-22T07:47:06.998Z</time></trkpt><trkpt lat="44.983083423591296" lon="9.985562941782302"><ele>44.0</ele><time>2026-03-22T07:47:07.998Z</time></trkpt><trkpt lat="44.98306799841959" lon="9.985656050979715"><ele>44.0</ele><time>2026-03-22T07:47:08.998Z</time></trkpt><trkpt lat="44.983052782449754" lon="9.985747897332365"><ele>44.0</ele><time>2026-03-22T07:47:09.998Z</time></trkpt><trkpt lat="44.983037361015555" lon="9.98584098392548"><ele>44.0</ele><time>2026-03-22T07:47:10.998Z</time></trkpt><trkpt lat="44.98302200422799" lon="9.985933680297524"><ele>44.0</ele><time>2026-03-22T07:47:11.998Z</time></trkpt><trkpt lat="44.983006358084815" lon="9.986028123251495"><ele>44.0</ele><time>2026-03-22T07:47:12.998Z</time></trkpt><trkpt lat="44.982991151327184" lon="9.986119914025888"><ele>44.0</ele><time>2026-03-22T07:47:13.998Z</time></trkpt><trkpt lat="44.982975613687266" lon="9.98621370207206"><ele>44.0</ele><time>2026-03-22T07:47:14.998Z</time></trkpt><trkpt lat="44.98296016357349" lon="9.986306961786573"><ele>44.0</ele><time>2026-03-22T07:47:15.998Z</time></trkpt><trkpt lat="44.982944729437364" lon="9.986400125066243"><ele>44.0</ele><time>2026-03-22T07:47:16.998Z</time></trkpt><trkpt lat="44.982928927691596" lon="9.986495507260868"><ele>44.0</ele><time>2026-03-22T07:47:17.998Z</time></trkpt><trkpt lat="44.98291335673855" lon="9.986589450075156"><ele>44.0</ele><time>2026-03-22T07:47:18.998Z</time></trkpt><trkpt lat="44.98289793934737" lon="9.986682320601105"><ele>44.0</ele><time>2026-03-22T07:47:19.998Z</time></trkpt><trkpt lat="44.98288234347023" lon="9.986776266385673"><ele>44.0</ele><time>2026-03-22T07:47:20.998Z</time></trkpt><trkpt lat="44.98286665809636" lon="9.986870751247924"><ele>44.0</ele><time>2026-03-22T07:47:21.998Z</time></trkpt><trkpt lat="44.98285077892083" lon="9.986966403521077"><ele>44.0</ele><time>2026-03-22T07:47:22.998Z</time></trkpt><trkpt lat="44.9828350678285" lon="9.987061043335697"><ele>44.0</ele><time>2026-03-22T07:47:23.998Z</time></trkpt><trkpt lat="44.9828196015473" lon="9.9871542084574"><ele>44.285714285714285</ele><time>2026-03-22T07:47:24.998Z</time></trkpt><trkpt lat="44.98280417371678" lon="9.98724714195485"><ele>44.57142857142857</ele><time>2026-03-22T07:47:25.998Z</time></trkpt><trkpt lat="44.98278848630845" lon="9.987341639056265"><ele>44.85714285714286</ele><time>2026-03-22T07:47:26.998Z</time></trkpt><trkpt lat="44.98277184872172" lon="9.98743670731052"><ele>45.14285714285714</ele><time>2026-03-22T07:47:27.998Z</time></trkpt><trkpt lat="44.98275481711782" lon="9.987525985015768"><ele>45.42857142857142</ele><time>2026-03-22T07:47:28.998Z</time></trkpt><trkpt lat="44.982744246202614" lon="9.987623935446821"><ele>45.714285714285715</ele><time>2026-03-22T07:47:29.998Z</time></trkpt><trkpt lat="44.98270045796263" lon="9.987698435102411"><ele>46.0</ele><time>2026-03-22T07:47:30.998Z</time></trkpt><trkpt lat="44.98264251782125" lon="9.987750844774876"><ele>46.0</ele><time>2026-03-22T07:47:31.998Z</time></trkpt><trkpt lat="44.982570084907266" lon="9.987765376938171"><ele>46.0</ele><time>2026-03-22T07:47:32.998Z</time></trkpt><trkpt lat="44.98250297020971" lon="9.987716019295974"><ele>46.0</ele><time>2026-03-22T07:47:33.998Z</time></trkpt><trkpt lat="44.98244113338704" lon="9.98767973875987"><ele>46.0</ele><time>2026-03-22T07:47:34.998Z</time></trkpt><trkpt lat="44.98237262310298" lon="9.987661430732416"><ele>46.0</ele><time>2026-03-22T07:47:35.998Z</time></trkpt><trkpt lat="44.982310827910446" lon="9.987622285485976"><ele>46.0</ele><time>2026-03-22T07:47:36.998Z</time></trkpt><trkpt lat="44.982248805959856" lon="9.987584086896234"><ele>46.0</ele><time>2026-03-22T07:47:37.998Z</time></trkpt><trkpt lat="44.98218505459558" lon="9.987546643151044"><ele>46.0</ele><time>2026-03-22T07:47:38.998Z</time></trkpt><trkpt lat="44.98212264511211" lon="9.987510419590848"><ele>46.0</ele><time>2026-03-22T07:47:40Z</time></trkpt><trkpt lat="44.98205747436127" lon="9.987476876773872"><ele>46.0</ele><time>2026-03-22T07:47:41Z</time></trkpt><trkpt lat="44.98199482145816" lon="9.987445289306322"><ele>46.0</ele><time>2026-03-22T07:47:42Z</time></trkpt><trkpt lat="44.981930284735554" lon="9.987417123718265"><ele>46.0</ele><time>2026-03-22T07:47:43Z</time></trkpt><trkpt lat="44.98186664125121" lon="9.987386740842965"><ele>46.0</ele><time>2026-03-22T07:47:44Z</time></trkpt><trkpt lat="44.98180055412617" lon="9.98744829127361"><ele>46.0</ele><time>2026-03-22T07:47:45Z</time></trkpt><trkpt lat="44.981740348268914" lon="9.987498308303202"><ele>46.0</ele><time>2026-03-22T07:47:46Z</time></trkpt><trkpt lat="44.981719977499864" lon="9.98760421280769"><ele>46.0</ele><time>2026-03-22T07:47:47Z</time></trkpt><trkpt lat="44.98169717660239" lon="9.987689800025414"><ele>46.0</ele><time>2026-03-22T07:47:48Z</time></trkpt><trkpt lat="44.98167309943319" lon="9.987773627282289"><ele>46.0</ele><time>2026-03-22T07:47:49Z</time></trkpt><trkpt lat="44.98164841279317" lon="9.987859766025611"><ele>46.0</ele><time>2026-03-22T07:47:50Z</time></trkpt><trkpt lat="44.981623742149004" lon="9.987945194908136"><ele>46.0</ele><time>2026-03-22T07:47:51Z</time></trkpt><trkpt lat="44.98159738953579" lon="9.988027609458804"><ele>46.0</ele><time>2026-03-22T07:47:52Z</time></trkpt><trkpt lat="44.981567847977686" lon="9.988113686802707"><ele>45.714285714285715</ele><time>2026-03-22T07:47:53Z</time></trkpt><trkpt lat="44.981539104650594" lon="9.988200228162649"><ele>45.42857142857142</ele><time>2026-03-22T07:47:54Z</time></trkpt><trkpt lat="44.98151271702945" lon="9.988288781380005"><ele>45.14285714285714</ele><time>2026-03-22T07:47:55Z</time></trkpt><trkpt lat="44.98148768353933" lon="9.988378907345842"><ele>44.85714285714286</ele><time>2026-03-22T07:47:55.999Z</time></trkpt><trkpt lat="44.98145976946071" lon="9.988466878766893"><ele>44.57142857142857</ele><time>2026-03-22T07:47:56.999Z</time></trkpt><trkpt lat="44.98143276733461" lon="9.988554684898494"><ele>44.285714285714285</ele><time>2026-03-22T07:47:57.999Z</time></trkpt><trkpt lat="44.98140503239223" lon="9.988641035592952"><ele>44.0</ele><time>2026-03-22T07:47:58.999Z</time></trkpt><trkpt lat="44.98138065769653" lon="9.988731141896643"><ele>43.85714285714286</ele><time>2026-03-22T07:47:59.999Z</time></trkpt><trkpt lat="44.98135454930162" lon="9.988821470622995"><ele>43.714285714285715</ele><time>2026-03-22T07:48:00.999Z</time></trkpt><trkpt lat="44.98132760652064" lon="9.988910094987755"><ele>43.57142857142857</ele><time>2026-03-22T07:48:01.999Z</time></trkpt><trkpt lat="44.98129910936501" lon="9.988998497213492"><ele>43.42857142857143</ele><time>2026-03-22T07:48:02.999Z</time></trkpt><trkpt lat="44.98127338443604" lon="9.989087405947497"><ele>43.285714285714285</ele><time>2026-03-22T07:48:03.999Z</time></trkpt><trkpt lat="44.98124961892456" lon="9.989176274967443"><ele>43.142857142857146</ele><time>2026-03-22T07:48:04.999Z</time></trkpt><trkpt lat="44.98122491974787" lon="9.989263714119614"><ele>43.0</ele><time>2026-03-22T07:48:05.999Z</time></trkpt><trkpt lat="44.98119904461009" lon="9.989350443574665"><ele>43.00000000000001</ele><time>2026-03-22T07:48:06.999Z</time></trkpt><trkpt lat="44.981171424503295" lon="9.989437031354441"><ele>43.0</ele><time>2026-03-22T07:48:07.999Z</time></trkpt><trkpt lat="44.98114536905002" lon="9.989524609427633"><ele>43.0</ele><time>2026-03-22T07:48:08.999Z</time></trkpt><trkpt lat="44.98112016425625" lon="9.98961233844057"><ele>43.0</ele><time>2026-03-22T07:48:09.999Z</time></trkpt><trkpt lat="44.9810936323916" lon="9.989699744094732"><ele>43.0</ele><time>2026-03-22T07:48:10.999Z</time></trkpt><trkpt lat="44.98106828608226" lon="9.989787588845267"><ele>43.00000000000001</ele><time>2026-03-22T07:48:11.999Z</time></trkpt><trkpt lat="44.98104176995242" lon="9.989875895236832"><ele>43.0</ele><time>2026-03-22T07:48:12.999Z</time></trkpt><trkpt lat="44.98101577122644" lon="9.989964427798446"><ele>43.142857142857146</ele><time>2026-03-22T07:48:13.999Z</time></trkpt><trkpt lat="44.9809903314581" lon="9.990054110786945"><ele>43.285714285714285</ele><time>2026-03-22T07:48:14.999Z</time></trkpt><trkpt lat="44.98096426238853" lon="9.990142785313353"><ele>43.42857142857143</ele><time>2026-03-22T07:48:15.999Z</time></trkpt><trkpt lat="44.980938726252795" lon="9.990233873028922"><ele>43.57142857142857</ele><time>2026-03-22T07:48:16.999Z</time></trkpt><trkpt lat="44.98091414273215" lon="9.990325225757779"><ele>43.714285714285715</ele><time>2026-03-22T07:48:17.999Z</time></trkpt><trkpt lat="44.98088665581511" lon="9.990420151988857"><ele>43.85714285714286</ele><time>2026-03-22T07:48:18.999Z</time></trkpt><trkpt lat="44.98085875071619" lon="9.990516560335339"><ele>44.0</ele><time>2026-03-22T07:48:19.999Z</time></trkpt><trkpt lat="44.98083157344082" lon="9.990611005400583"><ele>44.0</ele><time>2026-03-22T07:48:20.999Z</time></trkpt><trkpt lat="44.980802069498836" lon="9.990706381060269"><ele>44.0</ele><time>2026-03-22T07:48:21.999Z</time></trkpt><trkpt lat="44.98077353523594" lon="9.990803728532551"><ele>44.0</ele><time>2026-03-22T07:48:22.999Z</time></trkpt><trkpt lat="44.98074627478578" lon="9.99089955620514"><ele>44.0</ele><time>2026-03-22T07:48:23.999Z</time></trkpt><trkpt lat="44.980716451305554" lon="9.990995246994888"><ele>44.0</ele><time>2026-03-22T07:48:24.999Z</time></trkpt><trkpt lat="44.98068987625592" lon="9.991093320189268"><ele>44.0</ele><time>2026-03-22T07:48:25.999Z</time></trkpt><trkpt lat="44.9806621888396" lon="9.991189573605322"><ele>44.0</ele><time>2026-03-22T07:48:26.999Z</time></trkpt><trkpt lat="44.98063124169385" lon="9.991283530227845"><ele>43.85714285714286</ele><time>2026-03-22T07:48:27.999Z</time></trkpt><trkpt lat="44.98060145258905" lon="9.991377754368662"><ele>43.714285714285715</ele><time>2026-03-22T07:48:28.999Z</time></trkpt><trkpt lat="44.98057262085259" lon="9.991470831151275"><ele>43.57142857142857</ele><time>2026-03-22T07:48:29.999Z</time></trkpt><trkpt lat="44.98054497044731" lon="9.991563511750057"><ele>43.42857142857143</ele><time>2026-03-22T07:48:30.999Z</time></trkpt><trkpt lat="44.98051793882149" lon="9.991656471019192"><ele>43.285714285714285</ele><time>2026-03-22T07:48:31.999Z</time></trkpt><trkpt lat="44.98049087878871" lon="9.991747883661954"><ele>43.142857142857146</ele><time>2026-03-22T07:48:32.999Z</time></trkpt><trkpt lat="44.98046102774183" lon="9.991841494262001"><ele>43.0</ele><time>2026-03-22T07:48:33.999Z</time></trkpt><trkpt lat="44.980431507258196" lon="9.99193683336681"><ele>43.00000000000001</ele><time>2026-03-22T07:48:34.999Z</time></trkpt><trkpt lat="44.980405382720015" lon="9.992032050666696"><ele>43.0</ele><time>2026-03-22T07:48:35.999Z</time></trkpt><trkpt lat="44.98037923145234" lon="9.992127015630466"><ele>43.0</ele><time>2026-03-22T07:48:36.999Z</time></trkpt><trkpt lat="44.9803524382012" lon="9.992222122314386"><ele>43.0</ele><time>2026-03-22T07:48:37.999Z</time></trkpt><trkpt lat="44.980324807416665" lon="9.992318301060488"><ele>43.0</ele><time>2026-03-22T07:48:38.999Z</time></trkpt><trkpt lat="44.98029729843821" lon="9.992415186716686"><ele>43.00000000000001</ele><time>2026-03-22T07:48:39.999Z</time></trkpt><trkpt lat="44.980272173536406" lon="9.992503621859536"><ele>43.0</ele><time>2026-03-22T07:48:40.999Z</time></trkpt><trkpt lat="44.98024316312078" lon="9.992600388512283"><ele>43.00000000000001</ele><time>2026-03-22T07:48:41.999Z</time></trkpt><trkpt lat="44.98021596297291" lon="9.992696275395927"><ele>43.0</ele><time>2026-03-22T07:48:42.999Z</time></trkpt><trkpt lat="44.980189147690275" lon="9.992791912423012"><ele>43.0</ele><time>2026-03-22T07:48:43.999Z</time></trkpt><trkpt lat="44.980160528589266" lon="9.992886655709125"><ele>43.0</ele><time>2026-03-22T07:48:44.999Z</time></trkpt><trkpt lat="44.98013356237296" lon="9.992980885418602"><ele>43.0</ele><time>2026-03-22T07:48:45.999Z</time></trkpt><trkpt lat="44.98010634167165" lon="9.99307431574399"><ele>43.00000000000001</ele><time>2026-03-22T07:48:46.999Z</time></trkpt><trkpt lat="44.98007790343225" lon="9.99316929451179"><ele>43.0</ele><time>2026-03-22T07:48:47.999Z</time></trkpt><trkpt lat="44.98005056658702" lon="9.993263116571372"><ele>43.00000000000001</ele><time>2026-03-22T07:48:48.999Z</time></trkpt><trkpt lat="44.98002324419513" lon="9.993355785853815"><ele>43.0</ele><time>2026-03-22T07:48:49.999Z</time></trkpt><trkpt lat="44.97999735193705" lon="9.993453453207632"><ele>43.0</ele><time>2026-03-22T07:48:50.999Z</time></trkpt><trkpt lat="44.97997266982518" lon="9.993549193880206"><ele>43.0</ele><time>2026-03-22T07:48:51.999Z</time></trkpt><trkpt lat="44.97994945865919" lon="9.993645716756783"><ele>43.0</ele><time>2026-03-22T07:48:52.999Z</time></trkpt><trkpt lat="44.979929060166" lon="9.993739081009899"><ele>43.00000000000001</ele><time>2026-03-22T07:48:53.999Z</time></trkpt><trkpt lat="44.979906352409635" lon="9.993829012788916"><ele>43.0</ele><time>2026-03-22T07:48:54.998Z</time></trkpt><trkpt lat="44.97983067204432" lon="9.9939634361863"><ele>43.00000000000001</ele><time>2026-03-22T07:48:56.999Z</time></trkpt><trkpt lat="44.97976628592001" lon="9.99397532168414"><ele>43.0</ele><time>2026-03-22T07:48:57.999Z</time></trkpt><trkpt lat="44.979706121957555" lon="9.993947223296448"><ele>43.0</ele><time>2026-03-22T07:48:58.999Z</time></trkpt><trkpt lat="44.9796450417376" lon="9.99390430761854"><ele>43.0</ele><time>2026-03-22T07:48:59.999Z</time></trkpt><trkpt lat="44.979588772020385" lon="9.993860343799668"><ele>43.0</ele><time>2026-03-22T07:49:00.999Z</time></trkpt><trkpt lat="44.97952991142243" lon="9.993815100628007"><ele>43.00000000000001</ele><time>2026-03-22T07:49:01.999Z</time></trkpt><trkpt lat="44.97947085228343" lon="9.993778329364085"><ele>43.0</ele><time>2026-03-22T07:49:02.999Z</time></trkpt><trkpt lat="44.97941079858147" lon="9.99374093059786"><ele>43.00000000000001</ele><time>2026-03-22T07:49:03.999Z</time></trkpt><trkpt lat="44.97934999671256" lon="9.993704480668836"><ele>43.0</ele><time>2026-03-22T07:49:04.999Z</time></trkpt><trkpt lat="44.979288950822635" lon="9.99367141307008"><ele>43.0</ele><time>2026-03-22T07:49:05.999Z</time></trkpt><trkpt lat="44.97922712870271" lon="9.993633500517838"><ele>43.0</ele><time>2026-03-22T07:49:06.999Z</time></trkpt><trkpt lat="44.97916633578766" lon="9.993594282735886"><ele>43.0</ele><time>2026-03-22T07:49:07.999Z</time></trkpt><trkpt lat="44.97910393307058" lon="9.993553787473257"><ele>43.00000000000001</ele><time>2026-03-22T07:49:08.999Z</time></trkpt><trkpt lat="44.97904317165714" lon="9.993517018000658"><ele>43.0</ele><time>2026-03-22T07:49:09.999Z</time></trkpt><trkpt lat="44.97898064115432" lon="9.99347857448525"><ele>43.00000000000001</ele><time>2026-03-22T07:49:10.999Z</time></trkpt><trkpt lat="44.97891781535822" lon="9.993443157526324"><ele>43.0</ele><time>2026-03-22T07:49:11.999Z</time></trkpt><trkpt lat="44.978856240428414" lon="9.993405858827645"><ele>43.0</ele><time>2026-03-22T07:49:12.999Z</time></trkpt><trkpt lat="44.97879379151179" lon="9.993371216608148"><ele>43.0</ele><time>2026-03-22T07:49:13.999Z</time></trkpt><trkpt lat="44.978730341598855" lon="9.993333313408336"><ele>43.0</ele><time>2026-03-22T07:49:14.999Z</time></trkpt><trkpt lat="44.97866499612678" lon="9.993299765148885"><ele>43.00000000000001</ele><time>2026-03-22T07:49:15.999Z</time></trkpt><trkpt lat="44.97859968817212" lon="9.993268273257662"><ele>43.0</ele><time>2026-03-22T07:49:16.999Z</time></trkpt><trkpt lat="44.978537601156525" lon="9.993221471705462"><ele>43.00000000000001</ele><time>2026-03-22T07:49:17.999Z</time></trkpt><trkpt lat="44.97847474002742" lon="9.993177156525784"><ele>43.0</ele><time>2026-03-22T07:49:18.999Z</time></trkpt><trkpt lat="44.97841169740973" lon="9.993137624056114"><ele>43.0</ele><time>2026-03-22T07:49:19.999Z</time></trkpt><trkpt lat="44.97834713731641" lon="9.993099014801121"><ele>43.0</ele><time>2026-03-22T07:49:20.999Z</time></trkpt><trkpt lat="44.97828212156281" lon="9.99306345409673"><ele>43.0</ele><time>2026-03-22T07:49:21.999Z</time></trkpt><trkpt lat="44.97821743862808" lon="9.99302977440032"><ele>43.00000000000001</ele><time>2026-03-22T07:49:22.999Z</time></trkpt><trkpt lat="44.97815371898237" lon="9.992994221270681"><ele>43.0</ele><time>2026-03-22T07:49:23.999Z</time></trkpt><trkpt lat="44.97808885917912" lon="9.99295771093139"><ele>42.85714285714286</ele><time>2026-03-22T07:49:24.999Z</time></trkpt><trkpt lat="44.978021765521724" lon="9.992927373625113"><ele>42.714285714285715</ele><time>2026-03-22T07:49:25.999Z</time></trkpt><trkpt lat="44.97795495195393" lon="9.99289704975687"><ele>42.57142857142857</ele><time>2026-03-22T07:49:26.999Z</time></trkpt><trkpt lat="44.97788653093119" lon="9.992871137338021"><ele>42.42857142857143</ele><time>2026-03-22T07:49:27.999Z</time></trkpt><trkpt lat="44.9778174682436" lon="9.992851525950664"><ele>42.285714285714285</ele><time>2026-03-22T07:49:28.999Z</time></trkpt><trkpt lat="44.9777485140044" lon="9.992835256983199"><ele>42.142857142857146</ele><time>2026-03-22T07:49:29.999Z</time></trkpt><trkpt lat="44.977678884018694" lon="9.992818966142606"><ele>42.0</ele><time>2026-03-22T07:49:30.999Z</time></trkpt><trkpt lat="44.97761327228591" lon="9.992833134341359"><ele>42.0</ele><time>2026-03-22T07:49:31.999Z</time></trkpt><trkpt lat="44.97754429093087" lon="9.99276371269779"><ele>42.0</ele><time>2026-03-22T07:49:32.999Z</time></trkpt><trkpt lat="44.97747647420287" lon="9.992734058720245"><ele>42.0</ele><time>2026-03-22T07:49:33.999Z</time></trkpt><trkpt lat="44.97740892777892" lon="9.992704709127285"><ele>42.0</ele><time>2026-03-22T07:49:34.999Z</time></trkpt><trkpt lat="44.977341662318196" lon="9.992671935678938"><ele>42.0</ele><time>2026-03-22T07:49:35.999Z</time></trkpt><trkpt lat="44.97727402203453" lon="9.992640970250626"><ele>42.0</ele><time>2026-03-22T07:49:36.999Z</time></trkpt><trkpt lat="44.97720503812062" lon="9.992608471119597"><ele>42.0</ele><time>2026-03-22T07:49:37.999Z</time></trkpt><trkpt lat="44.97713531994202" lon="9.992579757106485"><ele>42.142857142857146</ele><time>2026-03-22T07:49:38.999Z</time></trkpt><trkpt lat="44.97706573631355" lon="9.992553714149494"><ele>42.285714285714285</ele><time>2026-03-22T07:49:39.999Z</time></trkpt><trkpt lat="44.976998197666596" lon="9.992518493286351"><ele>42.42857142857143</ele><time>2026-03-22T07:49:40.999Z</time></trkpt><trkpt lat="44.97693205248588" lon="9.992476755996252"><ele>42.57142857142857</ele><time>2026-03-22T07:49:41.999Z</time></trkpt><trkpt lat="44.97686394520259" lon="9.992439368575488"><ele>42.714285714285715</ele><time>2026-03-22T07:49:42.999Z</time></trkpt><trkpt lat="44.97679507824783" lon="9.992405397594155"><ele>42.85714285714286</ele><time>2026-03-22T07:49:43.999Z</time></trkpt><trkpt lat="44.97672509453408" lon="9.992368923917248"><ele>43.0</ele><time>2026-03-22T07:49:44.999Z</time></trkpt><trkpt lat="44.9766545114169" lon="9.99233558214486"><ele>43.142857142857146</ele><time>2026-03-22T07:49:46.001Z</time></trkpt><trkpt lat="44.976585046171486" lon="9.992301359808081"><ele>43.285714285714285</ele><time>2026-03-22T07:49:47.001Z</time></trkpt><trkpt lat="44.97651554044116" lon="9.992268412920675"><ele>43.42857142857143</ele><time>2026-03-22T07:49:48.001Z</time></trkpt><trkpt lat="44.976446641384314" lon="9.992233170342613"><ele>43.57142857142857</ele><time>2026-03-22T07:49:49.001Z</time></trkpt><trkpt lat="44.97637816633844" lon="9.992196063101666"><ele>43.714285714285715</ele><time>2026-03-22T07:49:50.001Z</time></trkpt><trkpt lat="44.97631031770338" lon="9.992155809048619"><ele>43.85714285714286</ele><time>2026-03-22T07:49:51.001Z</time></trkpt><trkpt lat="44.97624092249398" lon="9.992112108138835"><ele>44.0</ele><time>2026-03-22T07:49:52.001Z</time></trkpt><trkpt lat="44.976170866218546" lon="9.992066024376431"><ele>44.0</ele><time>2026-03-22T07:49:53.001Z</time></trkpt><trkpt lat="44.976102160524924" lon="9.992023812074757"><ele>44.0</ele><time>2026-03-22T07:49:54.001Z</time></trkpt><trkpt lat="44.97603081129172" lon="9.991983391950034"><ele>44.0</ele><time>2026-03-22T07:49:55.001Z</time></trkpt><trkpt lat="44.975963018691964" lon="9.991938580372102"><ele>44.0</ele><time>2026-03-22T07:49:56.001Z</time></trkpt><trkpt lat="44.97589365006844" lon="9.991888834675306"><ele>44.0</ele><time>2026-03-22T07:49:57.001Z</time></trkpt><trkpt lat="44.975823816176536" lon="9.991847011685184"><ele>44.0</ele><time>2026-03-22T07:49:58.001Z</time></trkpt><trkpt lat="44.975754124109336" lon="9.991802614541982"><ele>43.666666666666664</ele><time>2026-03-22T07:49:59.001Z</time></trkpt><trkpt lat="44.975687783039916" lon="9.991757156033064"><ele>43.33333333333333</ele><time>2026-03-22T07:50:00.001Z</time></trkpt><trkpt lat="44.975619336278434" lon="9.991709891620339"><ele>43.0</ele><time>2026-03-22T07:50:01.001Z</time></trkpt><trkpt lat="44.97555242563458" lon="9.99166355268332"><ele>42.666666666666664</ele><time>2026-03-22T07:50:02Z</time></trkpt><trkpt lat="44.97548356976503" lon="9.991616048806788"><ele>42.333333333333336</ele><time>2026-03-22T07:50:03Z</time></trkpt><trkpt lat="44.97541762681614" lon="9.991563604942735"><ele>42.0</ele><time>2026-03-22T07:50:04Z</time></trkpt><trkpt lat="44.975353610360436" lon="9.991505338690118"><ele>42.0</ele><time>2026-03-22T07:50:05Z</time></trkpt><trkpt lat="44.97528937776757" lon="9.991447074228114"><ele>42.0</ele><time>2026-03-22T07:50:06Z</time></trkpt><trkpt lat="44.97522146139912" lon="9.991400604234109"><ele>42.0</ele><time>2026-03-22T07:50:07Z</time></trkpt><trkpt lat="44.97515056680714" lon="9.991362047098988"><ele>42.0</ele><time>2026-03-22T07:50:08Z</time></trkpt><trkpt lat="44.97507838664146" lon="9.991318064451264"><ele>42.0</ele><time>2026-03-22T07:50:09Z</time></trkpt><trkpt lat="44.97500845138907" lon="9.991271086105561"><ele>42.0</ele><time>2026-03-22T07:50:10Z</time></trkpt><trkpt lat="44.97494001763796" lon="9.99122395547432"><ele>42.0</ele><time>2026-03-22T07:50:11Z</time></trkpt><trkpt lat="44.97487238040677" lon="9.991175488920604"><ele>42.0</ele><time>2026-03-22T07:50:12Z</time></trkpt><trkpt lat="44.97480254968584" lon="9.991128907886624"><ele>42.0</ele><time>2026-03-22T07:50:13Z</time></trkpt><trkpt lat="44.9747302555552" lon="9.991087099617237"><ele>42.0</ele><time>2026-03-22T07:50:14Z</time></trkpt><trkpt lat="44.974656803307816" lon="9.99104413152991"><ele>42.0</ele><time>2026-03-22T07:50:15Z</time></trkpt><trkpt lat="44.97458312604311" lon="9.99100337419041"><ele>42.0</ele><time>2026-03-22T07:50:16Z</time></trkpt><trkpt lat="44.974509786781724" lon="9.99096426682531"><ele>42.0</ele><time>2026-03-22T07:50:17Z</time></trkpt><trkpt lat="44.97443526928689" lon="9.990922036441985"><ele>42.0</ele><time>2026-03-22T07:50:18Z</time></trkpt><trkpt lat="44.974362464659066" lon="9.99088143704345"><ele>42.0</ele><time>2026-03-22T07:50:19Z</time></trkpt><trkpt lat="44.974289433515004" lon="9.99084160122024"><ele>42.0</ele><time>2026-03-22T07:50:20Z</time></trkpt><trkpt lat="44.97421638810568" lon="9.990802722713779"><ele>42.0</ele><time>2026-03-22T07:50:21Z</time></trkpt><trkpt lat="44.974144238663605" lon="9.990764688219215"><ele>42.0</ele><time>2026-03-22T07:50:22Z</time></trkpt><trkpt lat="44.974071531577636" lon="9.990726075722144"><ele>41.833333333333336</ele><time>2026-03-22T07:50:23Z</time></trkpt><trkpt lat="44.97399818800334" lon="9.990688577357085"><ele>41.666666666666664</ele><time>2026-03-22T07:50:24Z</time></trkpt><trkpt lat="44.97392477991447" lon="9.990656070474037"><ele>41.5</ele><time>2026-03-22T07:50:25Z</time></trkpt><trkpt lat="44.973849705276564" lon="9.99062379050043"><ele>41.33333333333333</ele><time>2026-03-22T07:50:26Z</time></trkpt><trkpt lat="44.97377457191295" lon="9.99059107142138"><ele>41.166666666666664</ele><time>2026-03-22T07:50:27Z</time></trkpt><trkpt lat="44.973701510542874" lon="9.990558651047346"><ele>41.0</ele><time>2026-03-22T07:50:28Z</time></trkpt><trkpt lat="44.97362977215056" lon="9.990517524707338"><ele>40.99999999999999</ele><time>2026-03-22T07:50:29Z</time></trkpt><trkpt lat="44.973560704121105" lon="9.990477517254824"><ele>41.0</ele><time>2026-03-22T07:50:30Z</time></trkpt><trkpt lat="44.97349317627946" lon="9.990440041793791"><ele>41.0</ele><time>2026-03-22T07:50:31Z</time></trkpt><trkpt lat="44.973426882205835" lon="9.990409046878087"><ele>41.0</ele><time>2026-03-22T07:50:32Z</time></trkpt><trkpt lat="44.973362605483665" lon="9.99037899307353"><ele>41.0</ele><time>2026-03-22T07:50:33Z</time></trkpt><trkpt lat="44.97329735448435" lon="9.990343942875866"><ele>40.99999999999999</ele><time>2026-03-22T07:50:34Z</time></trkpt><trkpt lat="44.97323248141479" lon="9.990312314979835"><ele>41.0</ele><time>2026-03-22T07:50:35Z</time></trkpt><trkpt lat="44.97316443013231" lon="9.990280720260206"><ele>41.14285714285714</ele><time>2026-03-22T07:50:36Z</time></trkpt><trkpt lat="44.97309669315386" lon="9.99024690784028"><ele>41.285714285714285</ele><time>2026-03-22T07:50:37Z</time></trkpt><trkpt lat="44.97302489545211" lon="9.990212245020812"><ele>41.42857142857143</ele><time>2026-03-22T07:50:38Z</time></trkpt><trkpt lat="44.97295452824184" lon="9.99017548513235"><ele>41.57142857142857</ele><time>2026-03-22T07:50:39Z</time></trkpt><trkpt lat="44.97288356921691" lon="9.990141964832379"><ele>41.714285714285715</ele><time>2026-03-22T07:50:40Z</time></trkpt><trkpt lat="44.97281438556482" lon="9.99010596399311"><ele>41.857142857142854</ele><time>2026-03-22T07:50:41Z</time></trkpt><trkpt lat="44.972748431452466" lon="9.990069567750702"><ele>42.0</ele><time>2026-03-22T07:50:42Z</time></trkpt><trkpt lat="44.97268179870619" lon="9.990025894932637"><ele>41.833333333333336</ele><time>2026-03-22T07:50:43Z</time></trkpt><trkpt lat="44.972615314928305" lon="9.989972772004101"><ele>41.666666666666664</ele><time>2026-03-22T07:50:44Z</time></trkpt><trkpt lat="44.97254933538396" lon="9.98991333630564"><ele>41.5</ele><time>2026-03-22T07:50:45Z</time></trkpt><trkpt lat="44.972486267856304" lon="9.989855673060369"><ele>41.33333333333333</ele><time>2026-03-22T07:50:46Z</time></trkpt><trkpt lat="44.972420191258784" lon="9.989797674171067"><ele>41.166666666666664</ele><time>2026-03-22T07:50:47Z</time></trkpt><trkpt lat="44.972352332842746" lon="9.989735381392107"><ele>41.0</ele><time>2026-03-22T07:50:48Z</time></trkpt><trkpt lat="44.97228508084599" lon="9.989675502864023"><ele>41.666666666666664</ele><time>2026-03-22T07:50:49Z</time></trkpt><trkpt lat="44.97221506180364" lon="9.98961276615558"><ele>42.33333333333333</ele><time>2026-03-22T07:50:50Z</time></trkpt><trkpt lat="44.972145669643666" lon="9.989553288479518"><ele>43.0</ele><time>2026-03-22T07:50:51Z</time></trkpt><trkpt lat="44.97207742661157" lon="9.98948992432108"><ele>43.666666666666664</ele><time>2026-03-22T07:50:52Z</time></trkpt><trkpt lat="44.972009884753945" lon="9.989429464783603"><ele>44.333333333333336</ele><time>2026-03-22T07:50:53Z</time></trkpt><trkpt lat="44.9719407737509" lon="9.989370853130065"><ele>45.0</ele><time>2026-03-22T07:50:54Z</time></trkpt><trkpt lat="44.971872496356724" lon="9.989311782718547"><ele>45.0</ele><time>2026-03-22T07:50:55Z</time></trkpt><trkpt lat="44.97180523163684" lon="9.989250612521674"><ele>45.0</ele><time>2026-03-22T07:50:56Z</time></trkpt><trkpt lat="44.97173875125897" lon="9.989188583233313"><ele>45.0</ele><time>2026-03-22T07:50:57Z</time></trkpt><trkpt lat="44.97167242152976" lon="9.98912653512439"><ele>45.0</ele><time>2026-03-22T07:50:57.999Z</time></trkpt><trkpt lat="44.971607604370966" lon="9.989062875240935"><ele>45.0</ele><time>2026-03-22T07:50:58.999Z</time></trkpt><trkpt lat="44.97154101276459" lon="9.989001075178825"><ele>45.0</ele><time>2026-03-22T07:50:59.999Z</time></trkpt><trkpt lat="44.971474381416286" lon="9.988941846960882"><ele>44.833333333333336</ele><time>2026-03-22T07:51:00.999Z</time></trkpt><trkpt lat="44.97140870990873" lon="9.988880819884159"><ele>44.666666666666664</ele><time>2026-03-22T07:51:01.999Z</time></trkpt><trkpt lat="44.97134257187924" lon="9.988819546586468"><ele>44.5</ele><time>2026-03-22T07:51:02.999Z</time></trkpt><trkpt lat="44.97127560012988" lon="9.9887566623576"><ele>44.33333333333333</ele><time>2026-03-22T07:51:03.999Z</time></trkpt><trkpt lat="44.97120970204667" lon="9.988698617059988"><ele>44.166666666666664</ele><time>2026-03-22T07:51:04.999Z</time></trkpt><trkpt lat="44.97114292818934" lon="9.988638655267863"><ele>44.0</ele><time>2026-03-22T07:51:05.999Z</time></trkpt><trkpt lat="44.971076105572386" lon="9.988579999303886"><ele>44.0</ele><time>2026-03-22T07:51:06.999Z</time></trkpt><trkpt lat="44.971008113826244" lon="9.988521155033418"><ele>44.0</ele><time>2026-03-22T07:51:07.999Z</time></trkpt><trkpt lat="44.97094003516662" lon="9.988460936794775"><ele>44.0</ele><time>2026-03-22T07:51:08.999Z</time></trkpt><trkpt lat="44.97087059301404" lon="9.988402051753832"><ele>44.0</ele><time>2026-03-22T07:51:09.999Z</time></trkpt><trkpt lat="44.97080096019936" lon="9.988345645207435"><ele>44.0</ele><time>2026-03-22T07:51:10.999Z</time></trkpt><trkpt lat="44.97072804202061" lon="9.98829307915333"><ele>44.0</ele><time>2026-03-22T07:51:11.999Z</time></trkpt><trkpt lat="44.97065342794016" lon="9.988243557330811"><ele>44.0</ele><time>2026-03-22T07:51:12.999Z</time></trkpt><trkpt lat="44.97057611635342" lon="9.988199448440476"><ele>44.0</ele><time>2026-03-22T07:51:13.999Z</time></trkpt><trkpt lat="44.9704973589917" lon="9.988165792434078"><ele>44.0</ele><time>2026-03-22T07:51:14.999Z</time></trkpt><trkpt lat="44.9704160294336" lon="9.988139105504814"><ele>44.0</ele><time>2026-03-22T07:51:15.999Z</time></trkpt><trkpt lat="44.97033555911281" lon="9.988114616863621"><ele>44.0</ele><time>2026-03-22T07:51:16.999Z</time></trkpt><trkpt lat="44.97025454430438" lon="9.988089437411737"><ele>44.0</ele><time>2026-03-22T07:51:17.999Z</time></trkpt><trkpt lat="44.97017401165927" lon="9.988062679343493"><ele>44.0</ele><time>2026-03-22T07:51:18.999Z</time></trkpt><trkpt lat="44.97008996799625" lon="9.988038777712017"><ele>44.0</ele><time>2026-03-22T07:51:19.999Z</time></trkpt><trkpt lat="44.97000860706778" lon="9.988020171017547"><ele>44.0</ele><time>2026-03-22T07:51:20.999Z</time></trkpt><trkpt lat="44.96992550984317" lon="9.988003696672424"><ele>44.0</ele><time>2026-03-22T07:51:21.999Z</time></trkpt><trkpt lat="44.969844094686295" lon="9.987989563424325"><ele>44.0</ele><time>2026-03-22T07:51:22.999Z</time></trkpt><trkpt lat="44.9697650829778" lon="9.98798478305235"><ele>44.0</ele><time>2026-03-22T07:51:23.999Z</time></trkpt><trkpt lat="44.969687833167754" lon="9.987987225190151"><ele>44.33333333333333</ele><time>2026-03-22T07:51:24.999Z</time></trkpt><trkpt lat="44.96960943445118" lon="9.9879957930481"><ele>44.666666666666664</ele><time>2026-03-22T07:51:25.999Z</time></trkpt><trkpt lat="44.96953111334434" lon="9.988005887505834"><ele>45.0</ele><time>2026-03-22T07:51:26.999Z</time></trkpt><trkpt lat="44.96945172863012" lon="9.988019801732875"><ele>45.333333333333336</ele><time>2026-03-22T07:51:27.999Z</time></trkpt><trkpt lat="44.96937207633225" lon="9.98803041617924"><ele>45.66666666666667</ele><time>2026-03-22T07:51:28.999Z</time></trkpt><trkpt lat="44.969296813474735" lon="9.988047430849667"><ele>46.0</ele><time>2026-03-22T07:51:29.999Z</time></trkpt><trkpt lat="44.969220385311935" lon="9.988066701425883"><ele>46.0</ele><time>2026-03-22T07:51:30.999Z</time></trkpt><trkpt lat="44.96914314584706" lon="9.988088187234881"><ele>46.0</ele><time>2026-03-22T07:51:31.999Z</time></trkpt><trkpt lat="44.96906911546369" lon="9.988106623352714"><ele>46.0</ele><time>2026-03-22T07:51:32.999Z</time></trkpt><trkpt lat="44.968992526013494" lon="9.988125873578044"><ele>46.0</ele><time>2026-03-22T07:51:33.999Z</time></trkpt><trkpt lat="44.968915493383" lon="9.988144019254873"><ele>46.0</ele><time>2026-03-22T07:51:34.999Z</time></trkpt><trkpt lat="44.96884052556142" lon="9.988165970068811"><ele>46.0</ele><time>2026-03-22T07:51:35.999Z</time></trkpt><trkpt lat="44.96876693691188" lon="9.988186843652883"><ele>46.0</ele><time>2026-03-22T07:51:36.999Z</time></trkpt><trkpt lat="44.96869340218226" lon="9.988205715288473"><ele>46.0</ele><time>2026-03-22T07:51:37.999Z</time></trkpt><trkpt lat="44.96861694994532" lon="9.988221526282326"><ele>46.0</ele><time>2026-03-22T07:51:38.999Z</time></trkpt><trkpt lat="44.96854041691836" lon="9.988246622362214"><ele>46.0</ele><time>2026-03-22T07:51:39.999Z</time></trkpt><trkpt lat="44.968464780595205" lon="9.988266801818726"><ele>46.0</ele><time>2026-03-22T07:51:40.999Z</time></trkpt><trkpt lat="44.96838683101988" lon="9.98828531750002"><ele>46.0</ele><time>2026-03-22T07:51:41.999Z</time></trkpt><trkpt lat="44.96830922812744" lon="9.988302513121317"><ele>45.833333333333336</ele><time>2026-03-22T07:51:42.999Z</time></trkpt><trkpt lat="44.968231664923124" lon="9.988321377736153"><ele>45.66666666666667</ele><time>2026-03-22T07:51:43.999Z</time></trkpt><trkpt lat="44.96815552523617" lon="9.988342029274268"><ele>45.5</ele><time>2026-03-22T07:51:44.999Z</time></trkpt><trkpt lat="44.96807846947736" lon="9.988360629081395"><ele>45.333333333333336</ele><time>2026-03-22T07:51:45.999Z</time></trkpt><trkpt lat="44.9680010283274" lon="9.988381950617516"><ele>45.166666666666664</ele><time>2026-03-22T07:51:46.999Z</time></trkpt><trkpt lat="44.96792337240305" lon="9.988400253971212"><ele>45.0</ele><time>2026-03-22T07:51:47.999Z</time></trkpt><trkpt lat="44.96784404024125" lon="9.988420567082173"><ele>44.833333333333336</ele><time>2026-03-22T07:51:48.999Z</time></trkpt><trkpt lat="44.967767014704876" lon="9.98844094359112"><ele>44.666666666666664</ele><time>2026-03-22T07:51:49.999Z</time></trkpt><trkpt lat="44.96768746173279" lon="9.988459401382242"><ele>44.5</ele><time>2026-03-22T07:51:50.999Z</time></trkpt><trkpt lat="44.96760830363939" lon="9.988474378957427"><ele>44.33333333333333</ele><time>2026-03-22T07:51:52.001Z</time></trkpt><trkpt lat="44.967528636603774" lon="9.988490484503638"><ele>44.166666666666664</ele><time>2026-03-22T07:51:53.001Z</time></trkpt><trkpt lat="44.96744844610012" lon="9.988512045047406"><ele>44.0</ele><time>2026-03-22T07:51:54.001Z</time></trkpt><trkpt lat="44.96736793072934" lon="9.988531000835996"><ele>44.33333333333333</ele><time>2026-03-22T07:51:55.001Z</time></trkpt><trkpt lat="44.96728542051268" lon="9.988548215282677"><ele>44.666666666666664</ele><time>2026-03-22T07:51:56.001Z</time></trkpt><trkpt lat="44.96720780477231" lon="9.988567983338038"><ele>45.0</ele><time>2026-03-22T07:51:57.001Z</time></trkpt><trkpt lat="44.96713051664808" lon="9.988586774249796"><ele>45.333333333333336</ele><time>2026-03-22T07:51:58.001Z</time></trkpt><trkpt lat="44.967055123913305" lon="9.988606066225362"><ele>45.66666666666667</ele><time>2026-03-22T07:51:59.001Z</time></trkpt><trkpt lat="44.966980996948976" lon="9.988624933667529"><ele>46.0</ele><time>2026-03-22T07:52:00.001Z</time></trkpt><trkpt lat="44.96690563794929" lon="9.988639051794532"><ele>46.0</ele><time>2026-03-22T07:52:01.001Z</time></trkpt><trkpt lat="44.96682870875713" lon="9.988656834645875"><ele>46.0</ele><time>2026-03-22T07:52:02.001Z</time></trkpt><trkpt lat="44.96675465988111" lon="9.988676850049176"><ele>46.0</ele><time>2026-03-22T07:52:03.001Z</time></trkpt><trkpt lat="44.966676974045846" lon="9.988692119312816"><ele>46.0</ele><time>2026-03-22T07:52:04.001Z</time></trkpt><trkpt lat="44.966599792722754" lon="9.988712027108374"><ele>46.0</ele><time>2026-03-22T07:52:05.001Z</time></trkpt><trkpt lat="44.96652580627485" lon="9.98873424856423"><ele>46.0</ele><time>2026-03-22T07:52:06.001Z</time></trkpt><trkpt lat="44.966450401438344" lon="9.988751324268069"><ele>46.0</ele><time>2026-03-22T07:52:07Z</time></trkpt><trkpt lat="44.96637609607105" lon="9.98876629665125"><ele>46.0</ele><time>2026-03-22T07:52:08Z</time></trkpt><trkpt lat="44.96630113391639" lon="9.988785759706532"><ele>46.0</ele><time>2026-03-22T07:52:09Z</time></trkpt><trkpt lat="44.966226957973454" lon="9.988803612440117"><ele>46.0</ele><time>2026-03-22T07:52:10Z</time></trkpt><trkpt lat="44.96615180413029" lon="9.988822731447524"><ele>46.0</ele><time>2026-03-22T07:52:11Z</time></trkpt><trkpt lat="44.96607659223067" lon="9.988841842883815"><ele>46.0</ele><time>2026-03-22T07:52:12Z</time></trkpt><trkpt lat="44.96600383445453" lon="9.988863425996287"><ele>46.0</ele><time>2026-03-22T07:52:13Z</time></trkpt><trkpt lat="44.96593034216864" lon="9.988881109818184"><ele>46.0</ele><time>2026-03-22T07:52:14Z</time></trkpt><trkpt lat="44.96585980907289" lon="9.988898091481081"><ele>46.0</ele><time>2026-03-22T07:52:15Z</time></trkpt><trkpt lat="44.96578646975302" lon="9.988911904375373"><ele>46.0</ele><time>2026-03-22T07:52:16Z</time></trkpt><trkpt lat="44.965713917757405" lon="9.988925114044442"><ele>46.0</ele><time>2026-03-22T07:52:17Z</time></trkpt><trkpt lat="44.96564255369087" lon="9.988942932094586"><ele>46.0</ele><time>2026-03-22T07:52:18Z</time></trkpt><trkpt lat="44.96557191701076" lon="9.98896056404391"><ele>46.0</ele><time>2026-03-22T07:52:19Z</time></trkpt><trkpt lat="44.96550337885768" lon="9.988978243839394"><ele>45.8</ele><time>2026-03-22T07:52:20Z</time></trkpt><trkpt lat="44.96543821691189" lon="9.988994613255645"><ele>45.599999999999994</ele><time>2026-03-22T07:52:21Z</time></trkpt><trkpt lat="44.965373754773026" lon="9.989009361708916"><ele>45.4</ele><time>2026-03-22T07:52:22Z</time></trkpt><trkpt lat="44.96525484486964" lon="9.989036547507684"><ele>45.2</ele><time>2026-03-22T07:52:24Z</time></trkpt><trkpt lat="44.96514307786869" lon="9.989089964917637"><ele>45.0</ele><time>2026-03-22T07:52:26Z</time></trkpt><trkpt lat="44.965039279186094" lon="9.989185661914501"><ele>44.857142857142854</ele><time>2026-03-22T07:52:28Z</time></trkpt><trkpt lat="44.965019860159416" lon="9.98928248990731"><ele>44.714285714285715</ele><time>2026-03-22T07:52:29Z</time></trkpt><trkpt lat="44.96498539490294" lon="9.989363179613818"><ele>44.57142857142857</ele><time>2026-03-22T07:52:30Z</time></trkpt><trkpt lat="44.964949686342145" lon="9.989452233349045"><ele>44.42857142857143</ele><time>2026-03-22T07:52:31Z</time></trkpt><trkpt lat="44.96492106159295" lon="9.989543563717712"><ele>44.285714285714285</ele><time>2026-03-22T07:52:32Z</time></trkpt><trkpt lat="44.96488940883396" lon="9.989634362306306"><ele>44.142857142857146</ele><time>2026-03-22T07:52:33Z</time></trkpt><trkpt lat="44.96485252402623" lon="9.98972790089006"><ele>44.0</ele><time>2026-03-22T07:52:34Z</time></trkpt><trkpt lat="44.9648225029494" lon="9.9898164946059"><ele>44.0</ele><time>2026-03-22T07:52:35Z</time></trkpt><trkpt lat="44.96479124379553" lon="9.989904478357177"><ele>44.0</ele><time>2026-03-22T07:52:36Z</time></trkpt><trkpt lat="44.96475945261938" lon="9.989993254835998"><ele>44.0</ele><time>2026-03-22T07:52:37Z</time></trkpt><trkpt lat="44.964727880355206" lon="9.99008569533621"><ele>44.0</ele><time>2026-03-22T07:52:38Z</time></trkpt><trkpt lat="44.964696974209815" lon="9.990176607970719"><ele>44.0</ele><time>2026-03-22T07:52:39Z</time></trkpt><trkpt lat="44.96465750987089" lon="9.990258301218288"><ele>44.0</ele><time>2026-03-22T07:52:40Z</time></trkpt><trkpt lat="44.96459770129039" lon="9.99031578137428"><ele>44.0</ele><time>2026-03-22T07:52:41Z</time></trkpt><trkpt lat="44.964524124978425" lon="9.990332322026415"><ele>44.166666666666664</ele><time>2026-03-22T07:52:42Z</time></trkpt><trkpt lat="44.964449025065626" lon="9.990306723432559"><ele>44.33333333333333</ele><time>2026-03-22T07:52:43Z</time></trkpt><trkpt lat="44.96438374290989" lon="9.990242360833982"><ele>44.5</ele><time>2026-03-22T07:52:44Z</time></trkpt><trkpt lat="44.964324627453564" lon="9.990186078039175"><ele>44.666666666666664</ele><time>2026-03-22T07:52:45Z</time></trkpt><trkpt lat="44.96425928144565" lon="9.990137861000271"><ele>44.833333333333336</ele><time>2026-03-22T07:52:46Z</time></trkpt><trkpt lat="44.964192896063345" lon="9.990090493658277"><ele>45.0</ele><time>2026-03-22T07:52:47Z</time></trkpt><trkpt lat="44.96412949279377" lon="9.990037696816882"><ele>44.714285714285715</ele><time>2026-03-22T07:52:48Z</time></trkpt><trkpt lat="44.96406692979155" lon="9.98998309347852"><ele>44.42857142857143</ele><time>2026-03-22T07:52:49Z</time></trkpt><trkpt lat="44.964004354346265" lon="9.989930784951811"><ele>44.142857142857146</ele><time>2026-03-22T07:52:50Z</time></trkpt><trkpt lat="44.96394137266068" lon="9.9898789583695"><ele>43.85714285714286</ele><time>2026-03-22T07:52:51Z</time></trkpt><trkpt lat="44.963878801309924" lon="9.989827427775651"><ele>43.57142857142857</ele><time>2026-03-22T07:52:52Z</time></trkpt><trkpt lat="44.96381494198612" lon="9.989774089324508"><ele>43.28571428571429</ele><time>2026-03-22T07:52:53Z</time></trkpt><trkpt lat="44.96375120016861" lon="9.989716155055374"><ele>43.0</ele><time>2026-03-22T07:52:54Z</time></trkpt><trkpt lat="44.963688735421606" lon="9.989658349901697"><ele>43.0</ele><time>2026-03-22T07:52:55Z</time></trkpt><trkpt lat="44.963623479256064" lon="9.989599712418544"><ele>43.0</ele><time>2026-03-22T07:52:56Z</time></trkpt><trkpt lat="44.963558951492686" lon="9.989543317244289"><ele>43.0</ele><time>2026-03-22T07:52:57Z</time></trkpt><trkpt lat="44.96349422982917" lon="9.989488111998108"><ele>43.0</ele><time>2026-03-22T07:52:58Z</time></trkpt><trkpt lat="44.96342692305421" lon="9.989433964553532"><ele>43.0</ele><time>2026-03-22T07:52:59Z</time></trkpt><trkpt lat="44.9633584876802" lon="9.989382454147815"><ele>43.0</ele><time>2026-03-22T07:53:00Z</time></trkpt><trkpt lat="44.96329090586454" lon="9.989328043743821"><ele>43.333333333333336</ele><time>2026-03-22T07:53:01Z</time></trkpt><trkpt lat="44.96322272217859" lon="9.989272710231145"><ele>43.66666666666667</ele><time>2026-03-22T07:53:02Z</time></trkpt><trkpt lat="44.963154826430056" lon="9.989217603956572"><ele>44.0</ele><time>2026-03-22T07:53:02.999Z</time></trkpt><trkpt lat="44.9630890562671" lon="9.989162870916408"><ele>44.333333333333336</ele><time>2026-03-22T07:53:03.999Z</time></trkpt><trkpt lat="44.963024641148465" lon="9.989111121047673"><ele>44.666666666666664</ele><time>2026-03-22T07:53:04.999Z</time></trkpt><trkpt lat="44.96295953409369" lon="9.989055809012724"><ele>45.0</ele><time>2026-03-22T07:53:05.999Z</time></trkpt><trkpt lat="44.96289455025719" lon="9.989002336698196"><ele>45.0</ele><time>2026-03-22T07:53:06.999Z</time></trkpt><trkpt lat="44.962829810530955" lon="9.988947438505846"><ele>45.0</ele><time>2026-03-22T07:53:07.999Z</time></trkpt><trkpt lat="44.96276329567218" lon="9.98889597345676"><ele>45.0</ele><time>2026-03-22T07:53:08.999Z</time></trkpt><trkpt lat="44.96269985099373" lon="9.98884352235963"><ele>45.0</ele><time>2026-03-22T07:53:09.999Z</time></trkpt><trkpt lat="44.96263451857466" lon="9.988788231247936"><ele>45.0</ele><time>2026-03-22T07:53:10.999Z</time></trkpt><trkpt lat="44.962567667865095" lon="9.988735736548202"><ele>45.0</ele><time>2026-03-22T07:53:11.999Z</time></trkpt><trkpt lat="44.96250087039566" lon="9.988681751846418"><ele>45.166666666666664</ele><time>2026-03-22T07:53:12.999Z</time></trkpt><trkpt lat="44.962434704406114" lon="9.98862908085459"><ele>45.333333333333336</ele><time>2026-03-22T07:53:13.999Z</time></trkpt><trkpt lat="44.962368844825384" lon="9.988572299914463"><ele>45.5</ele><time>2026-03-22T07:53:14.999Z</time></trkpt><trkpt lat="44.962302624265604" lon="9.988517981447771"><ele>45.66666666666667</ele><time>2026-03-22T07:53:15.999Z</time></trkpt><trkpt lat="44.962235471815745" lon="9.988460513422204"><ele>45.833333333333336</ele><time>2026-03-22T07:53:16.999Z</time></trkpt><trkpt lat="44.962168058870695" lon="9.988403894295486"><ele>46.0</ele><time>2026-03-22T07:53:17.999Z</time></trkpt><trkpt lat="44.96210008207643" lon="9.988347273476709"><ele>45.833333333333336</ele><time>2026-03-22T07:53:18.999Z</time></trkpt><trkpt lat="44.96203174936345" lon="9.988290608441604"><ele>45.66666666666667</ele><time>2026-03-22T07:53:19.999Z</time></trkpt><trkpt lat="44.96196202952913" lon="9.988234947040324"><ele>45.5</ele><time>2026-03-22T07:53:20.999Z</time></trkpt><trkpt lat="44.96189111232573" lon="9.98818035908994"><ele>45.333333333333336</ele><time>2026-03-22T07:53:21.999Z</time></trkpt><trkpt lat="44.96182176333785" lon="9.988122545891967"><ele>45.166666666666664</ele><time>2026-03-22T07:53:22.999Z</time></trkpt><trkpt lat="44.9617511083478" lon="9.988065693517841"><ele>45.0</ele><time>2026-03-22T07:53:23.999Z</time></trkpt><trkpt lat="44.961681720347336" lon="9.988008087639729"><ele>45.0</ele><time>2026-03-22T07:53:24.999Z</time></trkpt><trkpt lat="44.96161160443988" lon="9.987950167998157"><ele>45.0</ele><time>2026-03-22T07:53:25.999Z</time></trkpt><trkpt lat="44.961542623437936" lon="9.98789410254283"><ele>45.0</ele><time>2026-03-22T07:53:26.999Z</time></trkpt><trkpt lat="44.961473963296704" lon="9.98783920129022"><ele>45.0</ele><time>2026-03-22T07:53:27.999Z</time></trkpt><trkpt lat="44.961403901493895" lon="9.987777419267168"><ele>45.0</ele><time>2026-03-22T07:53:28.999Z</time></trkpt><trkpt lat="44.961334699045" lon="9.987721762115116"><ele>45.0</ele><time>2026-03-22T07:53:29.999Z</time></trkpt><trkpt lat="44.96126494382421" lon="9.987666412276491"><ele>45.0</ele><time>2026-03-22T07:53:30.999Z</time></trkpt><trkpt lat="44.96119329222425" lon="9.987606834271814"><ele>45.0</ele><time>2026-03-22T07:53:31.999Z</time></trkpt><trkpt lat="44.96112290185118" lon="9.98755014073907"><ele>45.0</ele><time>2026-03-22T07:53:32.999Z</time></trkpt><trkpt lat="44.96105294761804" lon="9.98748914524849"><ele>45.0</ele><time>2026-03-22T07:53:33.999Z</time></trkpt><trkpt lat="44.96098269573822" lon="9.987428004021652"><ele>45.0</ele><time>2026-03-22T07:53:34.999Z</time></trkpt><trkpt lat="44.960911323254976" lon="9.987367774586087"><ele>45.0</ele><time>2026-03-22T07:53:35.999Z</time></trkpt><trkpt lat="44.96083928301628" lon="9.987310702974002"><ele>44.666666666666664</ele><time>2026-03-22T07:53:36.999Z</time></trkpt><trkpt lat="44.96076803411571" lon="9.987253049703904"><ele>44.333333333333336</ele><time>2026-03-22T07:53:37.999Z</time></trkpt><trkpt lat="44.96069732347672" lon="9.987194440916035"><ele>44.0</ele><time>2026-03-22T07:53:38.999Z</time></trkpt><trkpt lat="44.96062615053777" lon="9.987136092449077"><ele>43.66666666666667</ele><time>2026-03-22T07:53:39.999Z</time></trkpt><trkpt lat="44.96055467031277" lon="9.987079779136756"><ele>43.333333333333336</ele><time>2026-03-22T07:53:40.999Z</time></trkpt><trkpt lat="44.96048219406795" lon="9.987023673022708"><ele>43.0</ele><time>2026-03-22T07:53:41.999Z</time></trkpt><trkpt lat="44.960412221585194" lon="9.986963973435158"><ele>43.0</ele><time>2026-03-22T07:53:42.999Z</time></trkpt><trkpt lat="44.960340020083244" lon="9.98690862178939"><ele>43.0</ele><time>2026-03-22T07:53:43.999Z</time></trkpt><trkpt lat="44.96026800437616" lon="9.986850174050627"><ele>43.0</ele><time>2026-03-22T07:53:44.999Z</time></trkpt><trkpt lat="44.96019637834417" lon="9.986791221998542"><ele>43.0</ele><time>2026-03-22T07:53:45.999Z</time></trkpt><trkpt lat="44.960125032680615" lon="9.98673215379006"><ele>43.0</ele><time>2026-03-22T07:53:46.999Z</time></trkpt><trkpt lat="44.96005271089934" lon="9.986673889168875"><ele>43.0</ele><time>2026-03-22T07:53:47.999Z</time></trkpt><trkpt lat="44.95998223488275" lon="9.98661444284341"><ele>43.333333333333336</ele><time>2026-03-22T07:53:48.999Z</time></trkpt><trkpt lat="44.95991066977321" lon="9.986558161132532"><ele>43.66666666666667</ele><time>2026-03-22T07:53:49.999Z</time></trkpt><trkpt lat="44.959840215930555" lon="9.986500563203602"><ele>44.0</ele><time>2026-03-22T07:53:50.999Z</time></trkpt><trkpt lat="44.95976940234368" lon="9.986439477249677"><ele>44.333333333333336</ele><time>2026-03-22T07:53:51.999Z</time></trkpt><trkpt lat="44.959698998098936" lon="9.98638129785967"><ele>44.666666666666664</ele><time>2026-03-22T07:53:52.999Z</time></trkpt><trkpt lat="44.95962802557122" lon="9.986327245208363"><ele>45.0</ele><time>2026-03-22T07:53:53.999Z</time></trkpt><trkpt lat="44.95955731524898" lon="9.986274981511812"><ele>45.0</ele><time>2026-03-22T07:53:54.999Z</time></trkpt><trkpt lat="44.95948722206095" lon="9.98621687569246"><ele>45.0</ele><time>2026-03-22T07:53:55.999Z</time></trkpt><trkpt lat="44.959418366822675" lon="9.986158920614688"><ele>45.0</ele><time>2026-03-22T07:53:56.999Z</time></trkpt><trkpt lat="44.95934828220692" lon="9.986103553375637"><ele>45.0</ele><time>2026-03-22T07:53:58.001Z</time></trkpt><trkpt lat="44.95927781350323" lon="9.98604481527526"><ele>45.0</ele><time>2026-03-22T07:53:59.001Z</time></trkpt><trkpt lat="44.959208429982205" lon="9.985983690268554"><ele>45.0</ele><time>2026-03-22T07:54:00.001Z</time></trkpt><trkpt lat="44.95913806257868" lon="9.985925728810667"><ele>45.166666666666664</ele><time>2026-03-22T07:54:01.001Z</time></trkpt><trkpt lat="44.95906648092829" lon="9.985871106814995"><ele>45.333333333333336</ele><time>2026-03-22T07:54:02.001Z</time></trkpt><trkpt lat="44.958995775140835" lon="9.985815145116582"><ele>45.5</ele><time>2026-03-22T07:54:03.001Z</time></trkpt><trkpt lat="44.958926834099394" lon="9.98575874534846"><ele>45.66666666666667</ele><time>2026-03-22T07:54:04.001Z</time></trkpt><trkpt lat="44.958854835552586" lon="9.9857000518324"><ele>45.833333333333336</ele><time>2026-03-22T07:54:05.001Z</time></trkpt><trkpt lat="44.95878134240717" lon="9.98563993878288"><ele>46.0</ele><time>2026-03-22T07:54:06.001Z</time></trkpt><trkpt lat="44.9587084906801" lon="9.985582039236315"><ele>46.0</ele><time>2026-03-22T07:54:07.001Z</time></trkpt><trkpt lat="44.95863760885938" lon="9.985525192927478"><ele>46.0</ele><time>2026-03-22T07:54:08.001Z</time></trkpt><trkpt lat="44.958569370522206" lon="9.985469574379863"><ele>46.0</ele><time>2026-03-22T07:54:09.001Z</time></trkpt><trkpt lat="44.9584998274042" lon="9.985421811658314"><ele>46.0</ele><time>2026-03-22T07:54:10.001Z</time></trkpt><trkpt lat="44.95843116571283" lon="9.985361194528217"><ele>46.0</ele><time>2026-03-22T07:54:11.001Z</time></trkpt><trkpt lat="44.95835885185429" lon="9.985300948613977"><ele>46.0</ele><time>2026-03-22T07:54:12.001Z</time></trkpt><trkpt lat="44.958287759460916" lon="9.985241661730639"><ele>45.833333333333336</ele><time>2026-03-22T07:54:13Z</time></trkpt><trkpt lat="44.958216517179004" lon="9.985183178937513"><ele>45.66666666666667</ele><time>2026-03-22T07:54:14Z</time></trkpt><trkpt lat="44.958145082758385" lon="9.985127625077924"><ele>45.5</ele><time>2026-03-22T07:54:15Z</time></trkpt><trkpt lat="44.95807411086762" lon="9.985073363699444"><ele>45.333333333333336</ele><time>2026-03-22T07:54:16Z</time></trkpt><trkpt lat="44.958005036331286" lon="9.985015809377492"><ele>45.166666666666664</ele><time>2026-03-22T07:54:17Z</time></trkpt><trkpt lat="44.95793499642046" lon="9.984961093829805"><ele>45.0</ele><time>2026-03-22T07:54:18Z</time></trkpt><trkpt lat="44.95786469518558" lon="9.984903959902011"><ele>45.0</ele><time>2026-03-22T07:54:19Z</time></trkpt><trkpt lat="44.95779381463734" lon="9.984846549792325"><ele>45.0</ele><time>2026-03-22T07:54:20Z</time></trkpt><trkpt lat="44.957725070474176" lon="9.98479236392968"><ele>45.0</ele><time>2026-03-22T07:54:21Z</time></trkpt><trkpt lat="44.957654581585885" lon="9.984736152310015"><ele>45.0</ele><time>2026-03-22T07:54:22Z</time></trkpt><trkpt lat="44.95758680062324" lon="9.984683838347495"><ele>45.0</ele><time>2026-03-22T07:54:23Z</time></trkpt><trkpt lat="44.957516860554485" lon="9.984628543289219"><ele>45.0</ele><time>2026-03-22T07:54:24Z</time></trkpt><trkpt lat="44.95744827577942" lon="9.98457451303631"><ele>45.166666666666664</ele><time>2026-03-22T07:54:25Z</time></trkpt><trkpt lat="44.957377272209094" lon="9.984514450355242"><ele>45.333333333333336</ele><time>2026-03-22T07:54:26Z</time></trkpt><trkpt lat="44.957307927121754" lon="9.984459066569404"><ele>45.5</ele><time>2026-03-22T07:54:27Z</time></trkpt><trkpt lat="44.95723616575659" lon="9.984403555993172"><ele>45.66666666666667</ele><time>2026-03-22T07:54:28Z</time></trkpt><trkpt lat="44.9571644517665" lon="9.984347943262806"><ele>45.833333333333336</ele><time>2026-03-22T07:54:29Z</time></trkpt><trkpt lat="44.95709285355254" lon="9.984296960758329"><ele>46.0</ele><time>2026-03-22T07:54:30Z</time></trkpt><trkpt lat="44.95702286979262" lon="9.984240429356353"><ele>46.0</ele><time>2026-03-22T07:54:31Z</time></trkpt><trkpt lat="44.95695345382963" lon="9.984185802795093"><ele>46.0</ele><time>2026-03-22T07:54:32Z</time></trkpt><trkpt lat="44.95688416373548" lon="9.984129533422154"><ele>46.0</ele><time>2026-03-22T07:54:33Z</time></trkpt><trkpt lat="44.9568157128512" lon="9.984075203608027"><ele>46.0</ele><time>2026-03-22T07:54:34Z</time></trkpt><trkpt lat="44.95674736323349" lon="9.984023452720114"><ele>46.0</ele><time>2026-03-22T07:54:35Z</time></trkpt><trkpt lat="44.956680429190264" lon="9.983970532574956"><ele>46.0</ele><time>2026-03-22T07:54:36Z</time></trkpt><trkpt lat="44.956615501060114" lon="9.98391614291416"><ele>45.66666666666667</ele><time>2026-03-22T07:54:37Z</time></trkpt><trkpt lat="44.95654845295718" lon="9.983859843608702"><ele>45.333333333333336</ele><time>2026-03-22T07:54:38Z</time></trkpt><trkpt lat="44.95648127801256" lon="9.98380229376804"><ele>45.0</ele><time>2026-03-22T07:54:39Z</time></trkpt><trkpt lat="44.95641175660577" lon="9.983736869779765"><ele>44.666666666666664</ele><time>2026-03-22T07:54:40Z</time></trkpt><trkpt lat="44.95634193664417" lon="9.983673670341677"><ele>44.33333333333333</ele><time>2026-03-22T07:54:41Z</time></trkpt><trkpt lat="44.95627275695663" lon="9.98361473313236"><ele>44.0</ele><time>2026-03-22T07:54:42Z</time></trkpt><trkpt lat="44.956202567601196" lon="9.98355332056804"><ele>44.0</ele><time>2026-03-22T07:54:43Z</time></trkpt><trkpt lat="44.956131907435186" lon="9.983492427828596"><ele>44.0</ele><time>2026-03-22T07:54:44Z</time></trkpt><trkpt lat="44.95606318689273" lon="9.98343179229411"><ele>44.0</ele><time>2026-03-22T07:54:45Z</time></trkpt><trkpt lat="44.9559935534916" lon="9.98337024328402"><ele>44.0</ele><time>2026-03-22T07:54:46Z</time></trkpt><trkpt lat="44.95592438558964" lon="9.983312711261648"><ele>44.0</ele><time>2026-03-22T07:54:47Z</time></trkpt><trkpt lat="44.955853692059854" lon="9.983255013418741"><ele>44.0</ele><time>2026-03-22T07:54:48Z</time></trkpt><trkpt lat="44.95578504846576" lon="9.983196615260848"><ele>44.166666666666664</ele><time>2026-03-22T07:54:49Z</time></trkpt><trkpt lat="44.95571589864844" lon="9.983140097719048"><ele>44.33333333333333</ele><time>2026-03-22T07:54:50Z</time></trkpt><trkpt lat="44.9556471732252" lon="9.98308209293142"><ele>44.5</ele><time>2026-03-22T07:54:51Z</time></trkpt><trkpt lat="44.955577176114055" lon="9.983021430427222"><ele>44.666666666666664</ele><time>2026-03-22T07:54:52Z</time></trkpt><trkpt lat="44.95550781580668" lon="9.982959033846068"><ele>44.833333333333336</ele><time>2026-03-22T07:54:53Z</time></trkpt><trkpt lat="44.955438116206814" lon="9.9828989168483"><ele>45.0</ele><time>2026-03-22T07:54:54Z</time></trkpt><trkpt lat="44.95536705091991" lon="9.982842262920833"><ele>45.0</ele><time>2026-03-22T07:54:55Z</time></trkpt><trkpt lat="44.95529588443312" lon="9.982785056078841"><ele>45.0</ele><time>2026-03-22T07:54:56Z</time></trkpt><trkpt lat="44.95522642662905" lon="9.98272324431064"><ele>45.0</ele><time>2026-03-22T07:54:57Z</time></trkpt><trkpt lat="44.955158935129695" lon="9.982661360417424"><ele>45.0</ele><time>2026-03-22T07:54:58Z</time></trkpt><trkpt lat="44.95508996606978" lon="9.982601982205628"><ele>45.0</ele><time>2026-03-22T07:54:59Z</time></trkpt><trkpt lat="44.95502033186563" lon="9.982543308759096"><ele>45.0</ele><time>2026-03-22T07:55:00Z</time></trkpt><trkpt lat="44.95495027193846" lon="9.982483863456874"><ele>45.333333333333336</ele><time>2026-03-22T07:55:01Z</time></trkpt><trkpt lat="44.95488140913803" lon="9.982423932360389"><ele>45.666666666666664</ele><time>2026-03-22T07:55:02Z</time></trkpt><trkpt lat="44.95480957192678" lon="9.982365008390437"><ele>46.0</ele><time>2026-03-22T07:55:03Z</time></trkpt><trkpt lat="44.95473950680438" lon="9.982305793661553"><ele>46.33333333333333</ele><time>2026-03-22T07:55:04Z</time></trkpt><trkpt lat="44.95466867939779" lon="9.98224651163119"><ele>46.666666666666664</ele><time>2026-03-22T07:55:05Z</time></trkpt><trkpt lat="44.954597527086456" lon="9.98219086597648"><ele>47.0</ele><time>2026-03-22T07:55:06Z</time></trkpt><trkpt lat="44.95452612549808" lon="9.98213261786291"><ele>47.0</ele><time>2026-03-22T07:55:06.999Z</time></trkpt><trkpt lat="44.954455630916996" lon="9.982075571778209"><ele>47.0</ele><time>2026-03-22T07:55:07.999Z</time></trkpt><trkpt lat="44.95438506849692" lon="9.98202265292122"><ele>47.0</ele><time>2026-03-22T07:55:08.999Z</time></trkpt><trkpt lat="44.95431677702593" lon="9.981966294935226"><ele>47.0</ele><time>2026-03-22T07:55:09.999Z</time></trkpt><trkpt lat="44.95424612746117" lon="9.981914605740885"><ele>47.0</ele><time>2026-03-22T07:55:10.999Z</time></trkpt><trkpt lat="44.9541762025962" lon="9.981861202906128"><ele>47.0</ele><time>2026-03-22T07:55:11.999Z</time></trkpt><trkpt lat="44.95410494186394" lon="9.981807647300785"><ele>47.166666666666664</ele><time>2026-03-22T07:55:12.999Z</time></trkpt><trkpt lat="44.95403550907198" lon="9.981754697103511"><ele>47.33333333333333</ele><time>2026-03-22T07:55:13.999Z</time></trkpt><trkpt lat="44.95396352948492" lon="9.981703982647124"><ele>47.5</ele><time>2026-03-22T07:55:14.999Z</time></trkpt><trkpt lat="44.953893377302236" lon="9.981651714259026"><ele>47.666666666666664</ele><time>2026-03-22T07:55:15.999Z</time></trkpt><trkpt lat="44.95382379636167" lon="9.981600169522718"><ele>47.833333333333336</ele><time>2026-03-22T07:55:16.999Z</time></trkpt><trkpt lat="44.953755085289096" lon="9.981544522612646"><ele>48.0</ele><time>2026-03-22T07:55:17.999Z</time></trkpt><trkpt lat="44.9536848615982" lon="9.981490576545017"><ele>47.666666666666664</ele><time>2026-03-22T07:55:18.999Z</time></trkpt><trkpt lat="44.953615487825175" lon="9.981436925421386"><ele>47.333333333333336</ele><time>2026-03-22T07:55:19.999Z</time></trkpt><trkpt lat="44.953544767522196" lon="9.981383990200777"><ele>47.0</ele><time>2026-03-22T07:55:20.999Z</time></trkpt><trkpt lat="44.9534749216594" lon="9.981327970934796"><ele>46.66666666666667</ele><time>2026-03-22T07:55:21.999Z</time></trkpt><trkpt lat="44.95340397626897" lon="9.981275585601985"><ele>46.333333333333336</ele><time>2026-03-22T07:55:22.999Z</time></trkpt><trkpt lat="44.95333331728785" lon="9.98122123952711"><ele>46.0</ele><time>2026-03-22T07:55:23.999Z</time></trkpt><trkpt lat="44.953264569572355" lon="9.981168414438043"><ele>46.0</ele><time>2026-03-22T07:55:24.999Z</time></trkpt><trkpt lat="44.953196176915505" lon="9.98111448400331"><ele>46.0</ele><time>2026-03-22T07:55:25.999Z</time></trkpt><trkpt lat="44.95312622258541" lon="9.981058354742771"><ele>46.0</ele><time>2026-03-22T07:55:26.999Z</time></trkpt><trkpt lat="44.95305793923785" lon="9.981001506019632"><ele>46.0</ele><time>2026-03-22T07:55:27.999Z</time></trkpt><trkpt lat="44.95299019410582" lon="9.980946340828424"><ele>46.0</ele><time>2026-03-22T07:55:28.999Z</time></trkpt><trkpt lat="44.95292016597439" lon="9.980889694053843"><ele>46.0</ele><time>2026-03-22T07:55:29.999Z</time></trkpt><trkpt lat="44.95285171472396" lon="9.980839764641148"><ele>46.0</ele><time>2026-03-22T07:55:30.999Z</time></trkpt><trkpt lat="44.95278196458273" lon="9.980786049939816"><ele>46.0</ele><time>2026-03-22T07:55:31.999Z</time></trkpt><trkpt lat="44.95271228377605" lon="9.980730668237427"><ele>46.0</ele><time>2026-03-22T07:55:32.999Z</time></trkpt><trkpt lat="44.95264306110308" lon="9.980674748335344"><ele>46.0</ele><time>2026-03-22T07:55:33.999Z</time></trkpt><trkpt lat="44.952574896653275" lon="9.980619063186225"><ele>46.0</ele><time>2026-03-22T07:55:34.999Z</time></trkpt><trkpt lat="44.95250608877176" lon="9.980563690073804"><ele>46.0</ele><time>2026-03-22T07:55:35.999Z</time></trkpt><trkpt lat="44.952437719232755" lon="9.9805075576585"><ele>46.16666666666667</ele><time>2026-03-22T07:55:36.999Z</time></trkpt><trkpt lat="44.95236944422701" lon="9.980453464933616"><ele>46.333333333333336</ele><time>2026-03-22T07:55:37.999Z</time></trkpt><trkpt lat="44.952299646562935" lon="9.980401185402636"><ele>46.5</ele><time>2026-03-22T07:55:38.999Z</time></trkpt><trkpt lat="44.95223044842527" lon="9.980347161047236"><ele>46.666666666666664</ele><time>2026-03-22T07:55:39.999Z</time></trkpt><trkpt lat="44.95216109361467" lon="9.980290870925366"><ele>46.83333333333333</ele><time>2026-03-22T07:55:40.999Z</time></trkpt><trkpt lat="44.95209121397707" lon="9.980234621835228"><ele>47.0</ele><time>2026-03-22T07:55:41.999Z</time></trkpt><trkpt lat="44.95202095512368" lon="9.980180281923893"><ele>47.0</ele><time>2026-03-22T07:55:42.999Z</time></trkpt><trkpt lat="44.95194890309475" lon="9.980123705094604"><ele>47.0</ele><time>2026-03-22T07:55:43.999Z</time></trkpt><trkpt lat="44.95187824777405" lon="9.98006756206483"><ele>47.0</ele><time>2026-03-22T07:55:44.999Z</time></trkpt><trkpt lat="44.951807110287525" lon="9.980011061277526"><ele>47.0</ele><time>2026-03-22T07:55:45.999Z</time></trkpt><trkpt lat="44.95173573008391" lon="9.979955625940907"><ele>47.0</ele><time>2026-03-22T07:55:46.999Z</time></trkpt><trkpt lat="44.951666298687776" lon="9.979898332252706"><ele>47.0</ele><time>2026-03-22T07:55:47.999Z</time></trkpt><trkpt lat="44.95159711979203" lon="9.979842991001973"><ele>46.83333333333333</ele><time>2026-03-22T07:55:48.999Z</time></trkpt><trkpt lat="44.95152773549565" lon="9.979787590973602"><ele>46.666666666666664</ele><time>2026-03-22T07:55:49.999Z</time></trkpt><trkpt lat="44.95145681547753" lon="9.97973884031282"><ele>46.5</ele><time>2026-03-22T07:55:50.999Z</time></trkpt><trkpt lat="44.95138721638666" lon="9.97968946062635"><ele>46.333333333333336</ele><time>2026-03-22T07:55:51.999Z</time></trkpt><trkpt lat="44.951315778908175" lon="9.979647263876505"><ele>46.16666666666667</ele><time>2026-03-22T07:55:52.999Z</time></trkpt><trkpt lat="44.951242285991256" lon="9.979609929994227"><ele>46.0</ele><time>2026-03-22T07:55:53.999Z</time></trkpt><trkpt lat="44.9511663865122" lon="9.979584129289753"><ele>46.0</ele><time>2026-03-22T07:55:54.999Z</time></trkpt><trkpt lat="44.951087925454935" lon="9.979568202100124"><ele>46.0</ele><time>2026-03-22T07:55:55.999Z</time></trkpt><trkpt lat="44.95100816776496" lon="9.979557901673097"><ele>46.0</ele><time>2026-03-22T07:55:56.999Z</time></trkpt><trkpt lat="44.950928959777265" lon="9.979554849274065"><ele>46.0</ele><time>2026-03-22T07:55:57.999Z</time></trkpt><trkpt lat="44.95084686913527" lon="9.979553330361396"><ele>46.0</ele><time>2026-03-22T07:55:58.999Z</time></trkpt><trkpt lat="44.95076821133427" lon="9.979551429171806"><ele>46.0</ele><time>2026-03-22T07:55:59.999Z</time></trkpt><trkpt lat="44.95068777136046" lon="9.979549951935597"><ele>45.66666666666667</ele><time>2026-03-22T07:56:00.999Z</time></trkpt><trkpt lat="44.95060997263507" lon="9.97954945450844"><ele>45.333333333333336</ele><time>2026-03-22T07:56:01.999Z</time></trkpt><trkpt lat="44.9505304437209" lon="9.979547962373891"><ele>45.0</ele><time>2026-03-22T07:56:02.999Z</time></trkpt><trkpt lat="44.950453140548" lon="9.979549666611929"><ele>44.666666666666664</ele><time>2026-03-22T07:56:04Z</time></trkpt><trkpt lat="44.95037271802285" lon="9.979547675942904"><ele>44.33333333333333</ele><time>2026-03-22T07:56:05Z</time></trkpt><trkpt lat="44.950293748378066" lon="9.979547171714298"><ele>44.0</ele><time>2026-03-22T07:56:06Z</time></trkpt><trkpt lat="44.950213915137326" lon="9.979544659547624"><ele>44.0</ele><time>2026-03-22T07:56:07Z</time></trkpt><trkpt lat="44.95013395772252" lon="9.979544005772109"><ele>44.0</ele><time>2026-03-22T07:56:08Z</time></trkpt><trkpt lat="44.950055247795056" lon="9.979542987703567"><ele>44.0</ele><time>2026-03-22T07:56:09Z</time></trkpt><trkpt lat="44.949976749921184" lon="9.979544271332458"><ele>44.0</ele><time>2026-03-22T07:56:10Z</time></trkpt><trkpt lat="44.949896080639284" lon="9.979541734805103"><ele>44.0</ele><time>2026-03-22T07:56:11Z</time></trkpt><trkpt lat="44.94981774986208" lon="9.979542272025768"><ele>44.0</ele><time>2026-03-22T07:56:12Z</time></trkpt><trkpt lat="44.94973832033357" lon="9.97954072103291"><ele>44.166666666666664</ele><time>2026-03-22T07:56:13Z</time></trkpt><trkpt lat="44.949658549862136" lon="9.979539191456059"><ele>44.33333333333333</ele><time>2026-03-22T07:56:14Z</time></trkpt><trkpt lat="44.94957929427954" lon="9.979540316888098"><ele>44.5</ele><time>2026-03-22T07:56:15Z</time></trkpt><trkpt lat="44.94950109042742" lon="9.979536272175798"><ele>44.666666666666664</ele><time>2026-03-22T07:56:16Z</time></trkpt><trkpt lat="44.949422176800496" lon="9.979532558291043"><ele>44.833333333333336</ele><time>2026-03-22T07:56:17Z</time></trkpt><trkpt lat="44.949344364021876" lon="9.979534654211491"><ele>45.0</ele><time>2026-03-22T07:56:18Z</time></trkpt><trkpt lat="44.94926850000228" lon="9.979537062977856"><ele>45.166666666666664</ele><time>2026-03-22T07:56:19Z</time></trkpt><trkpt lat="44.949192438863065" lon="9.97953617994961"><ele>45.333333333333336</ele><time>2026-03-22T07:56:20Z</time></trkpt><trkpt lat="44.94911676653067" lon="9.979530082286795"><ele>45.5</ele><time>2026-03-22T07:56:21Z</time></trkpt><trkpt lat="44.949040247478976" lon="9.979527708780072"><ele>45.66666666666667</ele><time>2026-03-22T07:56:22Z</time></trkpt><trkpt lat="44.948963694858044" lon="9.979525044758931"><ele>45.833333333333336</ele><time>2026-03-22T07:56:23Z</time></trkpt><trkpt lat="44.94888540758058" lon="9.979510763341775"><ele>46.0</ele><time>2026-03-22T07:56:24Z</time></trkpt><trkpt lat="44.94880879839697" lon="9.979492745554586"><ele>46.0</ele><time>2026-03-22T07:56:25Z</time></trkpt><trkpt lat="44.94873481430054" lon="9.979460178049152"><ele>46.0</ele><time>2026-03-22T07:56:26Z</time></trkpt><trkpt lat="44.94866051194974" lon="9.979423654610214"><ele>46.0</ele><time>2026-03-22T07:56:27Z</time></trkpt><trkpt lat="44.94858602815623" lon="9.979381673496666"><ele>46.0</ele><time>2026-03-22T07:56:28Z</time></trkpt><trkpt lat="44.948512064569144" lon="9.979340579997787"><ele>46.0</ele><time>2026-03-22T07:56:29Z</time></trkpt><trkpt lat="44.948438662993595" lon="9.979301797597738"><ele>46.0</ele><time>2026-03-22T07:56:30Z</time></trkpt><trkpt lat="44.94836563832867" lon="9.979258221075774"><ele>46.16666666666667</ele><time>2026-03-22T07:56:31Z</time></trkpt><trkpt lat="44.948293111812845" lon="9.97922154257379"><ele>46.333333333333336</ele><time>2026-03-22T07:56:32Z</time></trkpt><trkpt lat="44.94822033650448" lon="9.979177147221991"><ele>46.5</ele><time>2026-03-22T07:56:33Z</time></trkpt><trkpt lat="44.94814616822481" lon="9.979138562337946"><ele>46.666666666666664</ele><time>2026-03-22T07:56:34Z</time></trkpt><trkpt lat="44.948072897403044" lon="9.979097009779776"><ele>46.83333333333333</ele><time>2026-03-22T07:56:35Z</time></trkpt><trkpt lat="44.947997451589984" lon="9.979055875092635"><ele>47.0</ele><time>2026-03-22T07:56:36Z</time></trkpt><trkpt lat="44.94792151628615" lon="9.979015263220854"><ele>47.166666666666664</ele><time>2026-03-22T07:56:37Z</time></trkpt><trkpt lat="44.947844956704294" lon="9.978979003722852"><ele>47.33333333333333</ele><time>2026-03-22T07:56:38Z</time></trkpt><trkpt lat="44.947769803033346" lon="9.978939645864276"><ele>47.5</ele><time>2026-03-22T07:56:39Z</time></trkpt><trkpt lat="44.94769416530979" lon="9.978900714453347"><ele>47.666666666666664</ele><time>2026-03-22T07:56:40Z</time></trkpt><trkpt lat="44.94761657830817" lon="9.978858967726232"><ele>47.833333333333336</ele><time>2026-03-22T07:56:41Z</time></trkpt><trkpt lat="44.94754166780043" lon="9.978816669975858"><ele>48.0</ele><time>2026-03-22T07:56:42Z</time></trkpt><trkpt lat="44.94746633956665" lon="9.978777788025658"><ele>48.0</ele><time>2026-03-22T07:56:43Z</time></trkpt><trkpt lat="44.94739053872755" lon="9.978739708627165"><ele>48.0</ele><time>2026-03-22T07:56:44Z</time></trkpt><trkpt lat="44.94731479802139" lon="9.97869788143269"><ele>48.0</ele><time>2026-03-22T07:56:45Z</time></trkpt><trkpt lat="44.94723861751046" lon="9.978655506750568"><ele>48.0</ele><time>2026-03-22T07:56:46Z</time></trkpt><trkpt lat="44.947162334226796" lon="9.978617314746897"><ele>48.0</ele><time>2026-03-22T07:56:47Z</time></trkpt><trkpt lat="44.94708695399176" lon="9.978578954161213"><ele>48.0</ele><time>2026-03-22T07:56:48Z</time></trkpt><trkpt lat="44.94701261306851" lon="9.97853777657913"><ele>48.0</ele><time>2026-03-22T07:56:49Z</time></trkpt><trkpt lat="44.94693748482747" lon="9.97849742650504"><ele>48.0</ele><time>2026-03-22T07:56:50Z</time></trkpt><trkpt lat="44.946862503089484" lon="9.9784563907435"><ele>48.0</ele><time>2026-03-22T07:56:51Z</time></trkpt><trkpt lat="44.94678747681091" lon="9.978414484125606"><ele>48.0</ele><time>2026-03-22T07:56:52Z</time></trkpt><trkpt lat="44.94671256922291" lon="9.978378561513852"><ele>48.0</ele><time>2026-03-22T07:56:53Z</time></trkpt><trkpt lat="44.94663740128106" lon="9.978338387924515"><ele>48.0</ele><time>2026-03-22T07:56:54Z</time></trkpt><trkpt lat="44.94656284430478" lon="9.97830158827566"><ele>48.0</ele><time>2026-03-22T07:56:55Z</time></trkpt><trkpt lat="44.9464879129898" lon="9.97825931139055"><ele>48.0</ele><time>2026-03-22T07:56:56Z</time></trkpt><trkpt lat="44.946413432886025" lon="9.978218546195507"><ele>48.0</ele><time>2026-03-22T07:56:57Z</time></trkpt><trkpt lat="44.94633747805956" lon="9.97817789654745"><ele>48.0</ele><time>2026-03-22T07:56:58Z</time></trkpt><trkpt lat="44.94626254083323" lon="9.97813836031227"><ele>48.0</ele><time>2026-03-22T07:56:59Z</time></trkpt><trkpt lat="44.94618764803468" lon="9.978099950715993"><ele>48.0</ele><time>2026-03-22T07:57:00Z</time></trkpt><trkpt lat="44.94611373887648" lon="9.978061786813937"><ele>48.0</ele><time>2026-03-22T07:57:01Z</time></trkpt><trkpt lat="44.94604054309894" lon="9.978021180147852"><ele>48.0</ele><time>2026-03-22T07:57:02Z</time></trkpt><trkpt lat="44.945965531338345" lon="9.9779804230011"><ele>48.0</ele><time>2026-03-22T07:57:03Z</time></trkpt><trkpt lat="44.9458903122988" lon="9.977940953174363"><ele>48.0</ele><time>2026-03-22T07:57:04Z</time></trkpt><trkpt lat="44.945815594449726" lon="9.97790097270817"><ele>48.0</ele><time>2026-03-22T07:57:05Z</time></trkpt><trkpt lat="44.945740425836085" lon="9.97786211665584"><ele>48.0</ele><time>2026-03-22T07:57:06Z</time></trkpt><trkpt lat="44.94566488731997" lon="9.977819725965208"><ele>48.333333333333336</ele><time>2026-03-22T07:57:07Z</time></trkpt><trkpt lat="44.945588799163495" lon="9.977779422177669"><ele>48.66666666666667</ele><time>2026-03-22T07:57:08Z</time></trkpt><trkpt lat="44.94551325180192" lon="9.977741695377137"><ele>49.0</ele><time>2026-03-22T07:57:09Z</time></trkpt><trkpt lat="44.945436156230755" lon="9.977700128852986"><ele>49.333333333333336</ele><time>2026-03-22T07:57:10Z</time></trkpt><trkpt lat="44.94536044461878" lon="9.977659603472874"><ele>49.66666666666667</ele><time>2026-03-22T07:57:10.999Z</time></trkpt><trkpt lat="44.94528527982397" lon="9.977621123150533"><ele>50.0</ele><time>2026-03-22T07:57:11.999Z</time></trkpt><trkpt lat="44.94521066403504" lon="9.977580691719037"><ele>50.00000000000001</ele><time>2026-03-22T07:57:12.999Z</time></trkpt><trkpt lat="44.94513507992277" lon="9.977538732829295"><ele>50.0</ele><time>2026-03-22T07:57:13.999Z</time></trkpt><trkpt lat="44.945059853886704" lon="9.977499616937171"><ele>50.0</ele><time>2026-03-22T07:57:14.999Z</time></trkpt><trkpt lat="44.944984799922494" lon="9.977459806888847"><ele>50.0</ele><time>2026-03-22T07:57:15.999Z</time></trkpt><trkpt lat="44.94491008738481" lon="9.977420258652508"><ele>50.00000000000001</ele><time>2026-03-22T07:57:16.999Z</time></trkpt><trkpt lat="44.944835255536375" lon="9.977380272087219"><ele>50.0</ele><time>2026-03-22T07:57:17.999Z</time></trkpt><trkpt lat="44.944760008532896" lon="9.977339737460936"><ele>50.00000000000001</ele><time>2026-03-22T07:57:18.999Z</time></trkpt><trkpt lat="44.94468649808299" lon="9.977304337760533"><ele>50.0</ele><time>2026-03-22T07:57:19.999Z</time></trkpt><trkpt lat="44.94461184795511" lon="9.977267289243654"><ele>50.0</ele><time>2026-03-22T07:57:20.999Z</time></trkpt><trkpt lat="44.94453831568836" lon="9.97723341239938"><ele>50.0</ele><time>2026-03-22T07:57:21.999Z</time></trkpt><trkpt lat="44.94446446843393" lon="9.977193845587486"><ele>50.00000000000001</ele><time>2026-03-22T07:57:22.999Z</time></trkpt><trkpt lat="44.944390546376006" lon="9.97715230130042"><ele>50.0</ele><time>2026-03-22T07:57:23.999Z</time></trkpt><trkpt lat="44.94431660872963" lon="9.977112204471338"><ele>50.00000000000001</ele><time>2026-03-22T07:57:24.999Z</time></trkpt><trkpt lat="44.94424098034441" lon="9.977075215447101"><ele>50.0</ele><time>2026-03-22T07:57:25.999Z</time></trkpt><trkpt lat="44.94416526679703" lon="9.97703539883301"><ele>50.0</ele><time>2026-03-22T07:57:26.999Z</time></trkpt><trkpt lat="44.94409002592426" lon="9.97699591409761"><ele>50.0</ele><time>2026-03-22T07:57:27.999Z</time></trkpt><trkpt lat="44.94401457378393" lon="9.97695302500204"><ele>50.00000000000001</ele><time>2026-03-22T07:57:28.999Z</time></trkpt><trkpt lat="44.94393973635519" lon="9.976915149688724"><ele>50.0</ele><time>2026-03-22T07:57:29.999Z</time></trkpt><trkpt lat="44.94386511421525" lon="9.976874890849361"><ele>50.00000000000001</ele><time>2026-03-22T07:57:30.999Z</time></trkpt><trkpt lat="44.943791095028296" lon="9.976835550686493"><ele>50.0</ele><time>2026-03-22T07:57:31.999Z</time></trkpt><trkpt lat="44.943717432199854" lon="9.976796461213118"><ele>50.0</ele><time>2026-03-22T07:57:32.999Z</time></trkpt><trkpt lat="44.94364183008988" lon="9.976759229488772"><ele>50.0</ele><time>2026-03-22T07:57:33.999Z</time></trkpt><trkpt lat="44.943568528570324" lon="9.97672197571492"><ele>50.00000000000001</ele><time>2026-03-22T07:57:34.999Z</time></trkpt><trkpt lat="44.94349591253952" lon="9.976683081521358"><ele>50.0</ele><time>2026-03-22T07:57:35.999Z</time></trkpt><trkpt lat="44.94342327936565" lon="9.976643420550575"><ele>49.50000000000001</ele><time>2026-03-22T07:57:36.999Z</time></trkpt><trkpt lat="44.94334875625872" lon="9.976605165418292"><ele>49.0</ele><time>2026-03-22T07:57:37.999Z</time></trkpt><trkpt lat="44.9432770555917" lon="9.976566993028703"><ele>48.5</ele><time>2026-03-22T07:57:38.999Z</time></trkpt><trkpt lat="44.94320296514809" lon="9.976526006854701"><ele>48.0</ele><time>2026-03-22T07:57:39.999Z</time></trkpt><trkpt lat="44.94313014450409" lon="9.976489076407177"><ele>47.5</ele><time>2026-03-22T07:57:40.999Z</time></trkpt><trkpt lat="44.943057601306485" lon="9.97645190185572"><ele>47.0</ele><time>2026-03-22T07:57:41.999Z</time></trkpt><trkpt lat="44.942984923238534" lon="9.97641177652046"><ele>47.0</ele><time>2026-03-22T07:57:42.999Z</time></trkpt><trkpt lat="44.94291247448472" lon="9.976373641459558"><ele>47.0</ele><time>2026-03-22T07:57:43.999Z</time></trkpt><trkpt lat="44.94283965028472" lon="9.976336582594696"><ele>47.0</ele><time>2026-03-22T07:57:44.999Z</time></trkpt><trkpt lat="44.94276713300547" lon="9.976298383818126"><ele>47.0</ele><time>2026-03-22T07:57:45.999Z</time></trkpt><trkpt lat="44.942693483309974" lon="9.976259064310652"><ele>47.0</ele><time>2026-03-22T07:57:46.999Z</time></trkpt><trkpt lat="44.9426197544945" lon="9.976221750873066"><ele>47.0</ele><time>2026-03-22T07:57:47.999Z</time></trkpt><trkpt lat="44.94254672511872" lon="9.97618187511193"><ele>46.83333333333333</ele><time>2026-03-22T07:57:48.999Z</time></trkpt><trkpt lat="44.942472256407584" lon="9.976143386173739"><ele>46.666666666666664</ele><time>2026-03-22T07:57:49.999Z</time></trkpt><trkpt lat="44.94239837558486" lon="9.976106354737235"><ele>46.5</ele><time>2026-03-22T07:57:50.999Z</time></trkpt><trkpt lat="44.94232319476843" lon="9.976064143266951"><ele>46.333333333333336</ele><time>2026-03-22T07:57:51.999Z</time></trkpt><trkpt lat="44.94224845893741" lon="9.97602760105091"><ele>46.16666666666667</ele><time>2026-03-22T07:57:52.999Z</time></trkpt><trkpt lat="44.94217252369788" lon="9.975985159557235"><ele>46.0</ele><time>2026-03-22T07:57:53.999Z</time></trkpt><trkpt lat="44.94209655423374" lon="9.97594600124046"><ele>46.0</ele><time>2026-03-22T07:57:54.999Z</time></trkpt><trkpt lat="44.94202178265421" lon="9.97590551125199"><ele>46.0</ele><time>2026-03-22T07:57:55.999Z</time></trkpt><trkpt lat="44.941945859251504" lon="9.975864661229656"><ele>46.0</ele><time>2026-03-22T07:57:56.999Z</time></trkpt><trkpt lat="44.941870184439146" lon="9.975825700342291"><ele>46.0</ele><time>2026-03-22T07:57:57.999Z</time></trkpt><trkpt lat="44.94179348452637" lon="9.975785295721286"><ele>46.0</ele><time>2026-03-22T07:57:58.999Z</time></trkpt><trkpt lat="44.94171745972651" lon="9.975742348392084"><ele>46.0</ele><time>2026-03-22T07:57:59.999Z</time></trkpt><trkpt lat="44.94164164138839" lon="9.975702402014084"><ele>45.833333333333336</ele><time>2026-03-22T07:58:00.999Z</time></trkpt><trkpt lat="44.94156662965462" lon="9.975663058715394"><ele>45.66666666666667</ele><time>2026-03-22T07:58:01.999Z</time></trkpt><trkpt lat="44.94149184040826" lon="9.975622467953633"><ele>45.5</ele><time>2026-03-22T07:58:02.999Z</time></trkpt><trkpt lat="44.941417186055475" lon="9.975583872630452"><ele>45.333333333333336</ele><time>2026-03-22T07:58:03.999Z</time></trkpt><trkpt lat="44.94134389893404" lon="9.975546203432575"><ele>45.166666666666664</ele><time>2026-03-22T07:58:04.999Z</time></trkpt><trkpt lat="44.94127088386879" lon="9.975506038813949"><ele>45.0</ele><time>2026-03-22T07:58:05.999Z</time></trkpt><trkpt lat="44.941196038816486" lon="9.97546795346716"><ele>45.0</ele><time>2026-03-22T07:58:06.999Z</time></trkpt><trkpt lat="44.94112194550877" lon="9.97542985608197"><ele>45.0</ele><time>2026-03-22T07:58:07.998Z</time></trkpt><trkpt lat="44.941046219464845" lon="9.975390380952122"><ele>45.0</ele><time>2026-03-22T07:58:08.998Z</time></trkpt><trkpt lat="44.94097197792879" lon="9.975351304037437"><ele>45.0</ele><time>2026-03-22T07:58:10Z</time></trkpt><trkpt lat="44.94089811686853" lon="9.975309135861771"><ele>45.0</ele><time>2026-03-22T07:58:11Z</time></trkpt><trkpt lat="44.94082443676074" lon="9.97527291531767"><ele>45.0</ele><time>2026-03-22T07:58:12Z</time></trkpt><trkpt lat="44.94075159036325" lon="9.975234727454321"><ele>45.5</ele><time>2026-03-22T07:58:13Z</time></trkpt><trkpt lat="44.940676576455715" lon="9.975195266157574"><ele>46.0</ele><time>2026-03-22T07:58:14Z</time></trkpt><trkpt lat="44.94060283177975" lon="9.975157523989935"><ele>46.5</ele><time>2026-03-22T07:58:15Z</time></trkpt><trkpt lat="44.94052712825571" lon="9.97511700744991"><ele>47.0</ele><time>2026-03-22T07:58:16Z</time></trkpt><trkpt lat="44.940452691948806" lon="9.975078611188335"><ele>47.5</ele><time>2026-03-22T07:58:17Z</time></trkpt><trkpt lat="44.9403785163094" lon="9.97503910110773"><ele>48.0</ele><time>2026-03-22T07:58:18Z</time></trkpt><trkpt lat="44.94030651519824" lon="9.975001418918948"><ele>48.0</ele><time>2026-03-22T07:58:19Z</time></trkpt><trkpt lat="44.940233948441886" lon="9.974963237394658"><ele>48.0</ele><time>2026-03-22T07:58:20Z</time></trkpt><trkpt lat="44.94016004632804" lon="9.974924495547498"><ele>48.0</ele><time>2026-03-22T07:58:21Z</time></trkpt><trkpt lat="44.940087241061285" lon="9.974888957827183"><ele>48.0</ele><time>2026-03-22T07:58:22Z</time></trkpt><trkpt lat="44.94001199445473" lon="9.97485119132984"><ele>48.0</ele><time>2026-03-22T07:58:23Z</time></trkpt><trkpt lat="44.93993726855638" lon="9.974818908310919"><ele>48.0</ele><time>2026-03-22T07:58:24Z</time></trkpt><trkpt lat="44.939865021402625" lon="9.97478239578803"><ele>47.833333333333336</ele><time>2026-03-22T07:58:25Z</time></trkpt><trkpt lat="44.939791207039676" lon="9.974740830937396"><ele>47.666666666666664</ele><time>2026-03-22T07:58:26Z</time></trkpt><trkpt lat="44.93971658980239" lon="9.974705005398981"><ele>47.5</ele><time>2026-03-22T07:58:27Z</time></trkpt><trkpt lat="44.93964298484582" lon="9.974669112247446"><ele>47.33333333333333</ele><time>2026-03-22T07:58:28Z</time></trkpt><trkpt lat="44.939568376494734" lon="9.974631650795159"><ele>47.166666666666664</ele><time>2026-03-22T07:58:29Z</time></trkpt><trkpt lat="44.939494045124796" lon="9.974595157320847"><ele>47.0</ele><time>2026-03-22T07:58:30Z</time></trkpt><trkpt lat="44.9394211367611" lon="9.974558932898448"><ele>47.0</ele><time>2026-03-22T07:58:31Z</time></trkpt><trkpt lat="44.93934708524903" lon="9.974522576531735"><ele>47.0</ele><time>2026-03-22T07:58:32Z</time></trkpt><trkpt lat="44.93927337948977" lon="9.974488953864066"><ele>47.0</ele><time>2026-03-22T07:58:33Z</time></trkpt><trkpt lat="44.93919960214124" lon="9.974450653793692"><ele>47.0</ele><time>2026-03-22T07:58:34Z</time></trkpt><trkpt lat="44.93912565453323" lon="9.974414424639432"><ele>47.0</ele><time>2026-03-22T07:58:35Z</time></trkpt><trkpt lat="44.939051609940385" lon="9.974381403019992"><ele>47.0</ele><time>2026-03-22T07:58:36Z</time></trkpt><trkpt lat="44.93897542748134" lon="9.974343628897454"><ele>47.166666666666664</ele><time>2026-03-22T07:58:37Z</time></trkpt><trkpt lat="44.93890159892857" lon="9.974307656280905"><ele>47.33333333333333</ele><time>2026-03-22T07:58:38Z</time></trkpt><trkpt lat="44.93882785171916" lon="9.974270113401612"><ele>47.5</ele><time>2026-03-22T07:58:39Z</time></trkpt><trkpt lat="44.93875516024486" lon="9.974230130814119"><ele>47.666666666666664</ele><time>2026-03-22T07:58:40Z</time></trkpt><trkpt lat="44.93868075024954" lon="9.974191745528339"><ele>47.833333333333336</ele><time>2026-03-22T07:58:41Z</time></trkpt><trkpt lat="44.93860654310802" lon="9.974152162843557"><ele>48.0</ele><time>2026-03-22T07:58:42Z</time></trkpt><trkpt lat="44.93853265309365" lon="9.974113038353005"><ele>48.0</ele><time>2026-03-22T07:58:43Z</time></trkpt><trkpt lat="44.93845956977266" lon="9.97407237379176"><ele>48.0</ele><time>2026-03-22T07:58:44Z</time></trkpt><trkpt lat="44.938385562272956" lon="9.974032387469073"><ele>48.0</ele><time>2026-03-22T07:58:45Z</time></trkpt><trkpt lat="44.93831280469817" lon="9.97399186657107"><ele>48.0</ele><time>2026-03-22T07:58:46Z</time></trkpt><trkpt lat="44.93823946846056" lon="9.973952745930093"><ele>48.0</ele><time>2026-03-22T07:58:47Z</time></trkpt><trkpt lat="44.93816649801407" lon="9.973918863326443"><ele>48.0</ele><time>2026-03-22T07:58:48Z</time></trkpt><trkpt lat="44.938093396575184" lon="9.97387969909134"><ele>48.0</ele><time>2026-03-22T07:58:49Z</time></trkpt><trkpt lat="44.938019654194704" lon="9.973837876178406"><ele>48.0</ele><time>2026-03-22T07:58:50Z</time></trkpt><trkpt lat="44.93794657348632" lon="9.973800664147758"><ele>48.0</ele><time>2026-03-22T07:58:51Z</time></trkpt><trkpt lat="44.93787350181348" lon="9.973754868412799"><ele>48.0</ele><time>2026-03-22T07:58:52Z</time></trkpt><trkpt lat="44.937800526313836" lon="9.973708924434266"><ele>48.0</ele><time>2026-03-22T07:58:53Z</time></trkpt><trkpt lat="44.93772846232146" lon="9.973663218512032"><ele>48.0</ele><time>2026-03-22T07:58:54Z</time></trkpt><trkpt lat="44.93765511344812" lon="9.973619488031488"><ele>48.0</ele><time>2026-03-22T07:58:55Z</time></trkpt><trkpt lat="44.93758514656642" lon="9.973575291207954"><ele>48.0</ele><time>2026-03-22T07:58:56Z</time></trkpt><trkpt lat="44.93751295502404" lon="9.973532000294625"><ele>48.0</ele><time>2026-03-22T07:58:57Z</time></trkpt><trkpt lat="44.93744250081898" lon="9.97348919900837"><ele>48.0</ele><time>2026-03-22T07:58:58Z</time></trkpt><trkpt lat="44.9373729513403" lon="9.973445287661937"><ele>48.0</ele><time>2026-03-22T07:58:59Z</time></trkpt><trkpt lat="44.93730219117245" lon="9.973400702043525"><ele>48.0</ele><time>2026-03-22T07:59:00Z</time></trkpt><trkpt lat="44.93723317292625" lon="9.97335980513607"><ele>47.99999999999999</ele><time>2026-03-22T07:59:01Z</time></trkpt><trkpt lat="44.93716509617166" lon="9.97331816387927"><ele>48.0</ele><time>2026-03-22T07:59:02Z</time></trkpt><trkpt lat="44.937100458829015" lon="9.973278016555945"><ele>48.0</ele><time>2026-03-22T07:59:03Z</time></trkpt><trkpt lat="44.93703375804202" lon="9.973232327164492"><ele>48.0</ele><time>2026-03-22T07:59:04Z</time></trkpt><trkpt lat="44.936968710197476" lon="9.973197024257953"><ele>48.0</ele><time>2026-03-22T07:59:05Z</time></trkpt><trkpt lat="44.93690502728237" lon="9.973150127066242"><ele>47.99999999999999</ele><time>2026-03-22T07:59:06Z</time></trkpt><trkpt lat="44.936840096497164" lon="9.973113777004324"><ele>48.0</ele><time>2026-03-22T07:59:07Z</time></trkpt><trkpt lat="44.936775945126016" lon="9.973070476406864"><ele>47.99999999999999</ele><time>2026-03-22T07:59:08Z</time></trkpt><trkpt lat="44.93671365346684" lon="9.973030850867634"><ele>48.0</ele><time>2026-03-22T07:59:09Z</time></trkpt><trkpt lat="44.936649797433375" lon="9.972992605662741"><ele>48.0</ele><time>2026-03-22T07:59:10Z</time></trkpt><trkpt lat="44.936585648747005" lon="9.972945935771557"><ele>48.0</ele><time>2026-03-22T07:59:11Z</time></trkpt><trkpt lat="44.93652329644426" lon="9.972908148406637"><ele>48.0</ele><time>2026-03-22T07:59:12Z</time></trkpt><trkpt lat="44.93645904659779" lon="9.972867494902893"><ele>47.99999999999999</ele><time>2026-03-22T07:59:13Z</time></trkpt><trkpt lat="44.93639830152965" lon="9.972827911523789"><ele>48.0</ele><time>2026-03-22T07:59:14Z</time></trkpt><trkpt lat="44.9363338087039" lon="9.97278768028219"><ele>47.99999999999999</ele><time>2026-03-22T07:59:14.999Z</time></trkpt><trkpt lat="44.93627253775757" lon="9.972746547768951"><ele>48.0</ele><time>2026-03-22T07:59:15.999Z</time></trkpt><trkpt lat="44.93621091979596" lon="9.972706023938935"><ele>48.0</ele><time>2026-03-22T07:59:16.999Z</time></trkpt><trkpt lat="44.93615049725239" lon="9.972669290491574"><ele>48.0</ele><time>2026-03-22T07:59:17.999Z</time></trkpt><trkpt lat="44.936092662326715" lon="9.972630025160631"><ele>48.0</ele><time>2026-03-22T07:59:18.999Z</time></trkpt><trkpt lat="44.936028907907435" lon="9.972592560575933"><ele>47.99999999999999</ele><time>2026-03-22T07:59:19.999Z</time></trkpt><trkpt lat="44.93597105796091" lon="9.972552534755419"><ele>48.0</ele><time>2026-03-22T07:59:20.999Z</time></trkpt><trkpt lat="44.93590987205582" lon="9.972512478155585"><ele>47.857142857142854</ele><time>2026-03-22T07:59:21.999Z</time></trkpt><trkpt lat="44.9358496501316" lon="9.972475839615148"><ele>47.714285714285715</ele><time>2026-03-22T07:59:22.999Z</time></trkpt><trkpt lat="44.93578961886007" lon="9.972437027998721"><ele>47.57142857142857</ele><time>2026-03-22T07:59:23.999Z</time></trkpt><trkpt lat="44.9357301285605" lon="9.972396320735585"><ele>47.42857142857143</ele><time>2026-03-22T07:59:24.999Z</time></trkpt><trkpt lat="44.93566807238257" lon="9.972359119634374"><ele>47.285714285714285</ele><time>2026-03-22T07:59:25.999Z</time></trkpt><trkpt lat="44.93560591307702" lon="9.972321889644894"><ele>47.14285714285714</ele><time>2026-03-22T07:59:26.999Z</time></trkpt><trkpt lat="44.9355443780118" lon="9.97228566416022"><ele>47.0</ele><time>2026-03-22T07:59:27.999Z</time></trkpt><trkpt lat="44.935485183168296" lon="9.972251332449732"><ele>47.0</ele><time>2026-03-22T07:59:28.999Z</time></trkpt><trkpt lat="44.935425894226206" lon="9.972215917189711"><ele>47.0</ele><time>2026-03-22T07:59:29.999Z</time></trkpt><trkpt lat="44.93536764535599" lon="9.972173696270831"><ele>47.0</ele><time>2026-03-22T07:59:30.999Z</time></trkpt><trkpt lat="44.935305401897814" lon="9.972144627604761"><ele>47.0</ele><time>2026-03-22T07:59:31.999Z</time></trkpt><trkpt lat="44.93524403830449" lon="9.9721151659246"><ele>47.0</ele><time>2026-03-22T07:59:32.999Z</time></trkpt><trkpt lat="44.935180620564296" lon="9.972087267218736"><ele>47.0</ele><time>2026-03-22T07:59:33.999Z</time></trkpt><trkpt lat="44.935120319705405" lon="9.972057035621724"><ele>47.0</ele><time>2026-03-22T07:59:34.999Z</time></trkpt><trkpt lat="44.93505927977643" lon="9.972029993959517"><ele>47.0</ele><time>2026-03-22T07:59:35.999Z</time></trkpt><trkpt lat="44.93499459394308" lon="9.972002340551118"><ele>47.0</ele><time>2026-03-22T07:59:36.999Z</time></trkpt><trkpt lat="44.93493212369248" lon="9.971976392092893"><ele>47.0</ele><time>2026-03-22T07:59:37.999Z</time></trkpt><trkpt lat="44.93486897023937" lon="9.971952923702414"><ele>47.0</ele><time>2026-03-22T07:59:38.999Z</time></trkpt><trkpt lat="44.93480358102055" lon="9.97192849119827"><ele>47.0</ele><time>2026-03-22T07:59:39.999Z</time></trkpt><trkpt lat="44.93474083499587" lon="9.97190777779081"><ele>47.0</ele><time>2026-03-22T07:59:40.999Z</time></trkpt><trkpt lat="44.93467900768716" lon="9.97188833912652"><ele>47.0</ele><time>2026-03-22T07:59:41.999Z</time></trkpt><trkpt lat="44.934556171477986" lon="9.97185656966257"><ele>47.0</ele><time>2026-03-22T07:59:43.999Z</time></trkpt><trkpt lat="44.93449372377464" lon="9.971843389568653"><ele>47.0</ele><time>2026-03-22T07:59:44.999Z</time></trkpt><trkpt lat="44.93437102282208" lon="9.971817975340366"><ele>47.0</ele><time>2026-03-22T07:59:46.999Z</time></trkpt><trkpt lat="44.934307041594614" lon="9.971804763024968"><ele>47.0</ele><time>2026-03-22T07:59:47.999Z</time></trkpt><trkpt lat="44.93424192717858" lon="9.971795650239264"><ele>47.0</ele><time>2026-03-22T07:59:48.999Z</time></trkpt><trkpt lat="44.9341759461051" lon="9.971785228308814"><ele>47.0</ele><time>2026-03-22T07:59:49.999Z</time></trkpt><trkpt lat="44.93411001313267" lon="9.971779280022119"><ele>47.14285714285714</ele><time>2026-03-22T07:59:50.999Z</time></trkpt><trkpt lat="44.934046876845606" lon="9.971768541000294"><ele>47.285714285714285</ele><time>2026-03-22T07:59:51.999Z</time></trkpt><trkpt lat="44.93398282917182" lon="9.971762615490277"><ele>47.42857142857143</ele><time>2026-03-22T07:59:52.999Z</time></trkpt><trkpt lat="44.933919136087056" lon="9.97175860136887"><ele>47.57142857142857</ele><time>2026-03-22T07:59:53.999Z</time></trkpt><trkpt lat="44.93385118756404" lon="9.971750257089974"><ele>47.714285714285715</ele><time>2026-03-22T07:59:54.999Z</time></trkpt><trkpt lat="44.933782307917895" lon="9.971747171724521"><ele>47.857142857142854</ele><time>2026-03-22T07:59:55.999Z</time></trkpt><trkpt lat="44.93371115734728" lon="9.971738829297278"><ele>48.0</ele><time>2026-03-22T07:59:56.999Z</time></trkpt><trkpt lat="44.93363751980808" lon="9.971732527666008"><ele>48.0</ele><time>2026-03-22T07:59:57.999Z</time></trkpt><trkpt lat="44.933563781475684" lon="9.971725828573692"><ele>48.0</ele><time>2026-03-22T07:59:58.999Z</time></trkpt><trkpt lat="44.933489448365684" lon="9.97171919373585"><ele>48.0</ele><time>2026-03-22T07:59:59.999Z</time></trkpt><trkpt lat="44.93341344716677" lon="9.97171021334833"><ele>48.0</ele><time>2026-03-22T08:00:00.999Z</time></trkpt><trkpt lat="44.93333926117392" lon="9.97170713246666"><ele>48.0</ele><time>2026-03-22T08:00:01.999Z</time></trkpt><trkpt lat="44.93326235141366" lon="9.971700072806438"><ele>48.0</ele><time>2026-03-22T08:00:02.999Z</time></trkpt><trkpt lat="44.93318615186353" lon="9.971689817510917"><ele>48.0</ele><time>2026-03-22T08:00:03.999Z</time></trkpt><trkpt lat="44.933108068546304" lon="9.971681814998304"><ele>48.0</ele><time>2026-03-22T08:00:04.999Z</time></trkpt><trkpt lat="44.93302774078131" lon="9.97167262329446"><ele>48.0</ele><time>2026-03-22T08:00:05.999Z</time></trkpt><trkpt lat="44.93294609389158" lon="9.97166365366618"><ele>48.0</ele><time>2026-03-22T08:00:06.999Z</time></trkpt><trkpt lat="44.93286257010194" lon="9.971657361849411"><ele>48.0</ele><time>2026-03-22T08:00:07.999Z</time></trkpt><trkpt lat="44.932777679269996" lon="9.971647325931844"><ele>48.0</ele><time>2026-03-22T08:00:08.999Z</time></trkpt><trkpt lat="44.93269084623367" lon="9.971640601582276"><ele>48.0</ele><time>2026-03-22T08:00:09.999Z</time></trkpt><trkpt lat="44.932602042692025" lon="9.971629352329076"><ele>48.0</ele><time>2026-03-22T08:00:10.998Z</time></trkpt><trkpt lat="44.93251099116813" lon="9.971620527798168"><ele>48.0</ele><time>2026-03-22T08:00:11.998Z</time></trkpt><trkpt lat="44.932418721285934" lon="9.971611990766448"><ele>48.0</ele><time>2026-03-22T08:00:12.998Z</time></trkpt><trkpt lat="44.932324132162464" lon="9.971601867721095"><ele>48.0</ele><time>2026-03-22T08:00:13.998Z</time></trkpt><trkpt lat="44.932226338263064" lon="9.971590035028742"><ele>48.2</ele><time>2026-03-22T08:00:15Z</time></trkpt><trkpt lat="44.93212970468184" lon="9.971582299203313"><ele>48.4</ele><time>2026-03-22T08:00:16Z</time></trkpt><trkpt lat="44.93202842174599" lon="9.971578127361624"><ele>48.6</ele><time>2026-03-22T08:00:17Z</time></trkpt><trkpt lat="44.93193253627519" lon="9.971567263666499"><ele>48.800000000000004</ele><time>2026-03-22T08:00:18Z</time></trkpt><trkpt lat="44.93183726754228" lon="9.971556797240021"><ele>49.0</ele><time>2026-03-22T08:00:19Z</time></trkpt><trkpt lat="44.931741472552176" lon="9.97154841864787"><ele>49.0</ele><time>2026-03-22T08:00:20Z</time></trkpt><trkpt lat="44.9316466111384" lon="9.971539186116503"><ele>49.0</ele><time>2026-03-22T08:00:21Z</time></trkpt><trkpt lat="44.931553061159235" lon="9.971530812137852"><ele>49.0</ele><time>2026-03-22T08:00:22Z</time></trkpt><trkpt lat="44.931457847451064" lon="9.971524021016453"><ele>49.0</ele><time>2026-03-22T08:00:23Z</time></trkpt><trkpt lat="44.931363679708525" lon="9.971514318187307"><ele>49.0</ele><time>2026-03-22T08:00:24Z</time></trkpt><trkpt lat="44.931270374434455" lon="9.971504941624367"><ele>48.99999999999999</ele><time>2026-03-22T08:00:25Z</time></trkpt><trkpt lat="44.93117859039031" lon="9.971491186708102"><ele>49.0</ele><time>2026-03-22T08:00:26Z</time></trkpt><trkpt lat="44.931088751192135" lon="9.971482417167778"><ele>49.0</ele><time>2026-03-22T08:00:27Z</time></trkpt><trkpt lat="44.93099978366813" lon="9.971471086386957"><ele>49.0</ele><time>2026-03-22T08:00:28Z</time></trkpt><trkpt lat="44.930912816370025" lon="9.971460354599042"><ele>48.99999999999999</ele><time>2026-03-22T08:00:29Z</time></trkpt><trkpt lat="44.93082796494516" lon="9.971450853341329"><ele>49.0</ele><time>2026-03-22T08:00:30Z</time></trkpt><trkpt lat="44.93074596188025" lon="9.971434278938379"><ele>49.166666666666664</ele><time>2026-03-22T08:00:31Z</time></trkpt><trkpt lat="44.9306654588365" lon="9.971420469184283"><ele>49.33333333333333</ele><time>2026-03-22T08:00:32Z</time></trkpt><trkpt lat="44.930586038409494" lon="9.971412533534354"><ele>49.5</ele><time>2026-03-22T08:00:33Z</time></trkpt><trkpt lat="44.93050705767823" lon="9.971397053179345"><ele>49.66666666666667</ele><time>2026-03-22T08:00:34Z</time></trkpt><trkpt lat="44.93042886718227" lon="9.971379901812421"><ele>49.833333333333336</ele><time>2026-03-22T08:00:35Z</time></trkpt><trkpt lat="44.93035184548811" lon="9.97136557292234"><ele>50.0</ele><time>2026-03-22T08:00:36Z</time></trkpt><trkpt lat="44.930274856056805" lon="9.97134985466947"><ele>50.00000000000001</ele><time>2026-03-22T08:00:37Z</time></trkpt><trkpt lat="44.93020052638718" lon="9.971334965464342"><ele>50.0</ele><time>2026-03-22T08:00:38Z</time></trkpt><trkpt lat="44.93012797939777" lon="9.971319984433029"><ele>50.0</ele><time>2026-03-22T08:00:39Z</time></trkpt><trkpt lat="44.9300573995167" lon="9.971303165697096"><ele>50.0</ele><time>2026-03-22T08:00:40Z</time></trkpt><trkpt lat="44.92998928831868" lon="9.971292630614714"><ele>50.0</ele><time>2026-03-22T08:00:41Z</time></trkpt><trkpt lat="44.92992344427496" lon="9.97127956544683"><ele>50.00000000000001</ele><time>2026-03-22T08:00:42Z</time></trkpt><trkpt lat="44.929859937409496" lon="9.97126691876055"><ele>50.0</ele><time>2026-03-22T08:00:43Z</time></trkpt><trkpt lat="44.92979657057759" lon="9.971255138213643"><ele>50.16666666666667</ele><time>2026-03-22T08:00:44Z</time></trkpt><trkpt lat="44.92973186843648" lon="9.971238610387369"><ele>50.333333333333336</ele><time>2026-03-22T08:00:45Z</time></trkpt><trkpt lat="44.92966935341238" lon="9.971223968963919"><ele>50.5</ele><time>2026-03-22T08:00:46Z</time></trkpt><trkpt lat="44.929604643495765" lon="9.971209498327774"><ele>50.66666666666667</ele><time>2026-03-22T08:00:47Z</time></trkpt><trkpt lat="44.929541333924874" lon="9.97119330412707"><ele>50.833333333333336</ele><time>2026-03-22T08:00:48Z</time></trkpt><trkpt lat="44.92941809354441" lon="9.971166178395414"><ele>51.0</ele><time>2026-03-22T08:00:50Z</time></trkpt><trkpt lat="44.929294748576226" lon="9.97114077379051"><ele>51.0</ele><time>2026-03-22T08:00:52Z</time></trkpt><trkpt lat="44.92917462102153" lon="9.971114704935113"><ele>51.0</ele><time>2026-03-22T08:00:54Z</time></trkpt><trkpt lat="44.9290527767072" lon="9.971084659942342"><ele>51.0</ele><time>2026-03-22T08:00:56Z</time></trkpt><trkpt lat="44.92893233660395" lon="9.971059884545562"><ele>51.0</ele><time>2026-03-22T08:00:58Z</time></trkpt><trkpt lat="44.92881594905978" lon="9.971033892216953"><ele>51.0</ele><time>2026-03-22T08:01:00Z</time></trkpt><trkpt lat="44.9286986775246" lon="9.971006310802377"><ele>51.0</ele><time>2026-03-22T08:01:02Z</time></trkpt><trkpt lat="44.928578305300185" lon="9.97097822530133"><ele>51.0</ele><time>2026-03-22T08:01:04Z</time></trkpt><trkpt lat="44.92845852459033" lon="9.97095148854146"><ele>51.0</ele><time>2026-03-22T08:01:06Z</time></trkpt><trkpt lat="44.92834032239364" lon="9.970922801880404"><ele>51.0</ele><time>2026-03-22T08:01:08Z</time></trkpt><trkpt lat="44.92822058447019" lon="9.970898947332877"><ele>51.0</ele><time>2026-03-22T08:01:10Z</time></trkpt><trkpt lat="44.928101436420015" lon="9.970866399279846"><ele>51.0</ele><time>2026-03-22T08:01:12Z</time></trkpt><trkpt lat="44.92798020226158" lon="9.970839045599224"><ele>51.0</ele><time>2026-03-22T08:01:14Z</time></trkpt><trkpt lat="44.927860901114514" lon="9.970813540570322"><ele>51.0</ele><time>2026-03-22T08:01:16Z</time></trkpt><trkpt lat="44.92774081419949" lon="9.97078635570425"><ele>51.0</ele><time>2026-03-22T08:01:17.999Z</time></trkpt><trkpt lat="44.92761939666184" lon="9.970760980027094"><ele>51.0</ele><time>2026-03-22T08:01:19.999Z</time></trkpt><trkpt lat="44.927499439293086" lon="9.970733276775851"><ele>51.0</ele><time>2026-03-22T08:01:21.999Z</time></trkpt><trkpt lat="44.92737885676444" lon="9.970707384758066"><ele>51.0</ele><time>2026-03-22T08:01:23.999Z</time></trkpt><trkpt lat="44.92725824034844" lon="9.970682952176292"><ele>51.0</ele><time>2026-03-22T08:01:25.999Z</time></trkpt><trkpt lat="44.92713795567944" lon="9.970654043599893"><ele>51.0</ele><time>2026-03-22T08:01:27.999Z</time></trkpt><trkpt lat="44.92701414530293" lon="9.970632094399217"><ele>51.0</ele><time>2026-03-22T08:01:29.999Z</time></trkpt><trkpt lat="44.926888969372506" lon="9.970603135585119"><ele>51.0</ele><time>2026-03-22T08:01:31.999Z</time></trkpt><trkpt lat="44.926823937349965" lon="9.97058970796444"><ele>51.0</ele><time>2026-03-22T08:01:32.999Z</time></trkpt><trkpt lat="44.9267592444811" lon="9.970575068963727"><ele>51.0</ele><time>2026-03-22T08:01:33.999Z</time></trkpt><trkpt lat="44.92669216523551" lon="9.970560556940923"><ele>51.0</ele><time>2026-03-22T08:01:34.999Z</time></trkpt><trkpt lat="44.92662405916711" lon="9.970544344983088"><ele>51.0</ele><time>2026-03-22T08:01:35.999Z</time></trkpt><trkpt lat="44.92655938748657" lon="9.970527368988966"><ele>51.0</ele><time>2026-03-22T08:01:36.999Z</time></trkpt><trkpt lat="44.92649568196793" lon="9.97050849315573"><ele>51.0</ele><time>2026-03-22T08:01:37.999Z</time></trkpt><trkpt lat="44.92642850711198" lon="9.97049237582423"><ele>51.0</ele><time>2026-03-22T08:01:38.999Z</time></trkpt><trkpt lat="44.926362005033845" lon="9.970476660250586"><ele>51.0</ele><time>2026-03-22T08:01:39.999Z</time></trkpt><trkpt lat="44.926295809964884" lon="9.970458811495577"><ele>51.0</ele><time>2026-03-22T08:01:40.999Z</time></trkpt><trkpt lat="44.92622547259644" lon="9.970440153675982"><ele>51.0</ele><time>2026-03-22T08:01:41.999Z</time></trkpt><trkpt lat="44.92615876776232" lon="9.970425000208293"><ele>51.0</ele><time>2026-03-22T08:01:42.999Z</time></trkpt><trkpt lat="44.926090587709446" lon="9.970410348363886"><ele>51.0</ele><time>2026-03-22T08:01:43.999Z</time></trkpt><trkpt lat="44.9260216222674" lon="9.970393529039162"><ele>51.0</ele><time>2026-03-22T08:01:44.999Z</time></trkpt><trkpt lat="44.925958050823716" lon="9.970389606827673"><ele>51.599999999999994</ele><time>2026-03-22T08:01:45.999Z</time></trkpt><trkpt lat="44.92589114076565" lon="9.970373712191247"><ele>52.2</ele><time>2026-03-22T08:01:46.999Z</time></trkpt><trkpt lat="44.92576977119638" lon="9.970343945347935"><ele>52.800000000000004</ele><time>2026-03-22T08:01:48.999Z</time></trkpt><trkpt lat="44.92564885788263" lon="9.970356334449825"><ele>53.400000000000006</ele><time>2026-03-22T08:01:50.999Z</time></trkpt><trkpt lat="44.925564963943025" lon="9.970462609631898"><ele>54.0</ele><time>2026-03-22T08:01:52.999Z</time></trkpt><trkpt lat="44.92554633872662" lon="9.970641620518945"><ele>54.0</ele><time>2026-03-22T08:01:54.999Z</time></trkpt><trkpt lat="44.925538812752514" lon="9.970741307813581"><ele>54.0</ele><time>2026-03-22T08:01:55.999Z</time></trkpt><trkpt lat="44.9255553714234" lon="9.970831748230916"><ele>54.0</ele><time>2026-03-22T08:01:56.999Z</time></trkpt><trkpt lat="44.9255731502555" lon="9.970924187077582"><ele>54.0</ele><time>2026-03-22T08:01:57.999Z</time></trkpt><trkpt lat="44.925590680926014" lon="9.971014992085362"><ele>54.0</ele><time>2026-03-22T08:01:58.999Z</time></trkpt><trkpt lat="44.92560876656927" lon="9.971108671559842"><ele>54.0</ele><time>2026-03-22T08:01:59.999Z</time></trkpt><trkpt lat="44.92562655152707" lon="9.971200793731947"><ele>54.0</ele><time>2026-03-22T08:02:00.999Z</time></trkpt><trkpt lat="44.925627940660036" lon="9.971360135669329"><ele>54.285714285714285</ele><time>2026-03-22T08:02:02.999Z</time></trkpt><trkpt lat="44.92557724659035" lon="9.97141778950601"><ele>54.57142857142857</ele><time>2026-03-22T08:02:03.999Z</time></trkpt><trkpt lat="44.92550253747766" lon="9.971419394075344"><ele>54.85714285714286</ele><time>2026-03-22T08:02:04.999Z</time></trkpt><trkpt lat="44.92543628122354" lon="9.97145270838188"><ele>55.14285714285714</ele><time>2026-03-22T08:02:05.999Z</time></trkpt><trkpt lat="44.92536712244901" lon="9.971463996576025"><ele>55.42857142857143</ele><time>2026-03-22T08:02:06.999Z</time></trkpt><trkpt lat="44.925297087057714" lon="9.971480691399448"><ele>55.714285714285715</ele><time>2026-03-22T08:02:07.999Z</time></trkpt><trkpt lat="44.925227515968004" lon="9.971499055728485"><ele>56.0</ele><time>2026-03-22T08:02:08.999Z</time></trkpt><trkpt lat="44.92515681371468" lon="9.971518259942204"><ele>56.0</ele><time>2026-03-22T08:02:09.999Z</time></trkpt><trkpt lat="44.92508646102171" lon="9.971535218399696"><ele>56.0</ele><time>2026-03-22T08:02:10.999Z</time></trkpt><trkpt lat="44.925015476874705" lon="9.971549351164201"><ele>56.0</ele><time>2026-03-22T08:02:11.999Z</time></trkpt><trkpt lat="44.92494429601718" lon="9.971560513333735"><ele>56.0</ele><time>2026-03-22T08:02:12.999Z</time></trkpt><trkpt lat="44.924874758011626" lon="9.971575509675745"><ele>56.0</ele><time>2026-03-22T08:02:13.998Z</time></trkpt><trkpt lat="44.92480348763219" lon="9.971587530278036"><ele>56.0</ele><time>2026-03-22T08:02:14.998Z</time></trkpt><trkpt lat="44.92473130373574" lon="9.971597545229526"><ele>56.0</ele><time>2026-03-22T08:02:15.998Z</time></trkpt><trkpt lat="44.92465682282478" lon="9.971598447160668"><ele>55.857142857142854</ele><time>2026-03-22T08:02:16.998Z</time></trkpt><trkpt lat="44.92458465550933" lon="9.97159560111205"><ele>55.714285714285715</ele><time>2026-03-22T08:02:17.998Z</time></trkpt><trkpt lat="44.92451154320548" lon="9.97159077816888"><ele>55.57142857142857</ele><time>2026-03-22T08:02:18.998Z</time></trkpt><trkpt lat="44.9244410162189" lon="9.971577080129947"><ele>55.42857142857143</ele><time>2026-03-22T08:02:19.998Z</time></trkpt><trkpt lat="44.92437015091896" lon="9.971558514298795"><ele>55.285714285714285</ele><time>2026-03-22T08:02:21Z</time></trkpt><trkpt lat="44.92430033466473" lon="9.971540395002721"><ele>55.14285714285714</ele><time>2026-03-22T08:02:22Z</time></trkpt><trkpt lat="44.92422972248917" lon="9.971525154479428"><ele>55.0</ele><time>2026-03-22T08:02:23Z</time></trkpt><trkpt lat="44.92416065164045" lon="9.971508434442875"><ele>54.71428571428571</ele><time>2026-03-22T08:02:24Z</time></trkpt><trkpt lat="44.924090337325026" lon="9.971498311115631"><ele>54.42857142857143</ele><time>2026-03-22T08:02:25Z</time></trkpt><trkpt lat="44.924020205240936" lon="9.971487092209937"><ele>54.14285714285714</ele><time>2026-03-22T08:02:26Z</time></trkpt><trkpt lat="44.92395168332311" lon="9.971469543725677"><ele>53.857142857142854</ele><time>2026-03-22T08:02:27Z</time></trkpt><trkpt lat="44.92388187185936" lon="9.971450013680276"><ele>53.57142857142857</ele><time>2026-03-22T08:02:28Z</time></trkpt><trkpt lat="44.92381122778369" lon="9.971432260221068"><ele>53.285714285714285</ele><time>2026-03-22T08:02:29Z</time></trkpt><trkpt lat="44.923740748609276" lon="9.97141404812706"><ele>53.0</ele><time>2026-03-22T08:02:30Z</time></trkpt><trkpt lat="44.9236697329269" lon="9.971398223635314"><ele>53.0</ele><time>2026-03-22T08:02:31Z</time></trkpt><trkpt lat="44.92359789777599" lon="9.971377930171327"><ele>53.0</ele><time>2026-03-22T08:02:32Z</time></trkpt><trkpt lat="44.923524577041356" lon="9.971362532288543"><ele>53.0</ele><time>2026-03-22T08:02:33Z</time></trkpt><trkpt lat="44.92345285638481" lon="9.971348446429568"><ele>53.0</ele><time>2026-03-22T08:02:34Z</time></trkpt><trkpt lat="44.923379808604295" lon="9.971334682026361"><ele>53.0</ele><time>2026-03-22T08:02:35Z</time></trkpt><trkpt lat="44.92330705152542" lon="9.97131564893088"><ele>53.0</ele><time>2026-03-22T08:02:36Z</time></trkpt><trkpt lat="44.92323357134719" lon="9.97130072955712"><ele>53.0</ele><time>2026-03-22T08:02:37Z</time></trkpt><trkpt lat="44.92315979485342" lon="9.97128121063272"><ele>53.16666666666667</ele><time>2026-03-22T08:02:38Z</time></trkpt><trkpt lat="44.92308791257305" lon="9.971264353165695"><ele>53.333333333333336</ele><time>2026-03-22T08:02:39Z</time></trkpt><trkpt lat="44.923013417697604" lon="9.971249185736474"><ele>53.5</ele><time>2026-03-22T08:02:40Z</time></trkpt><trkpt lat="44.92294084636997" lon="9.97123427332089"><ele>53.66666666666667</ele><time>2026-03-22T08:02:41Z</time></trkpt><trkpt lat="44.92286666557088" lon="9.97121812315178"><ele>53.833333333333336</ele><time>2026-03-22T08:02:42Z</time></trkpt><trkpt lat="44.92279147905338" lon="9.971201235695526"><ele>54.0</ele><time>2026-03-22T08:02:43Z</time></trkpt><trkpt lat="44.92271477917927" lon="9.971186509445399"><ele>54.0</ele><time>2026-03-22T08:02:44Z</time></trkpt><trkpt lat="44.92263701463506" lon="9.97117438862676"><ele>54.0</ele><time>2026-03-22T08:02:45Z</time></trkpt><trkpt lat="44.92256004789311" lon="9.971163373151365"><ele>54.0</ele><time>2026-03-22T08:02:46Z</time></trkpt><trkpt lat="44.922483472551306" lon="9.97115685969842"><ele>54.0</ele><time>2026-03-22T08:02:47Z</time></trkpt><trkpt lat="44.92240672567496" lon="9.97114307427642"><ele>54.0</ele><time>2026-03-22T08:02:48Z</time></trkpt><trkpt lat="44.92233010965199" lon="9.971129925556818"><ele>54.0</ele><time>2026-03-22T08:02:49Z</time></trkpt><trkpt lat="44.922254463298636" lon="9.971110731100632"><ele>54.0</ele><time>2026-03-22T08:02:50Z</time></trkpt><trkpt lat="44.92217644816192" lon="9.97109642553669"><ele>54.0</ele><time>2026-03-22T08:02:51Z</time></trkpt><trkpt lat="44.922098632848716" lon="9.97108444174537"><ele>54.0</ele><time>2026-03-22T08:02:52Z</time></trkpt><trkpt lat="44.92202111118838" lon="9.971066669737606"><ele>54.0</ele><time>2026-03-22T08:02:53Z</time></trkpt><trkpt lat="44.92194583890722" lon="9.971056641923083"><ele>54.0</ele><time>2026-03-22T08:02:54Z</time></trkpt><trkpt lat="44.92186678047294" lon="9.971042372404147"><ele>54.0</ele><time>2026-03-22T08:02:55Z</time></trkpt><trkpt lat="44.92178969824139" lon="9.971033223120962"><ele>54.0</ele><time>2026-03-22T08:02:56Z</time></trkpt><trkpt lat="44.921712794026405" lon="9.971027207785308"><ele>54.0</ele><time>2026-03-22T08:02:57Z</time></trkpt><trkpt lat="44.921635945515234" lon="9.971026467118074"><ele>54.0</ele><time>2026-03-22T08:02:58Z</time></trkpt><trkpt lat="44.92156049585679" lon="9.971035440070857"><ele>54.0</ele><time>2026-03-22T08:02:59Z</time></trkpt><trkpt lat="44.921488144152974" lon="9.97105841407379"><ele>54.0</ele><time>2026-03-22T08:03:00Z</time></trkpt><trkpt lat="44.92141732883102" lon="9.97109174389058"><ele>54.0</ele><time>2026-03-22T08:03:01Z</time></trkpt><trkpt lat="44.921350009244236" lon="9.971128616637127"><ele>54.0</ele><time>2026-03-22T08:03:02Z</time></trkpt><trkpt lat="44.921283002861976" lon="9.971163346664294"><ele>54.0</ele><time>2026-03-22T08:03:03Z</time></trkpt><trkpt lat="44.921216397260864" lon="9.971200188926893"><ele>54.0</ele><time>2026-03-22T08:03:04Z</time></trkpt><trkpt lat="44.921150820841945" lon="9.971235915312823"><ele>54.0</ele><time>2026-03-22T08:03:05Z</time></trkpt><trkpt lat="44.9210835077935" lon="9.971268969698896"><ele>54.0</ele><time>2026-03-22T08:03:06Z</time></trkpt><trkpt lat="44.92101594986303" lon="9.971300830084488"><ele>54.0</ele><time>2026-03-22T08:03:07Z</time></trkpt><trkpt lat="44.92095167030835" lon="9.971334888366739"><ele>54.0</ele><time>2026-03-22T08:03:08Z</time></trkpt><trkpt lat="44.920885346910815" lon="9.971369686795398"><ele>54.42857142857143</ele><time>2026-03-22T08:03:09Z</time></trkpt><trkpt lat="44.92081678315289" lon="9.971405994582975"><ele>54.857142857142854</ele><time>2026-03-22T08:03:10Z</time></trkpt><trkpt lat="44.92075035251653" lon="9.971439674423857"><ele>55.285714285714285</ele><time>2026-03-22T08:03:11Z</time></trkpt><trkpt lat="44.920682325205966" lon="9.971472447264496"><ele>55.71428571428571</ele><time>2026-03-22T08:03:12Z</time></trkpt><trkpt lat="44.92061499989246" lon="9.971502727973055"><ele>56.14285714285714</ele><time>2026-03-22T08:03:13Z</time></trkpt><trkpt lat="44.92054573063046" lon="9.97153021480377"><ele>56.57142857142857</ele><time>2026-03-22T08:03:14Z</time></trkpt><trkpt lat="44.920477199077034" lon="9.971551967530743"><ele>57.0</ele><time>2026-03-22T08:03:15Z</time></trkpt><trkpt lat="44.92040803201051" lon="9.971576957019854"><ele>57.0</ele><time>2026-03-22T08:03:16Z</time></trkpt><trkpt lat="44.9203370607825" lon="9.971599622280886"><ele>56.99999999999999</ele><time>2026-03-22T08:03:17Z</time></trkpt><trkpt lat="44.920267790317965" lon="9.971629261144976"><ele>57.0</ele><time>2026-03-22T08:03:18Z</time></trkpt><trkpt lat="44.920198752218525" lon="9.971655082907313"><ele>57.0</ele><time>2026-03-22T08:03:19Z</time></trkpt><trkpt lat="44.92013048168925" lon="9.971682623699802"><ele>56.99999999999999</ele><time>2026-03-22T08:03:20Z</time></trkpt><trkpt lat="44.92005997362591" lon="9.971704894764763"><ele>57.0</ele><time>2026-03-22T08:03:20.999Z</time></trkpt><trkpt lat="44.91998920524245" lon="9.971725992939556"><ele>57.0</ele><time>2026-03-22T08:03:21.999Z</time></trkpt><trkpt lat="44.91991792520942" lon="9.97175110329236"><ele>57.14285714285714</ele><time>2026-03-22T08:03:22.999Z</time></trkpt><trkpt lat="44.919848185620204" lon="9.971774780671213"><ele>57.28571428571428</ele><time>2026-03-22T08:03:23.999Z</time></trkpt><trkpt lat="44.91977766842761" lon="9.971802832113314"><ele>57.42857142857143</ele><time>2026-03-22T08:03:24.999Z</time></trkpt><trkpt lat="44.91970761208829" lon="9.97182707566168"><ele>57.57142857142857</ele><time>2026-03-22T08:03:25.999Z</time></trkpt><trkpt lat="44.91963680217466" lon="9.971850408723471"><ele>57.714285714285715</ele><time>2026-03-22T08:03:26.999Z</time></trkpt><trkpt lat="44.91956484035259" lon="9.971874595963568"><ele>57.85714285714286</ele><time>2026-03-22T08:03:27.999Z</time></trkpt><trkpt lat="44.91949234506177" lon="9.971902678989425"><ele>58.00000000000001</ele><time>2026-03-22T08:03:28.999Z</time></trkpt><trkpt lat="44.919420250397714" lon="9.97193043311138"><ele>58.00000000000001</ele><time>2026-03-22T08:03:29.999Z</time></trkpt><trkpt lat="44.91934941239461" lon="9.971957527312746"><ele>58.0</ele><time>2026-03-22T08:03:30.999Z</time></trkpt><trkpt lat="44.91927692086332" lon="9.971980827247553"><ele>58.00000000000001</ele><time>2026-03-22T08:03:31.999Z</time></trkpt><trkpt lat="44.91920406127532" lon="9.972007735426576"><ele>58.00000000000001</ele><time>2026-03-22T08:03:32.999Z</time></trkpt><trkpt lat="44.919133080214905" lon="9.972034501363682"><ele>58.0</ele><time>2026-03-22T08:03:33.999Z</time></trkpt><trkpt lat="44.91906232301303" lon="9.972063680818755"><ele>58.00000000000001</ele><time>2026-03-22T08:03:34.999Z</time></trkpt><trkpt lat="44.91899239921304" lon="9.972094729915488"><ele>58.00000000000001</ele><time>2026-03-22T08:03:35.999Z</time></trkpt><trkpt lat="44.91892015827158" lon="9.972127233208683"><ele>57.99999999999999</ele><time>2026-03-22T08:03:36.999Z</time></trkpt><trkpt lat="44.918846773536345" lon="9.972161430880783"><ele>58.0</ele><time>2026-03-22T08:03:37.999Z</time></trkpt><trkpt lat="44.91877473528091" lon="9.972193629697937"><ele>58.0</ele><time>2026-03-22T08:03:38.999Z</time></trkpt><trkpt lat="44.91870176183378" lon="9.972228393046233"><ele>58.0</ele><time>2026-03-22T08:03:39.999Z</time></trkpt><trkpt lat="44.91862979409364" lon="9.97226192417339"><ele>57.99999999999999</ele><time>2026-03-22T08:03:40.999Z</time></trkpt><trkpt lat="44.91855873708238" lon="9.972296662453365"><ele>58.0</ele><time>2026-03-22T08:03:41.999Z</time></trkpt><trkpt lat="44.918487087193874" lon="9.972329321690385"><ele>58.00000000000001</ele><time>2026-03-22T08:03:42.999Z</time></trkpt><trkpt lat="44.9184164351571" lon="9.972360175493073"><ele>58.0</ele><time>2026-03-22T08:03:43.999Z</time></trkpt><trkpt lat="44.91834445578206" lon="9.972389593992833"><ele>58.00000000000001</ele><time>2026-03-22T08:03:44.999Z</time></trkpt><trkpt lat="44.91827470421356" lon="9.972421956721464"><ele>58.00000000000001</ele><time>2026-03-22T08:03:45.999Z</time></trkpt><trkpt lat="44.918204909539405" lon="9.972457863914435"><ele>58.0</ele><time>2026-03-22T08:03:46.999Z</time></trkpt><trkpt lat="44.918136093997205" lon="9.972493841377325"><ele>58.00000000000001</ele><time>2026-03-22T08:03:47.999Z</time></trkpt><trkpt lat="44.91806586785673" lon="9.972526316227274"><ele>58.00000000000001</ele><time>2026-03-22T08:03:48.999Z</time></trkpt><trkpt lat="44.91799487308344" lon="9.972557776200718"><ele>57.85714285714286</ele><time>2026-03-22T08:03:49.999Z</time></trkpt><trkpt lat="44.9179240707765" lon="9.972589373470209"><ele>57.714285714285715</ele><time>2026-03-22T08:03:50.999Z</time></trkpt><trkpt lat="44.91785342044761" lon="9.972619399821715"><ele>57.57142857142857</ele><time>2026-03-22T08:03:51.999Z</time></trkpt><trkpt lat="44.91778505622721" lon="9.972650174245377"><ele>57.42857142857143</ele><time>2026-03-22T08:03:52.999Z</time></trkpt><trkpt lat="44.91771652915789" lon="9.972682685662752"><ele>57.28571428571428</ele><time>2026-03-22T08:03:53.999Z</time></trkpt><trkpt lat="44.91764938694362" lon="9.972713605355539"><ele>57.14285714285714</ele><time>2026-03-22T08:03:54.999Z</time></trkpt><trkpt lat="44.91758436445997" lon="9.972746760188864"><ele>57.0</ele><time>2026-03-22T08:03:55.999Z</time></trkpt><trkpt lat="44.917517863280175" lon="9.97277859454049"><ele>57.0</ele><time>2026-03-22T08:03:56.999Z</time></trkpt><trkpt lat="44.91745223394514" lon="9.972810450008106"><ele>56.99999999999999</ele><time>2026-03-22T08:03:57.999Z</time></trkpt><trkpt lat="44.91738650857638" lon="9.972847892497645"><ele>57.0</ele><time>2026-03-22T08:03:58.999Z</time></trkpt><trkpt lat="44.91731573223623" lon="9.972870362146336"><ele>57.0</ele><time>2026-03-22T08:03:59.999Z</time></trkpt><trkpt lat="44.917261607800995" lon="9.972949425700566"><ele>56.99999999999999</ele><time>2026-03-22T08:04:00.999Z</time></trkpt><trkpt lat="44.91719504171197" lon="9.972993629765982"><ele>57.0</ele><time>2026-03-22T08:04:01.999Z</time></trkpt><trkpt lat="44.91714980999562" lon="9.973075226218327"><ele>57.0</ele><time>2026-03-22T08:04:02.999Z</time></trkpt><trkpt lat="44.91709830169162" lon="9.9731424101261"><ele>57.0</ele><time>2026-03-22T08:04:03.999Z</time></trkpt><trkpt lat="44.917047429506525" lon="9.973213425982943"><ele>56.99999999999999</ele><time>2026-03-22T08:04:04.999Z</time></trkpt><trkpt lat="44.916997823480855" lon="9.97328434180788"><ele>57.0</ele><time>2026-03-22T08:04:05.999Z</time></trkpt><trkpt lat="44.916947406066" lon="9.973355400329114"><ele>57.0</ele><time>2026-03-22T08:04:06.999Z</time></trkpt><trkpt lat="44.91689599217204" lon="9.973427455893814"><ele>56.99999999999999</ele><time>2026-03-22T08:04:07.999Z</time></trkpt><trkpt lat="44.91684447781563" lon="9.973498347254415"><ele>57.0</ele><time>2026-03-22T08:04:08.999Z</time></trkpt><trkpt lat="44.916793494378354" lon="9.973569926204382"><ele>57.0</ele><time>2026-03-22T08:04:09.999Z</time></trkpt><trkpt lat="44.91674393739159" lon="9.973642918716305"><ele>57.14285714285714</ele><time>2026-03-22T08:04:10.999Z</time></trkpt><trkpt lat="44.91669177981463" lon="9.97371616969928"><ele>57.28571428571428</ele><time>2026-03-22T08:04:11.999Z</time></trkpt><trkpt lat="44.91664062568694" lon="9.973788955399378"><ele>57.42857142857143</ele><time>2026-03-22T08:04:12.999Z</time></trkpt><trkpt lat="44.916588329987746" lon="9.97386261141994"><ele>57.57142857142857</ele><time>2026-03-22T08:04:13.999Z</time></trkpt><trkpt lat="44.9165362495489" lon="9.97393727299058"><ele>57.714285714285715</ele><time>2026-03-22T08:04:14.999Z</time></trkpt><trkpt lat="44.91648447742711" lon="9.974009834272074"><ele>57.85714285714286</ele><time>2026-03-22T08:04:15.999Z</time></trkpt><trkpt lat="44.916431176032454" lon="9.974082397465533"><ele>58.00000000000001</ele><time>2026-03-22T08:04:16.998Z</time></trkpt><trkpt lat="44.91637945985885" lon="9.974155707434225"><ele>57.85714285714286</ele><time>2026-03-22T08:04:17.998Z</time></trkpt><trkpt lat="44.91632532029131" lon="9.974229792374945"><ele>57.714285714285715</ele><time>2026-03-22T08:04:18.998Z</time></trkpt><trkpt lat="44.916273135401966" lon="9.974304628931497"><ele>57.57142857142857</ele><time>2026-03-22T08:04:19.998Z</time></trkpt><trkpt lat="44.916221903012215" lon="9.97437830825319"><ele>57.42857142857143</ele><time>2026-03-22T08:04:20.998Z</time></trkpt><trkpt lat="44.916172037617116" lon="9.97445116654768"><ele>57.28571428571428</ele><time>2026-03-22T08:04:21.998Z</time></trkpt><trkpt lat="44.91610910620537" lon="9.974508536070324"><ele>57.14285714285714</ele><time>2026-03-22T08:04:22.998Z</time></trkpt><trkpt lat="44.91606873334781" lon="9.974597439973957"><ele>57.0</ele><time>2026-03-22T08:04:23.998Z</time></trkpt><trkpt lat="44.91600605210117" lon="9.974654099334574"><ele>57.0</ele><time>2026-03-22T08:04:24.998Z</time></trkpt><trkpt lat="44.91595486790542" lon="9.974726396586746"><ele>56.99999999999999</ele><time>2026-03-22T08:04:26Z</time></trkpt><trkpt lat="44.91590432502157" lon="9.974799373800467"><ele>57.0</ele><time>2026-03-22T08:04:27Z</time></trkpt><trkpt lat="44.91585309164468" lon="9.974873305040349"><ele>57.0</ele><time>2026-03-22T08:04:28Z</time></trkpt><trkpt lat="44.91580262575544" lon="9.974946128812286"><ele>56.99999999999999</ele><time>2026-03-22T08:04:29Z</time></trkpt><trkpt lat="44.91575038401872" lon="9.975020673129862"><ele>57.0</ele><time>2026-03-22T08:04:30Z</time></trkpt><trkpt lat="44.91569837980432" lon="9.97509438825496"><ele>57.0</ele><time>2026-03-22T08:04:31Z</time></trkpt><trkpt lat="44.915645901728425" lon="9.975168774794284"><ele>57.0</ele><time>2026-03-22T08:04:32Z</time></trkpt><trkpt lat="44.915593020747906" lon="9.97524373250569"><ele>57.0</ele><time>2026-03-22T08:04:33Z</time></trkpt><trkpt lat="44.91553992735426" lon="9.975318991418781"><ele>57.0</ele><time>2026-03-22T08:04:34Z</time></trkpt><trkpt lat="44.9154877249742" lon="9.975394266853694"><ele>57.0</ele><time>2026-03-22T08:04:35Z</time></trkpt><trkpt lat="44.91543569777047" lon="9.975469356483755"><ele>57.0</ele><time>2026-03-22T08:04:36Z</time></trkpt><trkpt lat="44.91539480670075" lon="9.975560078940072"><ele>57.0</ele><time>2026-03-22T08:04:37Z</time></trkpt><trkpt lat="44.9153303229678" lon="9.975620338693622"><ele>57.0</ele><time>2026-03-22T08:04:38Z</time></trkpt><trkpt lat="44.91527690682635" lon="9.975695797639663"><ele>57.0</ele><time>2026-03-22T08:04:39Z</time></trkpt><trkpt lat="44.91522366376478" lon="9.975771012339361"><ele>57.0</ele><time>2026-03-22T08:04:40Z</time></trkpt><trkpt lat="44.91516960148031" lon="9.975847384160032"><ele>57.0</ele><time>2026-03-22T08:04:41Z</time></trkpt><trkpt lat="44.91511610792687" lon="9.975922952723655"><ele>57.0</ele><time>2026-03-22T08:04:42Z</time></trkpt><trkpt lat="44.915061800971415" lon="9.975999899369965"><ele>57.0</ele><time>2026-03-22T08:04:43Z</time></trkpt><trkpt lat="44.91500801911142" lon="9.976076400456563"><ele>57.0</ele><time>2026-03-22T08:04:44Z</time></trkpt><trkpt lat="44.914954077868394" lon="9.97615312824835"><ele>57.0</ele><time>2026-03-22T08:04:45Z</time></trkpt><trkpt lat="44.91489960959364" lon="9.976230605541845"><ele>57.0</ele><time>2026-03-22T08:04:46Z</time></trkpt><trkpt lat="44.91484498438471" lon="9.976308306149956"><ele>57.0</ele><time>2026-03-22T08:04:47Z</time></trkpt><trkpt lat="44.91479198599926" lon="9.976383692733755"><ele>57.0</ele><time>2026-03-22T08:04:48Z</time></trkpt><trkpt lat="44.91474027220426" lon="9.976457252112018"><ele>57.0</ele><time>2026-03-22T08:04:49Z</time></trkpt><trkpt lat="44.91468912304258" lon="9.976530003937091"><ele>57.0</ele><time>2026-03-22T08:04:50Z</time></trkpt><trkpt lat="44.91463766918546" lon="9.976603118603206"><ele>56.99999999999999</ele><time>2026-03-22T08:04:51Z</time></trkpt><trkpt lat="44.91458586019151" lon="9.976676737918227"><ele>57.0</ele><time>2026-03-22T08:04:52Z</time></trkpt><trkpt lat="44.91453366101044" lon="9.976750911704613"><ele>57.0</ele><time>2026-03-22T08:04:53Z</time></trkpt><trkpt lat="44.91448140632963" lon="9.976825164337349"><ele>56.99999999999999</ele><time>2026-03-22T08:04:54Z</time></trkpt><trkpt lat="44.914428058845004" lon="9.976900969707716"><ele>57.0</ele><time>2026-03-22T08:04:55Z</time></trkpt><trkpt lat="44.914375261189626" lon="9.976975993941469"><ele>57.0</ele><time>2026-03-22T08:04:56Z</time></trkpt><trkpt lat="44.914321333629076" lon="9.977052623696297"><ele>57.0</ele><time>2026-03-22T08:04:57Z</time></trkpt><trkpt lat="44.914268803986495" lon="9.97712726699393"><ele>56.99999999999999</ele><time>2026-03-22T08:04:58Z</time></trkpt><trkpt lat="44.914215762412994" lon="9.977202637722769"><ele>57.0</ele><time>2026-03-22T08:04:59Z</time></trkpt><trkpt lat="44.91416334432418" lon="9.977277122582366"><ele>57.0</ele><time>2026-03-22T08:05:00Z</time></trkpt><trkpt lat="44.914110932714586" lon="9.977351598237215"><ele>56.99999999999999</ele><time>2026-03-22T08:05:01Z</time></trkpt><trkpt lat="44.91405883621043" lon="9.977425625992952"><ele>57.0</ele><time>2026-03-22T08:05:02Z</time></trkpt><trkpt lat="44.91400696325371" lon="9.977499336331304"><ele>57.0</ele><time>2026-03-22T08:05:03Z</time></trkpt><trkpt lat="44.91395726628247" lon="9.977569954393521"><ele>57.0</ele><time>2026-03-22T08:05:04Z</time></trkpt><trkpt lat="44.913906401993714" lon="9.97764219080514"><ele>56.99999999999999</ele><time>2026-03-22T08:05:05Z</time></trkpt><trkpt lat="44.91385441338204" lon="9.977716005333027"><ele>57.0</ele><time>2026-03-22T08:05:06Z</time></trkpt><trkpt lat="44.913801460850145" lon="9.977791188753578"><ele>57.0</ele><time>2026-03-22T08:05:07Z</time></trkpt><trkpt lat="44.91374919617281" lon="9.97786539518729"><ele>56.99999999999999</ele><time>2026-03-22T08:05:08Z</time></trkpt><trkpt lat="44.913696542530005" lon="9.977940153697304"><ele>57.0</ele><time>2026-03-22T08:05:09Z</time></trkpt><trkpt lat="44.91364317555343" lon="9.97801592584701"><ele>57.0</ele><time>2026-03-22T08:05:10Z</time></trkpt><trkpt lat="44.91358910268932" lon="9.978092699733377"><ele>57.0</ele><time>2026-03-22T08:05:11Z</time></trkpt><trkpt lat="44.91353529634943" lon="9.978169095210635"><ele>57.0</ele><time>2026-03-22T08:05:12Z</time></trkpt><trkpt lat="44.91348043398331" lon="9.978246990036121"><ele>57.0</ele><time>2026-03-22T08:05:13Z</time></trkpt><trkpt lat="44.913426260773605" lon="9.978323906395408"><ele>57.0</ele><time>2026-03-22T08:05:14Z</time></trkpt><trkpt lat="44.9133835530533" lon="9.97841732435161"><ele>57.0</ele><time>2026-03-22T08:05:15Z</time></trkpt><trkpt lat="44.9133299322766" lon="9.978493743824286"><ele>57.0</ele><time>2026-03-22T08:05:16Z</time></trkpt><trkpt lat="44.91326508648067" lon="9.978552745350123"><ele>57.14285714285714</ele><time>2026-03-22T08:05:17Z</time></trkpt><trkpt lat="44.91322389899239" lon="9.978644337661573"><ele>57.28571428571428</ele><time>2026-03-22T08:05:18Z</time></trkpt><trkpt lat="44.91317149985931" lon="9.978717710543146"><ele>57.42857142857143</ele><time>2026-03-22T08:05:19Z</time></trkpt><trkpt lat="44.913120537994445" lon="9.978790676357395"><ele>57.57142857142857</ele><time>2026-03-22T08:05:20Z</time></trkpt><trkpt lat="44.913068791263214" lon="9.978863039681155"><ele>57.714285714285715</ele><time>2026-03-22T08:05:21Z</time></trkpt><trkpt lat="44.91301595264982" lon="9.978935742672459"><ele>57.85714285714286</ele><time>2026-03-22T08:05:22Z</time></trkpt><trkpt lat="44.912953298676676" lon="9.97899174514896"><ele>58.00000000000001</ele><time>2026-03-22T08:05:23Z</time></trkpt><trkpt lat="44.91290126133292" lon="9.979064129266503"><ele>58.00000000000001</ele><time>2026-03-22T08:05:24Z</time></trkpt><trkpt lat="44.91286061134998" lon="9.979153646673218"><ele>58.0</ele><time>2026-03-22T08:05:24.999Z</time></trkpt><trkpt lat="44.912808492174925" lon="9.97922786342813"><ele>58.00000000000001</ele><time>2026-03-22T08:05:25.999Z</time></trkpt><trkpt lat="44.912745997709095" lon="9.979286167249967"><ele>58.00000000000001</ele><time>2026-03-22T08:05:26.999Z</time></trkpt><trkpt lat="44.912695826064" lon="9.979358039239449"><ele>58.0</ele><time>2026-03-22T08:05:27.999Z</time></trkpt><trkpt lat="44.91264566398443" lon="9.979428453587808"><ele>58.00000000000001</ele><time>2026-03-22T08:05:28.999Z</time></trkpt><trkpt lat="44.912605782748784" lon="9.979515867640833"><ele>58.00000000000001</ele><time>2026-03-22T08:05:29.999Z</time></trkpt><trkpt lat="44.91254448814708" lon="9.97957071162564"><ele>58.28571428571429</ele><time>2026-03-22T08:05:30.999Z</time></trkpt><trkpt lat="44.91249422120145" lon="9.979641388817711"><ele>58.57142857142857</ele><time>2026-03-22T08:05:31.999Z</time></trkpt><trkpt lat="44.912444368252274" lon="9.979712151642621"><ele>58.85714285714286</ele><time>2026-03-22T08:05:32.999Z</time></trkpt><trkpt lat="44.9123945478469" lon="9.97978295632017"><ele>59.142857142857146</ele><time>2026-03-22T08:05:33.999Z</time></trkpt><trkpt lat="44.91234445603705" lon="9.979854163689122"><ele>59.42857142857143</ele><time>2026-03-22T08:05:34.999Z</time></trkpt><trkpt lat="44.91230414330939" lon="9.97994134028701"><ele>59.714285714285715</ele><time>2026-03-22T08:05:35.999Z</time></trkpt><trkpt lat="44.91224875981358" lon="9.980005250516747"><ele>60.0</ele><time>2026-03-22T08:05:36.999Z</time></trkpt><trkpt lat="44.91218519104536" lon="9.98005646180868"><ele>60.0</ele><time>2026-03-22T08:05:37.999Z</time></trkpt><trkpt lat="44.912113564106804" lon="9.980077871608854"><ele>60.0</ele><time>2026-03-22T08:05:38.999Z</time></trkpt><trkpt lat="44.91203897773545" lon="9.980069776120246"><ele>60.0</ele><time>2026-03-22T08:05:39.999Z</time></trkpt><trkpt lat="44.91196855382835" lon="9.980032670637293"><ele>60.0</ele><time>2026-03-22T08:05:40.999Z</time></trkpt><trkpt lat="44.91190536106867" lon="9.979986212051399"><ele>60.0</ele><time>2026-03-22T08:05:41.999Z</time></trkpt><trkpt lat="44.91184439504413" lon="9.979935996816478"><ele>60.0</ele><time>2026-03-22T08:05:42.999Z</time></trkpt><trkpt lat="44.9117813580405" lon="9.979887835872038"><ele>60.0</ele><time>2026-03-22T08:05:43.999Z</time></trkpt><trkpt lat="44.91171754752363" lon="9.979841112734144"><ele>60.28571428571429</ele><time>2026-03-22T08:05:44.999Z</time></trkpt><trkpt lat="44.911652257381164" lon="9.97979464864929"><ele>60.57142857142857</ele><time>2026-03-22T08:05:45.999Z</time></trkpt><trkpt lat="44.91158874314225" lon="9.97974313949255"><ele>60.85714285714286</ele><time>2026-03-22T08:05:46.999Z</time></trkpt><trkpt lat="44.911523809895485" lon="9.97969333721884"><ele>61.142857142857146</ele><time>2026-03-22T08:05:47.999Z</time></trkpt><trkpt lat="44.911456972618126" lon="9.97964631684828"><ele>61.42857142857143</ele><time>2026-03-22T08:05:48.999Z</time></trkpt><trkpt lat="44.911391020333824" lon="9.979597431329028"><ele>61.714285714285715</ele><time>2026-03-22T08:05:49.999Z</time></trkpt><trkpt lat="44.91132317919655" lon="9.97954624634361"><ele>62.0</ele><time>2026-03-22T08:05:50.999Z</time></trkpt><trkpt lat="44.9112557543214" lon="9.979495059640692"><ele>62.00000000000001</ele><time>2026-03-22T08:05:51.999Z</time></trkpt><trkpt lat="44.91118776116327" lon="9.979451493584138"><ele>62.0</ele><time>2026-03-22T08:05:52.999Z</time></trkpt><trkpt lat="44.91111876032501" lon="9.979404016103627"><ele>62.0</ele><time>2026-03-22T08:05:53.999Z</time></trkpt><trkpt lat="44.911049350737805" lon="9.979355841810792"><ele>62.0</ele><time>2026-03-22T08:05:54.999Z</time></trkpt><trkpt lat="44.9109829263308" lon="9.979304322383927"><ele>62.00000000000001</ele><time>2026-03-22T08:05:55.999Z</time></trkpt><trkpt lat="44.910915010746606" lon="9.979254391463817"><ele>62.0</ele><time>2026-03-22T08:05:56.999Z</time></trkpt><trkpt lat="44.91084604063136" lon="9.979203540502676"><ele>61.833333333333336</ele><time>2026-03-22T08:05:57.999Z</time></trkpt><trkpt lat="44.91077779950001" lon="9.97915313279877"><ele>61.66666666666667</ele><time>2026-03-22T08:05:58.999Z</time></trkpt><trkpt lat="44.91070886850221" lon="9.979103119444977"><ele>61.5</ele><time>2026-03-22T08:05:59.999Z</time></trkpt><trkpt lat="44.91063697408393" lon="9.979053792792506"><ele>61.33333333333333</ele><time>2026-03-22T08:06:00.999Z</time></trkpt><trkpt lat="44.91056789303843" lon="9.979009190813896"><ele>61.166666666666664</ele><time>2026-03-22T08:06:01.999Z</time></trkpt><trkpt lat="44.91049846213428" lon="9.978970155357311"><ele>61.0</ele><time>2026-03-22T08:06:02.999Z</time></trkpt><trkpt lat="44.91042851189419" lon="9.978925996106412"><ele>60.99999999999999</ele><time>2026-03-22T08:06:03.999Z</time></trkpt><trkpt lat="44.91035954226046" lon="9.978879732762644"><ele>61.0</ele><time>2026-03-22T08:06:04.999Z</time></trkpt><trkpt lat="44.910293396251376" lon="9.97882754509021"><ele>61.0</ele><time>2026-03-22T08:06:05.999Z</time></trkpt><trkpt lat="44.910223512741275" lon="9.978782612555012"><ele>61.0</ele><time>2026-03-22T08:06:06.999Z</time></trkpt><trkpt lat="44.910155360885234" lon="9.97873705778636"><ele>60.99999999999999</ele><time>2026-03-22T08:06:07.999Z</time></trkpt><trkpt lat="44.91008711071261" lon="9.978690268620117"><ele>61.0</ele><time>2026-03-22T08:06:08.999Z</time></trkpt><trkpt lat="44.91002021923338" lon="9.978644497312612"><ele>60.99999999999999</ele><time>2026-03-22T08:06:09.999Z</time></trkpt><trkpt lat="44.909953389677774" lon="9.978596355512503"><ele>61.0</ele><time>2026-03-22T08:06:10.999Z</time></trkpt><trkpt lat="44.90988720989279" lon="9.978545196505204"><ele>61.0</ele><time>2026-03-22T08:06:11.999Z</time></trkpt><trkpt lat="44.90981947013906" lon="9.978497614870651"><ele>61.0</ele><time>2026-03-22T08:06:12.999Z</time></trkpt><trkpt lat="44.90975226316352" lon="9.978448664475533"><ele>60.99999999999999</ele><time>2026-03-22T08:06:13.999Z</time></trkpt><trkpt lat="44.90968424129183" lon="9.978402948662758"><ele>61.0</ele><time>2026-03-22T08:06:14.999Z</time></trkpt><trkpt lat="44.909616220453394" lon="9.978357759173633"><ele>60.99999999999999</ele><time>2026-03-22T08:06:15.999Z</time></trkpt><trkpt lat="44.90954832915886" lon="9.97831047206464"><ele>61.0</ele><time>2026-03-22T08:06:16.999Z</time></trkpt><trkpt lat="44.90947929661347" lon="9.978264713535701"><ele>61.0</ele><time>2026-03-22T08:06:17.999Z</time></trkpt><trkpt lat="44.90941244445919" lon="9.978217720287322"><ele>61.0</ele><time>2026-03-22T08:06:18.999Z</time></trkpt><trkpt lat="44.90934379635571" lon="9.978168929942072"><ele>60.99999999999999</ele><time>2026-03-22T08:06:19.999Z</time></trkpt><trkpt lat="44.9092754960823" lon="9.978122768236066"><ele>61.0</ele><time>2026-03-22T08:06:20.998Z</time></trkpt><trkpt lat="44.909206407814104" lon="9.97807695640067"><ele>60.99999999999999</ele><time>2026-03-22T08:06:21.998Z</time></trkpt><trkpt lat="44.909138578308365" lon="9.978032214130565"><ele>61.0</ele><time>2026-03-22T08:06:22.998Z</time></trkpt><trkpt lat="44.909070256809564" lon="9.977987692018917"><ele>61.0</ele><time>2026-03-22T08:06:23.998Z</time></trkpt><trkpt lat="44.909001343278405" lon="9.977944311525063"><ele>61.0</ele><time>2026-03-22T08:06:24.998Z</time></trkpt><trkpt lat="44.90893225870974" lon="9.977897840109469"><ele>60.99999999999999</ele><time>2026-03-22T08:06:25.998Z</time></trkpt><trkpt lat="44.90886353136483" lon="9.977847861060871"><ele>61.0</ele><time>2026-03-22T08:06:26.998Z</time></trkpt><trkpt lat="44.90879368577965" lon="9.977799021300354"><ele>60.99999999999999</ele><time>2026-03-22T08:06:27.998Z</time></trkpt><trkpt lat="44.90872365693393" lon="9.97775146371873"><ele>61.0</ele><time>2026-03-22T08:06:28.998Z</time></trkpt><trkpt lat="44.90865186727886" lon="9.97770590041511"><ele>61.0</ele><time>2026-03-22T08:06:29.998Z</time></trkpt><trkpt lat="44.9085805429217" lon="9.97765812543515"><ele>61.0</ele><time>2026-03-22T08:06:30.998Z</time></trkpt><trkpt lat="44.908510213872304" lon="9.977611987231242"><ele>60.99999999999999</ele><time>2026-03-22T08:06:32Z</time></trkpt><trkpt lat="44.90844055288503" lon="9.977563726256179"><ele>61.0</ele><time>2026-03-22T08:06:33Z</time></trkpt><trkpt lat="44.90837096839498" lon="9.977515668560317"><ele>61.166666666666664</ele><time>2026-03-22T08:06:34Z</time></trkpt><trkpt lat="44.908301454125066" lon="9.977466217315282"><ele>61.33333333333333</ele><time>2026-03-22T08:06:35Z</time></trkpt><trkpt lat="44.9082320539237" lon="9.977417172109492"><ele>61.5</ele><time>2026-03-22T08:06:36Z</time></trkpt><trkpt lat="44.90816234709749" lon="9.977366305077716"><ele>61.66666666666667</ele><time>2026-03-22T08:06:37Z</time></trkpt><trkpt lat="44.90809150965183" lon="9.977315435951684"><ele>61.833333333333336</ele><time>2026-03-22T08:06:38Z</time></trkpt><trkpt lat="44.90802180404574" lon="9.97726878671596"><ele>62.0</ele><time>2026-03-22T08:06:39Z</time></trkpt><trkpt lat="44.90795097069557" lon="9.977217355300466"><ele>62.00000000000001</ele><time>2026-03-22T08:06:40Z</time></trkpt><trkpt lat="44.90788000785878" lon="9.977168890449743"><ele>62.0</ele><time>2026-03-22T08:06:41Z</time></trkpt><trkpt lat="44.90780803495745" lon="9.977120749478848"><ele>62.0</ele><time>2026-03-22T08:06:42Z</time></trkpt><trkpt lat="44.9077366615019" lon="9.977075214434478"><ele>62.0</ele><time>2026-03-22T08:06:43Z</time></trkpt><trkpt lat="44.90766627445119" lon="9.977026679626094"><ele>62.00000000000001</ele><time>2026-03-22T08:06:44Z</time></trkpt><trkpt lat="44.907595698038655" lon="9.976976828933006"><ele>62.0</ele><time>2026-03-22T08:06:45Z</time></trkpt><trkpt lat="44.90752391195086" lon="9.976929127851834"><ele>62.16666666666667</ele><time>2026-03-22T08:06:46Z</time></trkpt><trkpt lat="44.907450333010196" lon="9.976883373328686"><ele>62.333333333333336</ele><time>2026-03-22T08:06:47Z</time></trkpt><trkpt lat="44.90737988229028" lon="9.976838403820633"><ele>62.5</ele><time>2026-03-22T08:06:48Z</time></trkpt><trkpt lat="44.907310383949365" lon="9.976788738026753"><ele>62.66666666666667</ele><time>2026-03-22T08:06:49Z</time></trkpt><trkpt lat="44.907241781415784" lon="9.97673828213598"><ele>62.833333333333336</ele><time>2026-03-22T08:06:50Z</time></trkpt><trkpt lat="44.90717205122176" lon="9.97669136566543"><ele>63.0</ele><time>2026-03-22T08:06:51Z</time></trkpt><trkpt lat="44.90710170282337" lon="9.97664203768839"><ele>63.0</ele><time>2026-03-22T08:06:52Z</time></trkpt><trkpt lat="44.907031720269835" lon="9.976595915181239"><ele>63.0</ele><time>2026-03-22T08:06:53Z</time></trkpt><trkpt lat="44.906961560568064" lon="9.976549851060202"><ele>63.0</ele><time>2026-03-22T08:06:54Z</time></trkpt><trkpt lat="44.90689373774677" lon="9.97650110606342"><ele>63.0</ele><time>2026-03-22T08:06:55Z</time></trkpt><trkpt lat="44.906823802664185" lon="9.976454414571657"><ele>63.0</ele><time>2026-03-22T08:06:56Z</time></trkpt><trkpt lat="44.90675180829324" lon="9.976408204982903"><ele>63.0</ele><time>2026-03-22T08:06:57Z</time></trkpt><trkpt lat="44.90667994638398" lon="9.976360164609083"><ele>63.0</ele><time>2026-03-22T08:06:58Z</time></trkpt><trkpt lat="44.9066089467014" lon="9.976311857430158"><ele>63.0</ele><time>2026-03-22T08:06:59Z</time></trkpt><trkpt lat="44.90654066418627" lon="9.976260646671967"><ele>63.0</ele><time>2026-03-22T08:07:00Z</time></trkpt><trkpt lat="44.90647088989392" lon="9.976208289250781"><ele>63.0</ele><time>2026-03-22T08:07:01Z</time></trkpt><trkpt lat="44.90639921480339" lon="9.976161020728416"><ele>63.0</ele><time>2026-03-22T08:07:02Z</time></trkpt><trkpt lat="44.906325884751666" lon="9.976110979122303"><ele>63.0</ele><time>2026-03-22T08:07:03Z</time></trkpt><trkpt lat="44.90625419906412" lon="9.97606048940131"><ele>63.0</ele><time>2026-03-22T08:07:04Z</time></trkpt><trkpt lat="44.90618139063093" lon="9.976008241290174"><ele>63.0</ele><time>2026-03-22T08:07:05Z</time></trkpt><trkpt lat="44.906107120730525" lon="9.975956112972582"><ele>63.0</ele><time>2026-03-22T08:07:06Z</time></trkpt><trkpt lat="44.90603303984443" lon="9.97590766057129"><ele>63.0</ele><time>2026-03-22T08:07:07Z</time></trkpt><trkpt lat="44.9059592214409" lon="9.975858111683152"><ele>63.0</ele><time>2026-03-22T08:07:08Z</time></trkpt><trkpt lat="44.905885539976985" lon="9.975806140209306"><ele>63.0</ele><time>2026-03-22T08:07:09Z</time></trkpt><trkpt lat="44.90581283829984" lon="9.975759536312692"><ele>63.5</ele><time>2026-03-22T08:07:10Z</time></trkpt><trkpt lat="44.90574088815705" lon="9.975707579378826"><ele>64.0</ele><time>2026-03-22T08:07:11Z</time></trkpt><trkpt lat="44.905668984886795" lon="9.9756595389401"><ele>64.5</ele><time>2026-03-22T08:07:12Z</time></trkpt><trkpt lat="44.9055988891175" lon="9.97561261852623"><ele>65.0</ele><time>2026-03-22T08:07:13Z</time></trkpt><trkpt lat="44.905530634920275" lon="9.975563538196274"><ele>65.5</ele><time>2026-03-22T08:07:14Z</time></trkpt><trkpt lat="44.90546214125999" lon="9.975513176534546"><ele>66.0</ele><time>2026-03-22T08:07:15Z</time></trkpt><trkpt lat="44.90539186459791" lon="9.975462618273783"><ele>66.0</ele><time>2026-03-22T08:07:16Z</time></trkpt><trkpt lat="44.90532088823821" lon="9.975411299760557"><ele>66.0</ele><time>2026-03-22T08:07:17Z</time></trkpt><trkpt lat="44.90524736497144" lon="9.975362239996679"><ele>66.0</ele><time>2026-03-22T08:07:18Z</time></trkpt><trkpt lat="44.90517605430909" lon="9.975312904949787"><ele>66.0</ele><time>2026-03-22T08:07:19Z</time></trkpt><trkpt lat="44.90510259175833" lon="9.975265867294091"><ele>66.0</ele><time>2026-03-22T08:07:20Z</time></trkpt><trkpt lat="44.90502942897836" lon="9.975218724397399"><ele>66.0</ele><time>2026-03-22T08:07:21Z</time></trkpt><trkpt lat="44.904958480840655" lon="9.975166072156112"><ele>65.83333333333333</ele><time>2026-03-22T08:07:22Z</time></trkpt><trkpt lat="44.904885280996446" lon="9.97511699828123"><ele>65.66666666666667</ele><time>2026-03-22T08:07:23Z</time></trkpt><trkpt lat="44.90481271092551" lon="9.975070218162989"><ele>65.5</ele><time>2026-03-22T08:07:24Z</time></trkpt><trkpt lat="44.90474116697671" lon="9.97502502179257"><ele>65.33333333333334</ele><time>2026-03-22T08:07:25Z</time></trkpt><trkpt lat="44.90466942541724" lon="9.974979091138307"><ele>65.16666666666667</ele><time>2026-03-22T08:07:26Z</time></trkpt><trkpt lat="44.90459841637141" lon="9.974932605453064"><ele>65.0</ele><time>2026-03-22T08:07:27Z</time></trkpt><trkpt lat="44.90452749077646" lon="9.974882789642026"><ele>65.0</ele><time>2026-03-22T08:07:28Z</time></trkpt><trkpt lat="44.90445760396408" lon="9.974834820564192"><ele>65.0</ele><time>2026-03-22T08:07:29Z</time></trkpt><trkpt lat="44.90438805896681" lon="9.974784208407529"><ele>65.0</ele><time>2026-03-22T08:07:29.999Z</time></trkpt><trkpt lat="44.90431920019497" lon="9.97473559524952"><ele>65.0</ele><time>2026-03-22T08:07:30.999Z</time></trkpt><trkpt lat="44.9042505792587" lon="9.974687382221944"><ele>65.0</ele><time>2026-03-22T08:07:31.999Z</time></trkpt><trkpt lat="44.904180020866356" lon="9.974639515954914"><ele>65.0</ele><time>2026-03-22T08:07:32.999Z</time></trkpt><trkpt lat="44.904109590398626" lon="9.974593092646064"><ele>65.16666666666667</ele><time>2026-03-22T08:07:33.999Z</time></trkpt><trkpt lat="44.90404225663414" lon="9.974543624272005"><ele>65.33333333333334</ele><time>2026-03-22T08:07:34.999Z</time></trkpt><trkpt lat="44.903975166735854" lon="9.974493599407909"><ele>65.5</ele><time>2026-03-22T08:07:35.999Z</time></trkpt><trkpt lat="44.90390713618594" lon="9.974446959387702"><ele>65.66666666666667</ele><time>2026-03-22T08:07:36.999Z</time></trkpt><trkpt lat="44.90383953783034" lon="9.974399685221405"><ele>65.83333333333333</ele><time>2026-03-22T08:07:37.999Z</time></trkpt><trkpt lat="44.90377191043122" lon="9.974356751675774"><ele>66.0</ele><time>2026-03-22T08:07:38.999Z</time></trkpt><trkpt lat="44.90370600954503" lon="9.974312609439853"><ele>66.0</ele><time>2026-03-22T08:07:39.999Z</time></trkpt><trkpt lat="44.90364096061744" lon="9.974266992277371"><ele>66.0</ele><time>2026-03-22T08:07:40.999Z</time></trkpt><trkpt lat="44.903574961420745" lon="9.97422069764895"><ele>66.0</ele><time>2026-03-22T08:07:41.999Z</time></trkpt><trkpt lat="44.903507249707886" lon="9.974178166140586"><ele>66.0</ele><time>2026-03-22T08:07:42.999Z</time></trkpt><trkpt lat="44.903441958759586" lon="9.974132984166566"><ele>66.0</ele><time>2026-03-22T08:07:43.999Z</time></trkpt><trkpt lat="44.90337803868917" lon="9.974087208204992"><ele>66.0</ele><time>2026-03-22T08:07:44.999Z</time></trkpt><trkpt lat="44.90331198737092" lon="9.97403993474217"><ele>66.0</ele><time>2026-03-22T08:07:45.999Z</time></trkpt><trkpt lat="44.90324602318858" lon="9.973995423660156"><ele>66.16666666666667</ele><time>2026-03-22T08:07:46.999Z</time></trkpt><trkpt lat="44.903178399443654" lon="9.97395199858948"><ele>66.33333333333333</ele><time>2026-03-22T08:07:47.999Z</time></trkpt><trkpt lat="44.90311248041957" lon="9.973906908821574"><ele>66.5</ele><time>2026-03-22T08:07:48.999Z</time></trkpt><trkpt lat="44.90304513468553" lon="9.973860290000538"><ele>66.66666666666666</ele><time>2026-03-22T08:07:49.999Z</time></trkpt><trkpt lat="44.902980111949276" lon="9.97381470516535"><ele>66.83333333333333</ele><time>2026-03-22T08:07:50.999Z</time></trkpt><trkpt lat="44.90291009771167" lon="9.973755016356478"><ele>67.0</ele><time>2026-03-22T08:07:51.999Z</time></trkpt><trkpt lat="44.90284274685927" lon="9.973703911065556"><ele>67.0</ele><time>2026-03-22T08:07:52.999Z</time></trkpt><trkpt lat="44.9027687010174" lon="9.97365288642827"><ele>67.0</ele><time>2026-03-22T08:07:53.999Z</time></trkpt><trkpt lat="44.902699071406" lon="9.973607465263798"><ele>67.0</ele><time>2026-03-22T08:07:54.999Z</time></trkpt><trkpt lat="44.90262754200319" lon="9.973565400898819"><ele>67.0</ele><time>2026-03-22T08:07:55.999Z</time></trkpt><trkpt lat="44.90255114601395" lon="9.973529419239552"><ele>67.0</ele><time>2026-03-22T08:07:56.999Z</time></trkpt><trkpt lat="44.90247616003384" lon="9.973499841269112"><ele>67.0</ele><time>2026-03-22T08:07:57.999Z</time></trkpt><trkpt lat="44.90239381026012" lon="9.973476928441787"><ele>67.2</ele><time>2026-03-22T08:07:58.999Z</time></trkpt><trkpt lat="44.902309588035514" lon="9.973451372170787"><ele>67.4</ele><time>2026-03-22T08:07:59.999Z</time></trkpt><trkpt lat="44.90222099747603" lon="9.973424727831567"><ele>67.6</ele><time>2026-03-22T08:08:00.999Z</time></trkpt><trkpt lat="44.90212870816169" lon="9.973398931585507"><ele>67.8</ele><time>2026-03-22T08:08:01.999Z</time></trkpt><trkpt lat="44.90203619166336" lon="9.973371801882248"><ele>68.0</ele><time>2026-03-22T08:08:02.999Z</time></trkpt><trkpt lat="44.90194207989565" lon="9.973333960603123"><ele>68.0</ele><time>2026-03-22T08:08:03.999Z</time></trkpt><trkpt lat="44.90184571132717" lon="9.97328251283575"><ele>68.0</ele><time>2026-03-22T08:08:04.999Z</time></trkpt><trkpt lat="44.90174475825406" lon="9.973226741857106"><ele>68.0</ele><time>2026-03-22T08:08:05.999Z</time></trkpt><trkpt lat="44.90165829797726" lon="9.973174626396968"><ele>68.0</ele><time>2026-03-22T08:08:06.999Z</time></trkpt><trkpt lat="44.901574143686275" lon="9.973124772725074"><ele>68.0</ele><time>2026-03-22T08:08:07.999Z</time></trkpt><trkpt lat="44.90148004243196" lon="9.97306249640594"><ele>68.0</ele><time>2026-03-22T08:08:08.999Z</time></trkpt><trkpt lat="44.90140219198359" lon="9.97300320392721"><ele>68.0</ele><time>2026-03-22T08:08:09.999Z</time></trkpt><trkpt lat="44.90132935782155" lon="9.972959402486165"><ele>68.0</ele><time>2026-03-22T08:08:10.999Z</time></trkpt><trkpt lat="44.90125232298495" lon="9.972916717663423"><ele>68.0</ele><time>2026-03-22T08:08:11.999Z</time></trkpt><trkpt lat="44.90118294277596" lon="9.972866552892048"><ele>68.0</ele><time>2026-03-22T08:08:12.999Z</time></trkpt><trkpt lat="44.90111864900311" lon="9.972821585915526"><ele>68.0</ele><time>2026-03-22T08:08:13.999Z</time></trkpt><trkpt lat="44.90105523683044" lon="9.972770644078544"><ele>68.0</ele><time>2026-03-22T08:08:14.999Z</time></trkpt><trkpt lat="44.90099580939467" lon="9.97271207086354"><ele>68.0</ele><time>2026-03-22T08:08:15.999Z</time></trkpt><trkpt lat="44.900941425448906" lon="9.97265532173125"><ele>68.0</ele><time>2026-03-22T08:08:16.999Z</time></trkpt><trkpt lat="44.90089177991119" lon="9.97259885347238"><ele>68.0</ele><time>2026-03-22T08:08:17.999Z</time></trkpt><trkpt lat="44.900796692191804" lon="9.97248851939976"><ele>68.0</ele><time>2026-03-22T08:08:19.999Z</time></trkpt><trkpt lat="44.90071357789499" lon="9.972375733431338"><ele>68.0</ele><time>2026-03-22T08:08:21.999Z</time></trkpt><trkpt lat="44.90064489826802" lon="9.972251858842485"><ele>68.5</ele><time>2026-03-22T08:08:23.999Z</time></trkpt><trkpt lat="44.900582596364615" lon="9.972117923378663"><ele>69.0</ele><time>2026-03-22T08:08:25.998Z</time></trkpt><trkpt lat="44.90051185558645" lon="9.971987268491716"><ele>69.5</ele><time>2026-03-22T08:08:27.998Z</time></trkpt><trkpt lat="44.90043813139526" lon="9.971850658382094"><ele>70.0</ele><time>2026-03-22T08:08:29.998Z</time></trkpt><trkpt lat="44.90035514514724" lon="9.971721754568081"><ele>70.33333333333333</ele><time>2026-03-22T08:08:31.998Z</time></trkpt><trkpt lat="44.90030872974244" lon="9.97165960044827"><ele>70.66666666666666</ele><time>2026-03-22T08:08:32.998Z</time></trkpt><trkpt lat="44.900211642735805" lon="9.971543140501621"><ele>71.0</ele><time>2026-03-22T08:08:34.998Z</time></trkpt><trkpt lat="44.9001592513104" lon="9.971490957590095"><ele>71.33333333333333</ele><time>2026-03-22T08:08:35.998Z</time></trkpt><trkpt lat="44.90010621929597" lon="9.971437307419372"><ele>71.66666666666667</ele><time>2026-03-22T08:08:36.998Z</time></trkpt><trkpt lat="44.90005024242297" lon="9.971386849682316"><ele>72.0</ele><time>2026-03-22T08:08:38Z</time></trkpt><trkpt lat="44.899997021712345" lon="9.971335617428606"><ele>72.0</ele><time>2026-03-22T08:08:39Z</time></trkpt><trkpt lat="44.89994264113635" lon="9.971284854805077"><ele>72.0</ele><time>2026-03-22T08:08:40Z</time></trkpt><trkpt lat="44.899890869441876" lon="9.971230609725259"><ele>72.0</ele><time>2026-03-22T08:08:41Z</time></trkpt><trkpt lat="44.89983542798117" lon="9.97117866229643"><ele>72.0</ele><time>2026-03-22T08:08:42Z</time></trkpt><trkpt lat="44.89978259488259" lon="9.971128222959164"><ele>72.0</ele><time>2026-03-22T08:08:43Z</time></trkpt><trkpt lat="44.899677461767965" lon="9.971023288308787"><ele>72.0</ele><time>2026-03-22T08:08:45Z</time></trkpt><trkpt lat="44.89962342094452" lon="9.970973439076719"><ele>72.00000000000001</ele><time>2026-03-22T08:08:46Z</time></trkpt><trkpt lat="44.89956989952238" lon="9.97092271017719"><ele>72.0</ele><time>2026-03-22T08:08:47Z</time></trkpt><trkpt lat="44.89951609570023" lon="9.970873515903074"><ele>72.0</ele><time>2026-03-22T08:08:48Z</time></trkpt><trkpt lat="44.899461193734396" lon="9.970823092042046"><ele>72.0</ele><time>2026-03-22T08:08:49Z</time></trkpt><trkpt lat="44.89940825966062" lon="9.970774667934982"><ele>72.0</ele><time>2026-03-22T08:08:50Z</time></trkpt><trkpt lat="44.89930373489398" lon="9.970675484372965"><ele>72.00000000000001</ele><time>2026-03-22T08:08:52Z</time></trkpt><trkpt lat="44.899251308570896" lon="9.970625231502947"><ele>72.0</ele><time>2026-03-22T08:08:53Z</time></trkpt><trkpt lat="44.89919830938538" lon="9.970571887085054"><ele>72.28571428571429</ele><time>2026-03-22T08:08:54Z</time></trkpt><trkpt lat="44.89914551325795" lon="9.970520195542742"><ele>72.57142857142857</ele><time>2026-03-22T08:08:55Z</time></trkpt><trkpt lat="44.8990909168786" lon="9.97046964390399"><ele>72.85714285714286</ele><time>2026-03-22T08:08:56Z</time></trkpt><trkpt lat="44.899037764749295" lon="9.970417889512841"><ele>73.14285714285714</ele><time>2026-03-22T08:08:57Z</time></trkpt><trkpt lat="44.898980999547575" lon="9.970364906353744"><ele>73.42857142857143</ele><time>2026-03-22T08:08:58Z</time></trkpt><trkpt lat="44.89892742192392" lon="9.97031590690266"><ele>73.71428571428572</ele><time>2026-03-22T08:08:59Z</time></trkpt><trkpt lat="44.898871234259516" lon="9.970263566319172"><ele>74.0</ele><time>2026-03-22T08:09:00Z</time></trkpt><trkpt lat="44.89881774122728" lon="9.970211173404527"><ele>74.0</ele><time>2026-03-22T08:09:01Z</time></trkpt><trkpt lat="44.89876135340319" lon="9.97016089349029"><ele>74.0</ele><time>2026-03-22T08:09:02Z</time></trkpt><trkpt lat="44.898706493539045" lon="9.970112882077215"><ele>74.0</ele><time>2026-03-22T08:09:03Z</time></trkpt><trkpt lat="44.89865095923241" lon="9.970061483388783"><ele>74.0</ele><time>2026-03-22T08:09:04Z</time></trkpt><trkpt lat="44.898593832478795" lon="9.970010999109144"><ele>74.0</ele><time>2026-03-22T08:09:05Z</time></trkpt><trkpt lat="44.89854001110603" lon="9.96995775646168"><ele>74.0</ele><time>2026-03-22T08:09:06Z</time></trkpt><trkpt lat="44.89848340105948" lon="9.969909057537492"><ele>74.0</ele><time>2026-03-22T08:09:07Z</time></trkpt><trkpt lat="44.89842939423893" lon="9.969856459395563"><ele>74.14285714285714</ele><time>2026-03-22T08:09:08Z</time></trkpt><trkpt lat="44.89837169192681" lon="9.969802337050652"><ele>74.28571428571428</ele><time>2026-03-22T08:09:09Z</time></trkpt><trkpt lat="44.89831575710697" lon="9.969751950992483"><ele>74.42857142857142</ele><time>2026-03-22T08:09:10Z</time></trkpt><trkpt lat="44.89825703406812" lon="9.969701919923065"><ele>74.57142857142857</ele><time>2026-03-22T08:09:11Z</time></trkpt><trkpt lat="44.89820025521101" lon="9.969650049683771"><ele>74.71428571428571</ele><time>2026-03-22T08:09:12Z</time></trkpt><trkpt lat="44.89814214879837" lon="9.969595156914599"><ele>74.85714285714285</ele><time>2026-03-22T08:09:13Z</time></trkpt><trkpt lat="44.89808659205324" lon="9.969541736045658"><ele>75.0</ele><time>2026-03-22T08:09:14Z</time></trkpt><trkpt lat="44.89803079749463" lon="9.969487645204616"><ele>74.99999999999999</ele><time>2026-03-22T08:09:15Z</time></trkpt><trkpt lat="44.897975319187914" lon="9.969431375687464"><ele>75.0</ele><time>2026-03-22T08:09:16Z</time></trkpt><trkpt lat="44.89792019865475" lon="9.969378902587756"><ele>75.0</ele><time>2026-03-22T08:09:17Z</time></trkpt><trkpt lat="44.897865422184054" lon="9.96932771457534"><ele>75.0</ele><time>2026-03-22T08:09:18Z</time></trkpt><trkpt lat="44.89781077881541" lon="9.969273930543908"><ele>75.0</ele><time>2026-03-22T08:09:19Z</time></trkpt><trkpt lat="44.89775601246161" lon="9.969221875681855"><ele>74.99999999999999</ele><time>2026-03-22T08:09:20Z</time></trkpt><trkpt lat="44.897700783547144" lon="9.969173161890463"><ele>75.0</ele><time>2026-03-22T08:09:21Z</time></trkpt><trkpt lat="44.89764214747373" lon="9.969125290821557"><ele>75.14285714285714</ele><time>2026-03-22T08:09:22Z</time></trkpt><trkpt lat="44.89758578482852" lon="9.9690728339199"><ele>75.28571428571428</ele><time>2026-03-22T08:09:23Z</time></trkpt><trkpt lat="44.89752788932203" lon="9.96902821712087"><ele>75.42857142857142</ele><time>2026-03-22T08:09:24Z</time></trkpt><trkpt lat="44.89747548338789" lon="9.968966006062054"><ele>75.57142857142857</ele><time>2026-03-22T08:09:25Z</time></trkpt><trkpt lat="44.897421430071674" lon="9.96891218379913"><ele>75.71428571428572</ele><time>2026-03-22T08:09:26Z</time></trkpt><trkpt lat="44.89736562208799" lon="9.968857063632363"><ele>75.85714285714285</ele><time>2026-03-22T08:09:27Z</time></trkpt><trkpt lat="44.89730728155557" lon="9.96880291312854"><ele>76.0</ele><time>2026-03-22T08:09:28Z</time></trkpt><trkpt lat="44.897248472131544" lon="9.968755086004176"><ele>76.16666666666666</ele><time>2026-03-22T08:09:29Z</time></trkpt><trkpt lat="44.89719143649342" lon="9.968707987981352"><ele>76.33333333333333</ele><time>2026-03-22T08:09:30Z</time></trkpt><trkpt lat="44.89713274796252" lon="9.968658975386724"><ele>76.5</ele><time>2026-03-22T08:09:31Z</time></trkpt><trkpt lat="44.89707749456397" lon="9.968608578792903"><ele>76.66666666666667</ele><time>2026-03-22T08:09:32Z</time></trkpt><trkpt lat="44.89702379668543" lon="9.968560574115138"><ele>76.83333333333334</ele><time>2026-03-22T08:09:33Z</time></trkpt><trkpt lat="44.896925142353524" lon="9.968465504558756"><ele>77.0</ele><time>2026-03-22T08:09:34.999Z</time></trkpt><trkpt lat="44.8968341738278" lon="9.968373755427733"><ele>77.16666666666667</ele><time>2026-03-22T08:09:36.999Z</time></trkpt><trkpt lat="44.896752635434204" lon="9.968277038324526"><ele>77.33333333333334</ele><time>2026-03-22T08:09:38.999Z</time></trkpt><trkpt lat="44.89667735177772" lon="9.968195568916487"><ele>77.5</ele><time>2026-03-22T08:09:40.999Z</time></trkpt><trkpt lat="44.896611210587295" lon="9.968117807260604"><ele>77.66666666666667</ele><time>2026-03-22T08:09:42.999Z</time></trkpt><trkpt lat="44.89655024481159" lon="9.96804234211725"><ele>77.83333333333333</ele><time>2026-03-22T08:09:44.999Z</time></trkpt><trkpt lat="44.896493907571" lon="9.96797617194363"><ele>78.0</ele><time>2026-03-22T08:09:46.999Z</time></trkpt><trkpt lat="44.8964448692272" lon="9.967912085546288"><ele>78.0</ele><time>2026-03-22T08:09:48.999Z</time></trkpt><trkpt lat="44.89638763354931" lon="9.96783251531275"><ele>78.0</ele><time>2026-03-22T08:09:51.999Z</time></trkpt><trkpt lat="44.89632270555609" lon="9.967772023125892"><ele>78.0</ele><time>2026-03-22T08:09:55.999Z</time></trkpt><trkpt lat="44.896229262953916" lon="9.967785290007475"><ele>78.0</ele><time>2026-03-22T08:09:58.999Z</time></trkpt><trkpt lat="44.89613348656797" lon="9.967767028815025"><ele>78.0</ele><time>2026-03-22T08:10:01.999Z</time></trkpt><trkpt lat="44.89605287461489" lon="9.967668906008008"><ele>78.0</ele><time>2026-03-22T08:10:03.999Z</time></trkpt><trkpt lat="44.89596158061073" lon="9.967581639955812"><ele>78.0</ele><time>2026-03-22T08:10:05.999Z</time></trkpt><trkpt lat="44.89585552934194" lon="9.96751577313294"><ele>78.0</ele><time>2026-03-22T08:10:07.999Z</time></trkpt><trkpt lat="44.8957596391938" lon="9.967416386842215"><ele>78.0</ele><time>2026-03-22T08:10:09.999Z</time></trkpt><trkpt lat="44.895675314874545" lon="9.967318984349042"><ele>78.4</ele><time>2026-03-22T08:10:11.999Z</time></trkpt><trkpt lat="44.89558471235588" lon="9.967224642697241"><ele>78.8</ele><time>2026-03-22T08:10:13.999Z</time></trkpt><trkpt lat="44.89549000975435" lon="9.967140469313795"><ele>79.2</ele><time>2026-03-22T08:10:15.999Z</time></trkpt><trkpt lat="44.89540321306921" lon="9.967041694535551"><ele>79.6</ele><time>2026-03-22T08:10:17.999Z</time></trkpt><trkpt lat="44.89531532045179" lon="9.966959642104982"><ele>80.0</ele><time>2026-03-22T08:10:19.999Z</time></trkpt><trkpt lat="44.895218546082646" lon="9.966864829175956"><ele>80.0</ele><time>2026-03-22T08:10:21.999Z</time></trkpt><trkpt lat="44.89513106722898" lon="9.966772179123183"><ele>80.0</ele><time>2026-03-22T08:10:23.999Z</time></trkpt><trkpt lat="44.8950396769737" lon="9.966674312207903"><ele>80.0</ele><time>2026-03-22T08:10:25.999Z</time></trkpt><trkpt lat="44.89495237116834" lon="9.966577152791404"><ele>80.0</ele><time>2026-03-22T08:10:27.999Z</time></trkpt><trkpt lat="44.89487258935025" lon="9.966476391493"><ele>80.0</ele><time>2026-03-22T08:10:29.999Z</time></trkpt><trkpt lat="44.894807916546625" lon="9.966380656272094"><ele>79.8</ele><time>2026-03-22T08:10:31.998Z</time></trkpt><trkpt lat="44.894741887600674" lon="9.966268682290421"><ele>79.6</ele><time>2026-03-22T08:10:33.998Z</time></trkpt><trkpt lat="44.89468236694237" lon="9.966156590457263"><ele>79.4</ele><time>2026-03-22T08:10:35.998Z</time></trkpt><trkpt lat="44.894627057106064" lon="9.966040958041873"><ele>79.2</ele><time>2026-03-22T08:10:37.998Z</time></trkpt><trkpt lat="44.89457251573882" lon="9.9659464782773"><ele>79.0</ele><time>2026-03-22T08:10:39.998Z</time></trkpt><trkpt lat="44.89452184931657" lon="9.96582753529288"><ele>79.4</ele><time>2026-03-22T08:10:41.998Z</time></trkpt><trkpt lat="44.89446201695439" lon="9.965695160331387"><ele>79.80000000000001</ele><time>2026-03-22T08:10:44Z</time></trkpt><trkpt lat="44.89440656574855" lon="9.965550529787919"><ele>80.19999999999999</ele><time>2026-03-22T08:10:46Z</time></trkpt><trkpt lat="44.894354092410296" lon="9.965419157506629"><ele>80.6</ele><time>2026-03-22T08:10:48Z</time></trkpt><trkpt lat="44.89429033485155" lon="9.965287933226017"><ele>81.0</ele><time>2026-03-22T08:10:50Z</time></trkpt><trkpt lat="44.89423283122007" lon="9.965146331363401"><ele>81.4</ele><time>2026-03-22T08:10:52Z</time></trkpt><trkpt lat="44.89418054805518" lon="9.965011348699868"><ele>81.8</ele><time>2026-03-22T08:10:54Z</time></trkpt><trkpt lat="44.89412577302413" lon="9.964878071068249"><ele>82.2</ele><time>2026-03-22T08:10:56Z</time></trkpt><trkpt lat="44.89404759848295" lon="9.964762278166326"><ele>82.60000000000001</ele><time>2026-03-22T08:10:58Z</time></trkpt><trkpt lat="44.89398324477032" lon="9.964626911300055"><ele>83.0</ele><time>2026-03-22T08:11:00Z</time></trkpt><trkpt lat="44.893915711995454" lon="9.964488556322134"><ele>83.0</ele><time>2026-03-22T08:11:02Z</time></trkpt><trkpt lat="44.893851485884326" lon="9.964356697179703"><ele>83.0</ele><time>2026-03-22T08:11:04Z</time></trkpt><trkpt lat="44.893785670914774" lon="9.964222187584122"><ele>83.0</ele><time>2026-03-22T08:11:06Z</time></trkpt><trkpt lat="44.89371744568935" lon="9.964083637937328"><ele>83.0</ele><time>2026-03-22T08:11:08Z</time></trkpt><trkpt lat="44.89365013822091" lon="9.96395145548327"><ele>83.0</ele><time>2026-03-22T08:11:10Z</time></trkpt><trkpt lat="44.89357885908059" lon="9.963822916974689"><ele>83.0</ele><time>2026-03-22T08:11:12Z</time></trkpt><trkpt lat="44.89350532335797" lon="9.963700342270416"><ele>83.0</ele><time>2026-03-22T08:11:14Z</time></trkpt><trkpt lat="44.893426308930614" lon="9.963573867590338"><ele>83.0</ele><time>2026-03-22T08:11:16Z</time></trkpt><trkpt lat="44.89334701340728" lon="9.963447697537534"><ele>82.5</ele><time>2026-03-22T08:11:18Z</time></trkpt><trkpt lat="44.89327825427345" lon="9.963309797884428"><ele>82.0</ele><time>2026-03-22T08:11:20Z</time></trkpt><trkpt lat="44.89319771644349" lon="9.963183897025695"><ele>81.5</ele><time>2026-03-22T08:11:22Z</time></trkpt><trkpt lat="44.89311766795013" lon="9.96305325885227"><ele>81.0</ele><time>2026-03-22T08:11:24Z</time></trkpt><trkpt lat="44.89303391274278" lon="9.962931297146815"><ele>81.0</ele><time>2026-03-22T08:11:26Z</time></trkpt><trkpt lat="44.89299196537444" lon="9.962865011273898"><ele>81.0</ele><time>2026-03-22T08:11:27Z</time></trkpt><trkpt lat="44.89294920917254" lon="9.962798455662915"><ele>81.0</ele><time>2026-03-22T08:11:28Z</time></trkpt><trkpt lat="44.89290701680921" lon="9.962732330679351"><ele>81.0</ele><time>2026-03-22T08:11:29Z</time></trkpt><trkpt lat="44.89286430562752" lon="9.962664660354337"><ele>81.0</ele><time>2026-03-22T08:11:30Z</time></trkpt><trkpt lat="44.8928208465728" lon="9.962598093773599"><ele>81.0</ele><time>2026-03-22T08:11:31Z</time></trkpt><trkpt lat="44.892778483611394" lon="9.962530860904428"><ele>81.0</ele><time>2026-03-22T08:11:32Z</time></trkpt><trkpt lat="44.89273645119105" lon="9.962464619968719"><ele>81.0</ele><time>2026-03-22T08:11:33Z</time></trkpt><trkpt lat="44.8926537148137" lon="9.96233365829197"><ele>81.33333333333333</ele><time>2026-03-22T08:11:35Z</time></trkpt><trkpt lat="44.892567286464256" lon="9.962202376398452"><ele>81.66666666666667</ele><time>2026-03-22T08:11:37Z</time></trkpt><trkpt lat="44.892524073149985" lon="9.962135296182863"><ele>82.0</ele><time>2026-03-22T08:11:38Z</time></trkpt><trkpt lat="44.89248126518749" lon="9.962068903831305"><ele>82.33333333333334</ele><time>2026-03-22T08:11:38.999Z</time></trkpt><trkpt lat="44.89239806570014" lon="9.961939494537033"><ele>82.66666666666667</ele><time>2026-03-22T08:11:40.999Z</time></trkpt><trkpt lat="44.89235650233602" lon="9.961872666391226"><ele>83.0</ele><time>2026-03-22T08:11:41.999Z</time></trkpt><trkpt lat="44.89231371191103" lon="9.961805442505971"><ele>83.0</ele><time>2026-03-22T08:11:42.999Z</time></trkpt><trkpt lat="44.892271018168934" lon="9.961738277543756"><ele>83.0</ele><time>2026-03-22T08:11:43.999Z</time></trkpt><trkpt lat="44.892227578259714" lon="9.961671771509739"><ele>83.0</ele><time>2026-03-22T08:11:44.999Z</time></trkpt><trkpt lat="44.89214239513212" lon="9.96154074476557"><ele>83.0</ele><time>2026-03-22T08:11:46.999Z</time></trkpt><trkpt lat="44.892099720961205" lon="9.961474372681721"><ele>83.0</ele><time>2026-03-22T08:11:47.999Z</time></trkpt><trkpt lat="44.89205636400321" lon="9.961407680080873"><ele>83.0</ele><time>2026-03-22T08:11:48.999Z</time></trkpt><trkpt lat="44.89201326255136" lon="9.961340072968307"><ele>83.0</ele><time>2026-03-22T08:11:49.999Z</time></trkpt><trkpt lat="44.89197070883231" lon="9.961271720692325"><ele>83.0</ele><time>2026-03-22T08:11:50.999Z</time></trkpt><trkpt lat="44.89192797688248" lon="9.961202360338381"><ele>83.0</ele><time>2026-03-22T08:11:51.999Z</time></trkpt><trkpt lat="44.8918849601487" lon="9.961136042981066"><ele>83.0</ele><time>2026-03-22T08:11:52.999Z</time></trkpt><trkpt lat="44.89184187454054" lon="9.961069241469035"><ele>83.0</ele><time>2026-03-22T08:11:53.999Z</time></trkpt><trkpt lat="44.89175883984684" lon="9.960937282687537"><ele>83.0</ele><time>2026-03-22T08:11:55.999Z</time></trkpt><trkpt lat="44.89167538867828" lon="9.960803038715111"><ele>83.0</ele><time>2026-03-22T08:11:57.999Z</time></trkpt><trkpt lat="44.89163237738293" lon="9.960736472858967"><ele>83.14285714285714</ele><time>2026-03-22T08:11:58.999Z</time></trkpt><trkpt lat="44.89158845568334" lon="9.96066801724903"><ele>83.28571428571429</ele><time>2026-03-22T08:11:59.999Z</time></trkpt><trkpt lat="44.89154530407148" lon="9.96059947358637"><ele>83.42857142857143</ele><time>2026-03-22T08:12:00.999Z</time></trkpt><trkpt lat="44.891502603711345" lon="9.960531815705679"><ele>83.57142857142857</ele><time>2026-03-22T08:12:01.999Z</time></trkpt><trkpt lat="44.89145789397044" lon="9.960465872357084"><ele>83.71428571428572</ele><time>2026-03-22T08:12:02.999Z</time></trkpt><trkpt lat="44.89141584707993" lon="9.960397491748402"><ele>83.85714285714286</ele><time>2026-03-22T08:12:03.999Z</time></trkpt><trkpt lat="44.89137268528879" lon="9.960331109363775"><ele>84.0</ele><time>2026-03-22T08:12:04.999Z</time></trkpt><trkpt lat="44.89128656652106" lon="9.96020116144647"><ele>84.0</ele><time>2026-03-22T08:12:06.999Z</time></trkpt><trkpt lat="44.89124374832805" lon="9.960135179884396"><ele>84.0</ele><time>2026-03-22T08:12:07.999Z</time></trkpt><trkpt lat="44.89120089743276" lon="9.96006761406849"><ele>84.0</ele><time>2026-03-22T08:12:08.999Z</time></trkpt><trkpt lat="44.89115885331658" lon="9.959998400916373"><ele>84.0</ele><time>2026-03-22T08:12:09.999Z</time></trkpt><trkpt lat="44.89111721653058" lon="9.959928162141884"><ele>84.0</ele><time>2026-03-22T08:12:10.999Z</time></trkpt><trkpt lat="44.891073947843175" lon="9.959855436152333"><ele>84.0</ele><time>2026-03-22T08:12:11.999Z</time></trkpt><trkpt lat="44.891028512279505" lon="9.959786790204124"><ele>84.0</ele><time>2026-03-22T08:12:12.999Z</time></trkpt><trkpt lat="44.890984144387865" lon="9.959722191376313"><ele>84.0</ele><time>2026-03-22T08:12:13.999Z</time></trkpt><trkpt lat="44.89094066460182" lon="9.9596541518591"><ele>84.0</ele><time>2026-03-22T08:12:14.999Z</time></trkpt><trkpt lat="44.890898391896656" lon="9.959586352381992"><ele>84.0</ele><time>2026-03-22T08:12:15.999Z</time></trkpt><trkpt lat="44.89085512626738" lon="9.959518843141847"><ele>84.0</ele><time>2026-03-22T08:12:16.999Z</time></trkpt><trkpt lat="44.89076991550897" lon="9.95938765469113"><ele>84.0</ele><time>2026-03-22T08:12:18.999Z</time></trkpt><trkpt lat="44.89068558413035" lon="9.95925712855586"><ele>84.0</ele><time>2026-03-22T08:12:20.999Z</time></trkpt><trkpt lat="44.890601635196695" lon="9.95912600912753"><ele>84.14285714285714</ele><time>2026-03-22T08:12:22.999Z</time></trkpt><trkpt lat="44.89056049440106" lon="9.959058369889604"><ele>84.28571428571428</ele><time>2026-03-22T08:12:23.999Z</time></trkpt><trkpt lat="44.8905189776699" lon="9.958988378313679"><ele>84.42857142857143</ele><time>2026-03-22T08:12:24.999Z</time></trkpt><trkpt lat="44.89047790799682" lon="9.958919599902318"><ele>84.57142857142857</ele><time>2026-03-22T08:12:25.999Z</time></trkpt><trkpt lat="44.89043613323257" lon="9.958851533286403"><ele>84.71428571428571</ele><time>2026-03-22T08:12:26.999Z</time></trkpt><trkpt lat="44.890354917437314" lon="9.95872005227228"><ele>84.85714285714286</ele><time>2026-03-22T08:12:28.999Z</time></trkpt><trkpt lat="44.89031265230479" lon="9.958650485326613"><ele>85.0</ele><time>2026-03-22T08:12:29.999Z</time></trkpt><trkpt lat="44.890270333614374" lon="9.958582598473141"><ele>85.0</ele><time>2026-03-22T08:12:30.999Z</time></trkpt><trkpt lat="44.890227105820564" lon="9.958515375370101"><ele>85.0</ele><time>2026-03-22T08:12:31.999Z</time></trkpt><trkpt lat="44.89018377054375" lon="9.958446135855572"><ele>85.0</ele><time>2026-03-22T08:12:32.999Z</time></trkpt><trkpt lat="44.890141282492124" lon="9.95837789677679"><ele>85.0</ele><time>2026-03-22T08:12:33.999Z</time></trkpt><trkpt lat="44.89009911525842" lon="9.958308679131958"><ele>85.0</ele><time>2026-03-22T08:12:34.998Z</time></trkpt><trkpt lat="44.89005495171152" lon="9.958238316491887"><ele>85.0</ele><time>2026-03-22T08:12:35.998Z</time></trkpt><trkpt lat="44.89001094567499" lon="9.958169719037647"><ele>85.0</ele><time>2026-03-22T08:12:36.998Z</time></trkpt><trkpt lat="44.88996850807542" lon="9.95809916549004"><ele>85.28571428571429</ele><time>2026-03-22T08:12:37.998Z</time></trkpt><trkpt lat="44.88992327264327" lon="9.958027805795949"><ele>85.57142857142857</ele><time>2026-03-22T08:12:38.998Z</time></trkpt><trkpt lat="44.88987875676685" lon="9.957953203749684"><ele>85.85714285714286</ele><time>2026-03-22T08:12:39.998Z</time></trkpt><trkpt lat="44.88983623985513" lon="9.957875397423251"><ele>86.14285714285714</ele><time>2026-03-22T08:12:40.998Z</time></trkpt><trkpt lat="44.889797201901665" lon="9.957791569766002"><ele>86.42857142857143</ele><time>2026-03-22T08:12:41.998Z</time></trkpt><trkpt lat="44.88974343748012" lon="9.957719634852594"><ele>86.71428571428571</ele><time>2026-03-22T08:12:42.998Z</time></trkpt><trkpt lat="44.88970629170585" lon="9.957629855233288"><ele>87.0</ele><time>2026-03-22T08:12:43.998Z</time></trkpt><trkpt lat="44.88968282220135" lon="9.957528265862019"><ele>87.0</ele><time>2026-03-22T08:12:44.998Z</time></trkpt><trkpt lat="44.88964566014174" lon="9.957439633161085"><ele>87.0</ele><time>2026-03-22T08:12:45.998Z</time></trkpt><trkpt lat="44.88960651763306" lon="9.957351280848417"><ele>87.0</ele><time>2026-03-22T08:12:46.998Z</time></trkpt><trkpt lat="44.88956853834921" lon="9.957263385740882"><ele>87.0</ele><time>2026-03-22T08:12:47.998Z</time></trkpt><trkpt lat="44.889528391325726" lon="9.957177477159103"><ele>87.0</ele><time>2026-03-22T08:12:49Z</time></trkpt><trkpt lat="44.889487193050115" lon="9.95709534917824"><ele>87.0</ele><time>2026-03-22T08:12:50Z</time></trkpt><trkpt lat="44.88944599074794" lon="9.957016027488757"><ele>87.0</ele><time>2026-03-22T08:12:51Z</time></trkpt><trkpt lat="44.88940039220659" lon="9.956936365061813"><ele>87.0</ele><time>2026-03-22T08:12:52Z</time></trkpt><trkpt lat="44.889349778131766" lon="9.956859631189548"><ele>87.0</ele><time>2026-03-22T08:12:53Z</time></trkpt><trkpt lat="44.889296616686934" lon="9.956786038756213"><ele>87.0</ele><time>2026-03-22T08:12:54Z</time></trkpt><trkpt lat="44.889241414274785" lon="9.956714955636244"><ele>87.0</ele><time>2026-03-22T08:12:55Z</time></trkpt><trkpt lat="44.889182109397055" lon="9.956648965737777"><ele>87.0</ele><time>2026-03-22T08:12:56Z</time></trkpt><trkpt lat="44.88912008249563" lon="9.956588331047902"><ele>87.0</ele><time>2026-03-22T08:12:57Z</time></trkpt><trkpt lat="44.88905869480789" lon="9.95653312388476"><ele>87.0</ele><time>2026-03-22T08:12:58Z</time></trkpt><trkpt lat="44.8889999445576" lon="9.95647971293823"><ele>87.0</ele><time>2026-03-22T08:12:59Z</time></trkpt><trkpt lat="44.88894003332555" lon="9.95642781238848"><ele>87.0</ele><time>2026-03-22T08:13:00Z</time></trkpt><trkpt lat="44.88887744017771" lon="9.956378180885105"><ele>87.0</ele><time>2026-03-22T08:13:01Z</time></trkpt><trkpt lat="44.88881426813151" lon="9.956330910757329"><ele>87.0</ele><time>2026-03-22T08:13:02Z</time></trkpt><trkpt lat="44.88874947812114" lon="9.956283615893579"><ele>87.0</ele><time>2026-03-22T08:13:03Z</time></trkpt><trkpt lat="44.88868627921654" lon="9.956240230104598"><ele>87.0</ele><time>2026-03-22T08:13:04Z</time></trkpt><trkpt lat="44.888620062175434" lon="9.956201881659176"><ele>87.0</ele><time>2026-03-22T08:13:05Z</time></trkpt><trkpt lat="44.88855549781052" lon="9.956162428279079"><ele>87.0</ele><time>2026-03-22T08:13:06Z</time></trkpt><trkpt lat="44.8884913418545" lon="9.956122070121696"><ele>87.0</ele><time>2026-03-22T08:13:07Z</time></trkpt><trkpt lat="44.88842670387418" lon="9.95608475593775"><ele>87.0</ele><time>2026-03-22T08:13:08Z</time></trkpt><trkpt lat="44.88836246320308" lon="9.956047193872903"><ele>87.0</ele><time>2026-03-22T08:13:09Z</time></trkpt><trkpt lat="44.88829911283209" lon="9.956010153453551"><ele>87.0</ele><time>2026-03-22T08:13:10Z</time></trkpt><trkpt lat="44.888236058409454" lon="9.95597270702122"><ele>87.0</ele><time>2026-03-22T08:13:11Z</time></trkpt><trkpt lat="44.88817473989812" lon="9.955936071641512"><ele>87.0</ele><time>2026-03-22T08:13:12Z</time></trkpt><trkpt lat="44.88811404691319" lon="9.955897049727499"><ele>86.85714285714286</ele><time>2026-03-22T08:13:13Z</time></trkpt><trkpt lat="44.888052117462536" lon="9.9558580031668"><ele>86.71428571428572</ele><time>2026-03-22T08:13:14Z</time></trkpt><trkpt lat="44.88799202212204" lon="9.955820700836972"><ele>86.57142857142858</ele><time>2026-03-22T08:13:15Z</time></trkpt><trkpt lat="44.887932583712875" lon="9.955779662586766"><ele>86.42857142857143</ele><time>2026-03-22T08:13:16Z</time></trkpt><trkpt lat="44.887874984216516" lon="9.955738947346246"><ele>86.28571428571429</ele><time>2026-03-22T08:13:17Z</time></trkpt><trkpt lat="44.88781855067287" lon="9.955694309976485"><ele>86.14285714285715</ele><time>2026-03-22T08:13:18Z</time></trkpt><trkpt lat="44.88776251094415" lon="9.955646039383433"><ele>86.0</ele><time>2026-03-22T08:13:19Z</time></trkpt><trkpt lat="44.88770797842721" lon="9.955595111433485"><ele>86.00000000000001</ele><time>2026-03-22T08:13:20Z</time></trkpt><trkpt lat="44.8876555064105" lon="9.955541656957921"><ele>86.0</ele><time>2026-03-22T08:13:21Z</time></trkpt><trkpt lat="44.88760288302301" lon="9.95548566003901"><ele>86.0</ele><time>2026-03-22T08:13:22Z</time></trkpt><trkpt lat="44.88755199225069" lon="9.955427689317135"><ele>86.0</ele><time>2026-03-22T08:13:23Z</time></trkpt><trkpt lat="44.887500672105254" lon="9.955372002845142"><ele>86.0</ele><time>2026-03-22T08:13:24Z</time></trkpt><trkpt lat="44.88745128652797" lon="9.955314938749966"><ele>86.00000000000001</ele><time>2026-03-22T08:13:25Z</time></trkpt><trkpt lat="44.8873596206193" lon="9.955205018011156"><ele>86.0</ele><time>2026-03-22T08:13:27Z</time></trkpt><trkpt lat="44.887276726909526" lon="9.955089283008485"><ele>86.75</ele><time>2026-03-22T08:13:29Z</time></trkpt><trkpt lat="44.887187707703056" lon="9.954972814187618"><ele>87.5</ele><time>2026-03-22T08:13:31Z</time></trkpt><trkpt lat="44.88710300553602" lon="9.954862724941622"><ele>88.25</ele><time>2026-03-22T08:13:33Z</time></trkpt><trkpt lat="44.88701930434574" lon="9.954757461233953"><ele>89.0</ele><time>2026-03-22T08:13:35Z</time></trkpt><trkpt lat="44.88693692789807" lon="9.954634403733634"><ele>89.0</ele><time>2026-03-22T08:13:37Z</time></trkpt><trkpt lat="44.88685918243414" lon="9.954517249136252"><ele>89.0</ele><time>2026-03-22T08:13:39Z</time></trkpt><trkpt lat="44.886787950478805" lon="9.954408248017536"><ele>89.0</ele><time>2026-03-22T08:13:41Z</time></trkpt><trkpt lat="44.88671981948539" lon="9.954300098852018"><ele>89.0</ele><time>2026-03-22T08:13:42.999Z</time></trkpt><trkpt lat="44.88665406026706" lon="9.954168717378183"><ele>89.0</ele><time>2026-03-22T08:13:44.999Z</time></trkpt><trkpt lat="44.88661101676828" lon="9.954009225696533"><ele>89.2</ele><time>2026-03-22T08:13:46.999Z</time></trkpt><trkpt lat="44.88658614092944" lon="9.953831679261093"><ele>89.4</ele><time>2026-03-22T08:13:48.999Z</time></trkpt><trkpt lat="44.88657734011445" lon="9.953739055532237"><ele>89.6</ele><time>2026-03-22T08:13:49.999Z</time></trkpt><trkpt lat="44.88656946201782" lon="9.95356026061958"><ele>89.8</ele><time>2026-03-22T08:13:51.999Z</time></trkpt><trkpt lat="44.88656097948273" lon="9.95346895475688"><ele>90.0</ele><time>2026-03-22T08:13:52.999Z</time></trkpt><trkpt lat="44.88655332306635" lon="9.953375707246998"><ele>89.71428571428571</ele><time>2026-03-22T08:13:53.999Z</time></trkpt><trkpt lat="44.886544699763284" lon="9.95328607652858"><ele>89.42857142857143</ele><time>2026-03-22T08:13:54.999Z</time></trkpt><trkpt lat="44.88652744906859" lon="9.95310989587944"><ele>89.14285714285714</ele><time>2026-03-22T08:13:56.999Z</time></trkpt><trkpt lat="44.88652271902533" lon="9.953020903900741"><ele>88.85714285714286</ele><time>2026-03-22T08:13:57.999Z</time></trkpt><trkpt lat="44.88651647695493" lon="9.952931829692236"><ele>88.57142857142857</ele><time>2026-03-22T08:13:58.999Z</time></trkpt><trkpt lat="44.88651117372026" lon="9.952840773581798"><ele>88.28571428571429</ele><time>2026-03-22T08:13:59.999Z</time></trkpt><trkpt lat="44.88650409433296" lon="9.952751143799208"><ele>88.0</ele><time>2026-03-22T08:14:00.999Z</time></trkpt><trkpt lat="44.88649575880463" lon="9.952658919398923"><ele>88.0</ele><time>2026-03-22T08:14:01.999Z</time></trkpt><trkpt lat="44.88648579213013" lon="9.95256596259638"><ele>88.0</ele><time>2026-03-22T08:14:02.999Z</time></trkpt><trkpt lat="44.8864788748915" lon="9.952474776653323"><ele>88.0</ele><time>2026-03-22T08:14:03.999Z</time></trkpt><trkpt lat="44.88647082560512" lon="9.95238210872121"><ele>88.0</ele><time>2026-03-22T08:14:04.999Z</time></trkpt><trkpt lat="44.886462508809906" lon="9.952290281149985"><ele>88.0</ele><time>2026-03-22T08:14:05.999Z</time></trkpt><trkpt lat="44.88645404083031" lon="9.952200809763413"><ele>88.0</ele><time>2026-03-22T08:14:06.999Z</time></trkpt><trkpt lat="44.88644594225987" lon="9.952109468776237"><ele>88.0</ele><time>2026-03-22T08:14:07.999Z</time></trkpt><trkpt lat="44.88643688997937" lon="9.952017845039618"><ele>88.14285714285714</ele><time>2026-03-22T08:14:08.999Z</time></trkpt><trkpt lat="44.886427845574524" lon="9.951924804385254"><ele>88.28571428571428</ele><time>2026-03-22T08:14:09.999Z</time></trkpt><trkpt lat="44.88642099756745" lon="9.9518335271057"><ele>88.42857142857142</ele><time>2026-03-22T08:14:10.999Z</time></trkpt><trkpt lat="44.886413075338055" lon="9.951741794387592"><ele>88.57142857142857</ele><time>2026-03-22T08:14:11.999Z</time></trkpt><trkpt lat="44.886404068423275" lon="9.951651409621274"><ele>88.71428571428571</ele><time>2026-03-22T08:14:12.999Z</time></trkpt><trkpt lat="44.88639486389536" lon="9.951561510365227"><ele>88.85714285714285</ele><time>2026-03-22T08:14:13.999Z</time></trkpt><trkpt lat="44.886382443765115" lon="9.951469316862198"><ele>89.0</ele><time>2026-03-22T08:14:14.999Z</time></trkpt><trkpt lat="44.886369706364306" lon="9.951379516742339"><ele>89.28571428571428</ele><time>2026-03-22T08:14:15.999Z</time></trkpt><trkpt lat="44.88635601975422" lon="9.951290954919603"><ele>89.57142857142857</ele><time>2026-03-22T08:14:16.999Z</time></trkpt><trkpt lat="44.88633875533234" lon="9.951202387981446"><ele>89.85714285714286</ele><time>2026-03-22T08:14:17.999Z</time></trkpt><trkpt lat="44.88631614786119" lon="9.951115121282522"><ele>90.14285714285714</ele><time>2026-03-22T08:14:18.999Z</time></trkpt><trkpt lat="44.88629224866687" lon="9.95102897643071"><ele>90.42857142857143</ele><time>2026-03-22T08:14:19.999Z</time></trkpt><trkpt lat="44.88626686551555" lon="9.950941754870623"><ele>90.71428571428571</ele><time>2026-03-22T08:14:20.999Z</time></trkpt><trkpt lat="44.88623829329459" lon="9.950855175676622"><ele>91.0</ele><time>2026-03-22T08:14:21.999Z</time></trkpt><trkpt lat="44.88620418768922" lon="9.950769663870604"><ele>91.0</ele><time>2026-03-22T08:14:22.999Z</time></trkpt><trkpt lat="44.88617406008428" lon="9.95068277219425"><ele>91.0</ele><time>2026-03-22T08:14:23.999Z</time></trkpt><trkpt lat="44.88614431490774" lon="9.950596681553117"><ele>91.0</ele><time>2026-03-22T08:14:24.999Z</time></trkpt><trkpt lat="44.8861133807508" lon="9.950512577225785"><ele>91.0</ele><time>2026-03-22T08:14:25.999Z</time></trkpt><trkpt lat="44.886082678727696" lon="9.95042716235159"><ele>91.0</ele><time>2026-03-22T08:14:26.999Z</time></trkpt><trkpt lat="44.88605137650107" lon="9.95034257352349"><ele>91.0</ele><time>2026-03-22T08:14:27.999Z</time></trkpt><trkpt lat="44.886021863370786" lon="9.950255924348188"><ele>91.0</ele><time>2026-03-22T08:14:28.999Z</time></trkpt><trkpt lat="44.88599183593052" lon="9.950172823213228"><ele>91.0</ele><time>2026-03-22T08:14:29.999Z</time></trkpt><trkpt lat="44.88596274725728" lon="9.950086378281355"><ele>91.0</ele><time>2026-03-22T08:14:30.999Z</time></trkpt><trkpt lat="44.88593401353047" lon="9.950001414344579"><ele>91.0</ele><time>2026-03-22T08:14:31.999Z</time></trkpt><trkpt lat="44.885905025932374" lon="9.94991527888134"><ele>91.0</ele><time>2026-03-22T08:14:32.999Z</time></trkpt><trkpt lat="44.88587373853264" lon="9.94983079272511"><ele>91.0</ele><time>2026-03-22T08:14:33.999Z</time></trkpt><trkpt lat="44.88584254579147" lon="9.94974404923379"><ele>91.0</ele><time>2026-03-22T08:14:34.999Z</time></trkpt><trkpt lat="44.885812287872" lon="9.949657405075932"><ele>91.0</ele><time>2026-03-22T08:14:35.999Z</time></trkpt><trkpt lat="44.88578410767625" lon="9.94957115250547"><ele>91.28571428571429</ele><time>2026-03-22T08:14:36.999Z</time></trkpt><trkpt lat="44.8857550295525" lon="9.94948455731257"><ele>91.57142857142857</ele><time>2026-03-22T08:14:37.999Z</time></trkpt><trkpt lat="44.88572435135996" lon="9.949400714237997"><ele>91.85714285714286</ele><time>2026-03-22T08:14:38.999Z</time></trkpt><trkpt lat="44.88569216716177" lon="9.949313307294164"><ele>92.14285714285714</ele><time>2026-03-22T08:14:39.998Z</time></trkpt><trkpt lat="44.88566294843145" lon="9.949227108023354"><ele>92.42857142857143</ele><time>2026-03-22T08:14:40.998Z</time></trkpt><trkpt lat="44.885630223955204" lon="9.949141273312888"><ele>92.71428571428572</ele><time>2026-03-22T08:14:41.998Z</time></trkpt><trkpt lat="44.88559896124473" lon="9.949053515612476"><ele>93.0</ele><time>2026-03-22T08:14:42.998Z</time></trkpt><trkpt lat="44.885566290633506" lon="9.94896703176394"><ele>93.28571428571429</ele><time>2026-03-22T08:14:43.998Z</time></trkpt><trkpt lat="44.88553433392138" lon="9.948880785945203"><ele>93.57142857142857</ele><time>2026-03-22T08:14:44.998Z</time></trkpt><trkpt lat="44.88550375825001" lon="9.948794150060765"><ele>93.85714285714286</ele><time>2026-03-22T08:14:45.998Z</time></trkpt><trkpt lat="44.8854725603331" lon="9.948707179873004"><ele>94.14285714285714</ele><time>2026-03-22T08:14:46.998Z</time></trkpt><trkpt lat="44.88544065470493" lon="9.94862123597804"><ele>94.42857142857143</ele><time>2026-03-22T08:14:47.998Z</time></trkpt><trkpt lat="44.885409644298804" lon="9.948536632053292"><ele>94.71428571428572</ele><time>2026-03-22T08:14:48.998Z</time></trkpt><trkpt lat="44.885380524069106" lon="9.948450577537232"><ele>95.0</ele><time>2026-03-22T08:14:49.998Z</time></trkpt><trkpt lat="44.88535072166312" lon="9.948363062538014"><ele>95.14285714285714</ele><time>2026-03-22T08:14:50.998Z</time></trkpt><trkpt lat="44.88532153955223" lon="9.948277306331367"><ele>95.28571428571429</ele><time>2026-03-22T08:14:51.998Z</time></trkpt><trkpt lat="44.88529002095555" lon="9.948191298539138"><ele>95.42857142857142</ele><time>2026-03-22T08:14:52.998Z</time></trkpt><trkpt lat="44.885259199564295" lon="9.948107528157802"><ele>95.57142857142857</ele><time>2026-03-22T08:14:53.998Z</time></trkpt><trkpt lat="44.88522701690983" lon="9.948025249886083"><ele>95.71428571428571</ele><time>2026-03-22T08:14:55Z</time></trkpt><trkpt lat="44.88519670736443" lon="9.947940714691017"><ele>95.85714285714285</ele><time>2026-03-22T08:14:56Z</time></trkpt><trkpt lat="44.885166722403106" lon="9.947855774334041"><ele>96.0</ele><time>2026-03-22T08:14:57Z</time></trkpt><trkpt lat="44.885135583821224" lon="9.947771747572327"><ele>95.99999999999999</ele><time>2026-03-22T08:14:58Z</time></trkpt><trkpt lat="44.88510626260169" lon="9.947688132229608"><ele>96.0</ele><time>2026-03-22T08:14:59Z</time></trkpt><trkpt lat="44.88507785644586" lon="9.947602681070176"><ele>96.0</ele><time>2026-03-22T08:15:00Z</time></trkpt><trkpt lat="44.88504953665626" lon="9.947516579688696"><ele>96.0</ele><time>2026-03-22T08:15:01Z</time></trkpt><trkpt lat="44.88501838205968" lon="9.947431758186045"><ele>96.0</ele><time>2026-03-22T08:15:02Z</time></trkpt><trkpt lat="44.884988260051784" lon="9.947347182797373"><ele>95.99999999999999</ele><time>2026-03-22T08:15:03Z</time></trkpt><trkpt lat="44.88495821705844" lon="9.947263525008584"><ele>96.0</ele><time>2026-03-22T08:15:04Z</time></trkpt><trkpt lat="44.884928153422564" lon="9.947177691595629"><ele>95.99999999999999</ele><time>2026-03-22T08:15:05Z</time></trkpt><trkpt lat="44.884898116937464" lon="9.94709180643043"><ele>96.0</ele><time>2026-03-22T08:15:06Z</time></trkpt><trkpt lat="44.88486944804215" lon="9.947006144917284"><ele>96.0</ele><time>2026-03-22T08:15:07Z</time></trkpt><trkpt lat="44.88484034813249" lon="9.946919895853911"><ele>96.0</ele><time>2026-03-22T08:15:08Z</time></trkpt><trkpt lat="44.884810162093096" lon="9.946834449674817"><ele>96.0</ele><time>2026-03-22T08:15:09Z</time></trkpt><trkpt lat="44.88478325636054" lon="9.946748532781223"><ele>95.99999999999999</ele><time>2026-03-22T08:15:10Z</time></trkpt><trkpt lat="44.88475943855475" lon="9.946659513490827"><ele>96.0</ele><time>2026-03-22T08:15:11Z</time></trkpt><trkpt lat="44.884736864791364" lon="9.946569380146345"><ele>95.99999999999999</ele><time>2026-03-22T08:15:12Z</time></trkpt><trkpt lat="44.88471768221806" lon="9.946478347751867"><ele>96.0</ele><time>2026-03-22T08:15:13Z</time></trkpt><trkpt lat="44.88469878408417" lon="9.946388468611291"><ele>96.0</ele><time>2026-03-22T08:15:14Z</time></trkpt><trkpt lat="44.88468133371281" lon="9.946298944531788"><ele>96.0</ele><time>2026-03-22T08:15:15Z</time></trkpt><trkpt lat="44.88466149149391" lon="9.946210654058563"><ele>96.0</ele><time>2026-03-22T08:15:16Z</time></trkpt><trkpt lat="44.88464389813078" lon="9.946120742797746"><ele>95.99999999999999</ele><time>2026-03-22T08:15:17Z</time></trkpt><trkpt lat="44.88462540988851" lon="9.946032507867013"><ele>96.0</ele><time>2026-03-22T08:15:18Z</time></trkpt><trkpt lat="44.884607184119695" lon="9.945944579587358"><ele>96.14285714285714</ele><time>2026-03-22T08:15:19Z</time></trkpt><trkpt lat="44.88458904392005" lon="9.945855793209457"><ele>96.28571428571428</ele><time>2026-03-22T08:15:20Z</time></trkpt><trkpt lat="44.8845733621342" lon="9.945765749807268"><ele>96.42857142857142</ele><time>2026-03-22T08:15:21Z</time></trkpt><trkpt lat="44.884556369445605" lon="9.945675788867064"><ele>96.57142857142857</ele><time>2026-03-22T08:15:22Z</time></trkpt><trkpt lat="44.88454081167079" lon="9.945584306007605"><ele>96.71428571428572</ele><time>2026-03-22T08:15:23Z</time></trkpt><trkpt lat="44.884526054177066" lon="9.945493140090987"><ele>96.85714285714285</ele><time>2026-03-22T08:15:24Z</time></trkpt><trkpt lat="44.884512300897626" lon="9.945401365184155"><ele>97.0</ele><time>2026-03-22T08:15:25Z</time></trkpt><trkpt lat="44.88450045734657" lon="9.945310210160034"><ele>97.0</ele><time>2026-03-22T08:15:26Z</time></trkpt><trkpt lat="44.88449129920328" lon="9.9452181848508"><ele>97.0</ele><time>2026-03-22T08:15:27Z</time></trkpt><trkpt lat="44.88448253987875" lon="9.94512552963052"><ele>97.0</ele><time>2026-03-22T08:15:28Z</time></trkpt><trkpt lat="44.88447521595226" lon="9.945031466229699"><ele>97.0</ele><time>2026-03-22T08:15:29Z</time></trkpt><trkpt lat="44.88446811502377" lon="9.944937456125427"><ele>97.0</ele><time>2026-03-22T08:15:30Z</time></trkpt><trkpt lat="44.88445881183685" lon="9.944846051409476"><ele>97.0</ele><time>2026-03-22T08:15:31Z</time></trkpt><trkpt lat="44.884448406286225" lon="9.944753765618279"><ele>97.0</ele><time>2026-03-22T08:15:32Z</time></trkpt><trkpt lat="44.884438455021034" lon="9.944663643569994"><ele>97.57142857142857</ele><time>2026-03-22T08:15:33Z</time></trkpt><trkpt lat="44.88443010431673" lon="9.944571280858725"><ele>98.14285714285715</ele><time>2026-03-22T08:15:34Z</time></trkpt><trkpt lat="44.8844227019561" lon="9.944478831374337"><ele>98.71428571428572</ele><time>2026-03-22T08:15:35Z</time></trkpt><trkpt lat="44.88441633941039" lon="9.94438696020915"><ele>99.28571428571428</ele><time>2026-03-22T08:15:36Z</time></trkpt><trkpt lat="44.884409520162144" lon="9.944294483304047"><ele>99.85714285714286</ele><time>2026-03-22T08:15:37Z</time></trkpt><trkpt lat="44.8844002991704" lon="9.944202759924629"><ele>100.42857142857143</ele><time>2026-03-22T08:15:38Z</time></trkpt><trkpt lat="44.884392009655265" lon="9.944111067144153"><ele>101.0</ele><time>2026-03-22T08:15:39Z</time></trkpt><trkpt lat="44.884383518603606" lon="9.94401898588868"><ele>101.14285714285714</ele><time>2026-03-22T08:15:40Z</time></trkpt><trkpt lat="44.884373564164775" lon="9.943929711080795"><ele>101.28571428571428</ele><time>2026-03-22T08:15:40.999Z</time></trkpt><trkpt lat="44.884367535649396" lon="9.94383680885652"><ele>101.42857142857143</ele><time>2026-03-22T08:15:41.999Z</time></trkpt><trkpt lat="44.88435957975228" lon="9.94374733150236"><ele>101.57142857142857</ele><time>2026-03-22T08:15:42.999Z</time></trkpt><trkpt lat="44.884351916585864" lon="9.943656282751219"><ele>101.71428571428572</ele><time>2026-03-22T08:15:43.999Z</time></trkpt><trkpt lat="44.88434124329315" lon="9.943565975048411"><ele>101.85714285714286</ele><time>2026-03-22T08:15:44.999Z</time></trkpt><trkpt lat="44.8843316322989" lon="9.943476154028604"><ele>102.0</ele><time>2026-03-22T08:15:45.999Z</time></trkpt><trkpt lat="44.884325059617595" lon="9.943384380641"><ele>101.85714285714286</ele><time>2026-03-22T08:15:46.999Z</time></trkpt><trkpt lat="44.884317457031294" lon="9.943291582867827"><ele>101.71428571428572</ele><time>2026-03-22T08:15:47.999Z</time></trkpt><trkpt lat="44.884309366805255" lon="9.943199263259302"><ele>101.57142857142857</ele><time>2026-03-22T08:15:48.999Z</time></trkpt><trkpt lat="44.88429926501788" lon="9.943105795913528"><ele>101.42857142857143</ele><time>2026-03-22T08:15:49.999Z</time></trkpt><trkpt lat="44.88429120216247" lon="9.943013061922816"><ele>101.28571428571428</ele><time>2026-03-22T08:15:50.999Z</time></trkpt><trkpt lat="44.88428337427772" lon="9.94292111493473"><ele>101.14285714285714</ele><time>2026-03-22T08:15:51.999Z</time></trkpt><trkpt lat="44.88427492043884" lon="9.94282876168182"><ele>101.0</ele><time>2026-03-22T08:15:52.999Z</time></trkpt><trkpt lat="44.8842657926815" lon="9.942737830106356"><ele>101.0</ele><time>2026-03-22T08:15:53.999Z</time></trkpt><trkpt lat="44.88425839487828" lon="9.942647101668756"><ele>101.0</ele><time>2026-03-22T08:15:54.999Z</time></trkpt><trkpt lat="44.884248400832675" lon="9.942556684855804"><ele>101.0</ele><time>2026-03-22T08:15:55.999Z</time></trkpt><trkpt lat="44.88423782995478" lon="9.942466306537614"><ele>101.0</ele><time>2026-03-22T08:15:56.999Z</time></trkpt><trkpt lat="44.8842249147938" lon="9.942373156152499"><ele>101.0</ele><time>2026-03-22T08:15:57.999Z</time></trkpt><trkpt lat="44.884210059596754" lon="9.942281795975545"><ele>101.0</ele><time>2026-03-22T08:15:58.999Z</time></trkpt><trkpt lat="44.884195040993504" lon="9.94218908940902"><ele>101.0</ele><time>2026-03-22T08:15:59.999Z</time></trkpt><trkpt lat="44.88417771972862" lon="9.942098174848049"><ele>101.0</ele><time>2026-03-22T08:16:00.999Z</time></trkpt><trkpt lat="44.88416043866679" lon="9.942008173293004"><ele>101.0</ele><time>2026-03-22T08:16:01.999Z</time></trkpt><trkpt lat="44.884143727404215" lon="9.94191737391267"><ele>101.0</ele><time>2026-03-22T08:16:02.999Z</time></trkpt><trkpt lat="44.884126200265996" lon="9.941825759625083"><ele>101.0</ele><time>2026-03-22T08:16:03.999Z</time></trkpt><trkpt lat="44.88410839477274" lon="9.941734668150557"><ele>101.0</ele><time>2026-03-22T08:16:04.999Z</time></trkpt><trkpt lat="44.88409117431028" lon="9.941642715710564"><ele>101.0</ele><time>2026-03-22T08:16:05.999Z</time></trkpt><trkpt lat="44.88407603743348" lon="9.941551977001488"><ele>101.0</ele><time>2026-03-22T08:16:06.999Z</time></trkpt><trkpt lat="44.88405801383262" lon="9.941462151030198"><ele>101.14285714285714</ele><time>2026-03-22T08:16:07.999Z</time></trkpt><trkpt lat="44.88403913127024" lon="9.941373520503939"><ele>101.28571428571428</ele><time>2026-03-22T08:16:08.999Z</time></trkpt><trkpt lat="44.88402052382302" lon="9.941284032126715"><ele>101.42857142857143</ele><time>2026-03-22T08:16:09.999Z</time></trkpt><trkpt lat="44.88400037837291" lon="9.941194826705589"><ele>101.57142857142857</ele><time>2026-03-22T08:16:10.999Z</time></trkpt><trkpt lat="44.88397892366754" lon="9.941107463618074"><ele>101.71428571428572</ele><time>2026-03-22T08:16:11.999Z</time></trkpt><trkpt lat="44.883957042421" lon="9.94102088978034"><ele>101.85714285714286</ele><time>2026-03-22T08:16:12.999Z</time></trkpt><trkpt lat="44.88393457814892" lon="9.940931877804173"><ele>102.0</ele><time>2026-03-22T08:16:13.999Z</time></trkpt><trkpt lat="44.88390783115849" lon="9.940848982872852"><ele>102.42857142857143</ele><time>2026-03-22T08:16:14.999Z</time></trkpt><trkpt lat="44.883878999795115" lon="9.94076242571791"><ele>102.85714285714286</ele><time>2026-03-22T08:16:15.999Z</time></trkpt><trkpt lat="44.883849589482544" lon="9.940676190628905"><ele>103.28571428571428</ele><time>2026-03-22T08:16:16.999Z</time></trkpt><trkpt lat="44.88382278980774" lon="9.940588962325776"><ele>103.71428571428572</ele><time>2026-03-22T08:16:17.999Z</time></trkpt><trkpt lat="44.883792892446124" lon="9.940503839180087"><ele>104.14285714285714</ele><time>2026-03-22T08:16:18.999Z</time></trkpt><trkpt lat="44.88376233144497" lon="9.940418000201353"><ele>104.57142857142857</ele><time>2026-03-22T08:16:19.999Z</time></trkpt><trkpt lat="44.883731960391636" lon="9.940335861539008"><ele>105.0</ele><time>2026-03-22T08:16:20.999Z</time></trkpt><trkpt lat="44.88370012649578" lon="9.940246965018394"><ele>105.0</ele><time>2026-03-22T08:16:21.999Z</time></trkpt><trkpt lat="44.88367147232672" lon="9.940164113612498"><ele>105.0</ele><time>2026-03-22T08:16:22.999Z</time></trkpt><trkpt lat="44.88364058695999" lon="9.940080270351123"><ele>105.0</ele><time>2026-03-22T08:16:23.999Z</time></trkpt><trkpt lat="44.88360997594315" lon="9.939997853272676"><ele>105.0</ele><time>2026-03-22T08:16:24.999Z</time></trkpt><trkpt lat="44.883580780203985" lon="9.939913035568939"><ele>105.0</ele><time>2026-03-22T08:16:25.999Z</time></trkpt><trkpt lat="44.88355069360475" lon="9.939829842757328"><ele>105.0</ele><time>2026-03-22T08:16:26.999Z</time></trkpt><trkpt lat="44.88352090879686" lon="9.939746473065362"><ele>105.0</ele><time>2026-03-22T08:16:27.999Z</time></trkpt><trkpt lat="44.883491195612756" lon="9.939664817538603"><ele>105.0</ele><time>2026-03-22T08:16:28.999Z</time></trkpt><trkpt lat="44.8834614272016" lon="9.939584137994729"><ele>105.0</ele><time>2026-03-22T08:16:29.999Z</time></trkpt><trkpt lat="44.88343346011387" lon="9.939503197167923"><ele>105.0</ele><time>2026-03-22T08:16:30.999Z</time></trkpt><trkpt lat="44.88340437270589" lon="9.939423687596447"><ele>105.0</ele><time>2026-03-22T08:16:31.999Z</time></trkpt><trkpt lat="44.88337438907013" lon="9.939343381871828"><ele>105.0</ele><time>2026-03-22T08:16:32.999Z</time></trkpt><trkpt lat="44.88334545513673" lon="9.939264357234444"><ele>105.0</ele><time>2026-03-22T08:16:33.999Z</time></trkpt><trkpt lat="44.88331750386987" lon="9.939184647327995"><ele>105.0</ele><time>2026-03-22T08:16:34.999Z</time></trkpt><trkpt lat="44.883289820460455" lon="9.939103298213693"><ele>105.0</ele><time>2026-03-22T08:16:35.999Z</time></trkpt><trkpt lat="44.88323312822341" lon="9.938945544969176"><ele>105.25</ele><time>2026-03-22T08:16:37.998Z</time></trkpt><trkpt lat="44.88318023227789" lon="9.938791189109407"><ele>105.5</ele><time>2026-03-22T08:16:39.998Z</time></trkpt><trkpt lat="44.88312594154642" lon="9.938637311181184"><ele>105.75</ele><time>2026-03-22T08:16:41.998Z</time></trkpt><trkpt lat="44.883072049313995" lon="9.938485231828963"><ele>106.0</ele><time>2026-03-22T08:16:43.998Z</time></trkpt><trkpt lat="44.88302158914373" lon="9.93834060848189"><ele>106.5</ele><time>2026-03-22T08:16:45.998Z</time></trkpt><trkpt lat="44.88296977513101" lon="9.938194722759654"><ele>107.0</ele><time>2026-03-22T08:16:47.998Z</time></trkpt><trkpt lat="44.88291805676629" lon="9.938052982098693"><ele>107.5</ele><time>2026-03-22T08:16:49.998Z</time></trkpt><trkpt lat="44.882865764787994" lon="9.937911114143622"><ele>108.0</ele><time>2026-03-22T08:16:51.998Z</time></trkpt><trkpt lat="44.88280951335876" lon="9.937750466735565"><ele>108.0</ele><time>2026-03-22T08:16:53.998Z</time></trkpt><trkpt lat="44.88278242466598" lon="9.937668884140564"><ele>108.0</ele><time>2026-03-22T08:16:54.998Z</time></trkpt><trkpt lat="44.88275462580909" lon="9.937585055018042"><ele>108.0</ele><time>2026-03-22T08:16:55.998Z</time></trkpt><trkpt lat="44.8827275935269" lon="9.937501048327562"><ele>108.0</ele><time>2026-03-22T08:16:56.998Z</time></trkpt><trkpt lat="44.88270177420199" lon="9.93741671966096"><ele>108.0</ele><time>2026-03-22T08:16:57.998Z</time></trkpt><trkpt lat="44.8826783690508" lon="9.937327712164615"><ele>108.0</ele><time>2026-03-22T08:16:58.998Z</time></trkpt><trkpt lat="44.88265503878643" lon="9.937239941958893"><ele>108.0</ele><time>2026-03-22T08:16:59.998Z</time></trkpt><trkpt lat="44.88263562210754" lon="9.937150450750694"><ele>108.0</ele><time>2026-03-22T08:17:01Z</time></trkpt><trkpt lat="44.882617824504614" lon="9.937062354111012"><ele>108.0</ele><time>2026-03-22T08:17:02Z</time></trkpt><trkpt lat="44.88260028150845" lon="9.936974233520264"><ele>108.0</ele><time>2026-03-22T08:17:03Z</time></trkpt><trkpt lat="44.882567563818334" lon="9.936801071629397"><ele>108.0</ele><time>2026-03-22T08:17:05Z</time></trkpt><trkpt lat="44.88255237174427" lon="9.936713196036205"><ele>108.0</ele><time>2026-03-22T08:17:06Z</time></trkpt><trkpt lat="44.882535526882734" lon="9.936622064484167"><ele>108.0</ele><time>2026-03-22T08:17:07Z</time></trkpt><trkpt lat="44.88251792000037" lon="9.93653336168502"><ele>108.57142857142857</ele><time>2026-03-22T08:17:08Z</time></trkpt><trkpt lat="44.882499566648" lon="9.936446216951287"><ele>109.14285714285714</ele><time>2026-03-22T08:17:09Z</time></trkpt><trkpt lat="44.88248285065626" lon="9.936356009984381"><ele>109.71428571428572</ele><time>2026-03-22T08:17:10Z</time></trkpt><trkpt lat="44.88246712011031" lon="9.936265942450559"><ele>110.28571428571428</ele><time>2026-03-22T08:17:11Z</time></trkpt><trkpt lat="44.88245094053294" lon="9.936174883270075"><ele>110.85714285714286</ele><time>2026-03-22T08:17:12Z</time></trkpt><trkpt lat="44.88243534229772" lon="9.9360840602136"><ele>111.42857142857143</ele><time>2026-03-22T08:17:13Z</time></trkpt><trkpt lat="44.88241897712575" lon="9.935993561965997"><ele>112.0</ele><time>2026-03-22T08:17:14Z</time></trkpt><trkpt lat="44.88240207178231" lon="9.935905469030745"><ele>112.28571428571428</ele><time>2026-03-22T08:17:15Z</time></trkpt><trkpt lat="44.882386582556876" lon="9.935816181498861"><ele>112.57142857142857</ele><time>2026-03-22T08:17:16Z</time></trkpt><trkpt lat="44.88237002752683" lon="9.935728960956164"><ele>112.85714285714286</ele><time>2026-03-22T08:17:17Z</time></trkpt><trkpt lat="44.88235411203715" lon="9.935638741613866"><ele>113.14285714285714</ele><time>2026-03-22T08:17:18Z</time></trkpt><trkpt lat="44.88233745582372" lon="9.93554533575445"><ele>113.42857142857142</ele><time>2026-03-22T08:17:19Z</time></trkpt><trkpt lat="44.882320997382685" lon="9.935453526533559"><ele>113.71428571428571</ele><time>2026-03-22T08:17:20Z</time></trkpt><trkpt lat="44.882303143780305" lon="9.93536029980053"><ele>114.0</ele><time>2026-03-22T08:17:21Z</time></trkpt><trkpt lat="44.88228763944307" lon="9.935268733024932"><ele>114.0</ele><time>2026-03-22T08:17:22Z</time></trkpt><trkpt lat="44.88227084012826" lon="9.935178131566413"><ele>113.99999999999999</ele><time>2026-03-22T08:17:23Z</time></trkpt><trkpt lat="44.88225358077175" lon="9.935089407329432"><ele>114.0</ele><time>2026-03-22T08:17:24Z</time></trkpt><trkpt lat="44.88223585264657" lon="9.935000028961305"><ele>114.0</ele><time>2026-03-22T08:17:25Z</time></trkpt><trkpt lat="44.88221850390467" lon="9.934911324531527"><ele>113.99999999999999</ele><time>2026-03-22T08:17:26Z</time></trkpt><trkpt lat="44.882200205751154" lon="9.9348220535349"><ele>114.0</ele><time>2026-03-22T08:17:27Z</time></trkpt><trkpt lat="44.88218388827933" lon="9.934732013221922"><ele>114.0</ele><time>2026-03-22T08:17:28Z</time></trkpt><trkpt lat="44.88216814284412" lon="9.93464143650214"><ele>114.0</ele><time>2026-03-22T08:17:29Z</time></trkpt><trkpt lat="44.88215210558924" lon="9.9345512439004"><ele>113.99999999999999</ele><time>2026-03-22T08:17:30Z</time></trkpt><trkpt lat="44.88213548136669" lon="9.93445974707845"><ele>114.0</ele><time>2026-03-22T08:17:31Z</time></trkpt><trkpt lat="44.88211642413319" lon="9.934368415785183"><ele>114.0</ele><time>2026-03-22T08:17:32Z</time></trkpt><trkpt lat="44.88209658651022" lon="9.934276260880173"><ele>113.99999999999999</ele><time>2026-03-22T08:17:33Z</time></trkpt><trkpt lat="44.88207723954799" lon="9.934184210331718"><ele>114.0</ele><time>2026-03-22T08:17:34Z</time></trkpt><trkpt lat="44.88206047424627" lon="9.934090201168582"><ele>114.0</ele><time>2026-03-22T08:17:35Z</time></trkpt><trkpt lat="44.882045680818045" lon="9.93399658613705"><ele>114.0</ele><time>2026-03-22T08:17:36Z</time></trkpt><trkpt lat="44.88202971243172" lon="9.933904329702084"><ele>113.99999999999999</ele><time>2026-03-22T08:17:37Z</time></trkpt><trkpt lat="44.882011954201694" lon="9.933813406429673"><ele>114.0</ele><time>2026-03-22T08:17:38Z</time></trkpt><trkpt lat="44.88199345527425" lon="9.933723199249876"><ele>114.0</ele><time>2026-03-22T08:17:39Z</time></trkpt><trkpt lat="44.881971574506466" lon="9.93363077222342"><ele>113.99999999999999</ele><time>2026-03-22T08:17:40Z</time></trkpt><trkpt lat="44.8819491837081" lon="9.93353996293943"><ele>114.0</ele><time>2026-03-22T08:17:41Z</time></trkpt><trkpt lat="44.88193108041549" lon="9.933448768630928"><ele>114.0</ele><time>2026-03-22T08:17:42Z</time></trkpt><trkpt lat="44.88191402529985" lon="9.933358273068727"><ele>114.28571428571428</ele><time>2026-03-22T08:17:43Z</time></trkpt><trkpt lat="44.88189918874432" lon="9.933267896404354"><ele>114.57142857142856</ele><time>2026-03-22T08:17:44Z</time></trkpt><trkpt lat="44.881881956768545" lon="9.933175612200555"><ele>114.85714285714286</ele><time>2026-03-22T08:17:45Z</time></trkpt><trkpt lat="44.88186457599667" lon="9.933085467441602"><ele>115.14285714285714</ele><time>2026-03-22T08:17:46Z</time></trkpt><trkpt lat="44.88184562982" lon="9.932996320028776"><ele>115.42857142857143</ele><time>2026-03-22T08:17:47Z</time></trkpt><trkpt lat="44.88182658525705" lon="9.932905459362216"><ele>115.71428571428572</ele><time>2026-03-22T08:17:48Z</time></trkpt><trkpt lat="44.88181135467298" lon="9.932812886555027"><ele>116.00000000000001</ele><time>2026-03-22T08:17:49Z</time></trkpt><trkpt lat="44.88179627662162" lon="9.932718231993022"><ele>116.00000000000001</ele><time>2026-03-22T08:17:49.999Z</time></trkpt><trkpt lat="44.88177944859123" lon="9.93262664281555"><ele>116.0</ele><time>2026-03-22T08:17:50.999Z</time></trkpt><trkpt lat="44.8817624174058" lon="9.932535106604353"><ele>116.00000000000001</ele><time>2026-03-22T08:17:51.999Z</time></trkpt><trkpt lat="44.881744121549495" lon="9.932445069603226"><ele>116.00000000000001</ele><time>2026-03-22T08:17:52.999Z</time></trkpt><trkpt lat="44.88172598849121" lon="9.932354111979553"><ele>116.0</ele><time>2026-03-22T08:17:53.999Z</time></trkpt><trkpt lat="44.88170996622988" lon="9.932262749848194"><ele>116.00000000000001</ele><time>2026-03-22T08:17:54.999Z</time></trkpt><trkpt lat="44.881693488384634" lon="9.932173453111426"><ele>116.00000000000001</ele><time>2026-03-22T08:17:55.999Z</time></trkpt><trkpt lat="44.88167635483416" lon="9.932084382333272"><ele>115.85714285714288</ele><time>2026-03-22T08:17:56.999Z</time></trkpt><trkpt lat="44.881660812721734" lon="9.931995122962592"><ele>115.71428571428572</ele><time>2026-03-22T08:17:57.999Z</time></trkpt><trkpt lat="44.88164363838785" lon="9.931909428197377"><ele>115.57142857142857</ele><time>2026-03-22T08:17:58.999Z</time></trkpt><trkpt lat="44.88162602389064" lon="9.931820631803822"><ele>115.42857142857143</ele><time>2026-03-22T08:17:59.999Z</time></trkpt><trkpt lat="44.88161249263097" lon="9.931730708091694"><ele>115.28571428571428</ele><time>2026-03-22T08:18:00.999Z</time></trkpt><trkpt lat="44.88159985889179" lon="9.93164032986045"><ele>115.14285714285712</ele><time>2026-03-22T08:18:01.999Z</time></trkpt><trkpt lat="44.881590585253434" lon="9.931546265072154"><ele>114.99999999999999</ele><time>2026-03-22T08:18:02.999Z</time></trkpt><trkpt lat="44.88158280613078" lon="9.93145189967833"><ele>114.85714285714283</ele><time>2026-03-22T08:18:03.999Z</time></trkpt><trkpt lat="44.881575215954314" lon="9.931358774056323"><ele>114.71428571428571</ele><time>2026-03-22T08:18:04.999Z</time></trkpt><trkpt lat="44.88156831039627" lon="9.9312649980595"><ele>114.57142857142856</ele><time>2026-03-22T08:18:05.999Z</time></trkpt><trkpt lat="44.88156283239569" lon="9.931171411046366"><ele>114.42857142857142</ele><time>2026-03-22T08:18:06.999Z</time></trkpt><trkpt lat="44.88155797200281" lon="9.931078805142963"><ele>114.28571428571428</ele><time>2026-03-22T08:18:07.999Z</time></trkpt><trkpt lat="44.88155189227166" lon="9.930981578907888"><ele>114.14285714285714</ele><time>2026-03-22T08:18:08.999Z</time></trkpt><trkpt lat="44.881544892391524" lon="9.930888666516045"><ele>114.0</ele><time>2026-03-22T08:18:09.999Z</time></trkpt><trkpt lat="44.88153903600881" lon="9.93079379280773"><ele>114.71428571428571</ele><time>2026-03-22T08:18:10.999Z</time></trkpt><trkpt lat="44.88153430665065" lon="9.93069943754901"><ele>115.42857142857142</ele><time>2026-03-22T08:18:11.999Z</time></trkpt><trkpt lat="44.881532857870155" lon="9.93060453490496"><ele>116.14285714285714</ele><time>2026-03-22T08:18:12.999Z</time></trkpt><trkpt lat="44.881529075638795" lon="9.930512079187103"><ele>116.85714285714286</ele><time>2026-03-22T08:18:13.999Z</time></trkpt><trkpt lat="44.88152206716885" lon="9.930419497032883"><ele>117.57142857142857</ele><time>2026-03-22T08:18:14.999Z</time></trkpt><trkpt lat="44.88151485528054" lon="9.930328084262305"><ele>118.28571428571428</ele><time>2026-03-22T08:18:15.999Z</time></trkpt><trkpt lat="44.88150970709194" lon="9.93023540468654"><ele>119.0</ele><time>2026-03-22T08:18:16.999Z</time></trkpt><trkpt lat="44.88150708533752" lon="9.930144302430561"><ele>118.85714285714286</ele><time>2026-03-22T08:18:17.999Z</time></trkpt><trkpt lat="44.881501256691536" lon="9.930052739020997"><ele>118.71428571428572</ele><time>2026-03-22T08:18:18.999Z</time></trkpt><trkpt lat="44.88149572223569" lon="9.929961116820444"><ele>118.57142857142857</ele><time>2026-03-22T08:18:19.999Z</time></trkpt><trkpt lat="44.88149156431834" lon="9.929868241505893"><ele>118.42857142857143</ele><time>2026-03-22T08:18:20.999Z</time></trkpt><trkpt lat="44.881489709495646" lon="9.929775347135092"><ele>118.28571428571429</ele><time>2026-03-22T08:18:21.999Z</time></trkpt><trkpt lat="44.8814847218565" lon="9.929680511272974"><ele>118.14285714285714</ele><time>2026-03-22T08:18:22.999Z</time></trkpt><trkpt lat="44.881479733028" lon="9.929589639728093"><ele>118.0</ele><time>2026-03-22T08:18:23.999Z</time></trkpt><trkpt lat="44.881475026676895" lon="9.929497212651576"><ele>118.0</ele><time>2026-03-22T08:18:24.999Z</time></trkpt><trkpt lat="44.88146845724047" lon="9.929403585853516"><ele>118.0</ele><time>2026-03-22T08:18:25.999Z</time></trkpt><trkpt lat="44.8814640042816" lon="9.9293105177084"><ele>118.0</ele><time>2026-03-22T08:18:26.999Z</time></trkpt><trkpt lat="44.881457654416145" lon="9.929221484037756"><ele>118.0</ele><time>2026-03-22T08:18:27.999Z</time></trkpt><trkpt lat="44.88145345902849" lon="9.92912794679392"><ele>118.0</ele><time>2026-03-22T08:18:28.999Z</time></trkpt><trkpt lat="44.88144738689249" lon="9.929035277674055"><ele>118.0</ele><time>2026-03-22T08:18:29.999Z</time></trkpt><trkpt lat="44.881442792814006" lon="9.928941130346855"><ele>118.0</ele><time>2026-03-22T08:18:30.999Z</time></trkpt><trkpt lat="44.8814369718021" lon="9.928852386756438"><ele>118.16666666666667</ele><time>2026-03-22T08:18:31.999Z</time></trkpt><trkpt lat="44.88141816914235" lon="9.928674955742975"><ele>118.33333333333334</ele><time>2026-03-22T08:18:33.999Z</time></trkpt><trkpt lat="44.88140615739261" lon="9.928584492280448"><ele>118.5</ele><time>2026-03-22T08:18:34.999Z</time></trkpt><trkpt lat="44.88139388861997" lon="9.928494663755401"><ele>118.66666666666666</ele><time>2026-03-22T08:18:35.999Z</time></trkpt><trkpt lat="44.881381579229775" lon="9.928405822541317"><ele>118.83333333333333</ele><time>2026-03-22T08:18:36.999Z</time></trkpt><trkpt lat="44.88137139332523" lon="9.928314878373385"><ele>119.0</ele><time>2026-03-22T08:18:37.999Z</time></trkpt><trkpt lat="44.881346788475625" lon="9.928139867880802"><ele>119.14285714285714</ele><time>2026-03-22T08:18:39.999Z</time></trkpt><trkpt lat="44.881330535433285" lon="9.928052189413677"><ele>119.28571428571428</ele><time>2026-03-22T08:18:40.999Z</time></trkpt><trkpt lat="44.88131412590641" lon="9.927964614532836"><ele>119.42857142857143</ele><time>2026-03-22T08:18:41.999Z</time></trkpt><trkpt lat="44.88129957157933" lon="9.927874565818504"><ele>119.57142857142857</ele><time>2026-03-22T08:18:42.999Z</time></trkpt><trkpt lat="44.88128686175561" lon="9.92778475374092"><ele>119.71428571428571</ele><time>2026-03-22T08:18:43.999Z</time></trkpt><trkpt lat="44.881259246710705" lon="9.92761080826533"><ele>119.85714285714286</ele><time>2026-03-22T08:18:45.999Z</time></trkpt><trkpt lat="44.88124442068733" lon="9.927523592582562"><ele>120.0</ele><time>2026-03-22T08:18:46.998Z</time></trkpt><trkpt lat="44.881213499613956" lon="9.92735403076024"><ele>120.42857142857143</ele><time>2026-03-22T08:18:48.998Z</time></trkpt><trkpt lat="44.881196897218416" lon="9.927266704524326"><ele>120.85714285714286</ele><time>2026-03-22T08:18:49.998Z</time></trkpt><trkpt lat="44.881180400542796" lon="9.927178982348545"><ele>121.28571428571429</ele><time>2026-03-22T08:18:50.998Z</time></trkpt><trkpt lat="44.88116790956318" lon="9.927089915131596"><ele>121.71428571428572</ele><time>2026-03-22T08:18:51.998Z</time></trkpt><trkpt lat="44.881155677815016" lon="9.926999190728202"><ele>122.14285714285714</ele><time>2026-03-22T08:18:52.998Z</time></trkpt><trkpt lat="44.88114095164999" lon="9.9269091048094"><ele>122.57142857142858</ele><time>2026-03-22T08:18:53.998Z</time></trkpt><trkpt lat="44.88112834018215" lon="9.926816969927115"><ele>123.00000000000001</ele><time>2026-03-22T08:18:54.998Z</time></trkpt><trkpt lat="44.881110528817416" lon="9.926729064124357"><ele>123.33333333333333</ele><time>2026-03-22T08:18:55.998Z</time></trkpt><trkpt lat="44.88107497940947" lon="9.92655642659145"><ele>123.66666666666666</ele><time>2026-03-22T08:18:57.998Z</time></trkpt><trkpt lat="44.88105207010361" lon="9.926471067254301"><ele>124.0</ele><time>2026-03-22T08:18:58.998Z</time></trkpt><trkpt lat="44.88102977223024" lon="9.926381616093892"><ele>124.33333333333333</ele><time>2026-03-22T08:18:59.998Z</time></trkpt><trkpt lat="44.88100166058707" lon="9.926294840432591"><ele>124.66666666666666</ele><time>2026-03-22T08:19:00.998Z</time></trkpt><trkpt lat="44.880973939194625" lon="9.926211468154898"><ele>125.0</ele><time>2026-03-22T08:19:01.998Z</time></trkpt><trkpt lat="44.88094425533035" lon="9.92612597133177"><ele>125.0</ele><time>2026-03-22T08:19:02.998Z</time></trkpt><trkpt lat="44.88091798055529" lon="9.926037967372674"><ele>125.0</ele><time>2026-03-22T08:19:03.998Z</time></trkpt><trkpt lat="44.88089037446951" lon="9.925954093164146"><ele>125.0</ele><time>2026-03-22T08:19:04.998Z</time></trkpt><trkpt lat="44.88086072903158" lon="9.925869120106777"><ele>125.0</ele><time>2026-03-22T08:19:05.998Z</time></trkpt><trkpt lat="44.88083384338599" lon="9.925785684827959"><ele>125.0</ele><time>2026-03-22T08:19:07Z</time></trkpt><trkpt lat="44.88080371022463" lon="9.925699139961447"><ele>125.0</ele><time>2026-03-22T08:19:08Z</time></trkpt><trkpt lat="44.880773929428415" lon="9.925616944010883"><ele>125.0</ele><time>2026-03-22T08:19:09Z</time></trkpt><trkpt lat="44.88074678229115" lon="9.925531972084917"><ele>125.33333333333333</ele><time>2026-03-22T08:19:10Z</time></trkpt><trkpt lat="44.880714998039956" lon="9.925452073144864"><ele>125.66666666666666</ele><time>2026-03-22T08:19:11Z</time></trkpt><trkpt lat="44.88068805679943" lon="9.925368225544062"><ele>126.0</ele><time>2026-03-22T08:19:12Z</time></trkpt><trkpt lat="44.88066048240792" lon="9.925286947980329"><ele>126.33333333333334</ele><time>2026-03-22T08:19:13Z</time></trkpt><trkpt lat="44.88063020993451" lon="9.92520620133138"><ele>126.66666666666667</ele><time>2026-03-22T08:19:14Z</time></trkpt><trkpt lat="44.88060203836758" lon="9.925119752767715"><ele>127.0</ele><time>2026-03-22T08:19:15Z</time></trkpt><trkpt lat="44.8805416663924" lon="9.92496171982267"><ele>127.14285714285714</ele><time>2026-03-22T08:19:17Z</time></trkpt><trkpt lat="44.88051460878388" lon="9.924877618870088"><ele>127.28571428571428</ele><time>2026-03-22T08:19:18Z</time></trkpt><trkpt lat="44.8804611871509" lon="9.924717076932286"><ele>127.42857142857142</ele><time>2026-03-22T08:19:20Z</time></trkpt><trkpt lat="44.880432426595966" lon="9.924637775133656"><ele>127.57142857142857</ele><time>2026-03-22T08:19:21Z</time></trkpt><trkpt lat="44.88040173174639" lon="9.92456018345397"><ele>127.7142857142857</ele><time>2026-03-22T08:19:22Z</time></trkpt><trkpt lat="44.88037301055813" lon="9.924479189644252"><ele>127.85714285714285</ele><time>2026-03-22T08:19:23Z</time></trkpt><trkpt lat="44.880343831947464" lon="9.924399199487711"><ele>128.0</ele><time>2026-03-22T08:19:24Z</time></trkpt><trkpt lat="44.880289333385846" lon="9.924241542825179"><ele>128.28571428571428</ele><time>2026-03-22T08:19:26Z</time></trkpt><trkpt lat="44.88025871057764" lon="9.92415918241695"><ele>128.57142857142856</ele><time>2026-03-22T08:19:27Z</time></trkpt><trkpt lat="44.880229919564485" lon="9.924076818382938"><ele>128.85714285714286</ele><time>2026-03-22T08:19:28Z</time></trkpt><trkpt lat="44.88019958622203" lon="9.923996816358692"><ele>129.14285714285714</ele><time>2026-03-22T08:19:29Z</time></trkpt><trkpt lat="44.88017089986672" lon="9.923916305129017"><ele>129.42857142857144</ele><time>2026-03-22T08:19:30Z</time></trkpt><trkpt lat="44.880140985442964" lon="9.923838012506822"><ele>129.71428571428572</ele><time>2026-03-22T08:19:31Z</time></trkpt><trkpt lat="44.88011149231118" lon="9.923754234459015"><ele>130.0</ele><time>2026-03-22T08:19:32Z</time></trkpt><trkpt lat="44.880080700550046" lon="9.923671893098474"><ele>130.0</ele><time>2026-03-22T08:19:33Z</time></trkpt><trkpt lat="44.880053453109724" lon="9.923586771556897"><ele>130.0</ele><time>2026-03-22T08:19:34Z</time></trkpt><trkpt lat="44.88002535143449" lon="9.923503646753954"><ele>130.0</ele><time>2026-03-22T08:19:35Z</time></trkpt><trkpt lat="44.87999666154132" lon="9.92342180978463"><ele>130.0</ele><time>2026-03-22T08:19:36Z</time></trkpt><trkpt lat="44.87996707017944" lon="9.923339644998357"><ele>130.0</ele><time>2026-03-22T08:19:37Z</time></trkpt><trkpt lat="44.879936201822545" lon="9.923260853198165"><ele>130.0</ele><time>2026-03-22T08:19:38Z</time></trkpt><trkpt lat="44.87987171211159" lon="9.923108317469715"><ele>130.0</ele><time>2026-03-22T08:19:40Z</time></trkpt><trkpt lat="44.87981008287322" lon="9.922960353846648"><ele>130.0</ele><time>2026-03-22T08:19:42Z</time></trkpt><trkpt lat="44.87974465522525" lon="9.92281381839859"><ele>130.0</ele><time>2026-03-22T08:19:44Z</time></trkpt><trkpt lat="44.87969670195162" lon="9.922752585151379"><ele>130.0</ele><time>2026-03-22T08:19:45Z</time></trkpt><trkpt lat="44.87964067123875" lon="9.92270919937571"><ele>130.0</ele><time>2026-03-22T08:19:46Z</time></trkpt><trkpt lat="44.87957870747343" lon="9.922680041215155"><ele>130.0</ele><time>2026-03-22T08:19:47Z</time></trkpt><trkpt lat="44.87950866373612" lon="9.922681026346396"><ele>130.0</ele><time>2026-03-22T08:19:48Z</time></trkpt><trkpt lat="44.87942379583675" lon="9.922523005959455"><ele>130.0</ele><time>2026-03-22T08:19:49Z</time></trkpt><trkpt lat="44.87933701326855" lon="9.922593314748408"><ele>130.0</ele><time>2026-03-22T08:19:50Z</time></trkpt><trkpt lat="44.879312214537464" lon="9.922745212630419"><ele>130.0</ele><time>2026-03-22T08:19:51Z</time></trkpt><trkpt lat="44.879247028056994" lon="9.922771932054559"><ele>130.0</ele><time>2026-03-22T08:19:52Z</time></trkpt><trkpt lat="44.87918557670064" lon="9.922803613484177"><ele>130.0</ele><time>2026-03-22T08:19:53Z</time></trkpt><trkpt lat="44.879127287847794" lon="9.922838153512362"><ele>130.0</ele><time>2026-03-22T08:19:54Z</time></trkpt><trkpt lat="44.87906823393329" lon="9.922879193867882"><ele>130.0</ele><time>2026-03-22T08:19:55Z</time></trkpt><trkpt lat="44.87895617190492" lon="9.92296659930819"><ele>130.0</ele><time>2026-03-22T08:19:56.999Z</time></trkpt><trkpt lat="44.87890105806056" lon="9.923015483440283"><ele>130.0</ele><time>2026-03-22T08:19:57.999Z</time></trkpt><trkpt lat="44.87884630987674" lon="9.923061847128285"><ele>130.0</ele><time>2026-03-22T08:19:58.999Z</time></trkpt><trkpt lat="44.87877381076971" lon="9.923080727490502"><ele>130.00000000000003</ele><time>2026-03-22T08:19:59.999Z</time></trkpt><trkpt lat="44.87871923791732" lon="9.923138204912231"><ele>130.0</ele><time>2026-03-22T08:20:00.999Z</time></trkpt><trkpt lat="44.87866512406752" lon="9.923198495850212"><ele>130.0</ele><time>2026-03-22T08:20:01.999Z</time></trkpt><trkpt lat="44.87861327928846" lon="9.923258602338379"><ele>130.0</ele><time>2026-03-22T08:20:02.999Z</time></trkpt><trkpt lat="44.87855958486255" lon="9.923320853227295"><ele>130.0</ele><time>2026-03-22T08:20:03.999Z</time></trkpt><trkpt lat="44.878505948262784" lon="9.923381908738156"><ele>130.00000000000003</ele><time>2026-03-22T08:20:04.999Z</time></trkpt><trkpt lat="44.87845196402134" lon="9.923442105719255"><ele>130.0</ele><time>2026-03-22T08:20:05.999Z</time></trkpt><trkpt lat="44.878398268796076" lon="9.92350198009367"><ele>129.71428571428572</ele><time>2026-03-22T08:20:06.999Z</time></trkpt><trkpt lat="44.87834111830918" lon="9.923565709153431"><ele>129.42857142857144</ele><time>2026-03-22T08:20:07.999Z</time></trkpt><trkpt lat="44.878285186666005" lon="9.923628077523224"><ele>129.14285714285714</ele><time>2026-03-22T08:20:08.999Z</time></trkpt><trkpt lat="44.87822832998782" lon="9.923691477377881"><ele>128.85714285714286</ele><time>2026-03-22T08:20:09.999Z</time></trkpt><trkpt lat="44.8781704476902" lon="9.92375602088585"><ele>128.57142857142856</ele><time>2026-03-22T08:20:10.999Z</time></trkpt><trkpt lat="44.87811260243769" lon="9.923820523084487"><ele>128.28571428571428</ele><time>2026-03-22T08:20:11.999Z</time></trkpt><trkpt lat="44.878055338184694" lon="9.923884377422079"><ele>128.0</ele><time>2026-03-22T08:20:12.999Z</time></trkpt><trkpt lat="44.877997264656166" lon="9.923949134162573"><ele>128.0</ele><time>2026-03-22T08:20:13.999Z</time></trkpt><trkpt lat="44.877939728502156" lon="9.924013291697694"><ele>127.99999999999999</ele><time>2026-03-22T08:20:14.999Z</time></trkpt><trkpt lat="44.87788285705307" lon="9.9240767080242"><ele>128.0</ele><time>2026-03-22T08:20:15.999Z</time></trkpt><trkpt lat="44.87782506231777" lon="9.924141153890988"><ele>128.0</ele><time>2026-03-22T08:20:16.999Z</time></trkpt><trkpt lat="44.877769452021305" lon="9.924203163933003"><ele>127.99999999999999</ele><time>2026-03-22T08:20:17.999Z</time></trkpt><trkpt lat="44.87771255465173" lon="9.924266609162238"><ele>128.0</ele><time>2026-03-22T08:20:18.999Z</time></trkpt><trkpt lat="44.877656461756835" lon="9.924329157342642"><ele>128.0</ele><time>2026-03-22T08:20:19.999Z</time></trkpt><trkpt lat="44.87760058164064" lon="9.924391468248574"><ele>127.42857142857142</ele><time>2026-03-22T08:20:20.999Z</time></trkpt><trkpt lat="44.877545553186515" lon="9.924452829486706"><ele>126.85714285714285</ele><time>2026-03-22T08:20:21.999Z</time></trkpt><trkpt lat="44.87749958215114" lon="9.92453337479554"><ele>126.28571428571428</ele><time>2026-03-22T08:20:22.999Z</time></trkpt><trkpt lat="44.87744307026066" lon="9.924594852915371"><ele>125.71428571428572</ele><time>2026-03-22T08:20:23.999Z</time></trkpt><trkpt lat="44.87738572723368" lon="9.924656210190944"><ele>125.14285714285715</ele><time>2026-03-22T08:20:24.999Z</time></trkpt><trkpt lat="44.87732035745397" lon="9.924706187789699"><ele>124.57142857142858</ele><time>2026-03-22T08:20:25.999Z</time></trkpt><trkpt lat="44.877260201551124" lon="9.924774131438639"><ele>124.0</ele><time>2026-03-22T08:20:26.999Z</time></trkpt><trkpt lat="44.87719931135649" lon="9.924842592193906"><ele>124.00000000000001</ele><time>2026-03-22T08:20:27.999Z</time></trkpt><trkpt lat="44.87713399083978" lon="9.924912678853602"><ele>124.0</ele><time>2026-03-22T08:20:28.999Z</time></trkpt><trkpt lat="44.877067464348656" lon="9.924984059466388"><ele>124.0</ele><time>2026-03-22T08:20:29.999Z</time></trkpt><trkpt lat="44.87699915707769" lon="9.925057350803682"><ele>124.0</ele><time>2026-03-22T08:20:30.999Z</time></trkpt><trkpt lat="44.87693281356052" lon="9.925132425813715"><ele>124.00000000000001</ele><time>2026-03-22T08:20:31.999Z</time></trkpt><trkpt lat="44.87686764127726" lon="9.925206710600003"><ele>124.0</ele><time>2026-03-22T08:20:32.999Z</time></trkpt><trkpt lat="44.876800821767155" lon="9.925282872940281"><ele>124.33333333333334</ele><time>2026-03-22T08:20:33.999Z</time></trkpt><trkpt lat="44.87673423552388" lon="9.925358769388055"><ele>124.66666666666667</ele><time>2026-03-22T08:20:34.999Z</time></trkpt><trkpt lat="44.87666860685315" lon="9.92543054343243"><ele>125.0</ele><time>2026-03-22T08:20:35.999Z</time></trkpt><trkpt lat="44.876599974442534" lon="9.925495044709614"><ele>125.33333333333334</ele><time>2026-03-22T08:20:36.999Z</time></trkpt><trkpt lat="44.87653230446347" lon="9.925544744791894"><ele>125.66666666666667</ele><time>2026-03-22T08:20:37.999Z</time></trkpt><trkpt lat="44.87645945340685" lon="9.92554735892059"><ele>126.0</ele><time>2026-03-22T08:20:38.999Z</time></trkpt><trkpt lat="44.876396587350904" lon="9.925533856226314"><ele>126.0</ele><time>2026-03-22T08:20:39.999Z</time></trkpt><trkpt lat="44.876294246300276" lon="9.925531352134648"><ele>126.0</ele><time>2026-03-22T08:20:41.999Z</time></trkpt><trkpt lat="44.87621934121832" lon="9.925523326241459"><ele>126.0</ele><time>2026-03-22T08:20:43.999Z</time></trkpt><trkpt lat="44.8761693724211" lon="9.92559147684583"><ele>126.0</ele><time>2026-03-22T08:20:44.999Z</time></trkpt><trkpt lat="44.87620627615488" lon="9.925757605049556"><ele>126.0</ele><time>2026-03-22T08:20:46.999Z</time></trkpt><trkpt lat="44.87624031682019" lon="9.925880074857998"><ele>126.33333333333333</ele><time>2026-03-22T08:20:48.999Z</time></trkpt><trkpt lat="44.876265506100886" lon="9.926001784861878"><ele>126.66666666666666</ele><time>2026-03-22T08:20:50.999Z</time></trkpt><trkpt lat="44.87629422452598" lon="9.926119556423288"><ele>127.0</ele><time>2026-03-22T08:20:52.998Z</time></trkpt><trkpt lat="44.876325951336916" lon="9.92623253436634"><ele>127.33333333333333</ele><time>2026-03-22T08:20:54.998Z</time></trkpt><trkpt lat="44.87635893022013" lon="9.926347438004273"><ele>127.66666666666666</ele><time>2026-03-22T08:20:56.998Z</time></trkpt><trkpt lat="44.876389710479785" lon="9.92645974368955"><ele>128.0</ele><time>2026-03-22T08:20:58.998Z</time></trkpt><trkpt lat="44.876414656504146" lon="9.92657281897196"><ele>127.99999999999999</ele><time>2026-03-22T08:21:00.998Z</time></trkpt><trkpt lat="44.87640826918417" lon="9.92668695657724"><ele>128.0</ele><time>2026-03-22T08:21:02.998Z</time></trkpt><trkpt lat="44.876348343785786" lon="9.926771358378414"><ele>128.0</ele><time>2026-03-22T08:21:05.998Z</time></trkpt><trkpt lat="44.87628863238496" lon="9.92667071576209"><ele>128.0</ele><time>2026-03-22T08:21:07.998Z</time></trkpt><trkpt lat="44.8762606806435" lon="9.926558121324645"><ele>127.99999999999999</ele><time>2026-03-22T08:21:09.998Z</time></trkpt><trkpt lat="44.8762197368593" lon="9.926450296255226"><ele>128.0</ele><time>2026-03-22T08:21:11.998Z</time></trkpt><trkpt lat="44.87617818860093" lon="9.926341700542757"><ele>128.0</ele><time>2026-03-22T08:21:14Z</time></trkpt><trkpt lat="44.87612165846611" lon="9.926247170807956"><ele>128.0</ele><time>2026-03-22T08:21:16Z</time></trkpt><trkpt lat="44.8760424420916" lon="9.926183204258319"><ele>128.0</ele><time>2026-03-22T08:21:18Z</time></trkpt><trkpt lat="44.87594794267188" lon="9.926177781930058"><ele>128.0</ele><time>2026-03-22T08:21:20Z</time></trkpt><trkpt lat="44.87585453901329" lon="9.926182492780164"><ele>128.0</ele><time>2026-03-22T08:21:22Z</time></trkpt><trkpt lat="44.875766313749786" lon="9.926223439157036"><ele>129.8</ele><time>2026-03-22T08:21:24Z</time></trkpt><trkpt lat="44.87568015204894" lon="9.926270474635153"><ele>131.60000000000002</ele><time>2026-03-22T08:21:26Z</time></trkpt><trkpt lat="44.875595191930785" lon="9.926319481792978"><ele>133.39999999999998</ele><time>2026-03-22T08:21:28Z</time></trkpt><trkpt lat="44.8755179946424" lon="9.92638957867601"><ele>135.2</ele><time>2026-03-22T08:21:30Z</time></trkpt><trkpt lat="44.875428770844515" lon="9.926439574006267"><ele>137.0</ele><time>2026-03-22T08:21:32Z</time></trkpt><trkpt lat="44.87533409492211" lon="9.926490466586305"><ele>137.0</ele><time>2026-03-22T08:21:34Z</time></trkpt><trkpt lat="44.87524190539513" lon="9.926550541033064"><ele>137.0</ele><time>2026-03-22T08:21:36Z</time></trkpt><trkpt lat="44.875147170747695" lon="9.92660739261154"><ele>137.0</ele><time>2026-03-22T08:21:38Z</time></trkpt><trkpt lat="44.87505279224007" lon="9.926661618459276"><ele>137.0</ele><time>2026-03-22T08:21:40Z</time></trkpt><trkpt lat="44.87495349718973" lon="9.926720682152377"><ele>137.0</ele><time>2026-03-22T08:21:42Z</time></trkpt><trkpt lat="44.874846532283705" lon="9.926781495393284"><ele>136.79999999999998</ele><time>2026-03-22T08:21:44Z</time></trkpt><trkpt lat="44.8747410764463" lon="9.926842352683902"><ele>136.6</ele><time>2026-03-22T08:21:46Z</time></trkpt><trkpt lat="44.87463525768616" lon="9.926899697042462"><ele>136.39999999999998</ele><time>2026-03-22T08:21:48Z</time></trkpt><trkpt lat="44.87453606740955" lon="9.926957172105471"><ele>136.2</ele><time>2026-03-22T08:21:50Z</time></trkpt><trkpt lat="44.874441457612285" lon="9.927002540230628"><ele>136.0</ele><time>2026-03-22T08:21:52Z</time></trkpt><trkpt lat="44.874341669940165" lon="9.927019499553873"><ele>136.33333333333334</ele><time>2026-03-22T08:21:54Z</time></trkpt><trkpt lat="44.8742497378624" lon="9.927023240711982"><ele>136.66666666666669</ele><time>2026-03-22T08:21:56Z</time></trkpt><trkpt lat="44.87416178284877" lon="9.927008068264803"><ele>137.0</ele><time>2026-03-22T08:21:58Z</time></trkpt><trkpt lat="44.874084660785606" lon="9.926962045846373"><ele>137.33333333333334</ele><time>2026-03-22T08:22:00Z</time></trkpt><trkpt lat="44.87400323905571" lon="9.926926672213453"><ele>137.66666666666666</ele><time>2026-03-22T08:22:02Z</time></trkpt><trkpt lat="44.87396123274452" lon="9.926827636579226"><ele>138.0</ele><time>2026-03-22T08:22:04.999Z</time></trkpt><trkpt lat="44.87388082076387" lon="9.926712327107017"><ele>138.33333333333334</ele><time>2026-03-22T08:22:06.999Z</time></trkpt><trkpt lat="44.87383841705767" lon="9.926599382584394"><ele>138.66666666666666</ele><time>2026-03-22T08:22:08.999Z</time></trkpt><trkpt lat="44.873784451068786" lon="9.926490881284229"><ele>139.0</ele><time>2026-03-22T08:22:10.999Z</time></trkpt><trkpt lat="44.873740140806206" lon="9.926386417583172"><ele>139.33333333333331</ele><time>2026-03-22T08:22:12.999Z</time></trkpt><trkpt lat="44.873695591879624" lon="9.926289584706705"><ele>139.66666666666666</ele><time>2026-03-22T08:22:14.999Z</time></trkpt><trkpt lat="44.87365632536989" lon="9.926189098865631"><ele>140.0</ele><time>2026-03-22T08:22:16.999Z</time></trkpt><trkpt lat="44.873615491138445" lon="9.9260870251521"><ele>140.0</ele><time>2026-03-22T08:22:18.999Z</time></trkpt><trkpt lat="44.873573911984764" lon="9.925984805445946"><ele>140.0</ele><time>2026-03-22T08:22:20.999Z</time></trkpt><trkpt lat="44.87353581641775" lon="9.925880028250475"><ele>140.0</ele><time>2026-03-22T08:22:22.999Z</time></trkpt><trkpt lat="44.87349414645279" lon="9.925777064212859"><ele>140.0</ele><time>2026-03-22T08:22:24.999Z</time></trkpt><trkpt lat="44.87345990651462" lon="9.925664370176035"><ele>140.0</ele><time>2026-03-22T08:22:26.999Z</time></trkpt><trkpt lat="44.87342037660451" lon="9.925553644296231"><ele>140.0</ele><time>2026-03-22T08:22:28.999Z</time></trkpt><trkpt lat="44.87338422459892" lon="9.925440169679282"><ele>140.66666666666666</ele><time>2026-03-22T08:22:30.999Z</time></trkpt><trkpt lat="44.87335136285647" lon="9.925327427735834"><ele>141.33333333333331</ele><time>2026-03-22T08:22:32.999Z</time></trkpt><trkpt lat="44.873315285583445" lon="9.925212785955303"><ele>142.0</ele><time>2026-03-22T08:22:34.999Z</time></trkpt><trkpt lat="44.87328134297913" lon="9.925099721649557"><ele>142.66666666666666</ele><time>2026-03-22T08:22:36.999Z</time></trkpt><trkpt lat="44.873246431361935" lon="9.924982375097596"><ele>143.33333333333334</ele><time>2026-03-22T08:22:38.999Z</time></trkpt><trkpt lat="44.87321277095038" lon="9.92486835110234"><ele>144.0</ele><time>2026-03-22T08:22:40.999Z</time></trkpt><trkpt lat="44.873168109238264" lon="9.924721449810832"><ele>144.4</ele><time>2026-03-22T08:22:43.999Z</time></trkpt><trkpt lat="44.87313273076096" lon="9.924625058648092"><ele>144.8</ele><time>2026-03-22T08:22:45.999Z</time></trkpt><trkpt lat="44.873108545922406" lon="9.924529013311068"><ele>145.2</ele><time>2026-03-22T08:22:47.999Z</time></trkpt><trkpt lat="44.87302948426209" lon="9.924308304999354"><ele>145.6</ele><time>2026-03-22T08:22:50.999Z</time></trkpt><trkpt lat="44.87300081788731" lon="9.924193750662774"><ele>146.0</ele><time>2026-03-22T08:22:52.999Z</time></trkpt><trkpt lat="44.872962278467874" lon="9.924069516437637"><ele>146.2</ele><time>2026-03-22T08:22:54.999Z</time></trkpt><trkpt lat="44.87292125220617" lon="9.923946475880028"><ele>146.39999999999998</ele><time>2026-03-22T08:22:56.999Z</time></trkpt><trkpt lat="44.87285654582812" lon="9.92384783690164"><ele>146.6</ele><time>2026-03-22T08:22:58.998Z</time></trkpt><trkpt lat="44.8727982696472" lon="9.923748462001834"><ele>146.79999999999998</ele><time>2026-03-22T08:23:00.998Z</time></trkpt><trkpt lat="44.87273006446345" lon="9.923652865646254"><ele>147.0</ele><time>2026-03-22T08:23:02.998Z</time></trkpt><trkpt lat="44.87266366541346" lon="9.923554940389568"><ele>147.4</ele><time>2026-03-22T08:23:04.998Z</time></trkpt><trkpt lat="44.87259674097239" lon="9.923455012095827"><ele>147.79999999999998</ele><time>2026-03-22T08:23:06.998Z</time></trkpt><trkpt lat="44.872532742595745" lon="9.923353867257067"><ele>148.2</ele><time>2026-03-22T08:23:08.998Z</time></trkpt><trkpt lat="44.87245741875631" lon="9.923221984523256"><ele>148.6</ele><time>2026-03-22T08:23:10.998Z</time></trkpt><trkpt lat="44.872369516764834" lon="9.923140142352013"><ele>149.0</ele><time>2026-03-22T08:23:12.998Z</time></trkpt><trkpt lat="44.87230204077136" lon="9.923016224092029"><ele>149.0</ele><time>2026-03-22T08:23:14.998Z</time></trkpt><trkpt lat="44.87223125784304" lon="9.92288623278153"><ele>149.0</ele><time>2026-03-22T08:23:16.998Z</time></trkpt><trkpt lat="44.87215297318485" lon="9.922742464746367"><ele>149.0</ele><time>2026-03-22T08:23:19Z</time></trkpt><trkpt lat="44.87211370527934" lon="9.922671864420867"><ele>149.0</ele><time>2026-03-22T08:23:20Z</time></trkpt><trkpt lat="44.87207289926063" lon="9.922601087088713"><ele>149.0</ele><time>2026-03-22T08:23:21Z</time></trkpt><trkpt lat="44.87203002435157" lon="9.922531431803689"><ele>149.0</ele><time>2026-03-22T08:23:22Z</time></trkpt><trkpt lat="44.87198596494302" lon="9.922460216319148"><ele>148.85714285714286</ele><time>2026-03-22T08:23:23Z</time></trkpt><trkpt lat="44.87194155748463" lon="9.922388437277563"><ele>148.7142857142857</ele><time>2026-03-22T08:23:24Z</time></trkpt><trkpt lat="44.8718938434915" lon="9.922321098019683"><ele>148.57142857142856</ele><time>2026-03-22T08:23:25Z</time></trkpt><trkpt lat="44.87184701200699" lon="9.92225373168072"><ele>148.42857142857142</ele><time>2026-03-22T08:23:26Z</time></trkpt><trkpt lat="44.87179781568988" lon="9.922182962914"><ele>148.28571428571428</ele><time>2026-03-22T08:23:27Z</time></trkpt><trkpt lat="44.8717495287813" lon="9.922113501655753"><ele>148.14285714285714</ele><time>2026-03-22T08:23:28Z</time></trkpt><trkpt lat="44.87169703619285" lon="9.922046976731387"><ele>148.0</ele><time>2026-03-22T08:23:29Z</time></trkpt><trkpt lat="44.87164655181886" lon="9.921980480766498"><ele>148.0</ele><time>2026-03-22T08:23:30Z</time></trkpt><trkpt lat="44.87159121739256" lon="9.921909441936918"><ele>148.0</ele><time>2026-03-22T08:23:31Z</time></trkpt><trkpt lat="44.871537240273526" lon="9.921840145601355"><ele>148.0</ele><time>2026-03-22T08:23:32Z</time></trkpt><trkpt lat="44.87148277708545" lon="9.921770225247958"><ele>148.0</ele><time>2026-03-22T08:23:33Z</time></trkpt><trkpt lat="44.871429096138776" lon="9.921701373556733"><ele>148.0</ele><time>2026-03-22T08:23:34Z</time></trkpt><trkpt lat="44.87137601325094" lon="9.921633319855136"><ele>148.0</ele><time>2026-03-22T08:23:35Z</time></trkpt><trkpt lat="44.8713243319487" lon="9.921572234858518"><ele>148.0</ele><time>2026-03-22T08:23:36Z</time></trkpt><trkpt lat="44.87127068033598" lon="9.921512547021178"><ele>147.6</ele><time>2026-03-22T08:23:37Z</time></trkpt><trkpt lat="44.87121863025612" lon="9.92146257817991"><ele>147.20000000000002</ele><time>2026-03-22T08:23:38Z</time></trkpt><trkpt lat="44.87110515997786" lon="9.921402907172823"><ele>146.8</ele><time>2026-03-22T08:23:40Z</time></trkpt><trkpt lat="44.87099458120492" lon="9.921396583432"><ele>146.4</ele><time>2026-03-22T08:23:42Z</time></trkpt><trkpt lat="44.87093027838403" lon="9.92146201302896"><ele>146.0</ele><time>2026-03-22T08:23:43Z</time></trkpt><trkpt lat="44.870820710726804" lon="9.921517161543534"><ele>146.0</ele><time>2026-03-22T08:23:45Z</time></trkpt><trkpt lat="44.87071274342905" lon="9.921568953366673"><ele>146.0</ele><time>2026-03-22T08:23:47Z</time></trkpt><trkpt lat="44.87060837495113" lon="9.921621143978184"><ele>146.0</ele><time>2026-03-22T08:23:49Z</time></trkpt><trkpt lat="44.87050797619886" lon="9.921674477709258"><ele>146.0</ele><time>2026-03-22T08:23:51Z</time></trkpt><trkpt lat="44.87041261451997" lon="9.921730177146513"><ele>146.0</ele><time>2026-03-22T08:23:53Z</time></trkpt><trkpt lat="44.87031657448395" lon="9.92177890296527"><ele>145.8</ele><time>2026-03-22T08:23:55Z</time></trkpt><trkpt lat="44.87022036694368" lon="9.92182698101809"><ele>145.6</ele><time>2026-03-22T08:23:57Z</time></trkpt><trkpt lat="44.8701257106505" lon="9.921874754890338"><ele>145.4</ele><time>2026-03-22T08:23:59Z</time></trkpt><trkpt lat="44.8700283381095" lon="9.92192846018097"><ele>145.2</ele><time>2026-03-22T08:24:01Z</time></trkpt><trkpt lat="44.86992638199066" lon="9.921981669226762"><ele>145.0</ele><time>2026-03-22T08:24:03Z</time></trkpt><trkpt lat="44.86982377664889" lon="9.922038637458616"><ele>145.0</ele><time>2026-03-22T08:24:05Z</time></trkpt><trkpt lat="44.86972810262354" lon="9.922101735142693"><ele>145.0</ele><time>2026-03-22T08:24:07Z</time></trkpt><trkpt lat="44.869670914388614" lon="9.922143983551358"><ele>145.0</ele><time>2026-03-22T08:24:07.999Z</time></trkpt><trkpt lat="44.86957722001828" lon="9.922228517774501"><ele>145.0</ele><time>2026-03-22T08:24:09.999Z</time></trkpt><trkpt lat="44.869487626987194" lon="9.92234468091719"><ele>145.0</ele><time>2026-03-22T08:24:11.999Z</time></trkpt><trkpt lat="44.86939870450014" lon="9.922466455086475"><ele>146.0</ele><time>2026-03-22T08:24:13.999Z</time></trkpt><trkpt lat="44.8693118329708" lon="9.922587839990411"><ele>147.0</ele><time>2026-03-22T08:24:15.999Z</time></trkpt><trkpt lat="44.86922229045577" lon="9.922707718787677"><ele>148.0</ele><time>2026-03-22T08:24:17.999Z</time></trkpt><trkpt lat="44.86913980966464" lon="9.92282746247376"><ele>149.0</ele><time>2026-03-22T08:24:19.999Z</time></trkpt><trkpt lat="44.86905181403876" lon="9.922942837634878"><ele>149.0</ele><time>2026-03-22T08:24:21.999Z</time></trkpt><trkpt lat="44.868978038925356" lon="9.923068356525446"><ele>149.0</ele><time>2026-03-22T08:24:23.999Z</time></trkpt><trkpt lat="44.868906024561134" lon="9.923201823766341"><ele>149.0</ele><time>2026-03-22T08:24:25.999Z</time></trkpt><trkpt lat="44.86883613023082" lon="9.923348060256371"><ele>149.0</ele><time>2026-03-22T08:24:27.999Z</time></trkpt><trkpt lat="44.86881409906847" lon="9.923437538918403"><ele>149.0</ele><time>2026-03-22T08:24:28.999Z</time></trkpt><trkpt lat="44.86880867681963" lon="9.923547091576248"><ele>148.66666666666666</ele><time>2026-03-22T08:24:29.999Z</time></trkpt><trkpt lat="44.86881201765199" lon="9.923653484763236"><ele>148.33333333333331</ele><time>2026-03-22T08:24:30.999Z</time></trkpt><trkpt lat="44.868814102999465" lon="9.923759654727899"><ele>148.0</ele><time>2026-03-22T08:24:31.999Z</time></trkpt><trkpt lat="44.868816354514685" lon="9.92387017074233"><ele>147.66666666666666</ele><time>2026-03-22T08:24:32.999Z</time></trkpt><trkpt lat="44.868814676952866" lon="9.923976578591004"><ele>147.33333333333334</ele><time>2026-03-22T08:24:33.999Z</time></trkpt><trkpt lat="44.868809824643805" lon="9.924077150282242"><ele>147.0</ele><time>2026-03-22T08:24:34.999Z</time></trkpt><trkpt lat="44.868758506434396" lon="9.924223935397716"><ele>147.0</ele><time>2026-03-22T08:24:36.999Z</time></trkpt><trkpt lat="44.868706163822345" lon="9.924273994554207"><ele>147.0</ele><time>2026-03-22T08:24:37.999Z</time></trkpt><trkpt lat="44.8686261061922" lon="9.924259921495262"><ele>147.0</ele><time>2026-03-22T08:24:38.999Z</time></trkpt><trkpt lat="44.868547392505" lon="9.924218887591925"><ele>147.0</ele><time>2026-03-22T08:24:39.999Z</time></trkpt><trkpt lat="44.8684676363712" lon="9.924181251048525"><ele>147.0</ele><time>2026-03-22T08:24:40.999Z</time></trkpt><trkpt lat="44.86838782328775" lon="9.924148477601292"><ele>147.0</ele><time>2026-03-22T08:24:41.999Z</time></trkpt><trkpt lat="44.86830630867585" lon="9.924119772445286"><ele>146.0</ele><time>2026-03-22T08:24:42.999Z</time></trkpt><trkpt lat="44.868223636610054" lon="9.924091267321684"><ele>145.0</ele><time>2026-03-22T08:24:43.999Z</time></trkpt><trkpt lat="44.86813793622393" lon="9.924061852772887"><ele>144.0</ele><time>2026-03-22T08:24:44.999Z</time></trkpt><trkpt lat="44.868050689228646" lon="9.924034441397863"><ele>143.0</ele><time>2026-03-22T08:24:45.999Z</time></trkpt><trkpt lat="44.867964683283304" lon="9.924007364686574"><ele>142.0</ele><time>2026-03-22T08:24:46.999Z</time></trkpt><trkpt lat="44.867880360731284" lon="9.92397654926474"><ele>141.0</ele><time>2026-03-22T08:24:47.999Z</time></trkpt><trkpt lat="44.8677934994604" lon="9.923953065055711"><ele>141.0</ele><time>2026-03-22T08:24:48.999Z</time></trkpt><trkpt lat="44.86770293613694" lon="9.923941680141834"><ele>141.0</ele><time>2026-03-22T08:24:49.999Z</time></trkpt><trkpt lat="44.86761238137544" lon="9.923965892910385"><ele>141.0</ele><time>2026-03-22T08:24:50.999Z</time></trkpt><trkpt lat="44.86753419753594" lon="9.924044228787253"><ele>141.0</ele><time>2026-03-22T08:24:51.999Z</time></trkpt><trkpt lat="44.86747945661916" lon="9.924157057774108"><ele>141.0</ele><time>2026-03-22T08:24:52.999Z</time></trkpt><trkpt lat="44.867421166284146" lon="9.924261587582208"><ele>140.0</ele><time>2026-03-22T08:24:53.999Z</time></trkpt><trkpt lat="44.867381747995466" lon="9.92436553359659"><ele>139.0</ele><time>2026-03-22T08:24:54.999Z</time></trkpt><trkpt lat="44.86733679697899" lon="9.92445449124556"><ele>138.0</ele><time>2026-03-22T08:24:55.999Z</time></trkpt><trkpt lat="44.867283977371756" lon="9.924523045273396"><ele>137.0</ele><time>2026-03-22T08:24:56.999Z</time></trkpt><trkpt lat="44.86722886248472" lon="9.924587048515342"><ele>136.0</ele><time>2026-03-22T08:24:57.999Z</time></trkpt><trkpt lat="44.86715700068266" lon="9.924603429205563"><ele>135.0</ele><time>2026-03-22T08:24:58.999Z</time></trkpt><trkpt lat="44.86708764130696" lon="9.9246065653021"><ele>134.0</ele><time>2026-03-22T08:24:59.999Z</time></trkpt><trkpt lat="44.86702441677165" lon="9.924597276899497"><ele>134.0</ele><time>2026-03-22T08:25:00.999Z</time></trkpt><trkpt lat="44.86690829949334" lon="9.924597591988059"><ele>134.0</ele><time>2026-03-22T08:25:02.999Z</time></trkpt><trkpt lat="44.866799167617664" lon="9.924597220283609"><ele>134.0</ele><time>2026-03-22T08:25:04.998Z</time></trkpt><trkpt lat="44.86668463843045" lon="9.924600024218858"><ele>134.0</ele><time>2026-03-22T08:25:06.998Z</time></trkpt><trkpt lat="44.86657663567329" lon="9.924611319904995"><ele>134.0</ele><time>2026-03-22T08:25:08.998Z</time></trkpt><trkpt lat="44.86648143525992" lon="9.924614125128201"><ele>135.6</ele><time>2026-03-22T08:25:10.998Z</time></trkpt><trkpt lat="44.86642220546959" lon="9.924706696930368"><ele>137.2</ele><time>2026-03-22T08:25:11.998Z</time></trkpt><trkpt lat="44.86640415739868" lon="9.924850188619917"><ele>138.79999999999998</ele><time>2026-03-22T08:25:13.998Z</time></trkpt><trkpt lat="44.86640607590241" lon="9.924989428182526"><ele>140.4</ele><time>2026-03-22T08:25:15.998Z</time></trkpt><trkpt lat="44.86642864095748" lon="9.925113028301661"><ele>142.0</ele><time>2026-03-22T08:25:17.998Z</time></trkpt><trkpt lat="44.86650009952753" lon="9.925208297565911"><ele>141.66666666666669</ele><time>2026-03-22T08:25:19.998Z</time></trkpt><trkpt lat="44.86655186623612" lon="9.925306218428737"><ele>141.33333333333334</ele><time>2026-03-22T08:25:21.998Z</time></trkpt><trkpt lat="44.866610694119416" lon="9.925397635177108"><ele>141.0</ele><time>2026-03-22T08:25:23.998Z</time></trkpt><trkpt lat="44.86666931262528" lon="9.92548833134071"><ele>140.66666666666666</ele><time>2026-03-22T08:25:26Z</time></trkpt><trkpt lat="44.866728793079844" lon="9.92558605664229"><ele>140.33333333333331</ele><time>2026-03-22T08:25:28Z</time></trkpt><trkpt lat="44.866789868803025" lon="9.925680589636025"><ele>140.0</ele><time>2026-03-22T08:25:30Z</time></trkpt><trkpt lat="44.866846649993384" lon="9.925783494012844"><ele>141.33333333333331</ele><time>2026-03-22T08:25:32Z</time></trkpt><trkpt lat="44.86689129090932" lon="9.925897593125233"><ele>142.66666666666666</ele><time>2026-03-22T08:25:34Z</time></trkpt><trkpt lat="44.86690098010903" lon="9.926023454233"><ele>144.0</ele><time>2026-03-22T08:25:36Z</time></trkpt><trkpt lat="44.866867464505745" lon="9.926133350499434"><ele>145.33333333333334</ele><time>2026-03-22T08:25:38Z</time></trkpt><trkpt lat="44.86679781699639" lon="9.92620097393124"><ele>146.66666666666669</ele><time>2026-03-22T08:25:40Z</time></trkpt><trkpt lat="44.86671374110762" lon="9.926225540004532"><ele>148.0</ele><time>2026-03-22T08:25:42Z</time></trkpt><trkpt lat="44.86663540222014" lon="9.92623714989004"><ele>148.0</ele><time>2026-03-22T08:25:44Z</time></trkpt><trkpt lat="44.86655859298094" lon="9.92624532348831"><ele>148.0</ele><time>2026-03-22T08:25:46Z</time></trkpt><trkpt lat="44.86648168440639" lon="9.926253439033127"><ele>148.0</ele><time>2026-03-22T08:25:48Z</time></trkpt><trkpt lat="44.866406486835054" lon="9.926258896099945"><ele>148.0</ele><time>2026-03-22T08:25:50Z</time></trkpt><trkpt lat="44.866331752301" lon="9.926270508074381"><ele>148.0</ele><time>2026-03-22T08:25:52Z</time></trkpt><trkpt lat="44.866259441676526" lon="9.926277502410146"><ele>148.0</ele><time>2026-03-22T08:25:54Z</time></trkpt><trkpt lat="44.86618700532832" lon="9.926275551916355"><ele>148.0</ele><time>2026-03-22T08:25:56Z</time></trkpt><trkpt lat="44.86611564738261" lon="9.926261513422151"><ele>148.0</ele><time>2026-03-22T08:25:58Z</time></trkpt><trkpt lat="44.86604612869919" lon="9.926224583377174"><ele>148.0</ele><time>2026-03-22T08:26:00Z</time></trkpt><trkpt lat="44.8659878228259" lon="9.926168184348079"><ele>148.0</ele><time>2026-03-22T08:26:02Z</time></trkpt><trkpt lat="44.86592748442609" lon="9.92611035297779"><ele>148.0</ele><time>2026-03-22T08:26:04Z</time></trkpt><trkpt lat="44.86588021370852" lon="9.926038766708833"><ele>148.0</ele><time>2026-03-22T08:26:06Z</time></trkpt><trkpt lat="44.865828532419656" lon="9.925964568172033"><ele>148.0</ele><time>2026-03-22T08:26:08Z</time></trkpt><trkpt lat="44.86577918261672" lon="9.925888031125401"><ele>149.85714285714286</ele><time>2026-03-22T08:26:10Z</time></trkpt><trkpt lat="44.86572078874398" lon="9.925825377784166"><ele>151.71428571428572</ele><time>2026-03-22T08:26:11.999Z</time></trkpt><trkpt lat="44.86566206394532" lon="9.925783158485759"><ele>153.57142857142856</ele><time>2026-03-22T08:26:13.999Z</time></trkpt><trkpt lat="44.86559060409333" lon="9.925756680336999"><ele>155.42857142857144</ele><time>2026-03-22T08:26:15.999Z</time></trkpt><trkpt lat="44.86551675307796" lon="9.925752738854234"><ele>157.28571428571428</ele><time>2026-03-22T08:26:17.999Z</time></trkpt><trkpt lat="44.86544842383999" lon="9.925756377556311"><ele>159.14285714285714</ele><time>2026-03-22T08:26:19.999Z</time></trkpt><trkpt lat="44.865377203735804" lon="9.925759452005074"><ele>161.0</ele><time>2026-03-22T08:26:21.999Z</time></trkpt><trkpt lat="44.865307428013644" lon="9.925765036437669"><ele>161.0</ele><time>2026-03-22T08:26:23.999Z</time></trkpt><trkpt lat="44.86524100802948" lon="9.925781126303958"><ele>161.0</ele><time>2026-03-22T08:26:25.999Z</time></trkpt><trkpt lat="44.86517373619258" lon="9.925786144861677"><ele>161.0</ele><time>2026-03-22T08:26:27.999Z</time></trkpt><trkpt lat="44.86510288062465" lon="9.925793035030647"><ele>161.0</ele><time>2026-03-22T08:26:29.999Z</time></trkpt><trkpt lat="44.86503541928659" lon="9.925805224926675"><ele>161.0</ele><time>2026-03-22T08:26:31.999Z</time></trkpt><trkpt lat="44.864966527814246" lon="9.925817971376123"><ele>161.0</ele><time>2026-03-22T08:26:33.999Z</time></trkpt><trkpt lat="44.86489704952651" lon="9.925827862832264"><ele>161.0</ele><time>2026-03-22T08:26:35.999Z</time></trkpt><trkpt lat="44.864828813904644" lon="9.925838618989776"><ele>160.57142857142858</ele><time>2026-03-22T08:26:37.999Z</time></trkpt><trkpt lat="44.86475893930815" lon="9.925845839662749"><ele>160.14285714285714</ele><time>2026-03-22T08:26:39.999Z</time></trkpt><trkpt lat="44.86469264236375" lon="9.925854951670045"><ele>159.71428571428572</ele><time>2026-03-22T08:26:41.999Z</time></trkpt><trkpt lat="44.864626526788115" lon="9.925865986826388"><ele>159.28571428571428</ele><time>2026-03-22T08:26:43.999Z</time></trkpt><trkpt lat="44.86455826897024" lon="9.925879563585815"><ele>158.85714285714286</ele><time>2026-03-22T08:26:45.999Z</time></trkpt><trkpt lat="44.86449427005499" lon="9.925891539523786"><ele>158.42857142857144</ele><time>2026-03-22T08:26:47.999Z</time></trkpt><trkpt lat="44.86442782651849" lon="9.925912948744225"><ele>158.0</ele><time>2026-03-22T08:26:49.999Z</time></trkpt><trkpt lat="44.8643655509914" lon="9.925940757657507"><ele>158.00000000000003</ele><time>2026-03-22T08:26:51.999Z</time></trkpt><trkpt lat="44.864302848432835" lon="9.925969727406613"><ele>158.0</ele><time>2026-03-22T08:26:53.999Z</time></trkpt><trkpt lat="44.86423876634966" lon="9.926004201699216"><ele>158.0</ele><time>2026-03-22T08:26:55.999Z</time></trkpt><trkpt lat="44.86417382638179" lon="9.926038144874978"><ele>158.0</ele><time>2026-03-22T08:26:57.999Z</time></trkpt><trkpt lat="44.864104602478655" lon="9.926071575561549"><ele>158.0</ele><time>2026-03-22T08:26:59.999Z</time></trkpt><trkpt lat="44.864036079765846" lon="9.92611471182838"><ele>158.00000000000003</ele><time>2026-03-22T08:27:01.999Z</time></trkpt><trkpt lat="44.863969668191395" lon="9.926159539421333"><ele>158.0</ele><time>2026-03-22T08:27:03.999Z</time></trkpt><trkpt lat="44.86390592720583" lon="9.926211873697836"><ele>158.85714285714286</ele><time>2026-03-22T08:27:05.998Z</time></trkpt><trkpt lat="44.863835681173406" lon="9.92625304046264"><ele>159.71428571428572</ele><time>2026-03-22T08:27:07.998Z</time></trkpt><trkpt lat="44.86376495394414" lon="9.926293178090887"><ele>160.57142857142856</ele><time>2026-03-22T08:27:09.998Z</time></trkpt><trkpt lat="44.863706857914636" lon="9.926329624410444"><ele>161.42857142857144</ele><time>2026-03-22T08:27:11.998Z</time></trkpt><trkpt lat="44.863640839984484" lon="9.926370743591384"><ele>162.28571428571428</ele><time>2026-03-22T08:27:13.998Z</time></trkpt><trkpt lat="44.86357158871661" lon="9.926414199965773"><ele>163.14285714285714</ele><time>2026-03-22T08:27:15.998Z</time></trkpt><trkpt lat="44.86350183158537" lon="9.926448711012789"><ele>164.0</ele><time>2026-03-22T08:27:17.998Z</time></trkpt><trkpt lat="44.86343598032292" lon="9.92648908692825"><ele>165.0</ele><time>2026-03-22T08:27:19.998Z</time></trkpt><trkpt lat="44.86336290740851" lon="9.926533166032847"><ele>166.0</ele><time>2026-03-22T08:27:21.998Z</time></trkpt><trkpt lat="44.863292588833474" lon="9.926577557009255"><ele>167.0</ele><time>2026-03-22T08:27:23.998Z</time></trkpt><trkpt lat="44.86322827972074" lon="9.926622912077995"><ele>168.0</ele><time>2026-03-22T08:27:25.998Z</time></trkpt><trkpt lat="44.86316021920591" lon="9.926665628905624"><ele>169.0</ele><time>2026-03-22T08:27:27.998Z</time></trkpt><trkpt lat="44.86308412931896" lon="9.926691810991045"><ele>170.0</ele><time>2026-03-22T08:27:30Z</time></trkpt><trkpt lat="44.863011001397936" lon="9.926664096396605"><ele>170.0</ele><time>2026-03-22T08:27:32Z</time></trkpt><trkpt lat="44.86295458963848" lon="9.926586682034827"><ele>170.0</ele><time>2026-03-22T08:27:34Z</time></trkpt><trkpt lat="44.862905504126715" lon="9.92649807974496"><ele>170.0</ele><time>2026-03-22T08:27:36Z</time></trkpt><trkpt lat="44.86285993071118" lon="9.926405615944532"><ele>170.0</ele><time>2026-03-22T08:27:38Z</time></trkpt><trkpt lat="44.862810263608914" lon="9.926320674072024"><ele>170.0</ele><time>2026-03-22T08:27:40Z</time></trkpt><trkpt lat="44.8627637473081" lon="9.92622812632586"><ele>170.0</ele><time>2026-03-22T08:27:42Z</time></trkpt><trkpt lat="44.86270186886233" lon="9.926148274531947"><ele>170.0</ele><time>2026-03-22T08:27:44Z</time></trkpt><trkpt lat="44.86263603259037" lon="9.926079403834976"><ele>170.0</ele><time>2026-03-22T08:27:46Z</time></trkpt><trkpt lat="44.86257076479834" lon="9.926043001096051"><ele>170.0</ele><time>2026-03-22T08:27:49Z</time></trkpt><trkpt lat="44.86249962179602" lon="9.926004426211982"><ele>170.0</ele><time>2026-03-22T08:27:50Z</time></trkpt><trkpt lat="44.86243895537816" lon="9.925970804416503"><ele>170.0</ele><time>2026-03-22T08:27:52Z</time></trkpt><trkpt lat="44.86237025007035" lon="9.92593246985781"><ele>170.0</ele><time>2026-03-22T08:27:54Z</time></trkpt><trkpt lat="44.86228146757095" lon="9.925876466365809"><ele>170.0</ele><time>2026-03-22T08:27:56Z</time></trkpt><trkpt lat="44.86221552637301" lon="9.92583813226665"><ele>170.0</ele><time>2026-03-22T08:27:58Z</time></trkpt><trkpt lat="44.862142237211664" lon="9.925801301735271"><ele>170.0</ele><time>2026-03-22T08:28:00Z</time></trkpt><trkpt lat="44.862072050621904" lon="9.92576707347569"><ele>170.0</ele><time>2026-03-22T08:28:02Z</time></trkpt><trkpt lat="44.86199745741727" lon="9.925752510253727"><ele>170.0</ele><time>2026-03-22T08:28:04Z</time></trkpt><trkpt lat="44.86192211692115" lon="9.925748889414072"><ele>170.0</ele><time>2026-03-22T08:28:06Z</time></trkpt><trkpt lat="44.861845003655716" lon="9.925755529212251"><ele>171.0</ele><time>2026-03-22T08:28:08Z</time></trkpt><trkpt lat="44.861759123353416" lon="9.925775434755419"><ele>172.0</ele><time>2026-03-22T08:28:11Z</time></trkpt><trkpt lat="44.861669541554434" lon="9.925808231122595"><ele>173.0</ele><time>2026-03-22T08:28:13Z</time></trkpt><trkpt lat="44.86159737886052" lon="9.9258242093953"><ele>174.0</ele><time>2026-03-22T08:28:14.999Z</time></trkpt><trkpt lat="44.86152626321952" lon="9.925834258989472"><ele>175.0</ele><time>2026-03-22T08:28:16.999Z</time></trkpt><trkpt lat="44.86145039267871" lon="9.925837473472711"><ele>176.0</ele><time>2026-03-22T08:28:18.999Z</time></trkpt><trkpt lat="44.861367777675945" lon="9.925823980054624"><ele>176.0</ele><time>2026-03-22T08:28:21.999Z</time></trkpt><trkpt lat="44.86126078831221" lon="9.925796248823637"><ele>176.0</ele><time>2026-03-22T08:28:23.999Z</time></trkpt><trkpt lat="44.86117804371131" lon="9.925776451778155"><ele>176.0</ele><time>2026-03-22T08:28:25.999Z</time></trkpt><trkpt lat="44.86109543699995" lon="9.9257497853511"><ele>176.0</ele><time>2026-03-22T08:28:27.999Z</time></trkpt><trkpt lat="44.86101354423612" lon="9.92572760381888"><ele>176.0</ele><time>2026-03-22T08:28:29.999Z</time></trkpt><trkpt lat="44.86093119764246" lon="9.925703621381361"><ele>176.0</ele><time>2026-03-22T08:28:31.999Z</time></trkpt><trkpt lat="44.860852734980156" lon="9.925680664296905"><ele>176.4</ele><time>2026-03-22T08:28:33.999Z</time></trkpt><trkpt lat="44.86077925515067" lon="9.925659590666658"><ele>176.8</ele><time>2026-03-22T08:28:35.999Z</time></trkpt><trkpt lat="44.86069104307717" lon="9.92563010214869"><ele>177.20000000000002</ele><time>2026-03-22T08:28:37.999Z</time></trkpt><trkpt lat="44.860607702401815" lon="9.925614310597789"><ele>177.60000000000002</ele><time>2026-03-22T08:28:39.999Z</time></trkpt><trkpt lat="44.86051039362496" lon="9.925592228007364"><ele>178.0</ele><time>2026-03-22T08:28:41.999Z</time></trkpt><trkpt lat="44.86040161207747" lon="9.925582137140768"><ele>177.99999999999997</ele><time>2026-03-22T08:28:43.999Z</time></trkpt><trkpt lat="44.86033753733169" lon="9.925594372534505"><ele>178.0</ele><time>2026-03-22T08:28:44.999Z</time></trkpt><trkpt lat="44.860273738572005" lon="9.92559999657825"><ele>178.0</ele><time>2026-03-22T08:28:45.999Z</time></trkpt><trkpt lat="44.86020398544264" lon="9.925624848270138"><ele>178.0</ele><time>2026-03-22T08:28:46.999Z</time></trkpt><trkpt lat="44.860132914690126" lon="9.925671013028463"><ele>178.0</ele><time>2026-03-22T08:28:47.999Z</time></trkpt><trkpt lat="44.86006863694712" lon="9.925737601248553"><ele>177.99999999999997</ele><time>2026-03-22T08:28:48.999Z</time></trkpt><trkpt lat="44.860014737815796" lon="9.92582845889349"><ele>178.0</ele><time>2026-03-22T08:28:49.999Z</time></trkpt><trkpt lat="44.85997735485806" lon="9.92593809715833"><ele>177.66666666666669</ele><time>2026-03-22T08:28:50.999Z</time></trkpt><trkpt lat="44.85994907593969" lon="9.926053061386781"><ele>177.33333333333334</ele><time>2026-03-22T08:28:51.999Z</time></trkpt><trkpt lat="44.859926528315356" lon="9.926169730283785"><ele>177.0</ele><time>2026-03-22T08:28:52.999Z</time></trkpt><trkpt lat="44.85990889431275" lon="9.926300297831462"><ele>176.66666666666666</ele><time>2026-03-22T08:28:53.999Z</time></trkpt><trkpt lat="44.85989441478785" lon="9.926423966193632"><ele>176.33333333333331</ele><time>2026-03-22T08:28:54.999Z</time></trkpt><trkpt lat="44.85988822432313" lon="9.926546961978332"><ele>176.0</ele><time>2026-03-22T08:28:55.999Z</time></trkpt><trkpt lat="44.85988299117751" lon="9.926662966256487"><ele>176.66666666666666</ele><time>2026-03-22T08:28:56.999Z</time></trkpt><trkpt lat="44.859851406824426" lon="9.926773663645768"><ele>177.33333333333331</ele><time>2026-03-22T08:28:57.999Z</time></trkpt><trkpt lat="44.859834980602734" lon="9.926884776317845"><ele>178.0</ele><time>2026-03-22T08:28:58.999Z</time></trkpt><trkpt lat="44.85981933402272" lon="9.926978127228548"><ele>178.66666666666666</ele><time>2026-03-22T08:28:59.999Z</time></trkpt><trkpt lat="44.85980037888713" lon="9.92706781593604"><ele>179.33333333333334</ele><time>2026-03-22T08:29:00.999Z</time></trkpt><trkpt lat="44.859747680228246" lon="9.92720923655879"><ele>180.0</ele><time>2026-03-22T08:29:02.999Z</time></trkpt><trkpt lat="44.85968706397032" lon="9.927360628562107"><ele>180.0</ele><time>2026-03-22T08:29:04.999Z</time></trkpt><trkpt lat="44.85964323206742" lon="9.927474575649406"><ele>180.0</ele><time>2026-03-22T08:29:06.999Z</time></trkpt><trkpt lat="44.859572157714794" lon="9.927590501630215"><ele>180.0</ele><time>2026-03-22T08:29:08.999Z</time></trkpt><trkpt lat="44.859500921678766" lon="9.927704462884705"><ele>180.0</ele><time>2026-03-22T08:29:10.998Z</time></trkpt><trkpt lat="44.859416010822116" lon="9.927806877536442"><ele>180.0</ele><time>2026-03-22T08:29:12.998Z</time></trkpt><trkpt lat="44.85933099241308" lon="9.92789667443258"><ele>180.6</ele><time>2026-03-22T08:29:14.998Z</time></trkpt><trkpt lat="44.859243461005704" lon="9.927979970834617"><ele>181.2</ele><time>2026-03-22T08:29:16.998Z</time></trkpt><trkpt lat="44.85915196826729" lon="9.928059545128145"><ele>181.8</ele><time>2026-03-22T08:29:18.998Z</time></trkpt><trkpt lat="44.859072504895686" lon="9.928145343245431"><ele>182.4</ele><time>2026-03-22T08:29:20.998Z</time></trkpt><trkpt lat="44.85899439241412" lon="9.928240310148322"><ele>183.0</ele><time>2026-03-22T08:29:22.998Z</time></trkpt><trkpt lat="44.85887425484559" lon="9.928407281690378"><ele>183.0</ele><time>2026-03-22T08:29:25.998Z</time></trkpt><trkpt lat="44.85881282712414" lon="9.9285169175271"><ele>183.0</ele><time>2026-03-22T08:29:27.998Z</time></trkpt><trkpt lat="44.85876031541474" lon="9.928614255860618"><ele>183.0</ele><time>2026-03-22T08:29:29.998Z</time></trkpt><trkpt lat="44.85870366102844" lon="9.928719273129643"><ele>183.0</ele><time>2026-03-22T08:29:31.998Z</time></trkpt><trkpt lat="44.85867133625078" lon="9.928846707727503"><ele>183.0</ele><time>2026-03-22T08:29:33.998Z</time></trkpt><trkpt lat="44.85861663800614" lon="9.928953256651479"><ele>183.0</ele><time>2026-03-22T08:29:36Z</time></trkpt><trkpt lat="44.85855783633619" lon="9.929057731134526"><ele>183.0</ele><time>2026-03-22T08:29:38Z</time></trkpt><trkpt lat="44.85850204527255" lon="9.929164635431704"><ele>183.0</ele><time>2026-03-22T08:29:40Z</time></trkpt><trkpt lat="44.85844597605561" lon="9.929272470550512"><ele>183.0</ele><time>2026-03-22T08:29:42Z</time></trkpt><trkpt lat="44.858386260596035" lon="9.929378414519165"><ele>183.0</ele><time>2026-03-22T08:29:44Z</time></trkpt><trkpt lat="44.85833492467112" lon="9.929488323358838"><ele>182.75</ele><time>2026-03-22T08:29:46Z</time></trkpt><trkpt lat="44.85823336715605" lon="9.929606917958926"><ele>182.5</ele><time>2026-03-22T08:29:49Z</time></trkpt><trkpt lat="44.85817985245677" lon="9.929712727184642"><ele>182.25</ele><time>2026-03-22T08:29:51Z</time></trkpt><trkpt lat="44.85806513161137" lon="9.92993955362872"><ele>182.0</ele><time>2026-03-22T08:29:54Z</time></trkpt><trkpt lat="44.858002563038376" lon="9.930063264402527"><ele>182.0</ele><time>2026-03-22T08:29:56Z</time></trkpt><trkpt lat="44.857938296347655" lon="9.930190332786403"><ele>182.0</ele><time>2026-03-22T08:29:58Z</time></trkpt><trkpt lat="44.8578731608045" lon="9.930319116944917"><ele>182.0</ele><time>2026-03-22T08:30:00Z</time></trkpt><trkpt lat="44.85780724529339" lon="9.930444921101948"><ele>182.0</ele><time>2026-03-22T08:30:02Z</time></trkpt><trkpt lat="44.85773822981231" lon="9.930577942063167"><ele>182.0</ele><time>2026-03-22T08:30:04Z</time></trkpt><trkpt lat="44.85766832139139" lon="9.930712684048448"><ele>182.0</ele><time>2026-03-22T08:30:06Z</time></trkpt><trkpt lat="44.85759734088485" lon="9.930848037799258"><ele>182.0</ele><time>2026-03-22T08:30:08Z</time></trkpt><trkpt lat="44.85755832941445" lon="9.930919912972788"><ele>182.0</ele><time>2026-03-22T08:30:09Z</time></trkpt><trkpt lat="44.857477331317014" lon="9.931042275193889"><ele>182.0</ele><time>2026-03-22T08:30:11Z</time></trkpt><trkpt lat="44.85742650355087" lon="9.931104707155269"><ele>182.0</ele><time>2026-03-22T08:30:12Z</time></trkpt><trkpt lat="44.85733356312057" lon="9.931215744910759"><ele>182.0</ele><time>2026-03-22T08:30:14Z</time></trkpt><trkpt lat="44.857253622877" lon="9.931340277100897"><ele>182.0</ele><time>2026-03-22T08:30:16Z</time></trkpt><trkpt lat="44.857195986644996" lon="9.931380107999011"><ele>182.0</ele><time>2026-03-22T08:30:17Z</time></trkpt><trkpt lat="44.85711350977715" lon="9.93150397752196"><ele>182.0</ele><time>2026-03-22T08:30:19Z</time></trkpt><trkpt lat="44.85703984517382" lon="9.93163638850837"><ele>181.42857142857142</ele><time>2026-03-22T08:30:20.999Z</time></trkpt><trkpt lat="44.85699159014234" lon="9.931783998119306"><ele>180.85714285714286</ele><time>2026-03-22T08:30:22.999Z</time></trkpt><trkpt lat="44.85697889442286" lon="9.93187203300874"><ele>180.28571428571428</ele><time>2026-03-22T08:30:23.999Z</time></trkpt><trkpt lat="44.85698348024262" lon="9.931969934422192"><ele>179.71428571428572</ele><time>2026-03-22T08:30:24.999Z</time></trkpt><trkpt lat="44.85699922338269" lon="9.932056704676057"><ele>179.14285714285714</ele><time>2026-03-22T08:30:25.999Z</time></trkpt><trkpt lat="44.85702057218823" lon="9.932140920695764"><ele>178.57142857142856</ele><time>2026-03-22T08:30:26.999Z</time></trkpt><trkpt lat="44.85705120442777" lon="9.9322258869495"><ele>178.0</ele><time>2026-03-22T08:30:27.999Z</time></trkpt><trkpt lat="44.85708080209777" lon="9.932308634279988"><ele>178.0</ele><time>2026-03-22T08:30:28.999Z</time></trkpt><trkpt lat="44.85714376720377" lon="9.932467031364023"><ele>178.0</ele><time>2026-03-22T08:30:30.999Z</time></trkpt><trkpt lat="44.85717555218398" lon="9.9325462488806"><ele>178.0</ele><time>2026-03-22T08:30:31.999Z</time></trkpt><trkpt lat="44.85720793864069" lon="9.932624790831374"><ele>178.0</ele><time>2026-03-22T08:30:32.999Z</time></trkpt><trkpt lat="44.8572757707446" lon="9.932779058133386"><ele>178.0</ele><time>2026-03-22T08:30:34.999Z</time></trkpt><trkpt lat="44.85730995900286" lon="9.932856810848472"><ele>177.99999999999997</ele><time>2026-03-22T08:30:35.999Z</time></trkpt><trkpt lat="44.857344386981474" lon="9.932935108704061"><ele>178.0</ele><time>2026-03-22T08:30:36.999Z</time></trkpt><trkpt lat="44.85739194359306" lon="9.93299943797988"><ele>178.0</ele><time>2026-03-22T08:30:37.999Z</time></trkpt><trkpt lat="44.85742409830594" lon="9.933076636360168"><ele>178.0</ele><time>2026-03-22T08:30:38.999Z</time></trkpt><trkpt lat="44.8574564369908" lon="9.933154048894762"><ele>178.0</ele><time>2026-03-22T08:30:39.999Z</time></trkpt><trkpt lat="44.857491171028684" lon="9.933229000298729"><ele>177.99999999999997</ele><time>2026-03-22T08:30:40.999Z</time></trkpt><trkpt lat="44.857513425627495" lon="9.933314706234135"><ele>178.0</ele><time>2026-03-22T08:30:41.999Z</time></trkpt><trkpt lat="44.85759456299047" lon="9.933453612523836"><ele>177.28571428571428</ele><time>2026-03-22T08:30:43.999Z</time></trkpt><trkpt lat="44.85762853839588" lon="9.933533388295018"><ele>176.57142857142856</ele><time>2026-03-22T08:30:44.999Z</time></trkpt><trkpt lat="44.85766397078706" lon="9.933612165899081"><ele>175.85714285714283</ele><time>2026-03-22T08:30:45.999Z</time></trkpt><trkpt lat="44.85769669024923" lon="9.933691033212977"><ele>175.14285714285714</ele><time>2026-03-22T08:30:46.999Z</time></trkpt><trkpt lat="44.85773176334063" lon="9.933773494104171"><ele>174.42857142857144</ele><time>2026-03-22T08:30:47.999Z</time></trkpt><trkpt lat="44.85776827633116" lon="9.933849440419177"><ele>173.7142857142857</ele><time>2026-03-22T08:30:48.999Z</time></trkpt><trkpt lat="44.85780170582514" lon="9.933927940013344"><ele>173.0</ele><time>2026-03-22T08:30:49.999Z</time></trkpt><trkpt lat="44.85783397714218" lon="9.93400596783304"><ele>173.0</ele><time>2026-03-22T08:30:50.999Z</time></trkpt><trkpt lat="44.85786559767735" lon="9.934083815933278"><ele>173.0</ele><time>2026-03-22T08:30:51.999Z</time></trkpt><trkpt lat="44.857898787645674" lon="9.934160496261343"><ele>173.0</ele><time>2026-03-22T08:30:52.999Z</time></trkpt><trkpt lat="44.85796550685188" lon="9.934306401792286"><ele>173.0</ele><time>2026-03-22T08:30:54.999Z</time></trkpt><trkpt lat="44.85803342480219" lon="9.93445648275216"><ele>173.0</ele><time>2026-03-22T08:30:56.999Z</time></trkpt><trkpt lat="44.85806937038238" lon="9.934531973466939"><ele>173.0</ele><time>2026-03-22T08:30:57.999Z</time></trkpt><trkpt lat="44.858102910008895" lon="9.93460908220573"><ele>173.33333333333331</ele><time>2026-03-22T08:30:58.999Z</time></trkpt><trkpt lat="44.85813650890861" lon="9.934687458350488"><ele>173.66666666666666</ele><time>2026-03-22T08:30:59.999Z</time></trkpt><trkpt lat="44.85820479254602" lon="9.934836995920673"><ele>174.0</ele><time>2026-03-22T08:31:01.999Z</time></trkpt><trkpt lat="44.858239108663604" lon="9.934914279833249"><ele>174.33333333333334</ele><time>2026-03-22T08:31:02.999Z</time></trkpt><trkpt lat="44.858273568089004" lon="9.934992765965616"><ele>174.66666666666669</ele><time>2026-03-22T08:31:03.999Z</time></trkpt><trkpt lat="44.85831046861346" lon="9.93506788247321"><ele>175.0</ele><time>2026-03-22T08:31:04.999Z</time></trkpt><trkpt lat="44.85834384702482" lon="9.935145864961152"><ele>175.16666666666669</ele><time>2026-03-22T08:31:05.999Z</time></trkpt><trkpt lat="44.858378600147766" lon="9.935220886344656"><ele>175.33333333333334</ele><time>2026-03-22T08:31:06.999Z</time></trkpt><trkpt lat="44.858401808824304" lon="9.935308749231424"><ele>175.5</ele><time>2026-03-22T08:31:07.999Z</time></trkpt><trkpt lat="44.85845019016527" lon="9.935375412168657"><ele>175.66666666666666</ele><time>2026-03-22T08:31:08.999Z</time></trkpt><trkpt lat="44.85851694628915" lon="9.935526139305608"><ele>175.83333333333331</ele><time>2026-03-22T08:31:10.999Z</time></trkpt><trkpt lat="44.858551123446155" lon="9.935604129143524"><ele>176.0</ele><time>2026-03-22T08:31:11.999Z</time></trkpt><trkpt lat="44.85858525718272" lon="9.935678795578035"><ele>175.20000000000002</ele><time>2026-03-22T08:31:12.999Z</time></trkpt><trkpt lat="44.85861944093428" lon="9.93575410970063"><ele>174.4</ele><time>2026-03-22T08:31:13.998Z</time></trkpt><trkpt lat="44.85868087632551" lon="9.935903103512212"><ele>173.6</ele><time>2026-03-22T08:31:15.998Z</time></trkpt><trkpt lat="44.858749751142035" lon="9.936048554782502"><ele>172.8</ele><time>2026-03-22T08:31:17.998Z</time></trkpt><trkpt lat="44.858817241997684" lon="9.93618930380823"><ele>172.0</ele><time>2026-03-22T08:31:19.998Z</time></trkpt><trkpt lat="44.858867826821104" lon="9.93634455122993"><ele>171.75</ele><time>2026-03-22T08:31:21.998Z</time></trkpt><trkpt lat="44.85892382625481" lon="9.93649188642225"><ele>171.5</ele><time>2026-03-22T08:31:23.998Z</time></trkpt><trkpt lat="44.85894227464242" lon="9.936648352523429"><ele>171.25</ele><time>2026-03-22T08:31:25.998Z</time></trkpt><trkpt lat="44.858891490160126" lon="9.936786932670433"><ele>171.0</ele><time>2026-03-22T08:31:27.998Z</time></trkpt><trkpt lat="44.85882382998808" lon="9.936909449274777"><ele>171.0</ele><time>2026-03-22T08:31:29.998Z</time></trkpt><trkpt lat="44.85875713931372" lon="9.937029025149679"><ele>171.0</ele><time>2026-03-22T08:31:31.998Z</time></trkpt><trkpt lat="44.85869168250634" lon="9.937147901870905"><ele>171.0</ele><time>2026-03-22T08:31:33.998Z</time></trkpt><trkpt lat="44.85862597247762" lon="9.937268201310188"><ele>171.0</ele><time>2026-03-22T08:31:35.998Z</time></trkpt><trkpt lat="44.858555102506365" lon="9.93739794734824"><ele>171.0</ele><time>2026-03-22T08:31:37.998Z</time></trkpt><trkpt lat="44.85848506552015" lon="9.937527631498378"><ele>170.60000000000002</ele><time>2026-03-22T08:31:39.998Z</time></trkpt><trkpt lat="44.858413414557525" lon="9.93766201582728"><ele>170.2</ele><time>2026-03-22T08:31:42Z</time></trkpt><trkpt lat="44.85834038987454" lon="9.937798976639405"><ele>169.8</ele><time>2026-03-22T08:31:44Z</time></trkpt><trkpt lat="44.85826419508001" lon="9.937941883151273"><ele>169.39999999999998</ele><time>2026-03-22T08:31:46Z</time></trkpt><trkpt lat="44.858224179790916" lon="9.938019237904332"><ele>169.0</ele><time>2026-03-22T08:31:47Z</time></trkpt><trkpt lat="44.85818358932533" lon="9.938097733477885"><ele>169.0</ele><time>2026-03-22T08:31:48Z</time></trkpt><trkpt lat="44.8581443827878" lon="9.93817355265394"><ele>169.0</ele><time>2026-03-22T08:31:49Z</time></trkpt><trkpt lat="44.85810238369136" lon="9.938247637027656"><ele>169.0</ele><time>2026-03-22T08:31:50Z</time></trkpt><trkpt lat="44.85805792122065" lon="9.938314924125887"><ele>169.0</ele><time>2026-03-22T08:31:51Z</time></trkpt><trkpt lat="44.85801565084279" lon="9.938382360262237"><ele>169.0</ele><time>2026-03-22T08:31:52Z</time></trkpt><trkpt lat="44.85794771842149" lon="9.93840610288135"><ele>169.0</ele><time>2026-03-22T08:31:53Z</time></trkpt><trkpt lat="44.85787828120182" lon="9.938416906462939"><ele>169.0</ele><time>2026-03-22T08:31:54Z</time></trkpt><trkpt lat="44.85780180826144" lon="9.93842604770735"><ele>167.16666666666669</ele><time>2026-03-22T08:31:55Z</time></trkpt><trkpt lat="44.857723831096685" lon="9.938439493489218"><ele>165.33333333333334</ele><time>2026-03-22T08:31:56Z</time></trkpt><trkpt lat="44.85764630458479" lon="9.938449819352513"><ele>163.5</ele><time>2026-03-22T08:31:57Z</time></trkpt><trkpt lat="44.85756588820983" lon="9.93846222062399"><ele>161.66666666666666</ele><time>2026-03-22T08:31:58Z</time></trkpt><trkpt lat="44.85748380980806" lon="9.938472355951795"><ele>159.83333333333331</ele><time>2026-03-22T08:31:59Z</time></trkpt><trkpt lat="44.857401152336294" lon="9.938480942771392"><ele>158.0</ele><time>2026-03-22T08:32:00Z</time></trkpt><trkpt lat="44.85731696195901" lon="9.93848432066894"><ele>157.66666666666666</ele><time>2026-03-22T08:32:01Z</time></trkpt><trkpt lat="44.85723319971654" lon="9.93848727699469"><ele>157.33333333333331</ele><time>2026-03-22T08:32:02Z</time></trkpt><trkpt lat="44.857147616895354" lon="9.938488301813713"><ele>157.0</ele><time>2026-03-22T08:32:03Z</time></trkpt><trkpt lat="44.8570585976192" lon="9.938485843436231"><ele>156.66666666666666</ele><time>2026-03-22T08:32:04Z</time></trkpt><trkpt lat="44.85696858727359" lon="9.938480749740648"><ele>156.33333333333334</ele><time>2026-03-22T08:32:05Z</time></trkpt><trkpt lat="44.85687722345968" lon="9.9384766898965"><ele>156.0</ele><time>2026-03-22T08:32:06Z</time></trkpt><trkpt lat="44.85678476501761" lon="9.938478667893984"><ele>155.0</ele><time>2026-03-22T08:32:07Z</time></trkpt><trkpt lat="44.85669412219715" lon="9.938494577154831"><ele>154.0</ele><time>2026-03-22T08:32:08Z</time></trkpt><trkpt lat="44.856601565133175" lon="9.93854165718628"><ele>153.0</ele><time>2026-03-22T08:32:09Z</time></trkpt><trkpt lat="44.85651817951302" lon="9.938617281568717"><ele>152.0</ele><time>2026-03-22T08:32:10Z</time></trkpt><trkpt lat="44.85644790799917" lon="9.938729281691437"><ele>151.0</ele><time>2026-03-22T08:32:11Z</time></trkpt><trkpt lat="44.85638412880886" lon="9.938846017583415"><ele>151.0</ele><time>2026-03-22T08:32:12Z</time></trkpt><trkpt lat="44.856335185992094" lon="9.938968906217474"><ele>151.0</ele><time>2026-03-22T08:32:13Z</time></trkpt><trkpt lat="44.856288151903634" lon="9.939094157096411"><ele>151.0</ele><time>2026-03-22T08:32:14Z</time></trkpt><trkpt lat="44.85624323126692" lon="9.93922316613194"><ele>151.0</ele><time>2026-03-22T08:32:15Z</time></trkpt><trkpt lat="44.856200427372734" lon="9.939355816743777"><ele>151.0</ele><time>2026-03-22T08:32:16Z</time></trkpt><trkpt lat="44.85616289535995" lon="9.939484253295433"><ele>149.8</ele><time>2026-03-22T08:32:17Z</time></trkpt><trkpt lat="44.85613821445108" lon="9.939622790803456"><ele>148.6</ele><time>2026-03-22T08:32:18Z</time></trkpt><trkpt lat="44.85613722274907" lon="9.939765960703715"><ele>147.4</ele><time>2026-03-22T08:32:19Z</time></trkpt><trkpt lat="44.85615333786984" lon="9.939901718821108"><ele>146.2</ele><time>2026-03-22T08:32:20Z</time></trkpt><trkpt lat="44.85618411378107" lon="9.940033055130979"><ele>145.0</ele><time>2026-03-22T08:32:21Z</time></trkpt><trkpt lat="44.85623549181363" lon="9.940151606760438"><ele>143.8</ele><time>2026-03-22T08:32:22Z</time></trkpt><trkpt lat="44.85631291847368" lon="9.940235515492393"><ele>142.6</ele><time>2026-03-22T08:32:23Z</time></trkpt><trkpt lat="44.856385594844994" lon="9.94031688571233"><ele>141.4</ele><time>2026-03-22T08:32:23.999Z</time></trkpt><trkpt lat="44.8564706099199" lon="9.940384827467236"><ele>140.2</ele><time>2026-03-22T08:32:24.999Z</time></trkpt><trkpt lat="44.856560179058064" lon="9.940446448760111"><ele>139.0</ele><time>2026-03-22T08:32:25.999Z</time></trkpt><trkpt lat="44.85665182820447" lon="9.94050456309068"><ele>139.0</ele><time>2026-03-22T08:32:26.999Z</time></trkpt><trkpt lat="44.85674564222363" lon="9.94056249458709"><ele>139.0</ele><time>2026-03-22T08:32:27.999Z</time></trkpt><trkpt lat="44.85684002610852" lon="9.94061953152386"><ele>139.0</ele><time>2026-03-22T08:32:28.999Z</time></trkpt><trkpt lat="44.85692355399876" lon="9.940683759993096"><ele>139.0</ele><time>2026-03-22T08:32:29.999Z</time></trkpt><trkpt lat="44.856987651231826" lon="9.9407722773986"><ele>139.0</ele><time>2026-03-22T08:32:30.999Z</time></trkpt><trkpt lat="44.85703121469936" lon="9.940850057726394"><ele>137.8</ele><time>2026-03-22T08:32:31.999Z</time></trkpt><trkpt lat="44.85703433786678" lon="9.941005406444082"><ele>136.60000000000002</ele><time>2026-03-22T08:32:33.999Z</time></trkpt><trkpt lat="44.856949975900804" lon="9.941152029604893"><ele>135.4</ele><time>2026-03-22T08:32:35.999Z</time></trkpt><trkpt lat="44.85688725669299" lon="9.941219408840755"><ele>134.20000000000002</ele><time>2026-03-22T08:32:36.999Z</time></trkpt><trkpt lat="44.85681777192244" lon="9.941280508791197"><ele>133.0</ele><time>2026-03-22T08:32:37.999Z</time></trkpt><trkpt lat="44.856745817679446" lon="9.941344221486307"><ele>132.5</ele><time>2026-03-22T08:32:38.999Z</time></trkpt><trkpt lat="44.856677576591586" lon="9.94140824751753"><ele>132.0</ele><time>2026-03-22T08:32:39.999Z</time></trkpt><trkpt lat="44.85661876204011" lon="9.941471460137997"><ele>131.5</ele><time>2026-03-22T08:32:40.999Z</time></trkpt><trkpt lat="44.85657278962888" lon="9.941581604916813"><ele>131.0</ele><time>2026-03-22T08:32:41.999Z</time></trkpt><trkpt lat="44.8565611858678" lon="9.941710330564646"><ele>130.5</ele><time>2026-03-22T08:32:42.999Z</time></trkpt><trkpt lat="44.85658176784595" lon="9.941825880047459"><ele>130.0</ele><time>2026-03-22T08:32:43.999Z</time></trkpt><trkpt lat="44.85661472676702" lon="9.941927155401302"><ele>129.0</ele><time>2026-03-22T08:32:44.999Z</time></trkpt><trkpt lat="44.856653833132896" lon="9.94202023798559"><ele>128.0</ele><time>2026-03-22T08:32:45.999Z</time></trkpt><trkpt lat="44.85669810479684" lon="9.942102852027471"><ele>127.0</ele><time>2026-03-22T08:32:46.999Z</time></trkpt><trkpt lat="44.85673793645586" lon="9.942176310382543"><ele>126.0</ele><time>2026-03-22T08:32:47.999Z</time></trkpt><trkpt lat="44.856805819887825" lon="9.94228231551498"><ele>125.00000000000001</ele><time>2026-03-22T08:32:49.999Z</time></trkpt><trkpt lat="44.856831475162295" lon="9.94236646290682"><ele>124.0</ele><time>2026-03-22T08:32:55.999Z</time></trkpt><trkpt lat="44.856776087556135" lon="9.942271509899783"><ele>123.4</ele><time>2026-03-22T08:33:01.999Z</time></trkpt><trkpt lat="44.85663219583548" lon="9.942312736649665"><ele>122.80000000000001</ele><time>2026-03-22T08:33:03.999Z</time></trkpt><trkpt lat="44.856556087699104" lon="9.94228137509349"><ele>122.19999999999999</ele><time>2026-03-22T08:33:05.999Z</time></trkpt><trkpt lat="44.85647116564855" lon="9.942253628721966"><ele>121.6</ele><time>2026-03-22T08:33:07.999Z</time></trkpt><trkpt lat="44.85638005832866" lon="9.942225274042652"><ele>121.0</ele><time>2026-03-22T08:33:09.999Z</time></trkpt><trkpt lat="44.85631447597703" lon="9.942192007069613"><ele>121.0</ele><time>2026-03-22T08:33:12.999Z</time></trkpt><trkpt lat="44.856143538388025" lon="9.94210348228924"><ele>121.0</ele><time>2026-03-22T08:33:14.999Z</time></trkpt><trkpt lat="44.85605665573381" lon="9.942030319152474"><ele>121.0</ele><time>2026-03-22T08:33:16.999Z</time></trkpt><trkpt lat="44.855980444055625" lon="9.9419260108394"><ele>121.0</ele><time>2026-03-22T08:33:18.998Z</time></trkpt><trkpt lat="44.85590620231195" lon="9.941805303238134"><ele>121.4</ele><time>2026-03-22T08:33:20.998Z</time></trkpt><trkpt lat="44.855840972862545" lon="9.941678008845523"><ele>121.8</ele><time>2026-03-22T08:33:22.998Z</time></trkpt><trkpt lat="44.85577267836074" lon="9.941552092001336"><ele>122.20000000000002</ele><time>2026-03-22T08:33:24.998Z</time></trkpt><trkpt lat="44.85570309924987" lon="9.94142781344795"><ele>122.60000000000001</ele><time>2026-03-22T08:33:26.998Z</time></trkpt><trkpt lat="44.855636416184495" lon="9.941299474074277"><ele>123.0</ele><time>2026-03-22T08:33:28.998Z</time></trkpt><trkpt lat="44.855565861113675" lon="9.941167833313866"><ele>123.0</ele><time>2026-03-22T08:33:30.998Z</time></trkpt><trkpt lat="44.85549570545356" lon="9.941033604800028"><ele>123.00000000000001</ele><time>2026-03-22T08:33:32.998Z</time></trkpt><trkpt lat="44.855432085062574" lon="9.940892196527031"><ele>123.00000000000001</ele><time>2026-03-22T08:33:34.998Z</time></trkpt><trkpt lat="44.85539146661014" lon="9.940820270764648"><ele>123.0</ele><time>2026-03-22T08:33:35.998Z</time></trkpt><trkpt lat="44.855314658357685" lon="9.94067862424954"><ele>123.0</ele><time>2026-03-22T08:33:37.998Z</time></trkpt><trkpt lat="44.85527616951658" lon="9.940605335385781"><ele>122.85714285714288</ele><time>2026-03-22T08:33:38.998Z</time></trkpt><trkpt lat="44.85523657856449" lon="9.940531020782256"><ele>122.71428571428572</ele><time>2026-03-22T08:33:39.998Z</time></trkpt><trkpt lat="44.855193348442455" lon="9.94045644574489"><ele>122.57142857142857</ele><time>2026-03-22T08:33:40.998Z</time></trkpt><trkpt lat="44.85515282387596" lon="9.940385387604664"><ele>122.42857142857143</ele><time>2026-03-22T08:33:41.998Z</time></trkpt><trkpt lat="44.85511501847942" lon="9.940309455487474"><ele>122.28571428571428</ele><time>2026-03-22T08:33:42.998Z</time></trkpt><trkpt lat="44.85507508931921" lon="9.940240353383805"><ele>122.14285714285712</ele><time>2026-03-22T08:33:43.998Z</time></trkpt><trkpt lat="44.85503460748384" lon="9.940166868386234"><ele>121.99999999999999</ele><time>2026-03-22T08:33:44.998Z</time></trkpt><trkpt lat="44.854992563111935" lon="9.9400921269616"><ele>122.28571428571428</ele><time>2026-03-22T08:33:45.998Z</time></trkpt><trkpt lat="44.85494925925303" lon="9.94001657120058"><ele>122.57142857142857</ele><time>2026-03-22T08:33:47Z</time></trkpt><trkpt lat="44.854908243490755" lon="9.939942241859479"><ele>122.85714285714286</ele><time>2026-03-22T08:33:48Z</time></trkpt><trkpt lat="44.85486710824508" lon="9.939863476568657"><ele>123.14285714285714</ele><time>2026-03-22T08:33:49Z</time></trkpt><trkpt lat="44.8548284152244" lon="9.939784157157623"><ele>123.42857142857144</ele><time>2026-03-22T08:33:50Z</time></trkpt><trkpt lat="44.854784508308335" lon="9.939704768120603"><ele>123.71428571428572</ele><time>2026-03-22T08:33:51Z</time></trkpt><trkpt lat="44.854739688617855" lon="9.93962867110369"><ele>124.0</ele><time>2026-03-22T08:33:52Z</time></trkpt><trkpt lat="44.85469812453579" lon="9.939550573090019"><ele>124.0</ele><time>2026-03-22T08:33:53Z</time></trkpt><trkpt lat="44.85465687160065" lon="9.939475004028628"><ele>124.00000000000001</ele><time>2026-03-22T08:33:54Z</time></trkpt><trkpt lat="44.85461400855031" lon="9.939398100821139"><ele>124.0</ele><time>2026-03-22T08:33:55Z</time></trkpt><trkpt lat="44.85457098023305" lon="9.939323940785142"><ele>124.0</ele><time>2026-03-22T08:33:56Z</time></trkpt><trkpt lat="44.8545292329656" lon="9.939243911641519"><ele>124.00000000000001</ele><time>2026-03-22T08:33:57Z</time></trkpt><trkpt lat="44.85448669220539" lon="9.939166482869865"><ele>124.0</ele><time>2026-03-22T08:33:58Z</time></trkpt><trkpt lat="44.85444572160575" lon="9.939091060186744"><ele>124.0</ele><time>2026-03-22T08:33:59Z</time></trkpt><trkpt lat="44.85440384434323" lon="9.939013281418617"><ele>124.0</ele><time>2026-03-22T08:34:00Z</time></trkpt><trkpt lat="44.85436339831356" lon="9.938933751857757"><ele>124.00000000000001</ele><time>2026-03-22T08:34:01Z</time></trkpt><trkpt lat="44.85432280202024" lon="9.93885851091271"><ele>124.0</ele><time>2026-03-22T08:34:02Z</time></trkpt><trkpt lat="44.85428106999765" lon="9.938787444498853"><ele>124.0</ele><time>2026-03-22T08:34:03Z</time></trkpt><trkpt lat="44.85424084547731" lon="9.938714197942772"><ele>124.00000000000001</ele><time>2026-03-22T08:34:04Z</time></trkpt><trkpt lat="44.85420473580808" lon="9.93864096361736"><ele>124.0</ele><time>2026-03-22T08:34:05Z</time></trkpt><trkpt lat="44.85416549754009" lon="9.938569394821318"><ele>124.0</ele><time>2026-03-22T08:34:06Z</time></trkpt><trkpt lat="44.854125705007945" lon="9.938494790920645"><ele>123.83333333333334</ele><time>2026-03-22T08:34:07Z</time></trkpt><trkpt lat="44.854088122644164" lon="9.938420813420935"><ele>123.66666666666667</ele><time>2026-03-22T08:34:08Z</time></trkpt><trkpt lat="44.854049097679486" lon="9.938349624174206"><ele>123.5</ele><time>2026-03-22T08:34:09Z</time></trkpt><trkpt lat="44.85397121571733" lon="9.938206734049157"><ele>123.33333333333334</ele><time>2026-03-22T08:34:11Z</time></trkpt><trkpt lat="44.8539333743296" lon="9.938130813659559"><ele>123.16666666666667</ele><time>2026-03-22T08:34:12Z</time></trkpt><trkpt lat="44.853859383324185" lon="9.937993245013132"><ele>123.0</ele><time>2026-03-22T08:34:14Z</time></trkpt><trkpt lat="44.85378462389689" lon="9.937852207855194"><ele>123.16666666666667</ele><time>2026-03-22T08:34:16Z</time></trkpt><trkpt lat="44.853746044447" lon="9.937780214608116"><ele>123.33333333333334</ele><time>2026-03-22T08:34:17Z</time></trkpt><trkpt lat="44.853707302107296" lon="9.93770833030114"><ele>123.5</ele><time>2026-03-22T08:34:18Z</time></trkpt><trkpt lat="44.853630051052285" lon="9.937567957926746"><ele>123.66666666666667</ele><time>2026-03-22T08:34:20Z</time></trkpt><trkpt lat="44.853554657910074" lon="9.937425211821314"><ele>123.83333333333334</ele><time>2026-03-22T08:34:22Z</time></trkpt><trkpt lat="44.85351666168491" lon="9.937353490606524"><ele>124.0</ele><time>2026-03-22T08:34:23Z</time></trkpt><trkpt lat="44.85344294642644" lon="9.937212429499867"><ele>124.0</ele><time>2026-03-22T08:34:25Z</time></trkpt><trkpt lat="44.85340446901815" lon="9.937140687762307"><ele>124.0</ele><time>2026-03-22T08:34:26Z</time></trkpt><trkpt lat="44.853328420939114" lon="9.937003464608983"><ele>124.0</ele><time>2026-03-22T08:34:27.999Z</time></trkpt><trkpt lat="44.853255051506274" lon="9.936866586990462"><ele>124.0</ele><time>2026-03-22T08:34:29.999Z</time></trkpt><trkpt lat="44.8531805713209" lon="9.936725246376762"><ele>124.0</ele><time>2026-03-22T08:34:31.999Z</time></trkpt><trkpt lat="44.85310794726424" lon="9.936589993757588"><ele>124.75</ele><time>2026-03-22T08:34:33.999Z</time></trkpt><trkpt lat="44.85303420260174" lon="9.93645368866804"><ele>125.5</ele><time>2026-03-22T08:34:35.999Z</time></trkpt><trkpt lat="44.85296016187655" lon="9.936317995610887"><ele>126.25</ele><time>2026-03-22T08:34:37.999Z</time></trkpt><trkpt lat="44.85288282179723" lon="9.936186473635349"><ele>127.0</ele><time>2026-03-22T08:34:39.999Z</time></trkpt><trkpt lat="44.8528107969779" lon="9.93605614212688"><ele>127.0</ele><time>2026-03-22T08:34:41.999Z</time></trkpt><trkpt lat="44.85273711499072" lon="9.935929262409182"><ele>127.0</ele><time>2026-03-22T08:34:43.999Z</time></trkpt><trkpt lat="44.85265817931109" lon="9.935802923705202"><ele>127.0</ele><time>2026-03-22T08:34:45.999Z</time></trkpt><trkpt lat="44.8525783950569" lon="9.93568623984482"><ele>127.0</ele><time>2026-03-22T08:34:47.999Z</time></trkpt><trkpt lat="44.85249626330073" lon="9.935566954144988"><ele>127.5</ele><time>2026-03-22T08:34:49.999Z</time></trkpt><trkpt lat="44.852412276456505" lon="9.935455248144633"><ele>128.0</ele><time>2026-03-22T08:34:51.999Z</time></trkpt><trkpt lat="44.85232029732371" lon="9.93534757170167"><ele>128.5</ele><time>2026-03-22T08:34:53.999Z</time></trkpt><trkpt lat="44.852221669040645" lon="9.935254284189298"><ele>129.0</ele><time>2026-03-22T08:34:55.999Z</time></trkpt><trkpt lat="44.852121740622806" lon="9.935167796229823"><ele>129.0</ele><time>2026-03-22T08:34:57.999Z</time></trkpt><trkpt lat="44.8520199891766" lon="9.935084604734056"><ele>129.0</ele><time>2026-03-22T08:34:59.999Z</time></trkpt><trkpt lat="44.851918021150674" lon="9.93500318323378"><ele>129.0</ele><time>2026-03-22T08:35:01.999Z</time></trkpt><trkpt lat="44.85181541902125" lon="9.934925669491836"><ele>129.0</ele><time>2026-03-22T08:35:03.999Z</time></trkpt><trkpt lat="44.85171082779522" lon="9.93484299349575"><ele>130.25</ele><time>2026-03-22T08:35:05.999Z</time></trkpt><trkpt lat="44.85160272816062" lon="9.93476625955372"><ele>131.5</ele><time>2026-03-22T08:35:07.999Z</time></trkpt><trkpt lat="44.85149792879114" lon="9.934689251715064"><ele>132.75</ele><time>2026-03-22T08:35:09.999Z</time></trkpt><trkpt lat="44.8513919206046" lon="9.934605268844052"><ele>134.0</ele><time>2026-03-22T08:35:11.999Z</time></trkpt><trkpt lat="44.85128920089799" lon="9.93452416884773"><ele>134.0</ele><time>2026-03-22T08:35:13.999Z</time></trkpt><trkpt lat="44.85118939431934" lon="9.934425688997255"><ele>134.0</ele><time>2026-03-22T08:35:15.999Z</time></trkpt><trkpt lat="44.85109125757662" lon="9.934324299088157"><ele>134.0</ele><time>2026-03-22T08:35:17.999Z</time></trkpt><trkpt lat="44.85099382778086" lon="9.934218779313513"><ele>134.0</ele><time>2026-03-22T08:35:19.999Z</time></trkpt><trkpt lat="44.85089730803366" lon="9.934105951357331"><ele>134.0</ele><time>2026-03-22T08:35:21.998Z</time></trkpt><trkpt lat="44.850847088747656" lon="9.934050463335783"><ele>134.0</ele><time>2026-03-22T08:35:22.998Z</time></trkpt><trkpt lat="44.850800089871214" lon="9.933990105275688"><ele>134.0</ele><time>2026-03-22T08:35:23.998Z</time></trkpt><trkpt lat="44.85075327189295" lon="9.933930378793203"><ele>134.0</ele><time>2026-03-22T08:35:24.998Z</time></trkpt><trkpt lat="44.85070407807447" lon="9.933866850493418"><ele>134.0</ele><time>2026-03-22T08:35:25.998Z</time></trkpt><trkpt lat="44.850657479733876" lon="9.933806786642448"><ele>134.0</ele><time>2026-03-22T08:35:26.998Z</time></trkpt><trkpt lat="44.850611848075665" lon="9.933742524410773"><ele>134.0</ele><time>2026-03-22T08:35:27.998Z</time></trkpt><trkpt lat="44.85056517974658" lon="9.933679305741494"><ele>134.0</ele><time>2026-03-22T08:35:28.998Z</time></trkpt><trkpt lat="44.85051913621045" lon="9.933616857885138"><ele>134.0</ele><time>2026-03-22T08:35:29.998Z</time></trkpt><trkpt lat="44.85047263587553" lon="9.933555081183076"><ele>134.0</ele><time>2026-03-22T08:35:30.998Z</time></trkpt><trkpt lat="44.85042814748325" lon="9.933487967850686"><ele>134.0</ele><time>2026-03-22T08:35:31.998Z</time></trkpt><trkpt lat="44.85038290053833" lon="9.933424179954965"><ele>134.0</ele><time>2026-03-22T08:35:32.998Z</time></trkpt><trkpt lat="44.85033640462478" lon="9.933357718576527"><ele>134.0</ele><time>2026-03-22T08:35:33.998Z</time></trkpt><trkpt lat="44.85028924695905" lon="9.933295589020474"><ele>134.0</ele><time>2026-03-22T08:35:34.998Z</time></trkpt><trkpt lat="44.8502410634374" lon="9.933229564139657"><ele>134.0</ele><time>2026-03-22T08:35:35.998Z</time></trkpt><trkpt lat="44.85019533808357" lon="9.933162066916442"><ele>134.0</ele><time>2026-03-22T08:35:36.998Z</time></trkpt><trkpt lat="44.85014917994147" lon="9.933095576721767"><ele>134.0</ele><time>2026-03-22T08:35:37.998Z</time></trkpt><trkpt lat="44.85010226817065" lon="9.93302809212804"><ele>134.0</ele><time>2026-03-22T08:35:38.998Z</time></trkpt><trkpt lat="44.85005337108745" lon="9.932962717618004"><ele>134.0</ele><time>2026-03-22T08:35:39.998Z</time></trkpt><trkpt lat="44.85000567943127" lon="9.932897141108365"><ele>134.0</ele><time>2026-03-22T08:35:40.998Z</time></trkpt><trkpt lat="44.84995768744384" lon="9.93283160169504"><ele>134.0</ele><time>2026-03-22T08:35:41.998Z</time></trkpt><trkpt lat="44.849912287375176" lon="9.93276562894513"><ele>134.0</ele><time>2026-03-22T08:35:42.998Z</time></trkpt><trkpt lat="44.84986463060713" lon="9.932698863102086"><ele>134.0</ele><time>2026-03-22T08:35:43.998Z</time></trkpt><trkpt lat="44.84981761037985" lon="9.932631930808824"><ele>134.0</ele><time>2026-03-22T08:35:44.998Z</time></trkpt><trkpt lat="44.849771002080466" lon="9.932566208246836"><ele>134.0</ele><time>2026-03-22T08:35:45.998Z</time></trkpt><trkpt lat="44.849723286929866" lon="9.932500425161475"><ele>134.0</ele><time>2026-03-22T08:35:46.998Z</time></trkpt><trkpt lat="44.8496755586022" lon="9.93243603198345"><ele>134.0</ele><time>2026-03-22T08:35:47.998Z</time></trkpt><trkpt lat="44.84962851612225" lon="9.93237145400921"><ele>134.0</ele><time>2026-03-22T08:35:48.998Z</time></trkpt><trkpt lat="44.84958094037257" lon="9.932305148240491"><ele>134.0</ele><time>2026-03-22T08:35:49.998Z</time></trkpt><trkpt lat="44.849534059766135" lon="9.93224054877492"><ele>134.14285714285714</ele><time>2026-03-22T08:35:50.998Z</time></trkpt><trkpt lat="44.84948652878687" lon="9.932177426871114"><ele>134.28571428571428</ele><time>2026-03-22T08:35:52Z</time></trkpt><trkpt lat="44.84943913791875" lon="9.932111662493723"><ele>134.42857142857142</ele><time>2026-03-22T08:35:53Z</time></trkpt><trkpt lat="44.84939140879701" lon="9.932046841226107"><ele>134.57142857142856</ele><time>2026-03-22T08:35:54Z</time></trkpt><trkpt lat="44.849344313256395" lon="9.931980097422656"><ele>134.7142857142857</ele><time>2026-03-22T08:35:55Z</time></trkpt><trkpt lat="44.84929747670096" lon="9.93191354865722"><ele>134.85714285714286</ele><time>2026-03-22T08:35:56Z</time></trkpt><trkpt lat="44.84925286956421" lon="9.931847515936404"><ele>135.0</ele><time>2026-03-22T08:35:57Z</time></trkpt><trkpt lat="44.84920432696674" lon="9.93178080899626"><ele>135.28571428571428</ele><time>2026-03-22T08:35:58Z</time></trkpt><trkpt lat="44.84915504150351" lon="9.931715439790768"><ele>135.57142857142856</ele><time>2026-03-22T08:35:59Z</time></trkpt><trkpt lat="44.84910659515383" lon="9.93165067235844"><ele>135.85714285714286</ele><time>2026-03-22T08:36:00Z</time></trkpt><trkpt lat="44.84905885220685" lon="9.93158457263694"><ele>136.14285714285714</ele><time>2026-03-22T08:36:01Z</time></trkpt><trkpt lat="44.84901148253107" lon="9.931518767713563"><ele>136.42857142857144</ele><time>2026-03-22T08:36:02Z</time></trkpt><trkpt lat="44.84896305166413" lon="9.931451333119274"><ele>136.71428571428572</ele><time>2026-03-22T08:36:03Z</time></trkpt><trkpt lat="44.8489148181058" lon="9.931383918916394"><ele>137.0</ele><time>2026-03-22T08:36:04Z</time></trkpt><trkpt lat="44.84886545512379" lon="9.931317725022659"><ele>137.00000000000003</ele><time>2026-03-22T08:36:05Z</time></trkpt><trkpt lat="44.84881773208621" lon="9.931249212528646"><ele>137.0</ele><time>2026-03-22T08:36:06Z</time></trkpt><trkpt lat="44.84876866170992" lon="9.931182129532647"><ele>137.0</ele><time>2026-03-22T08:36:07Z</time></trkpt><trkpt lat="44.8487209952833" lon="9.931113515157925"><ele>137.0</ele><time>2026-03-22T08:36:08Z</time></trkpt><trkpt lat="44.848674209789785" lon="9.931045689041571"><ele>137.0</ele><time>2026-03-22T08:36:09Z</time></trkpt><trkpt lat="44.8486259167337" lon="9.93097742759283"><ele>137.00000000000003</ele><time>2026-03-22T08:36:10Z</time></trkpt><trkpt lat="44.84857695175804" lon="9.930911102113267"><ele>137.0</ele><time>2026-03-22T08:36:11Z</time></trkpt><trkpt lat="44.848528613485826" lon="9.930842896243393"><ele>137.42857142857144</ele><time>2026-03-22T08:36:12Z</time></trkpt><trkpt lat="44.84848186543801" lon="9.930775770383914"><ele>137.85714285714286</ele><time>2026-03-22T08:36:13Z</time></trkpt><trkpt lat="44.848434043442566" lon="9.9307073012425"><ele>138.28571428571428</ele><time>2026-03-22T08:36:14Z</time></trkpt><trkpt lat="44.84838516169861" lon="9.930641661185925"><ele>138.71428571428572</ele><time>2026-03-22T08:36:15Z</time></trkpt><trkpt lat="44.84833800105198" lon="9.930573050816982"><ele>139.14285714285714</ele><time>2026-03-22T08:36:16Z</time></trkpt><trkpt lat="44.848289988481085" lon="9.930506085292947"><ele>139.57142857142858</ele><time>2026-03-22T08:36:17Z</time></trkpt><trkpt lat="44.84824155770159" lon="9.930437451647126"><ele>140.0</ele><time>2026-03-22T08:36:18Z</time></trkpt><trkpt lat="44.84819264434019" lon="9.93037111065495"><ele>139.85714285714286</ele><time>2026-03-22T08:36:19Z</time></trkpt><trkpt lat="44.848143302764484" lon="9.9303061001674"><ele>139.71428571428572</ele><time>2026-03-22T08:36:20Z</time></trkpt><trkpt lat="44.8480945480765" lon="9.930239470541013"><ele>139.57142857142856</ele><time>2026-03-22T08:36:21Z</time></trkpt><trkpt lat="44.84804550282019" lon="9.930172649005325"><ele>139.42857142857144</ele><time>2026-03-22T08:36:22Z</time></trkpt><trkpt lat="44.84799783457333" lon="9.930106497943537"><ele>139.28571428571428</ele><time>2026-03-22T08:36:23Z</time></trkpt><trkpt lat="44.84795098035815" lon="9.930035768388906"><ele>139.14285714285714</ele><time>2026-03-22T08:36:24Z</time></trkpt><trkpt lat="44.847902662614715" lon="9.929967409578442"><ele>139.0</ele><time>2026-03-22T08:36:25Z</time></trkpt><trkpt lat="44.847853521966215" lon="9.929899839725957"><ele>139.0</ele><time>2026-03-22T08:36:26Z</time></trkpt><trkpt lat="44.847803976666896" lon="9.929833675959006"><ele>139.0</ele><time>2026-03-22T08:36:27Z</time></trkpt><trkpt lat="44.84775587080927" lon="9.929766284420873"><ele>139.0</ele><time>2026-03-22T08:36:28Z</time></trkpt><trkpt lat="44.84770775872033" lon="9.929699221381"><ele>139.0</ele><time>2026-03-22T08:36:28.999Z</time></trkpt><trkpt lat="44.84765855821467" lon="9.92963315918034"><ele>139.0</ele><time>2026-03-22T08:36:29.999Z</time></trkpt><trkpt lat="44.84761151325901" lon="9.92956851935845"><ele>139.0</ele><time>2026-03-22T08:36:30.999Z</time></trkpt><trkpt lat="44.84756360307814" lon="9.929502820451981"><ele>139.0</ele><time>2026-03-22T08:36:31.999Z</time></trkpt><trkpt lat="44.84751865102091" lon="9.929438747595983"><ele>139.0</ele><time>2026-03-22T08:36:32.999Z</time></trkpt><trkpt lat="44.84747246289572" lon="9.929370345178542"><ele>139.0</ele><time>2026-03-22T08:36:33.999Z</time></trkpt><trkpt lat="44.84742810621155" lon="9.929306397823055"><ele>139.0</ele><time>2026-03-22T08:36:34.999Z</time></trkpt><trkpt lat="44.84738234648925" lon="9.929242796772845"><ele>139.0</ele><time>2026-03-22T08:36:35.999Z</time></trkpt><trkpt lat="44.84733778505698" lon="9.929177807571483"><ele>139.0</ele><time>2026-03-22T08:36:36.999Z</time></trkpt><trkpt lat="44.84729166340821" lon="9.929115981815551"><ele>139.0</ele><time>2026-03-22T08:36:37.999Z</time></trkpt><trkpt lat="44.84724622021339" lon="9.929051674370854"><ele>139.0</ele><time>2026-03-22T08:36:38.999Z</time></trkpt><trkpt lat="44.847200855867015" lon="9.92898680444978"><ele>139.0</ele><time>2026-03-22T08:36:39.999Z</time></trkpt><trkpt lat="44.84715531005852" lon="9.92891880528047"><ele>139.0</ele><time>2026-03-22T08:36:40.999Z</time></trkpt><trkpt lat="44.847111502729106" lon="9.928852176419555"><ele>139.0</ele><time>2026-03-22T08:36:41.999Z</time></trkpt><trkpt lat="44.84706728028868" lon="9.928780289085354"><ele>139.0</ele><time>2026-03-22T08:36:42.999Z</time></trkpt><trkpt lat="44.84702440975353" lon="9.928713273184666"><ele>139.0</ele><time>2026-03-22T08:36:43.999Z</time></trkpt><trkpt lat="44.84698282114171" lon="9.928641886822614"><ele>139.0</ele><time>2026-03-22T08:36:44.999Z</time></trkpt><trkpt lat="44.84694449690841" lon="9.928567129434231"><ele>139.0</ele><time>2026-03-22T08:36:45.999Z</time></trkpt><trkpt lat="44.846867236946174" lon="9.928419882417774"><ele>139.2</ele><time>2026-03-22T08:36:47.999Z</time></trkpt><trkpt lat="44.84679281039935" lon="9.928271882794022"><ele>139.4</ele><time>2026-03-22T08:36:49.999Z</time></trkpt><trkpt lat="44.846719208277165" lon="9.928129284094016"><ele>139.6</ele><time>2026-03-22T08:36:51.999Z</time></trkpt><trkpt lat="44.846680426880546" lon="9.928053065616039"><ele>139.8</ele><time>2026-03-22T08:36:52.999Z</time></trkpt><trkpt lat="44.84664168771817" lon="9.927981750623085"><ele>140.0</ele><time>2026-03-22T08:36:53.999Z</time></trkpt><trkpt lat="44.84660388774891" lon="9.92790605147029"><ele>140.0</ele><time>2026-03-22T08:36:54.999Z</time></trkpt><trkpt lat="44.8465655563432" lon="9.927831717335796"><ele>140.0</ele><time>2026-03-22T08:36:55.999Z</time></trkpt><trkpt lat="44.84652860694818" lon="9.927755107045762"><ele>140.0</ele><time>2026-03-22T08:36:56.999Z</time></trkpt><trkpt lat="44.84649266527307" lon="9.927681257691635"><ele>140.0</ele><time>2026-03-22T08:36:57.999Z</time></trkpt><trkpt lat="44.84645572931066" lon="9.927606720592332"><ele>140.0</ele><time>2026-03-22T08:36:58.999Z</time></trkpt><trkpt lat="44.84638385982867" lon="9.927457992145726"><ele>140.0</ele><time>2026-03-22T08:37:00.999Z</time></trkpt><trkpt lat="44.846346272752456" lon="9.927385679199851"><ele>141.0</ele><time>2026-03-22T08:37:01.999Z</time></trkpt><trkpt lat="44.846307593613766" lon="9.92731140659025"><ele>142.0</ele><time>2026-03-22T08:37:02.999Z</time></trkpt><trkpt lat="44.84623172774719" lon="9.92716533545419"><ele>143.0</ele><time>2026-03-22T08:37:04.999Z</time></trkpt><trkpt lat="44.84616444618258" lon="9.927010847973975"><ele>144.0</ele><time>2026-03-22T08:37:06.999Z</time></trkpt><trkpt lat="44.84613388359381" lon="9.926932924358566"><ele>145.0</ele><time>2026-03-22T08:37:07.999Z</time></trkpt><trkpt lat="44.84610286193779" lon="9.926850357703167"><ele>145.0</ele><time>2026-03-22T08:37:08.999Z</time></trkpt><trkpt lat="44.84607478803528" lon="9.92676838148234"><ele>145.0</ele><time>2026-03-22T08:37:09.999Z</time></trkpt><trkpt lat="44.84604894896758" lon="9.926685185292872"><ele>145.0</ele><time>2026-03-22T08:37:10.999Z</time></trkpt><trkpt lat="44.84602568152835" lon="9.926597480075477"><ele>145.0</ele><time>2026-03-22T08:37:11.999Z</time></trkpt><trkpt lat="44.846000996567064" lon="9.926507026549316"><ele>145.0</ele><time>2026-03-22T08:37:12.999Z</time></trkpt><trkpt lat="44.845973197067906" lon="9.926420281122814"><ele>145.0</ele><time>2026-03-22T08:37:13.999Z</time></trkpt><trkpt lat="44.84595544667493" lon="9.926327443155767"><ele>145.0</ele><time>2026-03-22T08:37:14.999Z</time></trkpt><trkpt lat="44.84593472145861" lon="9.926235301938508"><ele>144.0</ele><time>2026-03-22T08:37:15.999Z</time></trkpt><trkpt lat="44.8459114675158" lon="9.926145771884816"><ele>143.0</ele><time>2026-03-22T08:37:16.999Z</time></trkpt><trkpt lat="44.84706728028868" lon="9.928780289085354"><ele>142.4</ele><time>2026-03-22T08:36:42.999Z</time></trkpt><trkpt lat="44.84702440975353" lon="9.928713273184666"><ele>141.8</ele><time>2026-03-22T08:36:43.999Z</time></trkpt><trkpt lat="44.84698282114171" lon="9.928641886822614"><ele>141.2</ele><time>2026-03-22T08:36:44.999Z</time></trkpt><trkpt lat="44.84694449690841" lon="9.928567129434231"><ele>140.6</ele><time>2026-03-22T08:36:45.999Z</time></trkpt><trkpt lat="44.846867236946174" lon="9.928419882417774"><ele>140.0</ele><time>2026-03-22T08:36:47.999Z</time></trkpt><trkpt lat="44.84679281039935" lon="9.928271882794022"><ele>140.0</ele><time>2026-03-22T08:36:49.999Z</time></trkpt><trkpt lat="44.846719208277165" lon="9.928129284094016"><ele>140.0</ele><time>2026-03-22T08:36:51.999Z</time></trkpt><trkpt lat="44.846680426880546" lon="9.928053065616039"><ele>140.0</ele><time>2026-03-22T08:36:52.999Z</time></trkpt><trkpt lat="44.84664168771817" lon="9.927981750623085"><ele>140.0</ele><time>2026-03-22T08:36:53.999Z</time></trkpt><trkpt lat="44.84660388774891" lon="9.92790605147029"><ele>140.0</ele><time>2026-03-22T08:36:54.999Z</time></trkpt><trkpt lat="44.8465655563432" lon="9.927831717335796"><ele>140.0</ele><time>2026-03-22T08:36:55.999Z</time></trkpt><trkpt lat="44.84652860694818" lon="9.927755107045762"><ele>140.0</ele><time>2026-03-22T08:36:56.999Z</time></trkpt><trkpt lat="44.84649266527307" lon="9.927681257691635"><ele>140.0</ele><time>2026-03-22T08:36:57.999Z</time></trkpt><trkpt lat="44.84645572931066" lon="9.927606720592332"><ele>140.0</ele><time>2026-03-22T08:36:58.999Z</time></trkpt><trkpt lat="44.84638385982867" lon="9.927457992145726"><ele>140.0</ele><time>2026-03-22T08:37:00.999Z</time></trkpt><trkpt lat="44.846346272752456" lon="9.927385679199851"><ele>140.0</ele><time>2026-03-22T08:37:01.999Z</time></trkpt><trkpt lat="44.846307593613766" lon="9.92731140659025"><ele>140.0</ele><time>2026-03-22T08:37:02.999Z</time></trkpt><trkpt lat="44.84623172774719" lon="9.92716533545419"><ele>140.83333333333331</ele><time>2026-03-22T08:37:04.999Z</time></trkpt><trkpt lat="44.84616444618258" lon="9.927010847973975"><ele>141.66666666666666</ele><time>2026-03-22T08:37:06.999Z</time></trkpt><trkpt lat="44.84613388359381" lon="9.926932924358566"><ele>142.5</ele><time>2026-03-22T08:37:07.999Z</time></trkpt><trkpt lat="44.84610286193779" lon="9.926850357703167"><ele>143.33333333333334</ele><time>2026-03-22T08:37:08.999Z</time></trkpt><trkpt lat="44.84607478803528" lon="9.92676838148234"><ele>144.16666666666669</ele><time>2026-03-22T08:37:09.999Z</time></trkpt><trkpt lat="44.84604894896758" lon="9.926685185292872"><ele>145.0</ele><time>2026-03-22T08:37:10.999Z</time></trkpt><trkpt lat="44.84602568152835" lon="9.926597480075477"><ele>144.71428571428572</ele><time>2026-03-22T08:37:11.999Z</time></trkpt><trkpt lat="44.846000996567064" lon="9.926507026549316"><ele>144.42857142857144</ele><time>2026-03-22T08:37:12.999Z</time></trkpt><trkpt lat="44.845973197067906" lon="9.926420281122814"><ele>144.14285714285714</ele><time>2026-03-22T08:37:13.999Z</time></trkpt><trkpt lat="44.84595544667493" lon="9.926327443155767"><ele>143.85714285714286</ele><time>2026-03-22T08:37:14.999Z</time></trkpt><trkpt lat="44.84593472145861" lon="9.926235301938508"><ele>143.57142857142856</ele><time>2026-03-22T08:37:15.999Z</time></trkpt><trkpt lat="44.8459114675158" lon="9.926145771884816"><ele>143.28571428571428</ele><time>2026-03-22T08:37:16.999Z</time></trkpt><trkpt lat="44.845889412605715" lon="9.926056923650668"><ele>143.0</ele><time>2026-03-22T08:37:17.999Z</time></trkpt><trkpt lat="44.84586577302254" lon="9.925967824840024"><ele>142.99999999999997</ele><time>2026-03-22T08:37:18.999Z</time></trkpt><trkpt lat="44.845846327034046" lon="9.925881049447812"><ele>143.0</ele><time>2026-03-22T08:37:19.999Z</time></trkpt><trkpt lat="44.845800087331256" lon="9.925799155052697"><ele>143.0</ele><time>2026-03-22T08:37:20.999Z</time></trkpt><trkpt lat="44.84577764588935" lon="9.925709186004088"><ele>143.0</ele><time>2026-03-22T08:37:21.999Z</time></trkpt><trkpt lat="44.84575451368209" lon="9.925616695682633"><ele>143.0</ele><time>2026-03-22T08:37:22.998Z</time></trkpt><trkpt lat="44.845731225476555" lon="9.925523628820157"><ele>142.99999999999997</ele><time>2026-03-22T08:37:23.998Z</time></trkpt><trkpt lat="44.84570793365583" lon="9.925430547485753"><ele>143.0</ele><time>2026-03-22T08:37:24.998Z</time></trkpt><trkpt lat="44.84568497099844" lon="9.925338781638136"><ele>142.99999999999997</ele><time>2026-03-22T08:37:25.998Z</time></trkpt><trkpt lat="44.8456609175684" lon="9.925242178536184"><ele>143.0</ele><time>2026-03-22T08:37:26.998Z</time></trkpt><trkpt lat="44.8456376645129" lon="9.925146897057294"><ele>143.0</ele><time>2026-03-22T08:37:27.998Z</time></trkpt><trkpt lat="44.84561407786182" lon="9.925050248484139"><ele>143.0</ele><time>2026-03-22T08:37:28.998Z</time></trkpt><trkpt lat="44.845590600853754" lon="9.924954049434005"><ele>143.0</ele><time>2026-03-22T08:37:29.998Z</time></trkpt><trkpt lat="44.84556656166688" lon="9.924859520230239"><ele>142.99999999999997</ele><time>2026-03-22T08:37:30.998Z</time></trkpt><trkpt lat="44.84554241746555" lon="9.92476535982082"><ele>143.0</ele><time>2026-03-22T08:37:31.998Z</time></trkpt><trkpt lat="44.845517962649495" lon="9.9246699876882"><ele>143.14285714285714</ele><time>2026-03-22T08:37:32.998Z</time></trkpt><trkpt lat="44.84549394881327" lon="9.924576335519307"><ele>143.28571428571428</ele><time>2026-03-22T08:37:33.998Z</time></trkpt><trkpt lat="44.84546961163014" lon="9.924481421942463"><ele>143.42857142857144</ele><time>2026-03-22T08:37:34.998Z</time></trkpt><trkpt lat="44.845445393949234" lon="9.924386894378411"><ele>143.57142857142856</ele><time>2026-03-22T08:37:35.998Z</time></trkpt><trkpt lat="44.84542216496618" lon="9.924295722938103"><ele>143.71428571428572</ele><time>2026-03-22T08:37:36.998Z</time></trkpt><trkpt lat="44.84539915722466" lon="9.924205420394149"><ele>143.85714285714286</ele><time>2026-03-22T08:37:37.998Z</time></trkpt><trkpt lat="44.84537646330459" lon="9.924116349251658"><ele>144.0</ele><time>2026-03-22T08:37:38.998Z</time></trkpt><trkpt lat="44.845353785948305" lon="9.924027343208884"><ele>144.14285714285717</ele><time>2026-03-22T08:37:39.998Z</time></trkpt><trkpt lat="44.84533121622806" lon="9.92393876001121"><ele>144.28571428571428</ele><time>2026-03-22T08:37:40.998Z</time></trkpt><trkpt lat="44.84530861929919" lon="9.923850069368163"><ele>144.42857142857144</ele><time>2026-03-22T08:37:41.998Z</time></trkpt><trkpt lat="44.84528607501377" lon="9.92376158280921"><ele>144.57142857142858</ele><time>2026-03-22T08:37:42.998Z</time></trkpt><trkpt lat="44.84526407425024" lon="9.92367826734449"><ele>144.71428571428572</ele><time>2026-03-22T08:37:43.998Z</time></trkpt><trkpt lat="44.84524186210123" lon="9.923593231503185"><ele>144.85714285714286</ele><time>2026-03-22T08:37:44.998Z</time></trkpt><trkpt lat="44.84521970841621" lon="9.923508419783152"><ele>145.0</ele><time>2026-03-22T08:37:45.998Z</time></trkpt><trkpt lat="44.845175125440825" lon="9.923345730340419"><ele>144.8</ele><time>2026-03-22T08:37:47.998Z</time></trkpt><trkpt lat="44.84512729392759" lon="9.92319012917059"><ele>144.6</ele><time>2026-03-22T08:37:49.998Z</time></trkpt><trkpt lat="44.84506837479427" lon="9.923036786825467"><ele>144.4</ele><time>2026-03-22T08:37:51.998Z</time></trkpt><trkpt lat="44.84500410316932" lon="9.922892914937115"><ele>144.2</ele><time>2026-03-22T08:37:53.998Z</time></trkpt><trkpt lat="44.8449823988276" lon="9.922807684679727"><ele>144.0</ele><time>2026-03-22T08:37:54.998Z</time></trkpt><trkpt lat="44.84490403008506" lon="9.922670247603921"><ele>144.8</ele><time>2026-03-22T08:37:56.998Z</time></trkpt><trkpt lat="44.84482909385885" lon="9.922529434235239"><ele>145.60000000000002</ele><time>2026-03-22T08:37:59Z</time></trkpt><trkpt lat="44.844754642308544" lon="9.922386978823749"><ele>146.4</ele><time>2026-03-22T08:38:01Z</time></trkpt><trkpt lat="44.84467939464484" lon="9.922251132018104"><ele>147.20000000000002</ele><time>2026-03-22T08:38:03Z</time></trkpt><trkpt lat="44.844640258504946" lon="9.92218031139375"><ele>148.0</ele><time>2026-03-22T08:38:04Z</time></trkpt><trkpt lat="44.84456342984932" lon="9.922039982215253"><ele>148.0</ele><time>2026-03-22T08:38:06Z</time></trkpt><trkpt lat="44.84448528894369" lon="9.921905168465479"><ele>148.0</ele><time>2026-03-22T08:38:08Z</time></trkpt><trkpt lat="44.844409353787576" lon="9.921772006999188"><ele>148.0</ele><time>2026-03-22T08:38:10Z</time></trkpt><trkpt lat="44.844339214822725" lon="9.921648260734528"><ele>148.0</ele><time>2026-03-22T08:38:12Z</time></trkpt><trkpt lat="44.844267733614515" lon="9.921533208005759"><ele>147.8</ele><time>2026-03-22T08:38:14Z</time></trkpt><trkpt lat="44.844197907543396" lon="9.921428324835844"><ele>147.60000000000002</ele><time>2026-03-22T08:38:16Z</time></trkpt><trkpt lat="44.844133239919366" lon="9.921335169602333"><ele>147.39999999999998</ele><time>2026-03-22T08:38:18Z</time></trkpt><trkpt lat="44.84407491330565" lon="9.921256386555415"><ele>147.2</ele><time>2026-03-22T08:38:20Z</time></trkpt><trkpt lat="44.843993150410256" lon="9.921307218749456"><ele>147.0</ele><time>2026-03-22T08:38:22Z</time></trkpt><trkpt lat="44.843930991727476" lon="9.921420299266124"><ele>147.0</ele><time>2026-03-22T08:38:24Z</time></trkpt><trkpt lat="44.843879773720644" lon="9.921535670569426"><ele>147.0</ele><time>2026-03-22T08:38:26Z</time></trkpt><trkpt lat="44.84382992293528" lon="9.921654927510048"><ele>147.0</ele><time>2026-03-22T08:38:28Z</time></trkpt><trkpt lat="44.84373476342926" lon="9.921726605407217"><ele>147.0</ele><time>2026-03-22T08:38:30Z</time></trkpt><trkpt lat="44.843655840347004" lon="9.921835601058667"><ele>147.0</ele><time>2026-03-22T08:38:32Z</time></trkpt><trkpt lat="44.84357030799655" lon="9.921929423227217"><ele>146.66666666666666</ele><time>2026-03-22T08:38:34Z</time></trkpt><trkpt lat="44.84347629656377" lon="9.92200490947803"><ele>146.33333333333334</ele><time>2026-03-22T08:38:35.999Z</time></trkpt><trkpt lat="44.84338667773239" lon="9.922052478380824"><ele>146.0</ele><time>2026-03-22T08:38:37.999Z</time></trkpt><trkpt lat="44.84333966346297" lon="9.921990376633632"><ele>145.66666666666669</ele><time>2026-03-22T08:38:38.999Z</time></trkpt><trkpt lat="44.84331724156198" lon="9.921906963409846"><ele>145.33333333333334</ele><time>2026-03-22T08:38:39.999Z</time></trkpt><trkpt lat="44.84326625179925" lon="9.921786300211501"><ele>145.0</ele><time>2026-03-22T08:38:41.999Z</time></trkpt><trkpt lat="44.8432053017789" lon="9.921673198221939"><ele>145.0</ele><time>2026-03-22T08:38:43.999Z</time></trkpt><trkpt lat="44.84314579896105" lon="9.921568924879903"><ele>145.0</ele><time>2026-03-22T08:38:45.999Z</time></trkpt><trkpt lat="44.84308675387728" lon="9.921486234310906"><ele>145.0</ele><time>2026-03-22T08:38:47.999Z</time></trkpt><trkpt lat="44.84297072743654" lon="9.921544503351814"><ele>145.0</ele><time>2026-03-22T08:38:49.999Z</time></trkpt><trkpt lat="44.84289490932312" lon="9.92165921094464"><ele>145.0</ele><time>2026-03-22T08:38:51.999Z</time></trkpt><trkpt lat="44.84281262694924" lon="9.921756026573346"><ele>144.6</ele><time>2026-03-22T08:38:53.999Z</time></trkpt><trkpt lat="44.84273782355897" lon="9.921873744325232"><ele>144.2</ele><time>2026-03-22T08:38:55.999Z</time></trkpt><trkpt lat="44.84267468357602" lon="9.922003893847917"><ele>143.8</ele><time>2026-03-22T08:38:57.999Z</time></trkpt><trkpt lat="44.842620778764605" lon="9.92214125740942"><ele>143.4</ele><time>2026-03-22T08:38:59.999Z</time></trkpt><trkpt lat="44.84257082090402" lon="9.922285480285868"><ele>143.0</ele><time>2026-03-22T08:39:01.999Z</time></trkpt><trkpt lat="44.842511164237465" lon="9.922417841188851"><ele>143.0</ele><time>2026-03-22T08:39:03.999Z</time></trkpt><trkpt lat="44.8424417150418" lon="9.922534733158814"><ele>143.0</ele><time>2026-03-22T08:39:05.999Z</time></trkpt><trkpt lat="44.84236497021498" lon="9.922637525398303"><ele>143.0</ele><time>2026-03-22T08:39:07.999Z</time></trkpt><trkpt lat="44.84228055959554" lon="9.922736620803352"><ele>143.0</ele><time>2026-03-22T08:39:09.999Z</time></trkpt><trkpt lat="44.84218488657254" lon="9.922816813440523"><ele>143.0</ele><time>2026-03-22T08:39:11.999Z</time></trkpt><trkpt lat="44.842078473138635" lon="9.92284777141848"><ele>142.5</ele><time>2026-03-22T08:39:13.999Z</time></trkpt><trkpt lat="44.84197018560253" lon="9.922795848688152"><ele>142.0</ele><time>2026-03-22T08:39:15.999Z</time></trkpt><trkpt lat="44.841857468020905" lon="9.922748032550487"><ele>141.5</ele><time>2026-03-22T08:39:17.999Z</time></trkpt><trkpt lat="44.841742383847276" lon="9.92269197235019"><ele>141.0</ele><time>2026-03-22T08:39:19.999Z</time></trkpt><trkpt lat="44.84163207972414" lon="9.922631700535025"><ele>141.75</ele><time>2026-03-22T08:39:21.999Z</time></trkpt><trkpt lat="44.841531709253964" lon="9.922556640857383"><ele>142.5</ele><time>2026-03-22T08:39:23.999Z</time></trkpt><trkpt lat="44.84144900934206" lon="9.922436739427813"><ele>143.25</ele><time>2026-03-22T08:39:25.999Z</time></trkpt><trkpt lat="44.841377375789165" lon="9.922302961689319"><ele>144.0</ele><time>2026-03-22T08:39:27.998Z</time></trkpt><trkpt lat="44.84130007592579" lon="9.922177374839414"><ele>144.0</ele><time>2026-03-22T08:39:29.998Z</time></trkpt><trkpt lat="44.841236435613276" lon="9.922039278323183"><ele>144.0</ele><time>2026-03-22T08:39:31.998Z</time></trkpt><trkpt lat="44.84118669884415" lon="9.921888257846168"><ele>144.0</ele><time>2026-03-22T08:39:33.998Z</time></trkpt><trkpt lat="44.84112508821017" lon="9.921748534437276"><ele>144.0</ele><time>2026-03-22T08:39:35.998Z</time></trkpt><trkpt lat="44.84106154490114" lon="9.921615344838417"><ele>144.0</ele><time>2026-03-22T08:39:37.998Z</time></trkpt><trkpt lat="44.84100542822065" lon="9.921486695776844"><ele>144.0</ele><time>2026-03-22T08:39:39.998Z</time></trkpt><trkpt lat="44.84094648851557" lon="9.921374616588482"><ele>144.0</ele><time>2026-03-22T08:39:41.998Z</time></trkpt><trkpt lat="44.84092480912327" lon="9.9212586358582"><ele>144.0</ele><time>2026-03-22T08:39:43.998Z</time></trkpt><trkpt lat="44.8408811431948" lon="9.921166320042644"><ele>144.0</ele><time>2026-03-22T08:39:45.998Z</time></trkpt><trkpt lat="44.84085604520834" lon="9.92107975521409"><ele>144.0</ele><time>2026-03-22T08:39:47.998Z</time></trkpt><trkpt lat="44.84083036181024" lon="9.92098567288666"><ele>144.83333333333334</ele><time>2026-03-22T08:39:50.998Z</time></trkpt><trkpt lat="44.84080915855703" lon="9.920894219757388"><ele>145.66666666666666</ele><time>2026-03-22T08:39:52.998Z</time></trkpt><trkpt lat="44.8407857772264" lon="9.9208089409189"><ele>146.5</ele><time>2026-03-22T08:39:54.998Z</time></trkpt><trkpt lat="44.84075240962224" lon="9.920707288114684"><ele>147.33333333333331</ele><time>2026-03-22T08:39:57.998Z</time></trkpt><trkpt lat="44.84068333943008" lon="9.920631705078128"><ele>148.16666666666666</ele><time>2026-03-22T08:40:00.998Z</time></trkpt><trkpt lat="44.84060834003759" lon="9.920560073779702"><ele>149.0</ele><time>2026-03-22T08:40:04Z</time></trkpt><trkpt lat="44.84053024115658" lon="9.920500127307168"><ele>149.0</ele><time>2026-03-22T08:40:07Z</time></trkpt><trkpt lat="44.84044901054939" lon="9.920442553090524"><ele>149.0</ele><time>2026-03-22T08:40:10Z</time></trkpt><trkpt lat="44.84036400075411" lon="9.920418972664455"><ele>149.0</ele><time>2026-03-22T08:40:13Z</time></trkpt><trkpt lat="44.84029798733957" lon="9.92042932630688"><ele>149.0</ele><time>2026-03-22T08:40:15Z</time></trkpt><trkpt lat="44.840238888303894" lon="9.920483943316345"><ele>149.0</ele><time>2026-03-22T08:40:17Z</time></trkpt><trkpt lat="44.840190701837685" lon="9.92055339083955"><ele>149.0</ele><time>2026-03-22T08:40:19Z</time></trkpt><trkpt lat="44.84014266861113" lon="9.920622174479101"><ele>150.28571428571428</ele><time>2026-03-22T08:40:21Z</time></trkpt><trkpt lat="44.84009561422694" lon="9.920684342405453"><ele>151.57142857142856</ele><time>2026-03-22T08:40:23Z</time></trkpt><trkpt lat="44.84004910249114" lon="9.920745146980737"><ele>152.85714285714286</ele><time>2026-03-22T08:40:25Z</time></trkpt><trkpt lat="44.83998902634641" lon="9.920835397033313"><ele>154.14285714285714</ele><time>2026-03-22T08:40:28Z</time></trkpt><trkpt lat="44.839936051505916" lon="9.92091942825615"><ele>155.42857142857144</ele><time>2026-03-22T08:40:31Z</time></trkpt><trkpt lat="44.839882065318605" lon="9.920994179991428"><ele>156.71428571428572</ele><time>2026-03-22T08:40:34Z</time></trkpt><trkpt lat="44.83983240594341" lon="9.921070872094853"><ele>158.0</ele><time>2026-03-22T08:40:37Z</time></trkpt><trkpt lat="44.839780808575576" lon="9.921143600885332"><ele>158.71428571428572</ele><time>2026-03-22T08:40:39.999Z</time></trkpt><trkpt lat="44.8397307413733" lon="9.921212158762877"><ele>159.42857142857144</ele><time>2026-03-22T08:40:42.999Z</time></trkpt><trkpt lat="44.8396782662968" lon="9.921279061827693"><ele>160.14285714285717</ele><time>2026-03-22T08:40:45.999Z</time></trkpt><trkpt lat="44.83962577153452" lon="9.921349170141994"><ele>160.85714285714286</ele><time>2026-03-22T08:40:48.999Z</time></trkpt><trkpt lat="44.83957360706044" lon="9.921421317775218"><ele>161.57142857142856</ele><time>2026-03-22T08:40:51.999Z</time></trkpt><trkpt lat="44.83952019437357" lon="9.9214927734905"><ele>162.2857142857143</ele><time>2026-03-22T08:40:54.999Z</time></trkpt><trkpt lat="44.83946670664342" lon="9.921558038261944"><ele>163.0</ele><time>2026-03-22T08:40:57.999Z</time></trkpt><trkpt lat="44.83941632577069" lon="9.921625193180725"><ele>163.0</ele><time>2026-03-22T08:41:00.999Z</time></trkpt><trkpt lat="44.839366635610084" lon="9.921696227844032"><ele>163.0</ele><time>2026-03-22T08:41:03.999Z</time></trkpt><trkpt lat="44.83931281239586" lon="9.921763118336331"><ele>163.0</ele><time>2026-03-22T08:41:06.999Z</time></trkpt><trkpt lat="44.83925814269265" lon="9.92182868194688"><ele>163.0</ele><time>2026-03-22T08:41:09.999Z</time></trkpt><trkpt lat="44.839201044581806" lon="9.921893498237905"><ele>163.0</ele><time>2026-03-22T08:41:12.999Z</time></trkpt><trkpt lat="44.83914765625157" lon="9.921957632344627"><ele>163.0</ele><time>2026-03-22T08:41:15.999Z</time></trkpt><trkpt lat="44.839089440875156" lon="9.922013995493554"><ele>163.0</ele><time>2026-03-22T08:41:18.999Z</time></trkpt><trkpt lat="44.83902585578031" lon="9.92206024023165"><ele>165.0</ele><time>2026-03-22T08:41:21.999Z</time></trkpt><trkpt lat="44.838964533521825" lon="9.922096332523303"><ele>167.0</ele><time>2026-03-22T08:41:24.999Z</time></trkpt><trkpt lat="44.83889882815742" lon="9.922123291997003"><ele>169.0</ele><time>2026-03-22T08:41:27.999Z</time></trkpt><trkpt lat="44.83883939068622" lon="9.922161647512672"><ele>171.0</ele><time>2026-03-22T08:41:30.998Z</time></trkpt><trkpt lat="44.8387884663714" lon="9.922225350541032"><ele>173.0</ele><time>2026-03-22T08:41:33.998Z</time></trkpt><trkpt lat="44.83876023926599" lon="9.922314394599793"><ele>175.0</ele><time>2026-03-22T08:41:36.998Z</time></trkpt><trkpt lat="44.838765657418556" lon="9.922412454646247"><ele>177.0</ele><time>2026-03-22T08:41:39.998Z</time></trkpt><trkpt lat="44.83879834871565" lon="9.922506711523388"><ele>178.8</ele><time>2026-03-22T08:41:42.998Z</time></trkpt><trkpt lat="44.8388541503018" lon="9.922581998020988"><ele>180.6</ele><time>2026-03-22T08:41:45.998Z</time></trkpt><trkpt lat="44.838930504379995" lon="9.922615117415999"><ele>182.4</ele><time>2026-03-22T08:41:48.998Z</time></trkpt><trkpt lat="44.839013644638236" lon="9.9226178766916"><ele>184.20000000000002</ele><time>2026-03-22T08:41:51.998Z</time></trkpt><trkpt lat="44.839094525831" lon="9.922598432937324"><ele>186.0</ele><time>2026-03-22T08:41:54.998Z</time></trkpt><trkpt lat="44.83925749644954" lon="9.922592629096638"><ele>183.16666666666666</ele><time>2026-03-22T08:42:00.998Z</time></trkpt><trkpt lat="44.839332426414174" lon="9.92264377287799"><ele>180.33333333333334</ele><time>2026-03-22T08:42:03.998Z</time></trkpt><trkpt lat="44.83938856329143" lon="9.922738490802393"><ele>177.5</ele><time>2026-03-22T08:42:06.998Z</time></trkpt><trkpt lat="44.83941094978072" lon="9.922843467706238"><ele>174.66666666666669</ele><time>2026-03-22T08:42:10Z</time></trkpt><trkpt lat="44.83940658110341" lon="9.922955027598139"><ele>171.83333333333334</ele><time>2026-03-22T08:42:13Z</time></trkpt><trkpt lat="44.839394428137616" lon="9.923070887763936"><ele>169.0</ele><time>2026-03-22T08:42:16Z</time></trkpt><trkpt lat="44.83936835745926" lon="9.923180474868674"><ele>169.0</ele><time>2026-03-22T08:42:19Z</time></trkpt><trkpt lat="44.83934200402677" lon="9.923294166769383"><ele>169.0</ele><time>2026-03-22T08:42:22Z</time></trkpt><trkpt lat="44.839318274737124" lon="9.923410308890483"><ele>169.0</ele><time>2026-03-22T08:42:25Z</time></trkpt><trkpt lat="44.839298443662884" lon="9.923520777633133"><ele>169.0</ele><time>2026-03-22T08:42:28Z</time></trkpt><trkpt lat="44.839283164907876" lon="9.923631635000918"><ele>169.0</ele><time>2026-03-22T08:42:31Z</time></trkpt><trkpt lat="44.83926317880989" lon="9.92374124787645"><ele>169.0</ele><time>2026-03-22T08:42:34Z</time></trkpt><trkpt lat="44.83925093483113" lon="9.923851270756161"><ele>172.57142857142858</ele><time>2026-03-22T08:42:37Z</time></trkpt><trkpt lat="44.839250633825344" lon="9.923958330466618"><ele>176.14285714285714</ele><time>2026-03-22T08:42:40Z</time></trkpt><trkpt lat="44.839244394531924" lon="9.924063382893607"><ele>179.71428571428572</ele><time>2026-03-22T08:42:42.999Z</time></trkpt><trkpt lat="44.839237367553615" lon="9.924160342274924"><ele>183.28571428571428</ele><time>2026-03-22T08:42:45.999Z</time></trkpt><trkpt lat="44.839222303025586" lon="9.924252392571542"><ele>186.85714285714286</ele><time>2026-03-22T08:42:48.999Z</time></trkpt><trkpt lat="44.839202814912746" lon="9.924340222476914"><ele>190.42857142857142</ele><time>2026-03-22T08:42:51.999Z</time></trkpt><trkpt lat="44.839146179484196" lon="9.924391874409599"><ele>194.0</ele><time>2026-03-22T08:42:54.999Z</time></trkpt><trkpt lat="44.839079492739366" lon="9.924387827062686"><ele>194.0</ele><time>2026-03-22T08:42:57.999Z</time></trkpt><trkpt lat="44.83901699305932" lon="9.924313325802736"><ele>194.0</ele><time>2026-03-22T08:43:01.999Z</time></trkpt><trkpt lat="44.838951229352844" lon="9.92424821996212"><ele>194.0</ele><time>2026-03-22T08:43:04.999Z</time></trkpt><trkpt lat="44.838901387118746" lon="9.924193266376802"><ele>194.0</ele><time>2026-03-22T08:43:07.999Z</time></trkpt><trkpt lat="44.83884811605289" lon="9.924136749426944"><ele>194.0</ele><time>2026-03-22T08:43:10.999Z</time></trkpt><trkpt lat="44.838799537902375" lon="9.924073355880745"><ele>194.0</ele><time>2026-03-22T08:43:13.999Z</time></trkpt><trkpt lat="44.83874473475621" lon="9.924013402058662"><ele>194.0</ele><time>2026-03-22T08:43:16.999Z</time></trkpt><trkpt lat="44.838690236744924" lon="9.923953401271229"><ele>194.0</ele><time>2026-03-22T08:43:19.999Z</time></trkpt><trkpt lat="44.83863255337693" lon="9.923902054960802"><ele>194.0</ele><time>2026-03-22T08:43:22.999Z</time></trkpt><trkpt lat="44.83858066030005" lon="9.923840075618967"><ele>194.0</ele><time>2026-03-22T08:43:25.999Z</time></trkpt><trkpt lat="44.83852503860895" lon="9.923796048589661"><ele>194.0</ele><time>2026-03-22T08:43:28.999Z</time></trkpt><trkpt lat="44.83846829414647" lon="9.923743804898224"><ele>194.0</ele><time>2026-03-22T08:43:31.999Z</time></trkpt><trkpt lat="44.8384089508592" lon="9.923700606281812"><ele>194.0</ele><time>2026-03-22T08:43:34.998Z</time></trkpt><trkpt lat="44.83834526993074" lon="9.923681193712705"><ele>194.0</ele><time>2026-03-22T08:43:37.998Z</time></trkpt><trkpt lat="44.838276355445714" lon="9.923666988599965"><ele>196.57142857142856</ele><time>2026-03-22T08:43:40.998Z</time></trkpt><trkpt lat="44.83820751200163" lon="9.923689988710418"><ele>199.14285714285717</ele><time>2026-03-22T08:43:43.998Z</time></trkpt><trkpt lat="44.83814462308275" lon="9.923732177319383"><ele>201.71428571428572</ele><time>2026-03-22T08:43:46.998Z</time></trkpt><trkpt lat="44.83811261989842" lon="9.923817490034612"><ele>204.28571428571428</ele><time>2026-03-22T08:43:49.998Z</time></trkpt><trkpt lat="44.83810823679366" lon="9.923918019264947"><ele>206.85714285714283</ele><time>2026-03-22T08:43:52.998Z</time></trkpt><trkpt lat="44.83813878831207" lon="9.92401817691039"><ele>209.42857142857144</ele><time>2026-03-22T08:43:55.998Z</time></trkpt><trkpt lat="44.838158518926626" lon="9.924123895838132"><ele>212.0</ele><time>2026-03-22T08:43:58.998Z</time></trkpt><trkpt lat="44.8381851798704" lon="9.924216326325233"><ele>212.57142857142858</ele><time>2026-03-22T08:44:01.998Z</time></trkpt><trkpt lat="44.838205803478" lon="9.924308107434184"><ele>213.14285714285714</ele><time>2026-03-22T08:44:04.998Z</time></trkpt><trkpt lat="44.838227297648366" lon="9.924397877321367"><ele>213.71428571428572</ele><time>2026-03-22T08:44:07.998Z</time></trkpt><trkpt lat="44.83824284961084" lon="9.92449207108809"><ele>214.28571428571428</ele><time>2026-03-22T08:44:10.998Z</time></trkpt><trkpt lat="44.83825255228163" lon="9.924595227467156"><ele>214.85714285714283</ele><time>2026-03-22T08:44:13.998Z</time></trkpt><trkpt lat="44.83826607173554" lon="9.924697686878648"><ele>215.42857142857142</ele><time>2026-03-22T08:44:17Z</time></trkpt><trkpt lat="44.83826685167027" lon="9.924809571759205"><ele>216.0</ele><time>2026-03-22T08:44:20Z</time></trkpt><trkpt lat="44.8382618799917" lon="9.924915238832748"><ele>216.0</ele><time>2026-03-22T08:44:23Z</time></trkpt><trkpt lat="44.8382574685725" lon="9.925024077733125"><ele>216.0</ele><time>2026-03-22T08:44:26Z</time></trkpt><trkpt lat="44.83826197805369" lon="9.925139229483424"><ele>216.0</ele><time>2026-03-22T08:44:29Z</time></trkpt><trkpt lat="44.83828451900083" lon="9.925268817318326"><ele>216.0</ele><time>2026-03-22T08:44:32Z</time></trkpt><trkpt lat="44.838305589151645" lon="9.92536358596065"><ele>216.0</ele><time>2026-03-22T08:44:34Z</time></trkpt><trkpt lat="44.8383363300915" lon="9.925455686667387"><ele>216.0</ele><time>2026-03-22T08:44:36Z</time></trkpt><trkpt lat="44.838376431438846" lon="9.925544132783845"><ele>216.5</ele><time>2026-03-22T08:44:38Z</time></trkpt><trkpt lat="44.83842522742728" lon="9.925623798757426"><ele>217.0</ele><time>2026-03-22T08:44:40Z</time></trkpt><trkpt lat="44.83849898356073" lon="9.925723532040003"><ele>217.5</ele><time>2026-03-22T08:44:43Z</time></trkpt><trkpt lat="44.83855320859195" lon="9.925802968325057"><ele>218.0</ele><time>2026-03-22T08:44:44.999Z</time></trkpt><trkpt lat="44.83861095645309" lon="9.925880776825272"><ele>218.5</ele><time>2026-03-22T08:44:46.999Z</time></trkpt><trkpt lat="44.838665314140194" lon="9.925967977576176"><ele>219.0</ele><time>2026-03-22T08:44:48.999Z</time></trkpt><trkpt lat="44.83871804204433" lon="9.926063094860169"><ele>219.0</ele><time>2026-03-22T08:44:50.999Z</time></trkpt><trkpt lat="44.83876718466751" lon="9.926181743371316"><ele>218.99999999999997</ele><time>2026-03-22T08:44:52.999Z</time></trkpt><trkpt lat="44.83880963774341" lon="9.926300661689785"><ele>218.99999999999997</ele><time>2026-03-22T08:44:54.999Z</time></trkpt><trkpt lat="44.83884197453212" lon="9.926392595995644"><ele>219.0</ele><time>2026-03-22T08:44:55.999Z</time></trkpt><trkpt lat="44.83888532056765" lon="9.926523297983636"><ele>219.0</ele><time>2026-03-22T08:44:57.999Z</time></trkpt><trkpt lat="44.83890239427964" lon="9.926643665215094"><ele>220.33333333333334</ele><time>2026-03-22T08:44:59.999Z</time></trkpt><trkpt lat="44.838936708968234" lon="9.926752871208615"><ele>221.66666666666669</ele><time>2026-03-22T08:45:01.999Z</time></trkpt><trkpt lat="44.8389911269157" lon="9.926848598821087"><ele>223.0</ele><time>2026-03-22T08:45:03.999Z</time></trkpt><trkpt lat="44.83902380491194" lon="9.926952008268945"><ele>224.33333333333334</ele><time>2026-03-22T08:45:05.999Z</time></trkpt><trkpt lat="44.839055641433106" lon="9.92705134435384"><ele>225.66666666666669</ele><time>2026-03-22T08:45:07.999Z</time></trkpt><trkpt lat="44.83908846350124" lon="9.927145735181673"><ele>227.0</ele><time>2026-03-22T08:45:09.999Z</time></trkpt><trkpt lat="44.839111241256305" lon="9.927242873212423"><ele>227.0</ele><time>2026-03-22T08:45:11.999Z</time></trkpt><trkpt lat="44.83913627857671" lon="9.92733997709538"><ele>227.00000000000003</ele><time>2026-03-22T08:45:13.999Z</time></trkpt><trkpt lat="44.83916810891311" lon="9.927432842187052"><ele>227.0</ele><time>2026-03-22T08:45:15.999Z</time></trkpt><trkpt lat="44.83920002601197" lon="9.927520714605018"><ele>227.0</ele><time>2026-03-22T08:45:17.999Z</time></trkpt><trkpt lat="44.839229624598765" lon="9.927623600375238"><ele>227.00000000000003</ele><time>2026-03-22T08:45:19.999Z</time></trkpt><trkpt lat="44.83926120370328" lon="9.927706470729639"><ele>227.0</ele><time>2026-03-22T08:45:21.999Z</time></trkpt><trkpt lat="44.83929759995063" lon="9.92779983248186"><ele>227.0</ele><time>2026-03-22T08:45:23.999Z</time></trkpt><trkpt lat="44.83933116552016" lon="9.927899257101618"><ele>227.33333333333334</ele><time>2026-03-22T08:45:25.999Z</time></trkpt><trkpt lat="44.83936512051754" lon="9.927994209245098"><ele>227.66666666666669</ele><time>2026-03-22T08:45:27.999Z</time></trkpt><trkpt lat="44.8394029482098" lon="9.928084281057222"><ele>228.0</ele><time>2026-03-22T08:45:29.999Z</time></trkpt><trkpt lat="44.839436762998986" lon="9.928182908565587"><ele>228.33333333333331</ele><time>2026-03-22T08:45:31.999Z</time></trkpt><trkpt lat="44.839475816810335" lon="9.928285044109593"><ele>228.66666666666666</ele><time>2026-03-22T08:45:33.999Z</time></trkpt><trkpt lat="44.839508845443156" lon="9.928384445066774"><ele>229.0</ele><time>2026-03-22T08:45:35.999Z</time></trkpt><trkpt lat="44.83953126933261" lon="9.928489769851462"><ele>228.99999999999997</ele><time>2026-03-22T08:45:37.998Z</time></trkpt><trkpt lat="44.839548426319624" lon="9.928606970417182"><ele>229.0</ele><time>2026-03-22T08:45:39.998Z</time></trkpt><trkpt lat="44.839555854456606" lon="9.928717755633864"><ele>229.0</ele><time>2026-03-22T08:45:41.998Z</time></trkpt><trkpt lat="44.839564278923724" lon="9.92882704029805"><ele>229.0</ele><time>2026-03-22T08:45:43.998Z</time></trkpt><trkpt lat="44.83957552454463" lon="9.928936991312394"><ele>228.99999999999997</ele><time>2026-03-22T08:45:45.998Z</time></trkpt><trkpt lat="44.83958410352959" lon="9.929045357788787"><ele>229.0</ele><time>2026-03-22T08:45:47.998Z</time></trkpt><trkpt lat="44.839591573951516" lon="9.92915378348639"><ele>228.83333333333331</ele><time>2026-03-22T08:45:49.998Z</time></trkpt><trkpt lat="44.83959960451529" lon="9.929271078950773"><ele>228.66666666666666</ele><time>2026-03-22T08:45:51.998Z</time></trkpt><trkpt lat="44.83960758191611" lon="9.929382065222702"><ele>228.5</ele><time>2026-03-22T08:45:53.998Z</time></trkpt><trkpt lat="44.839625424260305" lon="9.929496516619638"><ele>228.33333333333331</ele><time>2026-03-22T08:45:55.998Z</time></trkpt><trkpt lat="44.839640974618604" lon="9.929620721991332"><ele>228.16666666666666</ele><time>2026-03-22T08:45:57.998Z</time></trkpt><trkpt lat="44.839658187196505" lon="9.929753697418318"><ele>228.0</ele><time>2026-03-22T08:45:59.998Z</time></trkpt><trkpt lat="44.83967217466854" lon="9.929895579260442"><ele>228.0</ele><time>2026-03-22T08:46:01.998Z</time></trkpt><trkpt lat="44.83968283511038" lon="9.930047624350054"><ele>228.0</ele><time>2026-03-22T08:46:03.998Z</time></trkpt><trkpt lat="44.839695304744545" lon="9.930211484545525"><ele>228.0</ele><time>2026-03-22T08:46:05.998Z</time></trkpt><trkpt lat="44.83969388523054" lon="9.930374153809824"><ele>228.0</ele><time>2026-03-22T08:46:07.998Z</time></trkpt><trkpt lat="44.839687211822884" lon="9.930546986901286"><ele>227.8</ele><time>2026-03-22T08:46:09.998Z</time></trkpt><trkpt lat="44.83967536214125" lon="9.930722169394492"><ele>227.60000000000002</ele><time>2026-03-22T08:46:11.998Z</time></trkpt><trkpt lat="44.839672332902" lon="9.930897021077838"><ele>227.39999999999998</ele><time>2026-03-22T08:46:13.998Z</time></trkpt><trkpt lat="44.83962116243654" lon="9.930977840965191"><ele>227.2</ele><time>2026-03-22T08:46:14.998Z</time></trkpt><trkpt lat="44.83961875323613" lon="9.931142054227282"><ele>227.0</ele><time>2026-03-22T08:46:16.998Z</time></trkpt><trkpt lat="44.83962293166544" lon="9.931299846205489"><ele>227.0</ele><time>2026-03-22T08:46:18.998Z</time></trkpt><trkpt lat="44.83963007856696" lon="9.931456498024684"><ele>227.0</ele><time>2026-03-22T08:46:20.998Z</time></trkpt><trkpt lat="44.83963888219931" lon="9.931598525790578"><ele>227.0</ele><time>2026-03-22T08:46:23Z</time></trkpt><trkpt lat="44.83965033608938" lon="9.931739805981413"><ele>227.0</ele><time>2026-03-22T08:46:25Z</time></trkpt><trkpt lat="44.83966233408707" lon="9.931873317761"><ele>227.0</ele><time>2026-03-22T08:46:27Z</time></trkpt><trkpt lat="44.83967486411239" lon="9.932012749861707"><ele>227.0</ele><time>2026-03-22T08:46:29Z</time></trkpt><trkpt lat="44.83968468084116" lon="9.93214785374972"><ele>227.0</ele><time>2026-03-22T08:46:31Z</time></trkpt><trkpt lat="44.83969389530937" lon="9.932280843840855"><ele>227.0</ele><time>2026-03-22T08:46:33Z</time></trkpt><trkpt lat="44.839703779131845" lon="9.93242349458996"><ele>227.0</ele><time>2026-03-22T08:46:35Z</time></trkpt><trkpt lat="44.83971443966016" lon="9.932567188340665"><ele>227.0</ele><time>2026-03-22T08:46:37Z</time></trkpt><trkpt lat="44.839729634342596" lon="9.932714225010498"><ele>227.0</ele><time>2026-03-22T08:46:39Z</time></trkpt><trkpt lat="44.83975425405165" lon="9.932861393223247"><ele>227.0</ele><time>2026-03-22T08:46:41Z</time></trkpt><trkpt lat="44.8397852416672" lon="9.933007804269762"><ele>227.0</ele><time>2026-03-22T08:46:43Z</time></trkpt><trkpt lat="44.83982885056441" lon="9.9331670944917"><ele>227.0</ele><time>2026-03-22T08:46:45Z</time></trkpt><trkpt lat="44.83985869253812" lon="9.933249815769242"><ele>227.0</ele><time>2026-03-22T08:46:46Z</time></trkpt><trkpt lat="44.8399174806157" lon="9.933396991770003"><ele>226.50000000000003</ele><time>2026-03-22T08:46:48Z</time></trkpt><trkpt lat="44.83999416603502" lon="9.933535288539876"><ele>226.0</ele><time>2026-03-22T08:46:49.999Z</time></trkpt><trkpt lat="44.840030957745455" lon="9.93361091660917"><ele>225.5</ele><time>2026-03-22T08:46:50.999Z</time></trkpt><trkpt lat="44.8400699723198" lon="9.93368340708995"><ele>225.0</ele><time>2026-03-22T08:46:51.999Z</time></trkpt><trkpt lat="44.8401392075217" lon="9.933833077100466"><ele>224.50000000000003</ele><time>2026-03-22T08:46:53.999Z</time></trkpt><trkpt lat="44.840175259984875" lon="9.933908936072843"><ele>224.0</ele><time>2026-03-22T08:46:54.999Z</time></trkpt><trkpt lat="44.840224180184045" lon="9.934053102048502"><ele>222.79999999999998</ele><time>2026-03-22T08:46:56.999Z</time></trkpt><trkpt lat="44.84022534111785" lon="9.934176799063025"><ele>221.59999999999997</ele><time>2026-03-22T08:46:58.999Z</time></trkpt><trkpt lat="44.840163220077464" lon="9.93425204743352"><ele>220.4</ele><time>2026-03-22T08:47:00.999Z</time></trkpt><trkpt lat="44.84007953342376" lon="9.934314174596626"><ele>219.2</ele><time>2026-03-22T08:47:02.999Z</time></trkpt><trkpt lat="44.839971664191566" lon="9.934380197239918"><ele>218.0</ele><time>2026-03-22T08:47:04.999Z</time></trkpt><trkpt lat="44.83985969446413" lon="9.934454552179888"><ele>218.0</ele><time>2026-03-22T08:47:06.999Z</time></trkpt><trkpt lat="44.83980129095542" lon="9.934501223796245"><ele>218.0</ele><time>2026-03-22T08:47:07.999Z</time></trkpt><trkpt lat="44.83974862015729" lon="9.934567564256602"><ele>218.0</ele><time>2026-03-22T08:47:08.999Z</time></trkpt><trkpt lat="44.83970923533551" lon="9.934650952537718"><ele>218.0</ele><time>2026-03-22T08:47:09.999Z</time></trkpt><trkpt lat="44.839695793854865" lon="9.934766440016771"><ele>218.0</ele><time>2026-03-22T08:47:10.999Z</time></trkpt><trkpt lat="44.83971110450424" lon="9.934869013487907"><ele>218.0</ele><time>2026-03-22T08:47:11.999Z</time></trkpt><trkpt lat="44.83974396269162" lon="9.934955858763015"><ele>218.0</ele><time>2026-03-22T08:47:12.999Z</time></trkpt><trkpt lat="44.83981137796217" lon="9.935090933202858"><ele>216.4</ele><time>2026-03-22T08:47:14.999Z</time></trkpt><trkpt lat="44.839875990464655" lon="9.935216275943288"><ele>214.8</ele><time>2026-03-22T08:47:16.999Z</time></trkpt><trkpt lat="44.83994282548314" lon="9.935345930109476"><ele>213.2</ele><time>2026-03-22T08:47:18.999Z</time></trkpt><trkpt lat="44.84001543375975" lon="9.93548678393353"><ele>211.6</ele><time>2026-03-22T08:47:20.999Z</time></trkpt><trkpt lat="44.84005021105109" lon="9.935560974617287"><ele>210.0</ele><time>2026-03-22T08:47:21.999Z</time></trkpt><trkpt lat="44.840085423889214" lon="9.935641334661275"><ele>210.0</ele><time>2026-03-22T08:47:22.999Z</time></trkpt><trkpt lat="44.840120440016236" lon="9.935729655489629"><ele>210.0</ele><time>2026-03-22T08:47:23.999Z</time></trkpt><trkpt lat="44.84015350353819" lon="9.935819067036057"><ele>210.0</ele><time>2026-03-22T08:47:24.999Z</time></trkpt><trkpt lat="44.84018468218042" lon="9.93591148229618"><ele>210.0</ele><time>2026-03-22T08:47:25.999Z</time></trkpt><trkpt lat="44.84021509165226" lon="9.936009287367446"><ele>210.0</ele><time>2026-03-22T08:47:26.999Z</time></trkpt><trkpt lat="44.84024132214113" lon="9.936105856859367"><ele>210.0</ele><time>2026-03-22T08:47:27.999Z</time></trkpt><trkpt lat="44.840259899249546" lon="9.93620466444471"><ele>210.0</ele><time>2026-03-22T08:47:28.999Z</time></trkpt><trkpt lat="44.84027592260838" lon="9.93630672790112"><ele>210.14285714285714</ele><time>2026-03-22T08:47:29.999Z</time></trkpt><trkpt lat="44.84029061182311" lon="9.936408117825016"><ele>210.28571428571428</ele><time>2026-03-22T08:47:30.999Z</time></trkpt><trkpt lat="44.84030431528963" lon="9.93650435385439"><ele>210.42857142857144</ele><time>2026-03-22T08:47:31.999Z</time></trkpt><trkpt lat="44.840317152472565" lon="9.936598913927593"><ele>210.57142857142856</ele><time>2026-03-22T08:47:32.999Z</time></trkpt><trkpt lat="44.84032907547491" lon="9.936686739906971"><ele>210.71428571428572</ele><time>2026-03-22T08:47:33.999Z</time></trkpt><trkpt lat="44.84034301117295" lon="9.936777322814859"><ele>210.85714285714286</ele><time>2026-03-22T08:47:34.999Z</time></trkpt><trkpt lat="44.84036260435197" lon="9.93686585721504"><ele>211.0</ele><time>2026-03-22T08:47:35.999Z</time></trkpt><trkpt lat="44.84040349406575" lon="9.937037627604969"><ele>210.71428571428572</ele><time>2026-03-22T08:47:37.999Z</time></trkpt><trkpt lat="44.840424739287" lon="9.93712232942545"><ele>210.42857142857144</ele><time>2026-03-22T08:47:38.999Z</time></trkpt><trkpt lat="44.84044749035051" lon="9.93721015015982"><ele>210.14285714285714</ele><time>2026-03-22T08:47:39.999Z</time></trkpt><trkpt lat="44.840470941494566" lon="9.937295087856715"><ele>209.85714285714286</ele><time>2026-03-22T08:47:40.999Z</time></trkpt><trkpt lat="44.84049435214942" lon="9.937379878849896"><ele>209.57142857142856</ele><time>2026-03-22T08:47:41.999Z</time></trkpt><trkpt lat="44.84051608907929" lon="9.937463642279111"><ele>209.28571428571428</ele><time>2026-03-22T08:47:42.998Z</time></trkpt><trkpt lat="44.84054563552348" lon="9.937635562469335"><ele>209.0</ele><time>2026-03-22T08:47:44.998Z</time></trkpt><trkpt lat="44.84055446150654" lon="9.937725729189324"><ele>208.33333333333334</ele><time>2026-03-22T08:47:45.998Z</time></trkpt><trkpt lat="44.840560667208564" lon="9.937827069086923"><ele>207.66666666666669</ele><time>2026-03-22T08:47:46.998Z</time></trkpt><trkpt lat="44.840563956244914" lon="9.937929454415986"><ele>207.0</ele><time>2026-03-22T08:47:47.998Z</time></trkpt><trkpt lat="44.840570521790156" lon="9.938037843470823"><ele>206.33333333333331</ele><time>2026-03-22T08:47:48.998Z</time></trkpt><trkpt lat="44.84058690196697" lon="9.938149178520396"><ele>205.66666666666666</ele><time>2026-03-22T08:47:49.998Z</time></trkpt><trkpt lat="44.840608645912326" lon="9.938255350325814"><ele>205.0</ele><time>2026-03-22T08:47:50.998Z</time></trkpt><trkpt lat="44.84064462402083" lon="9.938362301306997"><ele>203.99999999999997</ele><time>2026-03-22T08:47:51.998Z</time></trkpt><trkpt lat="44.84068346439411" lon="9.938461870639813"><ele>203.0</ele><time>2026-03-22T08:47:52.998Z</time></trkpt><trkpt lat="44.840740534314854" lon="9.938541237769202"><ele>202.0</ele><time>2026-03-22T08:47:53.998Z</time></trkpt><trkpt lat="44.840775234232545" lon="9.938636017546804"><ele>201.0</ele><time>2026-03-22T08:47:54.998Z</time></trkpt><trkpt lat="44.84081738738761" lon="9.938721263540671"><ele>199.99999999999997</ele><time>2026-03-22T08:47:55.998Z</time></trkpt><trkpt lat="44.84085821686106" lon="9.938807306378466"><ele>199.0</ele><time>2026-03-22T08:47:56.998Z</time></trkpt><trkpt lat="44.84089211890962" lon="9.938896575168988"><ele>198.99999999999997</ele><time>2026-03-22T08:47:57.998Z</time></trkpt><trkpt lat="44.840929372517635" lon="9.938978167034115"><ele>199.0</ele><time>2026-03-22T08:47:58.998Z</time></trkpt><trkpt lat="44.840965147914474" lon="9.93905776142903"><ele>199.0</ele><time>2026-03-22T08:47:59.998Z</time></trkpt><trkpt lat="44.84099965353898" lon="9.939134491112375"><ele>199.0</ele><time>2026-03-22T08:48:00.998Z</time></trkpt><trkpt lat="44.84103265265865" lon="9.939212719119343"><ele>199.0</ele><time>2026-03-22T08:48:01.998Z</time></trkpt><trkpt lat="44.84106654296852" lon="9.939290549186328"><ele>198.99999999999997</ele><time>2026-03-22T08:48:02.998Z</time></trkpt><trkpt lat="44.84110049984997" lon="9.93936814906539"><ele>199.0</ele><time>2026-03-22T08:48:03.998Z</time></trkpt><trkpt lat="44.841134276350246" lon="9.939446433875766"><ele>199.83333333333331</ele><time>2026-03-22T08:48:04.998Z</time></trkpt><trkpt lat="44.841195138445904" lon="9.939601730306013"><ele>200.66666666666666</ele><time>2026-03-22T08:48:06.998Z</time></trkpt><trkpt lat="44.84123008756027" lon="9.93967920571272"><ele>201.5</ele><time>2026-03-22T08:48:07.998Z</time></trkpt><trkpt lat="44.84126464613721" lon="9.939754463273477"><ele>202.33333333333331</ele><time>2026-03-22T08:48:08.998Z</time></trkpt><trkpt lat="44.84129858018003" lon="9.93983022379679"><ele>203.16666666666666</ele><time>2026-03-22T08:48:09.998Z</time></trkpt><trkpt lat="44.84133332920035" lon="9.9399077303439"><ele>204.0</ele><time>2026-03-22T08:48:10.998Z</time></trkpt><trkpt lat="44.84136833140675" lon="9.939988824850657"><ele>203.42857142857144</ele><time>2026-03-22T08:48:11.998Z</time></trkpt><trkpt lat="44.84140460654053" lon="9.940066693495494"><ele>202.85714285714286</ele><time>2026-03-22T08:48:12.998Z</time></trkpt><trkpt lat="44.84143903785027" lon="9.940148726247692"><ele>202.28571428571428</ele><time>2026-03-22T08:48:13.998Z</time></trkpt><trkpt lat="44.84147385996913" lon="9.940229659474843"><ele>201.71428571428572</ele><time>2026-03-22T08:48:14.998Z</time></trkpt><trkpt lat="44.84151070732826" lon="9.94030749495364"><ele>201.14285714285714</ele><time>2026-03-22T08:48:15.998Z</time></trkpt><trkpt lat="44.841544841626025" lon="9.94038422643261"><ele>200.57142857142858</ele><time>2026-03-22T08:48:16.998Z</time></trkpt><trkpt lat="44.84157680075676" lon="9.940462518089035"><ele>200.0</ele><time>2026-03-22T08:48:17.998Z</time></trkpt><trkpt lat="44.84160149616731" lon="9.940548731327121"><ele>200.00000000000003</ele><time>2026-03-22T08:48:18.998Z</time></trkpt><trkpt lat="44.84164852611554" lon="9.940621426184025"><ele>200.0</ele><time>2026-03-22T08:48:19.998Z</time></trkpt><trkpt lat="44.84168587705731" lon="9.940701152470801"><ele>200.0</ele><time>2026-03-22T08:48:20.998Z</time></trkpt><trkpt lat="44.841719932500204" lon="9.9407798794477"><ele>200.0</ele><time>2026-03-22T08:48:21.998Z</time></trkpt><trkpt lat="44.84175466516515" lon="9.940858397062172"><ele>200.0</ele><time>2026-03-22T08:48:22.998Z</time></trkpt><trkpt lat="44.84178784757409" lon="9.940937125733694"><ele>200.00000000000003</ele><time>2026-03-22T08:48:23.998Z</time></trkpt><trkpt lat="44.841822584059635" lon="9.941013934729753"><ele>200.0</ele><time>2026-03-22T08:48:24.998Z</time></trkpt><trkpt lat="44.841853505133145" lon="9.94109243677286"><ele>200.2857142857143</ele><time>2026-03-22T08:48:25.998Z</time></trkpt><trkpt lat="44.84188972420089" lon="9.941168266616486"><ele>200.57142857142858</ele><time>2026-03-22T08:48:27Z</time></trkpt><trkpt lat="44.84192467778645" lon="9.941247675857156"><ele>200.85714285714286</ele><time>2026-03-22T08:48:28Z</time></trkpt><trkpt lat="44.84195839101706" lon="9.941325904241848"><ele>201.14285714285717</ele><time>2026-03-22T08:48:29Z</time></trkpt><trkpt lat="44.84199197857739" lon="9.941404273302776"><ele>201.42857142857142</ele><time>2026-03-22T08:48:30Z</time></trkpt><trkpt lat="44.84202588483366" lon="9.941480623702928"><ele>201.71428571428572</ele><time>2026-03-22T08:48:31Z</time></trkpt><trkpt lat="44.84206103966298" lon="9.941557678077553"><ele>202.0</ele><time>2026-03-22T08:48:32Z</time></trkpt><trkpt lat="44.842096152921414" lon="9.941634494570653"><ele>201.8</ele><time>2026-03-22T08:48:33Z</time></trkpt><trkpt lat="44.842160972932916" lon="9.941786171896148"><ele>201.6</ele><time>2026-03-22T08:48:35Z</time></trkpt><trkpt lat="44.84219376199268" lon="9.941862882801113"><ele>201.4</ele><time>2026-03-22T08:48:36Z</time></trkpt><trkpt lat="44.84226298463606" lon="9.942010606330703"><ele>201.20000000000002</ele><time>2026-03-22T08:48:38Z</time></trkpt><trkpt lat="44.84233239291813" lon="9.942152435299716"><ele>201.0</ele><time>2026-03-22T08:48:40Z</time></trkpt><trkpt lat="44.84240058839836" lon="9.942298312033422"><ele>201.0</ele><time>2026-03-22T08:48:42Z</time></trkpt><trkpt lat="44.842432168754044" lon="9.942376761984761"><ele>201.0</ele><time>2026-03-22T08:48:43Z</time></trkpt><trkpt lat="44.84247132573717" lon="9.942452280983595"><ele>201.0</ele><time>2026-03-22T08:48:44Z</time></trkpt><trkpt lat="44.84250668792669" lon="9.94253129140297"><ele>201.0</ele><time>2026-03-22T08:48:45Z</time></trkpt><trkpt lat="44.84253106444594" lon="9.942621691362287"><ele>201.0</ele><time>2026-03-22T08:48:46Z</time></trkpt><trkpt lat="44.842576140178956" lon="9.942692564729073"><ele>201.0</ele><time>2026-03-22T08:48:47Z</time></trkpt><trkpt lat="44.842615432769776" lon="9.942767620197083"><ele>201.0</ele><time>2026-03-22T08:48:48Z</time></trkpt><trkpt lat="44.84263729023718" lon="9.942857365942842"><ele>200.14285714285714</ele><time>2026-03-22T08:48:49Z</time></trkpt><trkpt lat="44.84268746393676" lon="9.942920988012729"><ele>199.2857142857143</ele><time>2026-03-22T08:48:50Z</time></trkpt><trkpt lat="44.84272447393386" lon="9.942999524204282"><ele>198.42857142857144</ele><time>2026-03-22T08:48:51Z</time></trkpt><trkpt lat="44.84276173096849" lon="9.943077323092705"><ele>197.57142857142856</ele><time>2026-03-22T08:48:52Z</time></trkpt><trkpt lat="44.84280006306287" lon="9.943155534979525"><ele>196.71428571428572</ele><time>2026-03-22T08:48:53Z</time></trkpt><trkpt lat="44.84284060268827" lon="9.94323290852141"><ele>195.85714285714286</ele><time>2026-03-22T08:48:53.999Z</time></trkpt><trkpt lat="44.8428838906581" lon="9.94330592100807"><ele>195.0</ele><time>2026-03-22T08:48:54.999Z</time></trkpt><trkpt lat="44.84292712876706" lon="9.943378065062438"><ele>195.14285714285714</ele><time>2026-03-22T08:48:55.999Z</time></trkpt><trkpt lat="44.84297183963396" lon="9.943445634145144"><ele>195.28571428571428</ele><time>2026-03-22T08:48:56.999Z</time></trkpt><trkpt lat="44.84301804569661" lon="9.943511520276502"><ele>195.42857142857144</ele><time>2026-03-22T08:48:57.999Z</time></trkpt><trkpt lat="44.843065921886534" lon="9.94357676161038"><ele>195.57142857142856</ele><time>2026-03-22T08:48:58.999Z</time></trkpt><trkpt lat="44.84311434947581" lon="9.943637971053416"><ele>195.71428571428572</ele><time>2026-03-22T08:48:59.999Z</time></trkpt><trkpt lat="44.843165707017114" lon="9.943696853748172"><ele>195.85714285714286</ele><time>2026-03-22T08:49:00.999Z</time></trkpt><trkpt lat="44.84322043020684" lon="9.943752693576066"><ele>196.0</ele><time>2026-03-22T08:49:01.999Z</time></trkpt><trkpt lat="44.84327759056507" lon="9.94380380375587"><ele>196.0</ele><time>2026-03-22T08:49:02.999Z</time></trkpt><trkpt lat="44.84333475599875" lon="9.943854174834657"><ele>196.0</ele><time>2026-03-22T08:49:03.999Z</time></trkpt><trkpt lat="44.8433925403518" lon="9.943904443649906"><ele>196.0</ele><time>2026-03-22T08:49:04.999Z</time></trkpt><trkpt lat="44.843451130102544" lon="9.943955074341842"><ele>196.0</ele><time>2026-03-22T08:49:05.999Z</time></trkpt><trkpt lat="44.843509362926554" lon="9.944003553621833"><ele>196.0</ele><time>2026-03-22T08:49:06.999Z</time></trkpt><trkpt lat="44.84356733884933" lon="9.944052997483375"><ele>196.0</ele><time>2026-03-22T08:49:07.999Z</time></trkpt><trkpt lat="44.84362478155789" lon="9.944103929513812"><ele>196.0</ele><time>2026-03-22T08:49:08.999Z</time></trkpt><trkpt lat="44.84368038547532" lon="9.944158671339427"><ele>196.14285714285714</ele><time>2026-03-22T08:49:09.999Z</time></trkpt><trkpt lat="44.84373390749418" lon="9.944219160365545"><ele>196.28571428571428</ele><time>2026-03-22T08:49:10.999Z</time></trkpt><trkpt lat="44.84378752753485" lon="9.944277778245745"><ele>196.42857142857144</ele><time>2026-03-22T08:49:11.999Z</time></trkpt><trkpt lat="44.84384125769692" lon="9.944334592573426"><ele>196.57142857142856</ele><time>2026-03-22T08:49:12.999Z</time></trkpt><trkpt lat="44.843893913634034" lon="9.944391288292396"><ele>196.71428571428572</ele><time>2026-03-22T08:49:13.999Z</time></trkpt><trkpt lat="44.843945631196796" lon="9.944448236539186"><ele>196.85714285714286</ele><time>2026-03-22T08:49:14.999Z</time></trkpt><trkpt lat="44.84399734301411" lon="9.944507595335178"><ele>197.0</ele><time>2026-03-22T08:49:15.999Z</time></trkpt><trkpt lat="44.84404729450724" lon="9.944570563954631"><ele>197.0</ele><time>2026-03-22T08:49:16.999Z</time></trkpt><trkpt lat="44.84409608668999" lon="9.944635410400682"><ele>197.0</ele><time>2026-03-22T08:49:17.999Z</time></trkpt><trkpt lat="44.84414312806684" lon="9.944703092909245"><ele>197.0</ele><time>2026-03-22T08:49:18.999Z</time></trkpt><trkpt lat="44.84418552253323" lon="9.94477377849936"><ele>197.0</ele><time>2026-03-22T08:49:19.999Z</time></trkpt><trkpt lat="44.84422311698635" lon="9.944851482768154"><ele>197.0</ele><time>2026-03-22T08:49:20.999Z</time></trkpt><trkpt lat="44.844259473506234" lon="9.94493253467641"><ele>197.0</ele><time>2026-03-22T08:49:21.999Z</time></trkpt><trkpt lat="44.84429359384625" lon="9.94501608189316"><ele>197.0</ele><time>2026-03-22T08:49:22.999Z</time></trkpt><trkpt lat="44.84432026514569" lon="9.945103807148726"><ele>196.42857142857144</ele><time>2026-03-22T08:49:23.999Z</time></trkpt><trkpt lat="44.844352391334276" lon="9.945187798743005"><ele>195.85714285714286</ele><time>2026-03-22T08:49:24.999Z</time></trkpt><trkpt lat="44.84438255905687" lon="9.945271975592387"><ele>195.28571428571428</ele><time>2026-03-22T08:49:25.999Z</time></trkpt><trkpt lat="44.844410667024476" lon="9.945353403045898"><ele>194.71428571428572</ele><time>2026-03-22T08:49:26.999Z</time></trkpt><trkpt lat="44.84443956991541" lon="9.945437292743563"><ele>194.14285714285714</ele><time>2026-03-22T08:49:27.999Z</time></trkpt><trkpt lat="44.844471704700794" lon="9.945519622068545"><ele>193.57142857142858</ele><time>2026-03-22T08:49:28.999Z</time></trkpt><trkpt lat="44.844498448907146" lon="9.945604398671746"><ele>193.0</ele><time>2026-03-22T08:49:29.999Z</time></trkpt><trkpt lat="44.84452981039914" lon="9.945685684437418"><ele>193.00000000000003</ele><time>2026-03-22T08:49:30.999Z</time></trkpt><trkpt lat="44.84455937221031" lon="9.94576814672122"><ele>193.0</ele><time>2026-03-22T08:49:31.999Z</time></trkpt><trkpt lat="44.84459098767957" lon="9.945850311467911"><ele>193.0</ele><time>2026-03-22T08:49:32.999Z</time></trkpt><trkpt lat="44.84462193690948" lon="9.945931304464665"><ele>193.0</ele><time>2026-03-22T08:49:33.999Z</time></trkpt><trkpt lat="44.844651664449785" lon="9.94601212249574"><ele>193.0</ele><time>2026-03-22T08:49:34.999Z</time></trkpt><trkpt lat="44.844681247622646" lon="9.946093013702448"><ele>193.00000000000003</ele><time>2026-03-22T08:49:35.999Z</time></trkpt><trkpt lat="44.84471048713431" lon="9.946171945797637"><ele>193.0</ele><time>2026-03-22T08:49:36.999Z</time></trkpt><trkpt lat="44.84474114184944" lon="9.946251257394668"><ele>192.66666666666666</ele><time>2026-03-22T08:49:37.999Z</time></trkpt><trkpt lat="44.84477141930108" lon="9.946331390551794"><ele>192.33333333333331</ele><time>2026-03-22T08:49:38.999Z</time></trkpt><trkpt lat="44.84477775636679" lon="9.946420564901752"><ele>192.0</ele><time>2026-03-22T08:49:39.999Z</time></trkpt><trkpt lat="44.84477344123616" lon="9.946580085133194"><ele>191.66666666666666</ele><time>2026-03-22T08:49:41.999Z</time></trkpt><trkpt lat="44.84470484794928" lon="9.946593610350723"><ele>191.33333333333331</ele><time>2026-03-22T08:49:42.999Z</time></trkpt><trkpt lat="44.84461675390079" lon="9.946686846465706"><ele>191.0</ele><time>2026-03-22T08:49:44.999Z</time></trkpt><trkpt lat="44.84452726237305" lon="9.946775735380813"><ele>190.60000000000002</ele><time>2026-03-22T08:49:46.998Z</time></trkpt><trkpt lat="44.84444157506534" lon="9.94686637300616"><ele>190.2</ele><time>2026-03-22T08:49:48.998Z</time></trkpt><trkpt lat="44.8443585085499" lon="9.946955586372464"><ele>189.8</ele><time>2026-03-22T08:49:50.998Z</time></trkpt><trkpt lat="44.84427312575819" lon="9.9470472874087"><ele>189.39999999999998</ele><time>2026-03-22T08:49:52.998Z</time></trkpt><trkpt lat="44.84418498243253" lon="9.947135175653974"><ele>189.0</ele><time>2026-03-22T08:49:54.998Z</time></trkpt><trkpt lat="44.84408567338344" lon="9.947203041274904"><ele>189.0</ele><time>2026-03-22T08:49:56.998Z</time></trkpt><trkpt lat="44.84402536256824" lon="9.947230003175363"><ele>189.0</ele><time>2026-03-22T08:49:57.998Z</time></trkpt><trkpt lat="44.843958259399656" lon="9.947258751124094"><ele>189.0</ele><time>2026-03-22T08:49:58.998Z</time></trkpt><trkpt lat="44.84388489656317" lon="9.947290176430696"><ele>189.0</ele><time>2026-03-22T08:49:59.998Z</time></trkpt><trkpt lat="44.84381017324224" lon="9.947322113772156"><ele>189.0</ele><time>2026-03-22T08:50:00.998Z</time></trkpt><trkpt lat="44.84373861475216" lon="9.947352594850091"><ele>189.0</ele><time>2026-03-22T08:50:01.998Z</time></trkpt><trkpt lat="44.84366370170966" lon="9.94738233073116"><ele>189.0</ele><time>2026-03-22T08:50:02.998Z</time></trkpt><trkpt lat="44.843586645688106" lon="9.947419121790663"><ele>189.0</ele><time>2026-03-22T08:50:03.998Z</time></trkpt><trkpt lat="44.84350989349473" lon="9.9474884142248"><ele>189.0</ele><time>2026-03-22T08:50:04.998Z</time></trkpt><trkpt lat="44.843445592006546" lon="9.947586797112779"><ele>189.0</ele><time>2026-03-22T08:50:05.998Z</time></trkpt><trkpt lat="44.843382444513175" lon="9.94767188246407"><ele>189.0</ele><time>2026-03-22T08:50:06.998Z</time></trkpt><trkpt lat="44.843308612399994" lon="9.947739776519377"><ele>189.0</ele><time>2026-03-22T08:50:07.998Z</time></trkpt><trkpt lat="44.84321934620118" lon="9.947787637322921"><ele>186.6</ele><time>2026-03-22T08:50:08.998Z</time></trkpt><trkpt lat="44.843120177488075" lon="9.947809384245362"><ele>184.2</ele><time>2026-03-22T08:50:09.998Z</time></trkpt><trkpt lat="44.84301665740496" lon="9.94782030998725"><ele>181.79999999999998</ele><time>2026-03-22T08:50:10.998Z</time></trkpt><trkpt lat="44.842908762617405" lon="9.947849502700178"><ele>179.39999999999998</ele><time>2026-03-22T08:50:11.998Z</time></trkpt><trkpt lat="44.842800233585095" lon="9.947833751730995"><ele>177.0</ele><time>2026-03-22T08:50:12.998Z</time></trkpt><trkpt lat="44.842696108653655" lon="9.947859640424785"><ele>175.8</ele><time>2026-03-22T08:50:13.998Z</time></trkpt><trkpt lat="44.842597889963834" lon="9.94789738650787"><ele>174.6</ele><time>2026-03-22T08:50:14.998Z</time></trkpt><trkpt lat="44.842502683553725" lon="9.947936943199343"><ele>173.4</ele><time>2026-03-22T08:50:15.998Z</time></trkpt><trkpt lat="44.8424079002118" lon="9.947977414617727"><ele>172.20000000000002</ele><time>2026-03-22T08:50:16.998Z</time></trkpt><trkpt lat="44.842312994662485" lon="9.948018032957222"><ele>171.0</ele><time>2026-03-22T08:50:17.998Z</time></trkpt><trkpt lat="44.84222597599823" lon="9.948054571664168"><ele>171.0</ele><time>2026-03-22T08:50:18.998Z</time></trkpt><trkpt lat="44.84214223218733" lon="9.948092043827483"><ele>171.0</ele><time>2026-03-22T08:50:19.998Z</time></trkpt><trkpt lat="44.84206817657621" lon="9.948119508433036"><ele>171.0</ele><time>2026-03-22T08:50:20.998Z</time></trkpt><trkpt lat="44.84199794939387" lon="9.948156864547572"><ele>171.0</ele><time>2026-03-22T08:50:21.998Z</time></trkpt><trkpt lat="44.84193814304539" lon="9.948244273757389"><ele>171.0</ele><time>2026-03-22T08:50:22.998Z</time></trkpt><trkpt lat="44.841888945228575" lon="9.948312564651982"><ele>171.0</ele><time>2026-03-22T08:50:23.998Z</time></trkpt><trkpt lat="44.84183579722352" lon="9.948367368063634"><ele>169.83333333333334</ele><time>2026-03-22T08:50:24.998Z</time></trkpt><trkpt lat="44.841782408207" lon="9.948431936768463"><ele>168.66666666666666</ele><time>2026-03-22T08:50:25.998Z</time></trkpt><trkpt lat="44.84174756666158" lon="9.94853114907044"><ele>167.5</ele><time>2026-03-22T08:50:26.998Z</time></trkpt><trkpt lat="44.841730495720334" lon="9.948631169308646"><ele>166.33333333333331</ele><time>2026-03-22T08:50:27.998Z</time></trkpt><trkpt lat="44.84173916196497" lon="9.948739919772557"><ele>165.16666666666666</ele><time>2026-03-22T08:50:28.998Z</time></trkpt><trkpt lat="44.84175644843153" lon="9.948832466792382"><ele>164.0</ele><time>2026-03-22T08:50:29.998Z</time></trkpt><trkpt lat="44.84178571852444" lon="9.948997158423703"><ele>164.6</ele><time>2026-03-22T08:50:31.998Z</time></trkpt><trkpt lat="44.84181465245628" lon="9.949168180685582"><ele>165.2</ele><time>2026-03-22T08:50:34Z</time></trkpt><trkpt lat="44.84184332727865" lon="9.949337671505225"><ele>165.79999999999998</ele><time>2026-03-22T08:50:36Z</time></trkpt><trkpt lat="44.84185830043801" lon="9.949424260813625"><ele>166.39999999999998</ele><time>2026-03-22T08:50:37Z</time></trkpt><trkpt lat="44.841888868403274" lon="9.94959760824467"><ele>167.0</ele><time>2026-03-22T08:50:39Z</time></trkpt><trkpt lat="44.841904953602324" lon="9.949688825572808"><ele>167.0</ele><time>2026-03-22T08:50:40Z</time></trkpt><trkpt lat="44.841921165505035" lon="9.94978076139224"><ele>167.0</ele><time>2026-03-22T08:50:41Z</time></trkpt><trkpt lat="44.841935313083596" lon="9.949870492803274"><ele>167.0</ele><time>2026-03-22T08:50:42Z</time></trkpt><trkpt lat="44.84194831657973" lon="9.949964578761147"><ele>167.0</ele><time>2026-03-22T08:50:43Z</time></trkpt><trkpt lat="44.841960872233464" lon="9.950055424199542"><ele>167.0</ele><time>2026-03-22T08:50:44Z</time></trkpt><trkpt lat="44.841973119407704" lon="9.950144037729686"><ele>167.0</ele><time>2026-03-22T08:50:45Z</time></trkpt><trkpt lat="44.841996788188126" lon="9.95031529154644"><ele>167.0</ele><time>2026-03-22T08:50:47Z</time></trkpt><trkpt lat="44.842019473771025" lon="9.950479984355491"><ele>167.0</ele><time>2026-03-22T08:50:49Z</time></trkpt><trkpt lat="44.84204146273369" lon="9.950643390606785"><ele>167.0</ele><time>2026-03-22T08:50:51Z</time></trkpt><trkpt lat="44.842063003102325" lon="9.9508034633301"><ele>167.0</ele><time>2026-03-22T08:50:53Z</time></trkpt><trkpt lat="44.842084872633905" lon="9.950965982070803"><ele>166.5</ele><time>2026-03-22T08:50:55Z</time></trkpt><trkpt lat="44.84211019525019" lon="9.951127767228297"><ele>166.0</ele><time>2026-03-22T08:50:56.999Z</time></trkpt><trkpt lat="44.84213638793289" lon="9.951286161448722"><ele>165.5</ele><time>2026-03-22T08:50:58.999Z</time></trkpt><trkpt lat="44.842165258273354" lon="9.951447977602621"><ele>165.0</ele><time>2026-03-22T08:51:00.999Z</time></trkpt><trkpt lat="44.8421990600165" lon="9.95161441085352"><ele>165.00000000000003</ele><time>2026-03-22T08:51:02.999Z</time></trkpt><trkpt lat="44.842219510059905" lon="9.95170019232253"><ele>165.0</ele><time>2026-03-22T08:51:03.999Z</time></trkpt><trkpt lat="44.84224112790076" lon="9.951784889789996"><ele>165.0</ele><time>2026-03-22T08:51:04.999Z</time></trkpt><trkpt lat="44.84226400209512" lon="9.951872129030303"><ele>165.0</ele><time>2026-03-22T08:51:05.999Z</time></trkpt><trkpt lat="44.842286587121784" lon="9.95195826545374"><ele>165.0</ele><time>2026-03-22T08:51:06.999Z</time></trkpt><trkpt lat="44.84230927113791" lon="9.952044779409398"><ele>165.00000000000003</ele><time>2026-03-22T08:51:07.999Z</time></trkpt><trkpt lat="44.842332663662134" lon="9.952133503194245"><ele>165.0</ele><time>2026-03-22T08:51:08.999Z</time></trkpt><trkpt lat="44.842356367384035" lon="9.95222293150746"><ele>164.85714285714286</ele><time>2026-03-22T08:51:09.999Z</time></trkpt><trkpt lat="44.84237992696576" lon="9.952311816004617"><ele>164.71428571428572</ele><time>2026-03-22T08:51:10.999Z</time></trkpt><trkpt lat="44.842403158242426" lon="9.952399461889913"><ele>164.57142857142856</ele><time>2026-03-22T08:51:11.999Z</time></trkpt><trkpt lat="44.84242703431868" lon="9.952489540481778"><ele>164.42857142857144</ele><time>2026-03-22T08:51:12.999Z</time></trkpt><trkpt lat="44.842451118701206" lon="9.952580404919347"><ele>164.28571428571428</ele><time>2026-03-22T08:51:13.999Z</time></trkpt><trkpt lat="44.84247467082412" lon="9.952669261275389"><ele>164.14285714285714</ele><time>2026-03-22T08:51:14.999Z</time></trkpt><trkpt lat="44.84249854791056" lon="9.95275986109645"><ele>164.0</ele><time>2026-03-22T08:51:15.999Z</time></trkpt><trkpt lat="44.84252237639121" lon="9.95285139031039"><ele>163.99999999999997</ele><time>2026-03-22T08:51:16.999Z</time></trkpt><trkpt lat="44.84254526036958" lon="9.952940975650241"><ele>164.0</ele><time>2026-03-22T08:51:17.999Z</time></trkpt><trkpt lat="44.84256803475413" lon="9.953032437673993"><ele>164.0</ele><time>2026-03-22T08:51:18.999Z</time></trkpt><trkpt lat="44.84259050415527" lon="9.953122674747277"><ele>164.0</ele><time>2026-03-22T08:51:19.999Z</time></trkpt><trkpt lat="44.84261311935373" lon="9.953213497399123"><ele>164.0</ele><time>2026-03-22T08:51:20.999Z</time></trkpt><trkpt lat="44.84263688129632" lon="9.953305324623756"><ele>163.99999999999997</ele><time>2026-03-22T08:51:21.999Z</time></trkpt><trkpt lat="44.84266082867227" lon="9.95339521904531"><ele>164.0</ele><time>2026-03-22T08:51:22.999Z</time></trkpt><trkpt lat="44.842685029661965" lon="9.953486065477877"><ele>163.85714285714283</ele><time>2026-03-22T08:51:23.999Z</time></trkpt><trkpt lat="44.84270900997391" lon="9.95357608347784"><ele>163.71428571428572</ele><time>2026-03-22T08:51:24.999Z</time></trkpt><trkpt lat="44.84273224014624" lon="9.953664393646132"><ele>163.57142857142856</ele><time>2026-03-22T08:51:25.999Z</time></trkpt><trkpt lat="44.84275519427662" lon="9.953752839777206"><ele>163.42857142857142</ele><time>2026-03-22T08:51:26.999Z</time></trkpt><trkpt lat="44.842777954992265" lon="9.953840540468907"><ele>163.28571428571428</ele><time>2026-03-22T08:51:27.999Z</time></trkpt><trkpt lat="44.84280064164817" lon="9.953927988350868"><ele>163.14285714285714</ele><time>2026-03-22T08:51:28.999Z</time></trkpt><trkpt lat="44.84282220362047" lon="9.954012250311443"><ele>163.0</ele><time>2026-03-22T08:51:29.999Z</time></trkpt><trkpt lat="44.842844285927264" lon="9.954098545640699"><ele>162.5</ele><time>2026-03-22T08:51:30.999Z</time></trkpt><trkpt lat="44.84288436293534" lon="9.954265479398254"><ele>162.0</ele><time>2026-03-22T08:51:32.999Z</time></trkpt><trkpt lat="44.84291809684627" lon="9.954431552655683"><ele>161.5</ele><time>2026-03-22T08:51:34.999Z</time></trkpt><trkpt lat="44.84294351561855" lon="9.954602635997455"><ele>161.0</ele><time>2026-03-22T08:51:36.999Z</time></trkpt><trkpt lat="44.84295475843828" lon="9.954773170952935"><ele>161.0</ele><time>2026-03-22T08:51:38.999Z</time></trkpt><trkpt lat="44.84295826103735" lon="9.954946997759386"><ele>161.0</ele><time>2026-03-22T08:51:40.999Z</time></trkpt><trkpt lat="44.842957645807445" lon="9.955122705438075"><ele>161.0</ele><time>2026-03-22T08:51:42.999Z</time></trkpt><trkpt lat="44.84295060345884" lon="9.955294555559712"><ele>161.0</ele><time>2026-03-22T08:51:44.999Z</time></trkpt><trkpt lat="44.842937154305176" lon="9.955461408740627"><ele>160.5</ele><time>2026-03-22T08:51:46.999Z</time></trkpt><trkpt lat="44.84291963414111" lon="9.955628051744998"><ele>160.0</ele><time>2026-03-22T08:51:48.998Z</time></trkpt><trkpt lat="44.842908277333905" lon="9.9557173120964"><ele>159.5</ele><time>2026-03-22T08:51:49.998Z</time></trkpt><trkpt lat="44.84289583948152" lon="9.95581506931938"><ele>159.0</ele><time>2026-03-22T08:51:50.998Z</time></trkpt><trkpt lat="44.84288667006294" lon="9.955925756337034"><ele>158.5</ele><time>2026-03-22T08:51:51.998Z</time></trkpt><trkpt lat="44.84287845316732" lon="9.956042846900154"><ele>158.0</ele><time>2026-03-22T08:51:52.998Z</time></trkpt><trkpt lat="44.84286531484021" lon="9.956155627987895"><ele>157.4</ele><time>2026-03-22T08:51:53.998Z</time></trkpt><trkpt lat="44.84284272041026" lon="9.956266563666704"><ele>156.8</ele><time>2026-03-22T08:51:54.998Z</time></trkpt><trkpt lat="44.84281021364213" lon="9.956383361034831"><ele>156.2</ele><time>2026-03-22T08:51:55.998Z</time></trkpt><trkpt lat="44.842766877638404" lon="9.95649253063313"><ele>155.6</ele><time>2026-03-22T08:51:56.998Z</time></trkpt><trkpt lat="44.84271268842919" lon="9.956599558485006"><ele>155.0</ele><time>2026-03-22T08:51:57.998Z</time></trkpt><trkpt lat="44.84265346679476" lon="9.956710644931812"><ele>154.2</ele><time>2026-03-22T08:51:58.998Z</time></trkpt><trkpt lat="44.84259225707706" lon="9.956823196910898"><ele>153.4</ele><time>2026-03-22T08:51:59.998Z</time></trkpt><trkpt lat="44.84253297553228" lon="9.956935117299581"><ele>152.6</ele><time>2026-03-22T08:52:00.998Z</time></trkpt><trkpt lat="44.84247593061749" lon="9.957046165052894"><ele>151.8</ele><time>2026-03-22T08:52:01.998Z</time></trkpt><trkpt lat="44.84242027220348" lon="9.957154683694498"><ele>151.0</ele><time>2026-03-22T08:52:02.998Z</time></trkpt><trkpt lat="44.84236779118227" lon="9.957261494906703"><ele>151.0</ele><time>2026-03-22T08:52:03.998Z</time></trkpt><trkpt lat="44.842317111207876" lon="9.957371894783327"><ele>151.0</ele><time>2026-03-22T08:52:04.998Z</time></trkpt><trkpt lat="44.84227501355584" lon="9.957476405187627"><ele>151.0</ele><time>2026-03-22T08:52:05.998Z</time></trkpt><trkpt lat="44.8422350122316" lon="9.957577466144025"><ele>151.0</ele><time>2026-03-22T08:52:06.998Z</time></trkpt><trkpt lat="44.84219590010371" lon="9.957676280771233"><ele>151.0</ele><time>2026-03-22T08:52:07.998Z</time></trkpt><trkpt lat="44.84215669856619" lon="9.95777532102381"><ele>151.0</ele><time>2026-03-22T08:52:08.998Z</time></trkpt><trkpt lat="44.84211805707564" lon="9.957871617376174"><ele>150.85714285714286</ele><time>2026-03-22T08:52:09.998Z</time></trkpt><trkpt lat="44.84207966210376" lon="9.957965115182967"><ele>150.71428571428572</ele><time>2026-03-22T08:52:10.998Z</time></trkpt><trkpt lat="44.84204165697115" lon="9.958054143660446"><ele>150.57142857142856</ele><time>2026-03-22T08:52:11.998Z</time></trkpt><trkpt lat="44.842003423504984" lon="9.958141060689252"><ele>150.42857142857144</ele><time>2026-03-22T08:52:12.998Z</time></trkpt><trkpt lat="44.84196420165591" lon="9.95822485136417"><ele>150.28571428571428</ele><time>2026-03-22T08:52:13.998Z</time></trkpt><trkpt lat="44.84192366146926" lon="9.958307723932297"><ele>150.14285714285714</ele><time>2026-03-22T08:52:14.998Z</time></trkpt><trkpt lat="44.84188090786531" lon="9.958389111997068"><ele>150.0</ele><time>2026-03-22T08:52:15.998Z</time></trkpt><trkpt lat="44.841837763949805" lon="9.958466182150703"><ele>149.42857142857142</ele><time>2026-03-22T08:52:16.998Z</time></trkpt><trkpt lat="44.84179307549083" lon="9.958541846397665"><ele>148.85714285714286</ele><time>2026-03-22T08:52:17.998Z</time></trkpt><trkpt lat="44.8417473583129" lon="9.958616600491723"><ele>148.28571428571428</ele><time>2026-03-22T08:52:18.998Z</time></trkpt><trkpt lat="44.84169991813861" lon="9.958693075142413"><ele>147.71428571428572</ele><time>2026-03-22T08:52:19.998Z</time></trkpt><trkpt lat="44.84165254436814" lon="9.958767520430639"><ele>147.14285714285714</ele><time>2026-03-22T08:52:20.998Z</time></trkpt><trkpt lat="44.84160636450046" lon="9.958839215956157"><ele>146.57142857142856</ele><time>2026-03-22T08:52:21.998Z</time></trkpt><trkpt lat="44.8415578121971" lon="9.958913931112878"><ele>146.0</ele><time>2026-03-22T08:52:22.998Z</time></trkpt><trkpt lat="44.84151050077793" lon="9.958986096271913"><ele>146.0</ele><time>2026-03-22T08:52:23.998Z</time></trkpt><trkpt lat="44.841463200453695" lon="9.95905824448444"><ele>146.0</ele><time>2026-03-22T08:52:24.998Z</time></trkpt><trkpt lat="44.84141769672897" lon="9.959127652283225"><ele>146.0</ele><time>2026-03-22T08:52:25.998Z</time></trkpt><trkpt lat="44.84137136713949" lon="9.95919831985428"><ele>146.0</ele><time>2026-03-22T08:52:26.998Z</time></trkpt><trkpt lat="44.84132487503099" lon="9.959268422272356"><ele>146.0</ele><time>2026-03-22T08:52:27.998Z</time></trkpt><trkpt lat="44.841277391154165" lon="9.959338393179852"><ele>146.0</ele><time>2026-03-22T08:52:28.998Z</time></trkpt><trkpt lat="44.84122887103718" lon="9.9594088224452"><ele>146.0</ele><time>2026-03-22T08:52:29.998Z</time></trkpt><trkpt lat="44.841179909443525" lon="9.959482271301821"><ele>145.83333333333331</ele><time>2026-03-22T08:52:30.998Z</time></trkpt><trkpt lat="44.84113459755308" lon="9.95956136659109"><ele>145.66666666666666</ele><time>2026-03-22T08:52:31.998Z</time></trkpt><trkpt lat="44.84109812090177" lon="9.95965937279167"><ele>145.5</ele><time>2026-03-22T08:52:32.998Z</time></trkpt><trkpt lat="44.84107925156418" lon="9.959772324413976"><ele>145.33333333333334</ele><time>2026-03-22T08:52:33.998Z</time></trkpt><trkpt lat="44.84108964090074" lon="9.959889776528767"><ele>145.16666666666669</ele><time>2026-03-22T08:52:34.998Z</time></trkpt><trkpt lat="44.84111431672521" lon="9.959993966512682"><ele>145.0</ele><time>2026-03-22T08:52:35.998Z</time></trkpt><trkpt lat="44.84114752145864" lon="9.960086979825201"><ele>145.0</ele><time>2026-03-22T08:52:36.998Z</time></trkpt><trkpt lat="44.84118292815021" lon="9.960173300331643"><ele>145.0</ele><time>2026-03-22T08:52:37.998Z</time></trkpt><trkpt lat="44.84121874302709" lon="9.96025983436335"><ele>145.0</ele><time>2026-03-22T08:52:39Z</time></trkpt><trkpt lat="44.84125443959874" lon="9.960346082700747"><ele>145.0</ele><time>2026-03-22T08:52:40Z</time></trkpt><trkpt lat="44.84128965610663" lon="9.96043117099057"><ele>145.0</ele><time>2026-03-22T08:52:41Z</time></trkpt><trkpt lat="44.84132606327613" lon="9.960519136244196"><ele>145.0</ele><time>2026-03-22T08:52:42Z</time></trkpt><trkpt lat="44.84136153851561" lon="9.960604849694056"><ele>145.0</ele><time>2026-03-22T08:52:43Z</time></trkpt><trkpt lat="44.84139672739587" lon="9.960692225090849"><ele>145.0</ele><time>2026-03-22T08:52:44Z</time></trkpt><trkpt lat="44.84143088558427" lon="9.960778736499114"><ele>145.0</ele><time>2026-03-22T08:52:45Z</time></trkpt><trkpt lat="44.84146191037146" lon="9.960862525177788"><ele>145.0</ele><time>2026-03-22T08:52:46Z</time></trkpt><trkpt lat="44.841499460769676" lon="9.96102649296511"><ele>145.0</ele><time>2026-03-22T08:52:48Z</time></trkpt><trkpt lat="44.841433770282194" lon="9.961096110539412"><ele>145.0</ele><time>2026-03-22T08:52:50Z</time></trkpt><trkpt lat="44.841334774566235" lon="9.961185454659818"><ele>144.75</ele><time>2026-03-22T08:52:52Z</time></trkpt><trkpt lat="44.84123155230248" lon="9.961274299735473"><ele>144.5</ele><time>2026-03-22T08:52:54Z</time></trkpt><trkpt lat="44.84113202643833" lon="9.961365302937002"><ele>144.25</ele><time>2026-03-22T08:52:56Z</time></trkpt><trkpt lat="44.841033598158006" lon="9.961455302701204"><ele>144.0</ele><time>2026-03-22T08:52:58Z</time></trkpt><trkpt lat="44.84093200845856" lon="9.961548193192284"><ele>143.75</ele><time>2026-03-22T08:53:00Z</time></trkpt><trkpt lat="44.84083095507931" lon="9.961640593151133"><ele>143.5</ele><time>2026-03-22T08:53:01.999Z</time></trkpt><trkpt lat="44.84072824564977" lon="9.961734507398656"><ele>143.25</ele><time>2026-03-22T08:53:03.999Z</time></trkpt><trkpt lat="44.840624277697074" lon="9.961829572571743"><ele>143.0</ele><time>2026-03-22T08:53:05.999Z</time></trkpt><trkpt lat="44.84051737222146" lon="9.961927323334555"><ele>142.99999999999997</ele><time>2026-03-22T08:53:07.999Z</time></trkpt><trkpt lat="44.840462439728114" lon="9.961977551716263"><ele>143.0</ele><time>2026-03-22T08:53:08.999Z</time></trkpt><trkpt lat="44.84040635707614" lon="9.962028832221794"><ele>143.0</ele><time>2026-03-22T08:53:09.999Z</time></trkpt><trkpt lat="44.840349293944506" lon="9.962081008859156"><ele>143.0</ele><time>2026-03-22T08:53:10.999Z</time></trkpt><trkpt lat="44.84029224778509" lon="9.962133170154729"><ele>143.0</ele><time>2026-03-22T08:53:11.999Z</time></trkpt><trkpt lat="44.84023463267392" lon="9.962185838437602"><ele>142.99999999999997</ele><time>2026-03-22T08:53:12.999Z</time></trkpt><trkpt lat="44.840178003040194" lon="9.962237603133444"><ele>143.0</ele><time>2026-03-22T08:53:13.999Z</time></trkpt><trkpt lat="44.84012181180582" lon="9.96228896855745"><ele>142.99999999999997</ele><time>2026-03-22T08:53:14.999Z</time></trkpt><trkpt lat="44.84006717933817" lon="9.962338907640824"><ele>143.0</ele><time>2026-03-22T08:53:15.999Z</time></trkpt><trkpt lat="44.84001369873655" lon="9.962387793842955"><ele>143.0</ele><time>2026-03-22T08:53:16.999Z</time></trkpt><trkpt lat="44.83995867442143" lon="9.962438090982795"><ele>143.0</ele><time>2026-03-22T08:53:17.999Z</time></trkpt><trkpt lat="44.83990475739793" lon="9.962487376086976"><ele>143.0</ele><time>2026-03-22T08:53:18.999Z</time></trkpt><trkpt lat="44.83984900958799" lon="9.962538915331056"><ele>142.99999999999997</ele><time>2026-03-22T08:53:19.999Z</time></trkpt><trkpt lat="44.83979481941554" lon="9.96258990545627"><ele>143.0</ele><time>2026-03-22T08:53:20.999Z</time></trkpt><trkpt lat="44.83974035746654" lon="9.962641151295148"><ele>142.33333333333331</ele><time>2026-03-22T08:53:21.999Z</time></trkpt><trkpt lat="44.83968748301371" lon="9.962690903437231"><ele>141.66666666666666</ele><time>2026-03-22T08:53:22.999Z</time></trkpt><trkpt lat="44.839633686454434" lon="9.962741523143462"><ele>141.0</ele><time>2026-03-22T08:53:23.999Z</time></trkpt><trkpt lat="44.83952761314641" lon="9.962841332602478"><ele>140.33333333333334</ele><time>2026-03-22T08:53:25.999Z</time></trkpt><trkpt lat="44.83947410925077" lon="9.962891676992925"><ele>139.66666666666669</ele><time>2026-03-22T08:53:26.999Z</time></trkpt><trkpt lat="44.839419660978876" lon="9.962942909955856"><ele>139.0</ele><time>2026-03-22T08:53:27.999Z</time></trkpt><trkpt lat="44.83936468384262" lon="9.962994640560133"><ele>139.0</ele><time>2026-03-22T08:53:28.999Z</time></trkpt><trkpt lat="44.83931013973256" lon="9.96304516325679"><ele>139.0</ele><time>2026-03-22T08:53:29.999Z</time></trkpt><trkpt lat="44.8392522998139" lon="9.963097310847676"><ele>139.0</ele><time>2026-03-22T08:53:30.999Z</time></trkpt><trkpt lat="44.83919150567971" lon="9.96315212191249"><ele>139.0</ele><time>2026-03-22T08:53:31.999Z</time></trkpt><trkpt lat="44.83912857048268" lon="9.963208863286924"><ele>139.0</ele><time>2026-03-22T08:53:32.999Z</time></trkpt><trkpt lat="44.83906302334953" lon="9.96326672872814"><ele>139.0</ele><time>2026-03-22T08:53:33.999Z</time></trkpt><trkpt lat="44.8389955645805" lon="9.963326149862135"><ele>139.0</ele><time>2026-03-22T08:53:34.999Z</time></trkpt><trkpt lat="44.838925629034655" lon="9.96338604808611"><ele>138.5</ele><time>2026-03-22T08:53:35.999Z</time></trkpt><trkpt lat="44.83885474952478" lon="9.963443160239516"><ele>138.0</ele><time>2026-03-22T08:53:36.999Z</time></trkpt><trkpt lat="44.838781825196264" lon="9.963500572506632"><ele>137.5</ele><time>2026-03-22T08:53:37.999Z</time></trkpt><trkpt lat="44.838711419539706" lon="9.96355961860608"><ele>137.0</ele><time>2026-03-22T08:53:38.999Z</time></trkpt><trkpt lat="44.838644315995616" lon="9.963619126141024"><ele>136.5</ele><time>2026-03-22T08:53:39.999Z</time></trkpt><trkpt lat="44.83858088806806" lon="9.963682004378692"><ele>136.0</ele><time>2026-03-22T08:53:40.999Z</time></trkpt><trkpt lat="44.83852082902109" lon="9.963755256835553"><ele>136.0</ele><time>2026-03-22T08:53:41.999Z</time></trkpt><trkpt lat="44.838468687987024" lon="9.963845663857807"><ele>136.0</ele><time>2026-03-22T08:53:42.999Z</time></trkpt><trkpt lat="44.83843157518515" lon="9.963950552014685"><ele>136.0</ele><time>2026-03-22T08:53:43.999Z</time></trkpt><trkpt lat="44.83840728495167" lon="9.964055155909222"><ele>136.0</ele><time>2026-03-22T08:53:44.999Z</time></trkpt><trkpt lat="44.83838995254468" lon="9.964156014838329"><ele>136.0</ele><time>2026-03-22T08:53:45.999Z</time></trkpt><trkpt lat="44.838372863610395" lon="9.964256189968372"><ele>136.0</ele><time>2026-03-22T08:53:46.999Z</time></trkpt><trkpt lat="44.83835586664261" lon="9.96435582614785"><ele>135.33333333333334</ele><time>2026-03-22T08:53:47.999Z</time></trkpt><trkpt lat="44.83833877675544" lon="9.964456007087556"><ele>134.66666666666669</ele><time>2026-03-22T08:53:48.999Z</time></trkpt><trkpt lat="44.83832199893454" lon="9.964554358349414"><ele>134.0</ele><time>2026-03-22T08:53:49.999Z</time></trkpt><trkpt lat="44.8383068138286" lon="9.964656267077467"><ele>133.33333333333334</ele><time>2026-03-22T08:53:50.999Z</time></trkpt><trkpt lat="44.83829385177916" lon="9.964752374694374"><ele>132.66666666666666</ele><time>2026-03-22T08:53:51.999Z</time></trkpt><trkpt lat="44.83828046573709" lon="9.964843112938418"><ele>132.0</ele><time>2026-03-22T08:53:52.999Z</time></trkpt><trkpt lat="44.83825668987275" lon="9.964976666466036"><ele>132.0</ele><time>2026-03-22T08:53:54.998Z</time></trkpt><trkpt lat="44.838227220401876" lon="9.965061046461324"><ele>132.0</ele><time>2026-03-22T08:53:58.998Z</time></trkpt><trkpt lat="44.83801135425964" lon="9.96490966836255"><ele>132.0</ele><time>2026-03-22T08:54:16.998Z</time></trkpt><trkpt lat="44.837934978924324" lon="9.96481904435927"><ele>132.0</ele><time>2026-03-22T08:54:18.998Z</time></trkpt><trkpt lat="44.83785706469301" lon="9.964754141001993"><ele>132.0</ele><time>2026-03-22T08:54:20.998Z</time></trkpt><trkpt lat="44.83777441498845" lon="9.964706404316525"><ele>132.0</ele><time>2026-03-22T08:54:22.998Z</time></trkpt><trkpt lat="44.83769153941726" lon="9.964663726289766"><ele>132.0</ele><time>2026-03-22T08:54:24.998Z</time></trkpt><trkpt lat="44.83760903389234" lon="9.96462770408995"><ele>132.0</ele><time>2026-03-22T08:54:26.998Z</time></trkpt><trkpt lat="44.83754453630727" lon="9.964603003248778"><ele>132.0</ele><time>2026-03-22T08:54:28.998Z</time></trkpt><trkpt lat="44.837446877710576" lon="9.964576196876218"><ele>132.0</ele><time>2026-03-22T08:54:30.998Z</time></trkpt><trkpt lat="44.837357826474616" lon="9.964557208568026"><ele>132.0</ele><time>2026-03-22T08:54:32.998Z</time></trkpt><trkpt lat="44.83726278590697" lon="9.964534193176918"><ele>132.0</ele><time>2026-03-22T08:54:34.998Z</time></trkpt><trkpt lat="44.8371643286077" lon="9.964531694256259"><ele>132.0</ele><time>2026-03-22T08:54:36.998Z</time></trkpt><trkpt lat="44.83706589212312" lon="9.964529343704173"><ele>132.0</ele><time>2026-03-22T08:54:38.998Z</time></trkpt><trkpt lat="44.83695982103926" lon="9.964533845035918"><ele>132.0</ele><time>2026-03-22T08:54:40.998Z</time></trkpt><trkpt lat="44.83685459686535" lon="9.964547586972312"><ele>131.79999999999998</ele><time>2026-03-22T08:54:42.998Z</time></trkpt><trkpt lat="44.836750192539945" lon="9.964553914632438"><ele>131.6</ele><time>2026-03-22T08:54:45Z</time></trkpt><trkpt lat="44.836641728609905" lon="9.964563634182511"><ele>131.39999999999998</ele><time>2026-03-22T08:54:47Z</time></trkpt><trkpt lat="44.83653642199781" lon="9.964581077281574"><ele>131.2</ele><time>2026-03-22T08:54:49Z</time></trkpt><trkpt lat="44.83643325365678" lon="9.964585627227327"><ele>131.0</ele><time>2026-03-22T08:54:51Z</time></trkpt><trkpt lat="44.83632418571958" lon="9.964599370736607"><ele>131.0</ele><time>2026-03-22T08:54:53Z</time></trkpt><trkpt lat="44.83621576281505" lon="9.964610245345154"><ele>131.0</ele><time>2026-03-22T08:54:55Z</time></trkpt><trkpt lat="44.83611009424681" lon="9.964620801450579"><ele>131.0</ele><time>2026-03-22T08:54:57Z</time></trkpt><trkpt lat="44.835999605602616" lon="9.964629367354759"><ele>131.0</ele><time>2026-03-22T08:54:59Z</time></trkpt><trkpt lat="44.83588738458468" lon="9.964627052942232"><ele>131.0</ele><time>2026-03-22T08:55:01Z</time></trkpt><trkpt lat="44.83577894072168" lon="9.964577801537605"><ele>132.0</ele><time>2026-03-22T08:55:03Z</time></trkpt><trkpt lat="44.83568931522995" lon="9.964482461971924"><ele>133.0</ele><time>2026-03-22T08:55:05Z</time></trkpt><trkpt lat="44.83562433103107" lon="9.96436403056126"><ele>134.0</ele><time>2026-03-22T08:55:06.999Z</time></trkpt><trkpt lat="44.835572139217895" lon="9.964239662303141"><ele>135.0</ele><time>2026-03-22T08:55:08.999Z</time></trkpt><trkpt lat="44.83552444505041" lon="9.964113045581053"><ele>136.0</ele><time>2026-03-22T08:55:10.999Z</time></trkpt><trkpt lat="44.83546706444697" lon="9.964004000978347"><ele>136.4</ele><time>2026-03-22T08:55:12.999Z</time></trkpt><trkpt lat="44.835418224119515" lon="9.963874944075954"><ele>136.8</ele><time>2026-03-22T08:55:14.999Z</time></trkpt><trkpt lat="44.83536921460238" lon="9.963756701873539"><ele>137.20000000000002</ele><time>2026-03-22T08:55:16.999Z</time></trkpt><trkpt lat="44.83532174549972" lon="9.96363516989914"><ele>137.6</ele><time>2026-03-22T08:55:18.999Z</time></trkpt><trkpt lat="44.835270131467254" lon="9.963518184312624"><ele>138.0</ele><time>2026-03-22T08:55:20.999Z</time></trkpt><trkpt lat="44.835217039247695" lon="9.96339846742093"><ele>138.20000000000002</ele><time>2026-03-22T08:55:22.999Z</time></trkpt><trkpt lat="44.835175364176315" lon="9.963273518845918"><ele>138.4</ele><time>2026-03-22T08:55:24.999Z</time></trkpt><trkpt lat="44.835135576090565" lon="9.963150776847712"><ele>138.60000000000002</ele><time>2026-03-22T08:55:26.999Z</time></trkpt><trkpt lat="44.83509246950235" lon="9.963019180328944"><ele>138.8</ele><time>2026-03-22T08:55:28.999Z</time></trkpt><trkpt lat="44.83506148917955" lon="9.962881455200494"><ele>139.0</ele><time>2026-03-22T08:55:30.999Z</time></trkpt><trkpt lat="44.83502751065272" lon="9.962741680866705"><ele>139.6</ele><time>2026-03-22T08:55:32.999Z</time></trkpt><trkpt lat="44.83499911629947" lon="9.962602451586731"><ele>140.2</ele><time>2026-03-22T08:55:34.999Z</time></trkpt><trkpt lat="44.83497764731376" lon="9.96245569718663"><ele>140.79999999999998</ele><time>2026-03-22T08:55:36.999Z</time></trkpt><trkpt lat="44.83495329167855" lon="9.962335256342259"><ele>141.4</ele><time>2026-03-22T08:55:38.999Z</time></trkpt><trkpt lat="44.834920964628644" lon="9.962199617250098"><ele>142.0</ele><time>2026-03-22T08:55:40.999Z</time></trkpt><trkpt lat="44.834874425889474" lon="9.962065043821864"><ele>142.4</ele><time>2026-03-22T08:55:42.999Z</time></trkpt><trkpt lat="44.83481824639455" lon="9.961940381640012"><ele>142.79999999999998</ele><time>2026-03-22T08:55:44.999Z</time></trkpt><trkpt lat="44.83475608579316" lon="9.961820397444107"><ele>143.2</ele><time>2026-03-22T08:55:46.999Z</time></trkpt><trkpt lat="44.83469503700702" lon="9.961703535271795"><ele>143.6</ele><time>2026-03-22T08:55:48.999Z</time></trkpt><trkpt lat="44.83465908863217" lon="9.961626186196357"><ele>144.0</ele><time>2026-03-22T08:55:49.999Z</time></trkpt><trkpt lat="44.83459775536473" lon="9.961483624465707"><ele>144.75</ele><time>2026-03-22T08:55:51.999Z</time></trkpt><trkpt lat="44.83454470043106" lon="9.961344471299379"><ele>145.5</ele><time>2026-03-22T08:55:53.999Z</time></trkpt><trkpt lat="44.83449834966087" lon="9.961197099417985"><ele>146.25</ele><time>2026-03-22T08:55:55.999Z</time></trkpt><trkpt lat="44.83445603684213" lon="9.961051815827659"><ele>147.0</ele><time>2026-03-22T08:55:57.999Z</time></trkpt><trkpt lat="44.83441974961665" lon="9.960901689459373"><ele>147.2</ele><time>2026-03-22T08:55:59.998Z</time></trkpt><trkpt lat="44.83438690831668" lon="9.96075098564294"><ele>147.39999999999998</ele><time>2026-03-22T08:56:01.998Z</time></trkpt><trkpt lat="44.834355403338705" lon="9.960600507075673"><ele>147.60000000000002</ele><time>2026-03-22T08:56:03.998Z</time></trkpt><trkpt lat="44.83432180125363" lon="9.960452851875386"><ele>147.8</ele><time>2026-03-22T08:56:05.998Z</time></trkpt><trkpt lat="44.83429050121727" lon="9.960303497819291"><ele>148.0</ele><time>2026-03-22T08:56:07.998Z</time></trkpt><trkpt lat="44.834257438507564" lon="9.960156530959225"><ele>147.8</ele><time>2026-03-22T08:56:09.998Z</time></trkpt><trkpt lat="44.83422482843307" lon="9.960005298090271"><ele>147.60000000000002</ele><time>2026-03-22T08:56:11.998Z</time></trkpt><trkpt lat="44.834189594720435" lon="9.95986571156607"><ele>147.39999999999998</ele><time>2026-03-22T08:56:13.998Z</time></trkpt><trkpt lat="44.83415725866215" lon="9.959719462099331"><ele>147.2</ele><time>2026-03-22T08:56:15.998Z</time></trkpt><trkpt lat="44.83412052288838" lon="9.959576707385613"><ele>147.0</ele><time>2026-03-22T08:56:17.998Z</time></trkpt><trkpt lat="44.83407333787171" lon="9.959440774582536"><ele>147.0</ele><time>2026-03-22T08:56:19.998Z</time></trkpt><trkpt lat="44.83401426349093" lon="9.95931918870294"><ele>147.0</ele><time>2026-03-22T08:56:21.998Z</time></trkpt><trkpt lat="44.833943491419014" lon="9.95920787353027"><ele>147.0</ele><time>2026-03-22T08:56:23.998Z</time></trkpt><trkpt lat="44.83385928454065" lon="9.959108164295769"><ele>147.0</ele><time>2026-03-22T08:56:25.998Z</time></trkpt><trkpt lat="44.8337719320278" lon="9.959012520703977"><ele>147.0</ele><time>2026-03-22T08:56:27.998Z</time></trkpt><trkpt lat="44.83368541611466" lon="9.958912305145338"><ele>147.5</ele><time>2026-03-22T08:56:29.998Z</time></trkpt><trkpt lat="44.83360162543984" lon="9.958811737594802"><ele>148.0</ele><time>2026-03-22T08:56:31.998Z</time></trkpt><trkpt lat="44.833515875957765" lon="9.958705406107054"><ele>148.5</ele><time>2026-03-22T08:56:33.998Z</time></trkpt><trkpt lat="44.8334284594145" lon="9.958602714455502"><ele>149.0</ele><time>2026-03-22T08:56:35.998Z</time></trkpt><trkpt lat="44.833335698994226" lon="9.958502509683818"><ele>149.5</ele><time>2026-03-22T08:56:37.998Z</time></trkpt><trkpt lat="44.83324383381584" lon="9.958396994930796"><ele>150.0</ele><time>2026-03-22T08:56:39.998Z</time></trkpt><trkpt lat="44.83314966721493" lon="9.958297234422965"><ele>150.5</ele><time>2026-03-22T08:56:41.998Z</time></trkpt><trkpt lat="44.833057899535845" lon="9.95819229305665"><ele>151.0</ele><time>2026-03-22T08:56:43.998Z</time></trkpt><trkpt lat="44.832964617557714" lon="9.958088490032843"><ele>151.5</ele><time>2026-03-22T08:56:45.998Z</time></trkpt><trkpt lat="44.83287119296355" lon="9.957988165224306"><ele>152.0</ele><time>2026-03-22T08:56:47.998Z</time></trkpt><trkpt lat="44.83277920998671" lon="9.95788199013914"><ele>152.5</ele><time>2026-03-22T08:56:49.998Z</time></trkpt><trkpt lat="44.83268754391028" lon="9.957783244822663"><ele>153.0</ele><time>2026-03-22T08:56:52Z</time></trkpt><trkpt lat="44.832593772805865" lon="9.957676747977674"><ele>153.0</ele><time>2026-03-22T08:56:54Z</time></trkpt><trkpt lat="44.83250087566066" lon="9.957575705382252"><ele>153.0</ele><time>2026-03-22T08:56:56Z</time></trkpt><trkpt lat="44.83240877969407" lon="9.957474480788491"><ele>153.0</ele><time>2026-03-22T08:56:58Z</time></trkpt><trkpt lat="44.832317756211154" lon="9.957371433693655"><ele>153.0</ele><time>2026-03-22T08:57:00Z</time></trkpt><trkpt lat="44.832223116923004" lon="9.957269948052767"><ele>153.5</ele><time>2026-03-22T08:57:02Z</time></trkpt><trkpt lat="44.83213360773543" lon="9.957170566986404"><ele>154.0</ele><time>2026-03-22T08:57:04Z</time></trkpt><trkpt lat="44.832044336148144" lon="9.957067581478695"><ele>154.5</ele><time>2026-03-22T08:57:06Z</time></trkpt><trkpt lat="44.83195339736272" lon="9.95696736780775"><ele>155.0</ele><time>2026-03-22T08:57:08Z</time></trkpt><trkpt lat="44.83186698310335" lon="9.956860064222807"><ele>155.2</ele><time>2026-03-22T08:57:10Z</time></trkpt><trkpt lat="44.831779187642894" lon="9.956770816212208"><ele>155.4</ele><time>2026-03-22T08:57:11.999Z</time></trkpt><trkpt lat="44.831689647498045" lon="9.956690231584368"><ele>155.6</ele><time>2026-03-22T08:57:13.999Z</time></trkpt><trkpt lat="44.83159680524209" lon="9.956638386998518"><ele>155.8</ele><time>2026-03-22T08:57:15.999Z</time></trkpt><trkpt lat="44.83149280111421" lon="9.95661665634387"><ele>156.0</ele><time>2026-03-22T08:57:17.999Z</time></trkpt><trkpt lat="44.83141659612994" lon="9.956520569518812"><ele>156.0</ele><time>2026-03-22T08:57:19.999Z</time></trkpt><trkpt lat="44.83145311121257" lon="9.95633282629192"><ele>156.0</ele><time>2026-03-22T08:57:21.999Z</time></trkpt><trkpt lat="44.83148444935505" lon="9.956218465659282"><ele>156.0</ele><time>2026-03-22T08:57:23.999Z</time></trkpt><trkpt lat="44.83152527419441" lon="9.956131181508388"><ele>156.0</ele><time>2026-03-22T08:57:25.999Z</time></trkpt><trkpt lat="44.83155243449407" lon="9.956050156319801"><ele>156.0</ele><time>2026-03-22T08:57:27.999Z</time></trkpt><trkpt lat="44.83146868402367" lon="9.955965166473288"><ele>156.0</ele><time>2026-03-22T08:57:36.999Z</time></trkpt><trkpt lat="44.831543856733326" lon="9.956013607732613"><ele>156.0</ele><time>2026-03-22T09:16:33Z</time></trkpt><trkpt lat="44.83158426600264" lon="9.955911681929084"><ele>156.0</ele><time>2026-03-22T09:16:38Z</time></trkpt><trkpt lat="44.831626784965025" lon="9.95582529788711"><ele>156.0</ele><time>2026-03-22T09:16:42.999Z</time></trkpt><trkpt lat="44.8316907423166" lon="9.955745992096881"><ele>156.0</ele><time>2026-03-22T09:16:45.999Z</time></trkpt><trkpt lat="44.83174378183364" lon="9.955678216811817"><ele>156.0</ele><time>2026-03-22T09:16:47.999Z</time></trkpt><trkpt lat="44.83180589618802" lon="9.95560052236668"><ele>155.5</ele><time>2026-03-22T09:16:49.999Z</time></trkpt><trkpt lat="44.83185476058859" lon="9.955527039456252"><ele>155.0</ele><time>2026-03-22T09:16:51.999Z</time></trkpt><trkpt lat="44.83191634581908" lon="9.955500235094329"><ele>154.5</ele><time>2026-03-22T09:17:35.998Z</time></trkpt><trkpt lat="44.831946167705325" lon="9.955380519618322"><ele>154.0</ele><time>2026-03-22T09:17:42.998Z</time></trkpt><trkpt lat="44.832003257146454" lon="9.955280324779485"><ele>153.5</ele><time>2026-03-22T09:17:44.998Z</time></trkpt><trkpt lat="44.83206454152112" lon="9.955172183526617"><ele>153.0</ele><time>2026-03-22T09:17:46.998Z</time></trkpt><trkpt lat="44.83212685011104" lon="9.955041470391274"><ele>153.20000000000002</ele><time>2026-03-22T09:17:49Z</time></trkpt><trkpt lat="44.832197135719" lon="9.954910697057732"><ele>153.4</ele><time>2026-03-22T09:17:51Z</time></trkpt><trkpt lat="44.83226995552197" lon="9.954772722626835"><ele>153.60000000000002</ele><time>2026-03-22T09:17:53Z</time></trkpt><trkpt lat="44.83233751628999" lon="9.954623668973968"><ele>153.8</ele><time>2026-03-22T09:17:55Z</time></trkpt><trkpt lat="44.83236876935893" lon="9.954544726821322"><ele>154.0</ele><time>2026-03-22T09:17:56Z</time></trkpt><trkpt lat="44.83239676163539" lon="9.954462173122309"><ele>154.0</ele><time>2026-03-22T09:17:57Z</time></trkpt><trkpt lat="44.83242299263162" lon="9.954376993019217"><ele>154.0</ele><time>2026-03-22T09:17:58Z</time></trkpt><trkpt lat="44.832448789829044" lon="9.954290259560842"><ele>154.0</ele><time>2026-03-22T09:17:59Z</time></trkpt><trkpt lat="44.83246400276666" lon="9.954203520711694"><ele>154.0</ele><time>2026-03-22T09:18:00Z</time></trkpt><trkpt lat="44.8324948410426" lon="9.954113503125134"><ele>154.0</ele><time>2026-03-22T09:18:01Z</time></trkpt><trkpt lat="44.83251625238301" lon="9.954023339086403"><ele>154.0</ele><time>2026-03-22T09:18:02Z</time></trkpt><trkpt lat="44.83253638904973" lon="9.953936979651003"><ele>154.0</ele><time>2026-03-22T09:18:03Z</time></trkpt><trkpt lat="44.832550220417225" lon="9.953849922074784"><ele>154.75</ele><time>2026-03-22T09:18:04Z</time></trkpt><trkpt lat="44.832574024628165" lon="9.953678275698373"><ele>155.5</ele><time>2026-03-22T09:18:06Z</time></trkpt><trkpt lat="44.83259811982062" lon="9.953508785038496"><ele>156.25</ele><time>2026-03-22T09:18:08Z</time></trkpt><trkpt lat="44.83261502394351" lon="9.95334214192076"><ele>157.0</ele><time>2026-03-22T09:18:10Z</time></trkpt><trkpt lat="44.8326196123881" lon="9.953180668073209"><ele>157.2</ele><time>2026-03-22T09:18:12Z</time></trkpt><trkpt lat="44.8326086913475" lon="9.953021322621849"><ele>157.39999999999998</ele><time>2026-03-22T09:18:14Z</time></trkpt><trkpt lat="44.83259698037955" lon="9.952861506638149"><ele>157.60000000000002</ele><time>2026-03-22T09:18:16Z</time></trkpt><trkpt lat="44.832578449310724" lon="9.952701038545227"><ele>157.8</ele><time>2026-03-22T09:18:18Z</time></trkpt><trkpt lat="44.83254365921021" lon="9.952626122590477"><ele>158.0</ele><time>2026-03-22T09:18:19Z</time></trkpt><trkpt lat="44.832526357198205" lon="9.952459270980201"><ele>158.0</ele><time>2026-03-22T09:18:21Z</time></trkpt><trkpt lat="44.83251399827032" lon="9.952294969371676"><ele>158.0</ele><time>2026-03-22T09:18:23Z</time></trkpt><trkpt lat="44.83250825510762" lon="9.952128877392983"><ele>158.0</ele><time>2026-03-22T09:18:25Z</time></trkpt><trkpt lat="44.83250901860944" lon="9.951965587557593"><ele>158.0</ele><time>2026-03-22T09:18:27Z</time></trkpt><trkpt lat="44.83251315470429" lon="9.951804944300653"><ele>158.0</ele><time>2026-03-22T09:18:29Z</time></trkpt><trkpt lat="44.832519313854505" lon="9.951654421102173"><ele>158.0</ele><time>2026-03-22T09:18:31Z</time></trkpt><trkpt lat="44.83252852620241" lon="9.95150280912466"><ele>158.0</ele><time>2026-03-22T09:18:33Z</time></trkpt><trkpt lat="44.83253814105518" lon="9.95134507616805"><ele>158.0</ele><time>2026-03-22T09:18:35Z</time></trkpt><trkpt lat="44.83254750221121" lon="9.95118828797265"><ele>158.0</ele><time>2026-03-22T09:18:37Z</time></trkpt><trkpt lat="44.832557311752566" lon="9.951023989815797"><ele>158.4</ele><time>2026-03-22T09:18:39Z</time></trkpt><trkpt lat="44.832567088654" lon="9.950860238436276"><ele>158.8</ele><time>2026-03-22T09:18:41Z</time></trkpt><trkpt lat="44.832576622681664" lon="9.950699616890303"><ele>159.2</ele><time>2026-03-22T09:18:43Z</time></trkpt><trkpt lat="44.83258553186937" lon="9.950545307896807"><ele>159.6</ele><time>2026-03-22T09:18:45Z</time></trkpt><trkpt lat="44.83259429625933" lon="9.950393506812949"><ele>160.0</ele><time>2026-03-22T09:18:46.999Z</time></trkpt><trkpt lat="44.83260288944834" lon="9.950244670971665"><ele>160.0</ele><time>2026-03-22T09:18:48.999Z</time></trkpt><trkpt lat="44.832611806370466" lon="9.950090228046554"><ele>160.0</ele><time>2026-03-22T09:18:50.999Z</time></trkpt><trkpt lat="44.832620049138804" lon="9.949930894915381"><ele>160.0</ele><time>2026-03-22T09:18:52.999Z</time></trkpt><trkpt lat="44.8326276174831" lon="9.949781772049818"><ele>160.0</ele><time>2026-03-22T09:18:54.999Z</time></trkpt><trkpt lat="44.83263535179043" lon="9.949629379077873"><ele>160.0</ele><time>2026-03-22T09:18:56.999Z</time></trkpt><trkpt lat="44.8326433597757" lon="9.949471593701452"><ele>159.8</ele><time>2026-03-22T09:18:58.999Z</time></trkpt><trkpt lat="44.83265105505169" lon="9.949319969766027"><ele>159.6</ele><time>2026-03-22T09:19:00.999Z</time></trkpt><trkpt lat="44.83265814855512" lon="9.949180202857976"><ele>159.4</ele><time>2026-03-22T09:19:02.999Z</time></trkpt><trkpt lat="44.832665832320615" lon="9.949028805777408"><ele>159.2</ele><time>2026-03-22T09:19:04.999Z</time></trkpt><trkpt lat="44.832673556417845" lon="9.948876613901076"><ele>159.0</ele><time>2026-03-22T09:19:06.999Z</time></trkpt><trkpt lat="44.83268158403854" lon="9.948718441701798"><ele>159.4</ele><time>2026-03-22T09:19:08.999Z</time></trkpt><trkpt lat="44.832705900262475" lon="9.948555789077755"><ele>159.8</ele><time>2026-03-22T09:19:10.999Z</time></trkpt><trkpt lat="44.83271409392582" lon="9.94838604131542"><ele>160.20000000000002</ele><time>2026-03-22T09:19:12.999Z</time></trkpt><trkpt lat="44.83272751887665" lon="9.94821149793332"><ele>160.60000000000002</ele><time>2026-03-22T09:19:14.999Z</time></trkpt><trkpt lat="44.83272905711045" lon="9.948120572971236"><ele>161.0</ele><time>2026-03-22T09:19:15.999Z</time></trkpt><trkpt lat="44.83273428369351" lon="9.948027601350471"><ele>161.14285714285714</ele><time>2026-03-22T09:19:16.999Z</time></trkpt><trkpt lat="44.83274458481103" lon="9.947932295422834"><ele>161.28571428571428</ele><time>2026-03-22T09:19:17.999Z</time></trkpt><trkpt lat="44.832755077125135" lon="9.947837018137914"><ele>161.42857142857144</ele><time>2026-03-22T09:19:18.999Z</time></trkpt><trkpt lat="44.832765449131266" lon="9.947739094691071"><ele>161.57142857142856</ele><time>2026-03-22T09:19:19.999Z</time></trkpt><trkpt lat="44.83278139640953" lon="9.94764262035823"><ele>161.71428571428572</ele><time>2026-03-22T09:19:20.999Z</time></trkpt><trkpt lat="44.83278555663054" lon="9.94754113028526"><ele>161.85714285714286</ele><time>2026-03-22T09:19:21.999Z</time></trkpt><trkpt lat="44.832821293278755" lon="9.94745241301474"><ele>162.0</ele><time>2026-03-22T09:19:22.999Z</time></trkpt><trkpt lat="44.83284097544035" lon="9.947356347126643"><ele>162.0</ele><time>2026-03-22T09:19:23.999Z</time></trkpt><trkpt lat="44.832834423964115" lon="9.947256443452485"><ele>162.0</ele><time>2026-03-22T09:19:24.999Z</time></trkpt><trkpt lat="44.8328505674017" lon="9.947163005356748"><ele>162.0</ele><time>2026-03-22T09:19:25.999Z</time></trkpt><trkpt lat="44.83286685330015" lon="9.94706874267759"><ele>162.0</ele><time>2026-03-22T09:19:26.999Z</time></trkpt><trkpt lat="44.8328825531738" lon="9.946977871935772"><ele>162.0</ele><time>2026-03-22T09:19:27.999Z</time></trkpt><trkpt lat="44.832897824618684" lon="9.94688468645006"><ele>162.0</ele><time>2026-03-22T09:19:28.999Z</time></trkpt><trkpt lat="44.83291293159121" lon="9.946791459761902"><ele>162.0</ele><time>2026-03-22T09:19:29.999Z</time></trkpt><trkpt lat="44.8329283394563" lon="9.946696376268607"><ele>162.0</ele><time>2026-03-22T09:19:30.999Z</time></trkpt><trkpt lat="44.83294346358088" lon="9.946603043678197"><ele>162.0</ele><time>2026-03-22T09:19:31.999Z</time></trkpt><trkpt lat="44.832958920189235" lon="9.94650765938508"><ele>162.0</ele><time>2026-03-22T09:19:32.999Z</time></trkpt><trkpt lat="44.83297392075148" lon="9.946412982022666"><ele>162.0</ele><time>2026-03-22T09:19:33.999Z</time></trkpt><trkpt lat="44.83298897712207" lon="9.946316772973173"><ele>162.0</ele><time>2026-03-22T09:19:34.999Z</time></trkpt><trkpt lat="44.83300406211975" lon="9.946220380973593"><ele>162.0</ele><time>2026-03-22T09:19:35.999Z</time></trkpt><trkpt lat="44.83301903672946" lon="9.94612469437827"><ele>162.0</ele><time>2026-03-22T09:19:36.999Z</time></trkpt><trkpt lat="44.83303407241216" lon="9.946028617544783"><ele>162.0</ele><time>2026-03-22T09:19:37.999Z</time></trkpt><trkpt lat="44.833049376859826" lon="9.945930823281554"><ele>162.0</ele><time>2026-03-22T09:19:38.999Z</time></trkpt><trkpt lat="44.833064461139706" lon="9.945831461147087"><ele>162.0</ele><time>2026-03-22T09:19:39.998Z</time></trkpt><trkpt lat="44.8330791399943" lon="9.945732706114102"><ele>162.0</ele><time>2026-03-22T09:19:40.998Z</time></trkpt><trkpt lat="44.83309429893428" lon="9.94563072120832"><ele>162.0</ele><time>2026-03-22T09:19:41.998Z</time></trkpt><trkpt lat="44.833109891163396" lon="9.945525821267422"><ele>162.0</ele><time>2026-03-22T09:19:42.998Z</time></trkpt><trkpt lat="44.833123093015864" lon="9.94542389022277"><ele>162.0</ele><time>2026-03-22T09:19:43.998Z</time></trkpt><trkpt lat="44.833131858816806" lon="9.945320609343355"><ele>161.85714285714286</ele><time>2026-03-22T09:19:44.998Z</time></trkpt><trkpt lat="44.833137778432445" lon="9.945217587645551"><ele>161.71428571428572</ele><time>2026-03-22T09:19:45.998Z</time></trkpt><trkpt lat="44.83313387124335" lon="9.945119697760791"><ele>161.57142857142856</ele><time>2026-03-22T09:19:46.998Z</time></trkpt><trkpt lat="44.83315419101709" lon="9.945019329272741"><ele>161.42857142857144</ele><time>2026-03-22T09:19:47.998Z</time></trkpt><trkpt lat="44.833146669753205" lon="9.944922706895174"><ele>161.28571428571428</ele><time>2026-03-22T09:19:48.998Z</time></trkpt><trkpt lat="44.83312887117147" lon="9.944826636068504"><ele>161.14285714285714</ele><time>2026-03-22T09:19:49.998Z</time></trkpt><trkpt lat="44.83311105790517" lon="9.944731420962736"><ele>161.0</ele><time>2026-03-22T09:19:50.998Z</time></trkpt><trkpt lat="44.83306180488525" lon="9.944650646302538"><ele>161.28571428571428</ele><time>2026-03-22T09:19:51.998Z</time></trkpt><trkpt lat="44.8330371688996" lon="9.944558499536333"><ele>161.57142857142856</ele><time>2026-03-22T09:19:52.998Z</time></trkpt><trkpt lat="44.833008433233935" lon="9.944470180497408"><ele>161.85714285714286</ele><time>2026-03-22T09:19:53.998Z</time></trkpt><trkpt lat="44.83297537650032" lon="9.9443794623568"><ele>162.14285714285714</ele><time>2026-03-22T09:19:55Z</time></trkpt><trkpt lat="44.83293935714285" lon="9.944297427877121"><ele>162.42857142857142</ele><time>2026-03-22T09:19:56Z</time></trkpt><trkpt lat="44.832898766058484" lon="9.944214212349095"><ele>162.71428571428572</ele><time>2026-03-22T09:19:57Z</time></trkpt><trkpt lat="44.83285567590872" lon="9.944130583773461"><ele>163.0</ele><time>2026-03-22T09:19:58Z</time></trkpt><trkpt lat="44.83280934249978" lon="9.94405571474589"><ele>163.14285714285714</ele><time>2026-03-22T09:19:59Z</time></trkpt><trkpt lat="44.83277108286302" lon="9.943969574574762"><ele>163.28571428571428</ele><time>2026-03-22T09:20:00Z</time></trkpt><trkpt lat="44.832717186273555" lon="9.943901221626774"><ele>163.42857142857142</ele><time>2026-03-22T09:20:01Z</time></trkpt><trkpt lat="44.83266840324451" lon="9.943829211349545"><ele>163.57142857142856</ele><time>2026-03-22T09:20:02Z</time></trkpt><trkpt lat="44.83261388344198" lon="9.943761350220488"><ele>163.71428571428572</ele><time>2026-03-22T09:20:03Z</time></trkpt><trkpt lat="44.832560095913315" lon="9.943693555237882"><ele>163.85714285714283</ele><time>2026-03-22T09:20:04Z</time></trkpt><trkpt lat="44.832506163976404" lon="9.943624768245561"><ele>164.0</ele><time>2026-03-22T09:20:05Z</time></trkpt><trkpt lat="44.83245178779828" lon="9.943554998852152"><ele>164.14285714285714</ele><time>2026-03-22T09:20:06Z</time></trkpt><trkpt lat="44.8323989595564" lon="9.943483259788467"><ele>164.28571428571428</ele><time>2026-03-22T09:20:07Z</time></trkpt><trkpt lat="44.83234838157933" lon="9.943411313109449"><ele>164.42857142857144</ele><time>2026-03-22T09:20:08Z</time></trkpt><trkpt lat="44.83229852858633" lon="9.943336628500429"><ele>164.57142857142856</ele><time>2026-03-22T09:20:09Z</time></trkpt><trkpt lat="44.832237742054964" lon="9.943279371455642"><ele>164.71428571428572</ele><time>2026-03-22T09:20:10Z</time></trkpt><trkpt lat="44.83218905662479" lon="9.943206646662201"><ele>164.85714285714286</ele><time>2026-03-22T09:20:11Z</time></trkpt><trkpt lat="44.83214105445926" lon="9.943134644141336"><ele>165.0</ele><time>2026-03-22T09:20:12Z</time></trkpt><trkpt lat="44.83209448451999" lon="9.94306326106252"><ele>165.00000000000003</ele><time>2026-03-22T09:20:13Z</time></trkpt><trkpt lat="44.8320481506372" lon="9.94299223983742"><ele>165.0</ele><time>2026-03-22T09:20:14Z</time></trkpt><trkpt lat="44.83200176774644" lon="9.942921143476788"><ele>165.0</ele><time>2026-03-22T09:20:15Z</time></trkpt><trkpt lat="44.83195636810132" lon="9.942851554256151"><ele>165.0</ele><time>2026-03-22T09:20:16Z</time></trkpt><trkpt lat="44.83191076050431" lon="9.94278164628328"><ele>165.0</ele><time>2026-03-22T09:20:17Z</time></trkpt><trkpt lat="44.831865280585816" lon="9.942711934019243"><ele>165.00000000000003</ele><time>2026-03-22T09:20:18Z</time></trkpt><trkpt lat="44.831819471962945" lon="9.942641717913622"><ele>165.0</ele><time>2026-03-22T09:20:19Z</time></trkpt><trkpt lat="44.83177349723037" lon="9.942571265415348"><ele>164.85714285714286</ele><time>2026-03-22T09:20:20Z</time></trkpt><trkpt lat="44.83172782396381" lon="9.942501309667557"><ele>164.71428571428572</ele><time>2026-03-22T09:20:21Z</time></trkpt><trkpt lat="44.83168079242116" lon="9.942429273516604"><ele>164.57142857142856</ele><time>2026-03-22T09:20:22Z</time></trkpt><trkpt lat="44.83163511832136" lon="9.942359316485321"><ele>164.42857142857144</ele><time>2026-03-22T09:20:23Z</time></trkpt><trkpt lat="44.83158989566744" lon="9.942290050926248"><ele>164.28571428571428</ele><time>2026-03-22T09:20:24Z</time></trkpt><trkpt lat="44.83154448171459" lon="9.942220492358766"><ele>164.14285714285714</ele><time>2026-03-22T09:20:25Z</time></trkpt><trkpt lat="44.83149968819919" lon="9.942151884086494"><ele>164.0</ele><time>2026-03-22T09:20:26Z</time></trkpt><trkpt lat="44.83145501181047" lon="9.942083455218873"><ele>163.99999999999997</ele><time>2026-03-22T09:20:27Z</time></trkpt><trkpt lat="44.831410356028435" lon="9.94201546393782"><ele>164.0</ele><time>2026-03-22T09:20:28Z</time></trkpt><trkpt lat="44.831365326179416" lon="9.94194722456155"><ele>164.0</ele><time>2026-03-22T09:20:29Z</time></trkpt><trkpt lat="44.83132092346999" lon="9.941879935568306"><ele>164.0</ele><time>2026-03-22T09:20:30Z</time></trkpt><trkpt lat="44.8312774777421" lon="9.941814096802055"><ele>164.0</ele><time>2026-03-22T09:20:31Z</time></trkpt><trkpt lat="44.83123327918582" lon="9.941747117193087"><ele>163.99999999999997</ele><time>2026-03-22T09:20:32Z</time></trkpt><trkpt lat="44.83118844940903" lon="9.941679181013399"><ele>164.0</ele><time>2026-03-22T09:20:33Z</time></trkpt><trkpt lat="44.83114413937531" lon="9.941612032457932"><ele>163.99999999999997</ele><time>2026-03-22T09:20:34Z</time></trkpt><trkpt lat="44.831098191392115" lon="9.941542401724377"><ele>164.0</ele><time>2026-03-22T09:20:35Z</time></trkpt><trkpt lat="44.83105248934618" lon="9.941473143678726"><ele>164.0</ele><time>2026-03-22T09:20:36Z</time></trkpt><trkpt lat="44.831006916837154" lon="9.941404081938924"><ele>164.0</ele><time>2026-03-22T09:20:37Z</time></trkpt><trkpt lat="44.830961007475636" lon="9.941334509730035"><ele>164.0</ele><time>2026-03-22T09:20:38Z</time></trkpt><trkpt lat="44.830915149344136" lon="9.941265015308593"><ele>163.99999999999997</ele><time>2026-03-22T09:20:39Z</time></trkpt><trkpt lat="44.83086989782002" lon="9.941196440626864"><ele>164.0</ele><time>2026-03-22T09:20:40Z</time></trkpt><trkpt lat="44.83082477585676" lon="9.941128956120629"><ele>164.57142857142856</ele><time>2026-03-22T09:20:41Z</time></trkpt><trkpt lat="44.83077962872404" lon="9.941060936773182"><ele>165.14285714285714</ele><time>2026-03-22T09:20:42Z</time></trkpt><trkpt lat="44.8307349035128" lon="9.94099355314612"><ele>165.71428571428572</ele><time>2026-03-22T09:20:43Z</time></trkpt><trkpt lat="44.830689703575466" lon="9.940925454228564"><ele>166.28571428571428</ele><time>2026-03-22T09:20:44Z</time></trkpt><trkpt lat="44.83064385013517" lon="9.9408563709064"><ele>166.85714285714286</ele><time>2026-03-22T09:20:45Z</time></trkpt><trkpt lat="44.83059870355867" lon="9.94078835257981"><ele>167.42857142857142</ele><time>2026-03-22T09:20:46Z</time></trkpt><trkpt lat="44.830577215423546" lon="9.94068951272307"><ele>168.0</ele><time>2026-03-22T09:20:47Z</time></trkpt><trkpt lat="44.83053233563957" lon="9.940621822305335"><ele>168.0</ele><time>2026-03-22T09:20:48Z</time></trkpt><trkpt lat="44.830488576272515" lon="9.94055399093223"><ele>168.0</ele><time>2026-03-22T09:20:49Z</time></trkpt><trkpt lat="44.83044108105669" lon="9.940485866086084"><ele>168.0</ele><time>2026-03-22T09:20:50Z</time></trkpt><trkpt lat="44.83039651871183" lon="9.94041677137878"><ele>168.0</ele><time>2026-03-22T09:20:50.999Z</time></trkpt><trkpt lat="44.83035117272955" lon="9.940348741653853"><ele>168.0</ele><time>2026-03-22T09:20:51.999Z</time></trkpt><trkpt lat="44.83030526860388" lon="9.940280344674406"><ele>168.0</ele><time>2026-03-22T09:20:52.999Z</time></trkpt><trkpt lat="44.83025674499959" lon="9.94021189547442"><ele>168.0</ele><time>2026-03-22T09:20:53.999Z</time></trkpt><trkpt lat="44.8302105480902" lon="9.940143622031194"><ele>168.0</ele><time>2026-03-22T09:20:54.999Z</time></trkpt><trkpt lat="44.830143746587524" lon="9.94009733225226"><ele>168.0</ele><time>2026-03-22T09:20:55.999Z</time></trkpt><trkpt lat="44.830097149895174" lon="9.940026390067086"><ele>168.0</ele><time>2026-03-22T09:20:56.999Z</time></trkpt><trkpt lat="44.83005115665131" lon="9.93995636661419"><ele>168.0</ele><time>2026-03-22T09:20:57.999Z</time></trkpt><trkpt lat="44.830004229930715" lon="9.939884921973137"><ele>168.0</ele><time>2026-03-22T09:20:58.999Z</time></trkpt><trkpt lat="44.82995838960247" lon="9.939815131335145"><ele>168.0</ele><time>2026-03-22T09:20:59.999Z</time></trkpt><trkpt lat="44.82991204806647" lon="9.939744577623301"><ele>168.0</ele><time>2026-03-22T09:21:00.999Z</time></trkpt><trkpt lat="44.82986557736807" lon="9.939673827266024"><ele>168.0</ele><time>2026-03-22T09:21:01.999Z</time></trkpt><trkpt lat="44.82981888914321" lon="9.93960274572039"><ele>168.0</ele><time>2026-03-22T09:21:02.999Z</time></trkpt><trkpt lat="44.82977166746991" lon="9.939530852013963"><ele>168.0</ele><time>2026-03-22T09:21:03.999Z</time></trkpt><trkpt lat="44.8297253668317" lon="9.939460360569907"><ele>168.0</ele><time>2026-03-22T09:21:04.999Z</time></trkpt><trkpt lat="44.82967863261598" lon="9.939389209019273"><ele>168.0</ele><time>2026-03-22T09:21:05.999Z</time></trkpt><trkpt lat="44.82963213332632" lon="9.939318415124546"><ele>168.0</ele><time>2026-03-22T09:21:06.999Z</time></trkpt><trkpt lat="44.8295864311341" lon="9.939248834795789"><ele>168.0</ele><time>2026-03-22T09:21:07.999Z</time></trkpt><trkpt lat="44.82954142635655" lon="9.93917976597408"><ele>168.14285714285714</ele><time>2026-03-22T09:21:08.999Z</time></trkpt><trkpt lat="44.82949574037279" lon="9.93910949807499"><ele>168.28571428571428</ele><time>2026-03-22T09:21:09.999Z</time></trkpt><trkpt lat="44.82945006985755" lon="9.939039253943273"><ele>168.42857142857144</ele><time>2026-03-22T09:21:10.999Z</time></trkpt><trkpt lat="44.829404648012705" lon="9.938969392288609"><ele>168.57142857142856</ele><time>2026-03-22T09:21:11.999Z</time></trkpt><trkpt lat="44.82935843519032" lon="9.938898314068814"><ele>168.71428571428572</ele><time>2026-03-22T09:21:12.999Z</time></trkpt><trkpt lat="44.82931358008762" lon="9.938829324103523"><ele>168.85714285714286</ele><time>2026-03-22T09:21:13.999Z</time></trkpt><trkpt lat="44.829267803192245" lon="9.938758916357171"><ele>169.0</ele><time>2026-03-22T09:21:14.999Z</time></trkpt><trkpt lat="44.829222349800084" lon="9.938689006188147"><ele>168.85714285714286</ele><time>2026-03-22T09:21:15.999Z</time></trkpt><trkpt lat="44.82917808698361" lon="9.938620927194943"><ele>168.71428571428572</ele><time>2026-03-22T09:21:16.999Z</time></trkpt><trkpt lat="44.829132775229624" lon="9.938551234872357"><ele>168.57142857142856</ele><time>2026-03-22T09:21:17.999Z</time></trkpt><trkpt lat="44.8290869575973" lon="9.938480764474422"><ele>168.42857142857144</ele><time>2026-03-22T09:21:18.999Z</time></trkpt><trkpt lat="44.82904121608074" lon="9.938410411147878"><ele>168.28571428571428</ele><time>2026-03-22T09:21:19.999Z</time></trkpt><trkpt lat="44.82899439146646" lon="9.93833839194691"><ele>168.14285714285714</ele><time>2026-03-22T09:21:20.999Z</time></trkpt><trkpt lat="44.82896455585233" lon="9.938248722832302"><ele>168.0</ele><time>2026-03-22T09:21:21.999Z</time></trkpt><trkpt lat="44.828919103752554" lon="9.938179373455663"><ele>168.0</ele><time>2026-03-22T09:21:22.999Z</time></trkpt><trkpt lat="44.82887105410334" lon="9.938110365009816"><ele>168.0</ele><time>2026-03-22T09:21:23.999Z</time></trkpt><trkpt lat="44.82882685163513" lon="9.938041460386557"><ele>168.0</ele><time>2026-03-22T09:21:24.999Z</time></trkpt><trkpt lat="44.82878155761316" lon="9.93797215055784"><ele>168.0</ele><time>2026-03-22T09:21:25.999Z</time></trkpt><trkpt lat="44.8287359492027" lon="9.93790465138199"><ele>168.0</ele><time>2026-03-22T09:21:26.999Z</time></trkpt><trkpt lat="44.828690180272815" lon="9.937837526235443"><ele>168.0</ele><time>2026-03-22T09:21:27.999Z</time></trkpt><trkpt lat="44.828645581867974" lon="9.937771467934603"><ele>168.0</ele><time>2026-03-22T09:21:28.999Z</time></trkpt><trkpt lat="44.82860208894873" lon="9.937705204666834"><ele>168.0</ele><time>2026-03-22T09:21:29.999Z</time></trkpt><trkpt lat="44.82854590654113" lon="9.937654414719212"><ele>168.0</ele><time>2026-03-22T09:21:30.999Z</time></trkpt><trkpt lat="44.82851461489919" lon="9.937570433056841"><ele>168.0</ele><time>2026-03-22T09:21:31.999Z</time></trkpt><trkpt lat="44.828471430482644" lon="9.937505202180901"><ele>168.0</ele><time>2026-03-22T09:21:32.999Z</time></trkpt><trkpt lat="44.82842694243425" lon="9.937436754128498"><ele>168.0</ele><time>2026-03-22T09:21:33.999Z</time></trkpt><trkpt lat="44.82834160046365" lon="9.9373053152441"><ele>168.0</ele><time>2026-03-22T09:21:35.999Z</time></trkpt><trkpt lat="44.82829679720065" lon="9.937238882172439"><ele>168.0</ele><time>2026-03-22T09:21:36.999Z</time></trkpt><trkpt lat="44.82825152934099" lon="9.93717214531557"><ele>168.0</ele><time>2026-03-22T09:21:37.999Z</time></trkpt><trkpt lat="44.82820717851369" lon="9.937102653835964"><ele>168.0</ele><time>2026-03-22T09:21:38.999Z</time></trkpt><trkpt lat="44.8281640253447" lon="9.937035973681963"><ele>168.0</ele><time>2026-03-22T09:21:39.999Z</time></trkpt><trkpt lat="44.82811971037285" lon="9.936965651758117"><ele>168.0</ele><time>2026-03-22T09:21:40.999Z</time></trkpt><trkpt lat="44.8280603321049" lon="9.936919554547558"><ele>168.0</ele><time>2026-03-22T09:21:41.999Z</time></trkpt><trkpt lat="44.82801536449346" lon="9.936852347502928"><ele>168.0</ele><time>2026-03-22T09:21:42.999Z</time></trkpt><trkpt lat="44.82797078266031" lon="9.936785294551647"><ele>168.0</ele><time>2026-03-22T09:21:43.998Z</time></trkpt><trkpt lat="44.82792581776134" lon="9.93671766544281"><ele>168.0</ele><time>2026-03-22T09:21:44.998Z</time></trkpt><trkpt lat="44.82788177408296" lon="9.936651421892968"><ele>168.0</ele><time>2026-03-22T09:21:45.998Z</time></trkpt><trkpt lat="44.827836741520244" lon="9.936583691018077"><ele>168.0</ele><time>2026-03-22T09:21:46.998Z</time></trkpt><trkpt lat="44.827808184690745" lon="9.936494570259418"><ele>168.0</ele><time>2026-03-22T09:21:47.998Z</time></trkpt><trkpt lat="44.82776459421537" lon="9.936425594726744"><ele>168.0</ele><time>2026-03-22T09:21:48.998Z</time></trkpt><trkpt lat="44.82770237940695" lon="9.93637976402893"><ele>168.0</ele><time>2026-03-22T09:21:49.998Z</time></trkpt><trkpt lat="44.82765717421668" lon="9.936311074898537"><ele>168.42857142857142</ele><time>2026-03-22T09:21:50.998Z</time></trkpt><trkpt lat="44.82761373758105" lon="9.936245073080656"><ele>168.85714285714286</ele><time>2026-03-22T09:21:51.998Z</time></trkpt><trkpt lat="44.82757062690608" lon="9.936179566561556"><ele>169.28571428571428</ele><time>2026-03-22T09:21:52.998Z</time></trkpt><trkpt lat="44.8275268798215" lon="9.936113093019403"><ele>169.71428571428572</ele><time>2026-03-22T09:21:53.998Z</time></trkpt><trkpt lat="44.827483623665906" lon="9.936047365440778"><ele>170.14285714285714</ele><time>2026-03-22T09:21:54.998Z</time></trkpt><trkpt lat="44.82743963554142" lon="9.93598052563925"><ele>170.57142857142856</ele><time>2026-03-22T09:21:55.998Z</time></trkpt><trkpt lat="44.827395266170065" lon="9.935913046717296"><ele>171.0</ele><time>2026-03-22T09:21:56.998Z</time></trkpt><trkpt lat="44.827350998200934" lon="9.935845656121227"><ele>170.99999999999997</ele><time>2026-03-22T09:21:57.998Z</time></trkpt><trkpt lat="44.82730625039759" lon="9.935777535057849"><ele>171.0</ele><time>2026-03-22T09:21:58.998Z</time></trkpt><trkpt lat="44.8272619147039" lon="9.935710041362002"><ele>171.0</ele><time>2026-03-22T09:21:59.998Z</time></trkpt><trkpt lat="44.82721722907065" lon="9.935641711517473"><ele>171.0</ele><time>2026-03-22T09:22:01Z</time></trkpt><trkpt lat="44.8271746337298" lon="9.935575424554019"><ele>171.0</ele><time>2026-03-22T09:22:02Z</time></trkpt><trkpt lat="44.827131551451686" lon="9.935508379816858"><ele>170.99999999999997</ele><time>2026-03-22T09:22:03Z</time></trkpt><trkpt lat="44.827088933770824" lon="9.935442058086709"><ele>171.0</ele><time>2026-03-22T09:22:04Z</time></trkpt><trkpt lat="44.827004726961285" lon="9.935311015263636"><ele>170.99999999999997</ele><time>2026-03-22T09:22:06Z</time></trkpt><trkpt lat="44.826920088629265" lon="9.935179300991807"><ele>171.0</ele><time>2026-03-22T09:22:08Z</time></trkpt><trkpt lat="44.826877276751546" lon="9.935112677167128"><ele>171.0</ele><time>2026-03-22T09:22:09Z</time></trkpt><trkpt lat="44.82683339866479" lon="9.935046140505163"><ele>171.0</ele><time>2026-03-22T09:22:10Z</time></trkpt><trkpt lat="44.826790035291324" lon="9.934979300445065"><ele>171.0</ele><time>2026-03-22T09:22:11Z</time></trkpt><trkpt lat="44.82674561188765" lon="9.934911259276317"><ele>170.99999999999997</ele><time>2026-03-22T09:22:12Z</time></trkpt><trkpt lat="44.826701296947384" lon="9.934843823496651"><ele>171.0</ele><time>2026-03-22T09:22:13Z</time></trkpt><trkpt lat="44.82665723253989" lon="9.934776768962955"><ele>171.66666666666666</ele><time>2026-03-22T09:22:14Z</time></trkpt><trkpt lat="44.82661346132057" lon="9.934710160586498"><ele>172.33333333333334</ele><time>2026-03-22T09:22:15Z</time></trkpt><trkpt lat="44.826569795419296" lon="9.93464371247551"><ele>173.0</ele><time>2026-03-22T09:22:16Z</time></trkpt><trkpt lat="44.8265267501106" lon="9.93457820875004"><ele>173.66666666666669</ele><time>2026-03-22T09:22:17Z</time></trkpt><trkpt lat="44.82644042593499" lon="9.93444780963556"><ele>174.33333333333334</ele><time>2026-03-22T09:22:19Z</time></trkpt><trkpt lat="44.82635570403926" lon="9.934319987141214"><ele>175.0</ele><time>2026-03-22T09:22:21Z</time></trkpt><trkpt lat="44.82627121626816" lon="9.93419251788155"><ele>175.0</ele><time>2026-03-22T09:22:23Z</time></trkpt><trkpt lat="44.82618715428001" lon="9.934065691008291"><ele>175.0</ele><time>2026-03-22T09:22:25Z</time></trkpt><trkpt lat="44.82610254905545" lon="9.933938044540284"><ele>175.0</ele><time>2026-03-22T09:22:27Z</time></trkpt><trkpt lat="44.82601741864216" lon="9.933809605704235"><ele>175.0</ele><time>2026-03-22T09:22:29Z</time></trkpt><trkpt lat="44.825932321880266" lon="9.933681217638158"><ele>175.0</ele><time>2026-03-22T09:22:31Z</time></trkpt><trkpt lat="44.82584815126839" lon="9.933554226881851"><ele>175.0</ele><time>2026-03-22T09:22:33Z</time></trkpt><trkpt lat="44.82576418094648" lon="9.93342753831194"><ele>175.0</ele><time>2026-03-22T09:22:35Z</time></trkpt><trkpt lat="44.82568061766163" lon="9.933301463849876"><ele>175.0</ele><time>2026-03-22T09:22:37Z</time></trkpt><trkpt lat="44.82559628007533" lon="9.933174221175902"><ele>175.25</ele><time>2026-03-22T09:22:39Z</time></trkpt><trkpt lat="44.825510963281914" lon="9.93304550114389"><ele>175.5</ele><time>2026-03-22T09:22:41Z</time></trkpt><trkpt lat="44.82542721383084" lon="9.93291914582087"><ele>175.75</ele><time>2026-03-22T09:22:43Z</time></trkpt><trkpt lat="44.82534380271662" lon="9.932792830031199"><ele>176.0</ele><time>2026-03-22T09:22:45Z</time></trkpt><trkpt lat="44.825261215015885" lon="9.932666966703433"><ele>176.20000000000002</ele><time>2026-03-22T09:22:47Z</time></trkpt><trkpt lat="44.825177175619885" lon="9.932538890995879"><ele>176.4</ele><time>2026-03-22T09:22:49Z</time></trkpt><trkpt lat="44.82509350591374" lon="9.932411378694944"><ele>176.6</ele><time>2026-03-22T09:22:51Z</time></trkpt><trkpt lat="44.82500924271509" lon="9.932279042765458"><ele>176.8</ele><time>2026-03-22T09:22:53Z</time></trkpt><trkpt lat="44.82496744899016" lon="9.932211113832482"><ele>177.0</ele><time>2026-03-22T09:22:54Z</time></trkpt><trkpt lat="44.82489078862526" lon="9.932065874089464"><ele>177.2857142857143</ele><time>2026-03-22T09:22:55.999Z</time></trkpt><trkpt lat="44.824855089860854" lon="9.931984475767983"><ele>177.57142857142856</ele><time>2026-03-22T09:22:56.999Z</time></trkpt><trkpt lat="44.82482442893678" lon="9.931903608873492"><ele>177.85714285714286</ele><time>2026-03-22T09:22:57.999Z</time></trkpt><trkpt lat="44.8247946247184" lon="9.931823659048984"><ele>178.14285714285717</ele><time>2026-03-22T09:22:58.999Z</time></trkpt><trkpt lat="44.82476611986718" lon="9.931741674709224"><ele>178.42857142857144</ele><time>2026-03-22T09:22:59.999Z</time></trkpt><trkpt lat="44.82473809739714" lon="9.931661321619556"><ele>178.71428571428572</ele><time>2026-03-22T09:23:00.999Z</time></trkpt><trkpt lat="44.82471011035345" lon="9.931577778976882"><ele>179.0</ele><time>2026-03-22T09:23:01.999Z</time></trkpt><trkpt lat="44.82468305569446" lon="9.931494969783072"><ele>179.00000000000003</ele><time>2026-03-22T09:23:02.999Z</time></trkpt><trkpt lat="44.82465554623643" lon="9.931410768531013"><ele>179.0</ele><time>2026-03-22T09:23:03.999Z</time></trkpt><trkpt lat="44.82462842766274" lon="9.931327763717343"><ele>179.0</ele><time>2026-03-22T09:23:04.999Z</time></trkpt><trkpt lat="44.824600336186656" lon="9.93124178101657"><ele>179.0</ele><time>2026-03-22T09:23:05.999Z</time></trkpt><trkpt lat="44.824595491593094" lon="9.93113936480292"><ele>179.0</ele><time>2026-03-22T09:23:06.999Z</time></trkpt><trkpt lat="44.824566611453406" lon="9.931051850398667"><ele>179.00000000000003</ele><time>2026-03-22T09:23:07.999Z</time></trkpt><trkpt lat="44.82451378655936" lon="9.930980892934661"><ele>179.0</ele><time>2026-03-22T09:23:08.999Z</time></trkpt><trkpt lat="44.8244839848509" lon="9.930891228392934"><ele>178.85714285714286</ele><time>2026-03-22T09:23:09.999Z</time></trkpt><trkpt lat="44.82445458942817" lon="9.930802786268119"><ele>178.71428571428572</ele><time>2026-03-22T09:23:10.999Z</time></trkpt><trkpt lat="44.82442532710761" lon="9.930714744595466"><ele>178.57142857142856</ele><time>2026-03-22T09:23:11.999Z</time></trkpt><trkpt lat="44.82439580565157" lon="9.930625923270311"><ele>178.42857142857144</ele><time>2026-03-22T09:23:12.999Z</time></trkpt><trkpt lat="44.82436650517475" lon="9.930537766805774"><ele>178.28571428571428</ele><time>2026-03-22T09:23:13.999Z</time></trkpt><trkpt lat="44.824338149512" lon="9.93045245298908"><ele>178.14285714285714</ele><time>2026-03-22T09:23:14.999Z</time></trkpt><trkpt lat="44.82430928709622" lon="9.93036561451176"><ele>178.0</ele><time>2026-03-22T09:23:15.999Z</time></trkpt><trkpt lat="44.82428018580152" lon="9.930277679237504"><ele>178.28571428571428</ele><time>2026-03-22T09:23:16.999Z</time></trkpt><trkpt lat="44.82425126674736" lon="9.93018976733979"><ele>178.57142857142856</ele><time>2026-03-22T09:23:17.999Z</time></trkpt><trkpt lat="44.82422290247356" lon="9.930103541947078"><ele>178.85714285714283</ele><time>2026-03-22T09:23:18.999Z</time></trkpt><trkpt lat="44.82419488949063" lon="9.930018384466921"><ele>179.14285714285714</ele><time>2026-03-22T09:23:19.999Z</time></trkpt><trkpt lat="44.82416701095399" lon="9.929933635674354"><ele>179.42857142857144</ele><time>2026-03-22T09:23:20.999Z</time></trkpt><trkpt lat="44.82413900515337" lon="9.929848500017158"><ele>179.7142857142857</ele><time>2026-03-22T09:23:21.999Z</time></trkpt><trkpt lat="44.824111210422444" lon="9.92976377892262"><ele>180.0</ele><time>2026-03-22T09:23:22.999Z</time></trkpt><trkpt lat="44.82408409771385" lon="9.929680789713082"><ele>180.0</ele><time>2026-03-22T09:23:23.999Z</time></trkpt><trkpt lat="44.824057288351995" lon="9.92959872899819"><ele>180.0</ele><time>2026-03-22T09:23:24.999Z</time></trkpt><trkpt lat="44.82403017115651" lon="9.929515726044325"><ele>180.0</ele><time>2026-03-22T09:23:25.999Z</time></trkpt><trkpt lat="44.82400299643432" lon="9.929432547014772"><ele>180.0</ele><time>2026-03-22T09:23:26.999Z</time></trkpt><trkpt lat="44.823975912215595" lon="9.929349644996394"><ele>180.0</ele><time>2026-03-22T09:23:27.999Z</time></trkpt><trkpt lat="44.82394884242105" lon="9.929266787123819"><ele>180.0</ele><time>2026-03-22T09:23:28.999Z</time></trkpt><trkpt lat="44.82392172440272" lon="9.929183781672634"><ele>180.0</ele><time>2026-03-22T09:23:29.999Z</time></trkpt><trkpt lat="44.82389405926473" lon="9.929099101519762"><ele>180.0</ele><time>2026-03-22T09:23:30.999Z</time></trkpt><trkpt lat="44.82389047407516" lon="9.928996564888278"><ele>180.0</ele><time>2026-03-22T09:23:31.999Z</time></trkpt><trkpt lat="44.823865517464164" lon="9.928912760903335"><ele>180.0</ele><time>2026-03-22T09:23:32.999Z</time></trkpt><trkpt lat="44.82383831489074" lon="9.928826469669318"><ele>180.0</ele><time>2026-03-22T09:23:33.999Z</time></trkpt><trkpt lat="44.823811627732326" lon="9.92874240085975"><ele>180.0</ele><time>2026-03-22T09:23:34.999Z</time></trkpt><trkpt lat="44.82378434341253" lon="9.928658648380555"><ele>180.0</ele><time>2026-03-22T09:23:35.999Z</time></trkpt><trkpt lat="44.82375433770596" lon="9.928572832870374"><ele>180.0</ele><time>2026-03-22T09:23:36.999Z</time></trkpt><trkpt lat="44.82372987785869" lon="9.928485757757706"><ele>180.0</ele><time>2026-03-22T09:23:37.999Z</time></trkpt><trkpt lat="44.82369755292192" lon="9.92840345566846"><ele>180.0</ele><time>2026-03-22T09:23:38.999Z</time></trkpt><trkpt lat="44.823671390802076" lon="9.92831711641022"><ele>180.0</ele><time>2026-03-22T09:23:39.999Z</time></trkpt><trkpt lat="44.82364306001812" lon="9.928232521407601"><ele>180.0</ele><time>2026-03-22T09:23:40.999Z</time></trkpt><trkpt lat="44.82361343152017" lon="9.92815165630425"><ele>180.0</ele><time>2026-03-22T09:23:41.999Z</time></trkpt><trkpt lat="44.823583743255476" lon="9.928069078769205"><ele>180.0</ele><time>2026-03-22T09:23:42.999Z</time></trkpt><trkpt lat="44.82355541589082" lon="9.927987285788525"><ele>180.0</ele><time>2026-03-22T09:23:43.999Z</time></trkpt><trkpt lat="44.82352678811522" lon="9.927904667421501"><ele>180.28571428571428</ele><time>2026-03-22T09:23:44.999Z</time></trkpt><trkpt lat="44.823496606622406" lon="9.927824720025068"><ele>180.57142857142858</ele><time>2026-03-22T09:23:45.999Z</time></trkpt><trkpt lat="44.82346639485982" lon="9.92774515621409"><ele>180.85714285714286</ele><time>2026-03-22T09:23:46.999Z</time></trkpt><trkpt lat="44.823437948315565" lon="9.927664197758897"><ele>181.14285714285714</ele><time>2026-03-22T09:23:47.999Z</time></trkpt><trkpt lat="44.823407309927724" lon="9.927582097308514"><ele>181.42857142857144</ele><time>2026-03-22T09:23:48.998Z</time></trkpt><trkpt lat="44.82337407596291" lon="9.927499438885082"><ele>181.71428571428572</ele><time>2026-03-22T09:23:49.998Z</time></trkpt><trkpt lat="44.823338857732494" lon="9.927417555725613"><ele>182.0</ele><time>2026-03-22T09:23:50.998Z</time></trkpt><trkpt lat="44.82330607081473" lon="9.927334865840606"><ele>182.71428571428572</ele><time>2026-03-22T09:23:51.998Z</time></trkpt><trkpt lat="44.82327295406864" lon="9.927251547387042"><ele>183.42857142857144</ele><time>2026-03-22T09:23:52.998Z</time></trkpt><trkpt lat="44.823238542388545" lon="9.927169313317398"><ele>184.14285714285714</ele><time>2026-03-22T09:23:53.998Z</time></trkpt><trkpt lat="44.82320311332163" lon="9.927087384189473"><ele>184.85714285714286</ele><time>2026-03-22T09:23:54.998Z</time></trkpt><trkpt lat="44.8231677746404" lon="9.927003179113001"><ele>185.57142857142858</ele><time>2026-03-22T09:23:55.998Z</time></trkpt><trkpt lat="44.82313119145267" lon="9.926922068668235"><ele>186.28571428571428</ele><time>2026-03-22T09:23:56.998Z</time></trkpt><trkpt lat="44.82309510033371" lon="9.926839141658402"><ele>187.0</ele><time>2026-03-22T09:23:57.998Z</time></trkpt><trkpt lat="44.82306224481208" lon="9.92675569033182"><ele>187.0</ele><time>2026-03-22T09:23:58.998Z</time></trkpt><trkpt lat="44.82300849572694" lon="9.926684631176206"><ele>187.0</ele><time>2026-03-22T09:23:59.998Z</time></trkpt><trkpt lat="44.82297457741551" lon="9.926599329350315"><ele>187.0</ele><time>2026-03-22T09:24:00.998Z</time></trkpt><trkpt lat="44.82294090368681" lon="9.92651464255854"><ele>187.0</ele><time>2026-03-22T09:24:01.998Z</time></trkpt><trkpt lat="44.82290716314068" lon="9.92643195481926"><ele>187.0</ele><time>2026-03-22T09:24:02.998Z</time></trkpt><trkpt lat="44.82289441433327" lon="9.926330071381294"><ele>187.0</ele><time>2026-03-22T09:24:03.998Z</time></trkpt><trkpt lat="44.822861942996205" lon="9.926246770661365"><ele>187.0</ele><time>2026-03-22T09:24:04.998Z</time></trkpt><trkpt lat="44.82282868892702" lon="9.92616325392256"><ele>187.0</ele><time>2026-03-22T09:24:05.998Z</time></trkpt><trkpt lat="44.82279234525161" lon="9.926081857985189"><ele>187.0</ele><time>2026-03-22T09:24:07Z</time></trkpt><trkpt lat="44.822735862667265" lon="9.926015553953611"><ele>187.0</ele><time>2026-03-22T09:24:08Z</time></trkpt><trkpt lat="44.82269889421372" lon="9.925929299906484"><ele>187.0</ele><time>2026-03-22T09:24:09Z</time></trkpt><trkpt lat="44.822661861596586" lon="9.925841822922568"><ele>187.0</ele><time>2026-03-22T09:24:10Z</time></trkpt><trkpt lat="44.82262425748174" lon="9.925753842330014"><ele>187.0</ele><time>2026-03-22T09:24:11Z</time></trkpt><trkpt lat="44.822587582007415" lon="9.925668034434302"><ele>187.0</ele><time>2026-03-22T09:24:12Z</time></trkpt><trkpt lat="44.822550191153525" lon="9.92558055279958"><ele>186.66666666666669</ele><time>2026-03-22T09:24:13Z</time></trkpt><trkpt lat="44.82251204486507" lon="9.92549130370947"><ele>186.33333333333334</ele><time>2026-03-22T09:24:14Z</time></trkpt><trkpt lat="44.822473103709505" lon="9.925400194773209"><ele>186.0</ele><time>2026-03-22T09:24:15Z</time></trkpt><trkpt lat="44.822434341696905" lon="9.925309591940364"><ele>185.66666666666666</ele><time>2026-03-22T09:24:16Z</time></trkpt><trkpt lat="44.8223947929349" lon="9.925217119484413"><ele>185.33333333333331</ele><time>2026-03-22T09:24:17Z</time></trkpt><trkpt lat="44.82235436157167" lon="9.925122583338805"><ele>185.0</ele><time>2026-03-22T09:24:18Z</time></trkpt><trkpt lat="44.82231448300381" lon="9.925029339729985"><ele>185.0</ele><time>2026-03-22T09:24:19Z</time></trkpt><trkpt lat="44.82227383446623" lon="9.92493429577907"><ele>185.0</ele><time>2026-03-22T09:24:20Z</time></trkpt><trkpt lat="44.82223621581903" lon="9.92483697828628"><ele>185.0</ele><time>2026-03-22T09:24:21Z</time></trkpt><trkpt lat="44.822201766063266" lon="9.924741679032516"><ele>185.0</ele><time>2026-03-22T09:24:22Z</time></trkpt><trkpt lat="44.822170407925285" lon="9.92464382728967"><ele>185.0</ele><time>2026-03-22T09:24:23Z</time></trkpt><trkpt lat="44.822146544299585" lon="9.924541059889247"><ele>185.0</ele><time>2026-03-22T09:24:24Z</time></trkpt><trkpt lat="44.82212471497586" lon="9.924444625333503"><ele>184.99999999999997</ele><time>2026-03-22T09:24:25Z</time></trkpt><trkpt lat="44.82210354031375" lon="9.924344082792528"><ele>185.0</ele><time>2026-03-22T09:24:26Z</time></trkpt><trkpt lat="44.82208559046516" lon="9.924246274255633"><ele>185.0</ele><time>2026-03-22T09:24:27Z</time></trkpt><trkpt lat="44.82206766872374" lon="9.924146368218802"><ele>185.0</ele><time>2026-03-22T09:24:28Z</time></trkpt><trkpt lat="44.82204910999775" lon="9.92404934079888"><ele>185.0</ele><time>2026-03-22T09:24:29Z</time></trkpt><trkpt lat="44.82202866539679" lon="9.923950790893622"><ele>184.99999999999997</ele><time>2026-03-22T09:24:30Z</time></trkpt><trkpt lat="44.82200486952938" lon="9.923858158320211"><ele>185.0</ele><time>2026-03-22T09:24:31Z</time></trkpt><trkpt lat="44.82197935949673" lon="9.92376667002342"><ele>184.66666666666666</ele><time>2026-03-22T09:24:32Z</time></trkpt><trkpt lat="44.821951589664046" lon="9.92367602195631"><ele>184.33333333333331</ele><time>2026-03-22T09:24:33Z</time></trkpt><trkpt lat="44.82192207671421" lon="9.923584952878018"><ele>184.0</ele><time>2026-03-22T09:24:34Z</time></trkpt><trkpt lat="44.82189100308674" lon="9.923495409301019"><ele>183.66666666666666</ele><time>2026-03-22T09:24:35Z</time></trkpt><trkpt lat="44.82185641963515" lon="9.923403493776979"><ele>183.33333333333334</ele><time>2026-03-22T09:24:36Z</time></trkpt><trkpt lat="44.82181697151638" lon="9.923304123370293"><ele>183.0</ele><time>2026-03-22T09:24:37Z</time></trkpt><trkpt lat="44.82177040165113" lon="9.923204304590152"><ele>183.8</ele><time>2026-03-22T09:24:38Z</time></trkpt><trkpt lat="44.821717878231205" lon="9.92310214634408"><ele>184.60000000000002</ele><time>2026-03-22T09:24:39Z</time></trkpt><trkpt lat="44.821662122313725" lon="9.922996010746889"><ele>185.39999999999998</ele><time>2026-03-22T09:24:40Z</time></trkpt><trkpt lat="44.821604987145605" lon="9.922893925149847"><ele>186.2</ele><time>2026-03-22T09:24:41Z</time></trkpt><trkpt lat="44.82155029630872" lon="9.922796456786498"><ele>187.0</ele><time>2026-03-22T09:24:42Z</time></trkpt><trkpt lat="44.82149502146907" lon="9.922695531283452"><ele>187.0</ele><time>2026-03-22T09:24:43Z</time></trkpt><trkpt lat="44.821446387511415" lon="9.922598320024314"><ele>187.0</ele><time>2026-03-22T09:24:44Z</time></trkpt><trkpt lat="44.821402511199274" lon="9.92249897952316"><ele>187.0</ele><time>2026-03-22T09:24:45Z</time></trkpt><trkpt lat="44.82136193939031" lon="9.922400203174103"><ele>187.0</ele><time>2026-03-22T09:24:46Z</time></trkpt><trkpt lat="44.82132638815528" lon="9.922294037641368"><ele>187.0</ele><time>2026-03-22T09:24:47Z</time></trkpt><trkpt lat="44.821290674869374" lon="9.922187637201803"><ele>187.0</ele><time>2026-03-22T09:24:48Z</time></trkpt><trkpt lat="44.821256306565566" lon="9.922082094133046"><ele>186.83333333333334</ele><time>2026-03-22T09:24:49Z</time></trkpt><trkpt lat="44.821223263426056" lon="9.921970102373596"><ele>186.66666666666669</ele><time>2026-03-22T09:24:50Z</time></trkpt><trkpt lat="44.82119267619053" lon="9.921861946134786"><ele>186.5</ele><time>2026-03-22T09:24:51Z</time></trkpt><trkpt lat="44.82116181113353" lon="9.921752807537002"><ele>186.33333333333334</ele><time>2026-03-22T09:24:52Z</time></trkpt><trkpt lat="44.82113113596285" lon="9.921643488684843"><ele>186.16666666666666</ele><time>2026-03-22T09:24:53Z</time></trkpt><trkpt lat="44.82109662617865" lon="9.921533145828997"><ele>186.0</ele><time>2026-03-22T09:24:54Z</time></trkpt><trkpt lat="44.82106186322163" lon="9.921425964431686"><ele>185.5</ele><time>2026-03-22T09:24:55Z</time></trkpt><trkpt lat="44.82102652763358" lon="9.921318101826236"><ele>185.0</ele><time>2026-03-22T09:24:56Z</time></trkpt><trkpt lat="44.820987976569704" lon="9.92121480984913"><ele>184.5</ele><time>2026-03-22T09:24:57Z</time></trkpt><trkpt lat="44.8209471655951" lon="9.921109930809733"><ele>184.0</ele><time>2026-03-22T09:24:57.999Z</time></trkpt><trkpt lat="44.820902770199964" lon="9.921008097671585"><ele>183.5</ele><time>2026-03-22T09:24:58.999Z</time></trkpt><trkpt lat="44.82085380372356" lon="9.920908339873755"><ele>183.0</ele><time>2026-03-22T09:24:59.999Z</time></trkpt><trkpt lat="44.82080065204615" lon="9.92080947144316"><ele>182.66666666666666</ele><time>2026-03-22T09:25:00.999Z</time></trkpt><trkpt lat="44.820744451212384" lon="9.920717103862064"><ele>182.33333333333334</ele><time>2026-03-22T09:25:01.999Z</time></trkpt><trkpt lat="44.820683877073314" lon="9.920625887909543"><ele>182.0</ele><time>2026-03-22T09:25:02.999Z</time></trkpt><trkpt lat="44.820628057500684" lon="9.920530407900538"><ele>181.66666666666669</ele><time>2026-03-22T09:25:03.999Z</time></trkpt><trkpt lat="44.820573515906275" lon="9.920437113895312"><ele>181.33333333333334</ele><time>2026-03-22T09:25:04.999Z</time></trkpt><trkpt lat="44.820520534394475" lon="9.920346488426008"><ele>181.0</ele><time>2026-03-22T09:25:05.999Z</time></trkpt><trkpt lat="44.820470900336346" lon="9.920258429317567"><ele>181.0</ele><time>2026-03-22T09:25:06.999Z</time></trkpt><trkpt lat="44.820423754657" lon="9.920173903853659"><ele>181.0</ele><time>2026-03-22T09:25:07.999Z</time></trkpt><trkpt lat="44.82037782651391" lon="9.920086116170848"><ele>181.0</ele><time>2026-03-22T09:25:08.999Z</time></trkpt><trkpt lat="44.820333260071074" lon="9.919996135604624"><ele>181.0</ele><time>2026-03-22T09:25:09.999Z</time></trkpt><trkpt lat="44.82029195676629" lon="9.919908495458532"><ele>181.0</ele><time>2026-03-22T09:25:10.999Z</time></trkpt><trkpt lat="44.82025114775265" lon="9.91981919650845"><ele>181.0</ele><time>2026-03-22T09:25:11.999Z</time></trkpt><trkpt lat="44.82021304293016" lon="9.919730912367006"><ele>180.66666666666669</ele><time>2026-03-22T09:25:12.999Z</time></trkpt><trkpt lat="44.820174581282075" lon="9.919639284954927"><ele>180.33333333333334</ele><time>2026-03-22T09:25:13.999Z</time></trkpt><trkpt lat="44.82013728843541" lon="9.919546211803242"><ele>180.0</ele><time>2026-03-22T09:25:14.999Z</time></trkpt><trkpt lat="44.820099156070796" lon="9.919448298888446"><ele>179.66666666666666</ele><time>2026-03-22T09:25:15.999Z</time></trkpt><trkpt lat="44.82006323316543" lon="9.919352112428676"><ele>179.33333333333331</ele><time>2026-03-22T09:25:16.999Z</time></trkpt><trkpt lat="44.82002850857067" lon="9.919255879347977"><ele>179.0</ele><time>2026-03-22T09:25:17.999Z</time></trkpt><trkpt lat="44.81999446011915" lon="9.9191615200688"><ele>179.57142857142858</ele><time>2026-03-22T09:25:18.999Z</time></trkpt><trkpt lat="44.81996018263903" lon="9.919066526081934"><ele>180.14285714285714</ele><time>2026-03-22T09:25:19.999Z</time></trkpt><trkpt lat="44.81992582729327" lon="9.918974460955146"><ele>180.71428571428572</ele><time>2026-03-22T09:25:20.999Z</time></trkpt><trkpt lat="44.81988889903965" lon="9.918881588837227"><ele>181.28571428571428</ele><time>2026-03-22T09:25:21.999Z</time></trkpt><trkpt lat="44.8198527678579" lon="9.918790609302048"><ele>181.85714285714286</ele><time>2026-03-22T09:25:22.999Z</time></trkpt><trkpt lat="44.819817585173034" lon="9.918699322524347"><ele>182.42857142857144</ele><time>2026-03-22T09:25:23.999Z</time></trkpt><trkpt lat="44.819784090817066" lon="9.918603636723196"><ele>183.0</ele><time>2026-03-22T09:25:24.999Z</time></trkpt><trkpt lat="44.81976337215636" lon="9.91849043672167"><ele>182.5</ele><time>2026-03-22T09:25:25.999Z</time></trkpt><trkpt lat="44.819767512759" lon="9.918372137656048"><ele>182.0</ele><time>2026-03-22T09:25:26.999Z</time></trkpt><trkpt lat="44.819800212302034" lon="9.918257818766019"><ele>181.5</ele><time>2026-03-22T09:25:27.999Z</time></trkpt><trkpt lat="44.81984679186194" lon="9.918162345681955"><ele>181.0</ele><time>2026-03-22T09:25:28.999Z</time></trkpt><trkpt lat="44.81991636513062" lon="9.918094582370895"><ele>180.5</ele><time>2026-03-22T09:25:29.999Z</time></trkpt><trkpt lat="44.81995419361236" lon="9.918006711121928"><ele>180.0</ele><time>2026-03-22T09:25:30.999Z</time></trkpt><trkpt lat="44.820002380050326" lon="9.917932509255884"><ele>180.0</ele><time>2026-03-22T09:25:31.999Z</time></trkpt><trkpt lat="44.82005124468336" lon="9.917857263126496"><ele>180.0</ele><time>2026-03-22T09:25:32.999Z</time></trkpt><trkpt lat="44.820099685598095" lon="9.917782669422994"><ele>180.0</ele><time>2026-03-22T09:25:33.999Z</time></trkpt><trkpt lat="44.820147412396686" lon="9.917709175398878"><ele>180.0</ele><time>2026-03-22T09:25:34.999Z</time></trkpt><trkpt lat="44.82019494699898" lon="9.917636224197587"><ele>180.0</ele><time>2026-03-22T09:25:35.999Z</time></trkpt><trkpt lat="44.820242237609044" lon="9.917564043243567"><ele>180.0</ele><time>2026-03-22T09:25:36.999Z</time></trkpt><trkpt lat="44.820288172016454" lon="9.917493932317218"><ele>180.0</ele><time>2026-03-22T09:25:37.999Z</time></trkpt><trkpt lat="44.82033499366445" lon="9.917422467160256"><ele>180.5</ele><time>2026-03-22T09:25:38.999Z</time></trkpt><trkpt lat="44.820380705987226" lon="9.917352695185887"><ele>181.0</ele><time>2026-03-22T09:25:39.999Z</time></trkpt><trkpt lat="44.820424931851115" lon="9.917285192053582"><ele>181.5</ele><time>2026-03-22T09:25:40.999Z</time></trkpt><trkpt lat="44.820468811445" lon="9.917218217418215"><ele>182.0</ele><time>2026-03-22T09:25:41.999Z</time></trkpt><trkpt lat="44.820512134289025" lon="9.917152092562123"><ele>182.5</ele><time>2026-03-22T09:25:42.999Z</time></trkpt><trkpt lat="44.82059574891009" lon="9.917024469303934"><ele>183.0</ele><time>2026-03-22T09:25:44.999Z</time></trkpt><trkpt lat="44.82067491635733" lon="9.916901745872327"><ele>183.0</ele><time>2026-03-22T09:25:46.999Z</time></trkpt><trkpt lat="44.820752633863094" lon="9.916779942609239"><ele>183.0</ele><time>2026-03-22T09:25:48.999Z</time></trkpt><trkpt lat="44.82084330779317" lon="9.916667220684682"><ele>183.0</ele><time>2026-03-22T09:25:50.998Z</time></trkpt><trkpt lat="44.820921708992024" lon="9.916542587508014"><ele>183.0</ele><time>2026-03-22T09:25:52.998Z</time></trkpt><trkpt lat="44.82099896608744" lon="9.916424309389814"><ele>183.2</ele><time>2026-03-22T09:25:54.998Z</time></trkpt><trkpt lat="44.82106990041484" lon="9.916309549000887"><ele>183.4</ele><time>2026-03-22T09:25:56.998Z</time></trkpt><trkpt lat="44.82113737050864" lon="9.916194165662045"><ele>183.6</ele><time>2026-03-22T09:25:58.998Z</time></trkpt><trkpt lat="44.82122347598126" lon="9.916091871160674"><ele>183.79999999999998</ele><time>2026-03-22T09:26:00.998Z</time></trkpt><trkpt lat="44.821296559642164" lon="9.915982973622297"><ele>184.0</ele><time>2026-03-22T09:26:02.998Z</time></trkpt><trkpt lat="44.82136352631689" lon="9.915879388545166"><ele>184.33333333333334</ele><time>2026-03-22T09:26:04.998Z</time></trkpt><trkpt lat="44.82142291849821" lon="9.915781951429887"><ele>184.66666666666669</ele><time>2026-03-22T09:26:06.998Z</time></trkpt><trkpt lat="44.82147778099837" lon="9.915691993651507"><ele>185.0</ele><time>2026-03-22T09:26:08.998Z</time></trkpt><trkpt lat="44.82153281474847" lon="9.915604977408448"><ele>185.33333333333334</ele><time>2026-03-22T09:26:10.998Z</time></trkpt><trkpt lat="44.82158577511007" lon="9.915520074596538"><ele>185.66666666666666</ele><time>2026-03-22T09:26:13Z</time></trkpt><trkpt lat="44.82163429270244" lon="9.915439583563368"><ele>186.0</ele><time>2026-03-22T09:26:15Z</time></trkpt><trkpt lat="44.82168441399638" lon="9.915377151072171"><ele>186.0</ele><time>2026-03-22T09:26:17Z</time></trkpt><trkpt lat="44.82173841856139" lon="9.915327185086324"><ele>186.0</ele><time>2026-03-22T09:26:19Z</time></trkpt><trkpt lat="44.82181789890433" lon="9.915271799913302"><ele>186.0</ele><time>2026-03-22T09:26:22Z</time></trkpt><trkpt lat="44.82201060139144" lon="9.915277462395432"><ele>186.0</ele><time>2026-03-22T09:26:29Z</time></trkpt><trkpt lat="44.822095041165696" lon="9.915295025063172"><ele>186.0</ele><time>2026-03-22T09:26:32Z</time></trkpt><trkpt lat="44.822178344401394" lon="9.915276680892578"><ele>186.5</ele><time>2026-03-22T09:26:35Z</time></trkpt><trkpt lat="44.82224053567728" lon="9.91525816345356"><ele>187.0</ele><time>2026-03-22T09:26:37Z</time></trkpt><trkpt lat="44.82232272988518" lon="9.915223526967733"><ele>187.5</ele><time>2026-03-22T09:26:40Z</time></trkpt><trkpt lat="44.82239521585304" lon="9.915185404071579"><ele>188.0</ele><time>2026-03-22T09:26:42Z</time></trkpt><trkpt lat="44.82245867551253" lon="9.915164766400961"><ele>188.5</ele><time>2026-03-22T09:26:44Z</time></trkpt><trkpt lat="44.822540167157335" lon="9.915159228038064"><ele>189.0</ele><time>2026-03-22T09:26:46Z</time></trkpt><trkpt lat="44.82264620256155" lon="9.915164818460912"><ele>191.16666666666666</ele><time>2026-03-22T09:26:48Z</time></trkpt><trkpt lat="44.82274177885606" lon="9.915136935369892"><ele>193.33333333333331</ele><time>2026-03-22T09:26:50Z</time></trkpt><trkpt lat="44.82281813614938" lon="9.915104187609558"><ele>195.5</ele><time>2026-03-22T09:26:52Z</time></trkpt><trkpt lat="44.82287110754801" lon="9.91505047877848"><ele>197.66666666666666</ele><time>2026-03-22T09:26:54Z</time></trkpt><trkpt lat="44.82292676558119" lon="9.914978794480769"><ele>199.83333333333331</ele><time>2026-03-22T09:26:56Z</time></trkpt><trkpt lat="44.822961227056176" lon="9.914886966215933"><ele>202.0</ele><time>2026-03-22T09:26:58Z</time></trkpt><trkpt lat="44.82296680060149" lon="9.914792821084506"><ele>202.0</ele><time>2026-03-22T09:27:00Z</time></trkpt><trkpt lat="44.82290557697135" lon="9.91474030764332"><ele>202.0</ele><time>2026-03-22T09:27:01Z</time></trkpt><trkpt lat="44.822871577582674" lon="9.914645500746394"><ele>202.0</ele><time>2026-03-22T09:27:03Z</time></trkpt><trkpt lat="44.82280420999625" lon="9.91462114604969"><ele>202.0</ele><time>2026-03-22T09:27:04.999Z</time></trkpt><trkpt lat="44.822729326977786" lon="9.914605908989305"><ele>202.0</ele><time>2026-03-22T09:27:06.999Z</time></trkpt><trkpt lat="44.82264877033891" lon="9.914614792867955"><ele>202.0</ele><time>2026-03-22T09:27:08.999Z</time></trkpt><trkpt lat="44.82257897762741" lon="9.914638029910765"><ele>202.0</ele><time>2026-03-22T09:27:10.999Z</time></trkpt><trkpt lat="44.822510432720925" lon="9.914652703286146"><ele>202.0</ele><time>2026-03-22T09:27:12.999Z</time></trkpt><trkpt lat="44.822441874346346" lon="9.914668892127889"><ele>202.0</ele><time>2026-03-22T09:27:14.999Z</time></trkpt><trkpt lat="44.822376073261054" lon="9.914687640226955"><ele>202.0</ele><time>2026-03-22T09:27:16.999Z</time></trkpt><trkpt lat="44.82229392485107" lon="9.91469561760816"><ele>202.0</ele><time>2026-03-22T09:27:19.999Z</time></trkpt><trkpt lat="44.822229182910455" lon="9.914703061421747"><ele>202.0</ele><time>2026-03-22T09:27:21.999Z</time></trkpt><trkpt lat="44.82216204897445" lon="9.914696918580331"><ele>202.0</ele><time>2026-03-22T09:27:23.999Z</time></trkpt><trkpt lat="44.82209618086824" lon="9.914683947538276"><ele>202.0</ele><time>2026-03-22T09:27:25.999Z</time></trkpt><trkpt lat="44.82203811727942" lon="9.914647057383531"><ele>201.99999999999997</ele><time>2026-03-22T09:27:27.999Z</time></trkpt><trkpt lat="44.82198428180554" lon="9.914593570266838"><ele>202.0</ele><time>2026-03-22T09:27:29.999Z</time></trkpt><trkpt lat="44.821934928852464" lon="9.914521777928536"><ele>202.0</ele><time>2026-03-22T09:27:31.999Z</time></trkpt><trkpt lat="44.82187337166623" lon="9.914409868910058"><ele>202.0</ele><time>2026-03-22T09:27:33.999Z</time></trkpt><trkpt lat="44.82183326797804" lon="9.914320548881642"><ele>201.99999999999997</ele><time>2026-03-22T09:27:35.999Z</time></trkpt><trkpt lat="44.82179754490723" lon="9.91422780194223"><ele>202.0</ele><time>2026-03-22T09:27:37.999Z</time></trkpt><trkpt lat="44.821770523864394" lon="9.914126581914967"><ele>202.83333333333331</ele><time>2026-03-22T09:27:39.999Z</time></trkpt><trkpt lat="44.82177038515081" lon="9.914022246154714"><ele>203.66666666666666</ele><time>2026-03-22T09:27:41.999Z</time></trkpt><trkpt lat="44.821776821238615" lon="9.91391557048548"><ele>204.5</ele><time>2026-03-22T09:27:43.999Z</time></trkpt><trkpt lat="44.82178833909203" lon="9.913803120781711"><ele>205.33333333333331</ele><time>2026-03-22T09:27:45.999Z</time></trkpt><trkpt lat="44.821787343738364" lon="9.91369299468924"><ele>206.16666666666666</ele><time>2026-03-22T09:27:47.999Z</time></trkpt><trkpt lat="44.82178018733466" lon="9.913588276730552"><ele>207.0</ele><time>2026-03-22T09:27:49.999Z</time></trkpt><trkpt lat="44.82174847242584" lon="9.913489515933199"><ele>207.83333333333334</ele><time>2026-03-22T09:27:52.999Z</time></trkpt><trkpt lat="44.82171122071538" lon="9.91339342083496"><ele>208.66666666666669</ele><time>2026-03-22T09:27:55.999Z</time></trkpt><trkpt lat="44.82164215849514" lon="9.913238276310015"><ele>209.5</ele><time>2026-03-22T09:27:57.998Z</time></trkpt><trkpt lat="44.82161056821684" lon="9.913152994417093"><ele>210.33333333333334</ele><time>2026-03-22T09:27:59.998Z</time></trkpt><trkpt lat="44.82157969447809" lon="9.913067175319098"><ele>211.16666666666669</ele><time>2026-03-22T09:28:01.998Z</time></trkpt><trkpt lat="44.82154935989344" lon="9.912974507152944"><ele>212.0</ele><time>2026-03-22T09:28:03.998Z</time></trkpt><trkpt lat="44.82153146555216" lon="9.912879753434785"><ele>212.0</ele><time>2026-03-22T09:28:05.998Z</time></trkpt><trkpt lat="44.82153078165348" lon="9.912784569476395"><ele>212.0</ele><time>2026-03-22T09:28:07.998Z</time></trkpt><trkpt lat="44.82156118621368" lon="9.912700912021352"><ele>212.0</ele><time>2026-03-22T09:28:09.998Z</time></trkpt><trkpt lat="44.82161886352914" lon="9.912658198770673"><ele>212.0</ele><time>2026-03-22T09:28:11.998Z</time></trkpt><trkpt lat="44.82168833415271" lon="9.912683114687606"><ele>212.0</ele><time>2026-03-22T09:28:13.998Z</time></trkpt><trkpt lat="44.82174396346353" lon="9.91273677476096"><ele>212.0</ele><time>2026-03-22T09:28:15.998Z</time></trkpt><trkpt lat="44.8217856397204" lon="9.91281757801517"><ele>212.0</ele><time>2026-03-22T09:28:17.998Z</time></trkpt><trkpt lat="44.82184276366518" lon="9.912882305179306"><ele>213.2857142857143</ele><time>2026-03-22T09:28:20Z</time></trkpt><trkpt lat="44.82189839942915" lon="9.912946038803957"><ele>214.57142857142856</ele><time>2026-03-22T09:28:22Z</time></trkpt><trkpt lat="44.82195645500081" lon="9.913010453287471"><ele>215.85714285714286</ele><time>2026-03-22T09:28:24Z</time></trkpt><trkpt lat="44.822014853650174" lon="9.913075223648"><ele>217.14285714285717</ele><time>2026-03-22T09:28:26Z</time></trkpt><trkpt lat="44.82207006652244" lon="9.91314570576449"><ele>218.42857142857144</ele><time>2026-03-22T09:28:28Z</time></trkpt><trkpt lat="44.822124360774396" lon="9.913212948351502"><ele>219.71428571428572</ele><time>2026-03-22T09:28:30Z</time></trkpt><trkpt lat="44.82217921295301" lon="9.913278309480559"><ele>221.0</ele><time>2026-03-22T09:28:32Z</time></trkpt><trkpt lat="44.82222990978545" lon="9.913349811714033"><ele>219.85714285714286</ele><time>2026-03-22T09:28:34Z</time></trkpt><trkpt lat="44.822291790171015" lon="9.913431395868512"><ele>218.71428571428572</ele><time>2026-03-22T09:28:37Z</time></trkpt><trkpt lat="44.822337748921505" lon="9.913496589185108"><ele>217.57142857142856</ele><time>2026-03-22T09:28:39Z</time></trkpt><trkpt lat="44.8223905332459" lon="9.913566488789654"><ele>216.42857142857144</ele><time>2026-03-22T09:28:41Z</time></trkpt><trkpt lat="44.82245517402232" lon="9.91364025765405"><ele>215.28571428571428</ele><time>2026-03-22T09:28:43Z</time></trkpt><trkpt lat="44.82251248729521" lon="9.913692475174189"><ele>214.14285714285714</ele><time>2026-03-22T09:28:45Z</time></trkpt><trkpt lat="44.82257206129982" lon="9.913726834243771"><ele>213.0</ele><time>2026-03-22T09:28:47Z</time></trkpt><trkpt lat="44.822637417174505" lon="9.91375015264012"><ele>213.28571428571428</ele><time>2026-03-22T09:28:49Z</time></trkpt><trkpt lat="44.82270490256828" lon="9.913739812353793"><ele>213.57142857142856</ele><time>2026-03-22T09:28:51Z</time></trkpt><trkpt lat="44.82276711860648" lon="9.913699274465293"><ele>213.85714285714283</ele><time>2026-03-22T09:28:53Z</time></trkpt><trkpt lat="44.82281279968807" lon="9.913628730989155"><ele>214.14285714285714</ele><time>2026-03-22T09:28:55Z</time></trkpt><trkpt lat="44.8228454915829" lon="9.913542810351636"><ele>214.42857142857144</ele><time>2026-03-22T09:28:57Z</time></trkpt><trkpt lat="44.82285040622071" lon="9.913447328999133"><ele>214.7142857142857</ele><time>2026-03-22T09:28:59Z</time></trkpt><trkpt lat="44.82283715226117" lon="9.913351035604881"><ele>215.0</ele><time>2026-03-22T09:29:01Z</time></trkpt><trkpt lat="44.82281989378536" lon="9.91325639233455"><ele>216.66666666666669</ele><time>2026-03-22T09:29:03Z</time></trkpt><trkpt lat="44.822801979317056" lon="9.913166844686502"><ele>218.33333333333334</ele><time>2026-03-22T09:29:05Z</time></trkpt><trkpt lat="44.822783529860104" lon="9.91307342665164"><ele>220.0</ele><time>2026-03-22T09:29:07Z</time></trkpt><trkpt lat="44.822763440426215" lon="9.91295067320936"><ele>221.66666666666669</ele><time>2026-03-22T09:29:09.999Z</time></trkpt><trkpt lat="44.82273799523095" lon="9.912793610904384"><ele>223.33333333333334</ele><time>2026-03-22T09:29:13.999Z</time></trkpt><trkpt lat="44.822746440134644" lon="9.912685991025539"><ele>225.0</ele><time>2026-03-22T09:29:15.999Z</time></trkpt><trkpt lat="44.82273746270433" lon="9.912573736356583"><ele>225.42857142857144</ele><time>2026-03-22T09:29:16.999Z</time></trkpt><trkpt lat="44.82273312254876" lon="9.912473306341434"><ele>225.85714285714286</ele><time>2026-03-22T09:29:18.999Z</time></trkpt><trkpt lat="44.82272185200556" lon="9.91237432451947"><ele>226.28571428571428</ele><time>2026-03-22T09:29:20.999Z</time></trkpt><trkpt lat="44.822701056099746" lon="9.91227886970703"><ele>226.71428571428572</ele><time>2026-03-22T09:29:22.999Z</time></trkpt><trkpt lat="44.82265812410686" lon="9.91220359154953"><ele>227.1428571428571</ele><time>2026-03-22T09:29:24.999Z</time></trkpt><trkpt lat="44.822599085628504" lon="9.912143785777024"><ele>227.57142857142856</ele><time>2026-03-22T09:29:26.999Z</time></trkpt><trkpt lat="44.82253287977556" lon="9.912106576323145"><ele>228.0</ele><time>2026-03-22T09:29:28.999Z</time></trkpt><trkpt lat="44.82246647488864" lon="9.912072764867935"><ele>228.0</ele><time>2026-03-22T09:29:30.999Z</time></trkpt><trkpt lat="44.82240156458698" lon="9.91204324187484"><ele>227.99999999999997</ele><time>2026-03-22T09:29:32.999Z</time></trkpt><trkpt lat="44.82233406606925" lon="9.912023914240208"><ele>228.0</ele><time>2026-03-22T09:29:34.999Z</time></trkpt><trkpt lat="44.82227812123522" lon="9.911972718350658"><ele>228.0</ele><time>2026-03-22T09:29:36.999Z</time></trkpt><trkpt lat="44.82221755985746" lon="9.911939228814601"><ele>227.99999999999997</ele><time>2026-03-22T09:29:38.999Z</time></trkpt><trkpt lat="44.822171923231195" lon="9.911877268458236"><ele>228.0</ele><time>2026-03-22T09:29:40.999Z</time></trkpt><trkpt lat="44.822168706801406" lon="9.911755809610913"><ele>228.0</ele><time>2026-03-22T09:29:43.999Z</time></trkpt><trkpt lat="44.822258240083876" lon="9.911720672787885"><ele>228.0</ele><time>2026-03-22T09:29:46.999Z</time></trkpt><trkpt lat="44.82234707328645" lon="9.911754209397333"><ele>228.0</ele><time>2026-03-22T09:29:49.999Z</time></trkpt><trkpt lat="44.822438287028966" lon="9.911782190635863"><ele>228.0</ele><time>2026-03-22T09:29:52.999Z</time></trkpt><trkpt lat="44.822500555081774" lon="9.911797940557763"><ele>228.0</ele><time>2026-03-22T09:29:54.999Z</time></trkpt><trkpt lat="44.82272908505181" lon="9.911703856686437"><ele>231.28571428571428</ele><time>2026-03-22T09:30:02.998Z</time></trkpt><trkpt lat="44.82278049064785" lon="9.91164111307932"><ele>234.57142857142856</ele><time>2026-03-22T09:30:04.998Z</time></trkpt><trkpt lat="44.82282757459331" lon="9.911580317309859"><ele>237.85714285714283</ele><time>2026-03-22T09:30:06.998Z</time></trkpt><trkpt lat="44.82287266737826" lon="9.911513316978674"><ele>241.1428571428571</ele><time>2026-03-22T09:30:08.998Z</time></trkpt><trkpt lat="44.82292614771398" lon="9.911458733458467"><ele>244.42857142857142</ele><time>2026-03-22T09:30:10.998Z</time></trkpt><trkpt lat="44.82298419722365" lon="9.91142211701011"><ele>247.71428571428567</ele><time>2026-03-22T09:30:12.998Z</time></trkpt><trkpt lat="44.82304763950974" lon="9.9113978603943"><ele>250.99999999999997</ele><time>2026-03-22T09:30:14.998Z</time></trkpt><trkpt lat="44.823112031210876" lon="9.911397893264155"><ele>250.99999999999997</ele><time>2026-03-22T09:30:16.998Z</time></trkpt><trkpt lat="44.82317615311223" lon="9.9114198754331"><ele>251.0</ele><time>2026-03-22T09:30:18.998Z</time></trkpt><trkpt lat="44.82323268977127" lon="9.911460941640836"><ele>250.99999999999997</ele><time>2026-03-22T09:30:20.998Z</time></trkpt><trkpt lat="44.82328585937033" lon="9.911510026661857"><ele>250.99999999999997</ele><time>2026-03-22T09:30:22.998Z</time></trkpt><trkpt lat="44.82333532067221" lon="9.911573126089838"><ele>251.0</ele><time>2026-03-22T09:30:25Z</time></trkpt><trkpt lat="44.823380114070524" lon="9.911636762655272"><ele>250.99999999999997</ele><time>2026-03-22T09:30:27Z</time></trkpt><trkpt lat="44.82343007416398" lon="9.911714856870583"><ele>250.99999999999997</ele><time>2026-03-22T09:30:29Z</time></trkpt><trkpt lat="44.823478004567384" lon="9.911778920146658"><ele>250.85714285714283</ele><time>2026-03-22T09:30:31Z</time></trkpt><trkpt lat="44.823537043434655" lon="9.911867225781117"><ele>250.71428571428572</ele><time>2026-03-22T09:30:34Z</time></trkpt><trkpt lat="44.823583296736324" lon="9.91192935344645"><ele>250.57142857142856</ele><time>2026-03-22T09:30:36Z</time></trkpt><trkpt lat="44.823634782947266" lon="9.911985171013521"><ele>250.42857142857142</ele><time>2026-03-22T09:30:38Z</time></trkpt><trkpt lat="44.823694325748235" lon="9.912038414351802"><ele>250.28571428571428</ele><time>2026-03-22T09:30:40Z</time></trkpt><trkpt lat="44.8237551964744" lon="9.912075718546802"><ele>250.14285714285714</ele><time>2026-03-22T09:30:42Z</time></trkpt><trkpt lat="44.82382546095028" lon="9.912101944307594"><ele>250.0</ele><time>2026-03-22T09:30:44Z</time></trkpt><trkpt lat="44.82389542627415" lon="9.912123536257992"><ele>249.99999999999997</ele><time>2026-03-22T09:30:46Z</time></trkpt><trkpt lat="44.823964974640276" lon="9.912138110142935"><ele>250.0</ele><time>2026-03-22T09:30:48Z</time></trkpt><trkpt lat="44.82403302501979" lon="9.912146992723144"><ele>250.0</ele><time>2026-03-22T09:30:50Z</time></trkpt><trkpt lat="44.82411043044755" lon="9.912153628446866"><ele>250.0</ele><time>2026-03-22T09:30:53Z</time></trkpt><trkpt lat="44.82419573809527" lon="9.912155634354184"><ele>249.99999999999997</ele><time>2026-03-22T09:30:55Z</time></trkpt><trkpt lat="44.82425895252057" lon="9.912160980871217"><ele>250.0</ele><time>2026-03-22T09:30:57Z</time></trkpt><trkpt lat="44.82435083310195" lon="9.912169636907075"><ele>252.0</ele><time>2026-03-22T09:31:00Z</time></trkpt><trkpt lat="44.82444233311672" lon="9.912190756954486"><ele>254.0</ele><time>2026-03-22T09:31:03Z</time></trkpt><trkpt lat="44.824534611712714" lon="9.912208685292175"><ele>256.0</ele><time>2026-03-22T09:31:06Z</time></trkpt><trkpt lat="44.82462560457061" lon="9.912230547368528"><ele>258.0</ele><time>2026-03-22T09:31:09Z</time></trkpt><trkpt lat="44.82471726468195" lon="9.912253343785519"><ele>260.0</ele><time>2026-03-22T09:31:12Z</time></trkpt><trkpt lat="44.8248088017868" lon="9.912262806996338"><ele>260.00000000000006</ele><time>2026-03-22T09:31:14.999Z</time></trkpt><trkpt lat="44.82487669757128" lon="9.912249592412827"><ele>260.0</ele><time>2026-03-22T09:31:16.999Z</time></trkpt><trkpt lat="44.824939457147266" lon="9.91220803980551"><ele>260.0</ele><time>2026-03-22T09:31:18.999Z</time></trkpt><trkpt lat="44.824983782527504" lon="9.912132317285515"><ele>260.0</ele><time>2026-03-22T09:31:20.999Z</time></trkpt><trkpt lat="44.825003544458106" lon="9.912035056822768"><ele>260.0</ele><time>2026-03-22T09:31:22.999Z</time></trkpt><trkpt lat="44.825003580653" lon="9.911938153003625"><ele>260.00000000000006</ele><time>2026-03-22T09:31:24.999Z</time></trkpt><trkpt lat="44.82495836039889" lon="9.911851662045637"><ele>260.0</ele><time>2026-03-22T09:31:26.999Z</time></trkpt><trkpt lat="44.82490752103794" lon="9.911798854677363"><ele>260.00000000000006</ele><time>2026-03-22T09:31:28.999Z</time></trkpt><trkpt lat="44.82484791478458" lon="9.911749197635828"><ele>260.0</ele><time>2026-03-22T09:31:30.999Z</time></trkpt><trkpt lat="44.824789125883015" lon="9.911694468766767"><ele>260.0</ele><time>2026-03-22T09:31:32.999Z</time></trkpt><trkpt lat="44.82472777016944" lon="9.911644195034885"><ele>260.0</ele><time>2026-03-22T09:31:34.999Z</time></trkpt><trkpt lat="44.82467013220859" lon="9.911593195844855"><ele>260.0</ele><time>2026-03-22T09:31:36.999Z</time></trkpt><trkpt lat="44.824603166574335" lon="9.911529436133115"><ele>260.00000000000006</ele><time>2026-03-22T09:31:38.999Z</time></trkpt><trkpt lat="44.82454163097424" lon="9.911470750607277"><ele>260.0</ele><time>2026-03-22T09:31:40.999Z</time></trkpt><trkpt lat="44.82445384027005" lon="9.911388298625152"><ele>260.33333333333337</ele><time>2026-03-22T09:31:43.999Z</time></trkpt><trkpt lat="44.82438862644979" lon="9.911331242937532"><ele>260.6666666666667</ele><time>2026-03-22T09:31:45.999Z</time></trkpt><trkpt lat="44.824325803432586" lon="9.91127732117068"><ele>261.0</ele><time>2026-03-22T09:31:47.999Z</time></trkpt><trkpt lat="44.824261903315595" lon="9.911221002042113"><ele>261.3333333333333</ele><time>2026-03-22T09:31:49.999Z</time></trkpt><trkpt lat="44.82419482931287" lon="9.911155607128094"><ele>261.66666666666663</ele><time>2026-03-22T09:31:51.999Z</time></trkpt><trkpt lat="44.82412583181819" lon="9.911089240095254"><ele>262.0</ele><time>2026-03-22T09:31:53.999Z</time></trkpt><trkpt lat="44.824064264330765" lon="9.911017386856566"><ele>262.0</ele><time>2026-03-22T09:31:55.999Z</time></trkpt><trkpt lat="44.82399756143411" lon="9.91093805359134"><ele>262.0</ele><time>2026-03-22T09:31:57.999Z</time></trkpt><trkpt lat="44.82393408783935" lon="9.910855676769657"><ele>262.0</ele><time>2026-03-22T09:31:59.999Z</time></trkpt><trkpt lat="44.823867757697485" lon="9.910773104568818"><ele>262.0</ele><time>2026-03-22T09:32:01.999Z</time></trkpt><trkpt lat="44.82379972600409" lon="9.910692349224409"><ele>262.0</ele><time>2026-03-22T09:32:03.999Z</time></trkpt><trkpt lat="44.823729509485865" lon="9.91061037323984"><ele>262.0</ele><time>2026-03-22T09:32:05.999Z</time></trkpt><trkpt lat="44.82366132451582" lon="9.91052374481865"><ele>262.4</ele><time>2026-03-22T09:32:07.998Z</time></trkpt><trkpt lat="44.82359287474345" lon="9.910435488696125"><ele>262.79999999999995</ele><time>2026-03-22T09:32:09.998Z</time></trkpt><trkpt lat="44.823523516100465" lon="9.91035151553167"><ele>263.2</ele><time>2026-03-22T09:32:11.998Z</time></trkpt><trkpt lat="44.82345346438146" lon="9.910267321845652"><ele>263.59999999999997</ele><time>2026-03-22T09:32:13.998Z</time></trkpt><trkpt lat="44.82338366309514" lon="9.910180481718337"><ele>264.0</ele><time>2026-03-22T09:32:15.998Z</time></trkpt><trkpt lat="44.82330408955397" lon="9.910096961147572"><ele>265.2</ele><time>2026-03-22T09:32:17.998Z</time></trkpt><trkpt lat="44.823240908453364" lon="9.91000047560986"><ele>266.4</ele><time>2026-03-22T09:32:19.998Z</time></trkpt><trkpt lat="44.823173874987276" lon="9.909903697847598"><ele>267.6</ele><time>2026-03-22T09:32:21.998Z</time></trkpt><trkpt lat="44.823093249048185" lon="9.909832739759167"><ele>268.8</ele><time>2026-03-22T09:32:23.998Z</time></trkpt><trkpt lat="44.82302777045413" lon="9.90973791824043"><ele>270.0</ele><time>2026-03-22T09:32:25.998Z</time></trkpt><trkpt lat="44.82296330652862" lon="9.909644566117183"><ele>270.0</ele><time>2026-03-22T09:32:27.998Z</time></trkpt><trkpt lat="44.82290121421914" lon="9.909549894118477"><ele>270.0</ele><time>2026-03-22T09:32:30Z</time></trkpt><trkpt lat="44.82284043338508" lon="9.909456037402403"><ele>270.0</ele><time>2026-03-22T09:32:32Z</time></trkpt><trkpt lat="44.822781127510424" lon="9.909362917222461"><ele>270.0</ele><time>2026-03-22T09:32:34Z</time></trkpt><trkpt lat="44.822722461071194" lon="9.909269740798031"><ele>270.0</ele><time>2026-03-22T09:32:36Z</time></trkpt><trkpt lat="44.82266741889817" lon="9.909178511025"><ele>270.0</ele><time>2026-03-22T09:32:38Z</time></trkpt><trkpt lat="44.82261408178328" lon="9.909090107289776"><ele>270.0</ele><time>2026-03-22T09:32:40Z</time></trkpt><trkpt lat="44.82256217397884" lon="9.909004072594538"><ele>270.0</ele><time>2026-03-22T09:32:42Z</time></trkpt><trkpt lat="44.82250801985076" lon="9.908918000323705"><ele>270.0</ele><time>2026-03-22T09:32:44Z</time></trkpt><trkpt lat="44.82245308476286" lon="9.90883216312396"><ele>270.0</ele><time>2026-03-22T09:32:46Z</time></trkpt><trkpt lat="44.822396497910404" lon="9.90875111407944"><ele>270.0</ele><time>2026-03-22T09:32:48Z</time></trkpt><trkpt lat="44.82233743668204" lon="9.908674493678271"><ele>270.0</ele><time>2026-03-22T09:32:50Z</time></trkpt><trkpt lat="44.82227793573298" lon="9.908602188280067"><ele>270.0</ele><time>2026-03-22T09:32:52Z</time></trkpt><trkpt lat="44.8222222828997" lon="9.908534559111605"><ele>270.0</ele><time>2026-03-22T09:32:54Z</time></trkpt><trkpt lat="44.82216458260312" lon="9.908462368820329"><ele>270.0</ele><time>2026-03-22T09:32:56Z</time></trkpt><trkpt lat="44.82211031620744" lon="9.908388056159191"><ele>270.0</ele><time>2026-03-22T09:32:58Z</time></trkpt><trkpt lat="44.82206312506115" lon="9.908299671490033"><ele>270.0</ele><time>2026-03-22T09:33:00Z</time></trkpt><trkpt lat="44.82208539244626" lon="9.908216477202275"><ele>270.0</ele><time>2026-03-22T09:33:01Z</time></trkpt><trkpt lat="44.822088819771295" lon="9.908111305041663"><ele>270.0</ele><time>2026-03-22T09:33:03Z</time></trkpt><trkpt lat="44.822114626023875" lon="9.908007350267443"><ele>272.0</ele><time>2026-03-22T09:33:05Z</time></trkpt><trkpt lat="44.82215089735368" lon="9.90790946669298"><ele>274.0</ele><time>2026-03-22T09:33:07Z</time></trkpt><trkpt lat="44.822192879928195" lon="9.907811161390539"><ele>276.0</ele><time>2026-03-22T09:33:09Z</time></trkpt><trkpt lat="44.82223990149451" lon="9.90771376202389"><ele>278.0</ele><time>2026-03-22T09:33:11Z</time></trkpt><trkpt lat="44.82229393411685" lon="9.90763255146597"><ele>280.0</ele><time>2026-03-22T09:33:13Z</time></trkpt><trkpt lat="44.822358138699975" lon="9.907569839142855"><ele>282.0</ele><time>2026-03-22T09:33:15Z</time></trkpt><trkpt lat="44.8224250246505" lon="9.907530094007667"><ele>282.0</ele><time>2026-03-22T09:33:16.999Z</time></trkpt><trkpt lat="44.82249579842058" lon="9.907495870781464"><ele>282.0</ele><time>2026-03-22T09:33:18.999Z</time></trkpt><trkpt lat="44.82256634028526" lon="9.907457421596916"><ele>282.0</ele><time>2026-03-22T09:33:20.999Z</time></trkpt><trkpt lat="44.82264449793897" lon="9.907421788409621"><ele>282.0</ele><time>2026-03-22T09:33:22.999Z</time></trkpt><trkpt lat="44.82270795466708" lon="9.907378297769545"><ele>282.0</ele><time>2026-03-22T09:33:24.999Z</time></trkpt><trkpt lat="44.82278464359749" lon="9.907324488601182"><ele>282.0</ele><time>2026-03-22T09:33:26.999Z</time></trkpt><trkpt lat="44.82285404030006" lon="9.907257407816846"><ele>283.3333333333333</ele><time>2026-03-22T09:33:28.999Z</time></trkpt><trkpt lat="44.822922970118086" lon="9.907192946332474"><ele>284.6666666666667</ele><time>2026-03-22T09:33:30.999Z</time></trkpt><trkpt lat="44.822995823018076" lon="9.907130463011129"><ele>286.0</ele><time>2026-03-22T09:33:32.999Z</time></trkpt><trkpt lat="44.823067686923295" lon="9.907071155226255"><ele>287.33333333333337</ele><time>2026-03-22T09:33:34.999Z</time></trkpt><trkpt lat="44.82314494897528" lon="9.907021518961143"><ele>288.6666666666667</ele><time>2026-03-22T09:33:36.999Z</time></trkpt><trkpt lat="44.82322292885185" lon="9.906981695274492"><ele>290.0</ele><time>2026-03-22T09:33:38.999Z</time></trkpt><trkpt lat="44.82330080552059" lon="9.906946326390868"><ele>290.0</ele><time>2026-03-22T09:33:40.999Z</time></trkpt><trkpt lat="44.823378013391306" lon="9.906917510195463"><ele>290.0</ele><time>2026-03-22T09:33:42.999Z</time></trkpt><trkpt lat="44.82345392609678" lon="9.90688225159323"><ele>290.0</ele><time>2026-03-22T09:33:44.999Z</time></trkpt><trkpt lat="44.82352924792409" lon="9.90684252693987"><ele>290.0</ele><time>2026-03-22T09:33:46.999Z</time></trkpt><trkpt lat="44.82360072608142" lon="9.906792015381178"><ele>290.0</ele><time>2026-03-22T09:33:48.999Z</time></trkpt><trkpt lat="44.823674646953975" lon="9.906741772450086"><ele>290.0</ele><time>2026-03-22T09:33:50.999Z</time></trkpt><trkpt lat="44.82374855207695" lon="9.906683630412566"><ele>290.2</ele><time>2026-03-22T09:33:52.999Z</time></trkpt><trkpt lat="44.82381312370741" lon="9.906623925489075"><ele>290.4</ele><time>2026-03-22T09:33:55.999Z</time></trkpt><trkpt lat="44.82392346479413" lon="9.906527531987267"><ele>290.6</ele><time>2026-03-22T09:33:57.999Z</time></trkpt><trkpt lat="44.82399475961687" lon="9.90646677620324"><ele>290.8</ele><time>2026-03-22T09:33:59.999Z</time></trkpt><trkpt lat="44.824062373653895" lon="9.906402148549805"><ele>291.0</ele><time>2026-03-22T09:34:01.999Z</time></trkpt><trkpt lat="44.824127249247795" lon="9.906339519521346"><ele>291.0</ele><time>2026-03-22T09:34:03.999Z</time></trkpt><trkpt lat="44.824191381330174" lon="9.90627840048505"><ele>291.0</ele><time>2026-03-22T09:34:05.999Z</time></trkpt><trkpt lat="44.824254786472885" lon="9.906212006531344"><ele>291.0</ele><time>2026-03-22T09:34:07.999Z</time></trkpt><trkpt lat="44.82431726218309" lon="9.906146388704563"><ele>291.0</ele><time>2026-03-22T09:34:09.998Z</time></trkpt><trkpt lat="44.82437613698318" lon="9.906077086479478"><ele>291.0</ele><time>2026-03-22T09:34:11.998Z</time></trkpt><trkpt lat="44.82443414904637" lon="9.906005464696277"><ele>291.0</ele><time>2026-03-22T09:34:13.998Z</time></trkpt><trkpt lat="44.82448690221473" lon="9.905947989227021"><ele>292.6666666666667</ele><time>2026-03-22T09:34:15.998Z</time></trkpt><trkpt lat="44.824537294135" lon="9.90587326569378"><ele>294.3333333333333</ele><time>2026-03-22T09:34:17.998Z</time></trkpt><trkpt lat="44.8245877613496" lon="9.905800292830492"><ele>296.0</ele><time>2026-03-22T09:34:19.998Z</time></trkpt><trkpt lat="44.82463873004803" lon="9.905726776639147"><ele>297.66666666666663</ele><time>2026-03-22T09:34:21.998Z</time></trkpt><trkpt lat="44.82468795100056" lon="9.905644431499466"><ele>299.3333333333333</ele><time>2026-03-22T09:34:23.998Z</time></trkpt><trkpt lat="44.82474734543496" lon="9.905567161103916"><ele>301.0</ele><time>2026-03-22T09:34:25.998Z</time></trkpt><trkpt lat="44.82480458970334" lon="9.905490265446344"><ele>301.0</ele><time>2026-03-22T09:34:27.998Z</time></trkpt><trkpt lat="44.82485290395967" lon="9.905426306538129"><ele>301.0</ele><time>2026-03-22T09:34:29.998Z</time></trkpt><trkpt lat="44.82490033224697" lon="9.905355903133369"><ele>301.0</ele><time>2026-03-22T09:34:31.998Z</time></trkpt><trkpt lat="44.82494375310077" lon="9.905284989559924"><ele>301.0</ele><time>2026-03-22T09:34:33.998Z</time></trkpt><trkpt lat="44.82498563695091" lon="9.905187580111583"><ele>301.0</ele><time>2026-03-22T09:34:36Z</time></trkpt><trkpt lat="44.82501059495026" lon="9.905086009299193"><ele>301.0</ele><time>2026-03-22T09:34:38Z</time></trkpt><trkpt lat="44.82496966131733" lon="9.904983044851273"><ele>301.0</ele><time>2026-03-22T09:34:40Z</time></trkpt><trkpt lat="44.8249065037513" lon="9.904900080643701"><ele>300.8</ele><time>2026-03-22T09:34:42Z</time></trkpt><trkpt lat="44.82483211091258" lon="9.904818122806047"><ele>300.6</ele><time>2026-03-22T09:34:44Z</time></trkpt><trkpt lat="44.824754695915495" lon="9.904742504260216"><ele>300.4</ele><time>2026-03-22T09:34:46Z</time></trkpt><trkpt lat="44.82464134381597" lon="9.904706829698702"><ele>300.2</ele><time>2026-03-22T09:34:48Z</time></trkpt><trkpt lat="44.82453704327125" lon="9.904745207394933"><ele>300.0</ele><time>2026-03-22T09:34:50Z</time></trkpt><trkpt lat="44.824430886053555" lon="9.904776717586381"><ele>300.0</ele><time>2026-03-22T09:34:52Z</time></trkpt><trkpt lat="44.824338248987466" lon="9.904844616171793"><ele>300.0</ele><time>2026-03-22T09:34:54Z</time></trkpt><trkpt lat="44.82424250568924" lon="9.904917172116322"><ele>300.0</ele><time>2026-03-22T09:34:56Z</time></trkpt><trkpt lat="44.82415198596309" lon="9.904983854714667"><ele>300.0</ele><time>2026-03-22T09:34:57.999Z</time></trkpt><trkpt lat="44.82406418840684" lon="9.905064669093035"><ele>300.0</ele><time>2026-03-22T09:34:59.999Z</time></trkpt><trkpt lat="44.823966128177744" lon="9.905112177072896"><ele>298.0</ele><time>2026-03-22T09:35:01.999Z</time></trkpt><trkpt lat="44.82386449187123" lon="9.905148617517103"><ele>296.0</ele><time>2026-03-22T09:35:03.999Z</time></trkpt><trkpt lat="44.82376036665917" lon="9.9051832397898"><ele>294.0</ele><time>2026-03-22T09:35:05.999Z</time></trkpt><trkpt lat="44.82365656879467" lon="9.905211158788045"><ele>292.0</ele><time>2026-03-22T09:35:07.999Z</time></trkpt><trkpt lat="44.82355390814289" lon="9.905241869238639"><ele>290.0</ele><time>2026-03-22T09:35:09.999Z</time></trkpt><trkpt lat="44.82345659705633" lon="9.905268055567715"><ele>289.4</ele><time>2026-03-22T09:35:11.999Z</time></trkpt><trkpt lat="44.82335360418002" lon="9.905295434641065"><ele>288.8</ele><time>2026-03-22T09:35:13.999Z</time></trkpt><trkpt lat="44.823256807712504" lon="9.905326079307565"><ele>288.2</ele><time>2026-03-22T09:35:15.999Z</time></trkpt><trkpt lat="44.82316046119828" lon="9.905358524788381"><ele>287.6</ele><time>2026-03-22T09:35:17.999Z</time></trkpt><trkpt lat="44.82306155231784" lon="9.90538028594029"><ele>287.0</ele><time>2026-03-22T09:35:19.999Z</time></trkpt><trkpt lat="44.8229220282943" lon="9.905419882720237"><ele>287.0</ele><time>2026-03-22T09:35:22.998Z</time></trkpt><trkpt lat="44.822821979364114" lon="9.905436654344209"><ele>287.0</ele><time>2026-03-22T09:35:24.998Z</time></trkpt><trkpt lat="44.82272247745848" lon="9.905439690315832"><ele>287.0</ele><time>2026-03-22T09:35:26.998Z</time></trkpt><trkpt lat="44.822622705048595" lon="9.905442314792944"><ele>287.0</ele><time>2026-03-22T09:35:28.998Z</time></trkpt><trkpt lat="44.82252478793781" lon="9.905436010209575"><ele>287.0</ele><time>2026-03-22T09:35:30.998Z</time></trkpt><trkpt lat="44.8224307015877" lon="9.905412550640982"><ele>287.4</ele><time>2026-03-22T09:35:32.998Z</time></trkpt><trkpt lat="44.82233680214894" lon="9.905381841247577"><ele>287.79999999999995</ele><time>2026-03-22T09:35:34.998Z</time></trkpt><trkpt lat="44.82224668560462" lon="9.905348332108408"><ele>288.2</ele><time>2026-03-22T09:35:36.998Z</time></trkpt><trkpt lat="44.82214785554174" lon="9.905319572522956"><ele>288.59999999999997</ele><time>2026-03-22T09:35:38.998Z</time></trkpt><trkpt lat="44.82203660075489" lon="9.90530708245122"><ele>289.0</ele><time>2026-03-22T09:35:40.998Z</time></trkpt><trkpt lat="44.821934122297975" lon="9.905312132680796"><ele>289.0</ele><time>2026-03-22T09:35:42.998Z</time></trkpt><trkpt lat="44.821840559272275" lon="9.905341855587643"><ele>289.0</ele><time>2026-03-22T09:35:44.998Z</time></trkpt><trkpt lat="44.821748403833936" lon="9.905382117857117"><ele>289.0</ele><time>2026-03-22T09:35:46.998Z</time></trkpt><trkpt lat="44.821657112442374" lon="9.905436467037402"><ele>289.0</ele><time>2026-03-22T09:35:48.998Z</time></trkpt><trkpt lat="44.82157943283192" lon="9.905515184529808"><ele>289.0</ele><time>2026-03-22T09:35:50.998Z</time></trkpt><trkpt lat="44.82150603074221" lon="9.905605641274715"><ele>290.5</ele><time>2026-03-22T09:35:52.998Z</time></trkpt><trkpt lat="44.82142587424883" lon="9.905679527170907"><ele>292.0</ele><time>2026-03-22T09:35:54.998Z</time></trkpt><trkpt lat="44.82135109246468" lon="9.905764082766602"><ele>293.5</ele><time>2026-03-22T09:35:56.998Z</time></trkpt><trkpt lat="44.82127367351482" lon="9.90582049183284"><ele>295.0</ele><time>2026-03-22T09:35:58.998Z</time></trkpt><trkpt lat="44.8211948135374" lon="9.905868392824061"><ele>296.5</ele><time>2026-03-22T09:36:00.998Z</time></trkpt><trkpt lat="44.82111588909251" lon="9.905897503038606"><ele>298.0</ele><time>2026-03-22T09:36:02.998Z</time></trkpt><trkpt lat="44.82103024614632" lon="9.90589588131208"><ele>297.8333333333333</ele><time>2026-03-22T09:36:04.998Z</time></trkpt><trkpt lat="44.82094736868919" lon="9.905857280846366"><ele>297.66666666666663</ele><time>2026-03-22T09:36:06.997Z</time></trkpt><trkpt lat="44.820872919016686" lon="9.905791392220182"><ele>297.5</ele><time>2026-03-22T09:36:08.997Z</time></trkpt><trkpt lat="44.82080046020233" lon="9.905721884797895"><ele>297.3333333333333</ele><time>2026-03-22T09:36:10.997Z</time></trkpt><trkpt lat="44.82072954326499" lon="9.905647403376616"><ele>297.1666666666667</ele><time>2026-03-22T09:36:12.997Z</time></trkpt><trkpt lat="44.82065845030108" lon="9.905581147841495"><ele>297.0</ele><time>2026-03-22T09:36:14.997Z</time></trkpt><trkpt lat="44.82058080501465" lon="9.905514375402781"><ele>297.0</ele><time>2026-03-22T09:36:16.997Z</time></trkpt><trkpt lat="44.82050260046025" lon="9.905443160648339"><ele>297.0</ele><time>2026-03-22T09:36:18.997Z</time></trkpt><trkpt lat="44.82041945064839" lon="9.905378730297574"><ele>297.0</ele><time>2026-03-22T09:36:20.997Z</time></trkpt><trkpt lat="44.82033589417443" lon="9.90528472336199"><ele>297.0</ele><time>2026-03-22T09:36:22.997Z</time></trkpt><trkpt lat="44.82025178019221" lon="9.905170408429084"><ele>297.0</ele><time>2026-03-22T09:36:24.997Z</time></trkpt><trkpt lat="44.820175635094216" lon="9.905044746185364"><ele>297.8333333333333</ele><time>2026-03-22T09:36:26.997Z</time></trkpt><trkpt lat="44.82009851036662" lon="9.904911646900828"><ele>298.6666666666667</ele><time>2026-03-22T09:36:28.997Z</time></trkpt><trkpt lat="44.82000937413283" lon="9.904788427176312"><ele>299.5</ele><time>2026-03-22T09:36:30.997Z</time></trkpt><trkpt lat="44.81998030724516" lon="9.904707653508478"><ele>300.33333333333337</ele><time>2026-03-22T09:36:31.997Z</time></trkpt><trkpt lat="44.8199339621247" lon="9.90464707154425"><ele>301.1666666666667</ele><time>2026-03-22T09:36:32.997Z</time></trkpt><trkpt lat="44.81988385758934" lon="9.904590803019277"><ele>302.0</ele><time>2026-03-22T09:36:33.997Z</time></trkpt><trkpt lat="44.81982583392909" lon="9.904542595066191"><ele>302.0</ele><time>2026-03-22T09:36:34.997Z</time></trkpt><trkpt lat="44.819762239546876" lon="9.904513182045674"><ele>302.0</ele><time>2026-03-22T09:36:35.997Z</time></trkpt><trkpt lat="44.81969788774606" lon="9.904493564968302"><ele>302.0</ele><time>2026-03-22T09:36:36.997Z</time></trkpt><trkpt lat="44.819634467631126" lon="9.90448131172612"><ele>302.0</ele><time>2026-03-22T09:36:37.997Z</time></trkpt><trkpt lat="44.819518857594225" lon="9.90444878125132"><ele>302.0</ele><time>2026-03-22T09:36:39.997Z</time></trkpt><trkpt lat="44.81940448834636" lon="9.904432910494295"><ele>302.0</ele><time>2026-03-22T09:36:41.999Z</time></trkpt><trkpt lat="44.81930426873374" lon="9.90440238571793"><ele>302.8</ele><time>2026-03-22T09:36:43.999Z</time></trkpt><trkpt lat="44.81920237468486" lon="9.904401759655654"><ele>303.6</ele><time>2026-03-22T09:36:45.999Z</time></trkpt><trkpt lat="44.81917366526448" lon="9.904277483313766"><ele>304.40000000000003</ele><time>2026-03-22T09:36:46.999Z</time></trkpt><trkpt lat="44.8191334930663" lon="9.904134410058816"><ele>305.2</ele><time>2026-03-22T09:36:48.999Z</time></trkpt><trkpt lat="44.81909089118368" lon="9.904002837016641"><ele>306.0</ele><time>2026-03-22T09:36:50.999Z</time></trkpt><trkpt lat="44.81903443134418" lon="9.903879625849067"><ele>306.0</ele><time>2026-03-22T09:36:52.999Z</time></trkpt><trkpt lat="44.818946820326076" lon="9.903779070683372"><ele>306.0</ele><time>2026-03-22T09:36:55Z</time></trkpt><trkpt lat="44.8188480585191" lon="9.903711454921599"><ele>306.0</ele><time>2026-03-22T09:36:57Z</time></trkpt><trkpt lat="44.81873475353912" lon="9.90368857894347"><ele>306.0</ele><time>2026-03-22T09:36:59Z</time></trkpt><trkpt lat="44.81862772335406" lon="9.903695078449521"><ele>306.0</ele><time>2026-03-22T09:37:01Z</time></trkpt><trkpt lat="44.8185277864043" lon="9.903696013474612"><ele>304.40000000000003</ele><time>2026-03-22T09:37:03Z</time></trkpt><trkpt lat="44.818422388448674" lon="9.903728118002244"><ele>302.8</ele><time>2026-03-22T09:37:05Z</time></trkpt><trkpt lat="44.81831590597679" lon="9.903757544829595"><ele>301.20000000000005</ele><time>2026-03-22T09:37:07Z</time></trkpt><trkpt lat="44.81822079374706" lon="9.903788374467974"><ele>299.6</ele><time>2026-03-22T09:37:09Z</time></trkpt><trkpt lat="44.818159323413084" lon="9.90374503791978"><ele>298.0</ele><time>2026-03-22T09:37:10Z</time></trkpt><trkpt lat="44.81805567291986" lon="9.903706749377225"><ele>298.0</ele><time>2026-03-22T09:37:12Z</time></trkpt><trkpt lat="44.81795882230204" lon="9.9036268680714"><ele>298.0</ele><time>2026-03-22T09:37:14Z</time></trkpt><trkpt lat="44.81791083265199" lon="9.903528422799365"><ele>298.0</ele><time>2026-03-22T09:37:16Z</time></trkpt><trkpt lat="44.81784018303207" lon="9.903456516916702"><ele>298.0</ele><time>2026-03-22T09:37:17Z</time></trkpt><trkpt lat="44.81782100108871" lon="9.903302735008845"><ele>298.0</ele><time>2026-03-22T09:37:19Z</time></trkpt><trkpt lat="44.817848689131324" lon="9.903163583694308"><ele>301.5</ele><time>2026-03-22T09:37:21Z</time></trkpt><trkpt lat="44.81786529438039" lon="9.903044758234863"><ele>305.0</ele><time>2026-03-22T09:37:22.999Z</time></trkpt><trkpt lat="44.817878290617244" lon="9.902933047564682"><ele>308.5</ele><time>2026-03-22T09:37:24.999Z</time></trkpt><trkpt lat="44.81789282913521" lon="9.902830932601606"><ele>312.0</ele><time>2026-03-22T09:37:26.999Z</time></trkpt><trkpt lat="44.81790881938622" lon="9.902725441069569"><ele>315.5</ele><time>2026-03-22T09:37:28.999Z</time></trkpt><trkpt lat="44.817917489643094" lon="9.902630317207652"><ele>319.0</ele><time>2026-03-22T09:37:30.999Z</time></trkpt><trkpt lat="44.817928777961136" lon="9.902535583634283"><ele>321.0</ele><time>2026-03-22T09:37:32.999Z</time></trkpt><trkpt lat="44.81793458429265" lon="9.90244710668705"><ele>323.0</ele><time>2026-03-22T09:37:34.999Z</time></trkpt><trkpt lat="44.81793907903418" lon="9.902326447634968"><ele>325.0</ele><time>2026-03-22T09:37:37.999Z</time></trkpt><trkpt lat="44.817942769651935" lon="9.902204957275897"><ele>327.0</ele><time>2026-03-22T09:37:40.999Z</time></trkpt><trkpt lat="44.81794364486596" lon="9.902076537052896"><ele>329.0</ele><time>2026-03-22T09:37:43.999Z</time></trkpt><trkpt lat="44.8179314959806" lon="9.901972331735875"><ele>331.0</ele><time>2026-03-22T09:37:46.999Z</time></trkpt><trkpt lat="44.81792365920988" lon="9.901872162651753"><ele>331.0</ele><time>2026-03-22T09:37:49.999Z</time></trkpt><trkpt lat="44.81790902392995" lon="9.901768451974348"><ele>331.0</ele><time>2026-03-22T09:37:52.999Z</time></trkpt><trkpt lat="44.81789023308568" lon="9.90167057255923"><ele>331.0</ele><time>2026-03-22T09:37:55.999Z</time></trkpt><trkpt lat="44.81785906328229" lon="9.90156186968361"><ele>331.0</ele><time>2026-03-22T09:37:59.999Z</time></trkpt><trkpt lat="44.8178333612429" lon="9.901470529563635"><ele>331.0</ele><time>2026-03-22T09:38:02.999Z</time></trkpt><trkpt lat="44.817809546036415" lon="9.901376099778608"><ele>331.0</ele><time>2026-03-22T09:38:05.999Z</time></trkpt><trkpt lat="44.81778615945615" lon="9.901269090372763"><ele>333.14285714285717</ele><time>2026-03-22T09:38:08.999Z</time></trkpt><trkpt lat="44.81776059005453" lon="9.901187943453175"><ele>335.2857142857143</ele><time>2026-03-22T09:38:11.999Z</time></trkpt><trkpt lat="44.817723995358115" lon="9.901100709238165"><ele>337.42857142857144</ele><time>2026-03-22T09:38:14.999Z</time></trkpt><trkpt lat="44.8176885193905" lon="9.90101337239317"><ele>339.57142857142856</ele><time>2026-03-22T09:38:17.999Z</time></trkpt><trkpt lat="44.8176544760608" lon="9.900920504473648"><ele>341.7142857142857</ele><time>2026-03-22T09:38:20.998Z</time></trkpt><trkpt lat="44.817619635528395" lon="9.900826258358052"><ele>343.85714285714283</ele><time>2026-03-22T09:38:23.998Z</time></trkpt><trkpt lat="44.81758244049191" lon="9.900735073672847"><ele>346.0</ele><time>2026-03-22T09:38:26.998Z</time></trkpt><trkpt lat="44.817538339563704" lon="9.900633641764164"><ele>346.16666666666663</ele><time>2026-03-22T09:38:29.998Z</time></trkpt><trkpt lat="44.817496041752555" lon="9.900544581683262"><ele>346.3333333333333</ele><time>2026-03-22T09:38:32.998Z</time></trkpt><trkpt lat="44.81745931306498" lon="9.900459308109815"><ele>346.5</ele><time>2026-03-22T09:38:35.998Z</time></trkpt><trkpt lat="44.817433885650146" lon="9.90036261642947"><ele>346.6666666666667</ele><time>2026-03-22T09:38:38.998Z</time></trkpt><trkpt lat="44.81739996155702" lon="9.900250407695596"><ele>346.83333333333337</ele><time>2026-03-22T09:38:41.998Z</time></trkpt><trkpt lat="44.81737234661725" lon="9.900139733727036"><ele>347.0</ele><time>2026-03-22T09:38:44.998Z</time></trkpt><trkpt lat="44.81735058429321" lon="9.900043468296008"><ele>347.5714285714286</ele><time>2026-03-22T09:38:48Z</time></trkpt><trkpt lat="44.81733903737955" lon="9.899944549473473"><ele>348.1428571428571</ele><time>2026-03-22T09:38:51Z</time></trkpt><trkpt lat="44.817335594138996" lon="9.899855410659525"><ele>348.7142857142857</ele><time>2026-03-22T09:38:54Z</time></trkpt><trkpt lat="44.817339493454604" lon="9.899766755598106"><ele>349.28571428571433</ele><time>2026-03-22T09:38:57Z</time></trkpt><trkpt lat="44.81733718020886" lon="9.899674596636286"><ele>349.8571428571429</ele><time>2026-03-22T09:39:00Z</time></trkpt><trkpt lat="44.81734729476072" lon="9.89958654498684"><ele>350.42857142857144</ele><time>2026-03-22T09:39:03Z</time></trkpt><trkpt lat="44.81733977253517" lon="9.899469781812755"><ele>351.0</ele><time>2026-03-22T09:39:07Z</time></trkpt><trkpt lat="44.81731521545215" lon="9.899387008340863"><ele>351.00000000000006</ele><time>2026-03-22T09:39:10Z</time></trkpt><trkpt lat="44.8172597710998" lon="9.899335043501843"><ele>351.0</ele><time>2026-03-22T09:39:13Z</time></trkpt><trkpt lat="44.81720839249944" lon="9.899386336286888"><ele>351.0</ele><time>2026-03-22T09:39:16Z</time></trkpt><trkpt lat="44.81716620305861" lon="9.899488642607396"><ele>351.0</ele><time>2026-03-22T09:39:20Z</time></trkpt><trkpt lat="44.817140790385515" lon="9.8995876166399"><ele>351.0</ele><time>2026-03-22T09:39:23Z</time></trkpt><trkpt lat="44.817101383567824" lon="9.899676084403204"><ele>351.00000000000006</ele><time>2026-03-22T09:39:26Z</time></trkpt><trkpt lat="44.81706429087458" lon="9.899771335147046"><ele>351.0</ele><time>2026-03-22T09:39:28.999Z</time></trkpt><trkpt lat="44.817030267352514" lon="9.899858240534556"><ele>351.00000000000006</ele><time>2026-03-22T09:39:31.999Z</time></trkpt><trkpt lat="44.81700127090164" lon="9.89995193709508"><ele>351.0</ele><time>2026-03-22T09:39:34.999Z</time></trkpt><trkpt lat="44.81696480237759" lon="9.90003863129279"><ele>351.0</ele><time>2026-03-22T09:39:37.999Z</time></trkpt><trkpt lat="44.81691568888653" lon="9.90011137803689"><ele>351.0</ele><time>2026-03-22T09:39:40.999Z</time></trkpt><trkpt lat="44.81684966822162" lon="9.900153962097008"><ele>351.0</ele><time>2026-03-22T09:39:43.999Z</time></trkpt><trkpt lat="44.816768413918844" lon="9.900178957425364"><ele>351.00000000000006</ele><time>2026-03-22T09:39:47.999Z</time></trkpt><trkpt lat="44.81669847851811" lon="9.900197725763917"><ele>351.0</ele><time>2026-03-22T09:39:50.999Z</time></trkpt><trkpt lat="44.8166233168355" lon="9.900212232781248"><ele>351.5714285714286</ele><time>2026-03-22T09:39:53.999Z</time></trkpt><trkpt lat="44.81655879026753" lon="9.900229203338844"><ele>352.14285714285717</ele><time>2026-03-22T09:39:56.999Z</time></trkpt><trkpt lat="44.81648349404537" lon="9.900258352563837"><ele>352.7142857142857</ele><time>2026-03-22T09:40:00.999Z</time></trkpt><trkpt lat="44.816414912096995" lon="9.900275502813004"><ele>353.28571428571433</ele><time>2026-03-22T09:42:40.998Z</time></trkpt><trkpt lat="44.81638661156256" lon="9.900181725251743"><ele>353.8571428571429</ele><time>2026-03-22T09:42:45.998Z</time></trkpt><trkpt lat="44.8163215468326" lon="9.900132778526961"><ele>354.42857142857144</ele><time>2026-03-22T09:42:48.998Z</time></trkpt><trkpt lat="44.816259815356794" lon="9.90005487605636"><ele>355.0</ele><time>2026-03-22T09:42:51.998Z</time></trkpt><trkpt lat="44.816215566187346" lon="9.89998619047818"><ele>355.0</ele><time>2026-03-22T09:42:53.998Z</time></trkpt><trkpt lat="44.81616240165857" lon="9.899908521575917"><ele>355.0</ele><time>2026-03-22T09:42:55.998Z</time></trkpt><trkpt lat="44.81609825954861" lon="9.899829053564178"><ele>355.0</ele><time>2026-03-22T09:42:57.998Z</time></trkpt><trkpt lat="44.81602774266075" lon="9.899733921661634"><ele>355.0</ele><time>2026-03-22T09:43:00Z</time></trkpt><trkpt lat="44.81594656236994" lon="9.899632760402438"><ele>355.0</ele><time>2026-03-22T09:43:02Z</time></trkpt><trkpt lat="44.81583228094686" lon="9.899575619155367"><ele>354.2857142857143</ele><time>2026-03-22T09:43:04Z</time></trkpt><trkpt lat="44.815781158067814" lon="9.899519082446165"><ele>353.57142857142856</ele><time>2026-03-22T09:43:05Z</time></trkpt><trkpt lat="44.815714955952544" lon="9.899502564587833"><ele>352.8571428571429</ele><time>2026-03-22T09:43:06Z</time></trkpt><trkpt lat="44.81564557685005" lon="9.899505294350467"><ele>352.1428571428571</ele><time>2026-03-22T09:43:07Z</time></trkpt><trkpt lat="44.81557376221062" lon="9.89952789246856"><ele>351.42857142857144</ele><time>2026-03-22T09:43:08Z</time></trkpt><trkpt lat="44.81550388270215" lon="9.899563189424416"><ele>350.7142857142857</ele><time>2026-03-22T09:43:09Z</time></trkpt><trkpt lat="44.81543867577459" lon="9.899599064128836"><ele>350.0</ele><time>2026-03-22T09:43:10Z</time></trkpt><trkpt lat="44.81537320659851" lon="9.899627952054093"><ele>350.0</ele><time>2026-03-22T09:43:11Z</time></trkpt><trkpt lat="44.81530972005962" lon="9.899657876764346"><ele>350.0</ele><time>2026-03-22T09:43:12Z</time></trkpt><trkpt lat="44.8152438176271" lon="9.899677759661257"><ele>350.0</ele><time>2026-03-22T09:43:13Z</time></trkpt><trkpt lat="44.81517907233023" lon="9.89970098786435"><ele>350.0</ele><time>2026-03-22T09:43:14Z</time></trkpt><trkpt lat="44.815100977168875" lon="9.899693073993896"><ele>350.0</ele><time>2026-03-22T09:43:15Z</time></trkpt><trkpt lat="44.81501769440906" lon="9.899584149218759"><ele>350.0</ele><time>2026-03-22T09:43:16Z</time></trkpt><trkpt lat="44.81496628653027" lon="9.89946865801182"><ele>349.33333333333337</ele><time>2026-03-22T09:43:17Z</time></trkpt><trkpt lat="44.81494726799709" lon="9.899321452918148"><ele>348.6666666666667</ele><time>2026-03-22T09:43:18Z</time></trkpt><trkpt lat="44.8149122713601" lon="9.899215435003342"><ele>348.0</ele><time>2026-03-22T09:43:19Z</time></trkpt><trkpt lat="44.814878590476305" lon="9.899113403036466"><ele>347.3333333333333</ele><time>2026-03-22T09:43:20Z</time></trkpt><trkpt lat="44.81484543585427" lon="9.899017563955425"><ele>346.66666666666663</ele><time>2026-03-22T09:43:21Z</time></trkpt><trkpt lat="44.81483778383963" lon="9.898913705897352"><ele>346.0</ele><time>2026-03-22T09:43:22Z</time></trkpt><trkpt lat="44.814805296468236" lon="9.898834443906814"><ele>346.0</ele><time>2026-03-22T09:43:23Z</time></trkpt><trkpt lat="44.81474990572973" lon="9.89868996193075"><ele>346.0</ele><time>2026-03-22T09:43:25Z</time></trkpt><trkpt lat="44.814668829173264" lon="9.898596019409744"><ele>346.0</ele><time>2026-03-22T09:43:27Z</time></trkpt><trkpt lat="44.8145943455401" lon="9.898482714839021"><ele>346.0</ele><time>2026-03-22T09:43:29Z</time></trkpt><trkpt lat="44.8145228570175" lon="9.898349889975254"><ele>346.0</ele><time>2026-03-22T09:43:31Z</time></trkpt><trkpt lat="44.81450762547812" lon="9.898250577596539"><ele>349.8</ele><time>2026-03-22T09:43:32Z</time></trkpt><trkpt lat="44.81452844645482" lon="9.898079033859268"><ele>353.6</ele><time>2026-03-22T09:43:34Z</time></trkpt><trkpt lat="44.814548287504984" lon="9.897927349763703"><ele>357.4</ele><time>2026-03-22T09:43:36Z</time></trkpt><trkpt lat="44.814555793284654" lon="9.897775952458367"><ele>361.2</ele><time>2026-03-22T09:43:37.999Z</time></trkpt><trkpt lat="44.81453989564482" lon="9.897624553957355"><ele>365.0</ele><time>2026-03-22T09:43:39.999Z</time></trkpt><trkpt lat="44.8145147808277" lon="9.897462623914024"><ele>370.25</ele><time>2026-03-22T09:43:41.999Z</time></trkpt><trkpt lat="44.81448438490952" lon="9.897300673772644"><ele>375.5</ele><time>2026-03-22T09:43:43.999Z</time></trkpt><trkpt lat="44.81444657370758" lon="9.897141075354654"><ele>380.75</ele><time>2026-03-22T09:43:45.999Z</time></trkpt><trkpt lat="44.81440689089303" lon="9.896971880950154"><ele>386.0</ele><time>2026-03-22T09:43:47.999Z</time></trkpt><trkpt lat="44.81437537272985" lon="9.896814783847566"><ele>387.8</ele><time>2026-03-22T09:43:49.999Z</time></trkpt><trkpt lat="44.81436417502555" lon="9.896649538079403"><ele>389.6</ele><time>2026-03-22T09:43:51.999Z</time></trkpt><trkpt lat="44.81436216656165" lon="9.896503997939076"><ele>391.4</ele><time>2026-03-22T09:43:53.999Z</time></trkpt><trkpt lat="44.81435913997575" lon="9.896360234840703"><ele>393.2</ele><time>2026-03-22T09:43:55.999Z</time></trkpt><trkpt lat="44.814351108174975" lon="9.896209932801014"><ele>395.0</ele><time>2026-03-22T09:43:57.999Z</time></trkpt><trkpt lat="44.81433169405939" lon="9.896050325175043"><ele>381.75</ele><time>2026-03-22T09:43:59.999Z</time></trkpt><trkpt lat="44.814308976915704" lon="9.895882695985904"><ele>368.5</ele><time>2026-03-22T09:44:01.999Z</time></trkpt><trkpt lat="44.81428833145284" lon="9.895710350342071"><ele>355.25</ele><time>2026-03-22T09:44:03.999Z</time></trkpt><trkpt lat="44.81427397619785" lon="9.895564569129059"><ele>342.0</ele><time>2026-03-22T09:44:05.999Z</time></trkpt><trkpt lat="44.81427258021263" lon="9.8954218963955"><ele>342.0</ele><time>2026-03-22T09:44:07.999Z</time></trkpt><trkpt lat="44.81429471675544" lon="9.89528260752008"><ele>342.0</ele><time>2026-03-22T09:44:09.999Z</time></trkpt><trkpt lat="44.81432394097164" lon="9.895152794449192"><ele>342.0</ele><time>2026-03-22T09:44:11.999Z</time></trkpt><trkpt lat="44.814361727801646" lon="9.89503019921222"><ele>342.0</ele><time>2026-03-22T09:44:13.999Z</time></trkpt><trkpt lat="44.814403578792515" lon="9.894920208848482"><ele>342.0</ele><time>2026-03-22T09:44:15.999Z</time></trkpt><trkpt lat="44.8144482301365" lon="9.894814794771545"><ele>348.85714285714283</ele><time>2026-03-22T09:44:17.999Z</time></trkpt><trkpt lat="44.814503139818186" lon="9.894724219448104"><ele>355.7142857142857</ele><time>2026-03-22T09:44:19.999Z</time></trkpt><trkpt lat="44.81455346273524" lon="9.894660410661317"><ele>362.57142857142856</ele><time>2026-03-22T09:44:21.999Z</time></trkpt><trkpt lat="44.81459955579612" lon="9.894596784108083"><ele>369.42857142857144</ele><time>2026-03-22T09:44:23.999Z</time></trkpt><trkpt lat="44.81465230910306" lon="9.894483476325913"><ele>376.2857142857143</ele><time>2026-03-22T09:44:27.999Z</time></trkpt><trkpt lat="44.81465654789373" lon="9.894393397751728"><ele>383.1428571428571</ele><time>2026-03-22T09:44:30.998Z</time></trkpt><trkpt lat="44.814646625822476" lon="9.894293016734208"><ele>390.0</ele><time>2026-03-22T09:44:33.998Z</time></trkpt><trkpt lat="44.81459247737077" lon="9.894211303645235"><ele>390.0</ele><time>2026-03-22T09:44:35.998Z</time></trkpt><trkpt lat="44.81453333617547" lon="9.89414045108137"><ele>390.0</ele><time>2026-03-22T09:44:38.998Z</time></trkpt><trkpt lat="44.81446408599515" lon="9.894074639274761"><ele>390.0</ele><time>2026-03-22T09:44:41.998Z</time></trkpt><trkpt lat="44.81440033983499" lon="9.89394548460383"><ele>390.0</ele><time>2026-03-22T09:44:43.998Z</time></trkpt><trkpt lat="44.81442400512469" lon="9.893807583778107"><ele>390.0</ele><time>2026-03-22T09:44:45.998Z</time></trkpt><trkpt lat="44.81439741890346" lon="9.893698540523092"><ele>390.0</ele><time>2026-03-22T09:44:47.998Z</time></trkpt><trkpt lat="44.81436727876664" lon="9.89358669061668"><ele>390.0</ele><time>2026-03-22T09:44:49.998Z</time></trkpt><trkpt lat="44.81433468543682" lon="9.893474308277218"><ele>390.0</ele><time>2026-03-22T09:44:51.998Z</time></trkpt><trkpt lat="44.81431026685528" lon="9.893364539533263"><ele>390.0</ele><time>2026-03-22T09:44:53.998Z</time></trkpt><trkpt lat="44.814295807560505" lon="9.89325199874411"><ele>390.0</ele><time>2026-03-22T09:44:55.998Z</time></trkpt><trkpt lat="44.81430246486192" lon="9.893148552362568"><ele>390.0</ele><time>2026-03-22T09:44:57.998Z</time></trkpt><trkpt lat="44.8143303078072" lon="9.893049694922155"><ele>391.3333333333333</ele><time>2026-03-22T09:44:59.998Z</time></trkpt><trkpt lat="44.814370455597626" lon="9.892968207736802"><ele>392.66666666666663</ele><time>2026-03-22T09:45:01.998Z</time></trkpt><trkpt lat="44.81440269859139" lon="9.892891561212398"><ele>394.0</ele><time>2026-03-22T09:45:03.998Z</time></trkpt><trkpt lat="44.81445328324177" lon="9.892779074444078"><ele>395.3333333333333</ele><time>2026-03-22T09:45:07Z</time></trkpt><trkpt lat="44.81450022908976" lon="9.892681984028508"><ele>396.66666666666663</ele><time>2026-03-22T09:45:10Z</time></trkpt><trkpt lat="44.81453849031255" lon="9.89258711398892"><ele>398.0</ele><time>2026-03-22T09:45:13Z</time></trkpt><trkpt lat="44.814569874469406" lon="9.892477809440928"><ele>398.66666666666663</ele><time>2026-03-22T09:45:16Z</time></trkpt><trkpt lat="44.81458657342304" lon="9.892364338280075"><ele>399.3333333333333</ele><time>2026-03-22T09:45:19Z</time></trkpt><trkpt lat="44.81458668172894" lon="9.892229304112746"><ele>400.0</ele><time>2026-03-22T09:45:22Z</time></trkpt><trkpt lat="44.814585149320386" lon="9.89213656547109"><ele>400.66666666666663</ele><time>2026-03-22T09:45:24Z</time></trkpt><trkpt lat="44.81457406187786" lon="9.892017132265362"><ele>401.3333333333333</ele><time>2026-03-22T09:45:27Z</time></trkpt><trkpt lat="44.81457326775599" lon="9.891892352567417"><ele>402.0</ele><time>2026-03-22T09:45:30Z</time></trkpt><trkpt lat="44.81459193174398" lon="9.891774924459463"><ele>401.1666666666667</ele><time>2026-03-22T09:45:33Z</time></trkpt><trkpt lat="44.814624037117724" lon="9.891674836992525"><ele>400.33333333333337</ele><time>2026-03-22T09:45:36Z</time></trkpt><trkpt lat="44.81466196161498" lon="9.891570489600678"><ele>399.5</ele><time>2026-03-22T09:45:39Z</time></trkpt><trkpt lat="44.814692125938166" lon="9.891473301529555"><ele>398.6666666666667</ele><time>2026-03-22T09:45:41.999Z</time></trkpt><trkpt lat="44.81472041820568" lon="9.891370620338693"><ele>397.83333333333337</ele><time>2026-03-22T09:45:44.999Z</time></trkpt><trkpt lat="44.81473893845589" lon="9.891264074152257"><ele>397.0</ele><time>2026-03-22T09:45:47.999Z</time></trkpt><trkpt lat="44.81472731501628" lon="9.891136796433162"><ele>397.00000000000006</ele><time>2026-03-22T09:45:50.999Z</time></trkpt><trkpt lat="44.8147028152923" lon="9.891053203585242"><ele>397.0</ele><time>2026-03-22T09:45:52.999Z</time></trkpt><trkpt lat="44.814670564659394" lon="9.890946780291761"><ele>397.0</ele><time>2026-03-22T09:45:55.999Z</time></trkpt><trkpt lat="44.814639378062296" lon="9.890844770863314"><ele>397.0</ele><time>2026-03-22T09:45:58.999Z</time></trkpt><trkpt lat="44.814621912274795" lon="9.890741822469831"><ele>397.00000000000006</ele><time>2026-03-22T09:46:01.999Z</time></trkpt><trkpt lat="44.814619355421804" lon="9.890630980664564"><ele>397.0</ele><time>2026-03-22T09:46:04.999Z</time></trkpt><trkpt lat="44.81462779289008" lon="9.89051833220378"><ele>397.00000000000006</ele><time>2026-03-22T09:46:07.999Z</time></trkpt><trkpt lat="44.8146696892141" lon="9.890433085277467"><ele>397.0</ele><time>2026-03-22T09:46:10.999Z</time></trkpt><trkpt lat="44.814658515465496" lon="9.890331173188914"><ele>397.0</ele><time>2026-03-22T09:46:13.999Z</time></trkpt><trkpt lat="44.81464563875832" lon="9.890228913030475"><ele>397.0</ele><time>2026-03-22T09:46:15.999Z</time></trkpt><trkpt lat="44.81462958168148" lon="9.890125286937899"><ele>397.00000000000006</ele><time>2026-03-22T09:46:18.999Z</time></trkpt><trkpt lat="44.81459995419271" lon="9.889989898896724"><ele>397.0</ele><time>2026-03-22T09:46:21.999Z</time></trkpt><trkpt lat="44.814586896642204" lon="9.889887955022376"><ele>397.00000000000006</ele><time>2026-03-22T09:46:23.999Z</time></trkpt><trkpt lat="44.81458243038202" lon="9.889777812837027"><ele>397.0</ele><time>2026-03-22T09:46:25.999Z</time></trkpt><trkpt lat="44.81458358777534" lon="9.88964631599805"><ele>397.0</ele><time>2026-03-22T09:46:27.999Z</time></trkpt><trkpt lat="44.81460016383973" lon="9.88953471337798"><ele>397.0</ele><time>2026-03-22T09:46:29.999Z</time></trkpt><trkpt lat="44.81460863121433" lon="9.889426639211838"><ele>397.00000000000006</ele><time>2026-03-22T09:46:31.999Z</time></trkpt><trkpt lat="44.81463844127411" lon="9.889269550357497"><ele>397.0</ele><time>2026-03-22T09:46:34.998Z</time></trkpt><trkpt lat="44.81465072498921" lon="9.889178187207687"><ele>396.83333333333337</ele><time>2026-03-22T09:46:37.998Z</time></trkpt><trkpt lat="44.81467194260105" lon="9.889032302853035"><ele>396.6666666666667</ele><time>2026-03-22T09:46:39.998Z</time></trkpt><trkpt lat="44.81469920406159" lon="9.888904759378013"><ele>396.5</ele><time>2026-03-22T09:46:42.998Z</time></trkpt><trkpt lat="44.81472453000022" lon="9.888801553010433"><ele>396.33333333333337</ele><time>2026-03-22T09:46:44.998Z</time></trkpt><trkpt lat="44.81474866357775" lon="9.888692950860168"><ele>396.1666666666667</ele><time>2026-03-22T09:46:46.998Z</time></trkpt><trkpt lat="44.814788876382735" lon="9.888585942270852"><ele>396.0</ele><time>2026-03-22T09:46:48.998Z</time></trkpt><trkpt lat="44.81482794418886" lon="9.88847243141797"><ele>393.4</ele><time>2026-03-22T09:46:50.998Z</time></trkpt><trkpt lat="44.81487028455835" lon="9.888356817705597"><ele>390.8</ele><time>2026-03-22T09:46:52.998Z</time></trkpt><trkpt lat="44.8149145773665" lon="9.888225822260283"><ele>388.2</ele><time>2026-03-22T09:46:54.998Z</time></trkpt><trkpt lat="44.81494973968515" lon="9.88810038121685"><ele>385.59999999999997</ele><time>2026-03-22T09:46:56.998Z</time></trkpt><trkpt lat="44.814987786974626" lon="9.887975333930257"><ele>383.0</ele><time>2026-03-22T09:46:58.998Z</time></trkpt><trkpt lat="44.81503144459715" lon="9.88785183371723"><ele>383.0</ele><time>2026-03-22T09:47:00.998Z</time></trkpt><trkpt lat="44.815053108561976" lon="9.887716054439881"><ele>383.0</ele><time>2026-03-22T09:47:02.998Z</time></trkpt><trkpt lat="44.815068012002136" lon="9.887578323585982"><ele>383.0</ele><time>2026-03-22T09:47:04.998Z</time></trkpt><trkpt lat="44.81506160457545" lon="9.887437012053843"><ele>383.0</ele><time>2026-03-22T09:47:06.998Z</time></trkpt><trkpt lat="44.815048402845356" lon="9.887298997692383"><ele>383.0</ele><time>2026-03-22T09:47:08.998Z</time></trkpt><trkpt lat="44.8150463657845" lon="9.88715385530797"><ele>380.79999999999995</ele><time>2026-03-22T09:47:10.998Z</time></trkpt><trkpt lat="44.81506839143643" lon="9.8870061160453"><ele>378.6</ele><time>2026-03-22T09:47:13Z</time></trkpt><trkpt lat="44.81502956554075" lon="9.886904610856702"><ele>376.4</ele><time>2026-03-22T09:47:14Z</time></trkpt><trkpt lat="44.815102718890046" lon="9.886757180096922"><ele>374.20000000000005</ele><time>2026-03-22T09:47:16Z</time></trkpt><trkpt lat="44.81515094642504" lon="9.886698487094641"><ele>372.0</ele><time>2026-03-22T09:47:17Z</time></trkpt><trkpt lat="44.81523605164347" lon="9.886582853679466"><ele>371.3333333333333</ele><time>2026-03-22T09:47:19Z</time></trkpt><trkpt lat="44.81532192956525" lon="9.88647448737756"><ele>370.6666666666667</ele><time>2026-03-22T09:47:21Z</time></trkpt><trkpt lat="44.81536154374508" lon="9.88632611624462"><ele>370.0</ele><time>2026-03-22T09:47:23Z</time></trkpt><trkpt lat="44.81536079294965" lon="9.886233328699813"><ele>369.33333333333337</ele><time>2026-03-22T09:47:24Z</time></trkpt><trkpt lat="44.815364124742594" lon="9.886128951497797"><ele>368.6666666666667</ele><time>2026-03-22T09:47:25Z</time></trkpt><trkpt lat="44.81533480044997" lon="9.886027078490224"><ele>368.0</ele><time>2026-03-22T09:47:26Z</time></trkpt><trkpt lat="44.815316674197305" lon="9.885914679772172"><ele>365.33333333333337</ele><time>2026-03-22T09:47:27Z</time></trkpt><trkpt lat="44.815298945226864" lon="9.885804550509402"><ele>362.6666666666667</ele><time>2026-03-22T09:47:28Z</time></trkpt><trkpt lat="44.81529471353775" lon="9.885687094576218"><ele>360.0</ele><time>2026-03-22T09:47:29Z</time></trkpt><trkpt lat="44.815276938306724" lon="9.88556964567508"><ele>357.3333333333333</ele><time>2026-03-22T09:47:30Z</time></trkpt><trkpt lat="44.815243294859705" lon="9.885453046742963"><ele>354.66666666666663</ele><time>2026-03-22T09:47:31Z</time></trkpt><trkpt lat="44.815224842179234" lon="9.885332044124244"><ele>352.0</ele><time>2026-03-22T09:47:32Z</time></trkpt><trkpt lat="44.815204057516404" lon="9.885207833540354"><ele>350.40000000000003</ele><time>2026-03-22T09:47:33Z</time></trkpt><trkpt lat="44.81517908729163" lon="9.885082290324084"><ele>348.8</ele><time>2026-03-22T09:47:34Z</time></trkpt><trkpt lat="44.815160410888026" lon="9.88495138608488"><ele>347.2</ele><time>2026-03-22T09:47:35Z</time></trkpt><trkpt lat="44.81512006483643" lon="9.884832352747969"><ele>345.6</ele><time>2026-03-22T09:47:36Z</time></trkpt><trkpt lat="44.815074847797646" lon="9.884704910410642"><ele>344.0</ele><time>2026-03-22T09:47:37Z</time></trkpt><trkpt lat="44.81502862521586" lon="9.884578343627016"><ele>345.4</ele><time>2026-03-22T09:47:38Z</time></trkpt><trkpt lat="44.81498023867355" lon="9.884448603590613"><ele>346.79999999999995</ele><time>2026-03-22T09:47:39Z</time></trkpt><trkpt lat="44.81492066209438" lon="9.884332162361911"><ele>348.20000000000005</ele><time>2026-03-22T09:47:40Z</time></trkpt><trkpt lat="44.81489096920316" lon="9.884196220742151"><ele>349.6</ele><time>2026-03-22T09:47:41Z</time></trkpt><trkpt lat="44.814845018227665" lon="9.88408062263629"><ele>351.0</ele><time>2026-03-22T09:47:42Z</time></trkpt><trkpt lat="44.81480490656258" lon="9.883964551661153"><ele>351.0</ele><time>2026-03-22T09:47:43Z</time></trkpt><trkpt lat="44.814770566513076" lon="9.883850464161462"><ele>351.0</ele><time>2026-03-22T09:47:44Z</time></trkpt><trkpt lat="44.814720574543564" lon="9.883758689680185"><ele>351.0</ele><time>2026-03-22T09:47:44.999Z</time></trkpt><trkpt lat="44.814682001161025" lon="9.883671398202699"><ele>351.0</ele><time>2026-03-22T09:47:45.999Z</time></trkpt><trkpt lat="44.81462118256352" lon="9.883540590329362"><ele>351.0</ele><time>2026-03-22T09:47:46.999Z</time></trkpt><trkpt lat="44.81479611739143" lon="9.883412070037958"><ele>350.4</ele><time>2026-03-22T09:47:47.999Z</time></trkpt><trkpt lat="44.81485380142222" lon="9.883314846103161"><ele>349.8</ele><time>2026-03-22T09:47:48.999Z</time></trkpt><trkpt lat="44.814890395542534" lon="9.883195881992517"><ele>349.2</ele><time>2026-03-22T09:47:49.999Z</time></trkpt><trkpt lat="44.81493475525265" lon="9.883080188481062"><ele>348.59999999999997</ele><time>2026-03-22T09:47:50.999Z</time></trkpt><trkpt lat="44.81497968217166" lon="9.882954973939098"><ele>348.0</ele><time>2026-03-22T09:47:51.999Z</time></trkpt><trkpt lat="44.815024504731625" lon="9.882829874530648"><ele>348.0</ele><time>2026-03-22T09:47:52.999Z</time></trkpt><trkpt lat="44.81507174731291" lon="9.882696754226457"><ele>348.0</ele><time>2026-03-22T09:47:53.999Z</time></trkpt><trkpt lat="44.81512493667036" lon="9.882571928035134"><ele>348.0</ele><time>2026-03-22T09:47:54.999Z</time></trkpt><trkpt lat="44.81517430413879" lon="9.882446894176427"><ele>348.0</ele><time>2026-03-22T09:47:55.999Z</time></trkpt><trkpt lat="44.81522349330634" lon="9.882326967991307"><ele>348.0</ele><time>2026-03-22T09:47:56.999Z</time></trkpt><trkpt lat="44.815272330847925" lon="9.882210137009443"><ele>344.3333333333333</ele><time>2026-03-22T09:47:57.999Z</time></trkpt><trkpt lat="44.81531885888215" lon="9.882105485960716"><ele>340.6666666666667</ele><time>2026-03-22T09:47:58.999Z</time></trkpt><trkpt lat="44.815367377913624" lon="9.88201589182367"><ele>337.0</ele><time>2026-03-22T09:47:59.999Z</time></trkpt><trkpt lat="44.815427314133785" lon="9.881948598200653"><ele>333.33333333333337</ele><time>2026-03-22T09:48:00.999Z</time></trkpt><trkpt lat="44.815500495342825" lon="9.881897010725694"><ele>329.6666666666667</ele><time>2026-03-22T09:48:01.999Z</time></trkpt><trkpt lat="44.815576178322445" lon="9.881866319346393"><ele>326.0</ele><time>2026-03-22T09:48:02.999Z</time></trkpt><trkpt lat="44.815658274376055" lon="9.881855014619623"><ele>326.0</ele><time>2026-03-22T09:48:03.999Z</time></trkpt><trkpt lat="44.81574280670806" lon="9.881888818486777"><ele>326.0</ele><time>2026-03-22T09:48:04.999Z</time></trkpt><trkpt lat="44.81583528002774" lon="9.881936108506771"><ele>326.0</ele><time>2026-03-22T09:48:05.999Z</time></trkpt><trkpt lat="44.815934342840976" lon="9.88198288102409"><ele>326.0</ele><time>2026-03-22T09:48:06.999Z</time></trkpt><trkpt lat="44.81599719018273" lon="9.882111466293473"><ele>326.0</ele><time>2026-03-22T09:48:07.999Z</time></trkpt><trkpt lat="44.816065733118755" lon="9.882234060100158"><ele>324.0</ele><time>2026-03-22T09:48:08.999Z</time></trkpt><trkpt lat="44.81612660940232" lon="9.882372392386818"><ele>322.0</ele><time>2026-03-22T09:48:09.999Z</time></trkpt><trkpt lat="44.816177136209944" lon="9.88251668242076"><ele>320.0</ele><time>2026-03-22T09:48:10.999Z</time></trkpt><trkpt lat="44.81622625693749" lon="9.882665422425566"><ele>318.0</ele><time>2026-03-22T09:48:11.999Z</time></trkpt><trkpt lat="44.81627485465544" lon="9.882816400911485"><ele>318.0</ele><time>2026-03-22T09:48:12.999Z</time></trkpt><trkpt lat="44.81632355919237" lon="9.882966826730952"><ele>318.0</ele><time>2026-03-22T09:48:13.999Z</time></trkpt><trkpt lat="44.81637281866125" lon="9.883116258690952"><ele>318.0</ele><time>2026-03-22T09:48:14.999Z</time></trkpt><trkpt lat="44.8164217870225" lon="9.883264807634747"><ele>318.0</ele><time>2026-03-22T09:48:15.999Z</time></trkpt><trkpt lat="44.81646798469288" lon="9.883410983345133"><ele>318.2</ele><time>2026-03-22T09:48:16.999Z</time></trkpt><trkpt lat="44.81651425447056" lon="9.88355642429539"><ele>318.4</ele><time>2026-03-22T09:48:17.999Z</time></trkpt><trkpt lat="44.816562501192145" lon="9.883695360396748"><ele>318.59999999999997</ele><time>2026-03-22T09:48:18.999Z</time></trkpt><trkpt lat="44.81662625255767" lon="9.883816943628506"><ele>318.8</ele><time>2026-03-22T09:48:19.999Z</time></trkpt><trkpt lat="44.81668870055384" lon="9.88392976421988"><ele>319.0</ele><time>2026-03-22T09:48:20.999Z</time></trkpt><trkpt lat="44.81676178222139" lon="9.88402560914991"><ele>319.0</ele><time>2026-03-22T09:48:21.999Z</time></trkpt><trkpt lat="44.81684642835383" lon="9.884092236444367"><ele>319.0</ele><time>2026-03-22T09:48:22.999Z</time></trkpt><trkpt lat="44.81692787104544" lon="9.884147774574616"><ele>319.0</ele><time>2026-03-22T09:48:23.999Z</time></trkpt><trkpt lat="44.81700325054586" lon="9.884205815163643"><ele>319.0</ele><time>2026-03-22T09:48:24.999Z</time></trkpt><trkpt lat="44.81707373081982" lon="9.884262449926531"><ele>319.0</ele><time>2026-03-22T09:48:25.999Z</time></trkpt><trkpt lat="44.81714324797239" lon="9.884319734933666"><ele>319.0</ele><time>2026-03-22T09:48:26.999Z</time></trkpt><trkpt lat="44.81721289188947" lon="9.884373478350133"><ele>319.0</ele><time>2026-03-22T09:48:27.999Z</time></trkpt><trkpt lat="44.81727944038799" lon="9.884426763797382"><ele>319.0</ele><time>2026-03-22T09:48:28.999Z</time></trkpt><trkpt lat="44.8173486257188" lon="9.884478449046012"><ele>319.0</ele><time>2026-03-22T09:48:29.999Z</time></trkpt><trkpt lat="44.817415453148456" lon="9.884528951059352"><ele>319.0</ele><time>2026-03-22T09:48:30.999Z</time></trkpt><trkpt lat="44.81748081943019" lon="9.884582604479897"><ele>319.0</ele><time>2026-03-22T09:48:31.999Z</time></trkpt><trkpt lat="44.817545945963715" lon="9.884634487329773"><ele>319.0</ele><time>2026-03-22T09:48:32.999Z</time></trkpt><trkpt lat="44.81760736287971" lon="9.884691804030913"><ele>319.0</ele><time>2026-03-22T09:48:33.999Z</time></trkpt><trkpt lat="44.81764953724244" lon="9.884777776258302"><ele>319.0</ele><time>2026-03-22T09:48:34.999Z</time></trkpt><trkpt lat="44.817684852187206" lon="9.884858103606646"><ele>319.0</ele><time>2026-03-22T09:48:35.999Z</time></trkpt><trkpt lat="44.817710155717556" lon="9.884945008933002"><ele>319.0</ele><time>2026-03-22T09:48:36.999Z</time></trkpt><trkpt lat="44.81773703918557" lon="9.885033461936814"><ele>319.0</ele><time>2026-03-22T09:48:37.998Z</time></trkpt><trkpt lat="44.817759178198436" lon="9.88512162364459"><ele>319.0</ele><time>2026-03-22T09:48:38.998Z</time></trkpt><trkpt lat="44.8177793392896" lon="9.885213509940732"><ele>319.0</ele><time>2026-03-22T09:48:39.998Z</time></trkpt><trkpt lat="44.8178170728218" lon="9.885386197156308"><ele>318.66666666666663</ele><time>2026-03-22T09:48:41.998Z</time></trkpt><trkpt lat="44.81783891619491" lon="9.885470078620584"><ele>318.3333333333333</ele><time>2026-03-22T09:48:42.998Z</time></trkpt><trkpt lat="44.817864810102265" lon="9.885553838482103"><ele>318.0</ele><time>2026-03-22T09:48:43.998Z</time></trkpt><trkpt lat="44.817895858010736" lon="9.885644343083776"><ele>317.6666666666667</ele><time>2026-03-22T09:48:44.998Z</time></trkpt><trkpt lat="44.81795633490139" lon="9.885785963280316"><ele>317.33333333333337</ele><time>2026-03-22T09:48:46.998Z</time></trkpt><trkpt lat="44.81802655586906" lon="9.88590751019574"><ele>317.0</ele><time>2026-03-22T09:48:48.998Z</time></trkpt><trkpt lat="44.81807372542742" lon="9.885971398079233"><ele>317.7142857142857</ele><time>2026-03-22T09:48:49.998Z</time></trkpt><trkpt lat="44.81812515705983" lon="9.886032704461003"><ele>318.42857142857144</ele><time>2026-03-22T09:48:50.998Z</time></trkpt><trkpt lat="44.81818893430005" lon="9.88607087031388"><ele>319.1428571428571</ele><time>2026-03-22T09:48:51.998Z</time></trkpt><trkpt lat="44.81824455168143" lon="9.88612398298412"><ele>319.8571428571429</ele><time>2026-03-22T09:48:52.998Z</time></trkpt><trkpt lat="44.81830924613594" lon="9.886166053526061"><ele>320.57142857142856</ele><time>2026-03-22T09:48:53.998Z</time></trkpt><trkpt lat="44.818379595471214" lon="9.886196765558408"><ele>321.2857142857143</ele><time>2026-03-22T09:48:54.998Z</time></trkpt><trkpt lat="44.81845638918238" lon="9.886212166218847"><ele>322.0</ele><time>2026-03-22T09:48:55.998Z</time></trkpt><trkpt lat="44.818541742498454" lon="9.886220969669067"><ele>322.0</ele><time>2026-03-22T09:48:56.998Z</time></trkpt><trkpt lat="44.818629919538964" lon="9.88623858706853"><ele>322.0</ele><time>2026-03-22T09:48:57.998Z</time></trkpt><trkpt lat="44.8187182970071" lon="9.886248860046193"><ele>322.0</ele><time>2026-03-22T09:48:58.998Z</time></trkpt><trkpt lat="44.81880505531396" lon="9.88624411348424"><ele>322.0</ele><time>2026-03-22T09:48:59.998Z</time></trkpt><trkpt lat="44.818888501908155" lon="9.88623008355537"><ele>322.0</ele><time>2026-03-22T09:49:00.998Z</time></trkpt><trkpt lat="44.8189684031736" lon="9.886208921174443"><ele>322.0</ele><time>2026-03-22T09:49:01.998Z</time></trkpt><trkpt lat="44.81905071469773" lon="9.886193349451517"><ele>322.0</ele><time>2026-03-22T09:49:02.998Z</time></trkpt><trkpt lat="44.81914318555744" lon="9.886203891936862"><ele>322.0</ele><time>2026-03-22T09:49:03.998Z</time></trkpt><trkpt lat="44.819234512334596" lon="9.88621893283005"><ele>322.0</ele><time>2026-03-22T09:49:04.998Z</time></trkpt><trkpt lat="44.81933217677672" lon="9.886227334504957"><ele>322.0</ele><time>2026-03-22T09:49:05.998Z</time></trkpt><trkpt lat="44.8194353530278" lon="9.886235194624984"><ele>322.0</ele><time>2026-03-22T09:49:06.998Z</time></trkpt><trkpt lat="44.81953860604302" lon="9.886232630935094"><ele>317.6</ele><time>2026-03-22T09:49:07.998Z</time></trkpt><trkpt lat="44.81963992466639" lon="9.886216002704195"><ele>313.20000000000005</ele><time>2026-03-22T09:49:08.998Z</time></trkpt><trkpt lat="44.819733934305276" lon="9.886138883380594"><ele>308.8</ele><time>2026-03-22T09:49:09.998Z</time></trkpt><trkpt lat="44.819829529651955" lon="9.886073020773145"><ele>304.4</ele><time>2026-03-22T09:49:10.998Z</time></trkpt><trkpt lat="44.819921782717245" lon="9.885989027025094"><ele>300.0</ele><time>2026-03-22T09:49:11.998Z</time></trkpt><trkpt lat="44.82001307145152" lon="9.885908844303058"><ele>299.0</ele><time>2026-03-22T09:49:12.998Z</time></trkpt><trkpt lat="44.82010081798224" lon="9.885832777506232"><ele>298.0</ele><time>2026-03-22T09:49:13.998Z</time></trkpt><trkpt lat="44.820182514322056" lon="9.885762882696785"><ele>297.0</ele><time>2026-03-22T09:49:14.998Z</time></trkpt><trkpt lat="44.820261505658" lon="9.885697167300412"><ele>296.0</ele><time>2026-03-22T09:49:15.998Z</time></trkpt><trkpt lat="44.82032666621175" lon="9.885627371470354"><ele>295.0</ele><time>2026-03-22T09:49:17Z</time></trkpt><trkpt lat="44.82035355231625" lon="9.88552866700806"><ele>294.0</ele><time>2026-03-22T09:49:18Z</time></trkpt><trkpt lat="44.820334331650876" lon="9.885419756987655"><ele>294.0</ele><time>2026-03-22T09:49:19Z</time></trkpt><trkpt lat="44.82026814601503" lon="9.885332027038935"><ele>294.0</ele><time>2026-03-22T09:49:20Z</time></trkpt><trkpt lat="44.820193891494036" lon="9.885252548399194"><ele>294.0</ele><time>2026-03-22T09:49:21Z</time></trkpt><trkpt lat="44.82012646522577" lon="9.885155161090154"><ele>294.0</ele><time>2026-03-22T09:49:22Z</time></trkpt><trkpt lat="44.82007241193593" lon="9.88503620033113"><ele>294.0</ele><time>2026-03-22T09:49:23Z</time></trkpt><trkpt lat="44.820017361495964" lon="9.88491750714325"><ele>293.0</ele><time>2026-03-22T09:49:24Z</time></trkpt><trkpt lat="44.81996888881387" lon="9.884799148406184"><ele>292.0</ele><time>2026-03-22T09:49:25Z</time></trkpt><trkpt lat="44.81993030829013" lon="9.884682202362985"><ele>291.0</ele><time>2026-03-22T09:49:26Z</time></trkpt><trkpt lat="44.819887122445934" lon="9.884568236483986"><ele>290.0</ele><time>2026-03-22T09:49:27Z</time></trkpt><trkpt lat="44.81984472908102" lon="9.884453023381061"><ele>289.0</ele><time>2026-03-22T09:49:28Z</time></trkpt><trkpt lat="44.81979872698799" lon="9.884347376777473"><ele>287.59999999999997</ele><time>2026-03-22T09:49:29Z</time></trkpt><trkpt lat="44.819752588042554" lon="9.88423988868346"><ele>286.2</ele><time>2026-03-22T09:49:30Z</time></trkpt><trkpt lat="44.81971540236069" lon="9.884121357699696"><ele>284.79999999999995</ele><time>2026-03-22T09:49:31Z</time></trkpt><trkpt lat="44.81969799124308" lon="9.88400020643738"><ele>283.4</ele><time>2026-03-22T09:49:32Z</time></trkpt><trkpt lat="44.819688595005125" lon="9.88387418031636"><ele>282.0</ele><time>2026-03-22T09:49:33Z</time></trkpt><trkpt lat="44.81975141463699" lon="9.883758351494995"><ele>282.0</ele><time>2026-03-22T09:49:34Z</time></trkpt><trkpt lat="44.819809987485485" lon="9.88364514163478"><ele>282.0</ele><time>2026-03-22T09:49:35Z</time></trkpt><trkpt lat="44.819877933680566" lon="9.883538116223182"><ele>282.0</ele><time>2026-03-22T09:49:36Z</time></trkpt><trkpt lat="44.81995050615792" lon="9.883434052011612"><ele>282.0</ele><time>2026-03-22T09:49:37Z</time></trkpt><trkpt lat="44.8200240414575" lon="9.883325638742095"><ele>282.0</ele><time>2026-03-22T09:49:38Z</time></trkpt><trkpt lat="44.820100455667074" lon="9.883214897510594"><ele>277.0</ele><time>2026-03-22T09:49:39Z</time></trkpt><trkpt lat="44.82017904250867" lon="9.883098216304907"><ele>272.0</ele><time>2026-03-22T09:49:40Z</time></trkpt><trkpt lat="44.820257125008034" lon="9.882981093002552"><ele>267.0</ele><time>2026-03-22T09:49:41Z</time></trkpt><trkpt lat="44.82031659303944" lon="9.882844929582225"><ele>262.0</ele><time>2026-03-22T09:49:42Z</time></trkpt><trkpt lat="44.82038509165899" lon="9.882718584490055"><ele>261.75</ele><time>2026-03-22T09:49:43Z</time></trkpt><trkpt lat="44.82041043267157" lon="9.882560062208997"><ele>261.5</ele><time>2026-03-22T09:49:44Z</time></trkpt><trkpt lat="44.820408276461244" lon="9.882392278030501"><ele>261.25</ele><time>2026-03-22T09:49:45Z</time></trkpt><trkpt lat="44.820412471824376" lon="9.882219202946068"><ele>261.0</ele><time>2026-03-22T09:49:46Z</time></trkpt><trkpt lat="44.82041756572581" lon="9.882049878842885"><ele>261.0</ele><time>2026-03-22T09:49:47Z</time></trkpt><trkpt lat="44.82043529962887" lon="9.881885265585534"><ele>261.0</ele><time>2026-03-22T09:49:48Z</time></trkpt><trkpt lat="44.82043716135708" lon="9.881724330931487"><ele>261.0</ele><time>2026-03-22T09:49:48.999Z</time></trkpt><trkpt lat="44.820436828743965" lon="9.881575379965726"><ele>261.0</ele><time>2026-03-22T09:49:49.999Z</time></trkpt><trkpt lat="44.82043832732128" lon="9.881440886270633"><ele>261.0</ele><time>2026-03-22T09:49:50.999Z</time></trkpt><trkpt lat="44.82046851543286" lon="9.881321680041706"><ele>260.6</ele><time>2026-03-22T09:49:51.999Z</time></trkpt><trkpt lat="44.8205346264907" lon="9.881233501754128"><ele>260.20000000000005</ele><time>2026-03-22T09:49:52.999Z</time></trkpt><trkpt lat="44.82063018433537" lon="9.881218005481868"><ele>259.79999999999995</ele><time>2026-03-22T09:49:53.999Z</time></trkpt><trkpt lat="44.820731855385674" lon="9.881183537374735"><ele>259.4</ele><time>2026-03-22T09:49:54.999Z</time></trkpt><trkpt lat="44.82083505241086" lon="9.88118917263256"><ele>259.0</ele><time>2026-03-22T09:49:55.999Z</time></trkpt><trkpt lat="44.820934367344265" lon="9.881179849018485"><ele>257.16666666666663</ele><time>2026-03-22T09:49:56.999Z</time></trkpt><trkpt lat="44.82102697719323" lon="9.88116496505165"><ele>255.33333333333331</ele><time>2026-03-22T09:49:57.999Z</time></trkpt><trkpt lat="44.82111013789521" lon="9.88116741462118"><ele>253.5</ele><time>2026-03-22T09:49:58.999Z</time></trkpt><trkpt lat="44.82118366340778" lon="9.881197417727767"><ele>251.66666666666669</ele><time>2026-03-22T09:49:59.999Z</time></trkpt><trkpt lat="44.82121905802459" lon="9.881297955802319"><ele>249.83333333333334</ele><time>2026-03-22T09:50:00.999Z</time></trkpt><trkpt lat="44.821262514400345" lon="9.881400386331986"><ele>248.0</ele><time>2026-03-22T09:50:01.999Z</time></trkpt><trkpt lat="44.821301155402296" lon="9.881513900251878"><ele>248.0</ele><time>2026-03-22T09:50:02.999Z</time></trkpt><trkpt lat="44.821334270046584" lon="9.881641459802182"><ele>248.0</ele><time>2026-03-22T09:50:03.999Z</time></trkpt><trkpt lat="44.821371816585675" lon="9.881780612524897"><ele>248.0</ele><time>2026-03-22T09:50:04.999Z</time></trkpt><trkpt lat="44.821417611278285" lon="9.881925621628689"><ele>248.0</ele><time>2026-03-22T09:50:05.999Z</time></trkpt><trkpt lat="44.821485446035865" lon="9.88206969839372"><ele>248.0</ele><time>2026-03-22T09:50:06.999Z</time></trkpt><trkpt lat="44.821559682535224" lon="9.882197186941957"><ele>248.0</ele><time>2026-03-22T09:50:07.999Z</time></trkpt><trkpt lat="44.82162658372032" lon="9.882312386994615"><ele>248.0</ele><time>2026-03-22T09:50:08.999Z</time></trkpt><trkpt lat="44.82169801376393" lon="9.882410834234355"><ele>248.0</ele><time>2026-03-22T09:50:09.999Z</time></trkpt><trkpt lat="44.821781704600454" lon="9.882475056256762"><ele>248.0</ele><time>2026-03-22T09:50:10.999Z</time></trkpt><trkpt lat="44.82188309476294" lon="9.88246281240663"><ele>248.0</ele><time>2026-03-22T09:50:11.999Z</time></trkpt><trkpt lat="44.82198499433026" lon="9.882419031148409"><ele>243.5</ele><time>2026-03-22T09:50:12.999Z</time></trkpt><trkpt lat="44.82208273010158" lon="9.882348747207748"><ele>239.0</ele><time>2026-03-22T09:50:13.999Z</time></trkpt><trkpt lat="44.82218327425822" lon="9.882270236319878"><ele>234.5</ele><time>2026-03-22T09:50:14.999Z</time></trkpt><trkpt lat="44.822293427597764" lon="9.882199713677354"><ele>230.0</ele><time>2026-03-22T09:50:15.999Z</time></trkpt><trkpt lat="44.82241036586025" lon="9.882141520326885"><ele>230.0</ele><time>2026-03-22T09:50:16.999Z</time></trkpt><trkpt lat="44.822526440258954" lon="9.88206566874988"><ele>230.0</ele><time>2026-03-22T09:50:17.999Z</time></trkpt><trkpt lat="44.82264194342395" lon="9.881985986115472"><ele>230.0</ele><time>2026-03-22T09:50:18.999Z</time></trkpt><trkpt lat="44.822759065427" lon="9.881903713108711"><ele>230.0</ele><time>2026-03-22T09:50:19.999Z</time></trkpt><trkpt lat="44.822875401698184" lon="9.881824334430759"><ele>227.25</ele><time>2026-03-22T09:50:20.999Z</time></trkpt><trkpt lat="44.82298615011444" lon="9.881749844756822"><ele>224.5</ele><time>2026-03-22T09:50:21.999Z</time></trkpt><trkpt lat="44.823095949845595" lon="9.881683032047949"><ele>221.75</ele><time>2026-03-22T09:50:22.999Z</time></trkpt><trkpt lat="44.823204945793634" lon="9.881609434184005"><ele>219.0</ele><time>2026-03-22T09:50:23.999Z</time></trkpt><trkpt lat="44.82330861570965" lon="9.881532393805056"><ele>219.0</ele><time>2026-03-22T09:50:24.999Z</time></trkpt><trkpt lat="44.823406681157124" lon="9.881441709750861"><ele>219.0</ele><time>2026-03-22T09:50:25.999Z</time></trkpt><trkpt lat="44.82349289331292" lon="9.88132986257862"><ele>219.0</ele><time>2026-03-22T09:50:26.999Z</time></trkpt><trkpt lat="44.82356930417338" lon="9.881211999943085"><ele>219.0</ele><time>2026-03-22T09:50:27.999Z</time></trkpt><trkpt lat="44.82363869657744" lon="9.881091871484655"><ele>216.79999999999998</ele><time>2026-03-22T09:50:28.999Z</time></trkpt><trkpt lat="44.82370680115739" lon="9.880960719517141"><ele>214.59999999999997</ele><time>2026-03-22T09:50:29.999Z</time></trkpt><trkpt lat="44.8237644589452" lon="9.880837930344796"><ele>212.4</ele><time>2026-03-22T09:50:30.999Z</time></trkpt><trkpt lat="44.823822007404786" lon="9.880733795067101"><ele>210.2</ele><time>2026-03-22T09:50:31.999Z</time></trkpt><trkpt lat="44.82387642658726" lon="9.880639403083501"><ele>208.0</ele><time>2026-03-22T09:50:32.999Z</time></trkpt><trkpt lat="44.82392838897444" lon="9.880557867508951"><ele>207.99999999999997</ele><time>2026-03-22T09:50:33.999Z</time></trkpt><trkpt lat="44.82399196888783" lon="9.8805111920402"><ele>208.0</ele><time>2026-03-22T09:50:34.999Z</time></trkpt><trkpt lat="44.82405851971866" lon="9.880525162154933"><ele>208.0</ele><time>2026-03-22T09:50:35.999Z</time></trkpt><trkpt lat="44.82407194013163" lon="9.880637446803233"><ele>208.0</ele><time>2026-03-22T09:50:36.999Z</time></trkpt><trkpt lat="44.82405636973145" lon="9.88073503852572"><ele>207.99999999999997</ele><time>2026-03-22T09:50:37.999Z</time></trkpt><trkpt lat="44.82406423229341" lon="9.880845700498869"><ele>208.0</ele><time>2026-03-22T09:50:38.999Z</time></trkpt><trkpt lat="44.82407251754256" lon="9.880962311583165"><ele>207.99999999999997</ele><time>2026-03-22T09:50:39.999Z</time></trkpt><trkpt lat="44.82407956867871" lon="9.881077276845865"><ele>208.0</ele><time>2026-03-22T09:50:40.999Z</time></trkpt><trkpt lat="44.82408368917325" lon="9.881191241990477"><ele>208.0</ele><time>2026-03-22T09:50:41.998Z</time></trkpt><trkpt lat="44.82408216184378" lon="9.881308070863668"><ele>208.0</ele><time>2026-03-22T09:50:42.998Z</time></trkpt><trkpt lat="44.82406803816837" lon="9.881422632998632"><ele>207.99999999999997</ele><time>2026-03-22T09:50:43.998Z</time></trkpt><trkpt lat="44.824052515554165" lon="9.881539223936379"><ele>208.0</ele><time>2026-03-22T09:50:44.998Z</time></trkpt><trkpt lat="44.824040974547266" lon="9.881638569002186"><ele>208.0</ele><time>2026-03-22T09:50:45.998Z</time></trkpt><trkpt lat="44.824059263910144" lon="9.881758644238047"><ele>208.0</ele><time>2026-03-22T09:50:46.998Z</time></trkpt><trkpt lat="44.82413780622458" lon="9.881837869451621"><ele>208.0</ele><time>2026-03-22T09:50:47.998Z</time></trkpt><trkpt lat="44.8242484557205" lon="9.881797565471942"><ele>208.0</ele><time>2026-03-22T09:50:48.998Z</time></trkpt><trkpt lat="44.82432853758349" lon="9.88176419535973"><ele>208.0</ele><time>2026-03-22T09:50:49.998Z</time></trkpt><trkpt lat="44.82441217557538" lon="9.88171844641401"><ele>206.60000000000002</ele><time>2026-03-22T09:50:50.998Z</time></trkpt><trkpt lat="44.82449993244161" lon="9.881672835617303"><ele>205.20000000000002</ele><time>2026-03-22T09:50:51.998Z</time></trkpt><trkpt lat="44.82458836553506" lon="9.881630063064902"><ele>203.8</ele><time>2026-03-22T09:50:52.998Z</time></trkpt><trkpt lat="44.82467604807247" lon="9.881561732274237"><ele>202.4</ele><time>2026-03-22T09:50:53.998Z</time></trkpt><trkpt lat="44.824755564033254" lon="9.881468901070681"><ele>201.0</ele><time>2026-03-22T09:50:54.998Z</time></trkpt><trkpt lat="44.824817695408136" lon="9.881353118535584"><ele>201.0</ele><time>2026-03-22T09:50:55.998Z</time></trkpt><trkpt lat="44.82486553714705" lon="9.881234075007246"><ele>201.0</ele><time>2026-03-22T09:50:56.998Z</time></trkpt><trkpt lat="44.82491313006418" lon="9.881123667431803"><ele>201.0</ele><time>2026-03-22T09:50:57.998Z</time></trkpt><trkpt lat="44.82497724316267" lon="9.881029708597097"><ele>201.0</ele><time>2026-03-22T09:50:58.998Z</time></trkpt><trkpt lat="44.8250699252491" lon="9.88097197308501"><ele>201.0</ele><time>2026-03-22T09:50:59.998Z</time></trkpt><trkpt lat="44.82516778060593" lon="9.880942352537662"><ele>199.0</ele><time>2026-03-22T09:51:00.998Z</time></trkpt><trkpt lat="44.82527047538902" lon="9.88091555163421"><ele>197.0</ele><time>2026-03-22T09:51:01.998Z</time></trkpt><trkpt lat="44.82537354395172" lon="9.880894788727606"><ele>195.0</ele><time>2026-03-22T09:51:02.998Z</time></trkpt><trkpt lat="44.82547881019441" lon="9.88089199638746"><ele>193.0</ele><time>2026-03-22T09:51:03.998Z</time></trkpt><trkpt lat="44.825585263587094" lon="9.880904707116137"><ele>191.0</ele><time>2026-03-22T09:51:04.998Z</time></trkpt><trkpt lat="44.82569166449965" lon="9.880930821053724"><ele>191.4</ele><time>2026-03-22T09:51:05.998Z</time></trkpt><trkpt lat="44.82579477470097" lon="9.88096735674877"><ele>191.8</ele><time>2026-03-22T09:51:06.998Z</time></trkpt><trkpt lat="44.825898214554705" lon="9.880998868037102"><ele>192.20000000000002</ele><time>2026-03-22T09:51:07.998Z</time></trkpt><trkpt lat="44.82600128262301" lon="9.881024806768949"><ele>192.60000000000002</ele><time>2026-03-22T09:51:08.998Z</time></trkpt><trkpt lat="44.82610218621463" lon="9.88105410979651"><ele>193.0</ele><time>2026-03-22T09:51:09.998Z</time></trkpt><trkpt lat="44.826202430291254" lon="9.881085891202513"><ele>191.8</ele><time>2026-03-22T09:51:10.998Z</time></trkpt><trkpt lat="44.82629918463833" lon="9.881114499963768"><ele>190.60000000000002</ele><time>2026-03-22T09:51:11.998Z</time></trkpt><trkpt lat="44.826393661904014" lon="9.881139707411554"><ele>189.39999999999998</ele><time>2026-03-22T09:51:12.998Z</time></trkpt><trkpt lat="44.82648769891006" lon="9.881155402151819"><ele>188.2</ele><time>2026-03-22T09:51:13.998Z</time></trkpt><trkpt lat="44.82657730105535" lon="9.881159525003083"><ele>187.0</ele><time>2026-03-22T09:51:14.998Z</time></trkpt><trkpt lat="44.82666344909022" lon="9.881138762909009"><ele>187.0</ele><time>2026-03-22T09:51:15.998Z</time></trkpt><trkpt lat="44.82674148248109" lon="9.881094202951548"><ele>187.0</ele><time>2026-03-22T09:51:16.998Z</time></trkpt><trkpt lat="44.82680874953269" lon="9.881056916020976"><ele>187.0</ele><time>2026-03-22T09:51:17.998Z</time></trkpt><trkpt lat="44.82687094533398" lon="9.881024756774591"><ele>187.0</ele><time>2026-03-22T09:51:18.998Z</time></trkpt><trkpt lat="44.82697142119166" lon="9.880979508532642"><ele>187.0</ele><time>2026-03-22T09:51:20.998Z</time></trkpt><trkpt lat="44.82705539553228" lon="9.880936123988691"><ele>187.0</ele><time>2026-03-22T09:51:23Z</time></trkpt><trkpt lat="44.82711944107051" lon="9.880893928425467"><ele>188.83333333333334</ele><time>2026-03-22T09:51:25Z</time></trkpt><trkpt lat="44.82720568899639" lon="9.880842681849455"><ele>190.66666666666669</ele><time>2026-03-22T09:51:28Z</time></trkpt><trkpt lat="44.8272840899817" lon="9.880798418684336"><ele>192.5</ele><time>2026-03-22T09:51:31Z</time></trkpt><trkpt lat="44.82735725441074" lon="9.880745291507056"><ele>194.33333333333334</ele><time>2026-03-22T09:51:34Z</time></trkpt><trkpt lat="44.82742675746311" lon="9.8807080021855"><ele>196.16666666666666</ele><time>2026-03-22T09:51:37Z</time></trkpt><trkpt lat="44.82749553721255" lon="9.88070556044528"><ele>198.0</ele><time>2026-03-22T09:51:40Z</time></trkpt><trkpt lat="44.82756707490905" lon="9.880739202659754"><ele>198.0</ele><time>2026-03-22T09:51:44Z</time></trkpt><trkpt lat="44.82763692912514" lon="9.880725863224399"><ele>198.0</ele><time>2026-03-22T09:51:47Z</time></trkpt><trkpt lat="44.827707440332475" lon="9.880689214419045"><ele>198.0</ele><time>2026-03-22T09:51:50Z</time></trkpt><trkpt lat="44.827773800012004" lon="9.880661924882387"><ele>198.0</ele><time>2026-03-22T09:51:53Z</time></trkpt><trkpt lat="44.82784276467135" lon="9.880634239346568"><ele>198.0</ele><time>2026-03-22T09:51:55.999Z</time></trkpt><trkpt lat="44.82791202108653" lon="9.880609923639895"><ele>198.0</ele><time>2026-03-22T09:51:57.999Z</time></trkpt><trkpt lat="44.82800155697221" lon="9.880570036385688"><ele>198.33333333333334</ele><time>2026-03-22T09:52:01.999Z</time></trkpt><trkpt lat="44.82808241885124" lon="9.88055216750027"><ele>198.66666666666669</ele><time>2026-03-22T09:52:04.999Z</time></trkpt><trkpt lat="44.82815556113098" lon="9.880518191791225"><ele>199.0</ele><time>2026-03-22T09:52:08.999Z</time></trkpt><trkpt lat="44.82823219867525" lon="9.880493491812233"><ele>199.33333333333334</ele><time>2026-03-22T09:52:11.999Z</time></trkpt><trkpt lat="44.82831128027118" lon="9.880461230916923"><ele>199.66666666666669</ele><time>2026-03-22T09:52:14.999Z</time></trkpt><trkpt lat="44.82837813731145" lon="9.880432076173603"><ele>200.0</ele><time>2026-03-22T09:52:17.999Z</time></trkpt><trkpt lat="44.828440335690864" lon="9.880403294475414"><ele>199.8</ele><time>2026-03-22T09:52:19.999Z</time></trkpt><trkpt lat="44.82850624755005" lon="9.880371694464706"><ele>199.6</ele><time>2026-03-22T09:52:22.999Z</time></trkpt><trkpt lat="44.82857115942846" lon="9.880334272523063"><ele>199.39999999999998</ele><time>2026-03-22T09:52:23.999Z</time></trkpt><trkpt lat="44.82864405615741" lon="9.880279444886423"><ele>199.2</ele><time>2026-03-22T09:52:26.999Z</time></trkpt><trkpt lat="44.82869946706016" lon="9.880235609686185"><ele>199.0</ele><time>2026-03-22T09:52:27.999Z</time></trkpt><trkpt lat="44.828858730396604" lon="9.880118732818941"><ele>199.79999999999998</ele><time>2026-03-22T09:52:30.999Z</time></trkpt><trkpt lat="44.828936238788394" lon="9.880058479808172"><ele>200.6</ele><time>2026-03-22T09:52:32.999Z</time></trkpt><trkpt lat="44.82901173489532" lon="9.879985474610693"><ele>201.4</ele><time>2026-03-22T09:52:34.999Z</time></trkpt><trkpt lat="44.82907868414832" lon="9.87989331206496"><ele>202.2</ele><time>2026-03-22T09:52:36.999Z</time></trkpt><trkpt lat="44.82914275959317" lon="9.879781572904202"><ele>203.0</ele><time>2026-03-22T09:52:38.999Z</time></trkpt><trkpt lat="44.82920266471054" lon="9.879671895032986"><ele>203.0</ele><time>2026-03-22T09:52:40.999Z</time></trkpt><trkpt lat="44.8292647680893" lon="9.879565582038998"><ele>203.0</ele><time>2026-03-22T09:52:42.999Z</time></trkpt><trkpt lat="44.82932802092842" lon="9.879459456729318"><ele>203.0</ele><time>2026-03-22T09:52:44.999Z</time></trkpt><trkpt lat="44.829390606569575" lon="9.879370404490736"><ele>203.0</ele><time>2026-03-22T09:52:46.998Z</time></trkpt><trkpt lat="44.82943813648103" lon="9.87925792089466"><ele>203.0</ele><time>2026-03-22T09:52:48.998Z</time></trkpt><trkpt lat="44.82947760557421" lon="9.879131966477974"><ele>203.60000000000002</ele><time>2026-03-22T09:52:50.998Z</time></trkpt><trkpt lat="44.82950245946396" lon="9.87899060422543"><ele>204.20000000000002</ele><time>2026-03-22T09:52:52.998Z</time></trkpt><trkpt lat="44.82954426167322" lon="9.878853686821909"><ele>204.8</ele><time>2026-03-22T09:52:54.998Z</time></trkpt><trkpt lat="44.829610597689054" lon="9.878736518842292"><ele>205.4</ele><time>2026-03-22T09:52:56.998Z</time></trkpt><trkpt lat="44.82969050464298" lon="9.878644230566435"><ele>206.0</ele><time>2026-03-22T09:52:58.998Z</time></trkpt><trkpt lat="44.82976191817492" lon="9.8785506849016"><ele>206.0</ele><time>2026-03-22T09:53:00.998Z</time></trkpt><trkpt lat="44.82982347906606" lon="9.87844773584111"><ele>206.0</ele><time>2026-03-22T09:53:02.998Z</time></trkpt><trkpt lat="44.82988644257292" lon="9.878345389587214"><ele>206.0</ele><time>2026-03-22T09:53:04.998Z</time></trkpt><trkpt lat="44.82994068800283" lon="9.878233499882588"><ele>206.0</ele><time>2026-03-22T09:53:06.998Z</time></trkpt><trkpt lat="44.83002195928897" lon="9.878153884527407"><ele>206.0</ele><time>2026-03-22T09:53:08.998Z</time></trkpt><trkpt lat="44.830090379276974" lon="9.87811692481526"><ele>206.00000000000003</ele><time>2026-03-22T09:53:10.998Z</time></trkpt><trkpt lat="44.830177755426405" lon="9.878181239717131"><ele>206.0</ele><time>2026-03-22T09:53:12.998Z</time></trkpt><trkpt lat="44.83018067344235" lon="9.878298316187784"><ele>206.0</ele><time>2026-03-22T09:53:14.998Z</time></trkpt><trkpt lat="44.83017382894374" lon="9.878394797932296"><ele>206.0</ele><time>2026-03-22T09:53:16.998Z</time></trkpt><trkpt lat="44.83014303225905" lon="9.878474586375653"><ele>206.00000000000003</ele><time>2026-03-22T09:53:18.998Z</time></trkpt><trkpt lat="44.830114215362144" lon="9.87856414598888"><ele>206.0</ele><time>2026-03-22T09:53:20.998Z</time></trkpt><trkpt lat="44.83007006307162" lon="9.87868547611058"><ele>206.00000000000003</ele><time>2026-03-22T09:53:23.998Z</time></trkpt><trkpt lat="44.83007894235009" lon="9.878774350526557"><ele>206.0</ele><time>2026-03-22T09:53:25.998Z</time></trkpt><trkpt lat="44.830049397551946" lon="9.878891690105263"><ele>206.0</ele><time>2026-03-22T09:53:29Z</time></trkpt><trkpt lat="44.83004501539092" lon="9.879002233276637"><ele>206.0</ele><time>2026-03-22T09:53:32Z</time></trkpt><trkpt lat="44.830086020883144" lon="9.879114454533143"><ele>206.00000000000003</ele><time>2026-03-22T09:53:36Z</time></trkpt><trkpt lat="44.83014750971979" lon="9.879199608748266"><ele>206.0</ele><time>2026-03-22T09:53:39Z</time></trkpt><trkpt lat="44.83023241414523" lon="9.879275502100375"><ele>207.83333333333334</ele><time>2026-03-22T09:53:42Z</time></trkpt><trkpt lat="44.83029731922704" lon="9.87932609313186"><ele>209.66666666666669</ele><time>2026-03-22T09:53:45Z</time></trkpt><trkpt lat="44.830356692241196" lon="9.879403214624604"><ele>211.5</ele><time>2026-03-22T09:53:48Z</time></trkpt><trkpt lat="44.83040080341997" lon="9.87947562884456"><ele>213.33333333333331</ele><time>2026-03-22T09:53:51Z</time></trkpt><trkpt lat="44.83045076364529" lon="9.879584472234889"><ele>215.16666666666666</ele><time>2026-03-22T09:53:54Z</time></trkpt><trkpt lat="44.83050442351193" lon="9.879669849849183"><ele>217.0</ele><time>2026-03-22T09:53:57Z</time></trkpt><trkpt lat="44.83057281186874" lon="9.879716816711861"><ele>217.0</ele><time>2026-03-22T09:53:59.999Z</time></trkpt><trkpt lat="44.830664584311855" lon="9.87946630768292"><ele>217.0</ele><time>2026-03-22T09:54:10.999Z</time></trkpt><trkpt lat="44.830651281681405" lon="9.879373764769722"><ele>217.0</ele><time>2026-03-22T09:54:13.999Z</time></trkpt><trkpt lat="44.83064552559846" lon="9.879280393408257"><ele>217.0</ele><time>2026-03-22T09:54:16.999Z</time></trkpt><trkpt lat="44.830649285988436" lon="9.879191461655148"><ele>217.0</ele><time>2026-03-22T09:54:19.999Z</time></trkpt><trkpt lat="44.830666959831476" lon="9.879101711846122"><ele>218.28571428571428</ele><time>2026-03-22T09:54:22.999Z</time></trkpt><trkpt lat="44.8306830131719" lon="9.87899511048603"><ele>219.57142857142856</ele><time>2026-03-22T09:54:25.999Z</time></trkpt><trkpt lat="44.83069686795765" lon="9.878899924848549"><ele>220.85714285714286</ele><time>2026-03-22T09:54:29.999Z</time></trkpt><trkpt lat="44.83074106103484" lon="9.878796017450709"><ele>222.14285714285714</ele><time>2026-03-22T09:54:33.999Z</time></trkpt><trkpt lat="44.83081629870434" lon="9.878801775353658"><ele>223.42857142857142</ele><time>2026-03-22T09:54:37.999Z</time></trkpt><trkpt lat="44.83082712299342" lon="9.878889451878518"><ele>224.71428571428572</ele><time>2026-03-22T09:54:40.999Z</time></trkpt><trkpt lat="44.830817986700445" lon="9.878993932168093"><ele>226.0</ele><time>2026-03-22T09:54:43.999Z</time></trkpt><trkpt lat="44.83080444151751" lon="9.879095204146525"><ele>225.99999999999997</ele><time>2026-03-22T09:54:47.999Z</time></trkpt><trkpt lat="44.83080658158139" lon="9.879214535148641"><ele>226.0</ele><time>2026-03-22T09:54:51.998Z</time></trkpt><trkpt lat="44.830827989116095" lon="9.879301530885828"><ele>226.0</ele><time>2026-03-22T09:54:54.998Z</time></trkpt><trkpt lat="44.8308732974135" lon="9.87937960679877"><ele>226.0</ele><time>2026-03-22T09:54:57.998Z</time></trkpt><trkpt lat="44.83092713537293" lon="9.879452766193094"><ele>225.99999999999997</ele><time>2026-03-22T09:55:01.998Z</time></trkpt><trkpt lat="44.83100693513551" lon="9.87952637686651"><ele>226.0</ele><time>2026-03-22T09:55:05.998Z</time></trkpt><trkpt lat="44.83106914299363" lon="9.879578456677267"><ele>227.14285714285717</ele><time>2026-03-22T09:55:09.998Z</time></trkpt><trkpt lat="44.831127953322614" lon="9.879614541485658"><ele>228.28571428571428</ele><time>2026-03-22T09:55:12.998Z</time></trkpt><trkpt lat="44.83119205292148" lon="9.879641656479043"><ele>229.42857142857144</ele><time>2026-03-22T09:55:15.998Z</time></trkpt><trkpt lat="44.83127795003509" lon="9.87966055102307"><ele>230.57142857142858</ele><time>2026-03-22T09:55:18.998Z</time></trkpt><trkpt lat="44.83134426431111" lon="9.879687587331734"><ele>231.71428571428572</ele><time>2026-03-22T09:55:21.998Z</time></trkpt><trkpt lat="44.831405973137734" lon="9.87971807637977"><ele>232.85714285714286</ele><time>2026-03-22T09:55:24.998Z</time></trkpt><trkpt lat="44.8314848666908" lon="9.879754765466028"><ele>234.0</ele><time>2026-03-22T09:55:28.998Z</time></trkpt><trkpt lat="44.831564616374926" lon="9.879790329467628"><ele>234.0</ele><time>2026-03-22T09:55:32.998Z</time></trkpt><trkpt lat="44.83162837046751" lon="9.87981767694185"><ele>234.00000000000003</ele><time>2026-03-22T09:55:36Z</time></trkpt><trkpt lat="44.831692279925186" lon="9.879840465002335"><ele>234.0</ele><time>2026-03-22T09:55:39Z</time></trkpt><trkpt lat="44.831754114304005" lon="9.879860094880712"><ele>234.0</ele><time>2026-03-22T09:55:42Z</time></trkpt><trkpt lat="44.831825211398815" lon="9.879883578524177"><ele>234.00000000000003</ele><time>2026-03-22T09:55:46Z</time></trkpt><trkpt lat="44.83189288704806" lon="9.879911880205242"><ele>234.0</ele><time>2026-03-22T09:55:49Z</time></trkpt><trkpt lat="44.831957862874404" lon="9.879935468679665"><ele>234.0</ele><time>2026-03-22T09:55:52Z</time></trkpt><trkpt lat="44.83202142262175" lon="9.879956206755981"><ele>236.42857142857144</ele><time>2026-03-22T09:55:55Z</time></trkpt><trkpt lat="44.83209013145296" lon="9.87997259110381"><ele>238.8571428571429</ele><time>2026-03-22T09:55:58Z</time></trkpt><trkpt lat="44.83215487946618" lon="9.87998487403262"><ele>241.28571428571428</ele><time>2026-03-22T09:56:01Z</time></trkpt><trkpt lat="44.83222066787805" lon="9.879991139079404"><ele>243.71428571428572</ele><time>2026-03-22T09:56:03.999Z</time></trkpt><trkpt lat="44.83228763750781" lon="9.879980872078962"><ele>246.14285714285714</ele><time>2026-03-22T09:56:06.999Z</time></trkpt><trkpt lat="44.832351931310235" lon="9.879972254770685"><ele>248.57142857142856</ele><time>2026-03-22T09:56:09.999Z</time></trkpt><trkpt lat="44.832420056283055" lon="9.879955618887891"><ele>250.99999999999997</ele><time>2026-03-22T09:56:12.999Z</time></trkpt><trkpt lat="44.83248392114054" lon="9.879932560566736"><ele>250.99999999999997</ele><time>2026-03-22T09:56:15.999Z</time></trkpt><trkpt lat="44.83255329883813" lon="9.879913654533924"><ele>251.0</ele><time>2026-03-22T09:56:19.999Z</time></trkpt><trkpt lat="44.83263090751579" lon="9.879893693153516"><ele>250.99999999999997</ele><time>2026-03-22T09:56:23.999Z</time></trkpt><trkpt lat="44.83270292131626" lon="9.879946424238177"><ele>250.99999999999997</ele><time>2026-03-22T09:56:27.999Z</time></trkpt><trkpt lat="44.83274568805154" lon="9.880045883456058"><ele>251.0</ele><time>2026-03-22T09:56:30.999Z</time></trkpt><trkpt lat="44.83277122583023" lon="9.880132031539702"><ele>250.99999999999997</ele><time>2026-03-22T09:56:33.999Z</time></trkpt><trkpt lat="44.83279440325235" lon="9.8802171776348"><ele>250.99999999999997</ele><time>2026-03-22T09:56:36.999Z</time></trkpt><trkpt lat="44.83282963721527" lon="9.880301538635546"><ele>253.4285714285714</ele><time>2026-03-22T09:56:39.999Z</time></trkpt><trkpt lat="44.83286351971042" lon="9.880383640460243"><ele>255.85714285714283</ele><time>2026-03-22T09:56:42.999Z</time></trkpt><trkpt lat="44.83289836594141" lon="9.880468126617407"><ele>258.2857142857143</ele><time>2026-03-22T09:56:45.999Z</time></trkpt><trkpt lat="44.83293819461937" lon="9.880544349600262"><ele>260.71428571428567</ele><time>2026-03-22T09:56:48.999Z</time></trkpt><trkpt lat="44.83297857923155" lon="9.880614911648014"><ele>263.1428571428571</ele><time>2026-03-22T09:56:51.999Z</time></trkpt><trkpt lat="44.83302630274448" lon="9.880683739013298"><ele>265.57142857142856</ele><time>2026-03-22T09:56:54.999Z</time></trkpt><trkpt lat="44.83307122870337" lon="9.88075096593343"><ele>268.0</ele><time>2026-03-22T09:56:57.998Z</time></trkpt><trkpt lat="44.83311878431969" lon="9.880809712647281"><ele>268.0</ele><time>2026-03-22T09:57:00.998Z</time></trkpt><trkpt lat="44.83316370773545" lon="9.88087842471741"><ele>268.0</ele><time>2026-03-22T09:57:03.998Z</time></trkpt><trkpt lat="44.83320370796687" lon="9.880952228246027"><ele>268.0</ele><time>2026-03-22T09:57:06.998Z</time></trkpt><trkpt lat="44.83324580073646" lon="9.881020848000997"><ele>268.0</ele><time>2026-03-22T09:57:09.998Z</time></trkpt><trkpt lat="44.83330430798244" lon="9.881064837950825"><ele>268.0</ele><time>2026-03-22T09:57:12.998Z</time></trkpt><trkpt lat="44.83337048583961" lon="9.881009112351286"><ele>268.0</ele><time>2026-03-22T09:57:15.998Z</time></trkpt><trkpt lat="44.83336602933371" lon="9.880897856674055"><ele>268.0</ele><time>2026-03-22T09:57:18.998Z</time></trkpt><trkpt lat="44.83333270381274" lon="9.880807707912838"><ele>268.0</ele><time>2026-03-22T09:57:21.998Z</time></trkpt><trkpt lat="44.83329432195402" lon="9.880705129979992"><ele>268.0</ele><time>2026-03-22T09:57:25.998Z</time></trkpt><trkpt lat="44.833252275105856" lon="9.880609454997604"><ele>268.0</ele><time>2026-03-22T09:57:28.998Z</time></trkpt><trkpt lat="44.83322065974354" lon="9.880513457571388"><ele>268.0</ele><time>2026-03-22T09:57:32.998Z</time></trkpt><trkpt lat="44.83319391419699" lon="9.880432653241535"><ele>268.0</ele><time>2026-03-22T09:57:35.998Z</time></trkpt><trkpt lat="44.83318318164841" lon="9.880342133990343"><ele>268.0</ele><time>2026-03-22T09:57:38.998Z</time></trkpt><trkpt lat="44.83317419360264" lon="9.880248771476108"><ele>268.0</ele><time>2026-03-22T09:57:42Z</time></trkpt><trkpt lat="44.833166026852986" lon="9.88013600196092"><ele>268.57142857142856</ele><time>2026-03-22T09:57:46Z</time></trkpt><trkpt lat="44.833163827597225" lon="9.880012974473775"><ele>269.1428571428571</ele><time>2026-03-22T09:57:50Z</time></trkpt><trkpt lat="44.83317277021776" lon="9.879908637707596"><ele>269.71428571428567</ele><time>2026-03-22T09:57:54Z</time></trkpt><trkpt lat="44.83318570239342" lon="9.879800906398739"><ele>270.2857142857143</ele><time>2026-03-22T09:57:57Z</time></trkpt><trkpt lat="44.83319703553082" lon="9.879711924465559"><ele>270.85714285714283</ele><time>2026-03-22T09:58:00Z</time></trkpt><trkpt lat="44.8332023094061" lon="9.879622188691634"><ele>271.4285714285714</ele><time>2026-03-22T09:58:03Z</time></trkpt><trkpt lat="44.83318978896349" lon="9.879527942314548"><ele>272.0</ele><time>2026-03-22T09:58:06Z</time></trkpt><trkpt lat="44.83316820323108" lon="9.87943942915693"><ele>271.99999999999994</ele><time>2026-03-22T09:58:08.999Z</time></trkpt><trkpt lat="44.83314362343932" lon="9.879353700452903"><ele>272.0</ele><time>2026-03-22T09:58:11.999Z</time></trkpt><trkpt lat="44.83311173185323" lon="9.87926844806211"><ele>272.0</ele><time>2026-03-22T09:58:14.999Z</time></trkpt><trkpt lat="44.833091045478234" lon="9.879181607304487"><ele>272.0</ele><time>2026-03-22T09:58:17.999Z</time></trkpt><trkpt lat="44.833094285083064" lon="9.879089026960672"><ele>272.0</ele><time>2026-03-22T09:58:20.999Z</time></trkpt><trkpt lat="44.833130470494375" lon="9.87901407855884"><ele>271.99999999999994</ele><time>2026-03-22T09:58:23.999Z</time></trkpt><trkpt lat="44.83318869703557" lon="9.878975564974922"><ele>272.0</ele><time>2026-03-22T09:58:26.999Z</time></trkpt><trkpt lat="44.8334035166489" lon="9.87897010186571"><ele>272.71428571428567</ele><time>2026-03-22T09:58:39.999Z</time></trkpt><trkpt lat="44.8334215140982" lon="9.87887778251291"><ele>273.42857142857144</ele><time>2026-03-22T09:58:45.999Z</time></trkpt><trkpt lat="44.833429221893" lon="9.878781888295146"><ele>274.1428571428571</ele><time>2026-03-22T09:58:52.999Z</time></trkpt><trkpt lat="44.83341972297036" lon="9.878671173119047"><ele>274.85714285714283</ele><time>2026-03-22T10:00:19.999Z</time></trkpt><trkpt lat="44.83344296459241" lon="9.878582571212517"><ele>275.57142857142856</ele><time>2026-03-22T10:00:23.999Z</time></trkpt><trkpt lat="44.83346681423969" lon="9.878474892428805"><ele>276.2857142857143</ele><time>2026-03-22T10:00:27.999Z</time></trkpt><trkpt lat="44.83348586109107" lon="9.878359380714077"><ele>277.0</ele><time>2026-03-22T10:00:31.999Z</time></trkpt><trkpt lat="44.833511985791766" lon="9.878249565186426"><ele>277.0</ele><time>2026-03-22T10:00:34.999Z</time></trkpt><trkpt lat="44.833536221246895" lon="9.878146248569136"><ele>277.0</ele><time>2026-03-22T10:00:37.999Z</time></trkpt><trkpt lat="44.83357326692425" lon="9.878053644804426"><ele>277.0</ele><time>2026-03-22T10:00:40.999Z</time></trkpt><trkpt lat="44.833628005321074" lon="9.877965775764565"><ele>277.0</ele><time>2026-03-22T10:00:43.999Z</time></trkpt><trkpt lat="44.833698255380405" lon="9.877892643702383"><ele>277.0</ele><time>2026-03-22T10:00:46.999Z</time></trkpt><trkpt lat="44.833773039539736" lon="9.877846825800509"><ele>277.0</ele><time>2026-03-22T10:00:49.999Z</time></trkpt><trkpt lat="44.83384677326195" lon="9.877814026723154"><ele>277.0</ele><time>2026-03-22T10:00:52.999Z</time></trkpt><trkpt lat="44.833932691087185" lon="9.87779119766814"><ele>277.0</ele><time>2026-03-22T10:00:55.999Z</time></trkpt><trkpt lat="44.834012903799255" lon="9.87778126039448"><ele>277.0</ele><time>2026-03-22T10:00:57.999Z</time></trkpt><trkpt lat="44.834085347635984" lon="9.877777451047626"><ele>277.0</ele><time>2026-03-22T10:01:00.999Z</time></trkpt><trkpt lat="44.83416207232426" lon="9.877786550851942"><ele>277.0</ele><time>2026-03-22T10:01:03.998Z</time></trkpt><trkpt lat="44.83424484631923" lon="9.87779950846496"><ele>277.0</ele><time>2026-03-22T10:01:06.998Z</time></trkpt><trkpt lat="44.83432832445403" lon="9.877815674265346"><ele>277.8333333333333</ele><time>2026-03-22T10:01:09.998Z</time></trkpt><trkpt lat="44.83443565270443" lon="9.877844909840881"><ele>278.66666666666663</ele><time>2026-03-22T10:01:12.998Z</time></trkpt><trkpt lat="44.83450368013751" lon="9.877871717927391"><ele>279.5</ele><time>2026-03-22T10:01:15.998Z</time></trkpt><trkpt lat="44.83458728244336" lon="9.877905962770242"><ele>280.3333333333333</ele><time>2026-03-22T10:01:18.998Z</time></trkpt><trkpt lat="44.83464954604038" lon="9.877933250037007"><ele>281.1666666666667</ele><time>2026-03-22T10:01:20.998Z</time></trkpt><trkpt lat="44.83474473645133" lon="9.877987455719241"><ele>282.0</ele><time>2026-03-22T10:01:22.998Z</time></trkpt><trkpt lat="44.83481213342419" lon="9.878025729175004"><ele>282.0</ele><time>2026-03-22T10:01:24.998Z</time></trkpt><trkpt lat="44.8348871079472" lon="9.878085190447075"><ele>282.0</ele><time>2026-03-22T10:01:27.998Z</time></trkpt><trkpt lat="44.834947307473705" lon="9.878117258653202"><ele>282.0</ele><time>2026-03-22T10:01:29.998Z</time></trkpt><trkpt lat="44.83501837589055" lon="9.878153612585903"><ele>282.0</ele><time>2026-03-22T10:01:31.998Z</time></trkpt><trkpt lat="44.8350851847945" lon="9.878178943591518"><ele>282.0</ele><time>2026-03-22T10:01:33.998Z</time></trkpt><trkpt lat="44.83517509876268" lon="9.878155842049145"><ele>282.0</ele><time>2026-03-22T10:01:36.998Z</time></trkpt><trkpt lat="44.83523028262853" lon="9.878108004384062"><ele>282.0</ele><time>2026-03-22T10:01:38.998Z</time></trkpt><trkpt lat="44.83526327752684" lon="9.877987742253923"><ele>282.0</ele><time>2026-03-22T10:01:41.998Z</time></trkpt><trkpt lat="44.83525007348674" lon="9.877861186968737"><ele>282.0</ele><time>2026-03-22T10:01:44.998Z</time></trkpt><trkpt lat="44.8352236400716" lon="9.877771386995441"><ele>282.0</ele><time>2026-03-22T10:01:46.998Z</time></trkpt><trkpt lat="44.835195037375506" lon="9.87768244921039"><ele>282.0</ele><time>2026-03-22T10:01:48.998Z</time></trkpt><trkpt lat="44.83516491393936" lon="9.877590657536897"><ele>282.0</ele><time>2026-03-22T10:01:50.998Z</time></trkpt><trkpt lat="44.835133767508225" lon="9.877500368823393"><ele>283.2857142857143</ele><time>2026-03-22T10:01:53Z</time></trkpt><trkpt lat="44.83510423686889" lon="9.877410621832816"><ele>284.57142857142856</ele><time>2026-03-22T10:01:55Z</time></trkpt><trkpt lat="44.83507651958181" lon="9.877326630475244"><ele>285.85714285714283</ele><time>2026-03-22T10:01:57Z</time></trkpt><trkpt lat="44.83505280694764" lon="9.877242085012558"><ele>287.1428571428571</ele><time>2026-03-22T10:01:59Z</time></trkpt><trkpt lat="44.83502862720601" lon="9.87715260774012"><ele>288.4285714285714</ele><time>2026-03-22T10:02:01Z</time></trkpt><trkpt lat="44.83499592722493" lon="9.877049104838678"><ele>289.7142857142857</ele><time>2026-03-22T10:02:03Z</time></trkpt><trkpt lat="44.83497014315883" lon="9.876934778887884"><ele>291.0</ele><time>2026-03-22T10:02:05Z</time></trkpt><trkpt lat="44.83495713381293" lon="9.876807904775104"><ele>289.8</ele><time>2026-03-22T10:02:07Z</time></trkpt><trkpt lat="44.83495149683823" lon="9.876688162395038"><ele>288.6</ele><time>2026-03-22T10:02:09Z</time></trkpt><trkpt lat="44.834949930440786" lon="9.876564783669245"><ele>287.4</ele><time>2026-03-22T10:02:11Z</time></trkpt><trkpt lat="44.83494957887515" lon="9.876438901632003"><ele>286.2</ele><time>2026-03-22T10:02:13Z</time></trkpt><trkpt lat="44.834951320827784" lon="9.876306002895763"><ele>285.0</ele><time>2026-03-22T10:02:15Z</time></trkpt><trkpt lat="44.8349581192672" lon="9.876167432961443"><ele>285.0</ele><time>2026-03-22T10:02:16.999Z</time></trkpt><trkpt lat="44.83497372382548" lon="9.876023587477318"><ele>285.0</ele><time>2026-03-22T10:02:18.999Z</time></trkpt><trkpt lat="44.834999699873215" lon="9.875889627451704"><ele>285.0</ele><time>2026-03-22T10:02:20.999Z</time></trkpt><trkpt lat="44.835037159269106" lon="9.875758200940075"><ele>285.0</ele><time>2026-03-22T10:02:22.999Z</time></trkpt><trkpt lat="44.83507299833436" lon="9.875635871126441"><ele>285.0</ele><time>2026-03-22T10:02:24.999Z</time></trkpt><trkpt lat="44.835096822272426" lon="9.87550734337997"><ele>285.6</ele><time>2026-03-22T10:02:26.999Z</time></trkpt><trkpt lat="44.83513448854941" lon="9.875402776545556"><ele>286.2</ele><time>2026-03-22T10:02:28.999Z</time></trkpt><trkpt lat="44.83518992457458" lon="9.875311076366788"><ele>286.8</ele><time>2026-03-22T10:02:30.999Z</time></trkpt><trkpt lat="44.83525191369757" lon="9.875209186809776"><ele>287.4</ele><time>2026-03-22T10:02:32.999Z</time></trkpt><trkpt lat="44.8353217658541" lon="9.87511848179887"><ele>288.0</ele><time>2026-03-22T10:02:34.999Z</time></trkpt><trkpt lat="44.835400416450355" lon="9.875034354792845"><ele>285.25</ele><time>2026-03-22T10:02:36.999Z</time></trkpt><trkpt lat="44.83548942912471" lon="9.8749541320015"><ele>282.5</ele><time>2026-03-22T10:02:38.999Z</time></trkpt><trkpt lat="44.83558702001093" lon="9.874871817239919"><ele>279.75</ele><time>2026-03-22T10:02:40.999Z</time></trkpt><trkpt lat="44.83568646119397" lon="9.874785633381947"><ele>277.0</ele><time>2026-03-22T10:02:42.999Z</time></trkpt><trkpt lat="44.8357923249871" lon="9.87468554264514"><ele>277.0</ele><time>2026-03-22T10:02:44.999Z</time></trkpt><trkpt lat="44.83589703751358" lon="9.874586929372697"><ele>277.0</ele><time>2026-03-22T10:02:46.999Z</time></trkpt><trkpt lat="44.835951656430936" lon="9.874539825612525"><ele>277.0</ele><time>2026-03-22T10:02:47.999Z</time></trkpt><trkpt lat="44.83600591353435" lon="9.874493976166738"><ele>277.0</ele><time>2026-03-22T10:02:48.999Z</time></trkpt><trkpt lat="44.8361195045574" lon="9.874412802390218"><ele>277.0</ele><time>2026-03-22T10:02:50.999Z</time></trkpt><trkpt lat="44.83617684628876" lon="9.87437020132746"><ele>277.0</ele><time>2026-03-22T10:02:51.999Z</time></trkpt><trkpt lat="44.83623511024828" lon="9.874328227953963"><ele>277.85714285714283</ele><time>2026-03-22T10:02:52.999Z</time></trkpt><trkpt lat="44.836294534378744" lon="9.874288392133737"><ele>278.71428571428567</ele><time>2026-03-22T10:02:53.999Z</time></trkpt><trkpt lat="44.83635466035616" lon="9.87424651722429"><ele>279.57142857142856</ele><time>2026-03-22T10:02:54.999Z</time></trkpt><trkpt lat="44.83641530031679" lon="9.874205782893407"><ele>280.42857142857144</ele><time>2026-03-22T10:02:55.999Z</time></trkpt><trkpt lat="44.83647927353266" lon="9.87416514783284"><ele>281.28571428571433</ele><time>2026-03-22T10:02:56.999Z</time></trkpt><trkpt lat="44.836544754893914" lon="9.87412489145263"><ele>282.14285714285717</ele><time>2026-03-22T10:02:57.999Z</time></trkpt><trkpt lat="44.83660623323117" lon="9.87408544478453"><ele>283.0</ele><time>2026-03-22T10:02:58.999Z</time></trkpt><trkpt lat="44.83666664200273" lon="9.874047535348144"><ele>283.0</ele><time>2026-03-22T10:02:59.999Z</time></trkpt><trkpt lat="44.83672757899922" lon="9.874010091000805"><ele>283.0</ele><time>2026-03-22T10:03:00.999Z</time></trkpt><trkpt lat="44.83678860906102" lon="9.873970432342816"><ele>283.0</ele><time>2026-03-22T10:03:01.999Z</time></trkpt><trkpt lat="44.83685076529279" lon="9.873925558202922"><ele>283.0</ele><time>2026-03-22T10:03:02.999Z</time></trkpt><trkpt lat="44.83691133901702" lon="9.873883127670558"><ele>283.0</ele><time>2026-03-22T10:03:03.999Z</time></trkpt><trkpt lat="44.83697798395203" lon="9.873870294093708"><ele>283.0</ele><time>2026-03-22T10:03:04.999Z</time></trkpt><trkpt lat="44.837058461327864" lon="9.87396977359866"><ele>283.0</ele><time>2026-03-22T10:03:06.999Z</time></trkpt><trkpt lat="44.83714948403211" lon="9.874084360069117"><ele>281.3333333333333</ele><time>2026-03-22T10:03:08.998Z</time></trkpt><trkpt lat="44.837210967909286" lon="9.874149622293638"><ele>279.66666666666663</ele><time>2026-03-22T10:03:09.998Z</time></trkpt><trkpt lat="44.83728437545452" lon="9.874202846080653"><ele>278.0</ele><time>2026-03-22T10:03:10.998Z</time></trkpt><trkpt lat="44.83735516850797" lon="9.874240979738774"><ele>276.3333333333333</ele><time>2026-03-22T10:03:11.998Z</time></trkpt><trkpt lat="44.83743773634657" lon="9.874223363762114"><ele>274.6666666666667</ele><time>2026-03-22T10:03:12.998Z</time></trkpt><trkpt lat="44.83750876971731" lon="9.874226838646658"><ele>273.0</ele><time>2026-03-22T10:03:13.998Z</time></trkpt><trkpt lat="44.837573396864975" lon="9.874226488135132"><ele>273.4</ele><time>2026-03-22T10:03:14.998Z</time></trkpt><trkpt lat="44.83764122881708" lon="9.874218412501914"><ele>273.8</ele><time>2026-03-22T10:03:15.998Z</time></trkpt><trkpt lat="44.83770756175496" lon="9.874206254304463"><ele>274.2</ele><time>2026-03-22T10:03:16.998Z</time></trkpt><trkpt lat="44.83782904364109" lon="9.874200009247915"><ele>274.6</ele><time>2026-03-22T10:03:18.998Z</time></trkpt><trkpt lat="44.83794629146146" lon="9.874200388277197"><ele>275.0</ele><time>2026-03-22T10:03:20.998Z</time></trkpt><trkpt lat="44.83806050618611" lon="9.874214297902428"><ele>275.0</ele><time>2026-03-22T10:03:22.998Z</time></trkpt><trkpt lat="44.838175760873874" lon="9.874231583223303"><ele>275.0</ele><time>2026-03-22T10:03:24.998Z</time></trkpt><trkpt lat="44.83828971831315" lon="9.874258117231644"><ele>275.0</ele><time>2026-03-22T10:03:26.998Z</time></trkpt><trkpt lat="44.83840209235215" lon="9.87428439361413"><ele>275.0</ele><time>2026-03-22T10:03:28.998Z</time></trkpt><trkpt lat="44.8385089227097" lon="9.874301541759301"><ele>276.0</ele><time>2026-03-22T10:03:30.998Z</time></trkpt><trkpt lat="44.83861735752641" lon="9.874312532448442"><ele>277.0</ele><time>2026-03-22T10:03:32.998Z</time></trkpt><trkpt lat="44.838724393752734" lon="9.874306227769207"><ele>278.0</ele><time>2026-03-22T10:03:34.998Z</time></trkpt><trkpt lat="44.83883004425297" lon="9.874263168258723"><ele>279.0</ele><time>2026-03-22T10:03:36.998Z</time></trkpt><trkpt lat="44.838926211029076" lon="9.874211090318127"><ele>280.0</ele><time>2026-03-22T10:03:38.998Z</time></trkpt><trkpt lat="44.839032475681535" lon="9.874140435191348"><ele>280.0</ele><time>2026-03-22T10:03:40.998Z</time></trkpt><trkpt lat="44.839132839892315" lon="9.874085437547972"><ele>280.0</ele><time>2026-03-22T10:03:42.998Z</time></trkpt><trkpt lat="44.83924187234515" lon="9.87406139186468"><ele>280.0</ele><time>2026-03-22T10:03:44.998Z</time></trkpt><trkpt lat="44.83934604127584" lon="9.874106878005449"><ele>280.0</ele><time>2026-03-22T10:03:46.998Z</time></trkpt><trkpt lat="44.83942204362476" lon="9.874252512066859"><ele>279.8333333333333</ele><time>2026-03-22T10:03:48.998Z</time></trkpt><trkpt lat="44.83949267149786" lon="9.874398298199909"><ele>279.66666666666663</ele><time>2026-03-22T10:03:50.998Z</time></trkpt><trkpt lat="44.83954273639659" lon="9.874469707579722"><ele>279.5</ele><time>2026-03-22T10:03:51.998Z</time></trkpt><trkpt lat="44.83959848561932" lon="9.874539268897026"><ele>279.3333333333333</ele><time>2026-03-22T10:03:52.998Z</time></trkpt><trkpt lat="44.83965511519736" lon="9.874593808652843"><ele>279.1666666666667</ele><time>2026-03-22T10:03:53.998Z</time></trkpt><trkpt lat="44.83971964758125" lon="9.874644375499049"><ele>279.0</ele><time>2026-03-22T10:03:54.998Z</time></trkpt><trkpt lat="44.839793957567856" lon="9.87469211510776"><ele>279.0</ele><time>2026-03-22T10:03:55.998Z</time></trkpt><trkpt lat="44.839869114770316" lon="9.87473253891348"><ele>279.0</ele><time>2026-03-22T10:03:57Z</time></trkpt><trkpt lat="44.83994780188269" lon="9.8747656642503"><ele>279.0</ele><time>2026-03-22T10:03:58Z</time></trkpt><trkpt lat="44.8400291831721" lon="9.874802817981397"><ele>279.0</ele><time>2026-03-22T10:03:59Z</time></trkpt><trkpt lat="44.84010682102529" lon="9.874840937636755"><ele>279.0</ele><time>2026-03-22T10:04:00Z</time></trkpt><trkpt lat="44.84019081520981" lon="9.874881733307559"><ele>279.0</ele><time>2026-03-22T10:04:01Z</time></trkpt><trkpt lat="44.84027064365513" lon="9.8749172172798"><ele>277.5</ele><time>2026-03-22T10:04:02Z</time></trkpt><trkpt lat="44.8403519797942" lon="9.874951257408501"><ele>276.0</ele><time>2026-03-22T10:04:03Z</time></trkpt><trkpt lat="44.840428087561" lon="9.874988473418131"><ele>274.5</ele><time>2026-03-22T10:04:04Z</time></trkpt><trkpt lat="44.84048299658276" lon="9.875063563256807"><ele>273.0</ele><time>2026-03-22T10:04:05Z</time></trkpt><trkpt lat="44.84052282418124" lon="9.875151746914979"><ele>271.5</ele><time>2026-03-22T10:04:06Z</time></trkpt><trkpt lat="44.84052952663493" lon="9.875247343407205"><ele>270.0</ele><time>2026-03-22T10:04:07Z</time></trkpt><trkpt lat="44.84055790040862" lon="9.87534697813198"><ele>270.0</ele><time>2026-03-22T10:04:08Z</time></trkpt><trkpt lat="44.840589319735656" lon="9.875451313606542"><ele>270.0</ele><time>2026-03-22T10:04:09Z</time></trkpt><trkpt lat="44.84063012046574" lon="9.875549924436728"><ele>270.0</ele><time>2026-03-22T10:04:10Z</time></trkpt><trkpt lat="44.84068764155491" lon="9.875640765584087"><ele>270.0</ele><time>2026-03-22T10:04:11Z</time></trkpt><trkpt lat="44.840755171131974" lon="9.875723506307613"><ele>270.0</ele><time>2026-03-22T10:04:12Z</time></trkpt><trkpt lat="44.840818584555095" lon="9.87580367845988"><ele>270.0</ele><time>2026-03-22T10:04:13Z</time></trkpt><trkpt lat="44.84088194423542" lon="9.875882839012725"><ele>268.1666666666667</ele><time>2026-03-22T10:04:14Z</time></trkpt><trkpt lat="44.840949661586215" lon="9.87596095773248"><ele>266.3333333333333</ele><time>2026-03-22T10:04:15Z</time></trkpt><trkpt lat="44.8410286981257" lon="9.876020026577239"><ele>264.5</ele><time>2026-03-22T10:04:16Z</time></trkpt><trkpt lat="44.84110662616393" lon="9.876080088941746"><ele>262.66666666666663</ele><time>2026-03-22T10:04:17Z</time></trkpt><trkpt lat="44.841191204731125" lon="9.87611976089045"><ele>260.8333333333333</ele><time>2026-03-22T10:04:18Z</time></trkpt><trkpt lat="44.84128246557629" lon="9.876136988965754"><ele>259.0</ele><time>2026-03-22T10:04:18.999Z</time></trkpt><trkpt lat="44.841370609022576" lon="9.87613670122061"><ele>259.3333333333333</ele><time>2026-03-22T10:04:19.999Z</time></trkpt><trkpt lat="44.84145837723584" lon="9.876118674441923"><ele>259.66666666666663</ele><time>2026-03-22T10:04:20.999Z</time></trkpt><trkpt lat="44.84154416069093" lon="9.876099975575624"><ele>260.0</ele><time>2026-03-22T10:04:21.999Z</time></trkpt><trkpt lat="44.841631353029335" lon="9.876086184993373"><ele>260.3333333333333</ele><time>2026-03-22T10:04:22.999Z</time></trkpt><trkpt lat="44.84171646743566" lon="9.87607834086289"><ele>260.6666666666667</ele><time>2026-03-22T10:04:23.999Z</time></trkpt><trkpt lat="44.841805134573626" lon="9.876077938229585"><ele>261.0</ele><time>2026-03-22T10:04:24.999Z</time></trkpt><trkpt lat="44.84189591957212" lon="9.876089131264427"><ele>261.0</ele><time>2026-03-22T10:04:25.999Z</time></trkpt><trkpt lat="44.84198823825214" lon="9.876106014867505"><ele>261.0</ele><time>2026-03-22T10:04:26.999Z</time></trkpt><trkpt lat="44.842078666742104" lon="9.876135696006838"><ele>261.0</ele><time>2026-03-22T10:04:27.999Z</time></trkpt><trkpt lat="44.84216890604258" lon="9.87618065979557"><ele>261.0</ele><time>2026-03-22T10:04:28.999Z</time></trkpt><trkpt lat="44.84226006173664" lon="9.876231260549995"><ele>261.0</ele><time>2026-03-22T10:04:29.999Z</time></trkpt><trkpt lat="44.84235206349423" lon="9.876271555244706"><ele>261.0</ele><time>2026-03-22T10:04:30.999Z</time></trkpt><trkpt lat="44.84244969367331" lon="9.876317646274693"><ele>261.0</ele><time>2026-03-22T10:04:31.999Z</time></trkpt><trkpt lat="44.842547393373785" lon="9.876365709310909"><ele>261.0</ele><time>2026-03-22T10:04:32.999Z</time></trkpt><trkpt lat="44.842645459364526" lon="9.87641617938682"><ele>261.0</ele><time>2026-03-22T10:04:33.999Z</time></trkpt><trkpt lat="44.84274530260803" lon="9.876468847963707"><ele>261.0</ele><time>2026-03-22T10:04:34.999Z</time></trkpt><trkpt lat="44.842846724290304" lon="9.876526054146236"><ele>259.2</ele><time>2026-03-22T10:04:35.999Z</time></trkpt><trkpt lat="44.8429503950358" lon="9.876580175957484"><ele>257.40000000000003</ele><time>2026-03-22T10:04:36.999Z</time></trkpt><trkpt lat="44.84305463853801" lon="9.876633583522054"><ele>255.6</ele><time>2026-03-22T10:04:37.999Z</time></trkpt><trkpt lat="44.843159511527574" lon="9.876690474014088"><ele>253.8</ele><time>2026-03-22T10:04:38.999Z</time></trkpt><trkpt lat="44.84326454477014" lon="9.876748163367568"><ele>252.0</ele><time>2026-03-22T10:04:39.999Z</time></trkpt><trkpt lat="44.84337055374557" lon="9.876804929928152"><ele>251.25</ele><time>2026-03-22T10:04:40.999Z</time></trkpt><trkpt lat="44.84347960868416" lon="9.876864502563715"><ele>250.5</ele><time>2026-03-22T10:04:41.999Z</time></trkpt><trkpt lat="44.8435876741501" lon="9.876924410743843"><ele>249.75</ele><time>2026-03-22T10:04:42.999Z</time></trkpt><trkpt lat="44.843693309556706" lon="9.876992126569062"><ele>249.0</ele><time>2026-03-22T10:04:43.999Z</time></trkpt><trkpt lat="44.843802644181935" lon="9.8770578151961"><ele>249.0</ele><time>2026-03-22T10:04:44.999Z</time></trkpt><trkpt lat="44.84391045663122" lon="9.877121072297879"><ele>249.0</ele><time>2026-03-22T10:04:45.999Z</time></trkpt><trkpt lat="44.844016357843266" lon="9.877184866117677"><ele>249.0</ele><time>2026-03-22T10:04:46.999Z</time></trkpt><trkpt lat="44.84412205964322" lon="9.87725531103969"><ele>249.0</ele><time>2026-03-22T10:04:47.999Z</time></trkpt><trkpt lat="44.84422448663682" lon="9.877314074653265"><ele>245.79999999999998</ele><time>2026-03-22T10:04:48.999Z</time></trkpt><trkpt lat="44.84432254227687" lon="9.877369292898734"><ele>242.59999999999997</ele><time>2026-03-22T10:04:49.999Z</time></trkpt><trkpt lat="44.844426345434734" lon="9.877415219103163"><ele>239.4</ele><time>2026-03-22T10:04:50.999Z</time></trkpt><trkpt lat="44.8445207373224" lon="9.877449462719214"><ele>236.2</ele><time>2026-03-22T10:04:51.999Z</time></trkpt><trkpt lat="44.84460905281597" lon="9.877486928660112"><ele>233.0</ele><time>2026-03-22T10:04:52.999Z</time></trkpt><trkpt lat="44.844693658301466" lon="9.877547054166575"><ele>234.2</ele><time>2026-03-22T10:04:53.999Z</time></trkpt><trkpt lat="44.84474781560315" lon="9.87764966619505"><ele>235.4</ele><time>2026-03-22T10:04:54.999Z</time></trkpt><trkpt lat="44.844782671049074" lon="9.87776161559291"><ele>236.59999999999997</ele><time>2026-03-22T10:04:55.999Z</time></trkpt><trkpt lat="44.8448252511508" lon="9.877884126116015"><ele>237.79999999999998</ele><time>2026-03-22T10:04:56.999Z</time></trkpt><trkpt lat="44.84486631269795" lon="9.87800709057086"><ele>239.0</ele><time>2026-03-22T10:04:57.999Z</time></trkpt><trkpt lat="44.84492042283092" lon="9.878122686459292"><ele>239.0</ele><time>2026-03-22T10:04:58.999Z</time></trkpt><trkpt lat="44.84500732405977" lon="9.878176572281086"><ele>238.99999999999997</ele><time>2026-03-22T10:04:59.999Z</time></trkpt><trkpt lat="44.84507788153377" lon="9.87824810601815"><ele>238.99999999999997</ele><time>2026-03-22T10:05:00.999Z</time></trkpt><trkpt lat="44.845158130283124" lon="9.878311213856916"><ele>239.0</ele><time>2026-03-22T10:05:01.999Z</time></trkpt><trkpt lat="44.84524736419345" lon="9.878363272970542"><ele>239.0</ele><time>2026-03-22T10:05:02.999Z</time></trkpt><trkpt lat="44.845334081252716" lon="9.878410235167507"><ele>237.83333333333334</ele><time>2026-03-22T10:05:03.999Z</time></trkpt><trkpt lat="44.845418758718225" lon="9.878450119620371"><ele>236.66666666666669</ele><time>2026-03-22T10:05:04.999Z</time></trkpt><trkpt lat="44.84549874352546" lon="9.878470588838645"><ele>235.5</ele><time>2026-03-22T10:05:05.999Z</time></trkpt><trkpt lat="44.84557652091453" lon="9.878443182450658"><ele>234.33333333333331</ele><time>2026-03-22T10:05:06.999Z</time></trkpt><trkpt lat="44.84563222997609" lon="9.878367437428771"><ele>233.16666666666666</ele><time>2026-03-22T10:05:07.999Z</time></trkpt><trkpt lat="44.84563389110054" lon="9.878249864933421"><ele>232.0</ele><time>2026-03-22T10:05:08.999Z</time></trkpt><trkpt lat="44.84558901815802" lon="9.878137179699038"><ele>232.0</ele><time>2026-03-22T10:05:09.999Z</time></trkpt><trkpt lat="44.84551080130601" lon="9.878066965901978"><ele>232.0</ele><time>2026-03-22T10:05:10.998Z</time></trkpt><trkpt lat="44.845423855667526" lon="9.878022094352565"><ele>232.0</ele><time>2026-03-22T10:05:11.998Z</time></trkpt><trkpt lat="44.84534916458786" lon="9.877995732893762"><ele>232.0</ele><time>2026-03-22T10:05:12.998Z</time></trkpt><trkpt lat="44.84528752190593" lon="9.877929828715512"><ele>232.0</ele><time>2026-03-22T10:05:13.998Z</time></trkpt><trkpt lat="44.84522372626481" lon="9.877788770567692"><ele>232.0</ele><time>2026-03-22T10:05:15.998Z</time></trkpt><trkpt lat="44.845231080068075" lon="9.877686929051823"><ele>232.0</ele><time>2026-03-22T10:05:16.998Z</time></trkpt><trkpt lat="44.84533724256468" lon="9.87760964488895"><ele>232.0</ele><time>2026-03-22T10:05:17.998Z</time></trkpt><trkpt lat="44.845427471743555" lon="9.877639121265181"><ele>232.0</ele><time>2026-03-22T10:05:18.998Z</time></trkpt><trkpt lat="44.84552518212293" lon="9.877693062379866"><ele>232.0</ele><time>2026-03-22T10:05:19.998Z</time></trkpt><trkpt lat="44.84560360014412" lon="9.87773036302795"><ele>232.0</ele><time>2026-03-22T10:05:20.998Z</time></trkpt><trkpt lat="44.845684730203786" lon="9.877769417335939"><ele>232.0</ele><time>2026-03-22T10:05:21.998Z</time></trkpt><trkpt lat="44.845769737305034" lon="9.877805373134787"><ele>232.0</ele><time>2026-03-22T10:05:22.998Z</time></trkpt><trkpt lat="44.84585439761487" lon="9.877854987812"><ele>232.0</ele><time>2026-03-22T10:05:23.998Z</time></trkpt><trkpt lat="44.84594559721413" lon="9.877901672056005"><ele>232.0</ele><time>2026-03-22T10:05:24.998Z</time></trkpt><trkpt lat="44.8460346730476" lon="9.877942620287966"><ele>229.6</ele><time>2026-03-22T10:05:25.998Z</time></trkpt><trkpt lat="44.84612859945595" lon="9.877974903212996"><ele>227.2</ele><time>2026-03-22T10:05:26.998Z</time></trkpt><trkpt lat="44.84622009155904" lon="9.878002973825646"><ele>224.8</ele><time>2026-03-22T10:05:27.998Z</time></trkpt><trkpt lat="44.84630932627299" lon="9.878044246339185"><ele>222.4</ele><time>2026-03-22T10:05:28.998Z</time></trkpt><trkpt lat="44.84639865712549" lon="9.878088088120355"><ele>220.0</ele><time>2026-03-22T10:05:29.998Z</time></trkpt><trkpt lat="44.84648621047922" lon="9.878139448090627"><ele>220.0</ele><time>2026-03-22T10:05:30.998Z</time></trkpt><trkpt lat="44.84657449127561" lon="9.878203296885903"><ele>220.0</ele><time>2026-03-22T10:05:31.998Z</time></trkpt><trkpt lat="44.84666450518552" lon="9.878265705256204"><ele>220.0</ele><time>2026-03-22T10:05:32.998Z</time></trkpt><trkpt lat="44.84675317249072" lon="9.878331015457297"><ele>220.0</ele><time>2026-03-22T10:05:33.998Z</time></trkpt><trkpt lat="44.84684699461472" lon="9.87839948797493"><ele>220.0</ele><time>2026-03-22T10:05:34.998Z</time></trkpt><trkpt lat="44.84693666978122" lon="9.878467594518876"><ele>219.4</ele><time>2026-03-22T10:05:35.998Z</time></trkpt><trkpt lat="44.84703059739554" lon="9.878538986008735"><ele>218.8</ele><time>2026-03-22T10:05:36.998Z</time></trkpt><trkpt lat="44.847122139414765" lon="9.878609983383067"><ele>218.2</ele><time>2026-03-22T10:05:37.998Z</time></trkpt><trkpt lat="44.84721239583919" lon="9.878682622582932"><ele>217.6</ele><time>2026-03-22T10:05:38.998Z</time></trkpt><trkpt lat="44.847302909606356" lon="9.87875579072436"><ele>217.0</ele><time>2026-03-22T10:05:39.998Z</time></trkpt><trkpt lat="44.84739395284456" lon="9.878827011004203"><ele>216.99999999999997</ele><time>2026-03-22T10:05:40.998Z</time></trkpt><trkpt lat="44.84748395558401" lon="9.878899806737627"><ele>217.0</ele><time>2026-03-22T10:05:41.998Z</time></trkpt><trkpt lat="44.847571234083844" lon="9.878967843064556"><ele>217.0</ele><time>2026-03-22T10:05:42.998Z</time></trkpt><trkpt lat="44.84765128115338" lon="9.879025760754194"><ele>217.0</ele><time>2026-03-22T10:05:43.998Z</time></trkpt><trkpt lat="44.847728294516244" lon="9.879049822569739"><ele>216.99999999999997</ele><time>2026-03-22T10:05:44.998Z</time></trkpt><trkpt lat="44.8477968293461" lon="9.87903221165937"><ele>217.0</ele><time>2026-03-22T10:05:45.998Z</time></trkpt><trkpt lat="44.847832146490646" lon="9.878935645328848"><ele>216.66666666666666</ele><time>2026-03-22T10:05:46.998Z</time></trkpt><trkpt lat="44.847859512279825" lon="9.878840852557074"><ele>216.33333333333331</ele><time>2026-03-22T10:05:47.998Z</time></trkpt><trkpt lat="44.84782794226201" lon="9.87873040822285"><ele>216.0</ele><time>2026-03-22T10:05:48.998Z</time></trkpt><trkpt lat="44.84778017325673" lon="9.878637552429893"><ele>215.66666666666669</ele><time>2026-03-22T10:05:49.998Z</time></trkpt><trkpt lat="44.847727580332574" lon="9.878544606976503"><ele>215.33333333333334</ele><time>2026-03-22T10:05:50.998Z</time></trkpt><trkpt lat="44.84767602498185" lon="9.878440653111197"><ele>215.0</ele><time>2026-03-22T10:05:51.998Z</time></trkpt><trkpt lat="44.84762724762954" lon="9.878329744509022"><ele>213.4</ele><time>2026-03-22T10:05:52.998Z</time></trkpt><trkpt lat="44.8475721743049" lon="9.878215969361348"><ele>211.8</ele><time>2026-03-22T10:05:53.998Z</time></trkpt><trkpt lat="44.847513461881576" lon="9.878105581722119"><ele>210.2</ele><time>2026-03-22T10:05:54.998Z</time></trkpt><trkpt lat="44.847454077883164" lon="9.877992442881"><ele>208.6</ele><time>2026-03-22T10:05:55.998Z</time></trkpt><trkpt lat="44.84740526820839" lon="9.877881845417045"><ele>207.0</ele><time>2026-03-22T10:05:56.998Z</time></trkpt><trkpt lat="44.84735645755691" lon="9.877781371133135"><ele>207.0</ele><time>2026-03-22T10:05:57.998Z</time></trkpt><trkpt lat="44.84731395764665" lon="9.877698554915858"><ele>207.0</ele><time>2026-03-22T10:05:58.998Z</time></trkpt><trkpt lat="44.84730362874309" lon="9.87760578115197"><ele>207.0</ele><time>2026-03-22T10:05:59.998Z</time></trkpt><trkpt lat="44.847311002560154" lon="9.877506348855778"><ele>207.0</ele><time>2026-03-22T10:06:00.998Z</time></trkpt><trkpt lat="44.84739090897757" lon="9.877437437315312"><ele>207.0</ele><time>2026-03-22T10:06:01.998Z</time></trkpt><trkpt lat="44.84748590118367" lon="9.877468081312877"><ele>207.0</ele><time>2026-03-22T10:06:03Z</time></trkpt><trkpt lat="44.84753738713711" lon="9.87755113236521"><ele>207.0</ele><time>2026-03-22T10:06:04Z</time></trkpt><trkpt lat="44.847598508864806" lon="9.87762904894474"><ele>207.0</ele><time>2026-03-22T10:06:05Z</time></trkpt><trkpt lat="44.84765881711286" lon="9.87770840164991"><ele>207.0</ele><time>2026-03-22T10:06:06Z</time></trkpt><trkpt lat="44.847723662748706" lon="9.877787299134068"><ele>207.0</ele><time>2026-03-22T10:06:07Z</time></trkpt><trkpt lat="44.84780210367884" lon="9.87784031749936"><ele>207.0</ele><time>2026-03-22T10:06:08Z</time></trkpt><trkpt lat="44.84787665330075" lon="9.877882081336029"><ele>207.0</ele><time>2026-03-22T10:06:09Z</time></trkpt><trkpt lat="44.84796291263095" lon="9.877878096029475"><ele>206.5</ele><time>2026-03-22T10:06:10Z</time></trkpt><trkpt lat="44.848032705656976" lon="9.877799667321819"><ele>206.0</ele><time>2026-03-22T10:06:11Z</time></trkpt><trkpt lat="44.84809429971408" lon="9.877719573189712"><ele>205.5</ele><time>2026-03-22T10:06:12Z</time></trkpt><trkpt lat="44.84816747773774" lon="9.877644017887826"><ele>205.0</ele><time>2026-03-22T10:06:13Z</time></trkpt><trkpt lat="44.84823223988066" lon="9.8775493478787"><ele>204.5</ele><time>2026-03-22T10:06:14Z</time></trkpt><trkpt lat="44.84829966345501" lon="9.877467916959866"><ele>204.0</ele><time>2026-03-22T10:06:15Z</time></trkpt><trkpt lat="44.84837354210906" lon="9.877407372571259"><ele>201.39999999999998</ele><time>2026-03-22T10:06:16Z</time></trkpt><trkpt lat="44.84845955489139" lon="9.877376958655766"><ele>198.8</ele><time>2026-03-22T10:06:17Z</time></trkpt><trkpt lat="44.84854730092119" lon="9.877354546269858"><ele>196.2</ele><time>2026-03-22T10:06:18Z</time></trkpt><trkpt lat="44.84863814012539" lon="9.877334335896792"><ele>193.60000000000002</ele><time>2026-03-22T10:06:19Z</time></trkpt><trkpt lat="44.84873637462624" lon="9.877340557681716"><ele>191.0</ele><time>2026-03-22T10:06:20Z</time></trkpt><trkpt lat="44.84883838055368" lon="9.877351631823116"><ele>191.0</ele><time>2026-03-22T10:06:21Z</time></trkpt><trkpt lat="44.848940390331556" lon="9.877372083389872"><ele>191.0</ele><time>2026-03-22T10:06:22Z</time></trkpt><trkpt lat="44.84904496342939" lon="9.877374513009528"><ele>191.0</ele><time>2026-03-22T10:06:22.999Z</time></trkpt><trkpt lat="44.84914575604664" lon="9.877353562341732"><ele>191.0</ele><time>2026-03-22T10:06:23.999Z</time></trkpt><trkpt lat="44.84923004429734" lon="9.877281129749191"><ele>191.0</ele><time>2026-03-22T10:06:24.999Z</time></trkpt><trkpt lat="44.8493203384139" lon="9.877236742178317"><ele>190.0</ele><time>2026-03-22T10:06:25.999Z</time></trkpt><trkpt lat="44.84940124013665" lon="9.877157319875362"><ele>189.0</ele><time>2026-03-22T10:06:26.999Z</time></trkpt><trkpt lat="44.8494832376035" lon="9.877080863932994"><ele>188.0</ele><time>2026-03-22T10:06:27.999Z</time></trkpt><trkpt lat="44.849555455511975" lon="9.876986456852666"><ele>187.0</ele><time>2026-03-22T10:06:28.999Z</time></trkpt><trkpt lat="44.84964194927086" lon="9.876926803645594"><ele>186.0</ele><time>2026-03-22T10:06:29.999Z</time></trkpt><trkpt lat="44.84971949706738" lon="9.876847179825338"><ele>183.8</ele><time>2026-03-22T10:06:30.999Z</time></trkpt><trkpt lat="44.84979624197237" lon="9.87676892487869"><ele>181.60000000000002</ele><time>2026-03-22T10:06:31.999Z</time></trkpt><trkpt lat="44.84987320424424" lon="9.876686177741544"><ele>179.4</ele><time>2026-03-22T10:06:32.999Z</time></trkpt><trkpt lat="44.84995173155457" lon="9.876603602667181"><ele>177.2</ele><time>2026-03-22T10:06:33.999Z</time></trkpt><trkpt lat="44.85003213315528" lon="9.876521343139274"><ele>175.0</ele><time>2026-03-22T10:06:34.999Z</time></trkpt><trkpt lat="44.850113378130715" lon="9.876441463212528"><ele>174.4</ele><time>2026-03-22T10:06:35.999Z</time></trkpt><trkpt lat="44.85020160803174" lon="9.876374565633938"><ele>173.8</ele><time>2026-03-22T10:06:36.999Z</time></trkpt><trkpt lat="44.85028207207692" lon="9.876296371092682"><ele>173.2</ele><time>2026-03-22T10:06:37.999Z</time></trkpt><trkpt lat="44.850358267871705" lon="9.876222945517485"><ele>172.6</ele><time>2026-03-22T10:06:38.999Z</time></trkpt><trkpt lat="44.850431309958736" lon="9.876154820397597"><ele>172.0</ele><time>2026-03-22T10:06:39.999Z</time></trkpt><trkpt lat="44.85050807300941" lon="9.876111962426489"><ele>172.0</ele><time>2026-03-22T10:06:40.999Z</time></trkpt><trkpt lat="44.85057150743301" lon="9.876052663387517"><ele>172.0</ele><time>2026-03-22T10:06:41.999Z</time></trkpt><trkpt lat="44.85062655107963" lon="9.875999810040868"><ele>172.0</ele><time>2026-03-22T10:06:42.999Z</time></trkpt><trkpt lat="44.85071781810862" lon="9.8759236405446"><ele>172.0</ele><time>2026-03-22T10:06:44.999Z</time></trkpt><trkpt lat="44.85078552174452" lon="9.875862273651448"><ele>172.0</ele><time>2026-03-22T10:06:46.999Z</time></trkpt><trkpt lat="44.85085467106298" lon="9.876032768857915"><ele>172.0</ele><time>2026-03-22T10:06:47.999Z</time></trkpt><trkpt lat="44.850950240439026" lon="9.876110487302068"><ele>172.0</ele><time>2026-03-22T10:06:49.999Z</time></trkpt><trkpt lat="44.85103321781045" lon="9.876205780181468"><ele>172.0</ele><time>2026-03-22T10:06:51.999Z</time></trkpt><trkpt lat="44.85112319517472" lon="9.876296227647662"><ele>172.0</ele><time>2026-03-22T10:06:53.999Z</time></trkpt><trkpt lat="44.85120816777796" lon="9.876393712344527"><ele>172.0</ele><time>2026-03-22T10:06:55.999Z</time></trkpt><trkpt lat="44.851298854183675" lon="9.876492591919716"><ele>171.75</ele><time>2026-03-22T10:06:57.999Z</time></trkpt><trkpt lat="44.85138679232564" lon="9.876594015368468"><ele>171.5</ele><time>2026-03-22T10:06:59.999Z</time></trkpt><trkpt lat="44.851481993469264" lon="9.8766896628768"><ele>171.25</ele><time>2026-03-22T10:07:01.999Z</time></trkpt><trkpt lat="44.85157253809647" lon="9.87678749413385"><ele>171.0</ele><time>2026-03-22T10:07:03.999Z</time></trkpt><trkpt lat="44.85166564689283" lon="9.87689045393122"><ele>171.0</ele><time>2026-03-22T10:07:05.999Z</time></trkpt><trkpt lat="44.85175995675647" lon="9.876985021266012"><ele>171.0</ele><time>2026-03-22T10:07:07.999Z</time></trkpt><trkpt lat="44.85185478261875" lon="9.877078825186542"><ele>171.0</ele><time>2026-03-22T10:07:09.999Z</time></trkpt><trkpt lat="44.851951409562886" lon="9.87717586062875"><ele>171.0</ele><time>2026-03-22T10:07:11.999Z</time></trkpt><trkpt lat="44.85204618052001" lon="9.877268699959465"><ele>169.60000000000002</ele><time>2026-03-22T10:07:13.999Z</time></trkpt><trkpt lat="44.85214335668838" lon="9.877363313182375"><ele>168.2</ele><time>2026-03-22T10:07:15.998Z</time></trkpt><trkpt lat="44.852235479871005" lon="9.87744662719932"><ele>166.8</ele><time>2026-03-22T10:07:17.998Z</time></trkpt><trkpt lat="44.852335574692425" lon="9.877511703144757"><ele>165.39999999999998</ele><time>2026-03-22T10:07:19.998Z</time></trkpt><trkpt lat="44.852435427497596" lon="9.877577897431376"><ele>164.0</ele><time>2026-03-22T10:07:21.998Z</time></trkpt><trkpt lat="44.85254157138129" lon="9.877588965704216"><ele>164.0</ele><time>2026-03-22T10:07:23.998Z</time></trkpt><trkpt lat="44.852622595988" lon="9.87749566088516"><ele>164.0</ele><time>2026-03-22T10:07:25.998Z</time></trkpt><trkpt lat="44.85263981430658" lon="9.877355363271535"><ele>164.0</ele><time>2026-03-22T10:07:27.998Z</time></trkpt><trkpt lat="44.852590013835815" lon="9.877229797700707"><ele>164.0</ele><time>2026-03-22T10:07:29.998Z</time></trkpt><trkpt lat="44.85250140799806" lon="9.877155779002429"><ele>164.0</ele><time>2026-03-22T10:07:31.998Z</time></trkpt><trkpt lat="44.852437091938356" lon="9.8770053405366"><ele>164.0</ele><time>2026-03-22T10:07:33.998Z</time></trkpt><trkpt lat="44.852415549799325" lon="9.876914303142131"><ele>164.0</ele><time>2026-03-22T10:07:34.998Z</time></trkpt><trkpt lat="44.85239735209327" lon="9.876825173834602"><ele>164.0</ele><time>2026-03-22T10:07:35.998Z</time></trkpt><trkpt lat="44.852347212266444" lon="9.876674281626153"><ele>164.0</ele><time>2026-03-22T10:07:37.998Z</time></trkpt><trkpt lat="44.85240481387594" lon="9.876442163271337"><ele>164.0</ele><time>2026-03-22T10:07:39.998Z</time></trkpt><trkpt lat="44.85240764937603" lon="9.876345926544369"><ele>164.14285714285714</ele><time>2026-03-22T10:07:40.998Z</time></trkpt><trkpt lat="44.85239651961755" lon="9.876246667093207"><ele>164.28571428571428</ele><time>2026-03-22T10:07:41.998Z</time></trkpt><trkpt lat="44.852405471073034" lon="9.876148636263036"><ele>164.42857142857144</ele><time>2026-03-22T10:07:42.998Z</time></trkpt><trkpt lat="44.85243090828846" lon="9.876057541294372"><ele>164.57142857142856</ele><time>2026-03-22T10:07:43.998Z</time></trkpt><trkpt lat="44.852439472075034" lon="9.87596373061437"><ele>164.71428571428572</ele><time>2026-03-22T10:07:44.998Z</time></trkpt><trkpt lat="44.85245400121235" lon="9.87586712288214"><ele>164.85714285714286</ele><time>2026-03-22T10:07:45.998Z</time></trkpt><trkpt lat="44.852471705889656" lon="9.875772846811076"><ele>165.0</ele><time>2026-03-22T10:07:46.998Z</time></trkpt><trkpt lat="44.85249042726838" lon="9.875679425155292"><ele>165.14285714285717</ele><time>2026-03-22T10:07:47.998Z</time></trkpt><trkpt lat="44.852510283506305" lon="9.875584799807509"><ele>165.28571428571428</ele><time>2026-03-22T10:07:48.998Z</time></trkpt><trkpt lat="44.85252898296871" lon="9.875490673805224"><ele>165.42857142857144</ele><time>2026-03-22T10:07:49.998Z</time></trkpt><trkpt lat="44.85254839807981" lon="9.87539596257926"><ele>165.57142857142858</ele><time>2026-03-22T10:07:50.998Z</time></trkpt><trkpt lat="44.85256638213668" lon="9.875299167080936"><ele>165.71428571428572</ele><time>2026-03-22T10:07:51.998Z</time></trkpt><trkpt lat="44.8525861006402" lon="9.875203147915755"><ele>165.85714285714286</ele><time>2026-03-22T10:07:52.998Z</time></trkpt><trkpt lat="44.852604069961" lon="9.875107448736205"><ele>166.0</ele><time>2026-03-22T10:07:53.998Z</time></trkpt><trkpt lat="44.852622473232074" lon="9.87501354056399"><ele>165.85714285714286</ele><time>2026-03-22T10:07:54.998Z</time></trkpt><trkpt lat="44.85264004783918" lon="9.874919579383311"><ele>165.71428571428572</ele><time>2026-03-22T10:07:55.998Z</time></trkpt><trkpt lat="44.85265556476718" lon="9.874825930955645"><ele>165.57142857142858</ele><time>2026-03-22T10:07:56.998Z</time></trkpt><trkpt lat="44.85267234266869" lon="9.874733476285373"><ele>165.42857142857144</ele><time>2026-03-22T10:07:57.998Z</time></trkpt><trkpt lat="44.852691483892436" lon="9.87463968522244"><ele>165.28571428571428</ele><time>2026-03-22T10:07:58.998Z</time></trkpt><trkpt lat="44.852712901754415" lon="9.874547258887985"><ele>165.14285714285717</ele><time>2026-03-22T10:07:59.998Z</time></trkpt><trkpt lat="44.852733329651265" lon="9.874449248688101"><ele>165.0</ele><time>2026-03-22T10:08:00.998Z</time></trkpt><trkpt lat="44.85274961074187" lon="9.874351816736775"><ele>164.33333333333334</ele><time>2026-03-22T10:08:01.998Z</time></trkpt><trkpt lat="44.852766763242094" lon="9.87425501515952"><ele>163.66666666666666</ele><time>2026-03-22T10:08:02.998Z</time></trkpt><trkpt lat="44.8527841470199" lon="9.87415929436488"><ele>163.0</ele><time>2026-03-22T10:08:03.998Z</time></trkpt><trkpt lat="44.852804938244354" lon="9.87406446648354"><ele>162.33333333333331</ele><time>2026-03-22T10:08:04.998Z</time></trkpt><trkpt lat="44.85282398629519" lon="9.873963190165334"><ele>161.66666666666666</ele><time>2026-03-22T10:08:05.998Z</time></trkpt><trkpt lat="44.85283930601" lon="9.873874637668486"><ele>161.0</ele><time>2026-03-22T10:08:06.998Z</time></trkpt><trkpt lat="44.8528678090094" lon="9.873726248934007"><ele>161.0</ele><time>2026-03-22T10:08:09Z</time></trkpt><trkpt lat="44.852872159502795" lon="9.873621242521024"><ele>161.0</ele><time>2026-03-22T10:08:11Z</time></trkpt><trkpt lat="44.85289077926511" lon="9.873520752352814"><ele>161.0</ele><time>2026-03-22T10:08:14Z</time></trkpt><trkpt lat="44.852912638024904" lon="9.873402781390014"><ele>161.0</ele><time>2026-03-22T10:08:17Z</time></trkpt><trkpt lat="44.852929354856215" lon="9.873312560915457"><ele>161.0</ele><time>2026-03-22T10:08:22Z</time></trkpt><trkpt lat="44.85297315247233" lon="9.873244384622735"><ele>161.0</ele><time>2026-03-22T10:08:45.999Z</time></trkpt><trkpt lat="44.85299684038318" lon="9.873116688078857"><ele>160.20000000000002</ele><time>2026-03-22T10:08:48.999Z</time></trkpt><trkpt lat="44.853017394826836" lon="9.872997851779248"><ele>159.4</ele><time>2026-03-22T10:08:50.999Z</time></trkpt><trkpt lat="44.85303938900849" lon="9.87286464325845"><ele>158.6</ele><time>2026-03-22T10:08:52.999Z</time></trkpt><trkpt lat="44.85306554480875" lon="9.872721740892105"><ele>157.8</ele><time>2026-03-22T10:08:54.999Z</time></trkpt><trkpt lat="44.85306454513636" lon="9.872577937752228"><ele>157.0</ele><time>2026-03-22T10:08:56.999Z</time></trkpt><trkpt lat="44.85308883059774" lon="9.872449069402533"><ele>157.0</ele><time>2026-03-22T10:08:58.999Z</time></trkpt><trkpt lat="44.85311152691309" lon="9.872328633747752"><ele>157.0</ele><time>2026-03-22T10:09:00.999Z</time></trkpt><trkpt lat="44.85312859364984" lon="9.872238307950848"><ele>157.0</ele><time>2026-03-22T10:09:02.999Z</time></trkpt><trkpt lat="44.85316388383288" lon="9.872124722198908"><ele>157.0</ele><time>2026-03-22T10:09:04.999Z</time></trkpt><trkpt lat="44.85319679281596" lon="9.871978909668995"><ele>157.0</ele><time>2026-03-22T10:09:06.999Z</time></trkpt><trkpt lat="44.853227555307846" lon="9.871816326836132"><ele>157.4</ele><time>2026-03-22T10:09:08.999Z</time></trkpt><trkpt lat="44.85324617708085" lon="9.871727212657174"><ele>157.79999999999998</ele><time>2026-03-22T10:09:09.999Z</time></trkpt><trkpt lat="44.85327738598014" lon="9.87156036685236"><ele>158.2</ele><time>2026-03-22T10:09:11.999Z</time></trkpt><trkpt lat="44.85330869362671" lon="9.871398459183922"><ele>158.6</ele><time>2026-03-22T10:09:13.999Z</time></trkpt><trkpt lat="44.85333203958079" lon="9.871262520298894"><ele>159.0</ele><time>2026-03-22T10:09:15.999Z</time></trkpt><trkpt lat="44.85328465384654" lon="9.871112414111668"><ele>159.0</ele><time>2026-03-22T10:09:18.999Z</time></trkpt><trkpt lat="44.85330524135161" lon="9.871009396173031"><ele>159.0</ele><time>2026-03-22T10:09:20.998Z</time></trkpt><trkpt lat="44.85338611096474" lon="9.870975470406414"><ele>159.0</ele><time>2026-03-22T10:09:21.998Z</time></trkpt><trkpt lat="44.853408289815" lon="9.870860003911895"><ele>159.0</ele><time>2026-03-22T10:09:23.998Z</time></trkpt><trkpt lat="44.85342397906142" lon="9.870745459864963"><ele>159.0</ele><time>2026-03-22T10:09:25.998Z</time></trkpt><trkpt lat="44.85344444960429" lon="9.870621261521828"><ele>159.0</ele><time>2026-03-22T10:09:27.998Z</time></trkpt><trkpt lat="44.85348887912047" lon="9.870503249545324"><ele>159.16666666666666</ele><time>2026-03-22T10:09:29.998Z</time></trkpt><trkpt lat="44.85353647819629" lon="9.870402025139109"><ele>159.33333333333334</ele><time>2026-03-22T10:09:31.998Z</time></trkpt><trkpt lat="44.853571399282" lon="9.870301537822872"><ele>159.5</ele><time>2026-03-22T10:09:33.998Z</time></trkpt><trkpt lat="44.853609290317124" lon="9.870208690514175"><ele>159.66666666666669</ele><time>2026-03-22T10:09:35.998Z</time></trkpt><trkpt lat="44.8536694690961" lon="9.870129240665001"><ele>159.83333333333334</ele><time>2026-03-22T10:09:37.998Z</time></trkpt><trkpt lat="44.853734828130335" lon="9.870033738242647"><ele>160.0</ele><time>2026-03-22T10:09:40.998Z</time></trkpt><trkpt lat="44.853788870877764" lon="9.869972452430163"><ele>160.57142857142856</ele><time>2026-03-22T10:09:42.998Z</time></trkpt><trkpt lat="44.85385062516266" lon="9.869933964373898"><ele>161.14285714285714</ele><time>2026-03-22T10:09:44.998Z</time></trkpt><trkpt lat="44.85391780684805" lon="9.869907077520473"><ele>161.71428571428572</ele><time>2026-03-22T10:09:46.998Z</time></trkpt><trkpt lat="44.853979978137126" lon="9.86987869021179"><ele>162.28571428571428</ele><time>2026-03-22T10:09:48.998Z</time></trkpt><trkpt lat="44.85404726222362" lon="9.869854053612444"><ele>162.85714285714286</ele><time>2026-03-22T10:09:50.998Z</time></trkpt><trkpt lat="44.854110369937175" lon="9.869829404836477"><ele>163.42857142857142</ele><time>2026-03-22T10:09:52.998Z</time></trkpt><trkpt lat="44.8541692847653" lon="9.869785444168174"><ele>164.0</ele><time>2026-03-22T10:09:54.998Z</time></trkpt><trkpt lat="44.85424346527741" lon="9.869724062785824"><ele>164.5</ele><time>2026-03-22T10:09:58.998Z</time></trkpt><trkpt lat="44.85430491918266" lon="9.869661626319834"><ele>165.0</ele><time>2026-03-22T10:10:01.998Z</time></trkpt><trkpt lat="44.85436468379082" lon="9.869585433579575"><ele>165.5</ele><time>2026-03-22T10:10:04.998Z</time></trkpt><trkpt lat="44.85441543171893" lon="9.869526418688274"><ele>166.0</ele><time>2026-03-22T10:10:06.998Z</time></trkpt><trkpt lat="44.854457613556505" lon="9.869435259221499"><ele>166.5</ele><time>2026-03-22T10:10:09.998Z</time></trkpt><trkpt lat="44.85446899359598" lon="9.869307996806075"><ele>167.0</ele><time>2026-03-22T10:10:11.998Z</time></trkpt><trkpt lat="44.8543997197492" lon="9.869231325252938"><ele>167.5</ele><time>2026-03-22T10:10:14Z</time></trkpt><trkpt lat="44.854339041781266" lon="9.86915998574617"><ele>168.0</ele><time>2026-03-22T10:10:16Z</time></trkpt><trkpt lat="44.85427603772808" lon="9.869089107584928"><ele>168.5</ele><time>2026-03-22T10:10:18Z</time></trkpt><trkpt lat="44.854210782497624" lon="9.869025582301285"><ele>169.0</ele><time>2026-03-22T10:10:20Z</time></trkpt><trkpt lat="44.8541491629945" lon="9.86895258166645"><ele>169.5</ele><time>2026-03-22T10:10:22Z</time></trkpt><trkpt lat="44.854074562416166" lon="9.86889508274762"><ele>170.0</ele><time>2026-03-22T10:10:24Z</time></trkpt><trkpt lat="44.854009469618624" lon="9.868827096975094"><ele>170.0</ele><time>2026-03-22T10:10:26Z</time></trkpt><trkpt lat="44.853960767343494" lon="9.868740770059084"><ele>170.0</ele><time>2026-03-22T10:10:28Z</time></trkpt><trkpt lat="44.85391827318484" lon="9.868645742183128"><ele>170.0</ele><time>2026-03-22T10:10:29.999Z</time></trkpt><trkpt lat="44.853873157573325" lon="9.868555177136146"><ele>170.0</ele><time>2026-03-22T10:10:31.999Z</time></trkpt><trkpt lat="44.85383029654858" lon="9.868466862390868"><ele>170.0</ele><time>2026-03-22T10:10:33.999Z</time></trkpt><trkpt lat="44.85378267634903" lon="9.868384315008978"><ele>170.0</ele><time>2026-03-22T10:10:35.999Z</time></trkpt><trkpt lat="44.853736461805816" lon="9.86829717929515"><ele>170.66666666666666</ele><time>2026-03-22T10:10:37.999Z</time></trkpt><trkpt lat="44.85368652355649" lon="9.868215001145197"><ele>171.33333333333331</ele><time>2026-03-22T10:10:39.999Z</time></trkpt><trkpt lat="44.853634987750134" lon="9.86812968005972"><ele>172.0</ele><time>2026-03-22T10:10:41.999Z</time></trkpt><trkpt lat="44.853584322363965" lon="9.868037642655977"><ele>172.66666666666666</ele><time>2026-03-22T10:10:43.999Z</time></trkpt><trkpt lat="44.853532269958755" lon="9.867956846942231"><ele>173.33333333333334</ele><time>2026-03-22T10:10:45.999Z</time></trkpt><trkpt lat="44.85348029711275" lon="9.867872237408955"><ele>174.0</ele><time>2026-03-22T10:10:47.999Z</time></trkpt><trkpt lat="44.853441805633" lon="9.867769064030307"><ele>174.5</ele><time>2026-03-22T10:10:49.999Z</time></trkpt><trkpt lat="44.85340285793299" lon="9.867670008453704"><ele>175.0</ele><time>2026-03-22T10:10:51.999Z</time></trkpt><trkpt lat="44.85335692805475" lon="9.867578243829913"><ele>175.5</ele><time>2026-03-22T10:10:53.999Z</time></trkpt><trkpt lat="44.85330966918738" lon="9.867488824451813"><ele>176.0</ele><time>2026-03-22T10:10:55.999Z</time></trkpt><trkpt lat="44.85326567130617" lon="9.86740143532098"><ele>176.5</ele><time>2026-03-22T10:10:57.999Z</time></trkpt><trkpt lat="44.85322145397482" lon="9.867310347442935"><ele>177.0</ele><time>2026-03-22T10:10:59.999Z</time></trkpt><trkpt lat="44.85316884860037" lon="9.867213950704699"><ele>177.0</ele><time>2026-03-22T10:11:01.999Z</time></trkpt><trkpt lat="44.85311241911277" lon="9.867121793473572"><ele>177.0</ele><time>2026-03-22T10:11:03.999Z</time></trkpt><trkpt lat="44.8530565457767" lon="9.867023659120918"><ele>177.0</ele><time>2026-03-22T10:11:05.999Z</time></trkpt><trkpt lat="44.85299658840583" lon="9.866924869613795"><ele>177.0</ele><time>2026-03-22T10:11:07.999Z</time></trkpt><trkpt lat="44.852936319614194" lon="9.866829998050273"><ele>177.0</ele><time>2026-03-22T10:11:09.999Z</time></trkpt><trkpt lat="44.85287893770608" lon="9.86673474612173"><ele>177.0</ele><time>2026-03-22T10:11:11.999Z</time></trkpt><trkpt lat="44.85282258810493" lon="9.86663553413189"><ele>178.39999999999998</ele><time>2026-03-22T10:11:13.999Z</time></trkpt><trkpt lat="44.852762679768134" lon="9.866544520541021"><ele>179.79999999999998</ele><time>2026-03-22T10:11:15.999Z</time></trkpt><trkpt lat="44.85267921247286" lon="9.866420190281133"><ele>181.2</ele><time>2026-03-22T10:11:18.999Z</time></trkpt><trkpt lat="44.85261902429225" lon="9.86632933734352"><ele>182.6</ele><time>2026-03-22T10:11:20.999Z</time></trkpt><trkpt lat="44.85255601259415" lon="9.866230707277529"><ele>184.0</ele><time>2026-03-22T10:11:22.998Z</time></trkpt><trkpt lat="44.85244082846734" lon="9.866083985143842"><ele>184.5</ele><time>2026-03-22T10:11:25.998Z</time></trkpt><trkpt lat="44.852371367531894" lon="9.866001824945057"><ele>185.0</ele><time>2026-03-22T10:11:27.998Z</time></trkpt><trkpt lat="44.85228594424013" lon="9.865939634901828"><ele>185.5</ele><time>2026-03-22T10:11:29.998Z</time></trkpt><trkpt lat="44.852197067221795" lon="9.865897644069882"><ele>186.0</ele><time>2026-03-22T10:11:31.998Z</time></trkpt><trkpt lat="44.8521209993288" lon="9.865842711312668"><ele>186.5</ele><time>2026-03-22T10:11:33.998Z</time></trkpt><trkpt lat="44.85204660384148" lon="9.865808770597205"><ele>187.0</ele><time>2026-03-22T10:11:35.998Z</time></trkpt><trkpt lat="44.85197356249825" lon="9.86576480310478"><ele>187.0</ele><time>2026-03-22T10:11:37.998Z</time></trkpt><trkpt lat="44.85189295888971" lon="9.865714846129755"><ele>187.0</ele><time>2026-03-22T10:11:39.998Z</time></trkpt><trkpt lat="44.851815147416396" lon="9.865660798563074"><ele>187.0</ele><time>2026-03-22T10:11:41.998Z</time></trkpt><trkpt lat="44.85174526344233" lon="9.865600652135578"><ele>187.0</ele><time>2026-03-22T10:11:43.998Z</time></trkpt><trkpt lat="44.85169103182419" lon="9.865504796498994"><ele>187.0</ele><time>2026-03-22T10:11:45.998Z</time></trkpt><trkpt lat="44.85164409978354" lon="9.865428090831198"><ele>187.0</ele><time>2026-03-22T10:11:48.998Z</time></trkpt><trkpt lat="44.85159560218351" lon="9.865362811051707"><ele>188.66666666666669</ele><time>2026-03-22T10:11:51.998Z</time></trkpt><trkpt lat="44.851544469561354" lon="9.865266047190367"><ele>190.33333333333334</ele><time>2026-03-22T10:11:53.998Z</time></trkpt><trkpt lat="44.85149436352117" lon="9.865171161182765"><ele>192.0</ele><time>2026-03-22T10:11:56.998Z</time></trkpt><trkpt lat="44.85144870955279" lon="9.865083072747982"><ele>193.66666666666669</ele><time>2026-03-22T10:11:59.998Z</time></trkpt><trkpt lat="44.85140410894919" lon="9.86499291193925"><ele>195.33333333333334</ele><time>2026-03-22T10:12:02.998Z</time></trkpt><trkpt lat="44.85135893465593" lon="9.864909839859717"><ele>197.0</ele><time>2026-03-22T10:12:05.998Z</time></trkpt><trkpt lat="44.85131342564099" lon="9.864829505421717"><ele>197.42857142857144</ele><time>2026-03-22T10:12:08.998Z</time></trkpt><trkpt lat="44.851268855218535" lon="9.864749376851146"><ele>197.85714285714286</ele><time>2026-03-22T10:12:11.998Z</time></trkpt><trkpt lat="44.85124274288828" lon="9.864663791723684"><ele>198.28571428571428</ele><time>2026-03-22T10:12:14.997Z</time></trkpt><trkpt lat="44.851220358747604" lon="9.864572723603747"><ele>198.71428571428572</ele><time>2026-03-22T10:12:17.997Z</time></trkpt><trkpt lat="44.85120240033341" lon="9.864478835685698"><ele>199.14285714285714</ele><time>2026-03-22T10:12:21Z</time></trkpt><trkpt lat="44.851193076423556" lon="9.864379034713219"><ele>199.57142857142858</ele><time>2026-03-22T10:12:24Z</time></trkpt><trkpt lat="44.85118604081571" lon="9.864278237715947"><ele>200.0</ele><time>2026-03-22T10:12:27Z</time></trkpt><trkpt lat="44.85117729886547" lon="9.864177219319954"><ele>202.14285714285717</ele><time>2026-03-22T10:12:30Z</time></trkpt><trkpt lat="44.851170906401535" lon="9.864078370854692"><ele>204.28571428571428</ele><time>2026-03-22T10:12:33Z</time></trkpt><trkpt lat="44.85115335775531" lon="9.863981470692279"><ele>206.42857142857144</ele><time>2026-03-22T10:12:35.999Z</time></trkpt><trkpt lat="44.85113861637973" lon="9.863880098334345"><ele>208.57142857142858</ele><time>2026-03-22T10:12:38.999Z</time></trkpt><trkpt lat="44.85111790873058" lon="9.863784113421339"><ele>210.71428571428572</ele><time>2026-03-22T10:12:41.999Z</time></trkpt><trkpt lat="44.851099911047044" lon="9.86368738486962"><ele>212.85714285714286</ele><time>2026-03-22T10:12:44.999Z</time></trkpt><trkpt lat="44.85107485449282" lon="9.86359323595428"><ele>215.0</ele><time>2026-03-22T10:12:47.999Z</time></trkpt><trkpt lat="44.85104392003026" lon="9.863506321205445"><ele>214.7142857142857</ele><time>2026-03-22T10:12:50.999Z</time></trkpt><trkpt lat="44.85101328492104" lon="9.863414551435595"><ele>214.42857142857144</ele><time>2026-03-22T10:12:53.999Z</time></trkpt><trkpt lat="44.85098150277948" lon="9.863333290318662"><ele>214.14285714285714</ele><time>2026-03-22T10:12:56.999Z</time></trkpt><trkpt lat="44.8509425886094" lon="9.86325639570615"><ele>213.85714285714283</ele><time>2026-03-22T10:12:59.999Z</time></trkpt><trkpt lat="44.8509090956248" lon="9.863178674171808"><ele>213.57142857142856</ele><time>2026-03-22T10:13:02.999Z</time></trkpt><trkpt lat="44.85086668834338" lon="9.863102288421219"><ele>213.28571428571428</ele><time>2026-03-22T10:13:05.999Z</time></trkpt><trkpt lat="44.850826392557465" lon="9.86302518588876"><ele>213.0</ele><time>2026-03-22T10:13:08.999Z</time></trkpt><trkpt lat="44.8507849289302" lon="9.862944719787354"><ele>212.99999999999997</ele><time>2026-03-22T10:13:11.999Z</time></trkpt><trkpt lat="44.85074658085211" lon="9.862873570198147"><ele>213.0</ele><time>2026-03-22T10:13:14.999Z</time></trkpt><trkpt lat="44.85070384071938" lon="9.862790871314408"><ele>213.0</ele><time>2026-03-22T10:13:17.999Z</time></trkpt><trkpt lat="44.85066342998366" lon="9.862710309012291"><ele>213.0</ele><time>2026-03-22T10:13:20.999Z</time></trkpt><trkpt lat="44.85061907997072" lon="9.862628627524971"><ele>213.0</ele><time>2026-03-22T10:13:23.999Z</time></trkpt><trkpt lat="44.8505804217155" lon="9.86254129674739"><ele>212.99999999999997</ele><time>2026-03-22T10:13:26.998Z</time></trkpt><trkpt lat="44.85054710560959" lon="9.862452050936366"><ele>213.0</ele><time>2026-03-22T10:13:29.998Z</time></trkpt><trkpt lat="44.85052367379952" lon="9.86236265507765"><ele>213.85714285714283</ele><time>2026-03-22T10:13:32.998Z</time></trkpt><trkpt lat="44.85051261500378" lon="9.86226180664716"><ele>214.71428571428572</ele><time>2026-03-22T10:13:35.998Z</time></trkpt><trkpt lat="44.85050065111302" lon="9.862167063629892"><ele>215.57142857142856</ele><time>2026-03-22T10:13:38.998Z</time></trkpt><trkpt lat="44.85048851208879" lon="9.862069137859491"><ele>216.42857142857142</ele><time>2026-03-22T10:13:41.998Z</time></trkpt><trkpt lat="44.85046445049631" lon="9.861965938146328"><ele>217.28571428571428</ele><time>2026-03-22T10:13:44.998Z</time></trkpt><trkpt lat="44.85042226097855" lon="9.861864859680258"><ele>218.14285714285714</ele><time>2026-03-22T10:13:48.998Z</time></trkpt><trkpt lat="44.85036313544546" lon="9.86180903419769"><ele>219.0</ele><time>2026-03-22T10:13:51.998Z</time></trkpt><trkpt lat="44.85028606300925" lon="9.861796896633175"><ele>219.0</ele><time>2026-03-22T10:13:54.998Z</time></trkpt><trkpt lat="44.8502026534964" lon="9.86182723756365"><ele>219.0</ele><time>2026-03-22T10:13:57.998Z</time></trkpt><trkpt lat="44.850134658879384" lon="9.861894468667753"><ele>219.0</ele><time>2026-03-22T10:14:00.998Z</time></trkpt><trkpt lat="44.850081970935264" lon="9.861970109166343"><ele>219.0</ele><time>2026-03-22T10:14:03.998Z</time></trkpt><trkpt lat="44.850038813201465" lon="9.862054210910213"><ele>219.0</ele><time>2026-03-22T10:14:06.998Z</time></trkpt><trkpt lat="44.84999972547655" lon="9.862146165621658"><ele>219.0</ele><time>2026-03-22T10:14:09.998Z</time></trkpt><trkpt lat="44.849960436383185" lon="9.8622373225323"><ele>218.83333333333334</ele><time>2026-03-22T10:14:12.998Z</time></trkpt><trkpt lat="44.849920359419464" lon="9.862329260430387"><ele>218.66666666666669</ele><time>2026-03-22T10:14:15.998Z</time></trkpt><trkpt lat="44.849889178694646" lon="9.862422428823379"><ele>218.5</ele><time>2026-03-22T10:14:18.998Z</time></trkpt><trkpt lat="44.84985997398782" lon="9.862512313356424"><ele>218.33333333333334</ele><time>2026-03-22T10:14:21.997Z</time></trkpt><trkpt lat="44.84982221448828" lon="9.862607098839703"><ele>218.16666666666669</ele><time>2026-03-22T10:14:24.999Z</time></trkpt><trkpt lat="44.84978360665206" lon="9.862695467234149"><ele>218.0</ele><time>2026-03-22T10:14:27.999Z</time></trkpt><trkpt lat="44.84973340340381" lon="9.862782588594522"><ele>218.83333333333334</ele><time>2026-03-22T10:14:30.999Z</time></trkpt><trkpt lat="44.84967878929549" lon="9.862861153932414"><ele>219.66666666666669</ele><time>2026-03-22T10:14:33.999Z</time></trkpt><trkpt lat="44.849616045970784" lon="9.86293474079168"><ele>220.5</ele><time>2026-03-22T10:14:36.999Z</time></trkpt><trkpt lat="44.849548201657484" lon="9.863009914757583"><ele>221.33333333333331</ele><time>2026-03-22T10:14:39.999Z</time></trkpt><trkpt lat="44.84947093726429" lon="9.863079289016865"><ele>222.16666666666666</ele><time>2026-03-22T10:14:43Z</time></trkpt><trkpt lat="44.84939344886466" lon="9.863145936413817"><ele>223.0</ele><time>2026-03-22T10:14:46Z</time></trkpt><trkpt lat="44.84933687212478" lon="9.863190195978095"><ele>222.33333333333331</ele><time>2026-03-22T10:14:48Z</time></trkpt><trkpt lat="44.84925132013594" lon="9.863255627960129"><ele>221.66666666666666</ele><time>2026-03-22T10:14:51Z</time></trkpt><trkpt lat="44.849190149125626" lon="9.863285406429643"><ele>221.0</ele><time>2026-03-22T10:14:53Z</time></trkpt><trkpt lat="44.84910989492194" lon="9.863271158353154"><ele>220.33333333333331</ele><time>2026-03-22T10:14:56Z</time></trkpt><trkpt lat="44.84908708439876" lon="9.863186828646459"><ele>219.66666666666666</ele><time>2026-03-22T10:14:59Z</time></trkpt><trkpt lat="44.84905922246752" lon="9.863052591701678"><ele>219.0</ele><time>2026-03-22T10:15:03Z</time></trkpt><trkpt lat="44.84903662817596" lon="9.86295807769265"><ele>219.0</ele><time>2026-03-22T10:15:06Z</time></trkpt><trkpt lat="44.849019492177035" lon="9.862859967753016"><ele>219.0</ele><time>2026-03-22T10:15:09Z</time></trkpt><trkpt lat="44.84900316707931" lon="9.8627628465159"><ele>219.0</ele><time>2026-03-22T10:15:12Z</time></trkpt><trkpt lat="44.848987280634745" lon="9.862666543008364"><ele>219.0</ele><time>2026-03-22T10:15:15Z</time></trkpt><trkpt lat="44.84896697201911" lon="9.862569557563186"><ele>219.0</ele><time>2026-03-22T10:15:18Z</time></trkpt><trkpt lat="44.8489414602823" lon="9.862468663411805"><ele>219.0</ele><time>2026-03-22T10:15:20Z</time></trkpt><trkpt lat="44.84891268564314" lon="9.862348999743144"><ele>220.83333333333334</ele><time>2026-03-22T10:15:23Z</time></trkpt><trkpt lat="44.84888013126248" lon="9.862245646996495"><ele>222.66666666666669</ele><time>2026-03-22T10:15:26Z</time></trkpt><trkpt lat="44.848838596048076" lon="9.862143907623091"><ele>224.5</ele><time>2026-03-22T10:15:29Z</time></trkpt><trkpt lat="44.84880804992063" lon="9.862045690188824"><ele>226.33333333333334</ele><time>2026-03-22T10:15:31.999Z</time></trkpt><trkpt lat="44.84877678634768" lon="9.86194727552139"><ele>228.16666666666669</ele><time>2026-03-22T10:15:34.999Z</time></trkpt><trkpt lat="44.84874788694586" lon="9.861854620893222"><ele>230.0</ele><time>2026-03-22T10:15:37.999Z</time></trkpt><trkpt lat="44.84872264159453" lon="9.861767301992645"><ele>231.71428571428567</ele><time>2026-03-22T10:15:40.999Z</time></trkpt><trkpt lat="44.84869687726737" lon="9.861671995159574"><ele>233.42857142857142</ele><time>2026-03-22T10:15:43.999Z</time></trkpt><trkpt lat="44.84867972169697" lon="9.861584048574604"><ele>235.1428571428571</ele><time>2026-03-22T10:15:46.999Z</time></trkpt><trkpt lat="44.84865734981021" lon="9.8614935264298"><ele>236.85714285714283</ele><time>2026-03-22T10:15:49.999Z</time></trkpt><trkpt lat="44.848633940861625" lon="9.861408242485266"><ele>238.57142857142856</ele><time>2026-03-22T10:15:52.999Z</time></trkpt><trkpt lat="44.848618605213105" lon="9.86131648316022"><ele>240.28571428571428</ele><time>2026-03-22T10:15:55.999Z</time></trkpt><trkpt lat="44.84860289020701" lon="9.861219547180896"><ele>242.0</ele><time>2026-03-22T10:15:58.999Z</time></trkpt><trkpt lat="44.84858367827239" lon="9.86110767381946"><ele>242.0</ele><time>2026-03-22T10:16:02.999Z</time></trkpt><trkpt lat="44.84857679360737" lon="9.861018210869483"><ele>241.99999999999997</ele><time>2026-03-22T10:16:05.999Z</time></trkpt><trkpt lat="44.84857299166785" lon="9.860903212216037"><ele>242.0</ele><time>2026-03-22T10:16:09.999Z</time></trkpt><trkpt lat="44.848573555409864" lon="9.860809913540711"><ele>242.0</ele><time>2026-03-22T10:16:12.999Z</time></trkpt><trkpt lat="44.84858126877274" lon="9.860718824303685"><ele>241.99999999999997</ele><time>2026-03-22T10:16:15.999Z</time></trkpt><trkpt lat="44.84859139942731" lon="9.860627195319276"><ele>242.0</ele><time>2026-03-22T10:16:18.999Z</time></trkpt><trkpt lat="44.8486112738421" lon="9.860517205194489"><ele>242.0</ele><time>2026-03-22T10:16:22.998Z</time></trkpt><trkpt lat="44.84864021378627" lon="9.860438069748824"><ele>244.42857142857142</ele><time>2026-03-22T10:16:25.998Z</time></trkpt><trkpt lat="44.84868475596978" lon="9.860368125251822"><ele>246.85714285714283</ele><time>2026-03-22T10:16:28.998Z</time></trkpt><trkpt lat="44.84873336072902" lon="9.8602960511425"><ele>249.28571428571428</ele><time>2026-03-22T10:16:32Z</time></trkpt><trkpt lat="44.84878628051187" lon="9.860223220971138"><ele>251.71428571428572</ele><time>2026-03-22T10:16:35Z</time></trkpt><trkpt lat="44.84884188162934" lon="9.86016464030792"><ele>254.14285714285714</ele><time>2026-03-22T10:16:38Z</time></trkpt><trkpt lat="44.84889788144916" lon="9.860114536365913"><ele>256.57142857142856</ele><time>2026-03-22T10:16:41Z</time></trkpt><trkpt lat="44.848949719278686" lon="9.8600558615369"><ele>259.0</ele><time>2026-03-22T10:16:44Z</time></trkpt><trkpt lat="44.84900201037202" lon="9.859995575758997"><ele>259.42857142857144</ele><time>2026-03-22T10:16:47Z</time></trkpt><trkpt lat="44.8490543095167" lon="9.859945929536075"><ele>259.8571428571429</ele><time>2026-03-22T10:16:50Z</time></trkpt><trkpt lat="44.849106704559674" lon="9.859891089600367"><ele>260.2857142857143</ele><time>2026-03-22T10:16:53Z</time></trkpt><trkpt lat="44.849157814613164" lon="9.85983437446325"><ele>260.7142857142857</ele><time>2026-03-22T10:16:56Z</time></trkpt><trkpt lat="44.84920850032521" lon="9.859772992635746"><ele>261.14285714285717</ele><time>2026-03-22T10:16:59Z</time></trkpt><trkpt lat="44.849257608936114" lon="9.859708313772463"><ele>261.57142857142856</ele><time>2026-03-22T10:17:02Z</time></trkpt><trkpt lat="44.84930270139237" lon="9.859610864206822"><ele>262.0</ele><time>2026-03-22T10:17:06Z</time></trkpt><trkpt lat="44.84933318045524" lon="9.859528072131893"><ele>262.0</ele><time>2026-03-22T10:17:08Z</time></trkpt><trkpt lat="44.84936566638262" lon="9.859426460520963"><ele>262.0</ele><time>2026-03-22T10:17:11Z</time></trkpt><trkpt lat="44.84938669188117" lon="9.859337422135088"><ele>262.0</ele><time>2026-03-22T10:17:13Z</time></trkpt><trkpt lat="44.84941348589103" lon="9.859211299175739"><ele>262.0</ele><time>2026-03-22T10:17:16Z</time></trkpt><trkpt lat="44.84942363467337" lon="9.859119586891113"><ele>262.0</ele><time>2026-03-22T10:17:18Z</time></trkpt><trkpt lat="44.84943172161842" lon="9.859028670073883"><ele>262.0</ele><time>2026-03-22T10:17:20Z</time></trkpt><trkpt lat="44.8494379679298" lon="9.858929157782887"><ele>262.0</ele><time>2026-03-22T10:17:22Z</time></trkpt><trkpt lat="44.84944579170963" lon="9.858827904152042"><ele>261.5</ele><time>2026-03-22T10:17:24Z</time></trkpt><trkpt lat="44.84945996430391" lon="9.858714154337271"><ele>261.0</ele><time>2026-03-22T10:17:27Z</time></trkpt><trkpt lat="44.849482896188576" lon="9.858583804936424"><ele>260.5</ele><time>2026-03-22T10:17:30Z</time></trkpt><trkpt lat="44.84951155613914" lon="9.85844664903502"><ele>260.0</ele><time>2026-03-22T10:17:32Z</time></trkpt><trkpt lat="44.84953463740245" lon="9.858351243875758"><ele>259.5</ele><time>2026-03-22T10:17:34Z</time></trkpt><trkpt lat="44.84956103943927" lon="9.8582549598126"><ele>259.0</ele><time>2026-03-22T10:17:35.999Z</time></trkpt><trkpt lat="44.84959152022815" lon="9.858157552117738"><ele>260.3333333333333</ele><time>2026-03-22T10:17:37.999Z</time></trkpt><trkpt lat="44.84962424699085" lon="9.858059539207652"><ele>261.66666666666663</ele><time>2026-03-22T10:17:39.999Z</time></trkpt><trkpt lat="44.849657064545326" lon="9.857958192638042"><ele>263.0</ele><time>2026-03-22T10:17:41.999Z</time></trkpt><trkpt lat="44.8496932275497" lon="9.857864409215628"><ele>264.3333333333333</ele><time>2026-03-22T10:17:43.999Z</time></trkpt><trkpt lat="44.849731797540194" lon="9.857768108748505"><ele>265.6666666666667</ele><time>2026-03-22T10:17:45.999Z</time></trkpt><trkpt lat="44.84976897111654" lon="9.857672622384749"><ele>267.0</ele><time>2026-03-22T10:17:47.999Z</time></trkpt><trkpt lat="44.84980944318961" lon="9.857567219235282"><ele>267.8571428571429</ele><time>2026-03-22T10:17:49.999Z</time></trkpt><trkpt lat="44.84984634998779" lon="9.857464914176076"><ele>268.7142857142857</ele><time>2026-03-22T10:17:51.999Z</time></trkpt><trkpt lat="44.84987976655579" lon="9.857369796991378"><ele>269.57142857142856</ele><time>2026-03-22T10:17:53.999Z</time></trkpt><trkpt lat="44.849909276781496" lon="9.857276648833208"><ele>270.42857142857144</ele><time>2026-03-22T10:17:55.999Z</time></trkpt><trkpt lat="44.849939536794814" lon="9.857188979047983"><ele>271.2857142857143</ele><time>2026-03-22T10:17:58.999Z</time></trkpt><trkpt lat="44.849970573342205" lon="9.85709671693014"><ele>272.14285714285717</ele><time>2026-03-22T10:17:59.999Z</time></trkpt><trkpt lat="44.850008354277676" lon="9.85700012247892"><ele>273.0</ele><time>2026-03-22T10:18:01.999Z</time></trkpt><trkpt lat="44.85004231899693" lon="9.85691027076706"><ele>273.0</ele><time>2026-03-22T10:18:03.999Z</time></trkpt><trkpt lat="44.850147844650024" lon="9.856648073325054"><ele>273.0</ele><time>2026-03-22T10:18:09.999Z</time></trkpt><trkpt lat="44.85018919890901" lon="9.856555061459906"><ele>273.0</ele><time>2026-03-22T10:18:11.999Z</time></trkpt><trkpt lat="44.85023499936744" lon="9.856459902861253"><ele>273.0</ele><time>2026-03-22T10:18:13.999Z</time></trkpt><trkpt lat="44.850280330073396" lon="9.856376036140444"><ele>273.0</ele><time>2026-03-22T10:18:15.999Z</time></trkpt><trkpt lat="44.85033181037684" lon="9.856286528829212"><ele>273.0</ele><time>2026-03-22T10:18:17.999Z</time></trkpt><trkpt lat="44.85038482713047" lon="9.85620280687541"><ele>273.0</ele><time>2026-03-22T10:18:19.999Z</time></trkpt><trkpt lat="44.850438686077574" lon="9.856121608804008"><ele>273.0</ele><time>2026-03-22T10:18:21.999Z</time></trkpt><trkpt lat="44.85049422489144" lon="9.856044569935296"><ele>273.0</ele><time>2026-03-22T10:18:23.999Z</time></trkpt><trkpt lat="44.85055509454159" lon="9.8559772886877"><ele>273.0</ele><time>2026-03-22T10:18:25.999Z</time></trkpt><trkpt lat="44.8506241878051" lon="9.855909498725566"><ele>273.0</ele><time>2026-03-22T10:18:27.998Z</time></trkpt><trkpt lat="44.850689516062985" lon="9.855845771444798"><ele>274.2857142857143</ele><time>2026-03-22T10:18:29.998Z</time></trkpt><trkpt lat="44.850750250197365" lon="9.855791751859746"><ele>275.57142857142856</ele><time>2026-03-22T10:18:31.998Z</time></trkpt><trkpt lat="44.8508160169438" lon="9.855752819746808"><ele>276.8571428571429</ele><time>2026-03-22T10:18:33.998Z</time></trkpt><trkpt lat="44.850889950304655" lon="9.855773153624677"><ele>278.1428571428571</ele><time>2026-03-22T10:18:36Z</time></trkpt><trkpt lat="44.8509642717885" lon="9.855796903907828"><ele>279.42857142857144</ele><time>2026-03-22T10:18:38Z</time></trkpt><trkpt lat="44.851035538326414" lon="9.855824508985613"><ele>280.7142857142857</ele><time>2026-03-22T10:18:40Z</time></trkpt><trkpt lat="44.851106219348914" lon="9.855845244652409"><ele>282.0</ele><time>2026-03-22T10:18:42Z</time></trkpt><trkpt lat="44.8511782596151" lon="9.855864868931272"><ele>282.1666666666667</ele><time>2026-03-22T10:18:44Z</time></trkpt><trkpt lat="44.85125379394314" lon="9.855881529539996"><ele>282.3333333333333</ele><time>2026-03-22T10:18:46Z</time></trkpt><trkpt lat="44.85133050111337" lon="9.855904835447665"><ele>282.5</ele><time>2026-03-22T10:18:48Z</time></trkpt><trkpt lat="44.851415096013504" lon="9.85592813143002"><ele>282.66666666666663</ele><time>2026-03-22T10:18:50Z</time></trkpt><trkpt lat="44.85150315104353" lon="9.855953133436909"><ele>282.8333333333333</ele><time>2026-03-22T10:18:52Z</time></trkpt><trkpt lat="44.85159063529781" lon="9.85597557590381"><ele>283.0</ele><time>2026-03-22T10:18:54Z</time></trkpt><trkpt lat="44.85168253599701" lon="9.855998276682286"><ele>281.4</ele><time>2026-03-22T10:18:56Z</time></trkpt><trkpt lat="44.851782656792466" lon="9.856017432184833"><ele>279.8</ele><time>2026-03-22T10:18:58Z</time></trkpt><trkpt lat="44.85188766785633" lon="9.856035392523218"><ele>278.2</ele><time>2026-03-22T10:19:00Z</time></trkpt><trkpt lat="44.851994528387394" lon="9.856053739533149"><ele>276.6</ele><time>2026-03-22T10:19:02Z</time></trkpt><trkpt lat="44.852102229717794" lon="9.85606288159277"><ele>275.0</ele><time>2026-03-22T10:19:04Z</time></trkpt><trkpt lat="44.85221652952808" lon="9.856078490060451"><ele>275.0</ele><time>2026-03-22T10:19:06Z</time></trkpt><trkpt lat="44.85233387185512" lon="9.85609188739848"><ele>275.0</ele><time>2026-03-22T10:19:08Z</time></trkpt><trkpt lat="44.85245369594689" lon="9.856100464627678"><ele>275.0</ele><time>2026-03-22T10:19:10Z</time></trkpt><trkpt lat="44.85257127773047" lon="9.856117586516314"><ele>275.0</ele><time>2026-03-22T10:19:12Z</time></trkpt><trkpt lat="44.85269584317033" lon="9.85612784672228"><ele>275.0</ele><time>2026-03-22T10:19:14Z</time></trkpt><trkpt lat="44.85276057116505" lon="9.856141013212545"><ele>275.0</ele><time>2026-03-22T10:19:15Z</time></trkpt><trkpt lat="44.85282692582481" lon="9.856161539728847"><ele>275.0</ele><time>2026-03-22T10:19:16Z</time></trkpt><trkpt lat="44.85289452083564" lon="9.85618258902212"><ele>275.0</ele><time>2026-03-22T10:19:17Z</time></trkpt><trkpt lat="44.85296385262829" lon="9.856205061006866"><ele>275.0</ele><time>2026-03-22T10:19:18Z</time></trkpt><trkpt lat="44.85303395850684" lon="9.856226202677155"><ele>275.0</ele><time>2026-03-22T10:19:19Z</time></trkpt><trkpt lat="44.8531042092653" lon="9.856247784632746"><ele>275.0</ele><time>2026-03-22T10:19:20Z</time></trkpt><trkpt lat="44.85317459295645" lon="9.856271785607582"><ele>275.0</ele><time>2026-03-22T10:19:21Z</time></trkpt><trkpt lat="44.85324508884386" lon="9.856295988302387"><ele>275.0</ele><time>2026-03-22T10:19:22Z</time></trkpt><trkpt lat="44.85331436846946" lon="9.85631955614162"><ele>275.0</ele><time>2026-03-22T10:19:23Z</time></trkpt><trkpt lat="44.853385416916076" lon="9.856340624466602"><ele>275.0</ele><time>2026-03-22T10:19:24Z</time></trkpt><trkpt lat="44.8534566330598" lon="9.856361523712915"><ele>275.0</ele><time>2026-03-22T10:19:25Z</time></trkpt><trkpt lat="44.85353056708863" lon="9.856382527350343"><ele>275.0</ele><time>2026-03-22T10:19:26Z</time></trkpt><trkpt lat="44.85360348300222" lon="9.85640704143491"><ele>275.0</ele><time>2026-03-22T10:19:27Z</time></trkpt><trkpt lat="44.85367737365504" lon="9.856428495113242"><ele>274.6666666666667</ele><time>2026-03-22T10:19:28Z</time></trkpt><trkpt lat="44.85375467595579" lon="9.856442551497144"><ele>274.33333333333337</ele><time>2026-03-22T10:19:29Z</time></trkpt><trkpt lat="44.85383247723516" lon="9.856458799809607"><ele>274.0</ele><time>2026-03-22T10:19:30Z</time></trkpt><trkpt lat="44.85391048097218" lon="9.856472041315746"><ele>273.6666666666667</ele><time>2026-03-22T10:19:31Z</time></trkpt><trkpt lat="44.853989707472856" lon="9.856481491396616"><ele>273.3333333333333</ele><time>2026-03-22T10:19:32Z</time></trkpt><trkpt lat="44.85407134967157" lon="9.856490658284752"><ele>273.0</ele><time>2026-03-22T10:19:33Z</time></trkpt><trkpt lat="44.85415405568455" lon="9.856497311572271"><ele>273.0</ele><time>2026-03-22T10:19:34Z</time></trkpt><trkpt lat="44.85423766828107" lon="9.856500800287648"><ele>273.0</ele><time>2026-03-22T10:19:35Z</time></trkpt><trkpt lat="44.85432334718004" lon="9.856502247930981"><ele>273.0</ele><time>2026-03-22T10:19:35.999Z</time></trkpt><trkpt lat="44.85441176386428" lon="9.856504380812193"><ele>273.0</ele><time>2026-03-22T10:19:36.999Z</time></trkpt><trkpt lat="44.85450058135198" lon="9.856498022721654"><ele>273.0</ele><time>2026-03-22T10:19:37.999Z</time></trkpt><trkpt lat="44.854590575793736" lon="9.856486673530144"><ele>273.0</ele><time>2026-03-22T10:19:38.999Z</time></trkpt><trkpt lat="44.85468272946455" lon="9.85647174290042"><ele>272.2</ele><time>2026-03-22T10:19:39.999Z</time></trkpt><trkpt lat="44.854774479301426" lon="9.856450789551802"><ele>271.4</ele><time>2026-03-22T10:19:40.999Z</time></trkpt><trkpt lat="44.85486878400078" lon="9.856428442243582"><ele>270.59999999999997</ele><time>2026-03-22T10:19:41.999Z</time></trkpt><trkpt lat="44.85496365505277" lon="9.856411713153111"><ele>269.8</ele><time>2026-03-22T10:19:42.999Z</time></trkpt><trkpt lat="44.85505560619469" lon="9.856365969389095"><ele>269.0</ele><time>2026-03-22T10:19:43.999Z</time></trkpt><trkpt lat="44.85514887310817" lon="9.856326027692212"><ele>268.0</ele><time>2026-03-22T10:19:44.999Z</time></trkpt><trkpt lat="44.85524271649048" lon="9.856274428053728"><ele>267.0</ele><time>2026-03-22T10:19:45.999Z</time></trkpt><trkpt lat="44.85534032040225" lon="9.856214196997422"><ele>266.0</ele><time>2026-03-22T10:19:46.999Z</time></trkpt><trkpt lat="44.855440341042566" lon="9.856149746027123"><ele>265.0</ele><time>2026-03-22T10:19:47.999Z</time></trkpt><trkpt lat="44.85554241525708" lon="9.856085931814027"><ele>264.0</ele><time>2026-03-22T10:19:48.999Z</time></trkpt><trkpt lat="44.85564773204911" lon="9.856022543450107"><ele>264.0</ele><time>2026-03-22T10:19:49.999Z</time></trkpt><trkpt lat="44.855757483856074" lon="9.855958195715365"><ele>264.0</ele><time>2026-03-22T10:19:50.999Z</time></trkpt><trkpt lat="44.855868093831546" lon="9.855893951475137"><ele>264.0</ele><time>2026-03-22T10:19:51.999Z</time></trkpt><trkpt lat="44.85597878951885" lon="9.85583327018587"><ele>264.0</ele><time>2026-03-22T10:19:52.999Z</time></trkpt><trkpt lat="44.8560908491418" lon="9.85577367679714"><ele>263.25</ele><time>2026-03-22T10:19:53.999Z</time></trkpt><trkpt lat="44.856208278848015" lon="9.855740626517976"><ele>262.5</ele><time>2026-03-22T10:19:54.999Z</time></trkpt><trkpt lat="44.85631578452909" lon="9.855672472322116"><ele>261.75</ele><time>2026-03-22T10:19:55.999Z</time></trkpt><trkpt lat="44.85642722137952" lon="9.855630894774245"><ele>261.0</ele><time>2026-03-22T10:19:56.999Z</time></trkpt><trkpt lat="44.8565399079423" lon="9.855614330419803"><ele>261.0</ele><time>2026-03-22T10:19:57.999Z</time></trkpt><trkpt lat="44.85664735705553" lon="9.855574386166904"><ele>261.0</ele><time>2026-03-22T10:19:58.999Z</time></trkpt><trkpt lat="44.856753434726826" lon="9.855552754676555"><ele>261.0</ele><time>2026-03-22T10:19:59.999Z</time></trkpt><trkpt lat="44.85685868789498" lon="9.855550622347284"><ele>261.0</ele><time>2026-03-22T10:20:00.999Z</time></trkpt><trkpt lat="44.856960884912944" lon="9.855566859801828"><ele>261.0</ele><time>2026-03-22T10:20:01.999Z</time></trkpt><trkpt lat="44.857059907813536" lon="9.85559202750468"><ele>260.40000000000003</ele><time>2026-03-22T10:20:02.999Z</time></trkpt><trkpt lat="44.857155045096114" lon="9.855620589530421"><ele>259.8</ele><time>2026-03-22T10:20:03.999Z</time></trkpt><trkpt lat="44.85724807774878" lon="9.855652372595703"><ele>259.20000000000005</ele><time>2026-03-22T10:20:04.999Z</time></trkpt><trkpt lat="44.857338704430944" lon="9.85569202613964"><ele>258.6</ele><time>2026-03-22T10:20:05.999Z</time></trkpt><trkpt lat="44.857425347627135" lon="9.855743715544481"><ele>258.0</ele><time>2026-03-22T10:20:06.999Z</time></trkpt><trkpt lat="44.85750954899017" lon="9.855795109177917"><ele>258.0</ele><time>2026-03-22T10:20:07.999Z</time></trkpt><trkpt lat="44.85759431937792" lon="9.855848875072406"><ele>258.0</ele><time>2026-03-22T10:20:08.999Z</time></trkpt><trkpt lat="44.857681232156" lon="9.855900562957856"><ele>258.0</ele><time>2026-03-22T10:20:09.999Z</time></trkpt><trkpt lat="44.857767396310365" lon="9.855946773534031"><ele>258.0</ele><time>2026-03-22T10:20:10.999Z</time></trkpt><trkpt lat="44.85785376865184" lon="9.855995542027332"><ele>258.0</ele><time>2026-03-22T10:20:11.999Z</time></trkpt><trkpt lat="44.85793998606872" lon="9.856042814926353"><ele>257.4</ele><time>2026-03-22T10:20:12.999Z</time></trkpt><trkpt lat="44.85802635467379" lon="9.856086761550934"><ele>256.8</ele><time>2026-03-22T10:20:13.999Z</time></trkpt><trkpt lat="44.858114340742006" lon="9.856126502535218"><ele>256.2</ele><time>2026-03-22T10:20:14.999Z</time></trkpt><trkpt lat="44.85820423710335" lon="9.856164525074734"><ele>255.6</ele><time>2026-03-22T10:20:15.999Z</time></trkpt><trkpt lat="44.85829510446972" lon="9.856195571760793"><ele>255.0</ele><time>2026-03-22T10:20:16.999Z</time></trkpt><trkpt lat="44.85838478693708" lon="9.856227246250006"><ele>254.2</ele><time>2026-03-22T10:20:17.999Z</time></trkpt><trkpt lat="44.85847329360602" lon="9.856258197256832"><ele>253.4</ele><time>2026-03-22T10:20:18.999Z</time></trkpt><trkpt lat="44.85856093420255" lon="9.85629089705917"><ele>252.60000000000002</ele><time>2026-03-22T10:20:19.999Z</time></trkpt><trkpt lat="44.85865131926327" lon="9.856318054126636"><ele>251.8</ele><time>2026-03-22T10:20:20.999Z</time></trkpt><trkpt lat="44.858742668060415" lon="9.856348866760019"><ele>251.0</ele><time>2026-03-22T10:20:21.999Z</time></trkpt><trkpt lat="44.858834557764986" lon="9.856381598661724"><ele>251.0</ele><time>2026-03-22T10:20:22.999Z</time></trkpt><trkpt lat="44.858927367461554" lon="9.856410691749387"><ele>251.00000000000003</ele><time>2026-03-22T10:20:23.999Z</time></trkpt><trkpt lat="44.859024053949774" lon="9.856437445959878"><ele>251.00000000000003</ele><time>2026-03-22T10:20:24.999Z</time></trkpt><trkpt lat="44.85911658229482" lon="9.856470355362164"><ele>251.0</ele><time>2026-03-22T10:20:25.999Z</time></trkpt><trkpt lat="44.85921150332544" lon="9.856504517753164"><ele>251.0</ele><time>2026-03-22T10:20:26.999Z</time></trkpt><trkpt lat="44.85930721079313" lon="9.856538052180197"><ele>249.4</ele><time>2026-03-22T10:20:27.999Z</time></trkpt><trkpt lat="44.859404360202845" lon="9.856568630799336"><ele>247.8</ele><time>2026-03-22T10:20:28.998Z</time></trkpt><trkpt lat="44.85950206390301" lon="9.856603724615239"><ele>246.20000000000002</ele><time>2026-03-22T10:20:29.998Z</time></trkpt><trkpt lat="44.859599944038095" lon="9.85663803503272"><ele>244.60000000000002</ele><time>2026-03-22T10:20:30.998Z</time></trkpt><trkpt lat="44.85969824761864" lon="9.856671082155076"><ele>243.0</ele><time>2026-03-22T10:20:31.998Z</time></trkpt><trkpt lat="44.85979531614201" lon="9.856706821707892"><ele>243.0</ele><time>2026-03-22T10:20:32.998Z</time></trkpt><trkpt lat="44.859893906186144" lon="9.856738639704181"><ele>243.0</ele><time>2026-03-22T10:20:33.998Z</time></trkpt><trkpt lat="44.859991859792174" lon="9.856767853609883"><ele>243.0</ele><time>2026-03-22T10:20:34.998Z</time></trkpt><trkpt lat="44.86009128314478" lon="9.856797927755647"><ele>243.0</ele><time>2026-03-22T10:20:35.998Z</time></trkpt><trkpt lat="44.860191955292045" lon="9.856829152055736"><ele>243.0</ele><time>2026-03-22T10:20:36.998Z</time></trkpt><trkpt lat="44.860292650075245" lon="9.856865303933317"><ele>242.2</ele><time>2026-03-22T10:20:37.998Z</time></trkpt><trkpt lat="44.86039349908241" lon="9.856900125244408"><ele>241.4</ele><time>2026-03-22T10:20:38.998Z</time></trkpt><trkpt lat="44.86049551834981" lon="9.85693299214732"><ele>240.59999999999997</ele><time>2026-03-22T10:20:39.998Z</time></trkpt><trkpt lat="44.86059791373703" lon="9.85696726399882"><ele>239.79999999999998</ele><time>2026-03-22T10:20:41Z</time></trkpt><trkpt lat="44.860700460886704" lon="9.85700162437623"><ele>239.0</ele><time>2026-03-22T10:20:42Z</time></trkpt><trkpt lat="44.860803586204895" lon="9.857033700458985"><ele>239.0</ele><time>2026-03-22T10:20:43Z</time></trkpt><trkpt lat="44.8609055542091" lon="9.857065918171088"><ele>238.99999999999997</ele><time>2026-03-22T10:20:44Z</time></trkpt><trkpt lat="44.86100515940073" lon="9.857100105817013"><ele>238.99999999999997</ele><time>2026-03-22T10:20:45Z</time></trkpt><trkpt lat="44.861105058917545" lon="9.857135642441552"><ele>239.0</ele><time>2026-03-22T10:20:46Z</time></trkpt><trkpt lat="44.86120288996564" lon="9.857173391303101"><ele>239.0</ele><time>2026-03-22T10:20:47Z</time></trkpt><trkpt lat="44.861299263326025" lon="9.857211084667115"><ele>238.79999999999998</ele><time>2026-03-22T10:20:48Z</time></trkpt><trkpt lat="44.861398231419926" lon="9.857244904148494"><ele>238.59999999999997</ele><time>2026-03-22T10:20:49Z</time></trkpt><trkpt lat="44.8614974876028" lon="9.857276208105905"><ele>238.4</ele><time>2026-03-22T10:20:50Z</time></trkpt><trkpt lat="44.86159618223197" lon="9.85731031842268"><ele>238.2</ele><time>2026-03-22T10:20:51Z</time></trkpt><trkpt lat="44.86169568781809" lon="9.857343704196971"><ele>238.0</ele><time>2026-03-22T10:20:52Z</time></trkpt><trkpt lat="44.861794646490445" lon="9.85737804596302"><ele>237.0</ele><time>2026-03-22T10:20:53Z</time></trkpt><trkpt lat="44.86189189654874" lon="9.857414880418919"><ele>236.0</ele><time>2026-03-22T10:20:54Z</time></trkpt><trkpt lat="44.861989098855226" lon="9.857448403263442"><ele>235.0</ele><time>2026-03-22T10:20:55Z</time></trkpt><trkpt lat="44.862087046403055" lon="9.85748167249318"><ele>234.0</ele><time>2026-03-22T10:20:56Z</time></trkpt><trkpt lat="44.86218429171593" lon="9.857510517369938"><ele>233.0</ele><time>2026-03-22T10:20:57Z</time></trkpt><trkpt lat="44.86228270835065" lon="9.857539574858365"><ele>233.0</ele><time>2026-03-22T10:20:58Z</time></trkpt><trkpt lat="44.86238088010804" lon="9.857569695937196"><ele>233.0</ele><time>2026-03-22T10:20:59Z</time></trkpt><trkpt lat="44.862478651076536" lon="9.857599207481995"><ele>233.0</ele><time>2026-03-22T10:21:00Z</time></trkpt><trkpt lat="44.862574953062506" lon="9.857630090690305"><ele>233.0</ele><time>2026-03-22T10:21:01Z</time></trkpt><trkpt lat="44.86267210903301" lon="9.857663953359038"><ele>233.0</ele><time>2026-03-22T10:21:02Z</time></trkpt><trkpt lat="44.862769231203615" lon="9.857695780229216"><ele>232.4</ele><time>2026-03-22T10:21:03Z</time></trkpt><trkpt lat="44.86286844115513" lon="9.857725671535015"><ele>231.8</ele><time>2026-03-22T10:21:04Z</time></trkpt><trkpt lat="44.86297006384504" lon="9.857755372885736"><ele>231.2</ele><time>2026-03-22T10:21:05Z</time></trkpt><trkpt lat="44.863074618298526" lon="9.857788900681806"><ele>230.6</ele><time>2026-03-22T10:21:06Z</time></trkpt><trkpt lat="44.863181604791365" lon="9.857824920676103"><ele>230.0</ele><time>2026-03-22T10:21:07Z</time></trkpt><trkpt lat="44.86328948284023" lon="9.857864045553479"><ele>230.0</ele><time>2026-03-22T10:21:08Z</time></trkpt><trkpt lat="44.863399102392265" lon="9.857899690741172"><ele>230.0</ele><time>2026-03-22T10:21:09Z</time></trkpt><trkpt lat="44.863507834104986" lon="9.857935979198254"><ele>230.0</ele><time>2026-03-22T10:21:10Z</time></trkpt><trkpt lat="44.86361516977078" lon="9.857973617861017"><ele>230.0</ele><time>2026-03-22T10:21:11Z</time></trkpt><trkpt lat="44.863721701874475" lon="9.858009146056848"><ele>230.0</ele><time>2026-03-22T10:21:12Z</time></trkpt><trkpt lat="44.86382647101114" lon="9.858046037322898"><ele>228.6</ele><time>2026-03-22T10:21:13Z</time></trkpt><trkpt lat="44.86393112647327" lon="9.858077382948302"><ele>227.2</ele><time>2026-03-22T10:21:14Z</time></trkpt><trkpt lat="44.86403747620765" lon="9.858092501865798"><ele>225.8</ele><time>2026-03-22T10:21:15Z</time></trkpt><trkpt lat="44.86414325625819" lon="9.858084385697811"><ele>224.4</ele><time>2026-03-22T10:21:16Z</time></trkpt><trkpt lat="44.864249447112414" lon="9.85806488807021"><ele>223.0</ele><time>2026-03-22T10:21:17Z</time></trkpt><trkpt lat="44.86435749277359" lon="9.858034207090572"><ele>222.4</ele><time>2026-03-22T10:21:18Z</time></trkpt><trkpt lat="44.864466771869175" lon="9.85800380484741"><ele>221.8</ele><time>2026-03-22T10:21:19Z</time></trkpt><trkpt lat="44.864577003366605" lon="9.857975855840621"><ele>221.2</ele><time>2026-03-22T10:21:20Z</time></trkpt><trkpt lat="44.86468826893716" lon="9.857952912783256"><ele>220.6</ele><time>2026-03-22T10:21:21Z</time></trkpt><trkpt lat="44.86479881718332" lon="9.85792643737334"><ele>220.0</ele><time>2026-03-22T10:21:22Z</time></trkpt><trkpt lat="44.86491020568923" lon="9.857898896470832"><ele>220.0</ele><time>2026-03-22T10:21:23Z</time></trkpt><trkpt lat="44.865021314136904" lon="9.857870550173779"><ele>220.0</ele><time>2026-03-22T10:21:24Z</time></trkpt><trkpt lat="44.865133201729265" lon="9.857843657605555"><ele>220.0</ele><time>2026-03-22T10:21:25Z</time></trkpt><trkpt lat="44.865244042355044" lon="9.857817021843386"><ele>220.0</ele><time>2026-03-22T10:21:26Z</time></trkpt><trkpt lat="44.86535537613939" lon="9.857789799003744"><ele>218.25</ele><time>2026-03-22T10:21:27Z</time></trkpt><trkpt lat="44.865466417013906" lon="9.857763672481394"><ele>216.5</ele><time>2026-03-22T10:21:28Z</time></trkpt><trkpt lat="44.865577283879986" lon="9.857742506143333"><ele>214.75</ele><time>2026-03-22T10:21:29Z</time></trkpt><trkpt lat="44.86568947166204" lon="9.857715622424347"><ele>213.0</ele><time>2026-03-22T10:21:30Z</time></trkpt><trkpt lat="44.86580327441741" lon="9.857685645292438"><ele>213.0</ele><time>2026-03-22T10:21:31Z</time></trkpt><trkpt lat="44.86591613789268" lon="9.857657403771093"><ele>213.0</ele><time>2026-03-22T10:21:32Z</time></trkpt><trkpt lat="44.86602836571745" lon="9.857633904880261"><ele>213.0</ele><time>2026-03-22T10:21:33Z</time></trkpt><trkpt lat="44.866139405374206" lon="9.857611616179529"><ele>213.0</ele><time>2026-03-22T10:21:34Z</time></trkpt><trkpt lat="44.86624944284421" lon="9.857592084646985"><ele>212.60000000000002</ele><time>2026-03-22T10:21:35Z</time></trkpt><trkpt lat="44.866359164512005" lon="9.857569713644915"><ele>212.20000000000002</ele><time>2026-03-22T10:21:36Z</time></trkpt><trkpt lat="44.866467564090534" lon="9.85754512922506"><ele>211.8</ele><time>2026-03-22T10:21:37Z</time></trkpt><trkpt lat="44.86657451427184" lon="9.857522089146622"><ele>211.4</ele><time>2026-03-22T10:21:38Z</time></trkpt><trkpt lat="44.86667843857529" lon="9.857498601900106"><ele>211.0</ele><time>2026-03-22T10:21:39Z</time></trkpt><trkpt lat="44.86677956889414" lon="9.857478530751147"><ele>209.8</ele><time>2026-03-22T10:21:40Z</time></trkpt><trkpt lat="44.86687479498707" lon="9.857456595373439"><ele>208.60000000000002</ele><time>2026-03-22T10:21:41Z</time></trkpt><trkpt lat="44.86696674044207" lon="9.857433640028047"><ele>207.4</ele><time>2026-03-22T10:21:42Z</time></trkpt><trkpt lat="44.867058511677435" lon="9.8574109302711"><ele>206.2</ele><time>2026-03-22T10:21:43Z</time></trkpt><trkpt lat="44.86714778962018" lon="9.857389909228843"><ele>205.0</ele><time>2026-03-22T10:21:43.999Z</time></trkpt><trkpt lat="44.86723133582043" lon="9.857370631344923"><ele>205.0</ele><time>2026-03-22T10:21:44.999Z</time></trkpt><trkpt lat="44.867310899649254" lon="9.857352105402986"><ele>205.0</ele><time>2026-03-22T10:21:45.999Z</time></trkpt><trkpt lat="44.86738584559253" lon="9.857335037543763"><ele>205.0</ele><time>2026-03-22T10:21:46.999Z</time></trkpt><trkpt lat="44.867457645839686" lon="9.857317249374836"><ele>205.0</ele><time>2026-03-22T10:21:47.999Z</time></trkpt><trkpt lat="44.86752562052076" lon="9.85729602460372"><ele>205.0</ele><time>2026-03-22T10:21:48.999Z</time></trkpt><trkpt lat="44.86759118780767" lon="9.857272994520109"><ele>205.0</ele><time>2026-03-22T10:21:49.999Z</time></trkpt><trkpt lat="44.86765357804407" lon="9.857253111552177"><ele>205.0</ele><time>2026-03-22T10:21:50.999Z</time></trkpt><trkpt lat="44.86771799493996" lon="9.857238016628067"><ele>204.71428571428572</ele><time>2026-03-22T10:21:51.999Z</time></trkpt><trkpt lat="44.86778622525273" lon="9.857227616540873"><ele>204.42857142857142</ele><time>2026-03-22T10:21:52.999Z</time></trkpt><trkpt lat="44.86785673265387" lon="9.857213231205916"><ele>204.14285714285714</ele><time>2026-03-22T10:21:53.999Z</time></trkpt><trkpt lat="44.86792656262936" lon="9.857181510208344"><ele>203.85714285714286</ele><time>2026-03-22T10:21:54.999Z</time></trkpt><trkpt lat="44.867994947753566" lon="9.857141181832612"><ele>203.57142857142856</ele><time>2026-03-22T10:21:55.999Z</time></trkpt><trkpt lat="44.86806606467506" lon="9.857105480113702"><ele>203.28571428571428</ele><time>2026-03-22T10:21:56.999Z</time></trkpt><trkpt lat="44.86813813276324" lon="9.857069349863167"><ele>203.0</ele><time>2026-03-22T10:21:57.999Z</time></trkpt><trkpt lat="44.86821025826198" lon="9.857025709589346"><ele>203.00000000000003</ele><time>2026-03-22T10:21:58.999Z</time></trkpt><trkpt lat="44.868278018647274" lon="9.85697212050336"><ele>203.0</ele><time>2026-03-22T10:21:59.999Z</time></trkpt><trkpt lat="44.86834719407828" lon="9.8569214238571"><ele>203.0</ele><time>2026-03-22T10:22:00.999Z</time></trkpt><trkpt lat="44.868415932767746" lon="9.856870216768295"><ele>203.0</ele><time>2026-03-22T10:22:01.999Z</time></trkpt><trkpt lat="44.868486390931274" lon="9.856818215044218"><ele>203.00000000000003</ele><time>2026-03-22T10:22:02.999Z</time></trkpt><trkpt lat="44.868556275137585" lon="9.85676417857339"><ele>203.0</ele><time>2026-03-22T10:22:03.999Z</time></trkpt><trkpt lat="44.86862584380759" lon="9.856708196013868"><ele>203.00000000000003</ele><time>2026-03-22T10:22:04.999Z</time></trkpt><trkpt lat="44.868696355970684" lon="9.856651829274126"><ele>203.0</ele><time>2026-03-22T10:22:05.999Z</time></trkpt><trkpt lat="44.86876809587343" lon="9.856595455046907"><ele>203.0</ele><time>2026-03-22T10:22:06.999Z</time></trkpt><trkpt lat="44.86883967449448" lon="9.856539035361722"><ele>203.0</ele><time>2026-03-22T10:22:07.999Z</time></trkpt><trkpt lat="44.8689112012034" lon="9.856479397056992"><ele>203.00000000000003</ele><time>2026-03-22T10:22:08.999Z</time></trkpt><trkpt lat="44.86897806237367" lon="9.856409206963376"><ele>203.0</ele><time>2026-03-22T10:22:09.999Z</time></trkpt><trkpt lat="44.869042384983565" lon="9.856335133457366"><ele>203.00000000000003</ele><time>2026-03-22T10:22:10.999Z</time></trkpt><trkpt lat="44.86910800128062" lon="9.856262386749291"><ele>203.0</ele><time>2026-03-22T10:22:11.999Z</time></trkpt><trkpt lat="44.869180395346824" lon="9.856203383444065"><ele>203.0</ele><time>2026-03-22T10:22:12.999Z</time></trkpt><trkpt lat="44.869251173822015" lon="9.856141409142685"><ele>203.0</ele><time>2026-03-22T10:22:13.999Z</time></trkpt><trkpt lat="44.869323856344195" lon="9.856081535549375"><ele>203.00000000000003</ele><time>2026-03-22T10:22:14.999Z</time></trkpt><trkpt lat="44.869398405325335" lon="9.85602756218954"><ele>203.0</ele><time>2026-03-22T10:22:15.999Z</time></trkpt><trkpt lat="44.869476499604886" lon="9.85597875097491"><ele>202.00000000000003</ele><time>2026-03-22T10:22:16.999Z</time></trkpt><trkpt lat="44.869556112525316" lon="9.8559353941043"><ele>201.0</ele><time>2026-03-22T10:22:17.999Z</time></trkpt><trkpt lat="44.86963897845654" lon="9.855891334647445"><ele>200.0</ele><time>2026-03-22T10:22:18.999Z</time></trkpt><trkpt lat="44.86972184996839" lon="9.855846013222447"><ele>199.0</ele><time>2026-03-22T10:22:19.999Z</time></trkpt><trkpt lat="44.869805306289045" lon="9.855802261697555"><ele>198.00000000000003</ele><time>2026-03-22T10:22:20.999Z</time></trkpt><trkpt lat="44.86988938498323" lon="9.85575695610684"><ele>197.0</ele><time>2026-03-22T10:22:21.999Z</time></trkpt><trkpt lat="44.86997281590457" lon="9.855710554968354"><ele>197.0</ele><time>2026-03-22T10:22:22.999Z</time></trkpt><trkpt lat="44.87005928551195" lon="9.855666015073016"><ele>197.0</ele><time>2026-03-22T10:22:23.999Z</time></trkpt><trkpt lat="44.87014935158414" lon="9.855633044539385"><ele>197.0</ele><time>2026-03-22T10:22:24.999Z</time></trkpt><trkpt lat="44.87024002931612" lon="9.855600597806433"><ele>197.0</ele><time>2026-03-22T10:22:25.999Z</time></trkpt><trkpt lat="44.870334268120594" lon="9.855576806570998"><ele>197.0</ele><time>2026-03-22T10:22:26.999Z</time></trkpt><trkpt lat="44.870430769474915" lon="9.855556478804553"><ele>196.39999999999998</ele><time>2026-03-22T10:22:27.999Z</time></trkpt><trkpt lat="44.87052535466593" lon="9.855530273388734"><ele>195.79999999999998</ele><time>2026-03-22T10:22:28.999Z</time></trkpt><trkpt lat="44.870619078585975" lon="9.855499164428572"><ele>195.2</ele><time>2026-03-22T10:22:29.999Z</time></trkpt><trkpt lat="44.87071294343515" lon="9.855466076449686"><ele>194.6</ele><time>2026-03-22T10:22:30.999Z</time></trkpt><trkpt lat="44.870805300094915" lon="9.855432475359612"><ele>194.0</ele><time>2026-03-22T10:22:31.999Z</time></trkpt><trkpt lat="44.870899224034" lon="9.855402592386111"><ele>193.79999999999998</ele><time>2026-03-22T10:22:32.999Z</time></trkpt><trkpt lat="44.870987907013635" lon="9.855368841906621"><ele>193.6</ele><time>2026-03-22T10:22:33.999Z</time></trkpt><trkpt lat="44.871076703786834" lon="9.855330124804563"><ele>193.4</ele><time>2026-03-22T10:22:34.999Z</time></trkpt><trkpt lat="44.871166368188035" lon="9.855293316944428"><ele>193.2</ele><time>2026-03-22T10:22:35.999Z</time></trkpt><trkpt lat="44.871259552022245" lon="9.855268583342259"><ele>193.0</ele><time>2026-03-22T10:22:36.998Z</time></trkpt><trkpt lat="44.87135416329556" lon="9.855254458043714"><ele>193.0</ele><time>2026-03-22T10:22:37.998Z</time></trkpt><trkpt lat="44.871453350166135" lon="9.855247054782817"><ele>193.0</ele><time>2026-03-22T10:22:38.998Z</time></trkpt><trkpt lat="44.871553725055435" lon="9.855242282515151"><ele>193.0</ele><time>2026-03-22T10:22:39.998Z</time></trkpt><trkpt lat="44.87165130503025" lon="9.85523610366293"><ele>193.0</ele><time>2026-03-22T10:22:40.998Z</time></trkpt><trkpt lat="44.87174800223412" lon="9.855221657743504"><ele>193.0</ele><time>2026-03-22T10:22:41.998Z</time></trkpt><trkpt lat="44.871845850761616" lon="9.855204369810172"><ele>192.2</ele><time>2026-03-22T10:22:42.998Z</time></trkpt><trkpt lat="44.871942116564725" lon="9.855177735075776"><ele>191.4</ele><time>2026-03-22T10:22:43.998Z</time></trkpt><trkpt lat="44.87203621014941" lon="9.855140653324371"><ele>190.6</ele><time>2026-03-22T10:22:44.998Z</time></trkpt><trkpt lat="44.87212833835704" lon="9.855098795347535"><ele>189.79999999999998</ele><time>2026-03-22T10:22:45.998Z</time></trkpt><trkpt lat="44.87222043359975" lon="9.855054216729846"><ele>189.0</ele><time>2026-03-22T10:22:47Z</time></trkpt><trkpt lat="44.872312229880684" lon="9.85500730438725"><ele>188.79999999999998</ele><time>2026-03-22T10:22:48Z</time></trkpt><trkpt lat="44.87240327673926" lon="9.85495390347344"><ele>188.6</ele><time>2026-03-22T10:22:49Z</time></trkpt><trkpt lat="44.87249603075246" lon="9.85490544558058"><ele>188.4</ele><time>2026-03-22T10:22:50Z</time></trkpt><trkpt lat="44.87258985190739" lon="9.854860520604605"><ele>188.2</ele><time>2026-03-22T10:22:51Z</time></trkpt><trkpt lat="44.872683356679694" lon="9.854814728567607"><ele>188.0</ele><time>2026-03-22T10:22:52Z</time></trkpt><trkpt lat="44.87277569978519" lon="9.854764921373766"><ele>187.4</ele><time>2026-03-22T10:22:53Z</time></trkpt><trkpt lat="44.87286914334328" lon="9.854713610814795"><ele>186.8</ele><time>2026-03-22T10:22:54Z</time></trkpt><trkpt lat="44.87296419773932" lon="9.854666771173132"><ele>186.2</ele><time>2026-03-22T10:22:55Z</time></trkpt><trkpt lat="44.87305895282683" lon="9.854616251953116"><ele>185.6</ele><time>2026-03-22T10:22:56Z</time></trkpt><trkpt lat="44.87315006517778" lon="9.854561506421978"><ele>185.0</ele><time>2026-03-22T10:22:57Z</time></trkpt><trkpt lat="44.87323936134695" lon="9.854500224816105"><ele>185.0</ele><time>2026-03-22T10:22:58Z</time></trkpt><trkpt lat="44.87332707033511" lon="9.854435842031172"><ele>185.0</ele><time>2026-03-22T10:22:59Z</time></trkpt><trkpt lat="44.87340076236947" lon="9.85434474737716"><ele>185.0</ele><time>2026-03-22T10:23:00Z</time></trkpt><trkpt lat="44.87348782951656" lon="9.854282880554425"><ele>185.0</ele><time>2026-03-22T10:23:01Z</time></trkpt><trkpt lat="44.87355908666752" lon="9.854194547550833"><ele>185.0</ele><time>2026-03-22T10:23:02Z</time></trkpt><trkpt lat="44.87363046907239" lon="9.854110149232758"><ele>184.6</ele><time>2026-03-22T10:23:03Z</time></trkpt><trkpt lat="44.873701232898064" lon="9.854023766501404"><ele>184.2</ele><time>2026-03-22T10:23:04Z</time></trkpt><trkpt lat="44.87377055436826" lon="9.853936405595057"><ele>183.8</ele><time>2026-03-22T10:23:05Z</time></trkpt><trkpt lat="44.87383951505163" lon="9.853849843058029"><ele>183.4</ele><time>2026-03-22T10:23:06Z</time></trkpt><trkpt lat="44.873908082904954" lon="9.853764405038927"><ele>183.0</ele><time>2026-03-22T10:23:07Z</time></trkpt><trkpt lat="44.87397872562977" lon="9.853677198869342"><ele>183.0</ele><time>2026-03-22T10:23:08Z</time></trkpt><trkpt lat="44.874049478528" lon="9.853589340798191"><ele>183.0</ele><time>2026-03-22T10:23:09Z</time></trkpt><trkpt lat="44.87411940951311" lon="9.853499564707205"><ele>183.0</ele><time>2026-03-22T10:23:10Z</time></trkpt><trkpt lat="44.87418933979461" lon="9.85340760374728"><ele>183.0</ele><time>2026-03-22T10:23:11Z</time></trkpt><trkpt lat="44.87426304936157" lon="9.85332399167449"><ele>183.0</ele><time>2026-03-22T10:23:12Z</time></trkpt><trkpt lat="44.87434388303295" lon="9.853249597689222"><ele>182.4</ele><time>2026-03-22T10:23:13Z</time></trkpt><trkpt lat="44.874425689093705" lon="9.853181976388946"><ele>181.8</ele><time>2026-03-22T10:23:14Z</time></trkpt><trkpt lat="44.8745128572236" lon="9.853124069636669"><ele>181.2</ele><time>2026-03-22T10:23:15Z</time></trkpt><trkpt lat="44.87459818107121" lon="9.853068319800213"><ele>180.6</ele><time>2026-03-22T10:23:16Z</time></trkpt><trkpt lat="44.87468338165103" lon="9.853007409699398"><ele>180.0</ele><time>2026-03-22T10:23:17Z</time></trkpt><trkpt lat="44.874771236688304" lon="9.852951338621446"><ele>180.0</ele><time>2026-03-22T10:23:18Z</time></trkpt><trkpt lat="44.87486236145118" lon="9.852901516407007"><ele>180.0</ele><time>2026-03-22T10:23:19Z</time></trkpt><trkpt lat="44.87495638268139" lon="9.852852330812418"><ele>180.0</ele><time>2026-03-22T10:23:20Z</time></trkpt><trkpt lat="44.875053747999004" lon="9.852807114009916"><ele>180.0</ele><time>2026-03-22T10:23:21Z</time></trkpt><trkpt lat="44.87515397136107" lon="9.852767467316074"><ele>180.0</ele><time>2026-03-22T10:23:22Z</time></trkpt><trkpt lat="44.87524834740583" lon="9.8527315469265"><ele>179.8</ele><time>2026-03-22T10:23:23Z</time></trkpt><trkpt lat="44.87534286220959" lon="9.852697714926075"><ele>179.6</ele><time>2026-03-22T10:23:24Z</time></trkpt><trkpt lat="44.87544200703015" lon="9.852664473228849"><ele>179.39999999999998</ele><time>2026-03-22T10:23:25Z</time></trkpt><trkpt lat="44.875541855144725" lon="9.852633241277195"><ele>179.2</ele><time>2026-03-22T10:23:26Z</time></trkpt><trkpt lat="44.8756471401377" lon="9.852603902218695"><ele>179.0</ele><time>2026-03-22T10:23:27Z</time></trkpt><trkpt lat="44.87575218930134" lon="9.852578083623797"><ele>177.6</ele><time>2026-03-22T10:23:28Z</time></trkpt><trkpt lat="44.875854635786865" lon="9.85254101793328"><ele>176.2</ele><time>2026-03-22T10:23:29Z</time></trkpt><trkpt lat="44.875960322282324" lon="9.852503576278524"><ele>174.79999999999998</ele><time>2026-03-22T10:23:30Z</time></trkpt><trkpt lat="44.87606161763147" lon="9.852465060096112"><ele>173.39999999999998</ele><time>2026-03-22T10:23:31Z</time></trkpt><trkpt lat="44.876161371471845" lon="9.85243126414487"><ele>172.0</ele><time>2026-03-22T10:23:32Z</time></trkpt><trkpt lat="44.87626207201082" lon="9.852404048305617"><ele>171.83333333333334</ele><time>2026-03-22T10:23:33Z</time></trkpt><trkpt lat="44.87635454833376" lon="9.852349659198072"><ele>171.66666666666669</ele><time>2026-03-22T10:23:34Z</time></trkpt><trkpt lat="44.87644013896531" lon="9.852309384907086"><ele>171.5</ele><time>2026-03-22T10:23:35Z</time></trkpt><trkpt lat="44.87651898164839" lon="9.852262348788342"><ele>171.33333333333334</ele><time>2026-03-22T10:23:36Z</time></trkpt><trkpt lat="44.876595474648454" lon="9.85221077906779"><ele>171.16666666666666</ele><time>2026-03-22T10:23:37Z</time></trkpt><trkpt lat="44.87667424019822" lon="9.85217033077735"><ele>171.0</ele><time>2026-03-22T10:23:38Z</time></trkpt><trkpt lat="44.876746913538106" lon="9.852114079286702"><ele>171.16666666666666</ele><time>2026-03-22T10:23:39Z</time></trkpt><trkpt lat="44.8768183980455" lon="9.852063439519238"><ele>171.33333333333334</ele><time>2026-03-22T10:23:40Z</time></trkpt><trkpt lat="44.876888412357644" lon="9.852009294906466"><ele>171.5</ele><time>2026-03-22T10:23:41Z</time></trkpt><trkpt lat="44.87695631043762" lon="9.8519559486476"><ele>171.66666666666669</ele><time>2026-03-22T10:23:42Z</time></trkpt><trkpt lat="44.87702150484016" lon="9.851897146941331"><ele>171.83333333333334</ele><time>2026-03-22T10:23:43Z</time></trkpt><trkpt lat="44.87708520592643" lon="9.851840906160577"><ele>172.0</ele><time>2026-03-22T10:23:44Z</time></trkpt><trkpt lat="44.87714707757779" lon="9.851778950018133"><ele>171.5</ele><time>2026-03-22T10:23:45Z</time></trkpt><trkpt lat="44.877210974136666" lon="9.85171955306149"><ele>171.0</ele><time>2026-03-22T10:23:46Z</time></trkpt><trkpt lat="44.877274725031064" lon="9.851660065078695"><ele>170.5</ele><time>2026-03-22T10:23:46.999Z</time></trkpt><trkpt lat="44.87732859228285" lon="9.851580382500112"><ele>170.0</ele><time>2026-03-22T10:23:47.999Z</time></trkpt><trkpt lat="44.87739372357307" lon="9.851519014471744"><ele>169.5</ele><time>2026-03-22T10:23:48.999Z</time></trkpt><trkpt lat="44.87746185621162" lon="9.851463350845712"><ele>169.0</ele><time>2026-03-22T10:23:49.999Z</time></trkpt><trkpt lat="44.877537202587014" lon="9.851437197016788"><ele>168.71428571428572</ele><time>2026-03-22T10:23:50.999Z</time></trkpt><trkpt lat="44.87760653937295" lon="9.851388168780545"><ele>168.42857142857142</ele><time>2026-03-22T10:23:51.999Z</time></trkpt><trkpt lat="44.87768027478075" lon="9.851357595785158"><ele>168.14285714285714</ele><time>2026-03-22T10:23:52.999Z</time></trkpt><trkpt lat="44.87775559899677" lon="9.851350885682015"><ele>167.85714285714286</ele><time>2026-03-22T10:23:53.999Z</time></trkpt><trkpt lat="44.87782986928283" lon="9.85136057765382"><ele>167.57142857142858</ele><time>2026-03-22T10:23:54.999Z</time></trkpt><trkpt lat="44.87790188283559" lon="9.851370103983532"><ele>167.28571428571428</ele><time>2026-03-22T10:23:55.999Z</time></trkpt><trkpt lat="44.87797254119045" lon="9.851378718545254"><ele>167.0</ele><time>2026-03-22T10:23:56.999Z</time></trkpt><trkpt lat="44.87804172243281" lon="9.851379942156807"><ele>167.0</ele><time>2026-03-22T10:23:57.999Z</time></trkpt><trkpt lat="44.87810780665604" lon="9.851385746124398"><ele>167.0</ele><time>2026-03-22T10:23:58.999Z</time></trkpt><trkpt lat="44.87817702995671" lon="9.851408313011076"><ele>167.0</ele><time>2026-03-22T10:23:59.999Z</time></trkpt><trkpt lat="44.87825076435963" lon="9.851424033550575"><ele>167.0</ele><time>2026-03-22T10:24:00.999Z</time></trkpt><trkpt lat="44.8783272748333" lon="9.851444340164315"><ele>167.0</ele><time>2026-03-22T10:24:01.999Z</time></trkpt><trkpt lat="44.87840584912228" lon="9.851464154008353"><ele>167.0</ele><time>2026-03-22T10:24:02.999Z</time></trkpt><trkpt lat="44.87848417336922" lon="9.851492969785768"><ele>166.16666666666666</ele><time>2026-03-22T10:24:03.999Z</time></trkpt><trkpt lat="44.87856507586348" lon="9.851521602952431"><ele>165.33333333333331</ele><time>2026-03-22T10:24:04.999Z</time></trkpt><trkpt lat="44.87864521628573" lon="9.851556488219542"><ele>164.5</ele><time>2026-03-22T10:24:05.999Z</time></trkpt><trkpt lat="44.878724748553815" lon="9.851594936950377"><ele>163.66666666666666</ele><time>2026-03-22T10:24:06.999Z</time></trkpt><trkpt lat="44.87879498571394" lon="9.85162761429361"><ele>162.83333333333334</ele><time>2026-03-22T10:24:07.999Z</time></trkpt><trkpt lat="44.87886092714933" lon="9.851659849219464"><ele>162.0</ele><time>2026-03-22T10:24:08.999Z</time></trkpt><trkpt lat="44.878926695222084" lon="9.851688473297331"><ele>162.0</ele><time>2026-03-22T10:24:09.999Z</time></trkpt><trkpt lat="44.87899645188097" lon="9.851701788540879"><ele>162.0</ele><time>2026-03-22T10:24:10.999Z</time></trkpt><trkpt lat="44.87906411099355" lon="9.8516897417834"><ele>162.0</ele><time>2026-03-22T10:24:11.999Z</time></trkpt><trkpt lat="44.87912216077743" lon="9.851632753721901"><ele>162.0</ele><time>2026-03-22T10:24:12.999Z</time></trkpt><trkpt lat="44.87918061326971" lon="9.851576078777253"><ele>162.0</ele><time>2026-03-22T10:24:13.999Z</time></trkpt><trkpt lat="44.879240396111584" lon="9.851509453750117"><ele>162.0</ele><time>2026-03-22T10:24:14.999Z</time></trkpt><trkpt lat="44.879303809955296" lon="9.851440207338225"><ele>162.0</ele><time>2026-03-22T10:24:15.999Z</time></trkpt><trkpt lat="44.87936962212886" lon="9.851363895362132"><ele>160.4</ele><time>2026-03-22T10:24:16.999Z</time></trkpt><trkpt lat="44.879439154011344" lon="9.851282474344462"><ele>158.79999999999998</ele><time>2026-03-22T10:24:17.999Z</time></trkpt><trkpt lat="44.87951559614573" lon="9.851205790254166"><ele>157.2</ele><time>2026-03-22T10:24:18.999Z</time></trkpt><trkpt lat="44.879600460432876" lon="9.85115787866345"><ele>155.6</ele><time>2026-03-22T10:24:19.999Z</time></trkpt><trkpt lat="44.87968116026109" lon="9.851104345747798"><ele>154.0</ele><time>2026-03-22T10:24:20.999Z</time></trkpt><trkpt lat="44.87976566718963" lon="9.851066163994963"><ele>154.0</ele><time>2026-03-22T10:24:21.999Z</time></trkpt><trkpt lat="44.8798478146117" lon="9.851022714093066"><ele>154.0</ele><time>2026-03-22T10:24:22.999Z</time></trkpt><trkpt lat="44.87992649477742" lon="9.850977594549924"><ele>154.0</ele><time>2026-03-22T10:24:23.999Z</time></trkpt><trkpt lat="44.879999276185266" lon="9.85092185655051"><ele>154.0</ele><time>2026-03-22T10:24:24.999Z</time></trkpt><trkpt lat="44.880063266296304" lon="9.85084198249822"><ele>154.0</ele><time>2026-03-22T10:24:25.999Z</time></trkpt><trkpt lat="44.880136554554234" lon="9.85076406580358"><ele>154.0</ele><time>2026-03-22T10:24:26.999Z</time></trkpt><trkpt lat="44.88021452306763" lon="9.850679873398262"><ele>151.4</ele><time>2026-03-22T10:24:27.999Z</time></trkpt><trkpt lat="44.88029322344688" lon="9.850596905229363"><ele>148.8</ele><time>2026-03-22T10:24:28.999Z</time></trkpt><trkpt lat="44.88037330916674" lon="9.850513103147415"><ele>146.2</ele><time>2026-03-22T10:24:29.999Z</time></trkpt><trkpt lat="44.88045376755775" lon="9.85042890784928"><ele>143.6</ele><time>2026-03-22T10:24:30.999Z</time></trkpt><trkpt lat="44.88053569688099" lon="9.850343173427222"><ele>141.0</ele><time>2026-03-22T10:24:31.999Z</time></trkpt><trkpt lat="44.88062693698633" lon="9.850275077841552"><ele>141.0</ele><time>2026-03-22T10:24:32.999Z</time></trkpt><trkpt lat="44.88071115823871" lon="9.850178816491004"><ele>141.0</ele><time>2026-03-22T10:24:33.999Z</time></trkpt><trkpt lat="44.88080127004493" lon="9.850076182075327"><ele>141.0</ele><time>2026-03-22T10:24:34.999Z</time></trkpt><trkpt lat="44.880892285812564" lon="9.849982435392459"><ele>141.0</ele><time>2026-03-22T10:24:35.999Z</time></trkpt><trkpt lat="44.88096772900476" lon="9.84988932328857"><ele>141.0</ele><time>2026-03-22T10:24:36.999Z</time></trkpt><trkpt lat="44.88103036140671" lon="9.849781667582896"><ele>140.8</ele><time>2026-03-22T10:24:37.999Z</time></trkpt><trkpt lat="44.88105983282461" lon="9.849636619208521"><ele>140.6</ele><time>2026-03-22T10:24:38.999Z</time></trkpt><trkpt lat="44.88110236633125" lon="9.849499948722366"><ele>140.4</ele><time>2026-03-22T10:24:39.998Z</time></trkpt><trkpt lat="44.881130661315666" lon="9.849359726697116"><ele>140.2</ele><time>2026-03-22T10:24:40.998Z</time></trkpt><trkpt lat="44.881167754587366" lon="9.84922499932669"><ele>140.0</ele><time>2026-03-22T10:24:41.998Z</time></trkpt><trkpt lat="44.881205302811814" lon="9.849094654125862"><ele>139.33333333333331</ele><time>2026-03-22T10:24:42.998Z</time></trkpt><trkpt lat="44.88123882908202" lon="9.848967870827657"><ele>138.66666666666666</ele><time>2026-03-22T10:24:43.998Z</time></trkpt><trkpt lat="44.881255439265836" lon="9.84883933148654"><ele>138.0</ele><time>2026-03-22T10:24:44.998Z</time></trkpt><trkpt lat="44.8812989161585" lon="9.848739243118887"><ele>137.33333333333334</ele><time>2026-03-22T10:24:45.998Z</time></trkpt><trkpt lat="44.881317443641095" lon="9.84864269447524"><ele>136.66666666666669</ele><time>2026-03-22T10:24:46.998Z</time></trkpt><trkpt lat="44.88135352440522" lon="9.848512232918322"><ele>136.0</ele><time>2026-03-22T10:24:48.998Z</time></trkpt><trkpt lat="44.88136603624764" lon="9.848415464135837"><ele>136.0</ele><time>2026-03-22T10:24:51.998Z</time></trkpt><trkpt lat="44.88143744824831" lon="9.848447495200846"><ele>136.0</ele><time>2026-03-22T10:26:42.999Z</time></trkpt><trkpt lat="44.88150587927745" lon="9.848461099851933"><ele>136.0</ele><time>2026-03-22T10:26:45.998Z</time></trkpt><trkpt lat="44.88157159012357" lon="9.848478117690115"><ele>136.0</ele><time>2026-03-22T10:26:49.998Z</time></trkpt><trkpt lat="44.881667082641655" lon="9.848522309950804"><ele>136.0</ele><time>2026-03-22T10:28:07.999Z</time></trkpt><trkpt lat="44.88175747722172" lon="9.848564020386275"><ele>136.0</ele><time>2026-03-22T10:28:10.999Z</time></trkpt><trkpt lat="44.88184181130582" lon="9.848598504360009"><ele>134.75</ele><time>2026-03-22T10:28:12.999Z</time></trkpt><trkpt lat="44.88193468973325" lon="9.8486524079438"><ele>133.5</ele><time>2026-03-22T10:28:14.999Z</time></trkpt><trkpt lat="44.882035407105526" lon="9.848724350446407"><ele>132.25</ele><time>2026-03-22T10:28:16.999Z</time></trkpt><trkpt lat="44.882141221798214" lon="9.848801524250595"><ele>131.0</ele><time>2026-03-22T10:28:18.999Z</time></trkpt><trkpt lat="44.88224912752631" lon="9.848878475374727"><ele>131.0</ele><time>2026-03-22T10:28:20.999Z</time></trkpt><trkpt lat="44.88230565084749" lon="9.848918825786683"><ele>131.0</ele><time>2026-03-22T10:28:21.999Z</time></trkpt><trkpt lat="44.882361184771476" lon="9.848965450068757"><ele>131.0</ele><time>2026-03-22T10:28:22.999Z</time></trkpt><trkpt lat="44.88247151396403" lon="9.84904980567257"><ele>131.0</ele><time>2026-03-22T10:28:24.999Z</time></trkpt><trkpt lat="44.88258006806341" lon="9.849140171731273"><ele>131.0</ele><time>2026-03-22T10:28:26.999Z</time></trkpt><trkpt lat="44.88263663099616" lon="9.849184661044678"><ele>131.0</ele><time>2026-03-22T10:28:27.999Z</time></trkpt><trkpt lat="44.882692108440025" lon="9.849229430251135"><ele>130.85714285714286</ele><time>2026-03-22T10:28:28.999Z</time></trkpt><trkpt lat="44.882749473451874" lon="9.849272357999496"><ele>130.71428571428572</ele><time>2026-03-22T10:28:29.999Z</time></trkpt><trkpt lat="44.88280630706991" lon="9.849317345129943"><ele>130.57142857142858</ele><time>2026-03-22T10:28:30.999Z</time></trkpt><trkpt lat="44.882862741210566" lon="9.849362808151385"><ele>130.42857142857144</ele><time>2026-03-22T10:28:31.999Z</time></trkpt><trkpt lat="44.882919476726116" lon="9.849408269300998"><ele>130.28571428571428</ele><time>2026-03-22T10:28:32.999Z</time></trkpt><trkpt lat="44.882976297544104" lon="9.849452883019103"><ele>130.14285714285717</ele><time>2026-03-22T10:28:33.999Z</time></trkpt><trkpt lat="44.88303384164317" lon="9.84949882974045"><ele>130.0</ele><time>2026-03-22T10:28:34.999Z</time></trkpt><trkpt lat="44.883088444716286" lon="9.849547433562753"><ele>130.0</ele><time>2026-03-22T10:28:35.999Z</time></trkpt><trkpt lat="44.883144094710026" lon="9.849593989337578"><ele>130.0</ele><time>2026-03-22T10:28:36.999Z</time></trkpt><trkpt lat="44.8832018935907" lon="9.84963676549408"><ele>130.0</ele><time>2026-03-22T10:28:37.999Z</time></trkpt><trkpt lat="44.88325652956557" lon="9.849683571236335"><ele>130.0</ele><time>2026-03-22T10:28:38.999Z</time></trkpt><trkpt lat="44.88336441570873" lon="9.849775491042042"><ele>130.0</ele><time>2026-03-22T10:28:40.999Z</time></trkpt><trkpt lat="44.88346534346163" lon="9.849871602021729"><ele>130.0</ele><time>2026-03-22T10:28:42.999Z</time></trkpt><trkpt lat="44.88356559457788" lon="9.849958603090403"><ele>130.0</ele><time>2026-03-22T10:28:44.999Z</time></trkpt><trkpt lat="44.883663263337304" lon="9.850050951270704"><ele>130.0</ele><time>2026-03-22T10:28:46.999Z</time></trkpt><trkpt lat="44.883751903607255" lon="9.85016053349316"><ele>130.0</ele><time>2026-03-22T10:28:48.998Z</time></trkpt><trkpt lat="44.883839659858204" lon="9.85025878656502"><ele>130.0</ele><time>2026-03-22T10:28:50.998Z</time></trkpt><trkpt lat="44.88394296892457" lon="9.850335441839112"><ele>130.14285714285717</ele><time>2026-03-22T10:28:52.998Z</time></trkpt><trkpt lat="44.88400270382776" lon="9.850371329613804"><ele>130.28571428571428</ele><time>2026-03-22T10:28:53.998Z</time></trkpt><trkpt lat="44.88406140834725" lon="9.850410886369135"><ele>130.42857142857144</ele><time>2026-03-22T10:28:54.998Z</time></trkpt><trkpt lat="44.88412220870483" lon="9.850455295782487"><ele>130.57142857142858</ele><time>2026-03-22T10:28:55.998Z</time></trkpt><trkpt lat="44.88418397810899" lon="9.850504224530859"><ele>130.71428571428572</ele><time>2026-03-22T10:28:56.998Z</time></trkpt><trkpt lat="44.884246272768266" lon="9.850557423769226"><ele>130.85714285714286</ele><time>2026-03-22T10:28:57.998Z</time></trkpt><trkpt lat="44.88430805655177" lon="9.850614801496436"><ele>131.0</ele><time>2026-03-22T10:28:58.998Z</time></trkpt><trkpt lat="44.88436970644987" lon="9.850667989677381"><ele>130.5</ele><time>2026-03-22T10:28:59.998Z</time></trkpt><trkpt lat="44.884436524727136" lon="9.850720930365124"><ele>130.0</ele><time>2026-03-22T10:29:00.998Z</time></trkpt><trkpt lat="44.8845019519365" lon="9.850769282823634"><ele>129.5</ele><time>2026-03-22T10:29:01.998Z</time></trkpt><trkpt lat="44.88456995352555" lon="9.850823369007989"><ele>129.0</ele><time>2026-03-22T10:29:02.998Z</time></trkpt><trkpt lat="44.88463915306353" lon="9.850872243951095"><ele>128.5</ele><time>2026-03-22T10:29:04Z</time></trkpt><trkpt lat="44.884711314492876" lon="9.850916096533338"><ele>128.0</ele><time>2026-03-22T10:29:05Z</time></trkpt><trkpt lat="44.88478079432584" lon="9.850954966751313"><ele>127.99999999999999</ele><time>2026-03-22T10:29:06Z</time></trkpt><trkpt lat="44.884857874228196" lon="9.850981799122637"><ele>128.0</ele><time>2026-03-22T10:29:07Z</time></trkpt><trkpt lat="44.88493807834144" lon="9.85097837622367"><ele>128.0</ele><time>2026-03-22T10:29:08Z</time></trkpt><trkpt lat="44.88501799306257" lon="9.850947534213812"><ele>128.0</ele><time>2026-03-22T10:29:09Z</time></trkpt><trkpt lat="44.885089625715096" lon="9.850896789183276"><ele>127.99999999999999</ele><time>2026-03-22T10:29:10Z</time></trkpt><trkpt lat="44.885162833744396" lon="9.850833642539428"><ele>128.0</ele><time>2026-03-22T10:29:11Z</time></trkpt><trkpt lat="44.88522961367846" lon="9.85076698522762"><ele>127.49999999999999</ele><time>2026-03-22T10:29:12Z</time></trkpt><trkpt lat="44.885299700779235" lon="9.850692269872871"><ele>127.0</ele><time>2026-03-22T10:29:13Z</time></trkpt><trkpt lat="44.8853646123245" lon="9.850609937512877"><ele>126.5</ele><time>2026-03-22T10:29:14Z</time></trkpt><trkpt lat="44.885424514691195" lon="9.850525044797502"><ele>126.0</ele><time>2026-03-22T10:29:15Z</time></trkpt><trkpt lat="44.88548322831975" lon="9.850432843411497"><ele>125.49999999999999</ele><time>2026-03-22T10:29:16Z</time></trkpt><trkpt lat="44.88552817673202" lon="9.850321590219142"><ele>125.0</ele><time>2026-03-22T10:29:17Z</time></trkpt><trkpt lat="44.885579901381114" lon="9.85022235805662"><ele>125.0</ele><time>2026-03-22T10:29:18Z</time></trkpt><trkpt lat="44.885646615667774" lon="9.85013059202598"><ele>125.0</ele><time>2026-03-22T10:29:19Z</time></trkpt><trkpt lat="44.8857003227446" lon="9.850026412338455"><ele>125.0</ele><time>2026-03-22T10:29:20Z</time></trkpt><trkpt lat="44.885741909822976" lon="9.849907264506754"><ele>125.0</ele><time>2026-03-22T10:29:21Z</time></trkpt><trkpt lat="44.8857970479249" lon="9.849801330533102"><ele>125.0</ele><time>2026-03-22T10:29:22Z</time></trkpt><trkpt lat="44.88585029013603" lon="9.84969796468636"><ele>125.0</ele><time>2026-03-22T10:29:23Z</time></trkpt><trkpt lat="44.885901480542856" lon="9.849592454198413"><ele>125.0</ele><time>2026-03-22T10:29:24Z</time></trkpt><trkpt lat="44.8859524820514" lon="9.849480187489549"><ele>125.0</ele><time>2026-03-22T10:29:25Z</time></trkpt><trkpt lat="44.885999145329755" lon="9.849367113824893"><ele>125.0</ele><time>2026-03-22T10:29:26Z</time></trkpt><trkpt lat="44.88604138085004" lon="9.849250517157905"><ele>125.0</ele><time>2026-03-22T10:29:27Z</time></trkpt><trkpt lat="44.88607588024847" lon="9.849131069499242"><ele>124.4</ele><time>2026-03-22T10:29:28Z</time></trkpt><trkpt lat="44.88610717342934" lon="9.8490015074505"><ele>123.8</ele><time>2026-03-22T10:29:29Z</time></trkpt><trkpt lat="44.886132711460256" lon="9.848869052933546"><ele>123.19999999999999</ele><time>2026-03-22T10:29:30Z</time></trkpt><trkpt lat="44.88615147621187" lon="9.848735207063392"><ele>122.6</ele><time>2026-03-22T10:29:31Z</time></trkpt><trkpt lat="44.88616293806197" lon="9.84859811339182"><ele>122.0</ele><time>2026-03-22T10:29:32Z</time></trkpt><trkpt lat="44.88618779751509" lon="9.84846165387452"><ele>121.8</ele><time>2026-03-22T10:29:33Z</time></trkpt><trkpt lat="44.88619378287941" lon="9.848323937806656"><ele>121.6</ele><time>2026-03-22T10:29:34Z</time></trkpt><trkpt lat="44.88620011559782" lon="9.848185640848918"><ele>121.39999999999999</ele><time>2026-03-22T10:29:35Z</time></trkpt><trkpt lat="44.88620869494874" lon="9.84805333555162"><ele>121.19999999999999</ele><time>2026-03-22T10:29:36Z</time></trkpt><trkpt lat="44.88621919118666" lon="9.847920080212717"><ele>121.0</ele><time>2026-03-22T10:29:37Z</time></trkpt><trkpt lat="44.886216756628045" lon="9.847782646038171"><ele>121.0</ele><time>2026-03-22T10:29:38Z</time></trkpt><trkpt lat="44.886235401796874" lon="9.847650509368943"><ele>121.0</ele><time>2026-03-22T10:29:39Z</time></trkpt><trkpt lat="44.88625850819359" lon="9.84751757367964"><ele>121.0</ele><time>2026-03-22T10:29:40Z</time></trkpt><trkpt lat="44.886281832210166" lon="9.847393238521512"><ele>121.0</ele><time>2026-03-22T10:29:41Z</time></trkpt><trkpt lat="44.88630657232354" lon="9.847263169025917"><ele>121.0</ele><time>2026-03-22T10:29:42Z</time></trkpt><trkpt lat="44.886330620906456" lon="9.847138179075849"><ele>121.19999999999999</ele><time>2026-03-22T10:29:43Z</time></trkpt><trkpt lat="44.886355698945096" lon="9.847011759016484"><ele>121.39999999999999</ele><time>2026-03-22T10:29:44Z</time></trkpt><trkpt lat="44.886382698226434" lon="9.84688584201353"><ele>121.6</ele><time>2026-03-22T10:29:45Z</time></trkpt><trkpt lat="44.88641217204435" lon="9.846760054564676"><ele>121.8</ele><time>2026-03-22T10:29:46Z</time></trkpt><trkpt lat="44.886442701845645" lon="9.846637473686277"><ele>122.0</ele><time>2026-03-22T10:29:47Z</time></trkpt><trkpt lat="44.886476406542464" lon="9.84651834833469"><ele>122.0</ele><time>2026-03-22T10:29:48Z</time></trkpt><trkpt lat="44.88651858905815" lon="9.846401565182024"><ele>121.99999999999999</ele><time>2026-03-22T10:29:49Z</time></trkpt><trkpt lat="44.88656500011542" lon="9.846292997603665"><ele>121.99999999999999</ele><time>2026-03-22T10:29:50Z</time></trkpt><trkpt lat="44.88661728819491" lon="9.84618779993717"><ele>122.0</ele><time>2026-03-22T10:29:51Z</time></trkpt><trkpt lat="44.8866793666323" lon="9.846088612744706"><ele>122.0</ele><time>2026-03-22T10:29:52Z</time></trkpt><trkpt lat="44.88675472852181" lon="9.846009101054438"><ele>121.8</ele><time>2026-03-22T10:29:53Z</time></trkpt><trkpt lat="44.88685138632047" lon="9.845984940660935"><ele>121.6</ele><time>2026-03-22T10:29:54Z</time></trkpt><trkpt lat="44.88693886261197" lon="9.845959932376047"><ele>121.39999999999999</ele><time>2026-03-22T10:29:55Z</time></trkpt><trkpt lat="44.88702644810141" lon="9.845949626625625"><ele>121.19999999999999</ele><time>2026-03-22T10:29:56Z</time></trkpt><trkpt lat="44.887115219856945" lon="9.8459593202626"><ele>121.0</ele><time>2026-03-22T10:29:57Z</time></trkpt><trkpt lat="44.88720435596523" lon="9.845971801569675"><ele>121.00000000000001</ele><time>2026-03-22T10:29:58Z</time></trkpt><trkpt lat="44.88729364976692" lon="9.845982128273182"><ele>121.0</ele><time>2026-03-22T10:29:58.999Z</time></trkpt><trkpt lat="44.8873836322891" lon="9.845993122114901"><ele>121.0</ele><time>2026-03-22T10:29:59.999Z</time></trkpt><trkpt lat="44.8874721961647" lon="9.846010218732978"><ele>121.0</ele><time>2026-03-22T10:30:00.999Z</time></trkpt><trkpt lat="44.88755786628125" lon="9.846034855203984"><ele>121.00000000000001</ele><time>2026-03-22T10:30:01.999Z</time></trkpt><trkpt lat="44.88764049899619" lon="9.846058526690474"><ele>121.0</ele><time>2026-03-22T10:30:02.999Z</time></trkpt><trkpt lat="44.88772262873223" lon="9.846087108348602"><ele>120.83333333333334</ele><time>2026-03-22T10:30:03.999Z</time></trkpt><trkpt lat="44.88780289345024" lon="9.846123108450389"><ele>120.66666666666667</ele><time>2026-03-22T10:30:04.999Z</time></trkpt><trkpt lat="44.887882670808025" lon="9.846155168562076"><ele>120.5</ele><time>2026-03-22T10:30:05.999Z</time></trkpt><trkpt lat="44.887961139813115" lon="9.846191089199195"><ele>120.33333333333334</ele><time>2026-03-22T10:30:06.999Z</time></trkpt><trkpt lat="44.888039707477354" lon="9.846227141597495"><ele>120.16666666666667</ele><time>2026-03-22T10:30:07.999Z</time></trkpt><trkpt lat="44.88811804714079" lon="9.84625969449867"><ele>120.0</ele><time>2026-03-22T10:30:08.999Z</time></trkpt><trkpt lat="44.88819820078268" lon="9.8462859697874"><ele>120.0</ele><time>2026-03-22T10:30:09.999Z</time></trkpt><trkpt lat="44.88827818470461" lon="9.846302862723757"><ele>120.0</ele><time>2026-03-22T10:30:10.999Z</time></trkpt><trkpt lat="44.88835676627432" lon="9.846306224287396"><ele>120.0</ele><time>2026-03-22T10:30:11.999Z</time></trkpt><trkpt lat="44.8884413030999" lon="9.846311082831305"><ele>120.0</ele><time>2026-03-22T10:30:12.999Z</time></trkpt><trkpt lat="44.88852589350998" lon="9.846315162023947"><ele>120.0</ele><time>2026-03-22T10:30:13.999Z</time></trkpt><trkpt lat="44.888611377743864" lon="9.846321163553409"><ele>120.0</ele><time>2026-03-22T10:30:14.999Z</time></trkpt><trkpt lat="44.888699251001" lon="9.846332575874277"><ele>119.83333333333333</ele><time>2026-03-22T10:30:15.999Z</time></trkpt><trkpt lat="44.88878773086014" lon="9.846338494064494"><ele>119.66666666666666</ele><time>2026-03-22T10:30:16.999Z</time></trkpt><trkpt lat="44.88887671291021" lon="9.84634013197308"><ele>119.5</ele><time>2026-03-22T10:30:17.999Z</time></trkpt><trkpt lat="44.88896601475582" lon="9.84633919056623"><ele>119.33333333333333</ele><time>2026-03-22T10:30:18.999Z</time></trkpt><trkpt lat="44.889056271836715" lon="9.846333244412836"><ele>119.16666666666666</ele><time>2026-03-22T10:30:19.999Z</time></trkpt><trkpt lat="44.88914480696677" lon="9.846319003343062"><ele>119.0</ele><time>2026-03-22T10:30:20.999Z</time></trkpt><trkpt lat="44.8892317253523" lon="9.846294800774839"><ele>118.83333333333333</ele><time>2026-03-22T10:30:21.999Z</time></trkpt><trkpt lat="44.88931870066617" lon="9.846265394746316"><ele>118.66666666666666</ele><time>2026-03-22T10:30:22.999Z</time></trkpt><trkpt lat="44.88940546264984" lon="9.846232419570557"><ele>118.5</ele><time>2026-03-22T10:30:23.999Z</time></trkpt><trkpt lat="44.88949282823245" lon="9.846195852158903"><ele>118.33333333333334</ele><time>2026-03-22T10:30:24.999Z</time></trkpt><trkpt lat="44.8895788856133" lon="9.846159897414475"><ele>118.16666666666667</ele><time>2026-03-22T10:30:25.999Z</time></trkpt><trkpt lat="44.88966224583554" lon="9.846126662464103"><ele>118.0</ele><time>2026-03-22T10:30:26.999Z</time></trkpt><trkpt lat="44.88974659442847" lon="9.84609406633523"><ele>118.00000000000001</ele><time>2026-03-22T10:30:27.999Z</time></trkpt><trkpt lat="44.8898312669707" lon="9.846059522396812"><ele>118.0</ele><time>2026-03-22T10:30:28.999Z</time></trkpt><trkpt lat="44.88991726240101" lon="9.846029639793427"><ele>118.0</ele><time>2026-03-22T10:30:29.999Z</time></trkpt><trkpt lat="44.89000223847652" lon="9.845996006088988"><ele>118.0</ele><time>2026-03-22T10:30:30.999Z</time></trkpt><trkpt lat="44.8900881280442" lon="9.845962454519816"><ele>118.00000000000001</ele><time>2026-03-22T10:30:31.999Z</time></trkpt><trkpt lat="44.890174617560746" lon="9.845930131082323"><ele>118.0</ele><time>2026-03-22T10:30:32.999Z</time></trkpt><trkpt lat="44.89026069938448" lon="9.845897090454024"><ele>117.50000000000001</ele><time>2026-03-22T10:30:33.999Z</time></trkpt><trkpt lat="44.89034717759391" lon="9.84586480136718"><ele>117.0</ele><time>2026-03-22T10:30:34.999Z</time></trkpt><trkpt lat="44.89043308918824" lon="9.845831294719751"><ele>116.5</ele><time>2026-03-22T10:30:35.999Z</time></trkpt><trkpt lat="44.89051869138712" lon="9.845797540477147"><ele>116.0</ele><time>2026-03-22T10:30:36.999Z</time></trkpt><trkpt lat="44.890604778774254" lon="9.845766093015461"><ele>115.50000000000001</ele><time>2026-03-22T10:30:37.999Z</time></trkpt><trkpt lat="44.89069130695796" lon="9.8457366412053"><ele>115.0</ele><time>2026-03-22T10:30:38.999Z</time></trkpt><trkpt lat="44.890777991740755" lon="9.845704521943421"><ele>115.00000000000001</ele><time>2026-03-22T10:30:39.999Z</time></trkpt><trkpt lat="44.89086284619881" lon="9.845672020317364"><ele>115.0</ele><time>2026-03-22T10:30:40.999Z</time></trkpt><trkpt lat="44.89094773845193" lon="9.845638292621338"><ele>115.0</ele><time>2026-03-22T10:30:41.999Z</time></trkpt><trkpt lat="44.89103400033536" lon="9.845602722399047"><ele>115.0</ele><time>2026-03-22T10:30:42.999Z</time></trkpt><trkpt lat="44.89111994510729" lon="9.845569960851414"><ele>115.00000000000001</ele><time>2026-03-22T10:30:43.999Z</time></trkpt><trkpt lat="44.89120564512719" lon="9.845538112830129"><ele>115.0</ele><time>2026-03-22T10:30:44.999Z</time></trkpt><trkpt lat="44.89129111528955" lon="9.84550641725093"><ele>115.0</ele><time>2026-03-22T10:30:45.999Z</time></trkpt><trkpt lat="44.891376093691015" lon="9.845474055386749"><ele>115.0</ele><time>2026-03-22T10:30:46.999Z</time></trkpt><trkpt lat="44.89146274151168" lon="9.845438013595524"><ele>115.0</ele><time>2026-03-22T10:30:47.999Z</time></trkpt><trkpt lat="44.89154952062948" lon="9.845402063651633"><ele>115.0</ele><time>2026-03-22T10:30:48.999Z</time></trkpt><trkpt lat="44.89163672139808" lon="9.845369391714586"><ele>115.0</ele><time>2026-03-22T10:30:49.999Z</time></trkpt><trkpt lat="44.89172469402988" lon="9.84533831762876"><ele>115.0</ele><time>2026-03-22T10:30:50.999Z</time></trkpt><trkpt lat="44.891813426230826" lon="9.845306782447343"><ele>115.0</ele><time>2026-03-22T10:30:51.998Z</time></trkpt><trkpt lat="44.891899887494816" lon="9.845273386513878"><ele>115.0</ele><time>2026-03-22T10:30:52.998Z</time></trkpt><trkpt lat="44.89198858664278" lon="9.845242759673997"><ele>115.0</ele><time>2026-03-22T10:30:53.998Z</time></trkpt><trkpt lat="44.89207450809051" lon="9.845211937609156"><ele>115.0</ele><time>2026-03-22T10:30:54.998Z</time></trkpt><trkpt lat="44.89216340384825" lon="9.845183524328752"><ele>115.00000000000001</ele><time>2026-03-22T10:30:55.998Z</time></trkpt><trkpt lat="44.89225011753147" lon="9.845157330516297"><ele>115.0</ele><time>2026-03-22T10:30:56.998Z</time></trkpt><trkpt lat="44.89233898683457" lon="9.845133762799838"><ele>115.0</ele><time>2026-03-22T10:30:57.998Z</time></trkpt><trkpt lat="44.89242832315914" lon="9.845117913014153"><ele>115.0</ele><time>2026-03-22T10:30:58.998Z</time></trkpt><trkpt lat="44.89251702139658" lon="9.845100022586623"><ele>115.00000000000001</ele><time>2026-03-22T10:30:59.998Z</time></trkpt><trkpt lat="44.89260653944774" lon="9.845081415340916"><ele>115.0</ele><time>2026-03-22T10:31:00.998Z</time></trkpt><trkpt lat="44.892697058981796" lon="9.845066604961344"><ele>114.8</ele><time>2026-03-22T10:31:01.998Z</time></trkpt><trkpt lat="44.892787353538715" lon="9.84505657096059"><ele>114.6</ele><time>2026-03-22T10:31:02.998Z</time></trkpt><trkpt lat="44.89287901085579" lon="9.84505055867526"><ele>114.4</ele><time>2026-03-22T10:31:03.998Z</time></trkpt><trkpt lat="44.89296869961515" lon="9.845045065450108"><ele>114.2</ele><time>2026-03-22T10:31:04.998Z</time></trkpt><trkpt lat="44.893057828818506" lon="9.845041621173857"><ele>114.0</ele><time>2026-03-22T10:31:05.998Z</time></trkpt><trkpt lat="44.89314903365937" lon="9.845037972859469"><ele>114.0</ele><time>2026-03-22T10:31:06.998Z</time></trkpt><trkpt lat="44.893239778339364" lon="9.845036710364573"><ele>114.0</ele><time>2026-03-22T10:31:07.998Z</time></trkpt><trkpt lat="44.89332921482247" lon="9.845039478465331"><ele>114.0</ele><time>2026-03-22T10:31:08.998Z</time></trkpt><trkpt lat="44.893418515351755" lon="9.845042436784688"><ele>114.0</ele><time>2026-03-22T10:31:10Z</time></trkpt><trkpt lat="44.893507887362" lon="9.845046331173215"><ele>114.0</ele><time>2026-03-22T10:31:11Z</time></trkpt><trkpt lat="44.893595742487676" lon="9.845047149013771"><ele>114.0</ele><time>2026-03-22T10:31:12Z</time></trkpt><trkpt lat="44.89368280740617" lon="9.845050800693333"><ele>113.83333333333333</ele><time>2026-03-22T10:31:13Z</time></trkpt><trkpt lat="44.89376817832975" lon="9.8450632200548"><ele>113.66666666666666</ele><time>2026-03-22T10:31:14Z</time></trkpt><trkpt lat="44.89384771301198" lon="9.84510748293472"><ele>113.5</ele><time>2026-03-22T10:31:15Z</time></trkpt><trkpt lat="44.89389564770324" lon="9.845191357753187"><ele>113.33333333333333</ele><time>2026-03-22T10:31:16Z</time></trkpt><trkpt lat="44.89388832483812" lon="9.845304364096046"><ele>113.16666666666666</ele><time>2026-03-22T10:31:17Z</time></trkpt><trkpt lat="44.893868002770766" lon="9.845398626933356"><ele>113.0</ele><time>2026-03-22T10:31:18Z</time></trkpt><trkpt lat="44.89383946529222" lon="9.845487043063576"><ele>112.99999999999999</ele><time>2026-03-22T10:31:19Z</time></trkpt><trkpt lat="44.89381130904194" lon="9.84558487424196"><ele>113.0</ele><time>2026-03-22T10:31:20Z</time></trkpt><trkpt lat="44.89378311140053" lon="9.84568284943054"><ele>113.0</ele><time>2026-03-22T10:31:21Z</time></trkpt><trkpt lat="44.89375452791652" lon="9.845782165520808"><ele>113.0</ele><time>2026-03-22T10:31:22Z</time></trkpt><trkpt lat="44.893725215554866" lon="9.84588401390556"><ele>112.99999999999999</ele><time>2026-03-22T10:31:23Z</time></trkpt><trkpt lat="44.89369586787277" lon="9.845985985194439"><ele>113.0</ele><time>2026-03-22T10:31:24Z</time></trkpt><trkpt lat="44.89366598230235" lon="9.846089825231317"><ele>112.99999999999999</ele><time>2026-03-22T10:31:25Z</time></trkpt><trkpt lat="44.89363622187426" lon="9.846194362899851"><ele>113.0</ele><time>2026-03-22T10:31:26Z</time></trkpt><trkpt lat="44.89360795036863" lon="9.846299022454922"><ele>113.0</ele><time>2026-03-22T10:31:27Z</time></trkpt><trkpt lat="44.893580333480664" lon="9.846410459730965"><ele>113.0</ele><time>2026-03-22T10:31:28Z</time></trkpt><trkpt lat="44.89355726169038" lon="9.84651933841958"><ele>112.99999999999999</ele><time>2026-03-22T10:31:29Z</time></trkpt><trkpt lat="44.89353568823624" lon="9.846632161809602"><ele>113.0</ele><time>2026-03-22T10:31:30Z</time></trkpt><trkpt lat="44.89351710866101" lon="9.846745792399043"><ele>112.33333333333333</ele><time>2026-03-22T10:31:31Z</time></trkpt><trkpt lat="44.89349947457379" lon="9.846858790857192"><ele>111.66666666666666</ele><time>2026-03-22T10:31:32Z</time></trkpt><trkpt lat="44.89348310179311" lon="9.846971469284165"><ele>111.0</ele><time>2026-03-22T10:31:33Z</time></trkpt><trkpt lat="44.89346824340578" lon="9.847088127020168"><ele>110.33333333333334</ele><time>2026-03-22T10:31:34Z</time></trkpt><trkpt lat="44.893460236844625" lon="9.847210543301436"><ele>109.66666666666667</ele><time>2026-03-22T10:31:35Z</time></trkpt><trkpt lat="44.8934701391082" lon="9.847338087088932"><ele>109.0</ele><time>2026-03-22T10:31:36Z</time></trkpt><trkpt lat="44.8934986330293" lon="9.847459726037915"><ele>109.00000000000001</ele><time>2026-03-22T10:31:37Z</time></trkpt><trkpt lat="44.89353236778986" lon="9.847571941450807"><ele>109.0</ele><time>2026-03-22T10:31:38Z</time></trkpt><trkpt lat="44.89357926769522" lon="9.847679617980296"><ele>109.0</ele><time>2026-03-22T10:31:39Z</time></trkpt><trkpt lat="44.893616098255556" lon="9.847786690668734"><ele>109.0</ele><time>2026-03-22T10:31:40Z</time></trkpt><trkpt lat="44.89364369708499" lon="9.847897995702363"><ele>109.00000000000001</ele><time>2026-03-22T10:31:41Z</time></trkpt><trkpt lat="44.89363705308824" lon="9.84800713557371"><ele>109.0</ele><time>2026-03-22T10:31:42Z</time></trkpt><trkpt lat="44.89362767814435" lon="9.848120103834255"><ele>108.83333333333334</ele><time>2026-03-22T10:31:43Z</time></trkpt><trkpt lat="44.89361657726786" lon="9.848241858604405"><ele>108.66666666666667</ele><time>2026-03-22T10:31:44Z</time></trkpt><trkpt lat="44.89360566850355" lon="9.848361506265999"><ele>108.5</ele><time>2026-03-22T10:31:45Z</time></trkpt><trkpt lat="44.89359465390104" lon="9.848482314882043"><ele>108.33333333333334</ele><time>2026-03-22T10:31:46Z</time></trkpt><trkpt lat="44.893583856257294" lon="9.848600744174718"><ele>108.16666666666667</ele><time>2026-03-22T10:31:47Z</time></trkpt><trkpt lat="44.893573063164645" lon="9.84871947031525"><ele>108.0</ele><time>2026-03-22T10:31:48Z</time></trkpt><trkpt lat="44.89356275382681" lon="9.8488340828625"><ele>108.0</ele><time>2026-03-22T10:31:49Z</time></trkpt><trkpt lat="44.893552257289514" lon="9.848950776649955"><ele>108.0</ele><time>2026-03-22T10:31:50Z</time></trkpt><trkpt lat="44.893541935402205" lon="9.849065528798286"><ele>108.0</ele><time>2026-03-22T10:31:51Z</time></trkpt><trkpt lat="44.89353180187961" lon="9.849181486088593"><ele>108.0</ele><time>2026-03-22T10:31:52Z</time></trkpt><trkpt lat="44.893522573195206" lon="9.849295488516367"><ele>108.0</ele><time>2026-03-22T10:31:53Z</time></trkpt><trkpt lat="44.89351320681052" lon="9.849411192034589"><ele>108.0</ele><time>2026-03-22T10:31:54Z</time></trkpt><trkpt lat="44.89350410783167" lon="9.849523592499763"><ele>108.5</ele><time>2026-03-22T10:31:55Z</time></trkpt><trkpt lat="44.89349494686711" lon="9.849636758623832"><ele>109.0</ele><time>2026-03-22T10:31:56Z</time></trkpt><trkpt lat="44.89348558405659" lon="9.849747016783988"><ele>109.5</ele><time>2026-03-22T10:31:57Z</time></trkpt><trkpt lat="44.89347521900955" lon="9.849858051991992"><ele>110.0</ele><time>2026-03-22T10:31:58Z</time></trkpt><trkpt lat="44.89346505441375" lon="9.849966939918735"><ele>110.5</ele><time>2026-03-22T10:31:59Z</time></trkpt><trkpt lat="44.89345506335423" lon="9.850076944796607"><ele>111.0</ele><time>2026-03-22T10:32:00Z</time></trkpt><trkpt lat="44.893446058531" lon="9.850184055086627"><ele>111.33333333333333</ele><time>2026-03-22T10:32:01Z</time></trkpt><trkpt lat="44.893437086621276" lon="9.850290773583685"><ele>111.66666666666666</ele><time>2026-03-22T10:32:02Z</time></trkpt><trkpt lat="44.89342948304754" lon="9.850395764767619"><ele>112.0</ele><time>2026-03-22T10:32:02.999Z</time></trkpt><trkpt lat="44.893423189619" lon="9.850497917249134"><ele>112.33333333333333</ele><time>2026-03-22T10:32:03.999Z</time></trkpt><trkpt lat="44.89342836425874" lon="9.850614237652662"><ele>112.66666666666666</ele><time>2026-03-22T10:32:04.999Z</time></trkpt><trkpt lat="44.893459810987586" lon="9.850723442898454"><ele>113.0</ele><time>2026-03-22T10:32:05.999Z</time></trkpt><trkpt lat="44.89355337347341" lon="9.85078901714745"><ele>112.99999999999999</ele><time>2026-03-22T10:32:06.999Z</time></trkpt><trkpt lat="44.89364303717007" lon="9.850781033495721"><ele>113.0</ele><time>2026-03-22T10:32:07.999Z</time></trkpt><trkpt lat="44.89371972358642" lon="9.850782820292174"><ele>113.0</ele><time>2026-03-22T10:32:08.999Z</time></trkpt><trkpt lat="44.893795194060026" lon="9.850786406221346"><ele>113.0</ele><time>2026-03-22T10:32:09.999Z</time></trkpt><trkpt lat="44.8938693368431" lon="9.85079587589017"><ele>112.99999999999999</ele><time>2026-03-22T10:32:10.999Z</time></trkpt><trkpt lat="44.89394585564913" lon="9.850806789700432"><ele>113.0</ele><time>2026-03-22T10:32:11.999Z</time></trkpt><trkpt lat="44.89402319985934" lon="9.850814863062595"><ele>112.99999999999999</ele><time>2026-03-22T10:32:12.999Z</time></trkpt><trkpt lat="44.89410015978908" lon="9.850824718070047"><ele>113.0</ele><time>2026-03-22T10:32:13.999Z</time></trkpt><trkpt lat="44.89417860225531" lon="9.850836239854566"><ele>113.0</ele><time>2026-03-22T10:32:14.999Z</time></trkpt><trkpt lat="44.89425636173188" lon="9.8508478830198"><ele>113.0</ele><time>2026-03-22T10:32:15.999Z</time></trkpt><trkpt lat="44.89433378747109" lon="9.850865635536577"><ele>112.99999999999999</ele><time>2026-03-22T10:32:16.999Z</time></trkpt><trkpt lat="44.89440757550939" lon="9.850905722025347"><ele>113.0</ele><time>2026-03-22T10:32:17.999Z</time></trkpt><trkpt lat="44.89447218927196" lon="9.850977387484027"><ele>112.83333333333333</ele><time>2026-03-22T10:32:18.999Z</time></trkpt><trkpt lat="44.89451848525606" lon="9.851069067913224"><ele>112.66666666666666</ele><time>2026-03-22T10:32:19.999Z</time></trkpt><trkpt lat="44.894512824885425" lon="9.851183700720398"><ele>112.5</ele><time>2026-03-22T10:32:20.999Z</time></trkpt><trkpt lat="44.89450522737178" lon="9.851290366526243"><ele>112.33333333333334</ele><time>2026-03-22T10:32:21.999Z</time></trkpt><trkpt lat="44.89449568266912" lon="9.851395548263104"><ele>112.16666666666667</ele><time>2026-03-22T10:32:22.999Z</time></trkpt><trkpt lat="44.8944834167498" lon="9.851507521528253"><ele>112.0</ele><time>2026-03-22T10:32:23.999Z</time></trkpt><trkpt lat="44.89446976207709" lon="9.851617483897833"><ele>112.00000000000001</ele><time>2026-03-22T10:32:24.999Z</time></trkpt><trkpt lat="44.894455687415814" lon="9.851730828320274"><ele>112.0</ele><time>2026-03-22T10:32:25.999Z</time></trkpt><trkpt lat="44.89444162586628" lon="9.851844067220682"><ele>112.0</ele><time>2026-03-22T10:32:26.999Z</time></trkpt><trkpt lat="44.89442781227846" lon="9.851955309282504"><ele>112.0</ele><time>2026-03-22T10:32:27.999Z</time></trkpt><trkpt lat="44.894413712964806" lon="9.852068852068824"><ele>112.00000000000001</ele><time>2026-03-22T10:32:28.999Z</time></trkpt><trkpt lat="44.89439964586366" lon="9.852182135995355"><ele>112.0</ele><time>2026-03-22T10:32:29.999Z</time></trkpt><trkpt lat="44.894385514771464" lon="9.852295934599196"><ele>111.66666666666667</ele><time>2026-03-22T10:32:30.999Z</time></trkpt><trkpt lat="44.89437231289296" lon="9.85240953632176"><ele>111.33333333333334</ele><time>2026-03-22T10:32:31.999Z</time></trkpt><trkpt lat="44.89435925778756" lon="9.85252350126049"><ele>111.0</ele><time>2026-03-22T10:32:32.999Z</time></trkpt><trkpt lat="44.894346045824584" lon="9.852638836225516"><ele>110.66666666666666</ele><time>2026-03-22T10:32:33.999Z</time></trkpt><trkpt lat="44.89433284401062" lon="9.85275408207524"><ele>110.33333333333333</ele><time>2026-03-22T10:32:34.999Z</time></trkpt><trkpt lat="44.894319722153426" lon="9.852868630178598"><ele>110.0</ele><time>2026-03-22T10:32:35.999Z</time></trkpt><trkpt lat="44.89430606943728" lon="9.85298109645522"><ele>109.99999999999999</ele><time>2026-03-22T10:32:36.999Z</time></trkpt><trkpt lat="44.894292347453906" lon="9.853094009914448"><ele>110.0</ele><time>2026-03-22T10:32:37.999Z</time></trkpt><trkpt lat="44.894278653166076" lon="9.853206695915675"><ele>110.0</ele><time>2026-03-22T10:32:38.999Z</time></trkpt><trkpt lat="44.89426491493117" lon="9.853319743570669"><ele>110.0</ele><time>2026-03-22T10:32:39.999Z</time></trkpt><trkpt lat="44.894251449407925" lon="9.853431092627234"><ele>109.99999999999999</ele><time>2026-03-22T10:32:40.999Z</time></trkpt><trkpt lat="44.89423833766876" lon="9.853539538042968"><ele>110.0</ele><time>2026-03-22T10:32:41.999Z</time></trkpt><trkpt lat="44.89422487986329" lon="9.85365084558961"><ele>110.16666666666666</ele><time>2026-03-22T10:32:42.999Z</time></trkpt><trkpt lat="44.8942116431265" lon="9.853760324853889"><ele>110.33333333333333</ele><time>2026-03-22T10:32:43.999Z</time></trkpt><trkpt lat="44.89419844490899" lon="9.853869486032645"><ele>110.5</ele><time>2026-03-22T10:32:44.999Z</time></trkpt><trkpt lat="44.894185617498735" lon="9.853975579128909"><ele>110.66666666666666</ele><time>2026-03-22T10:32:45.999Z</time></trkpt><trkpt lat="44.89417309009146" lon="9.854084294179088"><ele>110.83333333333333</ele><time>2026-03-22T10:32:46.999Z</time></trkpt><trkpt lat="44.89416103768795" lon="9.854191142859397"><ele>111.0</ele><time>2026-03-22T10:32:47.999Z</time></trkpt><trkpt lat="44.8941489484635" lon="9.854298318450054"><ele>111.16666666666667</ele><time>2026-03-22T10:32:48.999Z</time></trkpt><trkpt lat="44.89413681470649" lon="9.854405888551828"><ele>111.33333333333334</ele><time>2026-03-22T10:32:49.999Z</time></trkpt><trkpt lat="44.89412487546755" lon="9.854511734158825"><ele>111.5</ele><time>2026-03-22T10:32:50.999Z</time></trkpt><trkpt lat="44.89411296321766" lon="9.854617340663951"><ele>111.66666666666667</ele><time>2026-03-22T10:32:51.999Z</time></trkpt><trkpt lat="44.894101193054475" lon="9.854721687245663"><ele>111.83333333333334</ele><time>2026-03-22T10:32:52.999Z</time></trkpt><trkpt lat="44.894088879746235" lon="9.854824870033834"><ele>112.0</ele><time>2026-03-22T10:32:53.999Z</time></trkpt><trkpt lat="44.89407641821076" lon="9.854928627967858"><ele>112.00000000000001</ele><time>2026-03-22T10:32:54.999Z</time></trkpt><trkpt lat="44.89406416829396" lon="9.855030624166098"><ele>112.0</ele><time>2026-03-22T10:32:55.998Z</time></trkpt><trkpt lat="44.894051862005064" lon="9.855133089662354"><ele>112.0</ele><time>2026-03-22T10:32:56.998Z</time></trkpt><trkpt lat="44.89408061860614" lon="9.855244794736535"><ele>112.0</ele><time>2026-03-22T10:32:57.998Z</time></trkpt><trkpt lat="44.894067244454945" lon="9.855344602875983"><ele>112.00000000000001</ele><time>2026-03-22T10:32:58.998Z</time></trkpt><trkpt lat="44.89405282356152" lon="9.855445646758543"><ele>112.0</ele><time>2026-03-22T10:32:59.998Z</time></trkpt><trkpt lat="44.894039360053725" lon="9.85554776722858"><ele>112.0</ele><time>2026-03-22T10:33:00.998Z</time></trkpt><trkpt lat="44.89402643256572" lon="9.855651114949406"><ele>112.0</ele><time>2026-03-22T10:33:01.998Z</time></trkpt><trkpt lat="44.894013574606795" lon="9.855751146117145"><ele>112.0</ele><time>2026-03-22T10:33:02.998Z</time></trkpt><trkpt lat="44.89400034060171" lon="9.855855990417767"><ele>112.0</ele><time>2026-03-22T10:33:03.998Z</time></trkpt><trkpt lat="44.89398739312497" lon="9.855957902122231"><ele>112.0</ele><time>2026-03-22T10:33:04.998Z</time></trkpt><trkpt lat="44.89397375160976" lon="9.856060887211536"><ele>112.0</ele><time>2026-03-22T10:33:05.998Z</time></trkpt><trkpt lat="44.89396206496409" lon="9.856162637883457"><ele>112.0</ele><time>2026-03-22T10:33:06.998Z</time></trkpt><trkpt lat="44.893953483783626" lon="9.856264198406217"><ele>112.00000000000001</ele><time>2026-03-22T10:33:07.998Z</time></trkpt><trkpt lat="44.89395722913103" lon="9.856367073820499"><ele>112.0</ele><time>2026-03-22T10:33:08.998Z</time></trkpt><trkpt lat="44.89397571803838" lon="9.856455729286212"><ele>112.0</ele><time>2026-03-22T10:33:09.998Z</time></trkpt><trkpt lat="44.89403911078327" lon="9.856544285296136"><ele>112.0</ele><time>2026-03-22T10:33:10.998Z</time></trkpt><trkpt lat="44.89411223818303" lon="9.85658811528045"><ele>112.00000000000001</ele><time>2026-03-22T10:33:11.998Z</time></trkpt><trkpt lat="44.8941963095563" lon="9.856622415249454"><ele>112.0</ele><time>2026-03-22T10:33:12.998Z</time></trkpt><trkpt lat="44.89427201462895" lon="9.85664981333687"><ele>112.00000000000001</ele><time>2026-03-22T10:33:13.998Z</time></trkpt><trkpt lat="44.8943497796602" lon="9.856686852323726"><ele>112.0</ele><time>2026-03-22T10:33:15Z</time></trkpt><trkpt lat="44.8944278401638" lon="9.856724681598276"><ele>112.0</ele><time>2026-03-22T10:33:16Z</time></trkpt><trkpt lat="44.89450439240107" lon="9.85676854571988"><ele>112.0</ele><time>2026-03-22T10:33:17Z</time></trkpt><trkpt lat="44.89457064597122" lon="9.856841447853833"><ele>112.00000000000001</ele><time>2026-03-22T10:33:18Z</time></trkpt><trkpt lat="44.89460780340857" lon="9.856949240498901"><ele>112.0</ele><time>2026-03-22T10:33:19Z</time></trkpt><trkpt lat="44.894615112958846" lon="9.85707646109324"><ele>111.50000000000001</ele><time>2026-03-22T10:33:20Z</time></trkpt><trkpt lat="44.89460976606612" lon="9.85719762450412"><ele>111.0</ele><time>2026-03-22T10:33:21Z</time></trkpt><trkpt lat="44.89460813093464" lon="9.857315472801183"><ele>110.5</ele><time>2026-03-22T10:33:22Z</time></trkpt><trkpt lat="44.89460918150721" lon="9.857431339511445"><ele>110.0</ele><time>2026-03-22T10:33:23Z</time></trkpt><trkpt lat="44.894613344357474" lon="9.857549081632472"><ele>109.50000000000001</ele><time>2026-03-22T10:33:24Z</time></trkpt><trkpt lat="44.89458237932862" lon="9.857670842104364"><ele>109.0</ele><time>2026-03-22T10:33:25Z</time></trkpt><trkpt lat="44.89458498578725" lon="9.857795506086596"><ele>108.83333333333334</ele><time>2026-03-22T10:33:26Z</time></trkpt><trkpt lat="44.89458753280704" lon="9.857917327383563"><ele>108.66666666666667</ele><time>2026-03-22T10:33:27Z</time></trkpt><trkpt lat="44.894590160865" lon="9.858043024479475"><ele>108.5</ele><time>2026-03-22T10:33:28Z</time></trkpt><trkpt lat="44.89459295338145" lon="9.85816791831672"><ele>108.33333333333334</ele><time>2026-03-22T10:33:29Z</time></trkpt><trkpt lat="44.89459617399281" lon="9.858293796949855"><ele>108.16666666666667</ele><time>2026-03-22T10:33:30Z</time></trkpt><trkpt lat="44.894600416070986" lon="9.858422250094703"><ele>108.0</ele><time>2026-03-22T10:33:31Z</time></trkpt><trkpt lat="44.89460482103962" lon="9.858550530761343"><ele>107.2</ele><time>2026-03-22T10:33:32Z</time></trkpt><trkpt lat="44.89460940283832" lon="9.85868396044062"><ele>106.4</ele><time>2026-03-22T10:33:33Z</time></trkpt><trkpt lat="44.894613932734195" lon="9.858815878936213"><ele>105.60000000000001</ele><time>2026-03-22T10:33:34Z</time></trkpt><trkpt lat="44.89461843668917" lon="9.858947041709516"><ele>104.80000000000001</ele><time>2026-03-22T10:33:35Z</time></trkpt><trkpt lat="44.894622999853695" lon="9.85907992876134"><ele>104.0</ele><time>2026-03-22T10:33:36Z</time></trkpt><trkpt lat="44.89462758555257" lon="9.85921076389669"><ele>103.6</ele><time>2026-03-22T10:33:37Z</time></trkpt><trkpt lat="44.894633176365176" lon="9.859343816160516"><ele>103.2</ele><time>2026-03-22T10:33:38Z</time></trkpt><trkpt lat="44.894638729714835" lon="9.859475976933323"><ele>102.8</ele><time>2026-03-22T10:33:39Z</time></trkpt><trkpt lat="44.894649113762206" lon="9.859612160183362"><ele>102.39999999999999</ele><time>2026-03-22T10:33:40Z</time></trkpt><trkpt lat="44.894683356312285" lon="9.859747332109304"><ele>102.0</ele><time>2026-03-22T10:33:41Z</time></trkpt><trkpt lat="44.89476435231145" lon="9.85985269467459"><ele>102.0</ele><time>2026-03-22T10:33:42Z</time></trkpt><trkpt lat="44.89485834900115" lon="9.85990422660161"><ele>102.0</ele><time>2026-03-22T10:33:43Z</time></trkpt><trkpt lat="44.89494493902202" lon="9.859949499889373"><ele>102.0</ele><time>2026-03-22T10:33:44Z</time></trkpt><trkpt lat="44.89503415859031" lon="9.859986008279098"><ele>102.0</ele><time>2026-03-22T10:33:45Z</time></trkpt><trkpt lat="44.895123510039625" lon="9.860024009812816"><ele>102.0</ele><time>2026-03-22T10:33:46Z</time></trkpt><trkpt lat="44.895212657125846" lon="9.860061841547784"><ele>102.0</ele><time>2026-03-22T10:33:47Z</time></trkpt><trkpt lat="44.89530215375282" lon="9.86009703830469"><ele>102.0</ele><time>2026-03-22T10:33:48Z</time></trkpt><trkpt lat="44.89539121802123" lon="9.860137392165388"><ele>102.0</ele><time>2026-03-22T10:33:49Z</time></trkpt><trkpt lat="44.89547906996337" lon="9.860180052345138"><ele>102.0</ele><time>2026-03-22T10:33:50Z</time></trkpt><trkpt lat="44.895566698835076" lon="9.860220991107873"><ele>102.0</ele><time>2026-03-22T10:33:51Z</time></trkpt><trkpt lat="44.895655393468196" lon="9.860261914398466"><ele>102.0</ele><time>2026-03-22T10:33:52Z</time></trkpt><trkpt lat="44.89574370602416" lon="9.860302399619552"><ele>102.0</ele><time>2026-03-22T10:33:53Z</time></trkpt><trkpt lat="44.89583276621387" lon="9.860343046412524"><ele>102.0</ele><time>2026-03-22T10:33:54Z</time></trkpt><trkpt lat="44.89592198877087" lon="9.860381423521254"><ele>102.0</ele><time>2026-03-22T10:33:55Z</time></trkpt><trkpt lat="44.89601101699558" lon="9.860422636719155"><ele>102.0</ele><time>2026-03-22T10:33:56Z</time></trkpt><trkpt lat="44.89609885287664" lon="9.86046376176746"><ele>102.0</ele><time>2026-03-22T10:33:57Z</time></trkpt><trkpt lat="44.89618713652208" lon="9.860503230006538"><ele>102.0</ele><time>2026-03-22T10:33:58Z</time></trkpt><trkpt lat="44.89627517510905" lon="9.860543092343146"><ele>102.0</ele><time>2026-03-22T10:33:59Z</time></trkpt><trkpt lat="44.89636123415857" lon="9.86058023509528"><ele>102.0</ele><time>2026-03-22T10:34:00Z</time></trkpt><trkpt lat="44.896448542892834" lon="9.860618941871339"><ele>102.0</ele><time>2026-03-22T10:34:01Z</time></trkpt><trkpt lat="44.896533252326954" lon="9.860660989951056"><ele>102.0</ele><time>2026-03-22T10:34:02Z</time></trkpt><trkpt lat="44.89662022438398" lon="9.860697627446973"><ele>102.0</ele><time>2026-03-22T10:34:03Z</time></trkpt><trkpt lat="44.896707128623454" lon="9.860734241162797"><ele>102.0</ele><time>2026-03-22T10:34:04Z</time></trkpt><trkpt lat="44.8967924457403" lon="9.860771480478638"><ele>102.0</ele><time>2026-03-22T10:34:05Z</time></trkpt><trkpt lat="44.896878702733595" lon="9.860809330909534"><ele>102.0</ele><time>2026-03-22T10:34:06Z</time></trkpt><trkpt lat="44.89696503356554" lon="9.860848206719073"><ele>102.0</ele><time>2026-03-22T10:34:06.999Z</time></trkpt><trkpt lat="44.897049868898044" lon="9.860887734673124"><ele>102.0</ele><time>2026-03-22T10:34:07.999Z</time></trkpt><trkpt lat="44.897137535402386" lon="9.860929908252476"><ele>102.0</ele><time>2026-03-22T10:34:08.999Z</time></trkpt><trkpt lat="44.89722204289029" lon="9.86096547547682"><ele>102.0</ele><time>2026-03-22T10:34:09.999Z</time></trkpt><trkpt lat="44.897310867102114" lon="9.86100332562305"><ele>102.0</ele><time>2026-03-22T10:34:10.999Z</time></trkpt><trkpt lat="44.89739600086013" lon="9.861039544927221"><ele>102.0</ele><time>2026-03-22T10:34:11.999Z</time></trkpt><trkpt lat="44.89748184128975" lon="9.861083847349374"><ele>102.0</ele><time>2026-03-22T10:34:12.999Z</time></trkpt><trkpt lat="44.897559454791576" lon="9.861151289111334"><ele>102.0</ele><time>2026-03-22T10:34:13.999Z</time></trkpt><trkpt lat="44.89762676193934" lon="9.861238344512765"><ele>102.0</ele><time>2026-03-22T10:34:14.999Z</time></trkpt><trkpt lat="44.89767996395142" lon="9.861344122801455"><ele>102.0</ele><time>2026-03-22T10:34:15.999Z</time></trkpt><trkpt lat="44.89770897840522" lon="9.861463270033042"><ele>101.5</ele><time>2026-03-22T10:34:16.999Z</time></trkpt><trkpt lat="44.897708231747" lon="9.861591704926214"><ele>101.0</ele><time>2026-03-22T10:34:17.999Z</time></trkpt><trkpt lat="44.89769246993516" lon="9.861712437033926"><ele>100.5</ele><time>2026-03-22T10:34:18.999Z</time></trkpt><trkpt lat="44.89768426783047" lon="9.861835627917513"><ele>100.0</ele><time>2026-03-22T10:34:19.999Z</time></trkpt><trkpt lat="44.89769649917383" lon="9.861957483068876"><ele>99.5</ele><time>2026-03-22T10:34:20.999Z</time></trkpt><trkpt lat="44.89773865093635" lon="9.862069217584697"><ele>99.0</ele><time>2026-03-22T10:34:21.999Z</time></trkpt><trkpt lat="44.89780484533403" lon="9.862160131364842"><ele>99.0</ele><time>2026-03-22T10:34:22.999Z</time></trkpt><trkpt lat="44.89789817432466" lon="9.862202485582467"><ele>99.0</ele><time>2026-03-22T10:34:23.999Z</time></trkpt><trkpt lat="44.89799225001128" lon="9.862215970979497"><ele>99.0</ele><time>2026-03-22T10:34:24.999Z</time></trkpt><trkpt lat="44.89808253944842" lon="9.862221633441322"><ele>99.0</ele><time>2026-03-22T10:34:25.999Z</time></trkpt><trkpt lat="44.89817112165801" lon="9.862234302141315"><ele>99.0</ele><time>2026-03-22T10:34:26.999Z</time></trkpt><trkpt lat="44.898260861318846" lon="9.862248457724371"><ele>99.0</ele><time>2026-03-22T10:34:27.999Z</time></trkpt><trkpt lat="44.89834978395267" lon="9.862263853121682"><ele>99.0</ele><time>2026-03-22T10:34:28.999Z</time></trkpt><trkpt lat="44.89843661313046" lon="9.862297452709392"><ele>99.0</ele><time>2026-03-22T10:34:29.999Z</time></trkpt><trkpt lat="44.898521047124305" lon="9.862343330157527"><ele>99.0</ele><time>2026-03-22T10:34:30.999Z</time></trkpt><trkpt lat="44.89860351434017" lon="9.862394696319544"><ele>99.0</ele><time>2026-03-22T10:34:31.999Z</time></trkpt><trkpt lat="44.898684558209524" lon="9.862449494735069"><ele>98.83333333333333</ele><time>2026-03-22T10:34:32.999Z</time></trkpt><trkpt lat="44.89876529236631" lon="9.862502522509637"><ele>98.66666666666666</ele><time>2026-03-22T10:34:33.999Z</time></trkpt><trkpt lat="44.89884717804801" lon="9.86255596886083"><ele>98.5</ele><time>2026-03-22T10:34:34.999Z</time></trkpt><trkpt lat="44.898928202561954" lon="9.862610561921151"><ele>98.33333333333333</ele><time>2026-03-22T10:34:35.999Z</time></trkpt><trkpt lat="44.89900862856915" lon="9.8626680662044"><ele>98.16666666666666</ele><time>2026-03-22T10:34:36.999Z</time></trkpt><trkpt lat="44.89908782027365" lon="9.862723745558043"><ele>98.0</ele><time>2026-03-22T10:34:37.999Z</time></trkpt><trkpt lat="44.89916946756612" lon="9.862777722594702"><ele>97.99999999999999</ele><time>2026-03-22T10:34:38.999Z</time></trkpt><trkpt lat="44.899249926400614" lon="9.862831090118473"><ele>98.0</ele><time>2026-03-22T10:34:39.999Z</time></trkpt><trkpt lat="44.89932987023617" lon="9.862884847472865"><ele>98.0</ele><time>2026-03-22T10:34:40.999Z</time></trkpt><trkpt lat="44.89940925587465" lon="9.86293688138773"><ele>98.0</ele><time>2026-03-22T10:34:41.999Z</time></trkpt><trkpt lat="44.89949035311815" lon="9.86298718514239"><ele>97.99999999999999</ele><time>2026-03-22T10:34:42.999Z</time></trkpt><trkpt lat="44.89957171402237" lon="9.86303451158953"><ele>98.0</ele><time>2026-03-22T10:34:43.999Z</time></trkpt><trkpt lat="44.89965336086292" lon="9.863091345187117"><ele>97.66666666666666</ele><time>2026-03-22T10:34:44.999Z</time></trkpt><trkpt lat="44.89972623645961" lon="9.863151336169334"><ele>97.33333333333333</ele><time>2026-03-22T10:34:45.999Z</time></trkpt><trkpt lat="44.89979758462274" lon="9.863221244521139"><ele>97.0</ele><time>2026-03-22T10:34:46.999Z</time></trkpt><trkpt lat="44.89986093637222" lon="9.863307601646097"><ele>96.66666666666666</ele><time>2026-03-22T10:34:47.999Z</time></trkpt><trkpt lat="44.89991731104787" lon="9.863407541624419"><ele>96.33333333333333</ele><time>2026-03-22T10:34:48.999Z</time></trkpt><trkpt lat="44.89996793851096" lon="9.863506477769102"><ele>96.0</ele><time>2026-03-22T10:34:49.999Z</time></trkpt><trkpt lat="44.90003181059789" lon="9.863587176950267"><ele>95.83333333333333</ele><time>2026-03-22T10:34:50.999Z</time></trkpt><trkpt lat="44.900103618670954" lon="9.863653898906522"><ele>95.66666666666667</ele><time>2026-03-22T10:34:51.999Z</time></trkpt><trkpt lat="44.90017767845155" lon="9.863714315395205"><ele>95.5</ele><time>2026-03-22T10:34:52.999Z</time></trkpt><trkpt lat="44.9002510648996" lon="9.863775748400178"><ele>95.33333333333334</ele><time>2026-03-22T10:34:53.999Z</time></trkpt><trkpt lat="44.900322215081815" lon="9.863840294388398"><ele>95.16666666666667</ele><time>2026-03-22T10:34:54.999Z</time></trkpt><trkpt lat="44.90039269364212" lon="9.863906560499904"><ele>95.0</ele><time>2026-03-22T10:34:55.999Z</time></trkpt><trkpt lat="44.900460636899055" lon="9.863972068459475"><ele>95.0</ele><time>2026-03-22T10:34:56.999Z</time></trkpt><trkpt lat="44.90053194870961" lon="9.864037777250221"><ele>95.0</ele><time>2026-03-22T10:34:57.999Z</time></trkpt><trkpt lat="44.90060197582367" lon="9.864103865853068"><ele>95.0</ele><time>2026-03-22T10:34:58.999Z</time></trkpt><trkpt lat="44.90067053703266" lon="9.864168805930735"><ele>95.0</ele><time>2026-03-22T10:34:59.998Z</time></trkpt><trkpt lat="44.90073677885029" lon="9.864232511821534"><ele>95.0</ele><time>2026-03-22T10:35:00.998Z</time></trkpt><trkpt lat="44.900806650693646" lon="9.864294934842073"><ele>95.0</ele><time>2026-03-22T10:35:01.998Z</time></trkpt><trkpt lat="44.900874345820036" lon="9.864355624236227"><ele>95.5</ele><time>2026-03-22T10:35:02.998Z</time></trkpt><trkpt lat="44.90094187653781" lon="9.864421812201554"><ele>96.0</ele><time>2026-03-22T10:35:03.998Z</time></trkpt><trkpt lat="44.901005525991934" lon="9.864486630337371"><ele>96.5</ele><time>2026-03-22T10:35:04.998Z</time></trkpt><trkpt lat="44.90107411197066" lon="9.86454979453648"><ele>97.0</ele><time>2026-03-22T10:35:05.998Z</time></trkpt><trkpt lat="44.90114188907495" lon="9.864612974562892"><ele>97.49999999999999</ele><time>2026-03-22T10:35:06.998Z</time></trkpt><trkpt lat="44.901211074162326" lon="9.864670634702122"><ele>98.0</ele><time>2026-03-22T10:35:07.998Z</time></trkpt><trkpt lat="44.90128050469588" lon="9.864731280305215"><ele>97.99999999999999</ele><time>2026-03-22T10:35:08.998Z</time></trkpt><trkpt lat="44.90134788708323" lon="9.864788579559566"><ele>98.0</ele><time>2026-03-22T10:35:09.998Z</time></trkpt><trkpt lat="44.90141764873755" lon="9.864843758023547"><ele>98.0</ele><time>2026-03-22T10:35:10.998Z</time></trkpt><trkpt lat="44.90148895731538" lon="9.864892328850999"><ele>98.0</ele><time>2026-03-22T10:35:11.998Z</time></trkpt><trkpt lat="44.901560506919786" lon="9.864945008666211"><ele>97.99999999999999</ele><time>2026-03-22T10:35:12.998Z</time></trkpt><trkpt lat="44.9016297854769" lon="9.865000656401804"><ele>98.0</ele><time>2026-03-22T10:35:13.998Z</time></trkpt><trkpt lat="44.90169420368502" lon="9.8650657195371"><ele>97.33333333333333</ele><time>2026-03-22T10:35:14.998Z</time></trkpt><trkpt lat="44.90175549727128" lon="9.865138870882639"><ele>96.66666666666666</ele><time>2026-03-22T10:35:15.998Z</time></trkpt><trkpt lat="44.901803871318684" lon="9.865224871373973"><ele>96.0</ele><time>2026-03-22T10:35:16.998Z</time></trkpt><trkpt lat="44.90184467084421" lon="9.865317738091347"><ele>95.33333333333333</ele><time>2026-03-22T10:35:17.998Z</time></trkpt><trkpt lat="44.90188335512047" lon="9.865413352072018"><ele>94.66666666666666</ele><time>2026-03-22T10:35:18.998Z</time></trkpt><trkpt lat="44.90191661761437" lon="9.86550924017153"><ele>94.0</ele><time>2026-03-22T10:35:19.998Z</time></trkpt><trkpt lat="44.90194827019576" lon="9.865602823433663"><ele>94.0</ele><time>2026-03-22T10:35:21Z</time></trkpt><trkpt lat="44.90197338490448" lon="9.865706865407095"><ele>94.0</ele><time>2026-03-22T10:35:22Z</time></trkpt><trkpt lat="44.90199564443381" lon="9.86581205091689"><ele>94.0</ele><time>2026-03-22T10:35:23Z</time></trkpt><trkpt lat="44.90202206100808" lon="9.865917965966556"><ele>94.0</ele><time>2026-03-22T10:35:24Z</time></trkpt><trkpt lat="44.90204823278144" lon="9.866024378273321"><ele>94.0</ele><time>2026-03-22T10:35:25Z</time></trkpt><trkpt lat="44.90207788768124" lon="9.866130157639539"><ele>94.0</ele><time>2026-03-22T10:35:26Z</time></trkpt><trkpt lat="44.90211122250962" lon="9.866235610262741"><ele>94.0</ele><time>2026-03-22T10:35:27Z</time></trkpt><trkpt lat="44.902152711298406" lon="9.866331334259618"><ele>94.0</ele><time>2026-03-22T10:35:28Z</time></trkpt><trkpt lat="44.902195695167215" lon="9.866422146053026"><ele>94.0</ele><time>2026-03-22T10:35:29Z</time></trkpt><trkpt lat="44.90224417156616" lon="9.866505252753914"><ele>94.0</ele><time>2026-03-22T10:35:30Z</time></trkpt><trkpt lat="44.9023004708764" lon="9.866584369043279"><ele>94.0</ele><time>2026-03-22T10:35:31Z</time></trkpt><trkpt lat="44.902358180452765" lon="9.866660556778093"><ele>94.0</ele><time>2026-03-22T10:35:32Z</time></trkpt><trkpt lat="44.90241390118528" lon="9.866738748299834"><ele>94.0</ele><time>2026-03-22T10:35:33Z</time></trkpt><trkpt lat="44.902470626007414" lon="9.866811932573588"><ele>94.0</ele><time>2026-03-22T10:35:34Z</time></trkpt><trkpt lat="44.90252695161105" lon="9.866886195000834"><ele>94.0</ele><time>2026-03-22T10:35:35Z</time></trkpt><trkpt lat="44.902582770771055" lon="9.866958277205477"><ele>94.0</ele><time>2026-03-22T10:35:36Z</time></trkpt><trkpt lat="44.90263657109856" lon="9.867030454128404"><ele>94.0</ele><time>2026-03-22T10:35:37Z</time></trkpt><trkpt lat="44.90269229094775" lon="9.867100020239803"><ele>94.0</ele><time>2026-03-22T10:35:38Z</time></trkpt><trkpt lat="44.90274666713372" lon="9.867168409604023"><ele>94.28571428571428</ele><time>2026-03-22T10:35:39Z</time></trkpt><trkpt lat="44.90280089524183" lon="9.867235020475832"><ele>94.57142857142857</ele><time>2026-03-22T10:35:40Z</time></trkpt><trkpt lat="44.90284961110353" lon="9.867301860898024"><ele>94.85714285714286</ele><time>2026-03-22T10:35:41Z</time></trkpt><trkpt lat="44.902898131734084" lon="9.867366444184643"><ele>95.14285714285714</ele><time>2026-03-22T10:35:42Z</time></trkpt><trkpt lat="44.90294656519022" lon="9.867432416961378"><ele>95.42857142857143</ele><time>2026-03-22T10:35:43Z</time></trkpt><trkpt lat="44.90299708590263" lon="9.867499001336398"><ele>95.71428571428571</ele><time>2026-03-22T10:35:44Z</time></trkpt><trkpt lat="44.90304487490081" lon="9.867562315012323"><ele>96.0</ele><time>2026-03-22T10:35:45Z</time></trkpt><trkpt lat="44.90309115868629" lon="9.867629220280252"><ele>96.19999999999999</ele><time>2026-03-22T10:35:46Z</time></trkpt><trkpt lat="44.90313726321651" lon="9.867690625873678"><ele>96.39999999999999</ele><time>2026-03-22T10:35:47Z</time></trkpt><trkpt lat="44.90318188328714" lon="9.867755294386237"><ele>96.6</ele><time>2026-03-22T10:35:48Z</time></trkpt><trkpt lat="44.90327195261714" lon="9.867876546740778"><ele>96.8</ele><time>2026-03-22T10:35:50Z</time></trkpt><trkpt lat="44.903358840247975" lon="9.86799967695083"><ele>97.0</ele><time>2026-03-22T10:35:52Z</time></trkpt><trkpt lat="44.903448153605645" lon="9.868121743691129"><ele>97.0</ele><time>2026-03-22T10:35:54Z</time></trkpt><trkpt lat="44.90353218964932" lon="9.868244018602672"><ele>97.0</ele><time>2026-03-22T10:35:56Z</time></trkpt><trkpt lat="44.90361878499121" lon="9.868364985386965"><ele>97.0</ele><time>2026-03-22T10:35:58Z</time></trkpt><trkpt lat="44.903706526183136" lon="9.868491822777841"><ele>97.0</ele><time>2026-03-22T10:36:00Z</time></trkpt><trkpt lat="44.90379701082772" lon="9.868617111224863"><ele>97.0</ele><time>2026-03-22T10:36:02Z</time></trkpt><trkpt lat="44.903843241586664" lon="9.86868687181195"><ele>97.0</ele><time>2026-03-22T10:36:03Z</time></trkpt><trkpt lat="44.90388868503475" lon="9.86875018061702"><ele>97.0</ele><time>2026-03-22T10:36:04Z</time></trkpt><trkpt lat="44.90393688739532" lon="9.868814110652007"><ele>97.0</ele><time>2026-03-22T10:36:05Z</time></trkpt><trkpt lat="44.903986508127055" lon="9.868878972554352"><ele>97.0</ele><time>2026-03-22T10:36:06Z</time></trkpt><trkpt lat="44.90403383312315" lon="9.86894213094123"><ele>97.0</ele><time>2026-03-22T10:36:07Z</time></trkpt><trkpt lat="44.904081237766576" lon="9.869010152431871"><ele>97.0</ele><time>2026-03-22T10:36:08Z</time></trkpt><trkpt lat="44.90412768441796" lon="9.869076926255179"><ele>97.0</ele><time>2026-03-22T10:36:09Z</time></trkpt><trkpt lat="44.90417446875336" lon="9.869142829629908"><ele>97.0</ele><time>2026-03-22T10:36:10Z</time></trkpt><trkpt lat="44.9042230095328" lon="9.869207766137013"><ele>97.0</ele><time>2026-03-22T10:36:11Z</time></trkpt><trkpt lat="44.904266344132694" lon="9.869281569779053"><ele>97.0</ele><time>2026-03-22T10:36:11.999Z</time></trkpt><trkpt lat="44.90430302517601" lon="9.869357325363877"><ele>97.0</ele><time>2026-03-22T10:36:12.999Z</time></trkpt><trkpt lat="44.90432917423157" lon="9.869444894416285"><ele>97.0</ele><time>2026-03-22T10:36:13.999Z</time></trkpt><trkpt lat="44.904342214742876" lon="9.869535925346696"><ele>97.0</ele><time>2026-03-22T10:36:14.999Z</time></trkpt><trkpt lat="44.90435807690324" lon="9.869625777301096"><ele>96.85714285714285</ele><time>2026-03-22T10:36:15.999Z</time></trkpt><trkpt lat="44.904373855915914" lon="9.869714061472337"><ele>96.71428571428572</ele><time>2026-03-22T10:36:16.999Z</time></trkpt><trkpt lat="44.90438189893888" lon="9.86980451069058"><ele>96.57142857142857</ele><time>2026-03-22T10:36:17.999Z</time></trkpt><trkpt lat="44.90439376534546" lon="9.869894447261819"><ele>96.42857142857142</ele><time>2026-03-22T10:36:18.999Z</time></trkpt><trkpt lat="44.90440648509934" lon="9.86998436564272"><ele>96.28571428571428</ele><time>2026-03-22T10:36:19.999Z</time></trkpt><trkpt lat="44.904419818660294" lon="9.870072659316403"><ele>96.14285714285714</ele><time>2026-03-22T10:36:20.999Z</time></trkpt><trkpt lat="44.90443233511502" lon="9.87016360613846"><ele>96.0</ele><time>2026-03-22T10:36:21.999Z</time></trkpt><trkpt lat="44.904441353876535" lon="9.870251600604744"><ele>95.83333333333333</ele><time>2026-03-22T10:36:22.999Z</time></trkpt><trkpt lat="44.90445258518729" lon="9.870342379100666"><ele>95.66666666666667</ele><time>2026-03-22T10:36:23.999Z</time></trkpt><trkpt lat="44.904471106936356" lon="9.870427714628104"><ele>95.5</ele><time>2026-03-22T10:36:24.999Z</time></trkpt><trkpt lat="44.90448948300446" lon="9.87051592738352"><ele>95.33333333333334</ele><time>2026-03-22T10:36:25.999Z</time></trkpt><trkpt lat="44.90452164704335" lon="9.870688507208651"><ele>95.16666666666667</ele><time>2026-03-22T10:36:27.999Z</time></trkpt><trkpt lat="44.90454951153237" lon="9.870864961687765"><ele>95.0</ele><time>2026-03-22T10:36:29.999Z</time></trkpt><trkpt lat="44.90456510317324" lon="9.87095253449008"><ele>95.28571428571429</ele><time>2026-03-22T10:36:30.999Z</time></trkpt><trkpt lat="44.904577954521734" lon="9.871043685004734"><ele>95.57142857142858</ele><time>2026-03-22T10:36:31.999Z</time></trkpt><trkpt lat="44.90459168803327" lon="9.871131572972121"><ele>95.85714285714286</ele><time>2026-03-22T10:36:32.999Z</time></trkpt><trkpt lat="44.90460674084523" lon="9.87121911184361"><ele>96.14285714285714</ele><time>2026-03-22T10:36:33.999Z</time></trkpt><trkpt lat="44.90462412842101" lon="9.871305810553734"><ele>96.42857142857143</ele><time>2026-03-22T10:36:34.999Z</time></trkpt><trkpt lat="44.904638984879014" lon="9.871394114222504"><ele>96.71428571428571</ele><time>2026-03-22T10:36:35.999Z</time></trkpt><trkpt lat="44.90465369756579" lon="9.87148538088239"><ele>97.0</ele><time>2026-03-22T10:36:36.999Z</time></trkpt><trkpt lat="44.90468302175395" lon="9.871658738207776"><ele>97.39999999999999</ele><time>2026-03-22T10:36:38.999Z</time></trkpt><trkpt lat="44.9047103324247" lon="9.871829956826282"><ele>97.8</ele><time>2026-03-22T10:36:40.999Z</time></trkpt><trkpt lat="44.904724320248576" lon="9.871918050499463"><ele>98.2</ele><time>2026-03-22T10:36:41.999Z</time></trkpt><trkpt lat="44.90475658174384" lon="9.872089401207178"><ele>98.6</ele><time>2026-03-22T10:36:43.999Z</time></trkpt><trkpt lat="44.90478146528277" lon="9.872257966711249"><ele>99.0</ele><time>2026-03-22T10:36:45.999Z</time></trkpt><trkpt lat="44.90480939683483" lon="9.872427039434879"><ele>99.0</ele><time>2026-03-22T10:36:47.999Z</time></trkpt><trkpt lat="44.90483822403636" lon="9.872594785096165"><ele>99.0</ele><time>2026-03-22T10:36:49.999Z</time></trkpt><trkpt lat="44.90486240270659" lon="9.87275801195413"><ele>99.0</ele><time>2026-03-22T10:36:51.999Z</time></trkpt><trkpt lat="44.904889715534395" lon="9.872923586186902"><ele>99.0</ele><time>2026-03-22T10:36:53.999Z</time></trkpt><trkpt lat="44.90491966018973" lon="9.873090422818168"><ele>99.0</ele><time>2026-03-22T10:36:55.999Z</time></trkpt><trkpt lat="44.90494332211639" lon="9.873256317344763"><ele>99.0</ele><time>2026-03-22T10:36:57.999Z</time></trkpt><trkpt lat="44.90497188600118" lon="9.87342402915871"><ele>99.0</ele><time>2026-03-22T10:36:59.999Z</time></trkpt><trkpt lat="44.90499749075367" lon="9.87358966086042"><ele>99.0</ele><time>2026-03-22T10:37:01.999Z</time></trkpt><trkpt lat="44.90502352346017" lon="9.873761734161322"><ele>99.2</ele><time>2026-03-22T10:37:03.999Z</time></trkpt><trkpt lat="44.905052171338305" lon="9.873923434125777"><ele>99.4</ele><time>2026-03-22T10:37:05.998Z</time></trkpt><trkpt lat="44.90507631213799" lon="9.87409269862064"><ele>99.6</ele><time>2026-03-22T10:37:07.998Z</time></trkpt><trkpt lat="44.9050917967869" lon="9.874179213175138"><ele>99.8</ele><time>2026-03-22T10:37:08.998Z</time></trkpt><trkpt lat="44.90511806764764" lon="9.87434865546265"><ele>100.0</ele><time>2026-03-22T10:37:10.998Z</time></trkpt><trkpt lat="44.90514464553721" lon="9.87451586826439"><ele>100.25</ele><time>2026-03-22T10:37:12.998Z</time></trkpt><trkpt lat="44.90517142791663" lon="9.87468790915044"><ele>100.5</ele><time>2026-03-22T10:37:14.998Z</time></trkpt><trkpt lat="44.90519929759722" lon="9.874859810278874"><ele>100.75</ele><time>2026-03-22T10:37:16.998Z</time></trkpt><trkpt lat="44.90523005204861" lon="9.875030819726355"><ele>101.0</ele><time>2026-03-22T10:37:18.998Z</time></trkpt><trkpt lat="44.90525923556198" lon="9.875201845492187"><ele>101.16666666666666</ele><time>2026-03-22T10:37:20.998Z</time></trkpt><trkpt lat="44.90528919795704" lon="9.875375849310728"><ele>101.33333333333333</ele><time>2026-03-22T10:37:22.998Z</time></trkpt><trkpt lat="44.90531826501248" lon="9.875547374283387"><ele>101.5</ele><time>2026-03-22T10:37:24.998Z</time></trkpt><trkpt lat="44.90533161625753" lon="9.875638596301503"><ele>101.66666666666666</ele><time>2026-03-22T10:37:25.998Z</time></trkpt><trkpt lat="44.90534631368022" lon="9.875725603188524"><ele>101.83333333333333</ele><time>2026-03-22T10:37:27Z</time></trkpt><trkpt lat="44.90536122371528" lon="9.87581532101485"><ele>102.0</ele><time>2026-03-22T10:37:28Z</time></trkpt><trkpt lat="44.90537556352057" lon="9.875901871123324"><ele>101.66666666666667</ele><time>2026-03-22T10:37:29Z</time></trkpt><trkpt lat="44.905391392256334" lon="9.875988322798582"><ele>101.33333333333334</ele><time>2026-03-22T10:37:30Z</time></trkpt><trkpt lat="44.90540676313304" lon="9.876077594046452"><ele>101.0</ele><time>2026-03-22T10:37:31Z</time></trkpt><trkpt lat="44.905433041520226" lon="9.876247451719152"><ele>100.66666666666667</ele><time>2026-03-22T10:37:33Z</time></trkpt><trkpt lat="44.90546230941876" lon="9.876420723465541"><ele>100.33333333333334</ele><time>2026-03-22T10:37:35Z</time></trkpt><trkpt lat="44.90547533693173" lon="9.876507936432832"><ele>100.0</ele><time>2026-03-22T10:37:36Z</time></trkpt><trkpt lat="44.90549141572308" lon="9.876595736312005"><ele>100.0</ele><time>2026-03-22T10:37:37Z</time></trkpt><trkpt lat="44.90552493570582" lon="9.876761968360137"><ele>100.0</ele><time>2026-03-22T10:37:39Z</time></trkpt><trkpt lat="44.905545806239154" lon="9.876846719966725"><ele>100.0</ele><time>2026-03-22T10:37:40Z</time></trkpt><trkpt lat="44.90559690497006" lon="9.877002781502808"><ele>100.0</ele><time>2026-03-22T10:37:42Z</time></trkpt><trkpt lat="44.905667937683305" lon="9.877150381431587"><ele>100.0</ele><time>2026-03-22T10:37:44Z</time></trkpt><trkpt lat="44.90575079733998" lon="9.877287087297624"><ele>100.14285714285715</ele><time>2026-03-22T10:37:46Z</time></trkpt><trkpt lat="44.90579606068511" lon="9.87735582842451"><ele>100.28571428571429</ele><time>2026-03-22T10:37:47Z</time></trkpt><trkpt lat="44.905842812206814" lon="9.877426231113798"><ele>100.42857142857143</ele><time>2026-03-22T10:37:48Z</time></trkpt><trkpt lat="44.905888024554095" lon="9.877498094993504"><ele>100.57142857142858</ele><time>2026-03-22T10:37:49Z</time></trkpt><trkpt lat="44.905937032870725" lon="9.877569513709357"><ele>100.71428571428571</ele><time>2026-03-22T10:37:50Z</time></trkpt><trkpt lat="44.90598139297378" lon="9.877642366472118"><ele>100.85714285714286</ele><time>2026-03-22T10:37:51Z</time></trkpt><trkpt lat="44.90602927915897" lon="9.877715275177833"><ele>101.0</ele><time>2026-03-22T10:37:52Z</time></trkpt><trkpt lat="44.90607477567612" lon="9.877790326910047"><ele>101.0</ele><time>2026-03-22T10:37:53Z</time></trkpt><trkpt lat="44.906126713316425" lon="9.877861635689817"><ele>101.0</ele><time>2026-03-22T10:37:54Z</time></trkpt><trkpt lat="44.90617743259579" lon="9.877934880773797"><ele>101.0</ele><time>2026-03-22T10:37:55Z</time></trkpt><trkpt lat="44.90622533043197" lon="9.878016267650592"><ele>101.0</ele><time>2026-03-22T10:37:56Z</time></trkpt><trkpt lat="44.9062759096349" lon="9.878093735906132"><ele>101.0</ele><time>2026-03-22T10:37:57Z</time></trkpt><trkpt lat="44.906324771519145" lon="9.878173927237128"><ele>101.0</ele><time>2026-03-22T10:37:58Z</time></trkpt><trkpt lat="44.906375873842" lon="9.87825098189195"><ele>101.0</ele><time>2026-03-22T10:37:59Z</time></trkpt><trkpt lat="44.906426615916395" lon="9.878330711789612"><ele>100.99999999999999</ele><time>2026-03-22T10:38:00Z</time></trkpt><trkpt lat="44.9064781884477" lon="9.878412709776912"><ele>101.0</ele><time>2026-03-22T10:38:01Z</time></trkpt><trkpt lat="44.90653340845204" lon="9.878491941830893"><ele>101.0</ele><time>2026-03-22T10:38:02Z</time></trkpt><trkpt lat="44.906586603048815" lon="9.878571734561417"><ele>101.0</ele><time>2026-03-22T10:38:03Z</time></trkpt><trkpt lat="44.90663814558701" lon="9.878652767416751"><ele>100.99999999999999</ele><time>2026-03-22T10:38:04Z</time></trkpt><trkpt lat="44.90669135861063" lon="9.878729731881984"><ele>101.0</ele><time>2026-03-22T10:38:05Z</time></trkpt><trkpt lat="44.90674579793068" lon="9.878802997423378"><ele>100.99999999999999</ele><time>2026-03-22T10:38:06Z</time></trkpt><trkpt lat="44.90680476481446" lon="9.878874271257555"><ele>101.0</ele><time>2026-03-22T10:38:07Z</time></trkpt><trkpt lat="44.906867678689146" lon="9.878938566709147"><ele>101.0</ele><time>2026-03-22T10:38:08Z</time></trkpt><trkpt lat="44.90693709291095" lon="9.878992460150299"><ele>101.0</ele><time>2026-03-22T10:38:09Z</time></trkpt><trkpt lat="44.90701272930855" lon="9.87902458822348"><ele>100.99999999999999</ele><time>2026-03-22T10:38:10Z</time></trkpt><trkpt lat="44.90709086585219" lon="9.879045324025254"><ele>101.0</ele><time>2026-03-22T10:38:11Z</time></trkpt><trkpt lat="44.90716890587047" lon="9.879055090876966"><ele>100.99999999999999</ele><time>2026-03-22T10:38:12Z</time></trkpt><trkpt lat="44.907251909376576" lon="9.879061487345577"><ele>101.0</ele><time>2026-03-22T10:38:13Z</time></trkpt><trkpt lat="44.90733099535666" lon="9.879067168542852"><ele>101.0</ele><time>2026-03-22T10:38:14Z</time></trkpt><trkpt lat="44.90741429508154" lon="9.879071098799068"><ele>101.0</ele><time>2026-03-22T10:38:15Z</time></trkpt><trkpt lat="44.907496994176796" lon="9.879079103221049"><ele>100.99999999999999</ele><time>2026-03-22T10:38:15.999Z</time></trkpt><trkpt lat="44.907580549176856" lon="9.879081568080261"><ele>101.0</ele><time>2026-03-22T10:38:16.999Z</time></trkpt><trkpt lat="44.90766357964657" lon="9.87908899155996"><ele>100.33333333333333</ele><time>2026-03-22T10:38:17.999Z</time></trkpt><trkpt lat="44.90774765832948" lon="9.879094716603944"><ele>99.66666666666666</ele><time>2026-03-22T10:38:18.999Z</time></trkpt><trkpt lat="44.907833438946554" lon="9.879102712627178"><ele>99.0</ele><time>2026-03-22T10:38:19.999Z</time></trkpt><trkpt lat="44.90791774730929" lon="9.879109301230248"><ele>98.33333333333334</ele><time>2026-03-22T10:38:20.999Z</time></trkpt><trkpt lat="44.90800720414365" lon="9.879115302465257"><ele>97.66666666666667</ele><time>2026-03-22T10:38:21.999Z</time></trkpt><trkpt lat="44.908092052086765" lon="9.87912120239789"><ele>97.0</ele><time>2026-03-22T10:38:22.999Z</time></trkpt><trkpt lat="44.9081793447687" lon="9.879131441056556"><ele>97.00000000000001</ele><time>2026-03-22T10:38:23.999Z</time></trkpt><trkpt lat="44.90826559741539" lon="9.879135813259925"><ele>97.0</ele><time>2026-03-22T10:38:24.999Z</time></trkpt><trkpt lat="44.9083523155026" lon="9.87913864799805"><ele>97.0</ele><time>2026-03-22T10:38:25.999Z</time></trkpt><trkpt lat="44.908437877305" lon="9.879146521616745"><ele>97.0</ele><time>2026-03-22T10:38:26.999Z</time></trkpt><trkpt lat="44.90852360485329" lon="9.879152331366427"><ele>97.00000000000001</ele><time>2026-03-22T10:38:27.999Z</time></trkpt><trkpt lat="44.90860943563791" lon="9.879161683469311"><ele>97.0</ele><time>2026-03-22T10:38:28.999Z</time></trkpt><trkpt lat="44.90869356610748" lon="9.879170357937966"><ele>97.00000000000001</ele><time>2026-03-22T10:38:29.999Z</time></trkpt><trkpt lat="44.90878182500767" lon="9.87917852824054"><ele>97.0</ele><time>2026-03-22T10:38:30.999Z</time></trkpt><trkpt lat="44.90886452906708" lon="9.879185355836109"><ele>97.0</ele><time>2026-03-22T10:38:31.999Z</time></trkpt><trkpt lat="44.90895018231183" lon="9.879192566382592"><ele>97.0</ele><time>2026-03-22T10:38:32.999Z</time></trkpt><trkpt lat="44.9090354972282" lon="9.879198995251553"><ele>97.00000000000001</ele><time>2026-03-22T10:38:33.999Z</time></trkpt><trkpt lat="44.909121428093286" lon="9.879206537819636"><ele>97.0</ele><time>2026-03-22T10:38:34.999Z</time></trkpt><trkpt lat="44.90920511806169" lon="9.87921489094068"><ele>97.00000000000001</ele><time>2026-03-22T10:38:35.999Z</time></trkpt><trkpt lat="44.90929246890929" lon="9.879221139738844"><ele>97.0</ele><time>2026-03-22T10:38:36.999Z</time></trkpt><trkpt lat="44.90937513616002" lon="9.879227129948214"><ele>97.0</ele><time>2026-03-22T10:38:37.999Z</time></trkpt><trkpt lat="44.909460884344114" lon="9.879232089538613"><ele>97.0</ele><time>2026-03-22T10:38:38.999Z</time></trkpt><trkpt lat="44.909543136021156" lon="9.879238339446879"><ele>97.00000000000001</ele><time>2026-03-22T10:38:39.999Z</time></trkpt><trkpt lat="44.90962769333969" lon="9.879244312919235"><ele>97.0</ele><time>2026-03-22T10:38:40.999Z</time></trkpt><trkpt lat="44.90971181030697" lon="9.879248081420453"><ele>97.00000000000001</ele><time>2026-03-22T10:38:41.999Z</time></trkpt><trkpt lat="44.90979804063448" lon="9.8792524394372"><ele>97.0</ele><time>2026-03-22T10:38:42.999Z</time></trkpt><trkpt lat="44.90988034743982" lon="9.879256659699768"><ele>97.0</ele><time>2026-03-22T10:38:43.999Z</time></trkpt><trkpt lat="44.909967195682235" lon="9.879259052417218"><ele>97.0</ele><time>2026-03-22T10:38:44.999Z</time></trkpt><trkpt lat="44.910051332790374" lon="9.879263368957654"><ele>97.00000000000001</ele><time>2026-03-22T10:38:45.999Z</time></trkpt><trkpt lat="44.910137026075226" lon="9.879264748278098"><ele>97.0</ele><time>2026-03-22T10:38:46.999Z</time></trkpt><trkpt lat="44.9102232483847" lon="9.879266075159443"><ele>97.16666666666667</ele><time>2026-03-22T10:38:47.999Z</time></trkpt><trkpt lat="44.91031274436773" lon="9.879268831407643"><ele>97.33333333333334</ele><time>2026-03-22T10:38:48.999Z</time></trkpt><trkpt lat="44.91039664731187" lon="9.879271155419955"><ele>97.5</ele><time>2026-03-22T10:38:49.999Z</time></trkpt><trkpt lat="44.91048396000837" lon="9.879268846651893"><ele>97.66666666666666</ele><time>2026-03-22T10:38:50.999Z</time></trkpt><trkpt lat="44.91057000297868" lon="9.879272496469452"><ele>97.83333333333333</ele><time>2026-03-22T10:38:51.999Z</time></trkpt><trkpt lat="44.91065780932275" lon="9.879273473492896"><ele>98.0</ele><time>2026-03-22T10:38:52.999Z</time></trkpt><trkpt lat="44.910744726528684" lon="9.879274865230471"><ele>97.99999999999999</ele><time>2026-03-22T10:38:53.999Z</time></trkpt><trkpt lat="44.91083065203575" lon="9.879277917160216"><ele>98.0</ele><time>2026-03-22T10:38:54.999Z</time></trkpt><trkpt lat="44.91091735666698" lon="9.879278828555034"><ele>98.0</ele><time>2026-03-22T10:38:55.999Z</time></trkpt><trkpt lat="44.91100429457715" lon="9.879280843560501"><ele>98.0</ele><time>2026-03-22T10:38:56.999Z</time></trkpt><trkpt lat="44.91109191025642" lon="9.879283404552275"><ele>97.99999999999999</ele><time>2026-03-22T10:38:57.999Z</time></trkpt><trkpt lat="44.911177443622734" lon="9.879283099723668"><ele>98.0</ele><time>2026-03-22T10:38:58.999Z</time></trkpt><trkpt lat="44.91126441054996" lon="9.87928529447509"><ele>97.33333333333333</ele><time>2026-03-22T10:38:59.999Z</time></trkpt><trkpt lat="44.91135190186645" lon="9.879286257102438"><ele>96.66666666666666</ele><time>2026-03-22T10:39:00.999Z</time></trkpt><trkpt lat="44.911439322694996" lon="9.87928878041017"><ele>96.0</ele><time>2026-03-22T10:39:01.999Z</time></trkpt><trkpt lat="44.91152649105828" lon="9.879288468463713"><ele>95.33333333333333</ele><time>2026-03-22T10:39:02.999Z</time></trkpt><trkpt lat="44.91161136496945" lon="9.879286295816465"><ele>94.66666666666666</ele><time>2026-03-22T10:39:03.999Z</time></trkpt><trkpt lat="44.91169888766683" lon="9.879290071552068"><ele>94.0</ele><time>2026-03-22T10:39:04.999Z</time></trkpt><trkpt lat="44.91178549973658" lon="9.87929464152487"><ele>94.0</ele><time>2026-03-22T10:39:05.999Z</time></trkpt><trkpt lat="44.911870882678045" lon="9.879298597475497"><ele>94.0</ele><time>2026-03-22T10:39:06.999Z</time></trkpt><trkpt lat="44.91195738390325" lon="9.879296375011371"><ele>94.0</ele><time>2026-03-22T10:39:07.999Z</time></trkpt><trkpt lat="44.912043784652354" lon="9.879297804759679"><ele>94.0</ele><time>2026-03-22T10:39:08.998Z</time></trkpt><trkpt lat="44.91213049949126" lon="9.879297377080103"><ele>94.0</ele><time>2026-03-22T10:39:09.998Z</time></trkpt><trkpt lat="44.912218588290216" lon="9.879301219293033"><ele>94.0</ele><time>2026-03-22T10:39:10.998Z</time></trkpt><trkpt lat="44.912305597771685" lon="9.879300833159537"><ele>94.0</ele><time>2026-03-22T10:39:11.998Z</time></trkpt><trkpt lat="44.91239178153634" lon="9.879302551933202"><ele>94.0</ele><time>2026-03-22T10:39:12.998Z</time></trkpt><trkpt lat="44.91248110988459" lon="9.879300278395958"><ele>94.0</ele><time>2026-03-22T10:39:13.998Z</time></trkpt><trkpt lat="44.91256941628917" lon="9.87930275347883"><ele>94.0</ele><time>2026-03-22T10:39:14.998Z</time></trkpt><trkpt lat="44.91265744222213" lon="9.879301379979744"><ele>94.0</ele><time>2026-03-22T10:39:15.998Z</time></trkpt><trkpt lat="44.91274526867712" lon="9.879302837712766"><ele>94.0</ele><time>2026-03-22T10:39:16.998Z</time></trkpt><trkpt lat="44.9128328496153" lon="9.879303992241464"><ele>93.83333333333333</ele><time>2026-03-22T10:39:17.998Z</time></trkpt><trkpt lat="44.912921668025376" lon="9.879306946902208"><ele>93.66666666666666</ele><time>2026-03-22T10:39:18.998Z</time></trkpt><trkpt lat="44.913012842857064" lon="9.87930749018091"><ele>93.5</ele><time>2026-03-22T10:39:19.998Z</time></trkpt><trkpt lat="44.91310174757885" lon="9.879306383100682"><ele>93.33333333333333</ele><time>2026-03-22T10:39:20.998Z</time></trkpt><trkpt lat="44.913191188065326" lon="9.879308138163186"><ele>93.16666666666667</ele><time>2026-03-22T10:39:21.998Z</time></trkpt><trkpt lat="44.91328100014498" lon="9.879309019159246"><ele>93.0</ele><time>2026-03-22T10:39:22.998Z</time></trkpt><trkpt lat="44.913370319618544" lon="9.879309505331396"><ele>93.0</ele><time>2026-03-22T10:39:23.998Z</time></trkpt><trkpt lat="44.91346253940878" lon="9.879311705712242"><ele>93.0</ele><time>2026-03-22T10:39:24.998Z</time></trkpt><trkpt lat="44.91355363221606" lon="9.879312561866847"><ele>93.0</ele><time>2026-03-22T10:39:25.998Z</time></trkpt><trkpt lat="44.91364471590246" lon="9.879310957620635"><ele>93.0</ele><time>2026-03-22T10:39:26.998Z</time></trkpt><trkpt lat="44.913734685873166" lon="9.879312437682703"><ele>93.0</ele><time>2026-03-22T10:39:27.998Z</time></trkpt><trkpt lat="44.91382479211616" lon="9.879308957281483"><ele>93.0</ele><time>2026-03-22T10:39:28.998Z</time></trkpt><trkpt lat="44.913915841698106" lon="9.879311789071393"><ele>93.0</ele><time>2026-03-22T10:39:29.998Z</time></trkpt><trkpt lat="44.91400877219842" lon="9.879310168193872"><ele>93.0</ele><time>2026-03-22T10:39:30.998Z</time></trkpt><trkpt lat="44.91409814034417" lon="9.879313031834062"><ele>93.0</ele><time>2026-03-22T10:39:31.998Z</time></trkpt><trkpt lat="44.91418921947122" lon="9.879314887307228"><ele>93.0</ele><time>2026-03-22T10:39:33Z</time></trkpt><trkpt lat="44.91428050654169" lon="9.879316439293586"><ele>93.0</ele><time>2026-03-22T10:39:34Z</time></trkpt><trkpt lat="44.914370197115296" lon="9.879318535477873"><ele>93.0</ele><time>2026-03-22T10:39:35Z</time></trkpt><trkpt lat="44.91445996624147" lon="9.879322126809727"><ele>93.0</ele><time>2026-03-22T10:39:36Z</time></trkpt><trkpt lat="44.91454862830558" lon="9.879323284011038"><ele>93.0</ele><time>2026-03-22T10:39:37Z</time></trkpt><trkpt lat="44.914637489758896" lon="9.879324641572483"><ele>93.0</ele><time>2026-03-22T10:39:38Z</time></trkpt><trkpt lat="44.91472703723891" lon="9.879325607606011"><ele>93.0</ele><time>2026-03-22T10:39:39Z</time></trkpt><trkpt lat="44.91481494292264" lon="9.879324813540515"><ele>93.0</ele><time>2026-03-22T10:39:40Z</time></trkpt><trkpt lat="44.91490561542471" lon="9.879325705958449"><ele>93.0</ele><time>2026-03-22T10:39:41Z</time></trkpt><trkpt lat="44.91499452262056" lon="9.87932526096825"><ele>93.0</ele><time>2026-03-22T10:39:42Z</time></trkpt><trkpt lat="44.915085003721174" lon="9.879328907278977"><ele>93.0</ele><time>2026-03-22T10:39:43Z</time></trkpt><trkpt lat="44.91517236238704" lon="9.879328043949727"><ele>93.0</ele><time>2026-03-22T10:39:44Z</time></trkpt><trkpt lat="44.915263671082926" lon="9.87933125021193"><ele>93.0</ele><time>2026-03-22T10:39:45Z</time></trkpt><trkpt lat="44.91535304341895" lon="9.879330466711405"><ele>93.16666666666667</ele><time>2026-03-22T10:39:46Z</time></trkpt><trkpt lat="44.915441834926106" lon="9.879330085951354"><ele>93.33333333333333</ele><time>2026-03-22T10:39:47Z</time></trkpt><trkpt lat="44.91553258001079" lon="9.879331641595892"><ele>93.5</ele><time>2026-03-22T10:39:48Z</time></trkpt><trkpt lat="44.915621258917945" lon="9.87933099585802"><ele>93.66666666666666</ele><time>2026-03-22T10:39:49Z</time></trkpt><trkpt lat="44.91571274868333" lon="9.87933469532823"><ele>93.83333333333333</ele><time>2026-03-22T10:39:50Z</time></trkpt><trkpt lat="44.91580002739969" lon="9.879337232907371"><ele>94.0</ele><time>2026-03-22T10:39:51Z</time></trkpt><trkpt lat="44.9158893648357" lon="9.879337530103419"><ele>93.66666666666666</ele><time>2026-03-22T10:39:52Z</time></trkpt><trkpt lat="44.91597927363229" lon="9.879338973832366"><ele>93.33333333333333</ele><time>2026-03-22T10:39:53Z</time></trkpt><trkpt lat="44.91606867743968" lon="9.87933924975736"><ele>93.0</ele><time>2026-03-22T10:39:54Z</time></trkpt><trkpt lat="44.916158752711105" lon="9.879341828582696"><ele>92.66666666666667</ele><time>2026-03-22T10:39:55Z</time></trkpt><trkpt lat="44.916248850895116" lon="9.879344278810544"><ele>92.33333333333334</ele><time>2026-03-22T10:39:56Z</time></trkpt><trkpt lat="44.91633801643053" lon="9.879345617759434"><ele>92.0</ele><time>2026-03-22T10:39:57Z</time></trkpt><trkpt lat="44.916427454051195" lon="9.879347773421467"><ele>92.0</ele><time>2026-03-22T10:39:58Z</time></trkpt><trkpt lat="44.91651683110953" lon="9.87934971766398"><ele>92.0</ele><time>2026-03-22T10:39:59Z</time></trkpt><trkpt lat="44.91660250043868" lon="9.879355971573197"><ele>92.0</ele><time>2026-03-22T10:40:00Z</time></trkpt><trkpt lat="44.91669625734171" lon="9.879366772222324"><ele>92.0</ele><time>2026-03-22T10:40:01Z</time></trkpt><trkpt lat="44.916778832702455" lon="9.879384317229663"><ele>92.0</ele><time>2026-03-22T10:40:02Z</time></trkpt><trkpt lat="44.91686373606681" lon="9.879442034109426"><ele>92.0</ele><time>2026-03-22T10:40:03Z</time></trkpt><trkpt lat="44.916936630813396" lon="9.8795112792877"><ele>92.0</ele><time>2026-03-22T10:40:04Z</time></trkpt><trkpt lat="44.917005146891924" lon="9.879591858935854"><ele>92.0</ele><time>2026-03-22T10:40:05Z</time></trkpt><trkpt lat="44.917070620551975" lon="9.879670699823064"><ele>92.0</ele><time>2026-03-22T10:40:06Z</time></trkpt><trkpt lat="44.91713764873956" lon="9.87974624541953"><ele>92.0</ele><time>2026-03-22T10:40:07Z</time></trkpt><trkpt lat="44.91720518154803" lon="9.879824170974274"><ele>92.0</ele><time>2026-03-22T10:40:08Z</time></trkpt><trkpt lat="44.917268957186" lon="9.879901778279798"><ele>92.0</ele><time>2026-03-22T10:40:09Z</time></trkpt><trkpt lat="44.91733536495107" lon="9.879979734784634"><ele>92.0</ele><time>2026-03-22T10:40:10Z</time></trkpt><trkpt lat="44.91740196453429" lon="9.880054306326599"><ele>92.0</ele><time>2026-03-22T10:40:11Z</time></trkpt><trkpt lat="44.917467587940244" lon="9.880132079697276"><ele>92.0</ele><time>2026-03-22T10:40:12Z</time></trkpt><trkpt lat="44.917532937839695" lon="9.880209372990905"><ele>92.0</ele><time>2026-03-22T10:40:13Z</time></trkpt><trkpt lat="44.9175978083098" lon="9.880286081734585"><ele>92.0</ele><time>2026-03-22T10:40:14Z</time></trkpt><trkpt lat="44.91766300410449" lon="9.880360482705179"><ele>92.0</ele><time>2026-03-22T10:40:15Z</time></trkpt><trkpt lat="44.91773021222515" lon="9.880437235403555"><ele>92.16666666666667</ele><time>2026-03-22T10:40:16Z</time></trkpt><trkpt lat="44.91779415768377" lon="9.880513815317268"><ele>92.33333333333334</ele><time>2026-03-22T10:40:17Z</time></trkpt><trkpt lat="44.917858990108904" lon="9.880591446818702"><ele>92.5</ele><time>2026-03-22T10:40:18Z</time></trkpt><trkpt lat="44.91792436643251" lon="9.88066680679569"><ele>92.66666666666667</ele><time>2026-03-22T10:40:19Z</time></trkpt><trkpt lat="44.91799222658518" lon="9.880741387065529"><ele>92.83333333333333</ele><time>2026-03-22T10:40:20Z</time></trkpt><trkpt lat="44.9180579068989" lon="9.880817865101504"><ele>93.0</ele><time>2026-03-22T10:40:20.999Z</time></trkpt><trkpt lat="44.918123389074985" lon="9.880894308912552"><ele>93.0</ele><time>2026-03-22T10:40:21.999Z</time></trkpt><trkpt lat="44.9181872685097" lon="9.880971151989177"><ele>93.0</ele><time>2026-03-22T10:40:22.999Z</time></trkpt><trkpt lat="44.91825318044339" lon="9.881048712920306"><ele>93.0</ele><time>2026-03-22T10:40:23.999Z</time></trkpt><trkpt lat="44.91831739324759" lon="9.8811241763955"><ele>93.0</ele><time>2026-03-22T10:40:24.999Z</time></trkpt><trkpt lat="44.9183835346078" lon="9.881200659163401"><ele>93.0</ele><time>2026-03-22T10:40:25.999Z</time></trkpt><trkpt lat="44.91844877120816" lon="9.881274509895311"><ele>93.0</ele><time>2026-03-22T10:40:26.999Z</time></trkpt><trkpt lat="44.91851439065834" lon="9.88134989405348"><ele>92.5</ele><time>2026-03-22T10:40:27.999Z</time></trkpt><trkpt lat="44.9185847139779" lon="9.881424671681986"><ele>92.0</ele><time>2026-03-22T10:40:28.999Z</time></trkpt><trkpt lat="44.91864893316478" lon="9.881500754492887"><ele>91.5</ele><time>2026-03-22T10:40:29.999Z</time></trkpt><trkpt lat="44.91871690075807" lon="9.881577246297457"><ele>91.0</ele><time>2026-03-22T10:40:30.999Z</time></trkpt><trkpt lat="44.91878346159859" lon="9.881655620236584"><ele>90.5</ele><time>2026-03-22T10:40:31.999Z</time></trkpt><trkpt lat="44.91884968107926" lon="9.88172846468394"><ele>90.0</ele><time>2026-03-22T10:40:32.999Z</time></trkpt><trkpt lat="44.91891721710002" lon="9.881799794822872"><ele>89.66666666666667</ele><time>2026-03-22T10:40:33.999Z</time></trkpt><trkpt lat="44.91898507613008" lon="9.88187581861879"><ele>89.33333333333333</ele><time>2026-03-22T10:40:34.999Z</time></trkpt><trkpt lat="44.91905222413851" lon="9.88194982173164"><ele>89.0</ele><time>2026-03-22T10:40:35.999Z</time></trkpt><trkpt lat="44.91911911665275" lon="9.88202528490654"><ele>88.66666666666666</ele><time>2026-03-22T10:40:36.999Z</time></trkpt><trkpt lat="44.91918254345209" lon="9.882097435401011"><ele>88.33333333333333</ele><time>2026-03-22T10:40:37.999Z</time></trkpt><trkpt lat="44.91924573737008" lon="9.882174407007616"><ele>88.0</ele><time>2026-03-22T10:40:38.999Z</time></trkpt><trkpt lat="44.919308772376695" lon="9.882246630929458"><ele>88.0</ele><time>2026-03-22T10:40:39.999Z</time></trkpt><trkpt lat="44.91937101572309" lon="9.882320446729766"><ele>88.0</ele><time>2026-03-22T10:40:40.999Z</time></trkpt><trkpt lat="44.919428838821126" lon="9.88240455261733"><ele>88.0</ele><time>2026-03-22T10:40:41.999Z</time></trkpt><trkpt lat="44.91948823994527" lon="9.882479390757895"><ele>88.0</ele><time>2026-03-22T10:40:42.999Z</time></trkpt><trkpt lat="44.919549363276396" lon="9.882554774995652"><ele>88.0</ele><time>2026-03-22T10:40:43.999Z</time></trkpt><trkpt lat="44.91960516463061" lon="9.882630925945191"><ele>88.0</ele><time>2026-03-22T10:40:44.999Z</time></trkpt><trkpt lat="44.91965897375494" lon="9.882704808030915"><ele>88.16666666666666</ele><time>2026-03-22T10:40:45.999Z</time></trkpt><trkpt lat="44.91971494975614" lon="9.882772522203496"><ele>88.33333333333333</ele><time>2026-03-22T10:40:46.999Z</time></trkpt><trkpt lat="44.91977070898761" lon="9.882845651229486"><ele>88.5</ele><time>2026-03-22T10:40:47.999Z</time></trkpt><trkpt lat="44.919832006174474" lon="9.882918276824826"><ele>88.66666666666667</ele><time>2026-03-22T10:40:48.999Z</time></trkpt><trkpt lat="44.91988968204927" lon="9.882995588027143"><ele>88.83333333333334</ele><time>2026-03-22T10:40:49.999Z</time></trkpt><trkpt lat="44.9199476743332" lon="9.883074149097174"><ele>89.0</ele><time>2026-03-22T10:40:50.999Z</time></trkpt><trkpt lat="44.9200038422448" lon="9.883155606029742"><ele>89.0</ele><time>2026-03-22T10:40:51.999Z</time></trkpt><trkpt lat="44.92006163194244" lon="9.883233880687438"><ele>89.0</ele><time>2026-03-22T10:40:52.999Z</time></trkpt><trkpt lat="44.920118786495365" lon="9.88331364127603"><ele>89.0</ele><time>2026-03-22T10:40:53.999Z</time></trkpt><trkpt lat="44.92017497551871" lon="9.883394286156772"><ele>89.0</ele><time>2026-03-22T10:40:54.999Z</time></trkpt><trkpt lat="44.92023219709856" lon="9.883474424433524"><ele>89.0</ele><time>2026-03-22T10:40:55.999Z</time></trkpt><trkpt lat="44.920290042282886" lon="9.883553702493604"><ele>89.0</ele><time>2026-03-22T10:40:56.999Z</time></trkpt><trkpt lat="44.92034785464178" lon="9.88363395107172"><ele>89.0</ele><time>2026-03-22T10:40:57.999Z</time></trkpt><trkpt lat="44.920403820895935" lon="9.88371501841272"><ele>89.0</ele><time>2026-03-22T10:40:58.999Z</time></trkpt><trkpt lat="44.920461861416044" lon="9.883797631065523"><ele>89.0</ele><time>2026-03-22T10:40:59.999Z</time></trkpt><trkpt lat="44.92051965700357" lon="9.883877750698321"><ele>89.0</ele><time>2026-03-22T10:41:00.999Z</time></trkpt><trkpt lat="44.92057745942219" lon="9.883959847062837"><ele>89.0</ele><time>2026-03-22T10:41:01.999Z</time></trkpt><trkpt lat="44.92063434819455" lon="9.884042052415163"><ele>89.0</ele><time>2026-03-22T10:41:02.999Z</time></trkpt><trkpt lat="44.920693260115094" lon="9.884126792608939"><ele>89.0</ele><time>2026-03-22T10:41:03.999Z</time></trkpt><trkpt lat="44.92075157330833" lon="9.884207925430996"><ele>89.0</ele><time>2026-03-22T10:41:04.999Z</time></trkpt><trkpt lat="44.920812004607036" lon="9.88429313382268"><ele>89.0</ele><time>2026-03-22T10:41:05.999Z</time></trkpt><trkpt lat="44.92087090108811" lon="9.884378067116025"><ele>89.0</ele><time>2026-03-22T10:41:06.999Z</time></trkpt><trkpt lat="44.92092979488139" lon="9.884466587309078"><ele>89.0</ele><time>2026-03-22T10:41:07.999Z</time></trkpt><trkpt lat="44.920990686016204" lon="9.884551583132554"><ele>89.0</ele><time>2026-03-22T10:41:08.999Z</time></trkpt><trkpt lat="44.92105163706117" lon="9.884639944669804"><ele>89.0</ele><time>2026-03-22T10:41:09.999Z</time></trkpt><trkpt lat="44.921112344889174" lon="9.884725113976218"><ele>89.0</ele><time>2026-03-22T10:41:10.999Z</time></trkpt><trkpt lat="44.92117302003375" lon="9.884810741779276"><ele>89.0</ele><time>2026-03-22T10:41:11.999Z</time></trkpt><trkpt lat="44.92123125057458" lon="9.884896128377028"><ele>89.0</ele><time>2026-03-22T10:41:12.999Z</time></trkpt><trkpt lat="44.921292558802335" lon="9.884980193719809"><ele>89.0</ele><time>2026-03-22T10:41:13.998Z</time></trkpt><trkpt lat="44.921351465459196" lon="9.885063702051522"><ele>89.0</ele><time>2026-03-22T10:41:14.998Z</time></trkpt><trkpt lat="44.921411566394454" lon="9.885146490150419"><ele>89.0</ele><time>2026-03-22T10:41:15.998Z</time></trkpt><trkpt lat="44.921471934806036" lon="9.885228046102965"><ele>89.0</ele><time>2026-03-22T10:41:16.998Z</time></trkpt><trkpt lat="44.92153386089535" lon="9.885308649793625"><ele>89.0</ele><time>2026-03-22T10:41:17.998Z</time></trkpt><trkpt lat="44.921595563640366" lon="9.88539113593452"><ele>89.0</ele><time>2026-03-22T10:41:18.998Z</time></trkpt><trkpt lat="44.92165522035212" lon="9.885471533333265"><ele>89.0</ele><time>2026-03-22T10:41:19.998Z</time></trkpt><trkpt lat="44.92170242821323" lon="9.885558496852914"><ele>89.0</ele><time>2026-03-22T10:41:20.998Z</time></trkpt><trkpt lat="44.9217300393734" lon="9.885662543699857"><ele>89.0</ele><time>2026-03-22T10:41:21.998Z</time></trkpt><trkpt lat="44.921745951781055" lon="9.885769938451498"><ele>89.0</ele><time>2026-03-22T10:41:22.998Z</time></trkpt><trkpt lat="44.921769319755754" lon="9.885873192432493"><ele>89.0</ele><time>2026-03-22T10:41:23.998Z</time></trkpt><trkpt lat="44.9218355761088" lon="9.885937880307772"><ele>89.0</ele><time>2026-03-22T10:41:24.998Z</time></trkpt><trkpt lat="44.92191844683625" lon="9.885955987811903"><ele>89.0</ele><time>2026-03-22T10:41:25.998Z</time></trkpt><trkpt lat="44.922000917989294" lon="9.885934804497241"><ele>89.0</ele><time>2026-03-22T10:41:26.998Z</time></trkpt><trkpt lat="44.92207736509459" lon="9.885893306960138"><ele>89.0</ele><time>2026-03-22T10:41:27.998Z</time></trkpt><trkpt lat="44.92215452092367" lon="9.885872552203503"><ele>89.0</ele><time>2026-03-22T10:41:28.998Z</time></trkpt><trkpt lat="44.9222358613449" lon="9.885889875351728"><ele>89.0</ele><time>2026-03-22T10:41:29.998Z</time></trkpt><trkpt lat="44.922316561788136" lon="9.88591790014047"><ele>89.0</ele><time>2026-03-22T10:41:30.998Z</time></trkpt><trkpt lat="44.92239929600307" lon="9.88594529083544"><ele>89.0</ele><time>2026-03-22T10:41:31.998Z</time></trkpt><trkpt lat="44.922480448200936" lon="9.885974097981475"><ele>89.0</ele><time>2026-03-22T10:41:32.998Z</time></trkpt><trkpt lat="44.922561748164235" lon="9.88600595607435"><ele>88.66666666666667</ele><time>2026-03-22T10:41:33.998Z</time></trkpt><trkpt lat="44.92264406814944" lon="9.886036250601027"><ele>88.33333333333334</ele><time>2026-03-22T10:41:34.998Z</time></trkpt><trkpt lat="44.922725386167905" lon="9.886067311448652"><ele>88.0</ele><time>2026-03-22T10:41:35.998Z</time></trkpt><trkpt lat="44.9228066394008" lon="9.886099120082292"><ele>87.66666666666667</ele><time>2026-03-22T10:41:36.998Z</time></trkpt><trkpt lat="44.922889330577306" lon="9.88612992256262"><ele>87.33333333333333</ele><time>2026-03-22T10:41:37.998Z</time></trkpt><trkpt lat="44.922972268764795" lon="9.886161919663333"><ele>87.0</ele><time>2026-03-22T10:41:39Z</time></trkpt><trkpt lat="44.923055830343195" lon="9.886194433245326"><ele>87.0</ele><time>2026-03-22T10:41:40Z</time></trkpt><trkpt lat="44.92313945251955" lon="9.886226510669575"><ele>87.0</ele><time>2026-03-22T10:41:41Z</time></trkpt><trkpt lat="44.92322319003719" lon="9.886257552097263"><ele>87.0</ele><time>2026-03-22T10:41:42Z</time></trkpt><trkpt lat="44.923306280843846" lon="9.88628749703889"><ele>87.0</ele><time>2026-03-22T10:41:43Z</time></trkpt><trkpt lat="44.92338935708179" lon="9.886316415687487"><ele>87.0</ele><time>2026-03-22T10:41:44Z</time></trkpt><trkpt lat="44.923471867938645" lon="9.886345216239583"><ele>87.0</ele><time>2026-03-22T10:41:45Z</time></trkpt><trkpt lat="44.923555760553526" lon="9.886375031148507"><ele>87.0</ele><time>2026-03-22T10:41:46Z</time></trkpt><trkpt lat="44.923638063126745" lon="9.886401307506311"><ele>87.0</ele><time>2026-03-22T10:41:47Z</time></trkpt><trkpt lat="44.92372138187526" lon="9.886432210488406"><ele>87.0</ele><time>2026-03-22T10:41:48Z</time></trkpt><trkpt lat="44.92380435224395" lon="9.886458111028338"><ele>87.0</ele><time>2026-03-22T10:41:49Z</time></trkpt><trkpt lat="44.92388908248562" lon="9.886481700575276"><ele>87.0</ele><time>2026-03-22T10:41:50Z</time></trkpt><trkpt lat="44.92397293923947" lon="9.88650059963045"><ele>87.0</ele><time>2026-03-22T10:41:51Z</time></trkpt><trkpt lat="44.92405769283644" lon="9.886523585132652"><ele>87.0</ele><time>2026-03-22T10:41:52Z</time></trkpt><trkpt lat="44.924144112347406" lon="9.886541708520504"><ele>87.0</ele><time>2026-03-22T10:41:53Z</time></trkpt><trkpt lat="44.92423066140362" lon="9.886562669215168"><ele>87.0</ele><time>2026-03-22T10:41:54Z</time></trkpt><trkpt lat="44.9243172328355" lon="9.886578103982394"><ele>87.0</ele><time>2026-03-22T10:41:55Z</time></trkpt><trkpt lat="44.92440379442792" lon="9.8865925787685"><ele>87.0</ele><time>2026-03-22T10:41:56Z</time></trkpt><trkpt lat="44.924490321478224" lon="9.886606676525323"><ele>87.0</ele><time>2026-03-22T10:41:57Z</time></trkpt><trkpt lat="44.92457663806368" lon="9.886615710511876"><ele>86.83333333333333</ele><time>2026-03-22T10:41:58Z</time></trkpt><trkpt lat="44.92466436302595" lon="9.886623135865985"><ele>86.66666666666667</ele><time>2026-03-22T10:41:59Z</time></trkpt><trkpt lat="44.92474956094763" lon="9.886629390348844"><ele>86.5</ele><time>2026-03-22T10:42:00Z</time></trkpt><trkpt lat="44.92483670807357" lon="9.886635967689948"><ele>86.33333333333334</ele><time>2026-03-22T10:42:01Z</time></trkpt><trkpt lat="44.92492292219053" lon="9.886638057531087"><ele>86.16666666666667</ele><time>2026-03-22T10:42:02Z</time></trkpt><trkpt lat="44.92501251063602" lon="9.88664293515261"><ele>86.0</ele><time>2026-03-22T10:42:03Z</time></trkpt><trkpt lat="44.92509959826501" lon="9.88664686198673"><ele>86.0</ele><time>2026-03-22T10:42:04Z</time></trkpt><trkpt lat="44.92518656451738" lon="9.886653843668528"><ele>86.0</ele><time>2026-03-22T10:42:05Z</time></trkpt><trkpt lat="44.92527356751378" lon="9.886659765091208"><ele>86.0</ele><time>2026-03-22T10:42:06Z</time></trkpt><trkpt lat="44.925359670607286" lon="9.88666692030385"><ele>86.0</ele><time>2026-03-22T10:42:07Z</time></trkpt><trkpt lat="44.92544832618684" lon="9.88667412030062"><ele>86.0</ele><time>2026-03-22T10:42:08Z</time></trkpt><trkpt lat="44.92553569524183" lon="9.886675763868752"><ele>86.0</ele><time>2026-03-22T10:42:09Z</time></trkpt><trkpt lat="44.925623519505876" lon="9.88668027557278"><ele>86.0</ele><time>2026-03-22T10:42:10Z</time></trkpt><trkpt lat="44.92570953531433" lon="9.886683801829303"><ele>86.0</ele><time>2026-03-22T10:42:11Z</time></trkpt><trkpt lat="44.92579849811722" lon="9.88668820256161"><ele>86.0</ele><time>2026-03-22T10:42:12Z</time></trkpt><trkpt lat="44.9258856000911" lon="9.886690894162905"><ele>86.0</ele><time>2026-03-22T10:42:13Z</time></trkpt><trkpt lat="44.92597510455069" lon="9.886694684585045"><ele>86.0</ele><time>2026-03-22T10:42:14Z</time></trkpt><trkpt lat="44.92606034849056" lon="9.886702318538465"><ele>86.0</ele><time>2026-03-22T10:42:15Z</time></trkpt><trkpt lat="44.92614991567019" lon="9.886705388775503"><ele>85.83333333333334</ele><time>2026-03-22T10:42:16Z</time></trkpt><trkpt lat="44.92623994086901" lon="9.88670934964953"><ele>85.66666666666667</ele><time>2026-03-22T10:42:17Z</time></trkpt><trkpt lat="44.926330610681894" lon="9.88671203945139"><ele>85.5</ele><time>2026-03-22T10:42:18Z</time></trkpt><trkpt lat="44.92641832326605" lon="9.886715009168489"><ele>85.33333333333333</ele><time>2026-03-22T10:42:19Z</time></trkpt><trkpt lat="44.92650889415961" lon="9.886723157591076"><ele>85.16666666666666</ele><time>2026-03-22T10:42:20Z</time></trkpt><trkpt lat="44.92659727136208" lon="9.886724754800865"><ele>85.0</ele><time>2026-03-22T10:42:21Z</time></trkpt><trkpt lat="44.92668719266981" lon="9.886729042967945"><ele>84.83333333333333</ele><time>2026-03-22T10:42:22Z</time></trkpt><trkpt lat="44.92677580560174" lon="9.886732931370137"><ele>84.66666666666666</ele><time>2026-03-22T10:42:23Z</time></trkpt><trkpt lat="44.926865492246854" lon="9.886742066713138"><ele>84.5</ele><time>2026-03-22T10:42:24Z</time></trkpt><trkpt lat="44.92695430851207" lon="9.886750554436079"><ele>84.33333333333333</ele><time>2026-03-22T10:42:24.999Z</time></trkpt><trkpt lat="44.92704316677518" lon="9.886765099065434"><ele>84.16666666666667</ele><time>2026-03-22T10:42:25.999Z</time></trkpt><trkpt lat="44.927133546414325" lon="9.886781751855626"><ele>84.0</ele><time>2026-03-22T10:42:26.999Z</time></trkpt><trkpt lat="44.927222686203805" lon="9.886806873439932"><ele>84.0</ele><time>2026-03-22T10:42:27.999Z</time></trkpt><trkpt lat="44.927310346582175" lon="9.886839350115224"><ele>84.0</ele><time>2026-03-22T10:42:28.999Z</time></trkpt><trkpt lat="44.92740091079304" lon="9.886871929304872"><ele>84.0</ele><time>2026-03-22T10:42:29.999Z</time></trkpt><trkpt lat="44.92748659323696" lon="9.886911777521567"><ele>84.0</ele><time>2026-03-22T10:42:30.999Z</time></trkpt><trkpt lat="44.9275740260482" lon="9.886951552040298"><ele>84.0</ele><time>2026-03-22T10:42:31.999Z</time></trkpt><trkpt lat="44.92765777046553" lon="9.887001736812035"><ele>83.6</ele><time>2026-03-22T10:42:32.999Z</time></trkpt><trkpt lat="44.92774142089411" lon="9.887061080265443"><ele>83.2</ele><time>2026-03-22T10:42:33.999Z</time></trkpt><trkpt lat="44.927826077097905" lon="9.887121848454273"><ele>82.8</ele><time>2026-03-22T10:42:34.999Z</time></trkpt><trkpt lat="44.92790719766086" lon="9.887183666993774"><ele>82.39999999999999</ele><time>2026-03-22T10:42:35.999Z</time></trkpt><trkpt lat="44.92798751384383" lon="9.887249151750344"><ele>82.0</ele><time>2026-03-22T10:42:36.999Z</time></trkpt><trkpt lat="44.928067645752336" lon="9.887320018173195"><ele>82.0</ele><time>2026-03-22T10:42:37.999Z</time></trkpt><trkpt lat="44.92814221874029" lon="9.887397765189107"><ele>82.0</ele><time>2026-03-22T10:42:38.999Z</time></trkpt><trkpt lat="44.928214467450324" lon="9.887481421560322"><ele>82.0</ele><time>2026-03-22T10:42:39.999Z</time></trkpt><trkpt lat="44.92828407627213" lon="9.88756698963562"><ele>82.0</ele><time>2026-03-22T10:42:40.999Z</time></trkpt><trkpt lat="44.928351289619705" lon="9.887648615329368"><ele>82.0</ele><time>2026-03-22T10:42:41.999Z</time></trkpt><trkpt lat="44.92841721852426" lon="9.887736787364647"><ele>82.19999999999999</ele><time>2026-03-22T10:42:42.999Z</time></trkpt><trkpt lat="44.928481356158734" lon="9.887825646580142"><ele>82.4</ele><time>2026-03-22T10:42:43.999Z</time></trkpt><trkpt lat="44.92854750230395" lon="9.887909809117465"><ele>82.6</ele><time>2026-03-22T10:42:44.999Z</time></trkpt><trkpt lat="44.92861316386233" lon="9.887999288689377"><ele>82.80000000000001</ele><time>2026-03-22T10:42:45.999Z</time></trkpt><trkpt lat="44.92867479026201" lon="9.888070128984126"><ele>83.0</ele><time>2026-03-22T10:42:46.999Z</time></trkpt><trkpt lat="44.928726609545905" lon="9.888190930391522"><ele>83.0</ele><time>2026-03-22T10:42:47.999Z</time></trkpt><trkpt lat="44.92878162978248" lon="9.888296979100387"><ele>83.0</ele><time>2026-03-22T10:42:48.999Z</time></trkpt><trkpt lat="44.92884313291465" lon="9.88835899323725"><ele>83.0</ele><time>2026-03-22T10:42:49.999Z</time></trkpt><trkpt lat="44.928903000442425" lon="9.888416035512304"><ele>83.0</ele><time>2026-03-22T10:42:50.999Z</time></trkpt><trkpt lat="44.928971265401906" lon="9.88849987223039"><ele>83.0</ele><time>2026-03-22T10:42:51.999Z</time></trkpt><trkpt lat="44.929033935379216" lon="9.888582460847585"><ele>83.0</ele><time>2026-03-22T10:42:52.999Z</time></trkpt><trkpt lat="44.929098591064374" lon="9.888662584363994"><ele>82.83333333333334</ele><time>2026-03-22T10:42:53.999Z</time></trkpt><trkpt lat="44.92915668276829" lon="9.888740671721086"><ele>82.66666666666667</ele><time>2026-03-22T10:42:54.999Z</time></trkpt><trkpt lat="44.92921401403967" lon="9.888821561751042"><ele>82.5</ele><time>2026-03-22T10:42:55.999Z</time></trkpt><trkpt lat="44.92926984100291" lon="9.888900443821658"><ele>82.33333333333333</ele><time>2026-03-22T10:42:56.999Z</time></trkpt><trkpt lat="44.92932841073336" lon="9.88897965730431"><ele>82.16666666666666</ele><time>2026-03-22T10:42:57.999Z</time></trkpt><trkpt lat="44.929385910021615" lon="9.889051391813169"><ele>82.0</ele><time>2026-03-22T10:42:58.999Z</time></trkpt><trkpt lat="44.929445357729044" lon="9.88912402396215"><ele>81.83333333333333</ele><time>2026-03-22T10:42:59.999Z</time></trkpt><trkpt lat="44.929500257399035" lon="9.889198853734946"><ele>81.66666666666666</ele><time>2026-03-22T10:43:00.999Z</time></trkpt><trkpt lat="44.9295539835561" lon="9.889274497326214"><ele>81.5</ele><time>2026-03-22T10:43:01.999Z</time></trkpt><trkpt lat="44.9296091171119" lon="9.889350511303677"><ele>81.33333333333333</ele><time>2026-03-22T10:43:02.999Z</time></trkpt><trkpt lat="44.92966185315846" lon="9.889425222897849"><ele>81.16666666666667</ele><time>2026-03-22T10:43:03.999Z</time></trkpt><trkpt lat="44.92971662536462" lon="9.889499711849286"><ele>81.0</ele><time>2026-03-22T10:43:04.999Z</time></trkpt><trkpt lat="44.92977213341721" lon="9.889574872028202"><ele>81.0</ele><time>2026-03-22T10:43:05.999Z</time></trkpt><trkpt lat="44.929825611035554" lon="9.889652278265721"><ele>81.0</ele><time>2026-03-22T10:43:06.999Z</time></trkpt><trkpt lat="44.92988210046916" lon="9.889722554547491"><ele>81.0</ele><time>2026-03-22T10:43:07.999Z</time></trkpt><trkpt lat="44.92993409540749" lon="9.889796331159852"><ele>81.0</ele><time>2026-03-22T10:43:08.999Z</time></trkpt><trkpt lat="44.92998838088557" lon="9.889869052151788"><ele>81.0</ele><time>2026-03-22T10:43:09.999Z</time></trkpt><trkpt lat="44.930043040028366" lon="9.889941929741704"><ele>81.0</ele><time>2026-03-22T10:43:10.999Z</time></trkpt><trkpt lat="44.93009803736768" lon="9.890013731213292"><ele>81.0</ele><time>2026-03-22T10:43:11.999Z</time></trkpt><trkpt lat="44.93016300862355" lon="9.890074169491465"><ele>81.0</ele><time>2026-03-22T10:43:12.999Z</time></trkpt><trkpt lat="44.930236252372026" lon="9.890101649739744"><ele>81.0</ele><time>2026-03-22T10:43:13.999Z</time></trkpt><trkpt lat="44.93031402065866" lon="9.89011254886262"><ele>81.0</ele><time>2026-03-22T10:43:14.999Z</time></trkpt><trkpt lat="44.930390954100105" lon="9.89007572287959"><ele>81.0</ele><time>2026-03-22T10:43:15.999Z</time></trkpt><trkpt lat="44.93046025278001" lon="9.89002891746645"><ele>81.0</ele><time>2026-03-22T10:43:16.999Z</time></trkpt><trkpt lat="44.93051283766835" lon="9.88994032843115"><ele>81.0</ele><time>2026-03-22T10:43:17.998Z</time></trkpt><trkpt lat="44.930561020826" lon="9.889843891012207"><ele>81.0</ele><time>2026-03-22T10:43:18.998Z</time></trkpt><trkpt lat="44.93060423412424" lon="9.889751965543418"><ele>81.0</ele><time>2026-03-22T10:43:19.998Z</time></trkpt><trkpt lat="44.93066122845995" lon="9.889674522296891"><ele>81.0</ele><time>2026-03-22T10:43:20.998Z</time></trkpt><trkpt lat="44.93073720808231" lon="9.8896229983743"><ele>81.0</ele><time>2026-03-22T10:43:21.998Z</time></trkpt><trkpt lat="44.930822119636" lon="9.889600865628722"><ele>81.0</ele><time>2026-03-22T10:43:22.998Z</time></trkpt><trkpt lat="44.930906944229605" lon="9.889599315478549"><ele>81.0</ele><time>2026-03-22T10:43:23.998Z</time></trkpt><trkpt lat="44.93098867438071" lon="9.88962517945051"><ele>81.0</ele><time>2026-03-22T10:43:24.998Z</time></trkpt><trkpt lat="44.93106983101521" lon="9.88966659886763"><ele>81.0</ele><time>2026-03-22T10:43:25.998Z</time></trkpt><trkpt lat="44.93114780691076" lon="9.889716028065752"><ele>81.0</ele><time>2026-03-22T10:43:26.998Z</time></trkpt><trkpt lat="44.931224445126254" lon="9.889767285467192"><ele>81.0</ele><time>2026-03-22T10:43:27.998Z</time></trkpt><trkpt lat="44.93130182216651" lon="9.88980914090487"><ele>81.0</ele><time>2026-03-22T10:43:28.998Z</time></trkpt><trkpt lat="44.93138290715547" lon="9.88984386542839"><ele>81.0</ele><time>2026-03-22T10:43:29.998Z</time></trkpt><trkpt lat="44.931461265473764" lon="9.889889790424931"><ele>81.0</ele><time>2026-03-22T10:43:30.998Z</time></trkpt><trkpt lat="44.931536675676895" lon="9.889938574164189"><ele>81.0</ele><time>2026-03-22T10:43:31.998Z</time></trkpt><trkpt lat="44.93161104947691" lon="9.889989270174118"><ele>81.0</ele><time>2026-03-22T10:43:32.998Z</time></trkpt><trkpt lat="44.93168765347173" lon="9.890041670851822"><ele>81.0</ele><time>2026-03-22T10:43:33.998Z</time></trkpt><trkpt lat="44.93176666139804" lon="9.890092494482744"><ele>81.0</ele><time>2026-03-22T10:43:34.998Z</time></trkpt><trkpt lat="44.93184458629673" lon="9.890146987675546"><ele>80.83333333333333</ele><time>2026-03-22T10:43:35.998Z</time></trkpt><trkpt lat="44.93192277449511" lon="9.890199696914161"><ele>80.66666666666667</ele><time>2026-03-22T10:43:36.998Z</time></trkpt><trkpt lat="44.93200067532994" lon="9.890252682066757"><ele>80.5</ele><time>2026-03-22T10:43:37.998Z</time></trkpt><trkpt lat="44.932078885830954" lon="9.890307006434767"><ele>80.33333333333334</ele><time>2026-03-22T10:43:38.998Z</time></trkpt><trkpt lat="44.93215611011767" lon="9.890359032426106"><ele>80.16666666666667</ele><time>2026-03-22T10:43:39.998Z</time></trkpt><trkpt lat="44.932235049840095" lon="9.89040989227616"><ele>80.0</ele><time>2026-03-22T10:43:40.998Z</time></trkpt><trkpt lat="44.932312769383806" lon="9.890464884490859"><ele>80.0</ele><time>2026-03-22T10:43:41.998Z</time></trkpt><trkpt lat="44.93239229499821" lon="9.890517949435582"><ele>80.0</ele><time>2026-03-22T10:43:42.998Z</time></trkpt><trkpt lat="44.932469744038094" lon="9.890570901187633"><ele>80.0</ele><time>2026-03-22T10:43:43.998Z</time></trkpt><trkpt lat="44.93254746780289" lon="9.890622474037674"><ele>80.0</ele><time>2026-03-22T10:43:45Z</time></trkpt><trkpt lat="44.932626589024544" lon="9.890675691397702"><ele>80.0</ele><time>2026-03-22T10:43:46Z</time></trkpt><trkpt lat="44.932704331904425" lon="9.890729008356935"><ele>80.0</ele><time>2026-03-22T10:43:47Z</time></trkpt><trkpt lat="44.932781952955324" lon="9.89078036274951"><ele>79.5</ele><time>2026-03-22T10:43:48Z</time></trkpt><trkpt lat="44.932860027333405" lon="9.890832345816271"><ele>79.0</ele><time>2026-03-22T10:43:49Z</time></trkpt><trkpt lat="44.93293917224828" lon="9.89088597057341"><ele>78.5</ele><time>2026-03-22T10:43:50Z</time></trkpt><trkpt lat="44.933017404784884" lon="9.89093753624459"><ele>78.0</ele><time>2026-03-22T10:43:51Z</time></trkpt><trkpt lat="44.93309610183813" lon="9.890988180281491"><ele>77.5</ele><time>2026-03-22T10:43:52Z</time></trkpt><trkpt lat="44.93317467147423" lon="9.89104300878222"><ele>77.0</ele><time>2026-03-22T10:43:53Z</time></trkpt><trkpt lat="44.93325347979636" lon="9.89109740651664"><ele>77.0</ele><time>2026-03-22T10:43:54Z</time></trkpt><trkpt lat="44.933332122118095" lon="9.891150037936683"><ele>77.0</ele><time>2026-03-22T10:43:55Z</time></trkpt><trkpt lat="44.93341125437161" lon="9.89120678862505"><ele>77.0</ele><time>2026-03-22T10:43:56Z</time></trkpt><trkpt lat="44.933491723078795" lon="9.891261706696413"><ele>77.0</ele><time>2026-03-22T10:43:57Z</time></trkpt><trkpt lat="44.93357045941958" lon="9.891315977182837"><ele>77.0</ele><time>2026-03-22T10:43:58Z</time></trkpt><trkpt lat="44.9336512509939" lon="9.891371457239217"><ele>77.0</ele><time>2026-03-22T10:43:59Z</time></trkpt><trkpt lat="44.9337312899506" lon="9.891422803258198"><ele>77.5</ele><time>2026-03-22T10:44:00Z</time></trkpt><trkpt lat="44.93381073468475" lon="9.891478866008855"><ele>78.0</ele><time>2026-03-22T10:44:01Z</time></trkpt><trkpt lat="44.933892334611556" lon="9.891533804127782"><ele>78.5</ele><time>2026-03-22T10:44:02Z</time></trkpt><trkpt lat="44.93397069609425" lon="9.891588615671067"><ele>79.0</ele><time>2026-03-22T10:44:03Z</time></trkpt><trkpt lat="44.93405068849999" lon="9.89164431604944"><ele>79.5</ele><time>2026-03-22T10:44:04Z</time></trkpt><trkpt lat="44.934129132217905" lon="9.891698746205751"><ele>80.0</ele><time>2026-03-22T10:44:05Z</time></trkpt><trkpt lat="44.93420974168338" lon="9.891751970586515"><ele>79.33333333333334</ele><time>2026-03-22T10:44:06Z</time></trkpt><trkpt lat="44.93428994050362" lon="9.891806335221348"><ele>78.66666666666667</ele><time>2026-03-22T10:44:07Z</time></trkpt><trkpt lat="44.93437072596463" lon="9.891860296410844"><ele>78.0</ele><time>2026-03-22T10:44:08Z</time></trkpt><trkpt lat="44.93445036991748" lon="9.891914024038375"><ele>77.33333333333333</ele><time>2026-03-22T10:44:09Z</time></trkpt><trkpt lat="44.934529980162544" lon="9.891969408466993"><ele>76.66666666666666</ele><time>2026-03-22T10:44:10Z</time></trkpt><trkpt lat="44.93461116320718" lon="9.89202151710412"><ele>76.0</ele><time>2026-03-22T10:44:11Z</time></trkpt><trkpt lat="44.934692463984995" lon="9.892074055824171"><ele>76.0</ele><time>2026-03-22T10:44:12Z</time></trkpt><trkpt lat="44.93477136764998" lon="9.892127380592799"><ele>76.0</ele><time>2026-03-22T10:44:13Z</time></trkpt><trkpt lat="44.93485479810215" lon="9.892180633407813"><ele>76.0</ele><time>2026-03-22T10:44:14Z</time></trkpt><trkpt lat="44.93493621664739" lon="9.892231885344785"><ele>76.0</ele><time>2026-03-22T10:44:15Z</time></trkpt><trkpt lat="44.935016901608414" lon="9.892289174245299"><ele>76.0</ele><time>2026-03-22T10:44:16Z</time></trkpt><trkpt lat="44.9350989745031" lon="9.892341317577195"><ele>76.0</ele><time>2026-03-22T10:44:17Z</time></trkpt><trkpt lat="44.935180304391515" lon="9.892397267282497"><ele>75.8</ele><time>2026-03-22T10:44:18Z</time></trkpt><trkpt lat="44.935263804677824" lon="9.89245058894608"><ele>75.6</ele><time>2026-03-22T10:44:19Z</time></trkpt><trkpt lat="44.93534558480223" lon="9.89250158169586"><ele>75.4</ele><time>2026-03-22T10:44:20Z</time></trkpt><trkpt lat="44.93542933059946" lon="9.89255474345338"><ele>75.2</ele><time>2026-03-22T10:44:21Z</time></trkpt><trkpt lat="44.93551150406952" lon="9.892608074214213"><ele>75.0</ele><time>2026-03-22T10:44:22Z</time></trkpt><trkpt lat="44.93559481644392" lon="9.892662051832287"><ele>75.0</ele><time>2026-03-22T10:44:23Z</time></trkpt><trkpt lat="44.9356771679016" lon="9.892716151603532"><ele>75.0</ele><time>2026-03-22T10:44:24Z</time></trkpt><trkpt lat="44.93575896499544" lon="9.892769783933302"><ele>75.0</ele><time>2026-03-22T10:44:25Z</time></trkpt><trkpt lat="44.93584241591779" lon="9.892826125104824"><ele>75.0</ele><time>2026-03-22T10:44:26Z</time></trkpt><trkpt lat="44.935925468239205" lon="9.8928781357324"><ele>75.0</ele><time>2026-03-22T10:44:27Z</time></trkpt><trkpt lat="44.93600815004554" lon="9.892930459308149"><ele>75.0</ele><time>2026-03-22T10:44:28Z</time></trkpt><trkpt lat="44.93609044061647" lon="9.892981707374009"><ele>75.0</ele><time>2026-03-22T10:44:28.999Z</time></trkpt><trkpt lat="44.93617365715839" lon="9.893035763091524"><ele>75.0</ele><time>2026-03-22T10:44:29.999Z</time></trkpt><trkpt lat="44.936255622158434" lon="9.89308600734403"><ele>75.0</ele><time>2026-03-22T10:44:30.999Z</time></trkpt><trkpt lat="44.93633465382936" lon="9.893136169025524"><ele>75.0</ele><time>2026-03-22T10:44:31.999Z</time></trkpt><trkpt lat="44.93641620965061" lon="9.89318828482823"><ele>75.0</ele><time>2026-03-22T10:44:32.999Z</time></trkpt><trkpt lat="44.93649718168497" lon="9.893239801778558"><ele>75.0</ele><time>2026-03-22T10:44:33.999Z</time></trkpt><trkpt lat="44.936573694581526" lon="9.89329212270208"><ele>75.0</ele><time>2026-03-22T10:44:34.999Z</time></trkpt><trkpt lat="44.93665205917738" lon="9.893345050343125"><ele>75.0</ele><time>2026-03-22T10:44:35.999Z</time></trkpt><trkpt lat="44.93672706464467" lon="9.893393713377941"><ele>75.0</ele><time>2026-03-22T10:44:36.999Z</time></trkpt><trkpt lat="44.93680528596554" lon="9.893441927801387"><ele>75.0</ele><time>2026-03-22T10:44:37.999Z</time></trkpt><trkpt lat="44.93687977988461" lon="9.893488118331808"><ele>75.0</ele><time>2026-03-22T10:44:38.999Z</time></trkpt><trkpt lat="44.93695503662999" lon="9.893531337994014"><ele>75.0</ele><time>2026-03-22T10:44:39.999Z</time></trkpt><trkpt lat="44.93702828017009" lon="9.89357603024417"><ele>75.0</ele><time>2026-03-22T10:44:40.999Z</time></trkpt><trkpt lat="44.93710266011406" lon="9.893617519820847"><ele>75.0</ele><time>2026-03-22T10:44:41.999Z</time></trkpt><trkpt lat="44.9371755201542" lon="9.893662321470767"><ele>75.0</ele><time>2026-03-22T10:44:42.999Z</time></trkpt><trkpt lat="44.937247655837275" lon="9.89370572539643"><ele>75.0</ele><time>2026-03-22T10:44:43.999Z</time></trkpt><trkpt lat="44.93731954897291" lon="9.893752067101076"><ele>75.0</ele><time>2026-03-22T10:44:44.999Z</time></trkpt><trkpt lat="44.93739009165068" lon="9.893799406691896"><ele>75.0</ele><time>2026-03-22T10:44:45.999Z</time></trkpt><trkpt lat="44.93746224479047" lon="9.89384847817821"><ele>75.0</ele><time>2026-03-22T10:44:46.999Z</time></trkpt><trkpt lat="44.93753362970866" lon="9.89389730980583"><ele>75.0</ele><time>2026-03-22T10:44:47.999Z</time></trkpt><trkpt lat="44.9376034385915" lon="9.893947545503341"><ele>75.0</ele><time>2026-03-22T10:44:48.999Z</time></trkpt><trkpt lat="44.93767305201098" lon="9.894004337408841"><ele>75.0</ele><time>2026-03-22T10:44:49.999Z</time></trkpt><trkpt lat="44.93773815112766" lon="9.894059557660484"><ele>75.0</ele><time>2026-03-22T10:44:50.999Z</time></trkpt><trkpt lat="44.93780281398809" lon="9.894121290383154"><ele>75.0</ele><time>2026-03-22T10:44:51.999Z</time></trkpt><trkpt lat="44.937866988820986" lon="9.894184114569"><ele>75.0</ele><time>2026-03-22T10:44:52.999Z</time></trkpt><trkpt lat="44.93793029249213" lon="9.894250205716004"><ele>75.0</ele><time>2026-03-22T10:44:53.999Z</time></trkpt><trkpt lat="44.937995211641145" lon="9.894316130388368"><ele>75.0</ele><time>2026-03-22T10:44:54.999Z</time></trkpt><trkpt lat="44.93805935946687" lon="9.894381935965924"><ele>75.0</ele><time>2026-03-22T10:44:55.999Z</time></trkpt><trkpt lat="44.93812313801706" lon="9.894448725797437"><ele>75.0</ele><time>2026-03-22T10:44:56.999Z</time></trkpt><trkpt lat="44.93818778172159" lon="9.89451631231806"><ele>74.83333333333333</ele><time>2026-03-22T10:44:57.999Z</time></trkpt><trkpt lat="44.938250319812994" lon="9.894588849348615"><ele>74.66666666666667</ele><time>2026-03-22T10:44:58.999Z</time></trkpt><trkpt lat="44.9383133419807" lon="9.894658895750739"><ele>74.5</ele><time>2026-03-22T10:44:59.999Z</time></trkpt><trkpt lat="44.93837816034898" lon="9.894730568289004"><ele>74.33333333333334</ele><time>2026-03-22T10:45:00.999Z</time></trkpt><trkpt lat="44.93844137664278" lon="9.894802131864445"><ele>74.16666666666667</ele><time>2026-03-22T10:45:01.999Z</time></trkpt><trkpt lat="44.9385050241959" lon="9.894870792693688"><ele>74.0</ele><time>2026-03-22T10:45:02.999Z</time></trkpt><trkpt lat="44.938568374387195" lon="9.894944073551118"><ele>73.83333333333334</ele><time>2026-03-22T10:45:03.999Z</time></trkpt><trkpt lat="44.93863224759531" lon="9.89501805528849"><ele>73.66666666666667</ele><time>2026-03-22T10:45:04.999Z</time></trkpt><trkpt lat="44.93869552056228" lon="9.895091161853632"><ele>73.5</ele><time>2026-03-22T10:45:05.999Z</time></trkpt><trkpt lat="44.938760246646986" lon="9.895164723721539"><ele>73.33333333333333</ele><time>2026-03-22T10:45:06.999Z</time></trkpt><trkpt lat="44.9388240100814" lon="9.895239202775238"><ele>73.16666666666666</ele><time>2026-03-22T10:45:07.999Z</time></trkpt><trkpt lat="44.938889457662874" lon="9.895315912081548"><ele>73.0</ele><time>2026-03-22T10:45:08.999Z</time></trkpt><trkpt lat="44.9389525703413" lon="9.895392417186473"><ele>73.0</ele><time>2026-03-22T10:45:09.999Z</time></trkpt><trkpt lat="44.939014648072636" lon="9.89547300436135"><ele>73.0</ele><time>2026-03-22T10:45:10.999Z</time></trkpt><trkpt lat="44.93907894844684" lon="9.895550102380698"><ele>73.0</ele><time>2026-03-22T10:45:11.999Z</time></trkpt><trkpt lat="44.939142291551754" lon="9.895629145065985"><ele>73.0</ele><time>2026-03-22T10:45:12.999Z</time></trkpt><trkpt lat="44.93920662414331" lon="9.8957052664944"><ele>73.0</ele><time>2026-03-22T10:45:13.999Z</time></trkpt><trkpt lat="44.93927043401422" lon="9.895783069790573"><ele>73.0</ele><time>2026-03-22T10:45:14.999Z</time></trkpt><trkpt lat="44.93933451482113" lon="9.895859662240799"><ele>73.0</ele><time>2026-03-22T10:45:15.999Z</time></trkpt><trkpt lat="44.93939722429773" lon="9.89593845329828"><ele>73.0</ele><time>2026-03-22T10:45:16.999Z</time></trkpt><trkpt lat="44.93946183816895" lon="9.896015706607711"><ele>73.0</ele><time>2026-03-22T10:45:17.999Z</time></trkpt><trkpt lat="44.93952527223308" lon="9.896096973084209"><ele>73.0</ele><time>2026-03-22T10:45:18.999Z</time></trkpt><trkpt lat="44.939590499907155" lon="9.896174397683744"><ele>73.0</ele><time>2026-03-22T10:45:19.999Z</time></trkpt><trkpt lat="44.93965417198265" lon="9.896251928928285"><ele>73.0</ele><time>2026-03-22T10:45:20.998Z</time></trkpt><trkpt lat="44.939719085584485" lon="9.89633000148819"><ele>73.0</ele><time>2026-03-22T10:45:21.998Z</time></trkpt><trkpt lat="44.939782047437205" lon="9.89640875513632"><ele>73.0</ele><time>2026-03-22T10:45:22.998Z</time></trkpt><trkpt lat="44.93984555711847" lon="9.896487018704672"><ele>73.0</ele><time>2026-03-22T10:45:23.998Z</time></trkpt><trkpt lat="44.93990830248098" lon="9.896569077533085"><ele>73.0</ele><time>2026-03-22T10:45:24.998Z</time></trkpt><trkpt lat="44.93997245745609" lon="9.896646302308957"><ele>73.0</ele><time>2026-03-22T10:45:25.998Z</time></trkpt><trkpt lat="44.94003572830558" lon="9.896724089884604"><ele>73.0</ele><time>2026-03-22T10:45:26.998Z</time></trkpt><trkpt lat="44.940099151051946" lon="9.896801624278885"><ele>72.83333333333333</ele><time>2026-03-22T10:45:27.998Z</time></trkpt><trkpt lat="44.94016080494053" lon="9.896878939891957"><ele>72.66666666666666</ele><time>2026-03-22T10:45:28.998Z</time></trkpt><trkpt lat="44.94022411981028" lon="9.896958247916379"><ele>72.5</ele><time>2026-03-22T10:45:29.998Z</time></trkpt><trkpt lat="44.940286078369915" lon="9.897036468129155"><ele>72.33333333333333</ele><time>2026-03-22T10:45:30.998Z</time></trkpt><trkpt lat="44.940347826993374" lon="9.897115135198197"><ele>72.16666666666667</ele><time>2026-03-22T10:45:31.998Z</time></trkpt><trkpt lat="44.94041040076258" lon="9.897192788519865"><ele>72.0</ele><time>2026-03-22T10:45:32.998Z</time></trkpt><trkpt lat="44.94047324341853" lon="9.897269389279305"><ele>72.0</ele><time>2026-03-22T10:45:33.998Z</time></trkpt><trkpt lat="44.94053817146291" lon="9.897345723847167"><ele>72.0</ele><time>2026-03-22T10:45:34.998Z</time></trkpt><trkpt lat="44.94060001488137" lon="9.897420847787094"><ele>72.0</ele><time>2026-03-22T10:45:35.998Z</time></trkpt><trkpt lat="44.94066610526489" lon="9.897489874584355"><ele>72.0</ele><time>2026-03-22T10:45:36.998Z</time></trkpt><trkpt lat="44.94072718792805" lon="9.89756664846131"><ele>72.0</ele><time>2026-03-22T10:45:37.998Z</time></trkpt><trkpt lat="44.940787255725965" lon="9.89764300885111"><ele>72.0</ele><time>2026-03-22T10:45:38.998Z</time></trkpt><trkpt lat="44.94084970442831" lon="9.897716251977203"><ele>72.33333333333333</ele><time>2026-03-22T10:45:39.998Z</time></trkpt><trkpt lat="44.94091146925976" lon="9.897790784888521"><ele>72.66666666666667</ele><time>2026-03-22T10:45:40.998Z</time></trkpt><trkpt lat="44.94097143677673" lon="9.897868042639558"><ele>73.0</ele><time>2026-03-22T10:45:41.998Z</time></trkpt><trkpt lat="44.94103536641956" lon="9.897947959660849"><ele>73.33333333333334</ele><time>2026-03-22T10:45:42.998Z</time></trkpt><trkpt lat="44.941097813166785" lon="9.898026539092585"><ele>73.66666666666667</ele><time>2026-03-22T10:45:43.998Z</time></trkpt><trkpt lat="44.94116171372649" lon="9.898109358973091"><ele>74.0</ele><time>2026-03-22T10:45:44.998Z</time></trkpt><trkpt lat="44.94122627744745" lon="9.898188613519276"><ele>74.0</ele><time>2026-03-22T10:45:45.998Z</time></trkpt><trkpt lat="44.941292050029226" lon="9.89826808321919"><ele>74.0</ele><time>2026-03-22T10:45:46.998Z</time></trkpt><trkpt lat="44.94135696589555" lon="9.898346242064454"><ele>74.0</ele><time>2026-03-22T10:45:47.998Z</time></trkpt><trkpt lat="44.94142345163787" lon="9.8984273372132"><ele>74.0</ele><time>2026-03-22T10:45:48.998Z</time></trkpt><trkpt lat="44.94148916361726" lon="9.898509853251776"><ele>74.0</ele><time>2026-03-22T10:45:49.998Z</time></trkpt><trkpt lat="44.94155505219138" lon="9.89859197013897"><ele>74.0</ele><time>2026-03-22T10:45:51Z</time></trkpt><trkpt lat="44.94162182819131" lon="9.898672762047582"><ele>73.5</ele><time>2026-03-22T10:45:52Z</time></trkpt><trkpt lat="44.941688218999055" lon="9.89875348833417"><ele>73.0</ele><time>2026-03-22T10:45:53Z</time></trkpt><trkpt lat="44.94175661339975" lon="9.898835673623017"><ele>72.5</ele><time>2026-03-22T10:45:54Z</time></trkpt><trkpt lat="44.941825009387784" lon="9.898914878734093"><ele>72.0</ele><time>2026-03-22T10:45:55Z</time></trkpt><trkpt lat="44.94189525112672" lon="9.898994471215623"><ele>71.5</ele><time>2026-03-22T10:45:56Z</time></trkpt><trkpt lat="44.94196692019101" lon="9.89907415287762"><ele>71.0</ele><time>2026-03-22T10:45:57Z</time></trkpt><trkpt lat="44.94204139690324" lon="9.899147800752768"><ele>71.0</ele><time>2026-03-22T10:45:58Z</time></trkpt><trkpt lat="44.94211875223587" lon="9.899221939551143"><ele>71.0</ele><time>2026-03-22T10:45:59Z</time></trkpt><trkpt lat="44.94219774378992" lon="9.899297045407657"><ele>71.0</ele><time>2026-03-22T10:46:00Z</time></trkpt><trkpt lat="44.942278563443196" lon="9.899369612709648"><ele>71.0</ele><time>2026-03-22T10:46:01Z</time></trkpt><trkpt lat="44.942362736286924" lon="9.89944302041918"><ele>71.0</ele><time>2026-03-22T10:46:02Z</time></trkpt><trkpt lat="44.94245002657258" lon="9.899508310743123"><ele>70.6</ele><time>2026-03-22T10:46:03Z</time></trkpt><trkpt lat="44.942536870007665" lon="9.899574362260685"><ele>70.19999999999999</ele><time>2026-03-22T10:46:04Z</time></trkpt><trkpt lat="44.942623876399324" lon="9.89963549992427"><ele>69.80000000000001</ele><time>2026-03-22T10:46:05Z</time></trkpt><trkpt lat="44.942713014597494" lon="9.899701248102655"><ele>69.4</ele><time>2026-03-22T10:46:06Z</time></trkpt><trkpt lat="44.94280319634344" lon="9.899758171273957"><ele>69.0</ele><time>2026-03-22T10:46:07Z</time></trkpt><trkpt lat="44.94289566412484" lon="9.899812921507639"><ele>68.60000000000001</ele><time>2026-03-22T10:46:08Z</time></trkpt><trkpt lat="44.94298806288068" lon="9.899868915819034"><ele>68.2</ele><time>2026-03-22T10:46:09Z</time></trkpt><trkpt lat="44.943079978106255" lon="9.899919245761069"><ele>67.80000000000001</ele><time>2026-03-22T10:46:10Z</time></trkpt><trkpt lat="44.94317370375785" lon="9.899969717786908"><ele>67.4</ele><time>2026-03-22T10:46:11Z</time></trkpt><trkpt lat="44.94326805686677" lon="9.900015513544536"><ele>67.0</ele><time>2026-03-22T10:46:12Z</time></trkpt><trkpt lat="44.94336301045427" lon="9.90006130519777"><ele>67.4</ele><time>2026-03-22T10:46:13Z</time></trkpt><trkpt lat="44.94346108091634" lon="9.900105990276812"><ele>67.80000000000001</ele><time>2026-03-22T10:46:14Z</time></trkpt><trkpt lat="44.9435576189744" lon="9.900149554066852"><ele>68.2</ele><time>2026-03-22T10:46:15Z</time></trkpt><trkpt lat="44.94365518314897" lon="9.900194807427233"><ele>68.60000000000001</ele><time>2026-03-22T10:46:16Z</time></trkpt><trkpt lat="44.94375346687642" lon="9.900240054455619"><ele>69.0</ele><time>2026-03-22T10:46:17Z</time></trkpt><trkpt lat="44.94385051997374" lon="9.900286387746984"><ele>69.0</ele><time>2026-03-22T10:46:18Z</time></trkpt><trkpt lat="44.94394857793721" lon="9.900331475577227"><ele>69.0</ele><time>2026-03-22T10:46:19Z</time></trkpt><trkpt lat="44.94404521306298" lon="9.900373410724878"><ele>69.0</ele><time>2026-03-22T10:46:20Z</time></trkpt><trkpt lat="44.94414206107105" lon="9.90041879958952"><ele>69.0</ele><time>2026-03-22T10:46:21Z</time></trkpt><trkpt lat="44.94423884412482" lon="9.900461887983601"><ele>69.0</ele><time>2026-03-22T10:46:22Z</time></trkpt><trkpt lat="44.94433535213982" lon="9.900505990092846"><ele>69.2</ele><time>2026-03-22T10:46:23Z</time></trkpt><trkpt lat="44.944431678259896" lon="9.900550860049812"><ele>69.4</ele><time>2026-03-22T10:46:24Z</time></trkpt><trkpt lat="44.94452765966564" lon="9.90059517978924"><ele>69.6</ele><time>2026-03-22T10:46:25Z</time></trkpt><trkpt lat="44.94462319945939" lon="9.90064040325245"><ele>69.8</ele><time>2026-03-22T10:46:26Z</time></trkpt><trkpt lat="44.944718788497795" lon="9.900682931093494"><ele>70.0</ele><time>2026-03-22T10:46:27Z</time></trkpt><trkpt lat="44.94481299836587" lon="9.900727402200731"><ele>70.0</ele><time>2026-03-22T10:46:28Z</time></trkpt><trkpt lat="44.944908499829964" lon="9.900772842965429"><ele>70.0</ele><time>2026-03-22T10:46:29Z</time></trkpt><trkpt lat="44.94500228909243" lon="9.90081815133246"><ele>70.0</ele><time>2026-03-22T10:46:30Z</time></trkpt><trkpt lat="44.94509461353693" lon="9.900867979617503"><ele>70.0</ele><time>2026-03-22T10:46:31Z</time></trkpt><trkpt lat="44.945184504861814" lon="9.900915021105112"><ele>70.0</ele><time>2026-03-22T10:46:32Z</time></trkpt><trkpt lat="44.94527458503372" lon="9.900962249360225"><ele>69.8</ele><time>2026-03-22T10:46:32.999Z</time></trkpt><trkpt lat="44.94536348508617" lon="9.901009290503493"><ele>69.6</ele><time>2026-03-22T10:46:33.999Z</time></trkpt><trkpt lat="44.94545202326089" lon="9.901057894351036"><ele>69.4</ele><time>2026-03-22T10:46:34.999Z</time></trkpt><trkpt lat="44.94553991853981" lon="9.901106919667667"><ele>69.2</ele><time>2026-03-22T10:46:35.999Z</time></trkpt><trkpt lat="44.945627510207366" lon="9.90115979774427"><ele>69.0</ele><time>2026-03-22T10:46:36.999Z</time></trkpt><trkpt lat="44.94571729541903" lon="9.901208905353153"><ele>69.0</ele><time>2026-03-22T10:46:37.999Z</time></trkpt><trkpt lat="44.945804915474554" lon="9.90126328746622"><ele>69.0</ele><time>2026-03-22T10:46:38.999Z</time></trkpt><trkpt lat="44.94589193268314" lon="9.90131288026209"><ele>69.0</ele><time>2026-03-22T10:46:39.999Z</time></trkpt><trkpt lat="44.94597951967397" lon="9.901366971492308"><ele>69.0</ele><time>2026-03-22T10:46:40.999Z</time></trkpt><trkpt lat="44.94606677664923" lon="9.901418632897807"><ele>69.0</ele><time>2026-03-22T10:46:41.999Z</time></trkpt><trkpt lat="44.94615381171882" lon="9.901472842727024"><ele>68.8</ele><time>2026-03-22T10:46:42.999Z</time></trkpt><trkpt lat="44.946242245131124" lon="9.901521450847698"><ele>68.60000000000001</ele><time>2026-03-22T10:46:43.999Z</time></trkpt><trkpt lat="44.94633036008695" lon="9.901576032915406"><ele>68.4</ele><time>2026-03-22T10:46:44.999Z</time></trkpt><trkpt lat="44.946417861333174" lon="9.901628371853969"><ele>68.2</ele><time>2026-03-22T10:46:45.999Z</time></trkpt><trkpt lat="44.94650543626321" lon="9.901682951714463"><ele>68.0</ele><time>2026-03-22T10:46:46.999Z</time></trkpt><trkpt lat="44.94659340494158" lon="9.90173504630796"><ele>68.0</ele><time>2026-03-22T10:46:47.999Z</time></trkpt><trkpt lat="44.946680870652244" lon="9.90178639154754"><ele>68.0</ele><time>2026-03-22T10:46:48.999Z</time></trkpt><trkpt lat="44.9467658402074" lon="9.901840863782231"><ele>68.0</ele><time>2026-03-22T10:46:49.999Z</time></trkpt><trkpt lat="44.946851345152865" lon="9.901893461017751"><ele>68.0</ele><time>2026-03-22T10:46:50.999Z</time></trkpt><trkpt lat="44.94693739349915" lon="9.901945221506995"><ele>68.0</ele><time>2026-03-22T10:46:51.999Z</time></trkpt><trkpt lat="44.94702169968135" lon="9.901996579701882"><ele>68.0</ele><time>2026-03-22T10:46:52.999Z</time></trkpt><trkpt lat="44.9471070807809" lon="9.90204824369815"><ele>68.0</ele><time>2026-03-22T10:46:53.999Z</time></trkpt><trkpt lat="44.94719110467571" lon="9.902101179646674"><ele>68.0</ele><time>2026-03-22T10:46:54.999Z</time></trkpt><trkpt lat="44.94727472319107" lon="9.902154528294838"><ele>68.0</ele><time>2026-03-22T10:46:55.999Z</time></trkpt><trkpt lat="44.947360005917616" lon="9.902205400548585"><ele>68.0</ele><time>2026-03-22T10:46:56.999Z</time></trkpt><trkpt lat="44.94744508014546" lon="9.902257504754752"><ele>68.0</ele><time>2026-03-22T10:46:57.999Z</time></trkpt><trkpt lat="44.947529434917904" lon="9.902307719603312"><ele>68.0</ele><time>2026-03-22T10:46:58.999Z</time></trkpt><trkpt lat="44.9476132197229" lon="9.902361373819847"><ele>68.0</ele><time>2026-03-22T10:46:59.999Z</time></trkpt><trkpt lat="44.947698077642556" lon="9.902417166253906"><ele>68.0</ele><time>2026-03-22T10:47:00.999Z</time></trkpt><trkpt lat="44.94778171365825" lon="9.902471145730752"><ele>68.0</ele><time>2026-03-22T10:47:01.999Z</time></trkpt><trkpt lat="44.94786671531119" lon="9.902524754571273"><ele>68.0</ele><time>2026-03-22T10:47:02.999Z</time></trkpt><trkpt lat="44.9479507039937" lon="9.902581161494163"><ele>68.0</ele><time>2026-03-22T10:47:03.999Z</time></trkpt><trkpt lat="44.948033384867855" lon="9.902636480851728"><ele>68.0</ele><time>2026-03-22T10:47:04.999Z</time></trkpt><trkpt lat="44.94811626366966" lon="9.90269090233946"><ele>68.0</ele><time>2026-03-22T10:47:05.999Z</time></trkpt><trkpt lat="44.94819986297118" lon="9.90274399174265"><ele>68.0</ele><time>2026-03-22T10:47:06.999Z</time></trkpt><trkpt lat="44.94828207106649" lon="9.902798193768533"><ele>68.0</ele><time>2026-03-22T10:47:07.999Z</time></trkpt><trkpt lat="44.94836427212375" lon="9.902852847034923"><ele>68.0</ele><time>2026-03-22T10:47:08.999Z</time></trkpt><trkpt lat="44.94844592155686" lon="9.90290708418468"><ele>68.0</ele><time>2026-03-22T10:47:09.999Z</time></trkpt><trkpt lat="44.94852465191157" lon="9.902958639738157"><ele>68.0</ele><time>2026-03-22T10:47:10.999Z</time></trkpt><trkpt lat="44.94860356866859" lon="9.903007420864817"><ele>68.0</ele><time>2026-03-22T10:47:11.999Z</time></trkpt><trkpt lat="44.948681453441004" lon="9.903055481676155"><ele>68.0</ele><time>2026-03-22T10:47:12.999Z</time></trkpt><trkpt lat="44.948759164249715" lon="9.90310534468985"><ele>68.0</ele><time>2026-03-22T10:47:13.999Z</time></trkpt><trkpt lat="44.94883537007193" lon="9.90315230060907"><ele>68.0</ele><time>2026-03-22T10:47:14.999Z</time></trkpt><trkpt lat="44.94891415587814" lon="9.903204162102304"><ele>68.0</ele><time>2026-03-22T10:47:15.999Z</time></trkpt><trkpt lat="44.948992464334616" lon="9.903252292755294"><ele>68.0</ele><time>2026-03-22T10:47:16.999Z</time></trkpt><trkpt lat="44.94906861398546" lon="9.903302742210808"><ele>68.0</ele><time>2026-03-22T10:47:17.999Z</time></trkpt><trkpt lat="44.949145911319114" lon="9.903350744394592"><ele>68.0</ele><time>2026-03-22T10:47:18.999Z</time></trkpt><trkpt lat="44.94922353204222" lon="9.903398904623048"><ele>67.33333333333334</ele><time>2026-03-22T10:47:19.999Z</time></trkpt><trkpt lat="44.949302410551255" lon="9.903443371078692"><ele>66.66666666666667</ele><time>2026-03-22T10:47:20.999Z</time></trkpt><trkpt lat="44.94938120145128" lon="9.90349302130316"><ele>66.0</ele><time>2026-03-22T10:47:21.999Z</time></trkpt><trkpt lat="44.94945999572768" lon="9.903541827899957"><ele>65.33333333333333</ele><time>2026-03-22T10:47:22.999Z</time></trkpt><trkpt lat="44.94953863404331" lon="9.903590100070254"><ele>64.66666666666666</ele><time>2026-03-22T10:47:23.999Z</time></trkpt><trkpt lat="44.94961978767443" lon="9.903640739071806"><ele>64.0</ele><time>2026-03-22T10:47:24.998Z</time></trkpt><trkpt lat="44.949699588549755" lon="9.903693355360803"><ele>63.99999999999999</ele><time>2026-03-22T10:47:25.998Z</time></trkpt><trkpt lat="44.94977908325792" lon="9.9037391030612"><ele>64.0</ele><time>2026-03-22T10:47:26.998Z</time></trkpt><trkpt lat="44.94985933948139" lon="9.903789764437079"><ele>64.0</ele><time>2026-03-22T10:47:27.998Z</time></trkpt><trkpt lat="44.949939212479855" lon="9.903840029455836"><ele>64.0</ele><time>2026-03-22T10:47:28.998Z</time></trkpt><trkpt lat="44.950017742954344" lon="9.903888784782344"><ele>63.99999999999999</ele><time>2026-03-22T10:47:29.998Z</time></trkpt><trkpt lat="44.950097749644264" lon="9.903936766476075"><ele>64.0</ele><time>2026-03-22T10:47:30.998Z</time></trkpt><trkpt lat="44.95017832532439" lon="9.903985203610095"><ele>63.83333333333333</ele><time>2026-03-22T10:47:31.998Z</time></trkpt><trkpt lat="44.950258927866265" lon="9.904038526701818"><ele>63.666666666666664</ele><time>2026-03-22T10:47:32.998Z</time></trkpt><trkpt lat="44.950337330323016" lon="9.904083147058403"><ele>63.5</ele><time>2026-03-22T10:47:33.998Z</time></trkpt><trkpt lat="44.950418217214576" lon="9.904133939106364"><ele>63.33333333333333</ele><time>2026-03-22T10:47:34.998Z</time></trkpt><trkpt lat="44.950497364603166" lon="9.90418294931411"><ele>63.166666666666664</ele><time>2026-03-22T10:47:35.998Z</time></trkpt><trkpt lat="44.95057686843967" lon="9.904230846240084"><ele>63.0</ele><time>2026-03-22T10:47:36.998Z</time></trkpt><trkpt lat="44.950655093854955" lon="9.904276246713465"><ele>63.666666666666664</ele><time>2026-03-22T10:47:37.998Z</time></trkpt><trkpt lat="44.950732549634075" lon="9.904324206002942"><ele>64.33333333333333</ele><time>2026-03-22T10:47:38.998Z</time></trkpt><trkpt lat="44.95081063575346" lon="9.904369254518985"><ele>65.0</ele><time>2026-03-22T10:47:39.998Z</time></trkpt><trkpt lat="44.95088927870386" lon="9.904415399365222"><ele>65.66666666666666</ele><time>2026-03-22T10:47:40.998Z</time></trkpt><trkpt lat="44.95096768600145" lon="9.904461393894707"><ele>66.33333333333333</ele><time>2026-03-22T10:47:41.998Z</time></trkpt><trkpt lat="44.95104700578544" lon="9.904506393992438"><ele>67.0</ele><time>2026-03-22T10:47:42.998Z</time></trkpt><trkpt lat="44.95112476155695" lon="9.904553396650723"><ele>67.0</ele><time>2026-03-22T10:47:43.998Z</time></trkpt><trkpt lat="44.95120715911954" lon="9.904600033021566"><ele>67.0</ele><time>2026-03-22T10:47:44.998Z</time></trkpt><trkpt lat="44.951284693612855" lon="9.904651007630251"><ele>67.0</ele><time>2026-03-22T10:47:45.998Z</time></trkpt><trkpt lat="44.95136168046223" lon="9.904704884452274"><ele>67.0</ele><time>2026-03-22T10:47:46.998Z</time></trkpt><trkpt lat="44.95143940259508" lon="9.904763996916575"><ele>67.0</ele><time>2026-03-22T10:47:47.998Z</time></trkpt><trkpt lat="44.95151320408251" lon="9.904824942025545"><ele>67.0</ele><time>2026-03-22T10:47:48.998Z</time></trkpt><trkpt lat="44.95158581582997" lon="9.90489211555033"><ele>67.0</ele><time>2026-03-22T10:47:49.998Z</time></trkpt><trkpt lat="44.95165286651703" lon="9.904963206282282"><ele>67.0</ele><time>2026-03-22T10:47:50.998Z</time></trkpt><trkpt lat="44.951713033153084" lon="9.905050825379224"><ele>67.0</ele><time>2026-03-22T10:47:51.998Z</time></trkpt><trkpt lat="44.95177476879506" lon="9.905126879479607"><ele>67.0</ele><time>2026-03-22T10:47:52.998Z</time></trkpt><trkpt lat="44.951850405284894" lon="9.90517741613576"><ele>67.0</ele><time>2026-03-22T10:47:53.998Z</time></trkpt><trkpt lat="44.95193509446552" lon="9.905194775405379"><ele>67.0</ele><time>2026-03-22T10:47:54.998Z</time></trkpt><trkpt lat="44.95202477217926" lon="9.905191126365787"><ele>66.83333333333333</ele><time>2026-03-22T10:47:55.998Z</time></trkpt><trkpt lat="44.952111162259634" lon="9.90518601034709"><ele>66.66666666666666</ele><time>2026-03-22T10:47:57Z</time></trkpt><trkpt lat="44.9521971182511" lon="9.90520095777613"><ele>66.5</ele><time>2026-03-22T10:47:58Z</time></trkpt><trkpt lat="44.952280199585516" lon="9.9052317475552"><ele>66.33333333333333</ele><time>2026-03-22T10:47:59Z</time></trkpt><trkpt lat="44.95236050363166" lon="9.90526892603572"><ele>66.16666666666667</ele><time>2026-03-22T10:48:00Z</time></trkpt><trkpt lat="44.95244072867926" lon="9.905305790470267"><ele>66.0</ele><time>2026-03-22T10:48:01Z</time></trkpt><trkpt lat="44.95252264161185" lon="9.905344637035865"><ele>66.0</ele><time>2026-03-22T10:48:02Z</time></trkpt><trkpt lat="44.95260491577428" lon="9.905386477602406"><ele>66.0</ele><time>2026-03-22T10:48:03Z</time></trkpt><trkpt lat="44.95268443727775" lon="9.9054339928631"><ele>66.0</ele><time>2026-03-22T10:48:04Z</time></trkpt><trkpt lat="44.952764347682596" lon="9.905478504208025"><ele>66.0</ele><time>2026-03-22T10:48:05Z</time></trkpt><trkpt lat="44.95284446428633" lon="9.905523547521772"><ele>66.0</ele><time>2026-03-22T10:48:06Z</time></trkpt><trkpt lat="44.95292483742633" lon="9.905567691257072"><ele>66.0</ele><time>2026-03-22T10:48:07Z</time></trkpt><trkpt lat="44.95300542526688" lon="9.905613411405978"><ele>66.0</ele><time>2026-03-22T10:48:08Z</time></trkpt><trkpt lat="44.953084936346684" lon="9.905655984621689"><ele>66.0</ele><time>2026-03-22T10:48:09Z</time></trkpt><trkpt lat="44.95316495888425" lon="9.905698897491797"><ele>66.0</ele><time>2026-03-22T10:48:10Z</time></trkpt><trkpt lat="44.953244978889046" lon="9.90574362304949"><ele>66.0</ele><time>2026-03-22T10:48:11Z</time></trkpt><trkpt lat="44.95332326599217" lon="9.905786108148533"><ele>66.0</ele><time>2026-03-22T10:48:12Z</time></trkpt><trkpt lat="44.95340345823476" lon="9.905827175141384"><ele>66.0</ele><time>2026-03-22T10:48:13Z</time></trkpt><trkpt lat="44.95348155355833" lon="9.905871764505742"><ele>66.0</ele><time>2026-03-22T10:48:14Z</time></trkpt><trkpt lat="44.95356141453282" lon="9.905919430601628"><ele>66.0</ele><time>2026-03-22T10:48:15Z</time></trkpt><trkpt lat="44.9536411331223" lon="9.905962619075039"><ele>66.0</ele><time>2026-03-22T10:48:16Z</time></trkpt><trkpt lat="44.953721697160844" lon="9.906008012955185"><ele>66.0</ele><time>2026-03-22T10:48:17Z</time></trkpt><trkpt lat="44.95380218190973" lon="9.906053542836792"><ele>66.0</ele><time>2026-03-22T10:48:18Z</time></trkpt><trkpt lat="44.953884170192765" lon="9.906101330319759"><ele>66.0</ele><time>2026-03-22T10:48:19Z</time></trkpt><trkpt lat="44.95396673958453" lon="9.90614841429167"><ele>66.0</ele><time>2026-03-22T10:48:20Z</time></trkpt><trkpt lat="44.954047376231244" lon="9.906192302780447"><ele>66.0</ele><time>2026-03-22T10:48:21Z</time></trkpt><trkpt lat="44.954129574534974" lon="9.906240110570483"><ele>66.0</ele><time>2026-03-22T10:48:22Z</time></trkpt><trkpt lat="44.954210513837296" lon="9.906286574364819"><ele>66.0</ele><time>2026-03-22T10:48:23Z</time></trkpt><trkpt lat="44.954289321267034" lon="9.90633190106189"><ele>66.0</ele><time>2026-03-22T10:48:24Z</time></trkpt><trkpt lat="44.9543708733985" lon="9.906375912186318"><ele>66.0</ele><time>2026-03-22T10:48:25Z</time></trkpt><trkpt lat="44.9544511544614" lon="9.90642609032955"><ele>65.5</ele><time>2026-03-22T10:48:26Z</time></trkpt><trkpt lat="44.95453135191562" lon="9.906471023302423"><ele>65.0</ele><time>2026-03-22T10:48:27Z</time></trkpt><trkpt lat="44.95461030569385" lon="9.906518041439506"><ele>64.5</ele><time>2026-03-22T10:48:28Z</time></trkpt><trkpt lat="44.954692423157184" lon="9.906561912664563"><ele>64.0</ele><time>2026-03-22T10:48:29Z</time></trkpt><trkpt lat="44.954774664984846" lon="9.906608015945288"><ele>63.5</ele><time>2026-03-22T10:48:30Z</time></trkpt><trkpt lat="44.95485428491722" lon="9.90665593052418"><ele>63.0</ele><time>2026-03-22T10:48:31Z</time></trkpt><trkpt lat="44.95493651166459" lon="9.9067026845123"><ele>63.166666666666664</ele><time>2026-03-22T10:48:32Z</time></trkpt><trkpt lat="44.95501757177471" lon="9.906750224644188"><ele>63.33333333333333</ele><time>2026-03-22T10:48:33Z</time></trkpt><trkpt lat="44.95509700592748" lon="9.906791209631349"><ele>63.5</ele><time>2026-03-22T10:48:34Z</time></trkpt><trkpt lat="44.95517694369626" lon="9.906837300235873"><ele>63.666666666666664</ele><time>2026-03-22T10:48:35Z</time></trkpt><trkpt lat="44.955259317644355" lon="9.906877151706835"><ele>63.83333333333333</ele><time>2026-03-22T10:48:36Z</time></trkpt><trkpt lat="44.95534118093599" lon="9.906924996578203"><ele>64.0</ele><time>2026-03-22T10:48:37Z</time></trkpt><trkpt lat="44.9554218329939" lon="9.906967718313835"><ele>63.99999999999999</ele><time>2026-03-22T10:48:37.999Z</time></trkpt><trkpt lat="44.955503925387475" lon="9.907013463584113"><ele>64.0</ele><time>2026-03-22T10:48:38.999Z</time></trkpt><trkpt lat="44.955585133490615" lon="9.90705779355868"><ele>64.0</ele><time>2026-03-22T10:48:39.999Z</time></trkpt><trkpt lat="44.955666319943674" lon="9.90710286273171"><ele>64.0</ele><time>2026-03-22T10:48:40.999Z</time></trkpt><trkpt lat="44.95574647033865" lon="9.907144474100853"><ele>63.99999999999999</ele><time>2026-03-22T10:48:41.999Z</time></trkpt><trkpt lat="44.955828320693" lon="9.907191650390367"><ele>64.0</ele><time>2026-03-22T10:48:42.999Z</time></trkpt><trkpt lat="44.95591064740852" lon="9.907230174929749"><ele>63.99999999999999</ele><time>2026-03-22T10:48:43.999Z</time></trkpt><trkpt lat="44.95599378182165" lon="9.907273641479195"><ele>64.0</ele><time>2026-03-22T10:48:44.999Z</time></trkpt><trkpt lat="44.956076416372966" lon="9.907315223259161"><ele>64.0</ele><time>2026-03-22T10:48:45.999Z</time></trkpt><trkpt lat="44.95615531529885" lon="9.907351164857529"><ele>64.0</ele><time>2026-03-22T10:48:46.999Z</time></trkpt><trkpt lat="44.95623730386322" lon="9.907393004525582"><ele>63.99999999999999</ele><time>2026-03-22T10:48:47.999Z</time></trkpt><trkpt lat="44.95631542842256" lon="9.907424069436047"><ele>64.0</ele><time>2026-03-22T10:48:48.999Z</time></trkpt><trkpt lat="44.956390524964" lon="9.907458164986158"><ele>64.0</ele><time>2026-03-22T10:48:49.999Z</time></trkpt><trkpt lat="44.956463504903326" lon="9.907495140834795"><ele>63.99999999999999</ele><time>2026-03-22T10:48:50.999Z</time></trkpt><trkpt lat="44.956533740817584" lon="9.907527570431759"><ele>64.0</ele><time>2026-03-22T10:48:51.999Z</time></trkpt><trkpt lat="44.95660742398045" lon="9.907556917881244"><ele>64.0</ele><time>2026-03-22T10:48:52.999Z</time></trkpt><trkpt lat="44.9566798866258" lon="9.907587487628286"><ele>63.99999999999999</ele><time>2026-03-22T10:48:53.999Z</time></trkpt><trkpt lat="44.95674970616375" lon="9.907618918527048"><ele>64.0</ele><time>2026-03-22T10:48:54.999Z</time></trkpt><trkpt lat="44.956818845715546" lon="9.907649112751903"><ele>64.0</ele><time>2026-03-22T10:48:55.999Z</time></trkpt><trkpt lat="44.95688918031846" lon="9.907679359348943"><ele>64.0</ele><time>2026-03-22T10:48:56.999Z</time></trkpt><trkpt lat="44.95695708299181" lon="9.907711418024816"><ele>63.99999999999999</ele><time>2026-03-22T10:48:57.999Z</time></trkpt><trkpt lat="44.957024560406325" lon="9.907744055896456"><ele>64.0</ele><time>2026-03-22T10:48:58.999Z</time></trkpt><trkpt lat="44.95709519287897" lon="9.907777008741878"><ele>64.0</ele><time>2026-03-22T10:48:59.999Z</time></trkpt><trkpt lat="44.957165029230254" lon="9.907803913397087"><ele>63.99999999999999</ele><time>2026-03-22T10:49:00.999Z</time></trkpt><trkpt lat="44.95723388914562" lon="9.907833879042881"><ele>64.0</ele><time>2026-03-22T10:49:01.999Z</time></trkpt><trkpt lat="44.95730294867628" lon="9.907863656438334"><ele>64.0</ele><time>2026-03-22T10:49:02.999Z</time></trkpt><trkpt lat="44.95737465161781" lon="9.907894013981483"><ele>63.99999999999999</ele><time>2026-03-22T10:49:03.999Z</time></trkpt><trkpt lat="44.957442569359884" lon="9.90792423191412"><ele>64.0</ele><time>2026-03-22T10:49:04.999Z</time></trkpt><trkpt lat="44.95751372355976" lon="9.907956650517763"><ele>64.0</ele><time>2026-03-22T10:49:05.999Z</time></trkpt><trkpt lat="44.95758280562705" lon="9.907989475855228"><ele>64.0</ele><time>2026-03-22T10:49:06.999Z</time></trkpt><trkpt lat="44.95765554752147" lon="9.908020162733344"><ele>63.99999999999999</ele><time>2026-03-22T10:49:07.999Z</time></trkpt><trkpt lat="44.95772786287359" lon="9.90805329168314"><ele>64.0</ele><time>2026-03-22T10:49:08.999Z</time></trkpt><trkpt lat="44.957803538122256" lon="9.908087382388302"><ele>63.99999999999999</ele><time>2026-03-22T10:49:09.999Z</time></trkpt><trkpt lat="44.957881276967655" lon="9.9081207720738"><ele>64.0</ele><time>2026-03-22T10:49:10.999Z</time></trkpt><trkpt lat="44.95795989952149" lon="9.908156006044099"><ele>64.0</ele><time>2026-03-22T10:49:11.999Z</time></trkpt><trkpt lat="44.958042538601184" lon="9.908187748947729"><ele>64.0</ele><time>2026-03-22T10:49:12.999Z</time></trkpt><trkpt lat="44.95812608367106" lon="9.908225654216112"><ele>63.99999999999999</ele><time>2026-03-22T10:49:13.999Z</time></trkpt><trkpt lat="44.9582119835672" lon="9.908263083847887"><ele>64.0</ele><time>2026-03-22T10:49:14.999Z</time></trkpt><trkpt lat="44.95829785654819" lon="9.90829926477594"><ele>64.0</ele><time>2026-03-22T10:49:15.999Z</time></trkpt><trkpt lat="44.95838732613279" lon="9.908339836779474"><ele>64.0</ele><time>2026-03-22T10:49:16.999Z</time></trkpt><trkpt lat="44.95847620634844" lon="9.908378944901328"><ele>64.0</ele><time>2026-03-22T10:49:17.999Z</time></trkpt><trkpt lat="44.95856764952525" lon="9.90842397897777"><ele>64.0</ele><time>2026-03-22T10:49:18.999Z</time></trkpt><trkpt lat="44.958662194839164" lon="9.908464207522437"><ele>64.0</ele><time>2026-03-22T10:49:19.999Z</time></trkpt><trkpt lat="44.958756828348754" lon="9.908502214832001"><ele>64.0</ele><time>2026-03-22T10:49:20.999Z</time></trkpt><trkpt lat="44.95885117675399" lon="9.908547699549853"><ele>64.0</ele><time>2026-03-22T10:49:21.999Z</time></trkpt><trkpt lat="44.958946105580736" lon="9.90859045261496"><ele>64.0</ele><time>2026-03-22T10:49:22.999Z</time></trkpt><trkpt lat="44.959044931179996" lon="9.908635388300684"><ele>64.0</ele><time>2026-03-22T10:49:23.999Z</time></trkpt><trkpt lat="44.959140680803806" lon="9.908678017936738"><ele>64.0</ele><time>2026-03-22T10:49:24.999Z</time></trkpt><trkpt lat="44.959240909449946" lon="9.908721078439477"><ele>64.2</ele><time>2026-03-22T10:49:25.999Z</time></trkpt><trkpt lat="44.959341114704856" lon="9.908763608854793"><ele>64.4</ele><time>2026-03-22T10:49:26.999Z</time></trkpt><trkpt lat="44.95944045272075" lon="9.908806272837142"><ele>64.6</ele><time>2026-03-22T10:49:27.999Z</time></trkpt><trkpt lat="44.95953655348606" lon="9.90884829096417"><ele>64.8</ele><time>2026-03-22T10:49:28.999Z</time></trkpt><trkpt lat="44.95963110710882" lon="9.908889753671406"><ele>65.0</ele><time>2026-03-22T10:49:29.999Z</time></trkpt><trkpt lat="44.95971883025987" lon="9.908928264925652"><ele>65.0</ele><time>2026-03-22T10:49:30.998Z</time></trkpt><trkpt lat="44.959804513162446" lon="9.908967114196525"><ele>65.0</ele><time>2026-03-22T10:49:31.998Z</time></trkpt><trkpt lat="44.95988632870279" lon="9.909009120850069"><ele>65.0</ele><time>2026-03-22T10:49:32.998Z</time></trkpt><trkpt lat="44.95996765664825" lon="9.909051285972902"><ele>65.0</ele><time>2026-03-22T10:49:33.998Z</time></trkpt><trkpt lat="44.96004665112248" lon="9.90909515226911"><ele>65.0</ele><time>2026-03-22T10:49:34.998Z</time></trkpt><trkpt lat="44.96012392648261" lon="9.909142690741525"><ele>65.0</ele><time>2026-03-22T10:49:35.998Z</time></trkpt><trkpt lat="44.96019870652064" lon="9.909194028418161"><ele>64.33333333333334</ele><time>2026-03-22T10:49:36.998Z</time></trkpt><trkpt lat="44.96027132414573" lon="9.909243199881544"><ele>63.66666666666667</ele><time>2026-03-22T10:49:37.998Z</time></trkpt><trkpt lat="44.96034159856403" lon="9.909295658782169"><ele>63.0</ele><time>2026-03-22T10:49:38.998Z</time></trkpt><trkpt lat="44.96041195619888" lon="9.90934583729673"><ele>62.33333333333333</ele><time>2026-03-22T10:49:39.998Z</time></trkpt><trkpt lat="44.960482657819455" lon="9.909397471793485"><ele>61.666666666666664</ele><time>2026-03-22T10:49:40.998Z</time></trkpt><trkpt lat="44.96055185713606" lon="9.909441489654498"><ele>61.0</ele><time>2026-03-22T10:49:41.998Z</time></trkpt><trkpt lat="44.96062098582165" lon="9.909491418242377"><ele>60.99999999999999</ele><time>2026-03-22T10:49:42.998Z</time></trkpt><trkpt lat="44.96068951873569" lon="9.909543560655823"><ele>61.0</ele><time>2026-03-22T10:49:43.998Z</time></trkpt><trkpt lat="44.96075388684984" lon="9.909597827264381"><ele>61.0</ele><time>2026-03-22T10:49:44.998Z</time></trkpt><trkpt lat="44.960819229896885" lon="9.909651684779094"><ele>61.0</ele><time>2026-03-22T10:49:45.998Z</time></trkpt><trkpt lat="44.96088600551084" lon="9.909705518251183"><ele>60.99999999999999</ele><time>2026-03-22T10:49:46.998Z</time></trkpt><trkpt lat="44.960951658382065" lon="9.909761303544613"><ele>61.0</ele><time>2026-03-22T10:49:47.998Z</time></trkpt><trkpt lat="44.96101903072614" lon="9.909819884913553"><ele>61.166666666666664</ele><time>2026-03-22T10:49:48.998Z</time></trkpt><trkpt lat="44.961087581495455" lon="9.909876395567093"><ele>61.33333333333333</ele><time>2026-03-22T10:49:49.998Z</time></trkpt><trkpt lat="44.96115726851231" lon="9.909933212700297"><ele>61.5</ele><time>2026-03-22T10:49:50.998Z</time></trkpt><trkpt lat="44.961229060578525" lon="9.9099947088704"><ele>61.66666666666667</ele><time>2026-03-22T10:49:51.998Z</time></trkpt><trkpt lat="44.96130291872204" lon="9.910056006804002"><ele>61.833333333333336</ele><time>2026-03-22T10:49:52.998Z</time></trkpt><trkpt lat="44.961376543651475" lon="9.910119575738939"><ele>62.0</ele><time>2026-03-22T10:49:53.998Z</time></trkpt><trkpt lat="44.96145433687743" lon="9.910181945438039"><ele>61.6</ele><time>2026-03-22T10:49:54.998Z</time></trkpt><trkpt lat="44.96153284173069" lon="9.910251121109752"><ele>61.2</ele><time>2026-03-22T10:49:55.998Z</time></trkpt><trkpt lat="44.96160903600018" lon="9.910319746903658"><ele>60.8</ele><time>2026-03-22T10:49:56.998Z</time></trkpt><trkpt lat="44.96168726986899" lon="9.910386004302124"><ele>60.4</ele><time>2026-03-22T10:49:57.998Z</time></trkpt><trkpt lat="44.96176785180074" lon="9.910453589645668"><ele>60.0</ele><time>2026-03-22T10:49:58.998Z</time></trkpt><trkpt lat="44.96184886126833" lon="9.910516729961717"><ele>60.0</ele><time>2026-03-22T10:49:59.998Z</time></trkpt><trkpt lat="44.96193210157146" lon="9.910584318767267"><ele>60.0</ele><time>2026-03-22T10:50:00.998Z</time></trkpt><trkpt lat="44.96201554772894" lon="9.910649792115779"><ele>60.0</ele><time>2026-03-22T10:50:01.998Z</time></trkpt><trkpt lat="44.962100823623636" lon="9.910712323888141"><ele>60.0</ele><time>2026-03-22T10:50:03Z</time></trkpt><trkpt lat="44.96218674716683" lon="9.910774299269958"><ele>60.0</ele><time>2026-03-22T10:50:04Z</time></trkpt><trkpt lat="44.96227492902503" lon="9.91083510235618"><ele>60.0</ele><time>2026-03-22T10:50:05Z</time></trkpt><trkpt lat="44.96236664238437" lon="9.910892452686122"><ele>60.0</ele><time>2026-03-22T10:50:06Z</time></trkpt><trkpt lat="44.96245740016691" lon="9.910949425152209"><ele>60.0</ele><time>2026-03-22T10:50:07Z</time></trkpt><trkpt lat="44.9625475851793" lon="9.911003909443389"><ele>60.0</ele><time>2026-03-22T10:50:08Z</time></trkpt><trkpt lat="44.96263730360153" lon="9.911068044401603"><ele>60.0</ele><time>2026-03-22T10:50:09Z</time></trkpt><trkpt lat="44.96272717407773" lon="9.911129688120658"><ele>59.6</ele><time>2026-03-22T10:50:10Z</time></trkpt><trkpt lat="44.96281784468307" lon="9.911195215494603"><ele>59.2</ele><time>2026-03-22T10:50:11Z</time></trkpt><trkpt lat="44.96290567253223" lon="9.91126387852567"><ele>58.8</ele><time>2026-03-22T10:50:12Z</time></trkpt><trkpt lat="44.962999487385744" lon="9.911331597601967"><ele>58.4</ele><time>2026-03-22T10:50:13Z</time></trkpt><trkpt lat="44.96308675702747" lon="9.911394325710289"><ele>58.0</ele><time>2026-03-22T10:50:14Z</time></trkpt><trkpt lat="44.96317687856808" lon="9.911455549015185"><ele>58.0</ele><time>2026-03-22T10:50:15Z</time></trkpt><trkpt lat="44.96326487292428" lon="9.91152122044106"><ele>58.0</ele><time>2026-03-22T10:50:16Z</time></trkpt><trkpt lat="44.96335098302039" lon="9.911583698897546"><ele>58.0</ele><time>2026-03-22T10:50:17Z</time></trkpt><trkpt lat="44.96343507680971" lon="9.91164364745423"><ele>58.0</ele><time>2026-03-22T10:50:18Z</time></trkpt><trkpt lat="44.9635194972607" lon="9.911706493475553"><ele>58.0</ele><time>2026-03-22T10:50:19Z</time></trkpt><trkpt lat="44.96360253067218" lon="9.911769604182549"><ele>58.4</ele><time>2026-03-22T10:50:20Z</time></trkpt><trkpt lat="44.96368554701298" lon="9.911830055487634"><ele>58.8</ele><time>2026-03-22T10:50:21Z</time></trkpt><trkpt lat="44.963768935186145" lon="9.911890533901348"><ele>59.2</ele><time>2026-03-22T10:50:22Z</time></trkpt><trkpt lat="44.96385050875664" lon="9.911946082830955"><ele>59.6</ele><time>2026-03-22T10:50:23Z</time></trkpt><trkpt lat="44.96393416527586" lon="9.912007189875059"><ele>60.0</ele><time>2026-03-22T10:50:24Z</time></trkpt><trkpt lat="44.964016110636706" lon="9.912064024676168"><ele>60.0</ele><time>2026-03-22T10:50:25Z</time></trkpt><trkpt lat="44.96409882356326" lon="9.912122474327388"><ele>60.0</ele><time>2026-03-22T10:50:26Z</time></trkpt><trkpt lat="44.96418191295194" lon="9.9121749886697"><ele>60.0</ele><time>2026-03-22T10:50:27Z</time></trkpt><trkpt lat="44.96426555417866" lon="9.912233781107028"><ele>60.0</ele><time>2026-03-22T10:50:28Z</time></trkpt><trkpt lat="44.96434770560174" lon="9.912289410683272"><ele>60.0</ele><time>2026-03-22T10:50:29Z</time></trkpt><trkpt lat="44.96442895928267" lon="9.912348891822727"><ele>60.2</ele><time>2026-03-22T10:50:30Z</time></trkpt><trkpt lat="44.96451138770305" lon="9.912407339609622"><ele>60.4</ele><time>2026-03-22T10:50:31Z</time></trkpt><trkpt lat="44.964593352226615" lon="9.912465326380149"><ele>60.599999999999994</ele><time>2026-03-22T10:50:32Z</time></trkpt><trkpt lat="44.96467490221803" lon="9.912520858706191"><ele>60.8</ele><time>2026-03-22T10:50:33Z</time></trkpt><trkpt lat="44.96475632199442" lon="9.912578893984188"><ele>61.0</ele><time>2026-03-22T10:50:34Z</time></trkpt><trkpt lat="44.964836930015814" lon="9.912638650854923"><ele>60.199999999999996</ele><time>2026-03-22T10:50:35Z</time></trkpt><trkpt lat="44.964919310713775" lon="9.91269640681738"><ele>59.39999999999999</ele><time>2026-03-22T10:50:36Z</time></trkpt><trkpt lat="44.9650019914061" lon="9.912754946662908"><ele>58.6</ele><time>2026-03-22T10:50:37Z</time></trkpt><trkpt lat="44.965083204254995" lon="9.91281409444796"><ele>57.8</ele><time>2026-03-22T10:50:38Z</time></trkpt><trkpt lat="44.965164973627175" lon="9.912873139589978"><ele>57.0</ele><time>2026-03-22T10:50:39Z</time></trkpt><trkpt lat="44.96524718962599" lon="9.912930697962546"><ele>57.0</ele><time>2026-03-22T10:50:40Z</time></trkpt><trkpt lat="44.96532967078284" lon="9.912990162247192"><ele>57.0</ele><time>2026-03-22T10:50:40.999Z</time></trkpt><trkpt lat="44.9654121927418" lon="9.913047498614596"><ele>57.0</ele><time>2026-03-22T10:50:41.999Z</time></trkpt><trkpt lat="44.965494700487824" lon="9.913106387750458"><ele>57.0</ele><time>2026-03-22T10:50:42.999Z</time></trkpt><trkpt lat="44.965577522391065" lon="9.913165713118426"><ele>57.0</ele><time>2026-03-22T10:50:43.999Z</time></trkpt><trkpt lat="44.96566080789903" lon="9.913224680082863"><ele>57.0</ele><time>2026-03-22T10:50:44.999Z</time></trkpt><trkpt lat="44.96574366812889" lon="9.913284620164479"><ele>57.0</ele><time>2026-03-22T10:50:45.999Z</time></trkpt><trkpt lat="44.9658265141374" lon="9.913343143616766"><ele>57.0</ele><time>2026-03-22T10:50:46.999Z</time></trkpt><trkpt lat="44.965909460701944" lon="9.913400506761981"><ele>57.0</ele><time>2026-03-22T10:50:47.999Z</time></trkpt><trkpt lat="44.965992033878145" lon="9.913458064928852"><ele>57.0</ele><time>2026-03-22T10:50:48.999Z</time></trkpt><trkpt lat="44.96607512297575" lon="9.913519897307559"><ele>57.2</ele><time>2026-03-22T10:50:49.999Z</time></trkpt><trkpt lat="44.966157507230015" lon="9.913577520224914"><ele>57.400000000000006</ele><time>2026-03-22T10:50:50.999Z</time></trkpt><trkpt lat="44.96623842096739" lon="9.9136334249061"><ele>57.599999999999994</ele><time>2026-03-22T10:50:51.999Z</time></trkpt><trkpt lat="44.96632033950765" lon="9.913690695294786"><ele>57.8</ele><time>2026-03-22T10:50:52.999Z</time></trkpt><trkpt lat="44.966402183197985" lon="9.913748487860044"><ele>58.0</ele><time>2026-03-22T10:50:53.999Z</time></trkpt><trkpt lat="44.966483147327075" lon="9.913806790267047"><ele>58.0</ele><time>2026-03-22T10:50:54.999Z</time></trkpt><trkpt lat="44.96656474144342" lon="9.913864670242738"><ele>58.0</ele><time>2026-03-22T10:50:55.999Z</time></trkpt><trkpt lat="44.966645264868816" lon="9.913921906304614"><ele>58.0</ele><time>2026-03-22T10:50:56.999Z</time></trkpt><trkpt lat="44.966725917664796" lon="9.913979055701654"><ele>58.0</ele><time>2026-03-22T10:50:57.999Z</time></trkpt><trkpt lat="44.966806637568396" lon="9.914037151553613"><ele>58.0</ele><time>2026-03-22T10:50:58.999Z</time></trkpt><trkpt lat="44.966887175447305" lon="9.914096499285815"><ele>57.83333333333333</ele><time>2026-03-22T10:50:59.999Z</time></trkpt><trkpt lat="44.96696772436558" lon="9.914154664300547"><ele>57.666666666666664</ele><time>2026-03-22T10:51:00.999Z</time></trkpt><trkpt lat="44.967048336325604" lon="9.914211369737297"><ele>57.5</ele><time>2026-03-22T10:51:01.999Z</time></trkpt><trkpt lat="44.96712869692426" lon="9.914268737206877"><ele>57.33333333333333</ele><time>2026-03-22T10:51:02.999Z</time></trkpt><trkpt lat="44.96720832889437" lon="9.91432473264495"><ele>57.166666666666664</ele><time>2026-03-22T10:51:03.999Z</time></trkpt><trkpt lat="44.96728696959431" lon="9.914379694247723"><ele>57.0</ele><time>2026-03-22T10:51:04.999Z</time></trkpt><trkpt lat="44.96736551744429" lon="9.91443508745531"><ele>57.0</ele><time>2026-03-22T10:51:05.999Z</time></trkpt><trkpt lat="44.967444212421235" lon="9.914491076144406"><ele>57.0</ele><time>2026-03-22T10:51:06.999Z</time></trkpt><trkpt lat="44.96752238129258" lon="9.91454208114865"><ele>57.0</ele><time>2026-03-22T10:51:07.999Z</time></trkpt><trkpt lat="44.96760054819462" lon="9.914598053254776"><ele>57.0</ele><time>2026-03-22T10:51:08.999Z</time></trkpt><trkpt lat="44.96767752252097" lon="9.914655555017866"><ele>57.0</ele><time>2026-03-22T10:51:09.999Z</time></trkpt><trkpt lat="44.9677529587469" lon="9.91471044112806"><ele>57.0</ele><time>2026-03-22T10:51:10.999Z</time></trkpt><trkpt lat="44.96782951592429" lon="9.914765223855442"><ele>57.0</ele><time>2026-03-22T10:51:11.999Z</time></trkpt><trkpt lat="44.96790566571322" lon="9.91481935942272"><ele>57.0</ele><time>2026-03-22T10:51:12.999Z</time></trkpt><trkpt lat="44.967981765990224" lon="9.914872479486563"><ele>57.0</ele><time>2026-03-22T10:51:13.999Z</time></trkpt><trkpt lat="44.968056037833016" lon="9.914925584257317"><ele>57.0</ele><time>2026-03-22T10:51:14.999Z</time></trkpt><trkpt lat="44.968131274825836" lon="9.914979349708814"><ele>57.0</ele><time>2026-03-22T10:51:15.999Z</time></trkpt><trkpt lat="44.968206432533094" lon="9.915033488058244"><ele>57.0</ele><time>2026-03-22T10:51:16.999Z</time></trkpt><trkpt lat="44.96828093634174" lon="9.91508739206526"><ele>56.833333333333336</ele><time>2026-03-22T10:51:17.999Z</time></trkpt><trkpt lat="44.968355004863746" lon="9.915139209023268"><ele>56.66666666666667</ele><time>2026-03-22T10:51:18.999Z</time></trkpt><trkpt lat="44.96843019981597" lon="9.915194629083494"><ele>56.5</ele><time>2026-03-22T10:51:19.999Z</time></trkpt><trkpt lat="44.96850439102038" lon="9.91524477409922"><ele>56.333333333333336</ele><time>2026-03-22T10:51:20.999Z</time></trkpt><trkpt lat="44.96857964178822" lon="9.91529878623572"><ele>56.16666666666667</ele><time>2026-03-22T10:51:21.999Z</time></trkpt><trkpt lat="44.968654098956144" lon="9.915349622876143"><ele>56.0</ele><time>2026-03-22T10:51:22.999Z</time></trkpt><trkpt lat="44.96872881163621" lon="9.915403676725221"><ele>55.50000000000001</ele><time>2026-03-22T10:51:23.999Z</time></trkpt><trkpt lat="44.96880430878901" lon="9.915456210203775"><ele>55.0</ele><time>2026-03-22T10:51:24.999Z</time></trkpt><trkpt lat="44.96888072252702" lon="9.915510179654486"><ele>54.5</ele><time>2026-03-22T10:51:25.999Z</time></trkpt><trkpt lat="44.968956152120214" lon="9.915563770829209"><ele>54.0</ele><time>2026-03-22T10:51:26.999Z</time></trkpt><trkpt lat="44.96903234150044" lon="9.915619809468119"><ele>53.50000000000001</ele><time>2026-03-22T10:51:27.999Z</time></trkpt><trkpt lat="44.96910871248562" lon="9.915673831274393"><ele>53.0</ele><time>2026-03-22T10:51:28.999Z</time></trkpt><trkpt lat="44.969185618402975" lon="9.915730812384961"><ele>53.66666666666667</ele><time>2026-03-22T10:51:29.999Z</time></trkpt><trkpt lat="44.96926050784379" lon="9.915784730353543"><ele>54.333333333333336</ele><time>2026-03-22T10:51:30.999Z</time></trkpt><trkpt lat="44.96933689821057" lon="9.91583460231385"><ele>55.0</ele><time>2026-03-22T10:51:31.999Z</time></trkpt><trkpt lat="44.96941251327459" lon="9.915888425919505"><ele>55.66666666666667</ele><time>2026-03-22T10:51:32.999Z</time></trkpt><trkpt lat="44.969486666825965" lon="9.91594063350122"><ele>56.333333333333336</ele><time>2026-03-22T10:51:33.998Z</time></trkpt><trkpt lat="44.96956101221204" lon="9.915994148314537"><ele>57.0</ele><time>2026-03-22T10:51:34.998Z</time></trkpt><trkpt lat="44.96963601732561" lon="9.916046511717333"><ele>57.0</ele><time>2026-03-22T10:51:35.998Z</time></trkpt><trkpt lat="44.96971114482405" lon="9.916099668819014"><ele>57.0</ele><time>2026-03-22T10:51:36.998Z</time></trkpt><trkpt lat="44.96978656135341" lon="9.91615380851288"><ele>57.0</ele><time>2026-03-22T10:51:37.998Z</time></trkpt><trkpt lat="44.96986175226388" lon="9.916209294468613"><ele>57.0</ele><time>2026-03-22T10:51:38.998Z</time></trkpt><trkpt lat="44.969938303487076" lon="9.91626062978684"><ele>57.0</ele><time>2026-03-22T10:51:39.998Z</time></trkpt><trkpt lat="44.97001386183169" lon="9.916313757545392"><ele>57.0</ele><time>2026-03-22T10:51:40.998Z</time></trkpt><trkpt lat="44.97008946956067" lon="9.916366850474532"><ele>56.833333333333336</ele><time>2026-03-22T10:51:41.998Z</time></trkpt><trkpt lat="44.970166832005695" lon="9.916420966907332"><ele>56.66666666666667</ele><time>2026-03-22T10:51:42.998Z</time></trkpt><trkpt lat="44.97024167782326" lon="9.916476272302008"><ele>56.5</ele><time>2026-03-22T10:51:43.998Z</time></trkpt><trkpt lat="44.97031855749217" lon="9.916532013968169"><ele>56.333333333333336</ele><time>2026-03-22T10:51:44.998Z</time></trkpt><trkpt lat="44.97039652374224" lon="9.916585227276387"><ele>56.16666666666667</ele><time>2026-03-22T10:51:45.998Z</time></trkpt><trkpt lat="44.970472693773864" lon="9.916639810261689"><ele>56.0</ele><time>2026-03-22T10:51:46.998Z</time></trkpt><trkpt lat="44.970548397888585" lon="9.916694236812415"><ele>56.00000000000001</ele><time>2026-03-22T10:51:47.998Z</time></trkpt><trkpt lat="44.97062577199754" lon="9.91674733385614"><ele>56.0</ele><time>2026-03-22T10:51:48.998Z</time></trkpt><trkpt lat="44.9707016336723" lon="9.91680075953"><ele>56.0</ele><time>2026-03-22T10:51:49.998Z</time></trkpt><trkpt lat="44.970779281994766" lon="9.916855390982837"><ele>56.0</ele><time>2026-03-22T10:51:50.998Z</time></trkpt><trkpt lat="44.97085761210607" lon="9.916909607920735"><ele>56.00000000000001</ele><time>2026-03-22T10:51:51.998Z</time></trkpt><trkpt lat="44.97093557178028" lon="9.916965115538641"><ele>56.0</ele><time>2026-03-22T10:51:52.998Z</time></trkpt><trkpt lat="44.97101063723584" lon="9.917022777496074"><ele>56.16666666666667</ele><time>2026-03-22T10:51:53.998Z</time></trkpt><trkpt lat="44.97108696557671" lon="9.917081725003468"><ele>56.333333333333336</ele><time>2026-03-22T10:51:54.998Z</time></trkpt><trkpt lat="44.97116535618483" lon="9.917135986194133"><ele>56.5</ele><time>2026-03-22T10:51:55.998Z</time></trkpt><trkpt lat="44.971244496778965" lon="9.917190965886164"><ele>56.66666666666667</ele><time>2026-03-22T10:51:56.998Z</time></trkpt><trkpt lat="44.9713211604845" lon="9.917244147241382"><ele>56.833333333333336</ele><time>2026-03-22T10:51:57.998Z</time></trkpt><trkpt lat="44.97139999842824" lon="9.917301821058691"><ele>57.0</ele><time>2026-03-22T10:51:58.998Z</time></trkpt><trkpt lat="44.97147646057702" lon="9.917359336741814"><ele>57.0</ele><time>2026-03-22T10:51:59.998Z</time></trkpt><trkpt lat="44.97155486670656" lon="9.917413460466706"><ele>57.0</ele><time>2026-03-22T10:52:00.998Z</time></trkpt><trkpt lat="44.97163174363473" lon="9.9174701158629"><ele>57.0</ele><time>2026-03-22T10:52:01.998Z</time></trkpt><trkpt lat="44.97170995571252" lon="9.917522774478371"><ele>57.0</ele><time>2026-03-22T10:52:02.998Z</time></trkpt><trkpt lat="44.97178693669731" lon="9.917576502511228"><ele>57.0</ele><time>2026-03-22T10:52:03.998Z</time></trkpt><trkpt lat="44.97186500299157" lon="9.91763102546373"><ele>57.0</ele><time>2026-03-22T10:52:04.998Z</time></trkpt><trkpt lat="44.971942136157075" lon="9.91769114401545"><ele>55.166666666666664</ele><time>2026-03-22T10:52:05.998Z</time></trkpt><trkpt lat="44.97201854335505" lon="9.917746142424742"><ele>53.333333333333336</ele><time>2026-03-22T10:52:06.998Z</time></trkpt><trkpt lat="44.972094604094714" lon="9.917805900251489"><ele>51.5</ele><time>2026-03-22T10:52:07.998Z</time></trkpt><trkpt lat="44.972170307954244" lon="9.917873989201487"><ele>49.66666666666667</ele><time>2026-03-22T10:52:09Z</time></trkpt><trkpt lat="44.972246465679454" lon="9.917929049449718"><ele>47.833333333333336</ele><time>2026-03-22T10:52:10Z</time></trkpt><trkpt lat="44.97232260480844" lon="9.91799524766248"><ele>46.0</ele><time>2026-03-22T10:52:11Z</time></trkpt><trkpt lat="44.9723981235365" lon="9.91805341239798"><ele>46.0</ele><time>2026-03-22T10:52:12Z</time></trkpt><trkpt lat="44.972475323079856" lon="9.91811347289111"><ele>46.0</ele><time>2026-03-22T10:52:13Z</time></trkpt><trkpt lat="44.97255379341859" lon="9.91817663286515"><ele>46.0</ele><time>2026-03-22T10:52:14Z</time></trkpt><trkpt lat="44.97263033172082" lon="9.918231245471949"><ele>46.0</ele><time>2026-03-22T10:52:15Z</time></trkpt><trkpt lat="44.972710544916424" lon="9.918289899801605"><ele>46.0</ele><time>2026-03-22T10:52:16Z</time></trkpt><trkpt lat="44.97278666804426" lon="9.918342315541306"><ele>46.0</ele><time>2026-03-22T10:52:17Z</time></trkpt><trkpt lat="44.97286751894392" lon="9.918400368200377"><ele>46.833333333333336</ele><time>2026-03-22T10:52:18Z</time></trkpt><trkpt lat="44.97294533643262" lon="9.918454457905002"><ele>47.66666666666667</ele><time>2026-03-22T10:52:19Z</time></trkpt><trkpt lat="44.97302460655375" lon="9.918509520728415"><ele>48.5</ele><time>2026-03-22T10:52:20Z</time></trkpt><trkpt lat="44.973102901579544" lon="9.91856356059998"><ele>49.333333333333336</ele><time>2026-03-22T10:52:21Z</time></trkpt><trkpt lat="44.97318158280578" lon="9.91861930868537"><ele>50.166666666666664</ele><time>2026-03-22T10:52:22Z</time></trkpt><trkpt lat="44.97326061921" lon="9.918676545344242"><ele>51.0</ele><time>2026-03-22T10:52:23Z</time></trkpt><trkpt lat="44.97333870533947" lon="9.918727951249195"><ele>51.0</ele><time>2026-03-22T10:52:24Z</time></trkpt><trkpt lat="44.97341668033881" lon="9.91878578732849"><ele>51.0</ele><time>2026-03-22T10:52:25Z</time></trkpt><trkpt lat="44.97349440327879" lon="9.918835634355485"><ele>51.0</ele><time>2026-03-22T10:52:26Z</time></trkpt><trkpt lat="44.97357318567616" lon="9.91889157452321"><ele>51.0</ele><time>2026-03-22T10:52:27Z</time></trkpt><trkpt lat="44.973652505727735" lon="9.91894383671836"><ele>51.0</ele><time>2026-03-22T10:52:28Z</time></trkpt><trkpt lat="44.97373351821426" lon="9.918992380770078"><ele>51.0</ele><time>2026-03-22T10:52:29Z</time></trkpt><trkpt lat="44.97381441896933" lon="9.919045086634423"><ele>51.0</ele><time>2026-03-22T10:52:30Z</time></trkpt><trkpt lat="44.97389284515554" lon="9.91909348462879"><ele>51.0</ele><time>2026-03-22T10:52:31Z</time></trkpt><trkpt lat="44.97397345295613" lon="9.919150005203546"><ele>51.0</ele><time>2026-03-22T10:52:32Z</time></trkpt><trkpt lat="44.97405212460847" lon="9.919202715886373"><ele>51.0</ele><time>2026-03-22T10:52:33Z</time></trkpt><trkpt lat="44.974132704736824" lon="9.919258074490285"><ele>51.0</ele><time>2026-03-22T10:52:34Z</time></trkpt><trkpt lat="44.97421182734926" lon="9.919314864470278"><ele>51.0</ele><time>2026-03-22T10:52:35Z</time></trkpt><trkpt lat="44.97429109957035" lon="9.919369736276076"><ele>51.333333333333336</ele><time>2026-03-22T10:52:36Z</time></trkpt><trkpt lat="44.9743706156226" lon="9.919427506101401"><ele>51.66666666666667</ele><time>2026-03-22T10:52:37Z</time></trkpt><trkpt lat="44.9744501748679" lon="9.919483268625303"><ele>52.0</ele><time>2026-03-22T10:52:38Z</time></trkpt><trkpt lat="44.974528276322054" lon="9.919542489653596"><ele>52.333333333333336</ele><time>2026-03-22T10:52:39Z</time></trkpt><trkpt lat="44.97460521425702" lon="9.91959616064657"><ele>52.66666666666667</ele><time>2026-03-22T10:52:40Z</time></trkpt><trkpt lat="44.97468567481563" lon="9.91965135179503"><ele>53.0</ele><time>2026-03-22T10:52:41Z</time></trkpt><trkpt lat="44.9747640040723" lon="9.919706490595543"><ele>53.00000000000001</ele><time>2026-03-22T10:52:42Z</time></trkpt><trkpt lat="44.974842973702486" lon="9.919762450886447"><ele>53.0</ele><time>2026-03-22T10:52:43Z</time></trkpt><trkpt lat="44.97492189222974" lon="9.919820624649496"><ele>53.0</ele><time>2026-03-22T10:52:44Z</time></trkpt><trkpt lat="44.974999197901305" lon="9.919874828771297"><ele>53.0</ele><time>2026-03-22T10:52:45Z</time></trkpt><trkpt lat="44.975077815936544" lon="9.919931097539996"><ele>53.00000000000001</ele><time>2026-03-22T10:52:45.999Z</time></trkpt><trkpt lat="44.97515490094315" lon="9.919985751328586"><ele>53.0</ele><time>2026-03-22T10:52:46.999Z</time></trkpt><trkpt lat="44.97523461726428" lon="9.92004433008285"><ele>53.00000000000001</ele><time>2026-03-22T10:52:47.999Z</time></trkpt><trkpt lat="44.97531366909262" lon="9.92010102260951"><ele>53.0</ele><time>2026-03-22T10:52:48.999Z</time></trkpt><trkpt lat="44.97539218934654" lon="9.920156160724062"><ele>53.0</ele><time>2026-03-22T10:52:49.999Z</time></trkpt><trkpt lat="44.975470728935434" lon="9.920212829556897"><ele>53.0</ele><time>2026-03-22T10:52:50.999Z</time></trkpt><trkpt lat="44.97554917427887" lon="9.920269386164728"><ele>53.00000000000001</ele><time>2026-03-22T10:52:51.999Z</time></trkpt><trkpt lat="44.97562801614337" lon="9.920326128341717"><ele>53.0</ele><time>2026-03-22T10:52:52.999Z</time></trkpt><trkpt lat="44.975707073880365" lon="9.920380916526454"><ele>53.00000000000001</ele><time>2026-03-22T10:52:53.999Z</time></trkpt><trkpt lat="44.97578506321212" lon="9.920437287746415"><ele>53.0</ele><time>2026-03-22T10:52:54.999Z</time></trkpt><trkpt lat="44.975862834657555" lon="9.920493550270574"><ele>53.0</ele><time>2026-03-22T10:52:55.999Z</time></trkpt><trkpt lat="44.97594106458494" lon="9.920550947284973"><ele>53.0</ele><time>2026-03-22T10:52:56.999Z</time></trkpt><trkpt lat="44.97601890702367" lon="9.920606054271751"><ele>53.00000000000001</ele><time>2026-03-22T10:52:57.999Z</time></trkpt><trkpt lat="44.97609727441245" lon="9.920662614868464"><ele>53.0</ele><time>2026-03-22T10:52:58.999Z</time></trkpt><trkpt lat="44.976174168249266" lon="9.920717703201813"><ele>53.00000000000001</ele><time>2026-03-22T10:52:59.999Z</time></trkpt><trkpt lat="44.97625350386307" lon="9.920771937176317"><ele>53.0</ele><time>2026-03-22T10:53:00.999Z</time></trkpt><trkpt lat="44.976332940529595" lon="9.9208315297107"><ele>53.0</ele><time>2026-03-22T10:53:01.999Z</time></trkpt><trkpt lat="44.97641101901664" lon="9.920887274283194"><ele>53.0</ele><time>2026-03-22T10:53:02.999Z</time></trkpt><trkpt lat="44.97649086365505" lon="9.920946641504148"><ele>53.00000000000001</ele><time>2026-03-22T10:53:03.999Z</time></trkpt><trkpt lat="44.976569237827924" lon="9.9210022670764"><ele>53.0</ele><time>2026-03-22T10:53:04.999Z</time></trkpt><trkpt lat="44.976648177154836" lon="9.921059557194914"><ele>53.00000000000001</ele><time>2026-03-22T10:53:05.999Z</time></trkpt><trkpt lat="44.97672804395172" lon="9.921113940626086"><ele>53.0</ele><time>2026-03-22T10:53:06.999Z</time></trkpt><trkpt lat="44.976807968658875" lon="9.921168713296654"><ele>53.0</ele><time>2026-03-22T10:53:07.999Z</time></trkpt><trkpt lat="44.976886738941445" lon="9.921225685176287"><ele>53.0</ele><time>2026-03-22T10:53:08.999Z</time></trkpt><trkpt lat="44.97696594603534" lon="9.921283057775428"><ele>53.00000000000001</ele><time>2026-03-22T10:53:09.999Z</time></trkpt><trkpt lat="44.97704468318699" lon="9.92133829198193"><ele>53.0</ele><time>2026-03-22T10:53:10.999Z</time></trkpt><trkpt lat="44.977123901533176" lon="9.921395111123887"><ele>53.00000000000001</ele><time>2026-03-22T10:53:11.999Z</time></trkpt><trkpt lat="44.977201968377386" lon="9.921450418170314"><ele>53.0</ele><time>2026-03-22T10:53:12.999Z</time></trkpt><trkpt lat="44.97728093515888" lon="9.921508908846988"><ele>53.0</ele><time>2026-03-22T10:53:13.999Z</time></trkpt><trkpt lat="44.977359730208455" lon="9.921564270915267"><ele>53.0</ele><time>2026-03-22T10:53:14.999Z</time></trkpt><trkpt lat="44.97743771694279" lon="9.921620585552464"><ele>53.00000000000001</ele><time>2026-03-22T10:53:15.999Z</time></trkpt><trkpt lat="44.977515800502474" lon="9.921677037690277"><ele>53.0</ele><time>2026-03-22T10:53:16.999Z</time></trkpt><trkpt lat="44.977594332444006" lon="9.92173415433919"><ele>52.833333333333336</ele><time>2026-03-22T10:53:17.999Z</time></trkpt><trkpt lat="44.977673772508915" lon="9.921790983999959"><ele>52.66666666666667</ele><time>2026-03-22T10:53:18.999Z</time></trkpt><trkpt lat="44.97775193847784" lon="9.921845223377654"><ele>52.5</ele><time>2026-03-22T10:53:19.999Z</time></trkpt><trkpt lat="44.97783033102655" lon="9.92190018473325"><ele>52.33333333333333</ele><time>2026-03-22T10:53:20.999Z</time></trkpt><trkpt lat="44.9779087468046" lon="9.921955961191948"><ele>52.166666666666664</ele><time>2026-03-22T10:53:21.999Z</time></trkpt><trkpt lat="44.97798775858093" lon="9.922011062909311"><ele>52.0</ele><time>2026-03-22T10:53:22.999Z</time></trkpt><trkpt lat="44.97806681322255" lon="9.92206559121942"><ele>51.99999999999999</ele><time>2026-03-22T10:53:23.999Z</time></trkpt><trkpt lat="44.97814595619209" lon="9.922121889872011"><ele>52.0</ele><time>2026-03-22T10:53:24.999Z</time></trkpt><trkpt lat="44.97822413568971" lon="9.922178097107968"><ele>52.0</ele><time>2026-03-22T10:53:25.999Z</time></trkpt><trkpt lat="44.97830268687304" lon="9.922234851650236"><ele>52.0</ele><time>2026-03-22T10:53:26.999Z</time></trkpt><trkpt lat="44.9783804565976" lon="9.922291363518136"><ele>51.99999999999999</ele><time>2026-03-22T10:53:27.999Z</time></trkpt><trkpt lat="44.978459600109105" lon="9.922347563633284"><ele>52.0</ele><time>2026-03-22T10:53:28.999Z</time></trkpt><trkpt lat="44.978537742582915" lon="9.922405525760954"><ele>51.83333333333333</ele><time>2026-03-22T10:53:29.999Z</time></trkpt><trkpt lat="44.978617335830144" lon="9.922461909394096"><ele>51.666666666666664</ele><time>2026-03-22T10:53:30.999Z</time></trkpt><trkpt lat="44.978697501323005" lon="9.92251801293094"><ele>51.5</ele><time>2026-03-22T10:53:31.999Z</time></trkpt><trkpt lat="44.97877737643552" lon="9.922574644053556"><ele>51.33333333333333</ele><time>2026-03-22T10:53:32.999Z</time></trkpt><trkpt lat="44.97885513978606" lon="9.922629642211136"><ele>51.166666666666664</ele><time>2026-03-22T10:53:33.999Z</time></trkpt><trkpt lat="44.97893363112261" lon="9.92268644314361"><ele>51.0</ele><time>2026-03-22T10:53:34.999Z</time></trkpt><trkpt lat="44.97901204254263" lon="9.922742078011272"><ele>51.0</ele><time>2026-03-22T10:53:35.999Z</time></trkpt><trkpt lat="44.979091121343224" lon="9.922800751872487"><ele>51.0</ele><time>2026-03-22T10:53:36.999Z</time></trkpt><trkpt lat="44.97917059907435" lon="9.922856512281976"><ele>51.0</ele><time>2026-03-22T10:53:37.999Z</time></trkpt><trkpt lat="44.97924808222781" lon="9.922910812028427"><ele>51.0</ele><time>2026-03-22T10:53:38.998Z</time></trkpt><trkpt lat="44.9793256424713" lon="9.922967295321365"><ele>51.0</ele><time>2026-03-22T10:53:39.998Z</time></trkpt><trkpt lat="44.97940342651385" lon="9.923023453053325"><ele>51.0</ele><time>2026-03-22T10:53:40.998Z</time></trkpt><trkpt lat="44.97948121096378" lon="9.92307831543707"><ele>51.166666666666664</ele><time>2026-03-22T10:53:41.998Z</time></trkpt><trkpt lat="44.979558299919525" lon="9.923133594983348"><ele>51.33333333333333</ele><time>2026-03-22T10:53:42.998Z</time></trkpt><trkpt lat="44.97963790987864" lon="9.923189824978216"><ele>51.5</ele><time>2026-03-22T10:53:43.998Z</time></trkpt><trkpt lat="44.97971592893873" lon="9.923242510846766"><ele>51.666666666666664</ele><time>2026-03-22T10:53:44.998Z</time></trkpt><trkpt lat="44.97979314377875" lon="9.92329986662738"><ele>51.83333333333333</ele><time>2026-03-22T10:53:45.998Z</time></trkpt><trkpt lat="44.979870995630634" lon="9.923356256801135"><ele>52.0</ele><time>2026-03-22T10:53:46.998Z</time></trkpt><trkpt lat="44.97995035273061" lon="9.923412114148768"><ele>52.166666666666664</ele><time>2026-03-22T10:53:47.998Z</time></trkpt><trkpt lat="44.980029114332105" lon="9.92346785313535"><ele>52.33333333333333</ele><time>2026-03-22T10:53:48.998Z</time></trkpt><trkpt lat="44.98010802843944" lon="9.923523056005896"><ele>52.5</ele><time>2026-03-22T10:53:49.998Z</time></trkpt><trkpt lat="44.98018572858768" lon="9.923579091377848"><ele>52.66666666666667</ele><time>2026-03-22T10:53:50.998Z</time></trkpt><trkpt lat="44.98026354253755" lon="9.923636187602556"><ele>52.833333333333336</ele><time>2026-03-22T10:53:51.998Z</time></trkpt><trkpt lat="44.98034120189601" lon="9.923691057674091"><ele>53.0</ele><time>2026-03-22T10:53:52.998Z</time></trkpt><trkpt lat="44.98041945333564" lon="9.92374437874625"><ele>53.00000000000001</ele><time>2026-03-22T10:53:53.998Z</time></trkpt><trkpt lat="44.9804974509339" lon="9.923801867259321"><ele>53.0</ele><time>2026-03-22T10:53:54.998Z</time></trkpt><trkpt lat="44.98057612926411" lon="9.923853250808666"><ele>53.0</ele><time>2026-03-22T10:53:55.998Z</time></trkpt><trkpt lat="44.98065429230766" lon="9.923907725951238"><ele>53.0</ele><time>2026-03-22T10:53:56.998Z</time></trkpt><trkpt lat="44.98073270616148" lon="9.923964254509963"><ele>53.00000000000001</ele><time>2026-03-22T10:53:57.998Z</time></trkpt><trkpt lat="44.9808112825838" lon="9.924017167388438"><ele>53.0</ele><time>2026-03-22T10:53:58.998Z</time></trkpt><trkpt lat="44.980888584034425" lon="9.924070373278806"><ele>52.833333333333336</ele><time>2026-03-22T10:53:59.998Z</time></trkpt><trkpt lat="44.98096636410474" lon="9.924124206140103"><ele>52.66666666666667</ele><time>2026-03-22T10:54:00.998Z</time></trkpt><trkpt lat="44.98104395141522" lon="9.924179163854868"><ele>52.5</ele><time>2026-03-22T10:54:01.998Z</time></trkpt><trkpt lat="44.9811221755087" lon="9.924231524533505"><ele>52.33333333333333</ele><time>2026-03-22T10:54:02.998Z</time></trkpt><trkpt lat="44.98119977305411" lon="9.924286528804203"><ele>52.166666666666664</ele><time>2026-03-22T10:54:03.998Z</time></trkpt><trkpt lat="44.98127815107046" lon="9.924340964279425"><ele>52.0</ele><time>2026-03-22T10:54:04.998Z</time></trkpt><trkpt lat="44.981356087515266" lon="9.924396418192712"><ele>51.99999999999999</ele><time>2026-03-22T10:54:05.998Z</time></trkpt><trkpt lat="44.98143464079101" lon="9.92445010611701"><ele>52.0</ele><time>2026-03-22T10:54:06.998Z</time></trkpt><trkpt lat="44.98151345433398" lon="9.924504232738899"><ele>52.0</ele><time>2026-03-22T10:54:07.998Z</time></trkpt><trkpt lat="44.981592209058874" lon="9.924559129029562"><ele>52.0</ele><time>2026-03-22T10:54:08.998Z</time></trkpt><trkpt lat="44.98167145384731" lon="9.924614114330417"><ele>51.99999999999999</ele><time>2026-03-22T10:54:09.998Z</time></trkpt><trkpt lat="44.98175087200206" lon="9.92466925355974"><ele>52.0</ele><time>2026-03-22T10:54:10.998Z</time></trkpt><trkpt lat="44.981830138883446" lon="9.924722120524729"><ele>51.83333333333333</ele><time>2026-03-22T10:54:11.998Z</time></trkpt><trkpt lat="44.98190997739753" lon="9.924779352567768"><ele>51.666666666666664</ele><time>2026-03-22T10:54:12.998Z</time></trkpt><trkpt lat="44.98198887014486" lon="9.92483452976712"><ele>51.5</ele><time>2026-03-22T10:54:14Z</time></trkpt><trkpt lat="44.98206834425678" lon="9.924888460896437"><ele>51.33333333333333</ele><time>2026-03-22T10:54:15Z</time></trkpt><trkpt lat="44.982147488986385" lon="9.92494201043889"><ele>51.166666666666664</ele><time>2026-03-22T10:54:16Z</time></trkpt><trkpt lat="44.98222646365975" lon="9.924996433293503"><ele>51.0</ele><time>2026-03-22T10:54:17Z</time></trkpt><trkpt lat="44.982306855346906" lon="9.925054951385649"><ele>51.5</ele><time>2026-03-22T10:54:18Z</time></trkpt><trkpt lat="44.982387389760454" lon="9.92510811140983"><ele>52.0</ele><time>2026-03-22T10:54:19Z</time></trkpt><trkpt lat="44.98246790549381" lon="9.925164161691786"><ele>52.5</ele><time>2026-03-22T10:54:20Z</time></trkpt><trkpt lat="44.9825481714598" lon="9.925218543028025"><ele>53.0</ele><time>2026-03-22T10:54:21Z</time></trkpt><trkpt lat="44.9826277662369" lon="9.925272838548075"><ele>53.5</ele><time>2026-03-22T10:54:22Z</time></trkpt><trkpt lat="44.98270685239179" lon="9.925327707765836"><ele>54.0</ele><time>2026-03-22T10:54:23Z</time></trkpt><trkpt lat="44.982786556867616" lon="9.925383785521575"><ele>54.0</ele><time>2026-03-22T10:54:24Z</time></trkpt><trkpt lat="44.98286603827116" lon="9.925441793889362"><ele>54.0</ele><time>2026-03-22T10:54:25Z</time></trkpt><trkpt lat="44.98294478722853" lon="9.925498994458028"><ele>54.0</ele><time>2026-03-22T10:54:26Z</time></trkpt><trkpt lat="44.98302463990724" lon="9.925555135798888"><ele>54.0</ele><time>2026-03-22T10:54:27Z</time></trkpt><trkpt lat="44.98310484973339" lon="9.925612835496711"><ele>54.0</ele><time>2026-03-22T10:54:28Z</time></trkpt><trkpt lat="44.98318455269319" lon="9.925667608399657"><ele>54.0</ele><time>2026-03-22T10:54:29Z</time></trkpt><trkpt lat="44.98326370187506" lon="9.925724999945707"><ele>54.0</ele><time>2026-03-22T10:54:30Z</time></trkpt><trkpt lat="44.98334218638243" lon="9.925783919503685"><ele>54.0</ele><time>2026-03-22T10:54:31Z</time></trkpt><trkpt lat="44.983421600653564" lon="9.925840808205615"><ele>54.0</ele><time>2026-03-22T10:54:32Z</time></trkpt><trkpt lat="44.9835012126609" lon="9.925898590525968"><ele>54.0</ele><time>2026-03-22T10:54:33Z</time></trkpt><trkpt lat="44.98357954999546" lon="9.925955277320687"><ele>54.0</ele><time>2026-03-22T10:54:34Z</time></trkpt><trkpt lat="44.98366011801893" lon="9.926013302114857"><ele>54.0</ele><time>2026-03-22T10:54:35Z</time></trkpt><trkpt lat="44.98373925651237" lon="9.92606828234331"><ele>54.0</ele><time>2026-03-22T10:54:36Z</time></trkpt><trkpt lat="44.98381882836202" lon="9.926126792743736"><ele>54.0</ele><time>2026-03-22T10:54:37Z</time></trkpt><trkpt lat="44.983897104018716" lon="9.926183734650209"><ele>54.0</ele><time>2026-03-22T10:54:38Z</time></trkpt><trkpt lat="44.98397682888877" lon="9.926239112078287"><ele>54.0</ele><time>2026-03-22T10:54:39Z</time></trkpt><trkpt lat="44.98405546756989" lon="9.926294039869568"><ele>54.0</ele><time>2026-03-22T10:54:40Z</time></trkpt><trkpt lat="44.98413384187401" lon="9.92634982481226"><ele>54.0</ele><time>2026-03-22T10:54:41Z</time></trkpt><trkpt lat="44.98421298111368" lon="9.926406323076929"><ele>54.0</ele><time>2026-03-22T10:54:42Z</time></trkpt><trkpt lat="44.98429140848374" lon="9.926460161092162"><ele>54.0</ele><time>2026-03-22T10:54:43Z</time></trkpt><trkpt lat="44.9843712235823" lon="9.926514300630773"><ele>54.0</ele><time>2026-03-22T10:54:44Z</time></trkpt><trkpt lat="44.984447477811294" lon="9.926567320916249"><ele>54.0</ele><time>2026-03-22T10:54:45Z</time></trkpt><trkpt lat="44.984525548992764" lon="9.926621759584696"><ele>54.0</ele><time>2026-03-22T10:54:46Z</time></trkpt><trkpt lat="44.98460378993048" lon="9.926674683635188"><ele>54.0</ele><time>2026-03-22T10:54:47Z</time></trkpt><trkpt lat="44.98468206209666" lon="9.926725175855204"><ele>54.333333333333336</ele><time>2026-03-22T10:54:48Z</time></trkpt><trkpt lat="44.98475966325413" lon="9.926779384023158"><ele>54.66666666666667</ele><time>2026-03-22T10:54:48.999Z</time></trkpt><trkpt lat="44.98483971256071" lon="9.926831985915276"><ele>55.0</ele><time>2026-03-22T10:54:49.999Z</time></trkpt><trkpt lat="44.984921392040555" lon="9.926881146700987"><ele>55.333333333333336</ele><time>2026-03-22T10:54:50.999Z</time></trkpt><trkpt lat="44.98500358062778" lon="9.926923726208404"><ele>55.66666666666667</ele><time>2026-03-22T10:54:51.999Z</time></trkpt><trkpt lat="44.985088094221126" lon="9.92696498588522"><ele>56.0</ele><time>2026-03-22T10:54:52.999Z</time></trkpt><trkpt lat="44.98517190795404" lon="9.927004178255055"><ele>56.00000000000001</ele><time>2026-03-22T10:54:53.999Z</time></trkpt><trkpt lat="44.98525584729276" lon="9.927041106413707"><ele>56.0</ele><time>2026-03-22T10:54:54.999Z</time></trkpt><trkpt lat="44.98534018882537" lon="9.927077401645805"><ele>56.0</ele><time>2026-03-22T10:54:55.999Z</time></trkpt><trkpt lat="44.985425511224676" lon="9.927110033613335"><ele>56.0</ele><time>2026-03-22T10:54:56.999Z</time></trkpt><trkpt lat="44.98551132282955" lon="9.927145408721474"><ele>56.00000000000001</ele><time>2026-03-22T10:54:57.999Z</time></trkpt><trkpt lat="44.98559787084514" lon="9.927182217649985"><ele>56.0</ele><time>2026-03-22T10:54:58.999Z</time></trkpt><trkpt lat="44.985684035063024" lon="9.92721622609311"><ele>56.00000000000001</ele><time>2026-03-22T10:54:59.999Z</time></trkpt><trkpt lat="44.98576984433359" lon="9.927247802875453"><ele>56.0</ele><time>2026-03-22T10:55:00.999Z</time></trkpt><trkpt lat="44.98585445232458" lon="9.927282209103058"><ele>56.0</ele><time>2026-03-22T10:55:01.999Z</time></trkpt><trkpt lat="44.985939730454945" lon="9.927318009205964"><ele>56.0</ele><time>2026-03-22T10:55:02.999Z</time></trkpt><trkpt lat="44.986025199330975" lon="9.92735117765518"><ele>56.00000000000001</ele><time>2026-03-22T10:55:03.999Z</time></trkpt><trkpt lat="44.98610937519007" lon="9.927386346845777"><ele>56.0</ele><time>2026-03-22T10:55:04.999Z</time></trkpt><trkpt lat="44.986193781856294" lon="9.92742105723086"><ele>55.50000000000001</ele><time>2026-03-22T10:55:05.999Z</time></trkpt><trkpt lat="44.9862776729673" lon="9.927455409628967"><ele>55.0</ele><time>2026-03-22T10:55:06.999Z</time></trkpt><trkpt lat="44.98636092643354" lon="9.927487219868343"><ele>54.5</ele><time>2026-03-22T10:55:07.999Z</time></trkpt><trkpt lat="44.98644457220625" lon="9.927519099332812"><ele>54.0</ele><time>2026-03-22T10:55:08.999Z</time></trkpt><trkpt lat="44.98652820603571" lon="9.92755474097892"><ele>53.50000000000001</ele><time>2026-03-22T10:55:09.999Z</time></trkpt><trkpt lat="44.98661148723178" lon="9.92758776733002"><ele>53.0</ele><time>2026-03-22T10:55:10.999Z</time></trkpt><trkpt lat="44.986695813085184" lon="9.927622116950738"><ele>53.00000000000001</ele><time>2026-03-22T10:55:11.999Z</time></trkpt><trkpt lat="44.98677967250709" lon="9.927653828030838"><ele>53.0</ele><time>2026-03-22T10:55:12.999Z</time></trkpt><trkpt lat="44.98686273756608" lon="9.927690018677842"><ele>53.0</ele><time>2026-03-22T10:55:13.999Z</time></trkpt><trkpt lat="44.986946028337236" lon="9.927724972320972"><ele>53.0</ele><time>2026-03-22T10:55:14.999Z</time></trkpt><trkpt lat="44.98702978731112" lon="9.927758658319341"><ele>53.00000000000001</ele><time>2026-03-22T10:55:15.999Z</time></trkpt><trkpt lat="44.9871134339987" lon="9.927791286605991"><ele>53.0</ele><time>2026-03-22T10:55:16.999Z</time></trkpt><trkpt lat="44.98719759958898" lon="9.927825242048936"><ele>53.00000000000001</ele><time>2026-03-22T10:55:17.999Z</time></trkpt><trkpt lat="44.987281544694724" lon="9.927860630017687"><ele>53.0</ele><time>2026-03-22T10:55:18.999Z</time></trkpt><trkpt lat="44.98736536147188" lon="9.927894206512123"><ele>53.0</ele><time>2026-03-22T10:55:19.999Z</time></trkpt><trkpt lat="44.987449943615076" lon="9.9279308689733"><ele>53.0</ele><time>2026-03-22T10:55:20.999Z</time></trkpt><trkpt lat="44.987533325517504" lon="9.927963275820327"><ele>53.00000000000001</ele><time>2026-03-22T10:55:21.999Z</time></trkpt><trkpt lat="44.9876176039689" lon="9.927995243595268"><ele>53.0</ele><time>2026-03-22T10:55:22.999Z</time></trkpt><trkpt lat="44.987702277335316" lon="9.928027477330597"><ele>53.16666666666667</ele><time>2026-03-22T10:55:23.999Z</time></trkpt><trkpt lat="44.98778616304333" lon="9.928059424551174"><ele>53.333333333333336</ele><time>2026-03-22T10:55:24.999Z</time></trkpt><trkpt lat="44.98786914388803" lon="9.92809668243193"><ele>53.5</ele><time>2026-03-22T10:55:25.999Z</time></trkpt><trkpt lat="44.987953281424964" lon="9.928127862794138"><ele>53.66666666666667</ele><time>2026-03-22T10:55:26.999Z</time></trkpt><trkpt lat="44.988036317675636" lon="9.92816483170673"><ele>53.833333333333336</ele><time>2026-03-22T10:55:27.999Z</time></trkpt><trkpt lat="44.98812027434472" lon="9.92819826663305"><ele>54.0</ele><time>2026-03-22T10:55:28.999Z</time></trkpt><trkpt lat="44.98820325082949" lon="9.928233193698777"><ele>54.0</ele><time>2026-03-22T10:55:29.999Z</time></trkpt><trkpt lat="44.98828500724863" lon="9.92826586556531"><ele>54.0</ele><time>2026-03-22T10:55:30.999Z</time></trkpt><trkpt lat="44.98836645000819" lon="9.928301005176692"><ele>54.0</ele><time>2026-03-22T10:55:31.999Z</time></trkpt><trkpt lat="44.988450422341955" lon="9.928332583207562"><ele>54.0</ele><time>2026-03-22T10:55:32.999Z</time></trkpt><trkpt lat="44.988532364898845" lon="9.9283667055404"><ele>54.0</ele><time>2026-03-22T10:55:33.999Z</time></trkpt><trkpt lat="44.98861524569412" lon="9.928400386543657"><ele>54.0</ele><time>2026-03-22T10:55:34.999Z</time></trkpt><trkpt lat="44.98869823883956" lon="9.9284317751095"><ele>54.0</ele><time>2026-03-22T10:55:35.999Z</time></trkpt><trkpt lat="44.988782075957474" lon="9.928465591294325"><ele>54.0</ele><time>2026-03-22T10:55:36.999Z</time></trkpt><trkpt lat="44.98886439975175" lon="9.928499738094684"><ele>54.0</ele><time>2026-03-22T10:55:37.999Z</time></trkpt><trkpt lat="44.98894779770694" lon="9.928535233082188"><ele>54.0</ele><time>2026-03-22T10:55:38.999Z</time></trkpt><trkpt lat="44.98903004778856" lon="9.92856697890799"><ele>54.0</ele><time>2026-03-22T10:55:39.999Z</time></trkpt><trkpt lat="44.989112548265055" lon="9.928601239667817"><ele>54.0</ele><time>2026-03-22T10:55:40.999Z</time></trkpt><trkpt lat="44.989196114206585" lon="9.92863512441022"><ele>54.0</ele><time>2026-03-22T10:55:41.998Z</time></trkpt><trkpt lat="44.989278687478425" lon="9.928668746589333"><ele>54.0</ele><time>2026-03-22T10:55:42.998Z</time></trkpt><trkpt lat="44.98936053305824" lon="9.9287013555325"><ele>54.0</ele><time>2026-03-22T10:55:43.998Z</time></trkpt><trkpt lat="44.98944178238442" lon="9.928732711425527"><ele>54.0</ele><time>2026-03-22T10:55:44.998Z</time></trkpt><trkpt lat="44.989521513499426" lon="9.928765664498917"><ele>54.0</ele><time>2026-03-22T10:55:45.998Z</time></trkpt><trkpt lat="44.98960422259102" lon="9.92879765976238"><ele>54.0</ele><time>2026-03-22T10:55:46.998Z</time></trkpt><trkpt lat="44.98968228929959" lon="9.928825969514671"><ele>54.0</ele><time>2026-03-22T10:55:47.998Z</time></trkpt><trkpt lat="44.98976199055042" lon="9.928854952115124"><ele>54.0</ele><time>2026-03-22T10:55:48.998Z</time></trkpt><trkpt lat="44.989841738868684" lon="9.928889238169043"><ele>54.0</ele><time>2026-03-22T10:55:49.998Z</time></trkpt><trkpt lat="44.989923029212534" lon="9.928923921391215"><ele>54.0</ele><time>2026-03-22T10:55:50.998Z</time></trkpt><trkpt lat="44.99000444140155" lon="9.928956323896703"><ele>54.0</ele><time>2026-03-22T10:55:51.998Z</time></trkpt><trkpt lat="44.99008711684262" lon="9.92898918483276"><ele>54.0</ele><time>2026-03-22T10:55:52.998Z</time></trkpt><trkpt lat="44.99016835448892" lon="9.929024011662369"><ele>54.0</ele><time>2026-03-22T10:55:53.998Z</time></trkpt><trkpt lat="44.990250215060705" lon="9.929057756734492"><ele>54.0</ele><time>2026-03-22T10:55:54.998Z</time></trkpt><trkpt lat="44.9903311731944" lon="9.929091107940483"><ele>54.0</ele><time>2026-03-22T10:55:55.998Z</time></trkpt><trkpt lat="44.99041368654687" lon="9.92912338419604"><ele>54.0</ele><time>2026-03-22T10:55:56.998Z</time></trkpt><trkpt lat="44.99049850445775" lon="9.929159275500751"><ele>54.0</ele><time>2026-03-22T10:55:57.998Z</time></trkpt><trkpt lat="44.99058135053368" lon="9.929192176354857"><ele>54.0</ele><time>2026-03-22T10:55:58.998Z</time></trkpt><trkpt lat="44.99066496575836" lon="9.929228353243305"><ele>54.166666666666664</ele><time>2026-03-22T10:55:59.998Z</time></trkpt><trkpt lat="44.99074674558423" lon="9.929258923466001"><ele>54.33333333333333</ele><time>2026-03-22T10:56:00.998Z</time></trkpt><trkpt lat="44.990827941882266" lon="9.929293235325996"><ele>54.5</ele><time>2026-03-22T10:56:01.998Z</time></trkpt><trkpt lat="44.99090980446606" lon="9.929326390561627"><ele>54.666666666666664</ele><time>2026-03-22T10:56:02.998Z</time></trkpt><trkpt lat="44.99098935422572" lon="9.929363353043772"><ele>54.83333333333333</ele><time>2026-03-22T10:56:03.998Z</time></trkpt><trkpt lat="44.99106909488775" lon="9.92939840943842"><ele>55.0</ele><time>2026-03-22T10:56:04.998Z</time></trkpt><trkpt lat="44.99115140220508" lon="9.929429909732294"><ele>54.99999999999999</ele><time>2026-03-22T10:56:05.998Z</time></trkpt><trkpt lat="44.99123432125705" lon="9.929462844699078"><ele>55.0</ele><time>2026-03-22T10:56:06.998Z</time></trkpt><trkpt lat="44.9913166961472" lon="9.929497077137333"><ele>55.0</ele><time>2026-03-22T10:56:07.998Z</time></trkpt><trkpt lat="44.99139825216896" lon="9.929532290311975"><ele>55.0</ele><time>2026-03-22T10:56:08.998Z</time></trkpt><trkpt lat="44.991482664204185" lon="9.929567061469145"><ele>54.99999999999999</ele><time>2026-03-22T10:56:09.998Z</time></trkpt><trkpt lat="44.99156444081906" lon="9.929602566526954"><ele>55.0</ele><time>2026-03-22T10:56:10.998Z</time></trkpt><trkpt lat="44.991647179050716" lon="9.929631841426774"><ele>54.83333333333333</ele><time>2026-03-22T10:56:11.998Z</time></trkpt><trkpt lat="44.99172816828206" lon="9.929664286652978"><ele>54.666666666666664</ele><time>2026-03-22T10:56:12.998Z</time></trkpt><trkpt lat="44.9918084837593" lon="9.929699541786245"><ele>54.5</ele><time>2026-03-22T10:56:13.998Z</time></trkpt><trkpt lat="44.99188887445324" lon="9.929738602742152"><ele>54.33333333333333</ele><time>2026-03-22T10:56:14.998Z</time></trkpt><trkpt lat="44.99197071426289" lon="9.929774087848779"><ele>54.166666666666664</ele><time>2026-03-22T10:56:15.998Z</time></trkpt><trkpt lat="44.992055884774636" lon="9.929805475044269"><ele>54.0</ele><time>2026-03-22T10:56:16.998Z</time></trkpt><trkpt lat="44.992136937645896" lon="9.929835798207293"><ele>54.0</ele><time>2026-03-22T10:56:17.998Z</time></trkpt><trkpt lat="44.99221977390986" lon="9.92986762926441"><ele>54.0</ele><time>2026-03-22T10:56:19Z</time></trkpt><trkpt lat="44.9923023839452" lon="9.929897100853585"><ele>54.0</ele><time>2026-03-22T10:56:20Z</time></trkpt><trkpt lat="44.99238399807438" lon="9.92992851208726"><ele>54.0</ele><time>2026-03-22T10:56:21Z</time></trkpt><trkpt lat="44.99246353085242" lon="9.929964825766456"><ele>54.0</ele><time>2026-03-22T10:56:22Z</time></trkpt><trkpt lat="44.9925460813868" lon="9.929998608312056"><ele>54.0</ele><time>2026-03-22T10:56:23Z</time></trkpt><trkpt lat="44.99262659767397" lon="9.930031842189956"><ele>54.0</ele><time>2026-03-22T10:56:24Z</time></trkpt><trkpt lat="44.99270895994854" lon="9.930068996562005"><ele>54.0</ele><time>2026-03-22T10:56:25Z</time></trkpt><trkpt lat="44.992792566579546" lon="9.930104327963301"><ele>54.0</ele><time>2026-03-22T10:56:26Z</time></trkpt><trkpt lat="44.992874117800184" lon="9.930136348203707"><ele>54.0</ele><time>2026-03-22T10:56:27Z</time></trkpt><trkpt lat="44.992957555766864" lon="9.930172516410659"><ele>54.0</ele><time>2026-03-22T10:56:28Z</time></trkpt><trkpt lat="44.99304130709259" lon="9.930205633733857"><ele>54.0</ele><time>2026-03-22T10:56:29Z</time></trkpt><trkpt lat="44.993126023356325" lon="9.930240187790368"><ele>54.0</ele><time>2026-03-22T10:56:30Z</time></trkpt><trkpt lat="44.99320705765033" lon="9.930276017302944"><ele>54.0</ele><time>2026-03-22T10:56:31Z</time></trkpt><trkpt lat="44.993287125039764" lon="9.930310937672123"><ele>54.0</ele><time>2026-03-22T10:56:32Z</time></trkpt><trkpt lat="44.99336504412211" lon="9.93034026425938"><ele>54.0</ele><time>2026-03-22T10:56:33Z</time></trkpt><trkpt lat="44.99344357802752" lon="9.930363161092975"><ele>54.0</ele><time>2026-03-22T10:56:34Z</time></trkpt><trkpt lat="44.993518640234065" lon="9.93038666367903"><ele>54.0</ele><time>2026-03-22T10:56:35Z</time></trkpt><trkpt lat="44.99358211571573" lon="9.930407107199668"><ele>54.400000000000006</ele><time>2026-03-22T10:56:36Z</time></trkpt><trkpt lat="44.993699889195256" lon="9.930468496252209"><ele>54.800000000000004</ele><time>2026-03-22T10:56:38Z</time></trkpt><trkpt lat="44.993812186888704" lon="9.930528415318143"><ele>55.199999999999996</ele><time>2026-03-22T10:56:40Z</time></trkpt><trkpt lat="44.99387538324578" lon="9.930544438475845"><ele>55.599999999999994</ele><time>2026-03-22T10:56:41Z</time></trkpt><trkpt lat="44.99399819133472" lon="9.930577697058437"><ele>56.0</ele><time>2026-03-22T10:56:43Z</time></trkpt><trkpt lat="44.994065218255884" lon="9.930605017992244"><ele>56.0</ele><time>2026-03-22T10:56:44Z</time></trkpt><trkpt lat="44.994128350656666" lon="9.930640358442373"><ele>56.0</ele><time>2026-03-22T10:56:45Z</time></trkpt><trkpt lat="44.994197535543826" lon="9.930659217326806"><ele>56.0</ele><time>2026-03-22T10:56:46Z</time></trkpt><trkpt lat="44.99426584299309" lon="9.93068750293229"><ele>56.0</ele><time>2026-03-22T10:56:47Z</time></trkpt><trkpt lat="44.99433518538866" lon="9.930714723568967"><ele>56.0</ele><time>2026-03-22T10:56:48Z</time></trkpt><trkpt lat="44.994411443124875" lon="9.930746713094488"><ele>56.0</ele><time>2026-03-22T10:56:49Z</time></trkpt><trkpt lat="44.99448446497929" lon="9.930775435285009"><ele>56.0</ele><time>2026-03-22T10:56:50Z</time></trkpt><trkpt lat="44.994561873431586" lon="9.930800145919235"><ele>56.00000000000001</ele><time>2026-03-22T10:56:51Z</time></trkpt><trkpt lat="44.994635065723735" lon="9.930827097202142"><ele>56.0</ele><time>2026-03-22T10:56:51.999Z</time></trkpt><trkpt lat="44.99470957730806" lon="9.930849547648855"><ele>56.0</ele><time>2026-03-22T10:56:52.999Z</time></trkpt><trkpt lat="44.99478444618307" lon="9.930877985741766"><ele>56.0</ele><time>2026-03-22T10:56:53.999Z</time></trkpt><trkpt lat="44.99486027707632" lon="9.930912666449794"><ele>56.00000000000001</ele><time>2026-03-22T10:56:54.999Z</time></trkpt><trkpt lat="44.99493531982092" lon="9.930944165763275"><ele>56.0</ele><time>2026-03-22T10:56:55.999Z</time></trkpt><trkpt lat="44.99501308477942" lon="9.930973365917179"><ele>56.00000000000001</ele><time>2026-03-22T10:56:56.999Z</time></trkpt><trkpt lat="44.995089331113824" lon="9.93100067143781"><ele>56.0</ele><time>2026-03-22T10:56:57.999Z</time></trkpt><trkpt lat="44.99516718131691" lon="9.931026463979606"><ele>56.0</ele><time>2026-03-22T10:56:58.999Z</time></trkpt><trkpt lat="44.995242942477255" lon="9.931055644353085"><ele>56.0</ele><time>2026-03-22T10:56:59.999Z</time></trkpt><trkpt lat="44.995318054174284" lon="9.931085399678054"><ele>56.00000000000001</ele><time>2026-03-22T10:57:00.999Z</time></trkpt><trkpt lat="44.99539084176855" lon="9.931115095386266"><ele>56.0</ele><time>2026-03-22T10:57:01.999Z</time></trkpt><trkpt lat="44.99546074676253" lon="9.931138739362163"><ele>56.00000000000001</ele><time>2026-03-22T10:57:02.999Z</time></trkpt><trkpt lat="44.99552813413532" lon="9.931170212646444"><ele>56.0</ele><time>2026-03-22T10:57:03.999Z</time></trkpt><trkpt lat="44.99559894770413" lon="9.931198342026432"><ele>56.0</ele><time>2026-03-22T10:57:04.999Z</time></trkpt><trkpt lat="44.99567347953822" lon="9.931230663867986"><ele>56.0</ele><time>2026-03-22T10:57:05.999Z</time></trkpt><trkpt lat="44.9957434991947" lon="9.931262176551918"><ele>56.00000000000001</ele><time>2026-03-22T10:57:06.999Z</time></trkpt><trkpt lat="44.99581198478514" lon="9.931302592509091"><ele>56.0</ele><time>2026-03-22T10:57:07.999Z</time></trkpt><trkpt lat="44.995926229313206" lon="9.931356934132973"><ele>55.599999999999994</ele><time>2026-03-22T10:57:09.999Z</time></trkpt><trkpt lat="44.99600027731085" lon="9.931397848559707"><ele>55.199999999999996</ele><time>2026-03-22T10:57:10.999Z</time></trkpt><trkpt lat="44.99612122724533" lon="9.931425114252214"><ele>54.800000000000004</ele><time>2026-03-22T10:57:12.999Z</time></trkpt><trkpt lat="44.99624267027121" lon="9.931472916239878"><ele>54.400000000000006</ele><time>2026-03-22T10:57:14.999Z</time></trkpt><trkpt lat="44.996357823536655" lon="9.931516124924999"><ele>54.0</ele><time>2026-03-22T10:57:16.999Z</time></trkpt><trkpt lat="44.99646694453806" lon="9.931565246893301"><ele>54.0</ele><time>2026-03-22T10:57:18.999Z</time></trkpt><trkpt lat="44.99657286783384" lon="9.931613091128003"><ele>54.00000000000001</ele><time>2026-03-22T10:57:20.999Z</time></trkpt><trkpt lat="44.996675832884634" lon="9.931659100278473"><ele>54.00000000000001</ele><time>2026-03-22T10:57:22.999Z</time></trkpt><trkpt lat="44.99679433760568" lon="9.931691714222062"><ele>54.0</ele><time>2026-03-22T10:57:24.999Z</time></trkpt><trkpt lat="44.99685586966147" lon="9.931714155196703"><ele>54.0</ele><time>2026-03-22T10:57:25.999Z</time></trkpt><trkpt lat="44.99697814195345" lon="9.931764391106844"><ele>54.14285714285714</ele><time>2026-03-22T10:57:27.999Z</time></trkpt><trkpt lat="44.99704069729506" lon="9.93179235078524"><ele>54.285714285714285</ele><time>2026-03-22T10:57:28.999Z</time></trkpt><trkpt lat="44.99711020775901" lon="9.931812504404396"><ele>54.42857142857143</ele><time>2026-03-22T10:57:29.999Z</time></trkpt><trkpt lat="44.99717750251691" lon="9.931841544725904"><ele>54.57142857142857</ele><time>2026-03-22T10:57:30.999Z</time></trkpt><trkpt lat="44.99724824462721" lon="9.931868081881595"><ele>54.714285714285715</ele><time>2026-03-22T10:57:31.999Z</time></trkpt><trkpt lat="44.997314543002354" lon="9.931900774930371"><ele>54.857142857142854</ele><time>2026-03-22T10:57:32.999Z</time></trkpt><trkpt lat="44.99738174576251" lon="9.931930185914823"><ele>55.0</ele><time>2026-03-22T10:57:33.999Z</time></trkpt><trkpt lat="44.99745178245088" lon="9.93195616317904"><ele>54.71428571428571</ele><time>2026-03-22T10:57:34.999Z</time></trkpt><trkpt lat="44.9975196129866" lon="9.931984904409196"><ele>54.42857142857143</ele><time>2026-03-22T10:57:35.999Z</time></trkpt><trkpt lat="44.99759034436691" lon="9.932019513234035"><ele>54.14285714285714</ele><time>2026-03-22T10:57:36.999Z</time></trkpt><trkpt lat="44.997659680748995" lon="9.932048416838526"><ele>53.857142857142854</ele><time>2026-03-22T10:57:37.999Z</time></trkpt><trkpt lat="44.99773274085136" lon="9.932078282187163"><ele>53.57142857142857</ele><time>2026-03-22T10:57:38.999Z</time></trkpt><trkpt lat="44.997806533914215" lon="9.932099867419328"><ele>53.285714285714285</ele><time>2026-03-22T10:57:39.999Z</time></trkpt><trkpt lat="44.99787787389633" lon="9.932130792767902"><ele>53.0</ele><time>2026-03-22T10:57:40.999Z</time></trkpt><trkpt lat="44.99794879552845" lon="9.932156966492801"><ele>53.00000000000001</ele><time>2026-03-22T10:57:41.999Z</time></trkpt><trkpt lat="44.998017132147545" lon="9.932185463229565"><ele>53.0</ele><time>2026-03-22T10:57:42.999Z</time></trkpt><trkpt lat="44.99808741775078" lon="9.932216493831698"><ele>53.0</ele><time>2026-03-22T10:57:43.999Z</time></trkpt><trkpt lat="44.99816243592566" lon="9.932254236102864"><ele>53.0</ele><time>2026-03-22T10:57:44.998Z</time></trkpt><trkpt lat="44.998233363050446" lon="9.932277595363267"><ele>53.00000000000001</ele><time>2026-03-22T10:57:45.998Z</time></trkpt><trkpt lat="44.99830777472108" lon="9.932314344738993"><ele>53.0</ele><time>2026-03-22T10:57:46.998Z</time></trkpt><trkpt lat="44.99838224564387" lon="9.932348060307339"><ele>52.333333333333336</ele><time>2026-03-22T10:57:47.998Z</time></trkpt><trkpt lat="44.99845493612656" lon="9.932377338479602"><ele>51.66666666666667</ele><time>2026-03-22T10:57:48.998Z</time></trkpt><trkpt lat="44.99852977574764" lon="9.932406593121833"><ele>51.0</ele><time>2026-03-22T10:57:49.998Z</time></trkpt><trkpt lat="44.99860751590261" lon="9.932433638042822"><ele>50.33333333333333</ele><time>2026-03-22T10:57:50.998Z</time></trkpt><trkpt lat="44.998682155936265" lon="9.93246279955466"><ele>49.666666666666664</ele><time>2026-03-22T10:57:51.998Z</time></trkpt><trkpt lat="44.99875467114699" lon="9.93249118125406"><ele>49.0</ele><time>2026-03-22T10:57:52.998Z</time></trkpt><trkpt lat="44.99882407255346" lon="9.932528970532296"><ele>48.99999999999999</ele><time>2026-03-22T10:57:53.998Z</time></trkpt><trkpt lat="44.99888190134226" lon="9.932575341094383"><ele>49.0</ele><time>2026-03-22T10:57:54.998Z</time></trkpt><trkpt lat="44.99893502268455" lon="9.9326428775078"><ele>49.0</ele><time>2026-03-22T10:57:55.998Z</time></trkpt><trkpt lat="44.99894170680259" lon="9.932759129978242"><ele>49.0</ele><time>2026-03-22T10:57:56.998Z</time></trkpt><trkpt lat="44.998914243854934" lon="9.93287213054791"><ele>48.99999999999999</ele><time>2026-03-22T10:57:57.998Z</time></trkpt><trkpt lat="44.99889383149459" lon="9.932985146301244"><ele>49.0</ele><time>2026-03-22T10:57:58.998Z</time></trkpt><trkpt lat="44.99886777561812" lon="9.933081289043843"><ele>48.99999999999999</ele><time>2026-03-22T10:57:59.998Z</time></trkpt><trkpt lat="44.99884756430854" lon="9.933192435120464"><ele>49.0</ele><time>2026-03-22T10:58:00.998Z</time></trkpt><trkpt lat="44.99882641425929" lon="9.933299739716169"><ele>49.0</ele><time>2026-03-22T10:58:01.998Z</time></trkpt><trkpt lat="44.99880752614561" lon="9.933402093556353"><ele>49.0</ele><time>2026-03-22T10:58:02.998Z</time></trkpt><trkpt lat="44.99879258365181" lon="9.9335082808884"><ele>48.99999999999999</ele><time>2026-03-22T10:58:03.998Z</time></trkpt><trkpt lat="44.998778279134854" lon="9.9336133305675"><ele>49.0</ele><time>2026-03-22T10:58:04.998Z</time></trkpt><trkpt lat="44.99875657869857" lon="9.933717590359073"><ele>48.99999999999999</ele><time>2026-03-22T10:58:05.998Z</time></trkpt><trkpt lat="44.998729496305714" lon="9.933821190193742"><ele>49.0</ele><time>2026-03-22T10:58:06.998Z</time></trkpt><trkpt lat="44.998705349891274" lon="9.933927202269754"><ele>49.0</ele><time>2026-03-22T10:58:07.998Z</time></trkpt><trkpt lat="44.99868320054514" lon="9.934032038759074"><ele>49.0</ele><time>2026-03-22T10:58:08.998Z</time></trkpt><trkpt lat="44.99866106999696" lon="9.934142459406829"><ele>48.99999999999999</ele><time>2026-03-22T10:58:09.998Z</time></trkpt><trkpt lat="44.998638919268906" lon="9.934249975428163"><ele>49.0</ele><time>2026-03-22T10:58:10.998Z</time></trkpt><trkpt lat="44.99861766648597" lon="9.934354343106369"><ele>49.166666666666664</ele><time>2026-03-22T10:58:11.998Z</time></trkpt><trkpt lat="44.998602986516765" lon="9.934462104014663"><ele>49.33333333333333</ele><time>2026-03-22T10:58:12.998Z</time></trkpt><trkpt lat="44.998594237809876" lon="9.934571359631938"><ele>49.5</ele><time>2026-03-22T10:58:13.998Z</time></trkpt><trkpt lat="44.99859945566153" lon="9.934681976452598"><ele>49.66666666666667</ele><time>2026-03-22T10:58:14.998Z</time></trkpt><trkpt lat="44.998610377261265" lon="9.93479078323293"><ele>49.833333333333336</ele><time>2026-03-22T10:58:15.998Z</time></trkpt><trkpt lat="44.99863823749116" lon="9.934899922476784"><ele>50.0</ele><time>2026-03-22T10:58:16.998Z</time></trkpt><trkpt lat="44.99868127389404" lon="9.934994703431155"><ele>50.16666666666667</ele><time>2026-03-22T10:58:17.998Z</time></trkpt><trkpt lat="44.99873640271537" lon="9.935080915672312"><ele>50.333333333333336</ele><time>2026-03-22T10:58:18.998Z</time></trkpt><trkpt lat="44.99880456048986" lon="9.935150657740499"><ele>50.5</ele><time>2026-03-22T10:58:19.998Z</time></trkpt><trkpt lat="44.9988762911373" lon="9.93520904673838"><ele>50.66666666666667</ele><time>2026-03-22T10:58:20.998Z</time></trkpt><trkpt lat="44.998955680544405" lon="9.935247469750875"><ele>50.833333333333336</ele><time>2026-03-22T10:58:21.998Z</time></trkpt><trkpt lat="44.99903812763893" lon="9.935272066132747"><ele>51.0</ele><time>2026-03-22T10:58:22.998Z</time></trkpt><trkpt lat="44.99912109258237" lon="9.935296004184593"><ele>50.333333333333336</ele><time>2026-03-22T10:58:23.998Z</time></trkpt><trkpt lat="44.99920157377742" lon="9.935320665404058"><ele>49.666666666666664</ele><time>2026-03-22T10:58:25Z</time></trkpt><trkpt lat="44.9992807436177" lon="9.935357909527863"><ele>49.0</ele><time>2026-03-22T10:58:26Z</time></trkpt><trkpt lat="44.99935961885066" lon="9.935402824247635"><ele>48.33333333333333</ele><time>2026-03-22T10:58:27Z</time></trkpt><trkpt lat="44.99943619643509" lon="9.935456347151707"><ele>47.666666666666664</ele><time>2026-03-22T10:58:28Z</time></trkpt><trkpt lat="44.999511740352176" lon="9.935508037558886"><ele>47.0</ele><time>2026-03-22T10:58:29Z</time></trkpt><trkpt lat="44.999587145922696" lon="9.935558064436378"><ele>47.0</ele><time>2026-03-22T10:58:30Z</time></trkpt><trkpt lat="44.999660974417296" lon="9.935612911623775"><ele>47.0</ele><time>2026-03-22T10:58:31Z</time></trkpt><trkpt lat="44.99973645967983" lon="9.935664263181506"><ele>47.0</ele><time>2026-03-22T10:58:32Z</time></trkpt><trkpt lat="44.999812188368885" lon="9.935719016347095"><ele>47.0</ele><time>2026-03-22T10:58:33Z</time></trkpt><trkpt lat="44.99988761737316" lon="9.935771807921968"><ele>47.0</ele><time>2026-03-22T10:58:34Z</time></trkpt><trkpt lat="44.999964471836584" lon="9.935824795820572"><ele>47.0</ele><time>2026-03-22T10:58:35Z</time></trkpt><trkpt lat="45.00003958360275" lon="9.935878560794023"><ele>47.0</ele><time>2026-03-22T10:58:36Z</time></trkpt><trkpt lat="45.00011500294411" lon="9.935935168884958"><ele>47.0</ele><time>2026-03-22T10:58:37Z</time></trkpt><trkpt lat="45.00019030857693" lon="9.935984995602357"><ele>47.0</ele><time>2026-03-22T10:58:38Z</time></trkpt><trkpt lat="45.00026504798077" lon="9.93604064167179"><ele>47.0</ele><time>2026-03-22T10:58:39Z</time></trkpt><trkpt lat="45.000340350108" lon="9.936093502330916"><ele>47.0</ele><time>2026-03-22T10:58:40Z</time></trkpt><trkpt lat="45.0004163693606" lon="9.936148734745414"><ele>47.0</ele><time>2026-03-22T10:58:41Z</time></trkpt><trkpt lat="45.00048900223591" lon="9.936205262696095"><ele>47.0</ele><time>2026-03-22T10:58:42Z</time></trkpt><trkpt lat="45.00056455363153" lon="9.93626280755039"><ele>47.0</ele><time>2026-03-22T10:58:43Z</time></trkpt><trkpt lat="45.000637822440936" lon="9.936318514738547"><ele>47.0</ele><time>2026-03-22T10:58:44Z</time></trkpt><trkpt lat="45.00070760292733" lon="9.936381891235925"><ele>47.0</ele><time>2026-03-22T10:58:45Z</time></trkpt><trkpt lat="45.00077936733898" lon="9.936445542366755"><ele>47.0</ele><time>2026-03-22T10:58:46Z</time></trkpt><trkpt lat="45.00084954492157" lon="9.936512339488074"><ele>47.0</ele><time>2026-03-22T10:58:47Z</time></trkpt><trkpt lat="45.00091897933613" lon="9.936577487487547"><ele>47.166666666666664</ele><time>2026-03-22T10:58:48Z</time></trkpt><trkpt lat="45.00098703251175" lon="9.93664339226206"><ele>47.33333333333333</ele><time>2026-03-22T10:58:49Z</time></trkpt><trkpt lat="45.00105761558411" lon="9.936705258842592"><ele>47.5</ele><time>2026-03-22T10:58:50Z</time></trkpt><trkpt lat="45.00112796011499" lon="9.93677260296778"><ele>47.666666666666664</ele><time>2026-03-22T10:58:51Z</time></trkpt><trkpt lat="45.001195667642534" lon="9.936834521243973"><ele>47.833333333333336</ele><time>2026-03-22T10:58:52Z</time></trkpt><trkpt lat="45.00126347561427" lon="9.93689836992263"><ele>48.0</ele><time>2026-03-22T10:58:53Z</time></trkpt><trkpt lat="45.00133126417287" lon="9.93696170518482"><ele>48.166666666666664</ele><time>2026-03-22T10:58:54Z</time></trkpt><trkpt lat="45.001399128335" lon="9.93702668501799"><ele>48.33333333333333</ele><time>2026-03-22T10:58:55Z</time></trkpt><trkpt lat="45.00146668530632" lon="9.937092214956062"><ele>48.5</ele><time>2026-03-22T10:58:56Z</time></trkpt><trkpt lat="45.001533414969785" lon="9.937152759465283"><ele>48.666666666666664</ele><time>2026-03-22T10:58:56.999Z</time></trkpt><trkpt lat="45.00159868055063" lon="9.937216607530877"><ele>48.83333333333333</ele><time>2026-03-22T10:58:57.999Z</time></trkpt><trkpt lat="45.00166630495" lon="9.937278778656905"><ele>49.0</ele><time>2026-03-22T10:58:58.999Z</time></trkpt><trkpt lat="45.00173288063656" lon="9.937341532128048"><ele>48.99999999999999</ele><time>2026-03-22T10:58:59.999Z</time></trkpt><trkpt lat="45.001797380236574" lon="9.937404488537245"><ele>49.0</ele><time>2026-03-22T10:59:00.999Z</time></trkpt><trkpt lat="45.00186159890985" lon="9.93746819025836"><ele>49.0</ele><time>2026-03-22T10:59:01.999Z</time></trkpt><trkpt lat="45.001926143866605" lon="9.937533382782938"><ele>49.0</ele><time>2026-03-22T10:59:02.999Z</time></trkpt><trkpt lat="45.00199306212506" lon="9.937594792219688"><ele>48.99999999999999</ele><time>2026-03-22T10:59:03.999Z</time></trkpt><trkpt lat="45.002060715085904" lon="9.937657099163825"><ele>49.0</ele><time>2026-03-22T10:59:04.999Z</time></trkpt><trkpt lat="45.002124101302186" lon="9.9377192570353"><ele>48.99999999999999</ele><time>2026-03-22T10:59:05.999Z</time></trkpt><trkpt lat="45.00218933496864" lon="9.937780151538304"><ele>49.0</ele><time>2026-03-22T10:59:06.999Z</time></trkpt><trkpt lat="45.00225509778928" lon="9.937840408665105"><ele>49.0</ele><time>2026-03-22T10:59:07.999Z</time></trkpt><trkpt lat="45.00231787656626" lon="9.937902924854338"><ele>49.0</ele><time>2026-03-22T10:59:08.999Z</time></trkpt><trkpt lat="45.002384883826394" lon="9.937968987946919"><ele>48.99999999999999</ele><time>2026-03-22T10:59:09.999Z</time></trkpt><trkpt lat="45.002450361645046" lon="9.938030013388843"><ele>49.0</ele><time>2026-03-22T10:59:10.999Z</time></trkpt><trkpt lat="45.002515115707645" lon="9.93809093261451"><ele>49.166666666666664</ele><time>2026-03-22T10:59:11.999Z</time></trkpt><trkpt lat="45.00258028144033" lon="9.938152929510617"><ele>49.33333333333333</ele><time>2026-03-22T10:59:12.999Z</time></trkpt><trkpt lat="45.002643742697906" lon="9.938213830179555"><ele>49.5</ele><time>2026-03-22T10:59:13.999Z</time></trkpt><trkpt lat="45.002708347291275" lon="9.938271608770657"><ele>49.66666666666667</ele><time>2026-03-22T10:59:14.999Z</time></trkpt><trkpt lat="45.002773555997756" lon="9.93833588720844"><ele>49.833333333333336</ele><time>2026-03-22T10:59:15.999Z</time></trkpt><trkpt lat="45.002838127148685" lon="9.938397567208645"><ele>50.0</ele><time>2026-03-22T10:59:16.999Z</time></trkpt><trkpt lat="45.002904860797706" lon="9.938454353605636"><ele>50.00000000000001</ele><time>2026-03-22T10:59:17.999Z</time></trkpt><trkpt lat="45.002972351112206" lon="9.938517106222704"><ele>50.0</ele><time>2026-03-22T10:59:18.999Z</time></trkpt><trkpt lat="45.003039827043104" lon="9.938569898876839"><ele>50.0</ele><time>2026-03-22T10:59:19.999Z</time></trkpt><trkpt lat="45.00311017099452" lon="9.938628922648187"><ele>50.0</ele><time>2026-03-22T10:59:20.999Z</time></trkpt><trkpt lat="45.00318071333234" lon="9.938684843543284"><ele>50.00000000000001</ele><time>2026-03-22T10:59:21.999Z</time></trkpt><trkpt lat="45.00325110034511" lon="9.938743548103446"><ele>50.0</ele><time>2026-03-22T10:59:22.999Z</time></trkpt><trkpt lat="45.00332019428252" lon="9.93880481062673"><ele>49.50000000000001</ele><time>2026-03-22T10:59:23.999Z</time></trkpt><trkpt lat="45.0033898628025" lon="9.938860625284907"><ele>49.0</ele><time>2026-03-22T10:59:24.999Z</time></trkpt><trkpt lat="45.003456865005106" lon="9.938927504956583"><ele>48.5</ele><time>2026-03-22T10:59:25.999Z</time></trkpt><trkpt lat="45.00352388252867" lon="9.938993282322265"><ele>48.0</ele><time>2026-03-22T10:59:26.999Z</time></trkpt><trkpt lat="45.003586587736855" lon="9.939057204181262"><ele>47.5</ele><time>2026-03-22T10:59:27.999Z</time></trkpt><trkpt lat="45.00365400247657" lon="9.939124314263873"><ele>47.0</ele><time>2026-03-22T10:59:28.999Z</time></trkpt><trkpt lat="45.003713112121126" lon="9.939189148368103"><ele>47.0</ele><time>2026-03-22T10:59:29.999Z</time></trkpt><trkpt lat="45.003779084213605" lon="9.939258369010403"><ele>47.0</ele><time>2026-03-22T10:59:30.999Z</time></trkpt><trkpt lat="45.00383963455137" lon="9.939327861714911"><ele>47.0</ele><time>2026-03-22T10:59:31.999Z</time></trkpt><trkpt lat="45.003901206821745" lon="9.939399470688372"><ele>47.0</ele><time>2026-03-22T10:59:32.999Z</time></trkpt><trkpt lat="45.00396244346312" lon="9.93947208848749"><ele>47.0</ele><time>2026-03-22T10:59:33.999Z</time></trkpt><trkpt lat="45.0040224388439" lon="9.939537647918483"><ele>47.0</ele><time>2026-03-22T10:59:34.999Z</time></trkpt><trkpt lat="45.004082314334845" lon="9.939609358735188"><ele>47.0</ele><time>2026-03-22T10:59:35.999Z</time></trkpt><trkpt lat="45.00414233061997" lon="9.939679391032497"><ele>47.0</ele><time>2026-03-22T10:59:36.999Z</time></trkpt><trkpt lat="45.00420209685488" lon="9.939750158370247"><ele>47.0</ele><time>2026-03-22T10:59:37.999Z</time></trkpt><trkpt lat="45.004262406580594" lon="9.939817399047422"><ele>47.0</ele><time>2026-03-22T10:59:38.999Z</time></trkpt><trkpt lat="45.004322702602856" lon="9.939893995867179"><ele>47.0</ele><time>2026-03-22T10:59:39.999Z</time></trkpt><trkpt lat="45.00438011970601" lon="9.93996248810792"><ele>47.0</ele><time>2026-03-22T10:59:40.999Z</time></trkpt><trkpt lat="45.0044402786284" lon="9.940033051346063"><ele>47.166666666666664</ele><time>2026-03-22T10:59:41.999Z</time></trkpt><trkpt lat="45.004499580131856" lon="9.94010777447113"><ele>47.33333333333333</ele><time>2026-03-22T10:59:42.999Z</time></trkpt><trkpt lat="45.00455836819499" lon="9.940176990463957"><ele>47.5</ele><time>2026-03-22T10:59:43.999Z</time></trkpt><trkpt lat="45.00461848227279" lon="9.940249105051553"><ele>47.666666666666664</ele><time>2026-03-22T10:59:44.999Z</time></trkpt><trkpt lat="45.004676305551996" lon="9.940315816311667"><ele>47.833333333333336</ele><time>2026-03-22T10:59:45.999Z</time></trkpt><trkpt lat="45.0047336346133" lon="9.940388317288333"><ele>48.0</ele><time>2026-03-22T10:59:46.999Z</time></trkpt><trkpt lat="45.00479304544766" lon="9.940455987904008"><ele>48.0</ele><time>2026-03-22T10:59:47.999Z</time></trkpt><trkpt lat="45.00485097078854" lon="9.940528159815157"><ele>48.0</ele><time>2026-03-22T10:59:48.999Z</time></trkpt><trkpt lat="45.004908267390874" lon="9.940597004629558"><ele>48.0</ele><time>2026-03-22T10:59:49.998Z</time></trkpt><trkpt lat="45.00496632976608" lon="9.940668871135752"><ele>48.0</ele><time>2026-03-22T10:59:50.998Z</time></trkpt><trkpt lat="45.00502310086918" lon="9.940735917303558"><ele>48.0</ele><time>2026-03-22T10:59:51.998Z</time></trkpt><trkpt lat="45.00508049825061" lon="9.940807347015664"><ele>48.0</ele><time>2026-03-22T10:59:52.998Z</time></trkpt><trkpt lat="45.00513658860137" lon="9.940875910206032"><ele>48.166666666666664</ele><time>2026-03-22T10:59:53.998Z</time></trkpt><trkpt lat="45.005191356015025" lon="9.940948051289308"><ele>48.33333333333333</ele><time>2026-03-22T10:59:54.998Z</time></trkpt><trkpt lat="45.00525083023501" lon="9.941019199658498"><ele>48.5</ele><time>2026-03-22T10:59:55.998Z</time></trkpt><trkpt lat="45.005309450341784" lon="9.9410922096549"><ele>48.666666666666664</ele><time>2026-03-22T10:59:56.998Z</time></trkpt><trkpt lat="45.00536798141571" lon="9.94116194613466"><ele>48.83333333333333</ele><time>2026-03-22T10:59:57.998Z</time></trkpt><trkpt lat="45.005425058002885" lon="9.941231562123603"><ele>49.0</ele><time>2026-03-22T10:59:58.998Z</time></trkpt><trkpt lat="45.005481718843626" lon="9.941302542220013"><ele>48.99999999999999</ele><time>2026-03-22T10:59:59.998Z</time></trkpt><trkpt lat="45.005540267194036" lon="9.941373552388583"><ele>49.0</ele><time>2026-03-22T11:00:00.998Z</time></trkpt><trkpt lat="45.00559862259758" lon="9.94144463730393"><ele>49.0</ele><time>2026-03-22T11:00:01.998Z</time></trkpt><trkpt lat="45.00565733679592" lon="9.94151629103371"><ele>49.0</ele><time>2026-03-22T11:00:02.998Z</time></trkpt><trkpt lat="45.005712947509316" lon="9.94158415428999"><ele>48.99999999999999</ele><time>2026-03-22T11:00:03.998Z</time></trkpt><trkpt lat="45.00576869143488" lon="9.941653370952759"><ele>49.0</ele><time>2026-03-22T11:00:04.998Z</time></trkpt><trkpt lat="45.005824752810966" lon="9.941723255171512"><ele>48.99999999999999</ele><time>2026-03-22T11:00:05.998Z</time></trkpt><trkpt lat="45.00588142989028" lon="9.941793342412803"><ele>49.0</ele><time>2026-03-22T11:00:06.998Z</time></trkpt><trkpt lat="45.00594089168529" lon="9.941864049898777"><ele>49.0</ele><time>2026-03-22T11:00:07.998Z</time></trkpt><trkpt lat="45.00600101919781" lon="9.941930338173604"><ele>49.0</ele><time>2026-03-22T11:00:08.998Z</time></trkpt><trkpt lat="45.006062483850855" lon="9.941997665160866"><ele>48.99999999999999</ele><time>2026-03-22T11:00:09.998Z</time></trkpt><trkpt lat="45.00612756989549" lon="9.942052818563335"><ele>49.0</ele><time>2026-03-22T11:00:10.998Z</time></trkpt><trkpt lat="45.006194088829474" lon="9.942112063092727"><ele>48.99999999999999</ele><time>2026-03-22T11:00:11.998Z</time></trkpt><trkpt lat="45.0062634494332" lon="9.942163167016286"><ele>49.0</ele><time>2026-03-22T11:00:12.998Z</time></trkpt><trkpt lat="45.00633585321897" lon="9.942207684448112"><ele>49.0</ele><time>2026-03-22T11:00:13.998Z</time></trkpt><trkpt lat="45.006410178113796" lon="9.94224298222964"><ele>49.0</ele><time>2026-03-22T11:00:14.998Z</time></trkpt><trkpt lat="45.00648652974627" lon="9.942280725838534"><ele>48.99999999999999</ele><time>2026-03-22T11:00:15.998Z</time></trkpt><trkpt lat="45.00656337097394" lon="9.942309749338664"><ele>49.0</ele><time>2026-03-22T11:00:16.998Z</time></trkpt><trkpt lat="45.00664158148489" lon="9.942340568669094"><ele>48.83333333333333</ele><time>2026-03-22T11:00:17.998Z</time></trkpt><trkpt lat="45.00672104381516" lon="9.942365865840307"><ele>48.666666666666664</ele><time>2026-03-22T11:00:18.998Z</time></trkpt><trkpt lat="45.006800473392495" lon="9.94239477544035"><ele>48.5</ele><time>2026-03-22T11:00:19.998Z</time></trkpt><trkpt lat="45.00688112799535" lon="9.942426299072759"><ele>48.33333333333333</ele><time>2026-03-22T11:00:20.998Z</time></trkpt><trkpt lat="45.00695789320236" lon="9.942455266487093"><ele>48.166666666666664</ele><time>2026-03-22T11:00:21.998Z</time></trkpt><trkpt lat="45.007039750655586" lon="9.942486572204043"><ele>48.0</ele><time>2026-03-22T11:00:22.998Z</time></trkpt><trkpt lat="45.0071193259598" lon="9.942518881775717"><ele>48.0</ele><time>2026-03-22T11:00:23.998Z</time></trkpt><trkpt lat="45.00719955007042" lon="9.94254724548019"><ele>48.0</ele><time>2026-03-22T11:00:24.998Z</time></trkpt><trkpt lat="45.00728173103277" lon="9.942575752207354"><ele>48.0</ele><time>2026-03-22T11:00:25.998Z</time></trkpt><trkpt lat="45.00736275170946" lon="9.942606066225064"><ele>48.0</ele><time>2026-03-22T11:00:26.998Z</time></trkpt><trkpt lat="45.0074453552677" lon="9.942635294588397"><ele>48.0</ele><time>2026-03-22T11:00:27.998Z</time></trkpt><trkpt lat="45.00752844143534" lon="9.94266719505424"><ele>48.0</ele><time>2026-03-22T11:00:28.998Z</time></trkpt><trkpt lat="45.00760947886853" lon="9.942693543901"><ele>47.833333333333336</ele><time>2026-03-22T11:00:29.998Z</time></trkpt><trkpt lat="45.0076941041758" lon="9.94272895116874"><ele>47.666666666666664</ele><time>2026-03-22T11:00:31Z</time></trkpt><trkpt lat="45.00777490330382" lon="9.942762154817114"><ele>47.5</ele><time>2026-03-22T11:00:32Z</time></trkpt><trkpt lat="45.00785914679432" lon="9.942792693559461"><ele>47.33333333333333</ele><time>2026-03-22T11:00:33Z</time></trkpt><trkpt lat="45.00794166926234" lon="9.942822316470133"><ele>47.166666666666664</ele><time>2026-03-22T11:00:34Z</time></trkpt><trkpt lat="45.00802472147898" lon="9.942857755198338"><ele>47.0</ele><time>2026-03-22T11:00:35Z</time></trkpt><trkpt lat="45.00810951386237" lon="9.94288789140153"><ele>47.0</ele><time>2026-03-22T11:00:36Z</time></trkpt><trkpt lat="45.00819373844471" lon="9.942921646247356"><ele>47.0</ele><time>2026-03-22T11:00:37Z</time></trkpt><trkpt lat="45.00827698206497" lon="9.942951979267125"><ele>47.0</ele><time>2026-03-22T11:00:38Z</time></trkpt><trkpt lat="45.00836048192577" lon="9.942982106247236"><ele>47.0</ele><time>2026-03-22T11:00:39Z</time></trkpt><trkpt lat="45.00844342711802" lon="9.943010887734122"><ele>47.0</ele><time>2026-03-22T11:00:40Z</time></trkpt><trkpt lat="45.008525489634664" lon="9.943043905131143"><ele>47.0</ele><time>2026-03-22T11:00:41Z</time></trkpt><trkpt lat="45.00860818049222" lon="9.943074834905145"><ele>46.5</ele><time>2026-03-22T11:00:42Z</time></trkpt><trkpt lat="45.00869171633763" lon="9.943107705597958"><ele>46.0</ele><time>2026-03-22T11:00:43Z</time></trkpt><trkpt lat="45.00877453624098" lon="9.943137721362737"><ele>45.5</ele><time>2026-03-22T11:00:44Z</time></trkpt><trkpt lat="45.00885823846744" lon="9.943170374212261"><ele>45.0</ele><time>2026-03-22T11:00:45Z</time></trkpt><trkpt lat="45.00894311522263" lon="9.943202224372296"><ele>44.5</ele><time>2026-03-22T11:00:46Z</time></trkpt><trkpt lat="45.00902548139078" lon="9.943233980585328"><ele>44.0</ele><time>2026-03-22T11:00:47Z</time></trkpt><trkpt lat="45.009109815959235" lon="9.943264202738682"><ele>44.166666666666664</ele><time>2026-03-22T11:00:48Z</time></trkpt><trkpt lat="45.00919382123602" lon="9.943296428733076"><ele>44.33333333333333</ele><time>2026-03-22T11:00:49Z</time></trkpt><trkpt lat="45.00927942538354" lon="9.943331184118003"><ele>44.5</ele><time>2026-03-22T11:00:50Z</time></trkpt><trkpt lat="45.00936257664626" lon="9.943360269580765"><ele>44.666666666666664</ele><time>2026-03-22T11:00:51Z</time></trkpt><trkpt lat="45.00944757432143" lon="9.94339265058336"><ele>44.833333333333336</ele><time>2026-03-22T11:00:52Z</time></trkpt><trkpt lat="45.009531624820696" lon="9.943426888746648"><ele>45.0</ele><time>2026-03-22T11:00:53Z</time></trkpt><trkpt lat="45.009617415112714" lon="9.943458055927794"><ele>45.166666666666664</ele><time>2026-03-22T11:00:54Z</time></trkpt><trkpt lat="45.009702427523834" lon="9.943489278232596"><ele>45.333333333333336</ele><time>2026-03-22T11:00:55Z</time></trkpt><trkpt lat="45.00978851938959" lon="9.94351923809201"><ele>45.5</ele><time>2026-03-22T11:00:56Z</time></trkpt><trkpt lat="45.00986959211883" lon="9.943551100118087"><ele>45.66666666666667</ele><time>2026-03-22T11:00:57Z</time></trkpt><trkpt lat="45.009953212693695" lon="9.943582183370873"><ele>45.833333333333336</ele><time>2026-03-22T11:00:58Z</time></trkpt><trkpt lat="45.01003991716904" lon="9.943611681946164"><ele>46.0</ele><time>2026-03-22T11:00:59Z</time></trkpt><trkpt lat="45.01012512962413" lon="9.943643358107998"><ele>46.0</ele><time>2026-03-22T11:01:00Z</time></trkpt><trkpt lat="45.01020994214257" lon="9.943672864832157"><ele>46.0</ele><time>2026-03-22T11:01:01Z</time></trkpt><trkpt lat="45.01029550689784" lon="9.943704591890413"><ele>46.0</ele><time>2026-03-22T11:01:01.999Z</time></trkpt><trkpt lat="45.01038068055147" lon="9.943729195842296"><ele>46.0</ele><time>2026-03-22T11:01:02.999Z</time></trkpt><trkpt lat="45.01046810129347" lon="9.943759751552625"><ele>46.0</ele><time>2026-03-22T11:01:03.999Z</time></trkpt><trkpt lat="45.01055545098926" lon="9.943789722932415"><ele>46.0</ele><time>2026-03-22T11:01:04.999Z</time></trkpt><trkpt lat="45.010641004179156" lon="9.943816204790922"><ele>46.0</ele><time>2026-03-22T11:01:05.999Z</time></trkpt><trkpt lat="45.010729698511106" lon="9.943844105447788"><ele>46.0</ele><time>2026-03-22T11:01:06.999Z</time></trkpt><trkpt lat="45.010815151584154" lon="9.94386892084864"><ele>46.0</ele><time>2026-03-22T11:01:07.999Z</time></trkpt><trkpt lat="45.01090198516358" lon="9.943897983399205"><ele>46.0</ele><time>2026-03-22T11:01:08.999Z</time></trkpt><trkpt lat="45.010987584900704" lon="9.94392388321485"><ele>46.0</ele><time>2026-03-22T11:01:09.999Z</time></trkpt><trkpt lat="45.01107335459837" lon="9.943951930943513"><ele>46.0</ele><time>2026-03-22T11:01:10.999Z</time></trkpt><trkpt lat="45.011159091981334" lon="9.943979313484018"><ele>46.0</ele><time>2026-03-22T11:01:11.999Z</time></trkpt><trkpt lat="45.011243682895625" lon="9.944009663324511"><ele>46.0</ele><time>2026-03-22T11:01:12.999Z</time></trkpt><trkpt lat="45.011331109928754" lon="9.944034927876405"><ele>46.0</ele><time>2026-03-22T11:01:13.999Z</time></trkpt><trkpt lat="45.01141951346196" lon="9.944064612451335"><ele>46.0</ele><time>2026-03-22T11:01:14.999Z</time></trkpt><trkpt lat="45.01150484414606" lon="9.944089769672706"><ele>46.0</ele><time>2026-03-22T11:01:15.999Z</time></trkpt><trkpt lat="45.01159295956774" lon="9.944118197289907"><ele>46.0</ele><time>2026-03-22T11:01:16.999Z</time></trkpt><trkpt lat="45.01167968134256" lon="9.944145583459937"><ele>46.0</ele><time>2026-03-22T11:01:17.999Z</time></trkpt><trkpt lat="45.01176689267083" lon="9.944170703001534"><ele>46.0</ele><time>2026-03-22T11:01:18.999Z</time></trkpt><trkpt lat="45.01185454455068" lon="9.944192759074125"><ele>46.0</ele><time>2026-03-22T11:01:19.999Z</time></trkpt><trkpt lat="45.01194349207931" lon="9.944219965111941"><ele>46.0</ele><time>2026-03-22T11:01:20.999Z</time></trkpt><trkpt lat="45.01202886152471" lon="9.944240847782785"><ele>46.0</ele><time>2026-03-22T11:01:21.999Z</time></trkpt><trkpt lat="45.012117507727226" lon="9.944263621154446"><ele>46.0</ele><time>2026-03-22T11:01:22.999Z</time></trkpt><trkpt lat="45.01220643862307" lon="9.944283751330564"><ele>45.66666666666667</ele><time>2026-03-22T11:01:23.999Z</time></trkpt><trkpt lat="45.012294768968225" lon="9.944306559256487"><ele>45.333333333333336</ele><time>2026-03-22T11:01:24.999Z</time></trkpt><trkpt lat="45.01238253877249" lon="9.944329517937684"><ele>45.0</ele><time>2026-03-22T11:01:25.999Z</time></trkpt><trkpt lat="45.01247073481532" lon="9.944350152065054"><ele>44.666666666666664</ele><time>2026-03-22T11:01:26.999Z</time></trkpt><trkpt lat="45.01255971784835" lon="9.944373448242784"><ele>44.33333333333333</ele><time>2026-03-22T11:01:27.999Z</time></trkpt><trkpt lat="45.01264626501575" lon="9.944396342687437"><ele>44.0</ele><time>2026-03-22T11:01:28.999Z</time></trkpt><trkpt lat="45.01273513155216" lon="9.944421897902714"><ele>44.0</ele><time>2026-03-22T11:01:29.999Z</time></trkpt><trkpt lat="45.012822586400944" lon="9.944442221820015"><ele>44.0</ele><time>2026-03-22T11:01:30.999Z</time></trkpt><trkpt lat="45.01290921118791" lon="9.944467920968771"><ele>44.0</ele><time>2026-03-22T11:01:31.999Z</time></trkpt><trkpt lat="45.0129983172987" lon="9.944499713990911"><ele>44.0</ele><time>2026-03-22T11:01:32.999Z</time></trkpt><trkpt lat="45.01308492844076" lon="9.944537739355589"><ele>44.0</ele><time>2026-03-22T11:01:33.999Z</time></trkpt><trkpt lat="45.01316940417266" lon="9.944577599933934"><ele>44.0</ele><time>2026-03-22T11:01:34.999Z</time></trkpt><trkpt lat="45.01324975047621" lon="9.944624298427172"><ele>44.0</ele><time>2026-03-22T11:01:35.999Z</time></trkpt><trkpt lat="45.01333099028969" lon="9.944673561071204"><ele>44.0</ele><time>2026-03-22T11:01:36.999Z</time></trkpt><trkpt lat="45.013413411775794" lon="9.944726214300058"><ele>44.0</ele><time>2026-03-22T11:01:37.999Z</time></trkpt><trkpt lat="45.01349370372703" lon="9.944781675679891"><ele>44.0</ele><time>2026-03-22T11:01:38.999Z</time></trkpt><trkpt lat="45.01357271361504" lon="9.944838078958739"><ele>44.0</ele><time>2026-03-22T11:01:39.999Z</time></trkpt><trkpt lat="45.01365326255844" lon="9.944896429626384"><ele>44.0</ele><time>2026-03-22T11:01:40.999Z</time></trkpt><trkpt lat="45.01373008231519" lon="9.944953295722518"><ele>44.0</ele><time>2026-03-22T11:01:41.999Z</time></trkpt><trkpt lat="45.01380891984827" lon="9.945012079316522"><ele>44.0</ele><time>2026-03-22T11:01:42.999Z</time></trkpt><trkpt lat="45.01388742644755" lon="9.945072543242286"><ele>44.0</ele><time>2026-03-22T11:01:43.999Z</time></trkpt><trkpt lat="45.013963817844235" lon="9.945134909666798"><ele>44.0</ele><time>2026-03-22T11:01:44.999Z</time></trkpt><trkpt lat="45.014039862501875" lon="9.945195945451264"><ele>44.0</ele><time>2026-03-22T11:01:45.999Z</time></trkpt><trkpt lat="45.014119117635154" lon="9.945252359496628"><ele>44.0</ele><time>2026-03-22T11:01:46.999Z</time></trkpt><trkpt lat="45.01419530145416" lon="9.945316209931065"><ele>44.0</ele><time>2026-03-22T11:01:47.999Z</time></trkpt><trkpt lat="45.01427027692573" lon="9.945376135832564"><ele>44.0</ele><time>2026-03-22T11:01:48.999Z</time></trkpt><trkpt lat="45.01434724645325" lon="9.945438588057613"><ele>44.0</ele><time>2026-03-22T11:01:49.999Z</time></trkpt><trkpt lat="45.01442365157774" lon="9.945500983537892"><ele>44.0</ele><time>2026-03-22T11:01:50.999Z</time></trkpt><trkpt lat="45.014499980638625" lon="9.945560911753093"><ele>44.0</ele><time>2026-03-22T11:01:51.999Z</time></trkpt><trkpt lat="45.01457366144647" lon="9.94562385464843"><ele>44.0</ele><time>2026-03-22T11:01:52.999Z</time></trkpt><trkpt lat="45.01465016332081" lon="9.945687748651109"><ele>44.0</ele><time>2026-03-22T11:01:53.999Z</time></trkpt><trkpt lat="45.01472279456194" lon="9.945747901350291"><ele>44.0</ele><time>2026-03-22T11:01:54.998Z</time></trkpt><trkpt lat="45.01479774554379" lon="9.945806045281396"><ele>44.0</ele><time>2026-03-22T11:01:55.998Z</time></trkpt><trkpt lat="45.01487134888728" lon="9.945867086007562"><ele>44.0</ele><time>2026-03-22T11:01:56.998Z</time></trkpt><trkpt lat="45.014947579305954" lon="9.945926882063416"><ele>44.0</ele><time>2026-03-22T11:01:57.998Z</time></trkpt><trkpt lat="45.01501963002064" lon="9.945991195379678"><ele>44.0</ele><time>2026-03-22T11:01:58.998Z</time></trkpt><trkpt lat="45.015093153665404" lon="9.946048781778664"><ele>44.33333333333333</ele><time>2026-03-22T11:01:59.998Z</time></trkpt><trkpt lat="45.01517086730725" lon="9.946107551084904"><ele>44.666666666666664</ele><time>2026-03-22T11:02:00.998Z</time></trkpt><trkpt lat="45.015244436720906" lon="9.94616668134424"><ele>45.0</ele><time>2026-03-22T11:02:01.998Z</time></trkpt><trkpt lat="45.01531812677465" lon="9.946233225583802"><ele>45.333333333333336</ele><time>2026-03-22T11:02:02.998Z</time></trkpt><trkpt lat="45.01539391735534" lon="9.946294314454217"><ele>45.66666666666667</ele><time>2026-03-22T11:02:03.998Z</time></trkpt><trkpt lat="45.01546924011678" lon="9.946354609937906"><ele>46.0</ele><time>2026-03-22T11:02:04.998Z</time></trkpt><trkpt lat="45.01554482681078" lon="9.94641479015581"><ele>46.0</ele><time>2026-03-22T11:02:05.998Z</time></trkpt><trkpt lat="45.01561885000464" lon="9.946480813367518"><ele>46.0</ele><time>2026-03-22T11:02:06.998Z</time></trkpt><trkpt lat="45.01569215791258" lon="9.946543006399228"><ele>46.0</ele><time>2026-03-22T11:02:07.998Z</time></trkpt><trkpt lat="45.015766840674495" lon="9.946604850445837"><ele>46.0</ele><time>2026-03-22T11:02:08.998Z</time></trkpt><trkpt lat="45.015840316514996" lon="9.946666295975575"><ele>46.0</ele><time>2026-03-22T11:02:09.998Z</time></trkpt><trkpt lat="45.015915125818715" lon="9.946724973598416"><ele>46.0</ele><time>2026-03-22T11:02:10.998Z</time></trkpt><trkpt lat="45.01599111004923" lon="9.946786512699237"><ele>46.0</ele><time>2026-03-22T11:02:11.998Z</time></trkpt><trkpt lat="45.01606480481677" lon="9.946845846780283"><ele>46.0</ele><time>2026-03-22T11:02:12.998Z</time></trkpt><trkpt lat="45.016139991918244" lon="9.946903414160044"><ele>46.0</ele><time>2026-03-22T11:02:13.998Z</time></trkpt><trkpt lat="45.01621605305471" lon="9.94695783130294"><ele>46.0</ele><time>2026-03-22T11:02:14.998Z</time></trkpt><trkpt lat="45.01629254394" lon="9.947013225270227"><ele>46.0</ele><time>2026-03-22T11:02:15.998Z</time></trkpt><trkpt lat="45.016370975400754" lon="9.947066589435531"><ele>46.0</ele><time>2026-03-22T11:02:16.998Z</time></trkpt><trkpt lat="45.01645057167572" lon="9.947118892770973"><ele>46.0</ele><time>2026-03-22T11:02:17.998Z</time></trkpt><trkpt lat="45.01653134010231" lon="9.94716405589553"><ele>46.0</ele><time>2026-03-22T11:02:18.998Z</time></trkpt><trkpt lat="45.01661361735471" lon="9.947211472004087"><ele>46.0</ele><time>2026-03-22T11:02:19.998Z</time></trkpt><trkpt lat="45.01669595458524" lon="9.94725527192601"><ele>46.0</ele><time>2026-03-22T11:02:20.998Z</time></trkpt><trkpt lat="45.016779290582875" lon="9.947294138320657"><ele>46.0</ele><time>2026-03-22T11:02:21.998Z</time></trkpt><trkpt lat="45.01686150286754" lon="9.947330625877374"><ele>46.0</ele><time>2026-03-22T11:02:22.998Z</time></trkpt><trkpt lat="45.016945815621305" lon="9.947367784136475"><ele>45.833333333333336</ele><time>2026-03-22T11:02:23.998Z</time></trkpt><trkpt lat="45.01702999072992" lon="9.947400833758644"><ele>45.66666666666667</ele><time>2026-03-22T11:02:24.998Z</time></trkpt><trkpt lat="45.017115432737135" lon="9.947435459586378"><ele>45.5</ele><time>2026-03-22T11:02:25.998Z</time></trkpt><trkpt lat="45.01720149640749" lon="9.947463307079596"><ele>45.333333333333336</ele><time>2026-03-22T11:02:26.998Z</time></trkpt><trkpt lat="45.01728318324161" lon="9.947497952782186"><ele>45.166666666666664</ele><time>2026-03-22T11:02:27.998Z</time></trkpt><trkpt lat="45.0173677012617" lon="9.94752861290327"><ele>45.0</ele><time>2026-03-22T11:02:28.998Z</time></trkpt><trkpt lat="45.01745120875115" lon="9.947558601041303"><ele>45.166666666666664</ele><time>2026-03-22T11:02:29.998Z</time></trkpt><trkpt lat="45.01753482583003" lon="9.947590492515015"><ele>45.333333333333336</ele><time>2026-03-22T11:02:30.998Z</time></trkpt><trkpt lat="45.01762170900885" lon="9.947623890812448"><ele>45.5</ele><time>2026-03-22T11:02:31.998Z</time></trkpt><trkpt lat="45.017703872004" lon="9.947655480463606"><ele>45.66666666666667</ele><time>2026-03-22T11:02:32.998Z</time></trkpt><trkpt lat="45.017789337958554" lon="9.947691727632455"><ele>45.833333333333336</ele><time>2026-03-22T11:02:33.998Z</time></trkpt><trkpt lat="45.01787370623765" lon="9.947726527532556"><ele>46.0</ele><time>2026-03-22T11:02:34.998Z</time></trkpt><trkpt lat="45.01795632473812" lon="9.947763100849848"><ele>46.0</ele><time>2026-03-22T11:02:35.998Z</time></trkpt><trkpt lat="45.018037825064916" lon="9.947804325566455"><ele>46.0</ele><time>2026-03-22T11:02:37Z</time></trkpt><trkpt lat="45.01812128213519" lon="9.94784605775216"><ele>46.0</ele><time>2026-03-22T11:02:38Z</time></trkpt><trkpt lat="45.01820406903944" lon="9.947891746709406"><ele>46.0</ele><time>2026-03-22T11:02:39Z</time></trkpt><trkpt lat="45.01828479534528" lon="9.947939390466509"><ele>46.0</ele><time>2026-03-22T11:02:40Z</time></trkpt><trkpt lat="45.01836675301055" lon="9.947989297209714"><ele>46.0</ele><time>2026-03-22T11:02:41Z</time></trkpt><trkpt lat="45.018445413812195" lon="9.948039117307578"><ele>46.0</ele><time>2026-03-22T11:02:42Z</time></trkpt><trkpt lat="45.018522675549214" lon="9.948092460966889"><ele>46.0</ele><time>2026-03-22T11:02:43Z</time></trkpt><trkpt lat="45.01860000435247" lon="9.948141041242138"><ele>46.0</ele><time>2026-03-22T11:02:44Z</time></trkpt><trkpt lat="45.01868019071248" lon="9.948188734139881"><ele>46.0</ele><time>2026-03-22T11:02:45Z</time></trkpt><trkpt lat="45.01876080426447" lon="9.948228493304045"><ele>46.0</ele><time>2026-03-22T11:02:46Z</time></trkpt><trkpt lat="45.01884369644091" lon="9.948256247362917"><ele>46.0</ele><time>2026-03-22T11:02:47Z</time></trkpt><trkpt lat="45.01892633959336" lon="9.948276090077364"><ele>46.0</ele><time>2026-03-22T11:02:48Z</time></trkpt><trkpt lat="45.019010539200416" lon="9.948294604686064"><ele>46.0</ele><time>2026-03-22T11:02:49Z</time></trkpt><trkpt lat="45.019094312130164" lon="9.948305833153006"><ele>46.0</ele><time>2026-03-22T11:02:50Z</time></trkpt><trkpt lat="45.01917742321594" lon="9.948316227091118"><ele>46.0</ele><time>2026-03-22T11:02:51Z</time></trkpt><trkpt lat="45.01926097811675" lon="9.94832585613678"><ele>46.0</ele><time>2026-03-22T11:02:52Z</time></trkpt><trkpt lat="45.01934660421257" lon="9.948336578672881"><ele>46.0</ele><time>2026-03-22T11:02:53Z</time></trkpt><trkpt lat="45.01943240750944" lon="9.948344108831984"><ele>46.0</ele><time>2026-03-22T11:02:54Z</time></trkpt><trkpt lat="45.01951858154955" lon="9.948350137005919"><ele>46.0</ele><time>2026-03-22T11:02:55Z</time></trkpt><trkpt lat="45.019605687910065" lon="9.948359436033641"><ele>46.0</ele><time>2026-03-22T11:02:56Z</time></trkpt><trkpt lat="45.01969288867833" lon="9.948367122813014"><ele>46.0</ele><time>2026-03-22T11:02:57Z</time></trkpt><trkpt lat="45.01978077136402" lon="9.948372131041005"><ele>46.0</ele><time>2026-03-22T11:02:58Z</time></trkpt><trkpt lat="45.019870054677625" lon="9.948375187264649"><ele>46.0</ele><time>2026-03-22T11:02:59Z</time></trkpt><trkpt lat="45.01995899635451" lon="9.948377861347634"><ele>46.5</ele><time>2026-03-22T11:03:00Z</time></trkpt><trkpt lat="45.020048152817814" lon="9.94838377773197"><ele>47.0</ele><time>2026-03-22T11:03:01Z</time></trkpt><trkpt lat="45.020135833285075" lon="9.948391360522493"><ele>47.5</ele><time>2026-03-22T11:03:02Z</time></trkpt><trkpt lat="45.02022364310422" lon="9.948400472534338"><ele>48.0</ele><time>2026-03-22T11:03:03Z</time></trkpt><trkpt lat="45.02030758395685" lon="9.948408913268654"><ele>48.49999999999999</ele><time>2026-03-22T11:03:04Z</time></trkpt><trkpt lat="45.0203938748047" lon="9.948421790575777"><ele>49.0</ele><time>2026-03-22T11:03:04.999Z</time></trkpt><trkpt lat="45.02047844719149" lon="9.948434212307083"><ele>48.99999999999999</ele><time>2026-03-22T11:03:05.999Z</time></trkpt><trkpt lat="45.02056302768764" lon="9.948446248735973"><ele>49.0</ele><time>2026-03-22T11:03:06.999Z</time></trkpt><trkpt lat="45.02064581205018" lon="9.948460568967946"><ele>49.0</ele><time>2026-03-22T11:03:07.999Z</time></trkpt><trkpt lat="45.020730843162085" lon="9.948475421372853"><ele>49.0</ele><time>2026-03-22T11:03:08.999Z</time></trkpt><trkpt lat="45.02081383910222" lon="9.948485989071754"><ele>48.99999999999999</ele><time>2026-03-22T11:03:09.999Z</time></trkpt><trkpt lat="45.02089569203894" lon="9.94850318434604"><ele>49.0</ele><time>2026-03-22T11:03:10.999Z</time></trkpt><trkpt lat="45.020977975891185" lon="9.94852333047345"><ele>49.666666666666664</ele><time>2026-03-22T11:03:11.999Z</time></trkpt><trkpt lat="45.02105750290472" lon="9.948546307029723"><ele>50.33333333333333</ele><time>2026-03-22T11:03:12.999Z</time></trkpt><trkpt lat="45.021132252904266" lon="9.948580463715858"><ele>51.0</ele><time>2026-03-22T11:03:13.999Z</time></trkpt><trkpt lat="45.02120619981859" lon="9.948624138580756"><ele>51.66666666666667</ele><time>2026-03-22T11:03:14.999Z</time></trkpt><trkpt lat="45.021284879525325" lon="9.94865090298163"><ele>52.333333333333336</ele><time>2026-03-22T11:03:15.999Z</time></trkpt><trkpt lat="45.02136504381656" lon="9.94865051578855"><ele>53.0</ele><time>2026-03-22T11:03:16.999Z</time></trkpt><trkpt lat="45.021440896011974" lon="9.94861676985107"><ele>53.00000000000001</ele><time>2026-03-22T11:03:17.999Z</time></trkpt><trkpt lat="45.02149857595501" lon="9.948540695428077"><ele>53.0</ele><time>2026-03-22T11:03:18.999Z</time></trkpt><trkpt lat="45.02153893074993" lon="9.948441765222434"><ele>53.0</ele><time>2026-03-22T11:03:19.999Z</time></trkpt><trkpt lat="45.02157083239494" lon="9.948341562330288"><ele>53.0</ele><time>2026-03-22T11:03:20.999Z</time></trkpt><trkpt lat="45.021600920691874" lon="9.948241387140195"><ele>53.00000000000001</ele><time>2026-03-22T11:03:21.999Z</time></trkpt><trkpt lat="45.02162987656827" lon="9.948137906127467"><ele>53.0</ele><time>2026-03-22T11:03:22.999Z</time></trkpt><trkpt lat="45.02165679600467" lon="9.948032545793183"><ele>51.833333333333336</ele><time>2026-03-22T11:03:23.999Z</time></trkpt><trkpt lat="45.02168906167511" lon="9.947925408604206"><ele>50.66666666666667</ele><time>2026-03-22T11:03:24.999Z</time></trkpt><trkpt lat="45.021720332768226" lon="9.94781851377986"><ele>49.5</ele><time>2026-03-22T11:03:25.999Z</time></trkpt><trkpt lat="45.02174869425423" lon="9.947712479558298"><ele>48.333333333333336</ele><time>2026-03-22T11:03:26.999Z</time></trkpt><trkpt lat="45.02177819329002" lon="9.947603003395415"><ele>47.16666666666667</ele><time>2026-03-22T11:03:27.999Z</time></trkpt><trkpt lat="45.02180873112788" lon="9.947492586895374"><ele>46.0</ele><time>2026-03-22T11:03:28.999Z</time></trkpt><trkpt lat="45.02184068311732" lon="9.9473817495462"><ele>46.0</ele><time>2026-03-22T11:03:29.999Z</time></trkpt><trkpt lat="45.02187230591992" lon="9.947271688677379"><ele>46.0</ele><time>2026-03-22T11:03:30.999Z</time></trkpt><trkpt lat="45.02190513022566" lon="9.94716182942147"><ele>46.0</ele><time>2026-03-22T11:03:31.999Z</time></trkpt><trkpt lat="45.021936471961574" lon="9.947047348810395"><ele>46.0</ele><time>2026-03-22T11:03:32.999Z</time></trkpt><trkpt lat="45.021970011651526" lon="9.9469341771356"><ele>46.0</ele><time>2026-03-22T11:03:33.999Z</time></trkpt><trkpt lat="45.02200311340674" lon="9.94682269363866"><ele>46.0</ele><time>2026-03-22T11:03:34.999Z</time></trkpt><trkpt lat="45.02203754129369" lon="9.946710055800605"><ele>45.833333333333336</ele><time>2026-03-22T11:03:35.999Z</time></trkpt><trkpt lat="45.02207049865878" lon="9.946598184309982"><ele>45.66666666666667</ele><time>2026-03-22T11:03:36.999Z</time></trkpt><trkpt lat="45.0220989377368" lon="9.94648019199258"><ele>45.5</ele><time>2026-03-22T11:03:37.999Z</time></trkpt><trkpt lat="45.02213740726121" lon="9.946367544455272"><ele>45.333333333333336</ele><time>2026-03-22T11:03:38.999Z</time></trkpt><trkpt lat="45.022170066361646" lon="9.946251899527615"><ele>45.166666666666664</ele><time>2026-03-22T11:03:39.999Z</time></trkpt><trkpt lat="45.02220542505065" lon="9.94613690670809"><ele>45.0</ele><time>2026-03-22T11:03:40.999Z</time></trkpt><trkpt lat="45.02224117002327" lon="9.946023900359885"><ele>45.0</ele><time>2026-03-22T11:03:41.999Z</time></trkpt><trkpt lat="45.02227427846858" lon="9.945910184858862"><ele>45.0</ele><time>2026-03-22T11:03:42.999Z</time></trkpt><trkpt lat="45.02230853162085" lon="9.945796468608572"><ele>45.0</ele><time>2026-03-22T11:03:43.999Z</time></trkpt><trkpt lat="45.02234333143529" lon="9.945682344141185"><ele>45.0</ele><time>2026-03-22T11:03:44.999Z</time></trkpt><trkpt lat="45.02237653775657" lon="9.945569067417624"><ele>45.0</ele><time>2026-03-22T11:03:45.999Z</time></trkpt><trkpt lat="45.02241023878314" lon="9.945455558812597"><ele>45.0</ele><time>2026-03-22T11:03:46.999Z</time></trkpt><trkpt lat="45.02244428729717" lon="9.945342655141959"><ele>44.833333333333336</ele><time>2026-03-22T11:03:47.999Z</time></trkpt><trkpt lat="45.02247669566006" lon="9.945230802612144"><ele>44.666666666666664</ele><time>2026-03-22T11:03:48.999Z</time></trkpt><trkpt lat="45.02251119042625" lon="9.94512136297839"><ele>44.5</ele><time>2026-03-22T11:03:49.999Z</time></trkpt><trkpt lat="45.02254579850448" lon="9.94501230101418"><ele>44.33333333333333</ele><time>2026-03-22T11:03:50.999Z</time></trkpt><trkpt lat="45.022582444408684" lon="9.944902613127512"><ele>44.166666666666664</ele><time>2026-03-22T11:03:51.999Z</time></trkpt><trkpt lat="45.022617202987306" lon="9.944792685746513"><ele>44.0</ele><time>2026-03-22T11:03:52.999Z</time></trkpt><trkpt lat="45.02265696381404" lon="9.944681595330936"><ele>44.0</ele><time>2026-03-22T11:03:53.999Z</time></trkpt><trkpt lat="45.02269864273495" lon="9.944576092045558"><ele>44.0</ele><time>2026-03-22T11:03:54.999Z</time></trkpt><trkpt lat="45.02274747233936" lon="9.944475057291811"><ele>44.0</ele><time>2026-03-22T11:03:55.999Z</time></trkpt><trkpt lat="45.022802483775195" lon="9.944379775351539"><ele>44.0</ele><time>2026-03-22T11:03:56.999Z</time></trkpt><trkpt lat="45.022862138850336" lon="9.944289746851664"><ele>44.0</ele><time>2026-03-22T11:03:57.998Z</time></trkpt><trkpt lat="45.0229235307406" lon="9.94420575899191"><ele>44.0</ele><time>2026-03-22T11:03:58.998Z</time></trkpt><trkpt lat="45.02298471767998" lon="9.9441201981027"><ele>43.83333333333333</ele><time>2026-03-22T11:03:59.998Z</time></trkpt><trkpt lat="45.023045402750455" lon="9.94403099826433"><ele>43.666666666666664</ele><time>2026-03-22T11:04:00.998Z</time></trkpt><trkpt lat="45.02310528546939" lon="9.94394200037603"><ele>43.5</ele><time>2026-03-22T11:04:01.998Z</time></trkpt><trkpt lat="45.02316702545157" lon="9.943853073054807"><ele>43.333333333333336</ele><time>2026-03-22T11:04:02.998Z</time></trkpt><trkpt lat="45.02322691185449" lon="9.943764762664523"><ele>43.16666666666667</ele><time>2026-03-22T11:04:03.998Z</time></trkpt><trkpt lat="45.02328924527675" lon="9.94367723965272"><ele>43.0</ele><time>2026-03-22T11:04:04.998Z</time></trkpt><trkpt lat="45.02334969035353" lon="9.943589814219495"><ele>43.0</ele><time>2026-03-22T11:04:05.998Z</time></trkpt><trkpt lat="45.02340987087249" lon="9.943500690074082"><ele>43.0</ele><time>2026-03-22T11:04:06.998Z</time></trkpt><trkpt lat="45.02347101599836" lon="9.94341328911484"><ele>43.0</ele><time>2026-03-22T11:04:07.998Z</time></trkpt><trkpt lat="45.02353169240706" lon="9.943326127850574"><ele>43.0</ele><time>2026-03-22T11:04:08.998Z</time></trkpt><trkpt lat="45.023592568885206" lon="9.943236567097737"><ele>43.0</ele><time>2026-03-22T11:04:09.998Z</time></trkpt><trkpt lat="45.023654132508334" lon="9.943147705952565"><ele>43.0</ele><time>2026-03-22T11:04:10.998Z</time></trkpt><trkpt lat="45.023715711584316" lon="9.943056954596134"><ele>43.333333333333336</ele><time>2026-03-22T11:04:11.998Z</time></trkpt><trkpt lat="45.02377839147004" lon="9.942968881053014"><ele>43.66666666666667</ele><time>2026-03-22T11:04:12.998Z</time></trkpt><trkpt lat="45.02383996829018" lon="9.942880052690944"><ele>44.0</ele><time>2026-03-22T11:04:13.998Z</time></trkpt><trkpt lat="45.0239007540641" lon="9.942791480122258"><ele>44.333333333333336</ele><time>2026-03-22T11:04:14.998Z</time></trkpt><trkpt lat="45.02396225251056" lon="9.942703295480618"><ele>44.666666666666664</ele><time>2026-03-22T11:04:15.998Z</time></trkpt><trkpt lat="45.02402288840399" lon="9.942613981074507"><ele>45.0</ele><time>2026-03-22T11:04:16.998Z</time></trkpt><trkpt lat="45.02408624031895" lon="9.9425277009564"><ele>44.5</ele><time>2026-03-22T11:04:17.998Z</time></trkpt><trkpt lat="45.0241506909474" lon="9.94244146442633"><ele>44.0</ele><time>2026-03-22T11:04:18.998Z</time></trkpt><trkpt lat="45.02421703813166" lon="9.942359894303216"><ele>43.5</ele><time>2026-03-22T11:04:19.998Z</time></trkpt><trkpt lat="45.024288608240845" lon="9.942287999920685"><ele>43.0</ele><time>2026-03-22T11:04:20.998Z</time></trkpt><trkpt lat="45.02436601340177" lon="9.942230056688187"><ele>42.5</ele><time>2026-03-22T11:04:21.998Z</time></trkpt><trkpt lat="45.024447877800306" lon="9.942181340551556"><ele>42.0</ele><time>2026-03-22T11:04:22.998Z</time></trkpt><trkpt lat="45.024532428695515" lon="9.94214878136551"><ele>42.0</ele><time>2026-03-22T11:04:23.998Z</time></trkpt><trkpt lat="45.02461834717282" lon="9.94213466991316"><ele>42.0</ele><time>2026-03-22T11:04:24.998Z</time></trkpt><trkpt lat="45.02470420919283" lon="9.942138717736825"><ele>42.0</ele><time>2026-03-22T11:04:25.998Z</time></trkpt><trkpt lat="45.02478784997878" lon="9.942154890822234"><ele>42.0</ele><time>2026-03-22T11:04:26.998Z</time></trkpt><trkpt lat="45.02486924390987" lon="9.94218315063957"><ele>42.0</ele><time>2026-03-22T11:04:27.998Z</time></trkpt><trkpt lat="45.02494934945984" lon="9.942213153142086"><ele>42.0</ele><time>2026-03-22T11:04:28.998Z</time></trkpt><trkpt lat="45.025030840040095" lon="9.942247452044255"><ele>42.333333333333336</ele><time>2026-03-22T11:04:29.998Z</time></trkpt><trkpt lat="45.025111395790894" lon="9.942281090767462"><ele>42.666666666666664</ele><time>2026-03-22T11:04:30.998Z</time></trkpt><trkpt lat="45.02519296730078" lon="9.942316859957302"><ele>43.0</ele><time>2026-03-22T11:04:31.998Z</time></trkpt><trkpt lat="45.02527276689958" lon="9.942347300802219"><ele>43.33333333333333</ele><time>2026-03-22T11:04:32.998Z</time></trkpt><trkpt lat="45.025355112613376" lon="9.942382314607588"><ele>43.666666666666664</ele><time>2026-03-22T11:04:33.998Z</time></trkpt><trkpt lat="45.02543487011324" lon="9.94241534965937"><ele>44.0</ele><time>2026-03-22T11:04:34.998Z</time></trkpt><trkpt lat="45.025516370121665" lon="9.942447904774442"><ele>44.0</ele><time>2026-03-22T11:04:35.998Z</time></trkpt><trkpt lat="45.02559722169157" lon="9.942478337727797"><ele>44.0</ele><time>2026-03-22T11:04:36.998Z</time></trkpt><trkpt lat="45.02567818457805" lon="9.942513464529739"><ele>44.0</ele><time>2026-03-22T11:04:37.998Z</time></trkpt><trkpt lat="45.025759119153754" lon="9.942542408570596"><ele>44.0</ele><time>2026-03-22T11:04:38.998Z</time></trkpt><trkpt lat="45.02584048874369" lon="9.942575846139277"><ele>44.0</ele><time>2026-03-22T11:04:39.998Z</time></trkpt><trkpt lat="45.025920914081254" lon="9.942607082276835"><ele>44.0</ele><time>2026-03-22T11:04:40.998Z</time></trkpt><trkpt lat="45.02600177420906" lon="9.942640064574942"><ele>43.666666666666664</ele><time>2026-03-22T11:04:41.998Z</time></trkpt><trkpt lat="45.02608277882185" lon="9.942670581407842"><ele>43.33333333333333</ele><time>2026-03-22T11:04:43Z</time></trkpt><trkpt lat="45.02616415450626" lon="9.942704839319509"><ele>43.0</ele><time>2026-03-22T11:04:44Z</time></trkpt><trkpt lat="45.02624505811301" lon="9.94273698728446"><ele>42.666666666666664</ele><time>2026-03-22T11:04:45Z</time></trkpt><trkpt lat="45.02632737744375" lon="9.942769883142738"><ele>42.333333333333336</ele><time>2026-03-22T11:04:46Z</time></trkpt><trkpt lat="45.026409260295395" lon="9.942803686879827"><ele>42.0</ele><time>2026-03-22T11:04:47Z</time></trkpt><trkpt lat="45.02649200912002" lon="9.942838301047423"><ele>42.0</ele><time>2026-03-22T11:04:48Z</time></trkpt><trkpt lat="45.02657364285816" lon="9.94286808529948"><ele>42.0</ele><time>2026-03-22T11:04:49Z</time></trkpt><trkpt lat="45.02665539365086" lon="9.942898837751223"><ele>42.0</ele><time>2026-03-22T11:04:50Z</time></trkpt><trkpt lat="45.026736283317" lon="9.942930920375913"><ele>42.0</ele><time>2026-03-22T11:04:51Z</time></trkpt><trkpt lat="45.02681755119267" lon="9.942964441414974"><ele>42.0</ele><time>2026-03-22T11:04:52Z</time></trkpt><trkpt lat="45.02689976436514" lon="9.94299931699829"><ele>42.0</ele><time>2026-03-22T11:04:53Z</time></trkpt><trkpt lat="45.0269825291587" lon="9.943031138819013"><ele>41.833333333333336</ele><time>2026-03-22T11:04:54Z</time></trkpt><trkpt lat="45.02706558089186" lon="9.943064402352757"><ele>41.666666666666664</ele><time>2026-03-22T11:04:55Z</time></trkpt><trkpt lat="45.027147608020634" lon="9.943098063755702"><ele>41.5</ele><time>2026-03-22T11:04:56Z</time></trkpt><trkpt lat="45.02723069397223" lon="9.943131459459474"><ele>41.33333333333333</ele><time>2026-03-22T11:04:57Z</time></trkpt><trkpt lat="45.027313256790684" lon="9.943162604518529"><ele>41.166666666666664</ele><time>2026-03-22T11:04:58Z</time></trkpt><trkpt lat="45.02739454153334" lon="9.943194064160165"><ele>41.0</ele><time>2026-03-22T11:04:59Z</time></trkpt><trkpt lat="45.0274747091745" lon="9.943225841599368"><ele>41.0</ele><time>2026-03-22T11:05:00Z</time></trkpt><trkpt lat="45.0275573150332" lon="9.943258445041316"><ele>41.0</ele><time>2026-03-22T11:05:01Z</time></trkpt><trkpt lat="45.027637936749265" lon="9.943291043915337"><ele>41.0</ele><time>2026-03-22T11:05:02Z</time></trkpt><trkpt lat="45.02772042922062" lon="9.9433268559478"><ele>41.0</ele><time>2026-03-22T11:05:03Z</time></trkpt><trkpt lat="45.02780303131173" lon="9.943359372948695"><ele>41.0</ele><time>2026-03-22T11:05:04Z</time></trkpt><trkpt lat="45.02788619875007" lon="9.943392867954662"><ele>41.0</ele><time>2026-03-22T11:05:05Z</time></trkpt><trkpt lat="45.02796796456289" lon="9.943424608174661"><ele>41.33333333333333</ele><time>2026-03-22T11:05:06Z</time></trkpt><trkpt lat="45.02805054961734" lon="9.943457497550336"><ele>41.666666666666664</ele><time>2026-03-22T11:05:07Z</time></trkpt><trkpt lat="45.028134160737814" lon="9.943488699011716"><ele>42.0</ele><time>2026-03-22T11:05:08Z</time></trkpt><trkpt lat="45.02821807548038" lon="9.943521847678431"><ele>42.333333333333336</ele><time>2026-03-22T11:05:09Z</time></trkpt><trkpt lat="45.02830060573714" lon="9.94355305820601"><ele>42.66666666666667</ele><time>2026-03-22T11:05:10Z</time></trkpt><trkpt lat="45.0283834753953" lon="9.94358365139026"><ele>43.0</ele><time>2026-03-22T11:05:10.999Z</time></trkpt><trkpt lat="45.02846618357716" lon="9.943615165487557"><ele>43.16666666666667</ele><time>2026-03-22T11:05:11.999Z</time></trkpt><trkpt lat="45.02854877141099" lon="9.94364892891263"><ele>43.333333333333336</ele><time>2026-03-22T11:05:12.999Z</time></trkpt><trkpt lat="45.02863066490841" lon="9.943682521920804"><ele>43.5</ele><time>2026-03-22T11:05:13.999Z</time></trkpt><trkpt lat="45.02871209960712" lon="9.943716368611481"><ele>43.666666666666664</ele><time>2026-03-22T11:05:14.999Z</time></trkpt><trkpt lat="45.02879489256623" lon="9.943750604101288"><ele>43.83333333333333</ele><time>2026-03-22T11:05:15.999Z</time></trkpt><trkpt lat="45.02887763230692" lon="9.943783357768767"><ele>44.0</ele><time>2026-03-22T11:05:16.999Z</time></trkpt><trkpt lat="45.028960254231045" lon="9.94381858013595"><ele>44.0</ele><time>2026-03-22T11:05:17.999Z</time></trkpt><trkpt lat="45.02904227909469" lon="9.943849976745211"><ele>44.0</ele><time>2026-03-22T11:05:18.999Z</time></trkpt><trkpt lat="45.02912405346686" lon="9.943883254507451"><ele>44.0</ele><time>2026-03-22T11:05:19.999Z</time></trkpt><trkpt lat="45.02920491361735" lon="9.943914533912153"><ele>44.0</ele><time>2026-03-22T11:05:20.999Z</time></trkpt><trkpt lat="45.029286683304875" lon="9.94394738049781"><ele>44.0</ele><time>2026-03-22T11:05:21.999Z</time></trkpt><trkpt lat="45.029367933465814" lon="9.943978336911814"><ele>44.0</ele><time>2026-03-22T11:05:22.999Z</time></trkpt><trkpt lat="45.029450337346475" lon="9.944012071305178"><ele>43.666666666666664</ele><time>2026-03-22T11:05:23.999Z</time></trkpt><trkpt lat="45.029533035426425" lon="9.944042514955953"><ele>43.33333333333333</ele><time>2026-03-22T11:05:24.999Z</time></trkpt><trkpt lat="45.02961601982177" lon="9.944077501718711"><ele>43.0</ele><time>2026-03-22T11:05:25.999Z</time></trkpt><trkpt lat="45.02969965380076" lon="9.94410908035032"><ele>42.666666666666664</ele><time>2026-03-22T11:05:26.999Z</time></trkpt><trkpt lat="45.02978203578497" lon="9.944142769172778"><ele>42.333333333333336</ele><time>2026-03-22T11:05:27.999Z</time></trkpt><trkpt lat="45.02986422692413" lon="9.944177852353409"><ele>42.0</ele><time>2026-03-22T11:05:28.999Z</time></trkpt><trkpt lat="45.02994734337713" lon="9.944210806494782"><ele>42.333333333333336</ele><time>2026-03-22T11:05:29.999Z</time></trkpt><trkpt lat="45.030029282566986" lon="9.944241712787523"><ele>42.666666666666664</ele><time>2026-03-22T11:05:30.999Z</time></trkpt><trkpt lat="45.03011034520229" lon="9.944275297725587"><ele>43.0</ele><time>2026-03-22T11:05:31.999Z</time></trkpt><trkpt lat="45.03019268483192" lon="9.944308790958644"><ele>43.33333333333333</ele><time>2026-03-22T11:05:32.999Z</time></trkpt><trkpt lat="45.03027480881665" lon="9.944343318881986"><ele>43.666666666666664</ele><time>2026-03-22T11:05:33.999Z</time></trkpt><trkpt lat="45.0303559166282" lon="9.944376146159485"><ele>44.0</ele><time>2026-03-22T11:05:34.999Z</time></trkpt><trkpt lat="45.030437675300504" lon="9.944408572202128"><ele>44.0</ele><time>2026-03-22T11:05:35.999Z</time></trkpt><trkpt lat="45.03052028987953" lon="9.944439809154426"><ele>44.0</ele><time>2026-03-22T11:05:36.999Z</time></trkpt><trkpt lat="45.03060255584446" lon="9.944474475364242"><ele>44.0</ele><time>2026-03-22T11:05:37.999Z</time></trkpt><trkpt lat="45.030686764939816" lon="9.94450954099104"><ele>44.0</ele><time>2026-03-22T11:05:38.999Z</time></trkpt><trkpt lat="45.03076908206107" lon="9.944540800626875"><ele>44.0</ele><time>2026-03-22T11:05:39.999Z</time></trkpt><trkpt lat="45.030853319894014" lon="9.944573452490795"><ele>44.0</ele><time>2026-03-22T11:05:40.999Z</time></trkpt><trkpt lat="45.0309367815238" lon="9.944605143405457"><ele>43.83333333333333</ele><time>2026-03-22T11:05:41.999Z</time></trkpt><trkpt lat="45.03102052023528" lon="9.944638310489696"><ele>43.666666666666664</ele><time>2026-03-22T11:05:42.999Z</time></trkpt><trkpt lat="45.03110369698477" lon="9.94466968789373"><ele>43.5</ele><time>2026-03-22T11:05:43.999Z</time></trkpt><trkpt lat="45.03118605013543" lon="9.94470192303674"><ele>43.333333333333336</ele><time>2026-03-22T11:05:44.999Z</time></trkpt><trkpt lat="45.0312697652369" lon="9.944734914611855"><ele>43.16666666666667</ele><time>2026-03-22T11:05:45.999Z</time></trkpt><trkpt lat="45.03135389351951" lon="9.944767966746818"><ele>43.0</ele><time>2026-03-22T11:05:46.999Z</time></trkpt><trkpt lat="45.03143731939522" lon="9.944799070775032"><ele>43.0</ele><time>2026-03-22T11:05:47.999Z</time></trkpt><trkpt lat="45.031519754890894" lon="9.9448333078477"><ele>43.0</ele><time>2026-03-22T11:05:48.999Z</time></trkpt><trkpt lat="45.0316033894252" lon="9.944870376050451"><ele>43.0</ele><time>2026-03-22T11:05:49.999Z</time></trkpt><trkpt lat="45.031687218628754" lon="9.94490313423512"><ele>43.0</ele><time>2026-03-22T11:05:50.999Z</time></trkpt><trkpt lat="45.031771860540864" lon="9.944935890843164"><ele>43.0</ele><time>2026-03-22T11:05:51.999Z</time></trkpt><trkpt lat="45.03185567249139" lon="9.94496994241969"><ele>43.0</ele><time>2026-03-22T11:05:52.999Z</time></trkpt><trkpt lat="45.03194072682233" lon="9.94500575297638"><ele>43.0</ele><time>2026-03-22T11:05:53.999Z</time></trkpt><trkpt lat="45.03202473704355" lon="9.945040061334113"><ele>43.0</ele><time>2026-03-22T11:05:54.999Z</time></trkpt><trkpt lat="45.03210825178477" lon="9.945074185038598"><ele>43.0</ele><time>2026-03-22T11:05:55.999Z</time></trkpt><trkpt lat="45.03219298230157" lon="9.945106010269765"><ele>43.0</ele><time>2026-03-22T11:05:56.999Z</time></trkpt><trkpt lat="45.03227801875557" lon="9.945134706376034"><ele>43.0</ele><time>2026-03-22T11:05:57.999Z</time></trkpt><trkpt lat="45.03236497930364" lon="9.945159069432764"><ele>43.0</ele><time>2026-03-22T11:05:58.999Z</time></trkpt><trkpt lat="45.03245342472534" lon="9.945166644347179"><ele>42.833333333333336</ele><time>2026-03-22T11:05:59.999Z</time></trkpt><trkpt lat="45.03254370366051" lon="9.945158608358154"><ele>42.66666666666667</ele><time>2026-03-22T11:06:00.999Z</time></trkpt><trkpt lat="45.03263035202376" lon="9.945129326748793"><ele>42.5</ele><time>2026-03-22T11:06:01.999Z</time></trkpt><trkpt lat="45.032710530884074" lon="9.945074830915852"><ele>42.333333333333336</ele><time>2026-03-22T11:06:02.999Z</time></trkpt><trkpt lat="45.032782857652066" lon="9.945004037629984"><ele>42.166666666666664</ele><time>2026-03-22T11:06:03.998Z</time></trkpt><trkpt lat="45.03283923660331" lon="9.944910757016993"><ele>42.0</ele><time>2026-03-22T11:06:04.998Z</time></trkpt><trkpt lat="45.032885807746894" lon="9.944806729743421"><ele>42.0</ele><time>2026-03-22T11:06:05.998Z</time></trkpt><trkpt lat="45.03291513490364" lon="9.94468961729108"><ele>42.0</ele><time>2026-03-22T11:06:06.998Z</time></trkpt><trkpt lat="45.03294091504448" lon="9.944566539748935"><ele>42.0</ele><time>2026-03-22T11:06:07.998Z</time></trkpt><trkpt lat="45.03296411390221" lon="9.944447203706202"><ele>42.0</ele><time>2026-03-22T11:06:08.998Z</time></trkpt><trkpt lat="45.03298785956984" lon="9.944324868145728"><ele>42.0</ele><time>2026-03-22T11:06:09.998Z</time></trkpt><trkpt lat="45.03301001404697" lon="9.944200818998175"><ele>42.0</ele><time>2026-03-22T11:06:10.998Z</time></trkpt><trkpt lat="45.033031247973646" lon="9.944075946989242"><ele>42.166666666666664</ele><time>2026-03-22T11:06:11.998Z</time></trkpt><trkpt lat="45.033053327358765" lon="9.94395255095849"><ele>42.333333333333336</ele><time>2026-03-22T11:06:12.998Z</time></trkpt><trkpt lat="45.03307542848489" lon="9.943829912065475"><ele>42.5</ele><time>2026-03-22T11:06:13.998Z</time></trkpt><trkpt lat="45.0330971555565" lon="9.943708227905363"><ele>42.66666666666667</ele><time>2026-03-22T11:06:14.998Z</time></trkpt><trkpt lat="45.03312005263902" lon="9.943588083087311"><ele>42.833333333333336</ele><time>2026-03-22T11:06:15.998Z</time></trkpt><trkpt lat="45.033139647760045" lon="9.943470185391162"><ele>43.0</ele><time>2026-03-22T11:06:16.998Z</time></trkpt><trkpt lat="45.03315821323519" lon="9.943353038766142"><ele>42.66666666666667</ele><time>2026-03-22T11:06:17.998Z</time></trkpt><trkpt lat="45.033179881595224" lon="9.943239660682108"><ele>42.333333333333336</ele><time>2026-03-22T11:06:18.998Z</time></trkpt><trkpt lat="45.03317425339652" lon="9.943102432064782"><ele>42.0</ele><time>2026-03-22T11:06:19.998Z</time></trkpt><trkpt lat="45.03321548548849" lon="9.943003190136055"><ele>41.666666666666664</ele><time>2026-03-22T11:06:20.998Z</time></trkpt><trkpt lat="45.03325991836641" lon="9.9429021086244"><ele>41.33333333333333</ele><time>2026-03-22T11:06:21.998Z</time></trkpt><trkpt lat="45.033303698320594" lon="9.942809224153244"><ele>41.0</ele><time>2026-03-22T11:06:22.998Z</time></trkpt><trkpt lat="45.03341375999909" lon="9.942750381978191"><ele>40.83333333333333</ele><time>2026-03-22T11:06:23.998Z</time></trkpt><trkpt lat="45.03349856013475" lon="9.942724417789238"><ele>40.666666666666664</ele><time>2026-03-22T11:06:24.998Z</time></trkpt><trkpt lat="45.033581859056596" lon="9.942703965787034"><ele>40.5</ele><time>2026-03-22T11:06:25.998Z</time></trkpt><trkpt lat="45.03366193323569" lon="9.942685120887376"><ele>40.333333333333336</ele><time>2026-03-22T11:06:26.998Z</time></trkpt><trkpt lat="45.033750211178244" lon="9.942755689810557"><ele>40.16666666666667</ele><time>2026-03-22T11:06:27.998Z</time></trkpt><trkpt lat="45.03382912466264" lon="9.942761323647167"><ele>40.0</ele><time>2026-03-22T11:06:28.998Z</time></trkpt><trkpt lat="45.033907613675545" lon="9.942763484155048"><ele>40.0</ele><time>2026-03-22T11:06:29.998Z</time></trkpt><trkpt lat="45.03398245554873" lon="9.942767504745568"><ele>40.0</ele><time>2026-03-22T11:06:30.998Z</time></trkpt><trkpt lat="45.03405644350539" lon="9.942770594868549"><ele>40.0</ele><time>2026-03-22T11:06:31.998Z</time></trkpt><trkpt lat="45.03412955410615" lon="9.94277364007595"><ele>40.0</ele><time>2026-03-22T11:06:32.998Z</time></trkpt><trkpt lat="45.03420528118759" lon="9.942778199034883"><ele>40.0</ele><time>2026-03-22T11:06:33.998Z</time></trkpt><trkpt lat="45.03428232074442" lon="9.942778826571228"><ele>40.0</ele><time>2026-03-22T11:06:34.998Z</time></trkpt><trkpt lat="45.034359425154456" lon="9.942782711013315"><ele>40.0</ele><time>2026-03-22T11:06:35.998Z</time></trkpt><trkpt lat="45.0344380492644" lon="9.942784749761215"><ele>40.0</ele><time>2026-03-22T11:06:36.998Z</time></trkpt><trkpt lat="45.03451879116213" lon="9.942787605464309"><ele>40.0</ele><time>2026-03-22T11:06:37.998Z</time></trkpt><trkpt lat="45.03459781229459" lon="9.942789870880247"><ele>40.0</ele><time>2026-03-22T11:06:38.998Z</time></trkpt><trkpt lat="45.034680566397405" lon="9.942785913621746"><ele>40.0</ele><time>2026-03-22T11:06:39.998Z</time></trkpt><trkpt lat="45.03476410127226" lon="9.942790555789246"><ele>40.0</ele><time>2026-03-22T11:06:40.998Z</time></trkpt><trkpt lat="45.03485032256285" lon="9.942786741404733"><ele>40.0</ele><time>2026-03-22T11:06:41.998Z</time></trkpt><trkpt lat="45.03493693400672" lon="9.942788846926998"><ele>40.0</ele><time>2026-03-22T11:06:42.998Z</time></trkpt><trkpt lat="45.03502796548662" lon="9.942786297662606"><ele>40.0</ele><time>2026-03-22T11:06:43.998Z</time></trkpt><trkpt lat="45.035119128505876" lon="9.942785773851892"><ele>40.0</ele><time>2026-03-22T11:06:44.998Z</time></trkpt><trkpt lat="45.03521110248479" lon="9.942788009583861"><ele>40.0</ele><time>2026-03-22T11:06:45.998Z</time></trkpt><trkpt lat="45.035302050005335" lon="9.94279122322379"><ele>40.0</ele><time>2026-03-22T11:06:46.998Z</time></trkpt><trkpt lat="45.03539089312922" lon="9.942791739886541"><ele>40.0</ele><time>2026-03-22T11:06:47.998Z</time></trkpt><trkpt lat="45.03547969733209" lon="9.942794111296186"><ele>40.0</ele><time>2026-03-22T11:06:49Z</time></trkpt><trkpt lat="45.035565571133084" lon="9.942800431183468"><ele>40.0</ele><time>2026-03-22T11:06:50Z</time></trkpt><trkpt lat="45.03564844442571" lon="9.942803845278604"><ele>40.0</ele><time>2026-03-22T11:06:51Z</time></trkpt><trkpt lat="45.035731174793895" lon="9.942803172906375"><ele>40.0</ele><time>2026-03-22T11:06:52Z</time></trkpt><trkpt lat="45.03581135075697" lon="9.942810226670407"><ele>40.333333333333336</ele><time>2026-03-22T11:06:53Z</time></trkpt><trkpt lat="45.03589410877148" lon="9.942818456014301"><ele>40.66666666666667</ele><time>2026-03-22T11:06:54Z</time></trkpt><trkpt lat="45.035979548634685" lon="9.942819032222568"><ele>41.0</ele><time>2026-03-22T11:06:55Z</time></trkpt><trkpt lat="45.03606638265166" lon="9.942817012330448"><ele>41.333333333333336</ele><time>2026-03-22T11:06:56Z</time></trkpt><trkpt lat="45.0361532677685" lon="9.942822726424446"><ele>41.666666666666664</ele><time>2026-03-22T11:06:57Z</time></trkpt><trkpt lat="45.03623874488907" lon="9.942828386370289"><ele>42.0</ele><time>2026-03-22T11:06:58Z</time></trkpt><trkpt lat="45.036324260340024" lon="9.942831553864606"><ele>42.0</ele><time>2026-03-22T11:06:59Z</time></trkpt><trkpt lat="45.036410821882825" lon="9.942832355280842"><ele>42.0</ele><time>2026-03-22T11:07:00Z</time></trkpt><trkpt lat="45.03649791023811" lon="9.942837411805092"><ele>42.0</ele><time>2026-03-22T11:07:01Z</time></trkpt><trkpt lat="45.03658633267989" lon="9.942840505337509"><ele>42.0</ele><time>2026-03-22T11:07:02Z</time></trkpt><trkpt lat="45.036674755350276" lon="9.942844062555498"><ele>42.0</ele><time>2026-03-22T11:07:03Z</time></trkpt><trkpt lat="45.03676017541774" lon="9.942846144174387"><ele>42.0</ele><time>2026-03-22T11:07:04Z</time></trkpt><trkpt lat="45.03684438653723" lon="9.942850067474847"><ele>41.666666666666664</ele><time>2026-03-22T11:07:05Z</time></trkpt><trkpt lat="45.036927781307064" lon="9.942855116787044"><ele>41.333333333333336</ele><time>2026-03-22T11:07:06Z</time></trkpt><trkpt lat="45.03700950593318" lon="9.94285950269567"><ele>41.0</ele><time>2026-03-22T11:07:07Z</time></trkpt><trkpt lat="45.03709332177441" lon="9.942864768876523"><ele>40.66666666666667</ele><time>2026-03-22T11:07:08Z</time></trkpt><trkpt lat="45.03717911646236" lon="9.94287145260983"><ele>40.333333333333336</ele><time>2026-03-22T11:07:09Z</time></trkpt><trkpt lat="45.03726682443124" lon="9.94287374511487"><ele>40.0</ele><time>2026-03-22T11:07:10Z</time></trkpt><trkpt lat="45.037351148447556" lon="9.942875666368499"><ele>40.0</ele><time>2026-03-22T11:07:11Z</time></trkpt><trkpt lat="45.03744024851017" lon="9.942875149721832"><ele>40.0</ele><time>2026-03-22T11:07:12Z</time></trkpt><trkpt lat="45.037525958571884" lon="9.942879846568555"><ele>40.0</ele><time>2026-03-22T11:07:13Z</time></trkpt><trkpt lat="45.03761132927977" lon="9.942885776034942"><ele>40.0</ele><time>2026-03-22T11:07:14Z</time></trkpt><trkpt lat="45.037696359142934" lon="9.942889130347343"><ele>40.0</ele><time>2026-03-22T11:07:14.999Z</time></trkpt><trkpt lat="45.03778140589678" lon="9.94289191611464"><ele>40.0</ele><time>2026-03-22T11:07:15.999Z</time></trkpt><trkpt lat="45.03786531815898" lon="9.942893612805113"><ele>40.16666666666667</ele><time>2026-03-22T11:07:16.999Z</time></trkpt><trkpt lat="45.037948734556686" lon="9.942897538697267"><ele>40.333333333333336</ele><time>2026-03-22T11:07:17.999Z</time></trkpt><trkpt lat="45.03803217961051" lon="9.942904223747014"><ele>40.5</ele><time>2026-03-22T11:07:18.999Z</time></trkpt><trkpt lat="45.03811684709936" lon="9.942907083034497"><ele>40.666666666666664</ele><time>2026-03-22T11:07:19.999Z</time></trkpt><trkpt lat="45.03820167178709" lon="9.942909577605528"><ele>40.83333333333333</ele><time>2026-03-22T11:07:20.999Z</time></trkpt><trkpt lat="45.0382880037649" lon="9.942913352938067"><ele>41.0</ele><time>2026-03-22T11:07:21.999Z</time></trkpt><trkpt lat="45.03837354577829" lon="9.942915534771755"><ele>41.0</ele><time>2026-03-22T11:07:22.999Z</time></trkpt><trkpt lat="45.038456727120135" lon="9.942916482668371"><ele>41.0</ele><time>2026-03-22T11:07:23.999Z</time></trkpt><trkpt lat="45.03853796212229" lon="9.942920286479458"><ele>41.0</ele><time>2026-03-22T11:07:24.999Z</time></trkpt><trkpt lat="45.03862199632827" lon="9.942927357386042"><ele>41.0</ele><time>2026-03-22T11:07:25.999Z</time></trkpt><trkpt lat="45.03870732013467" lon="9.942933099569606"><ele>41.0</ele><time>2026-03-22T11:07:26.999Z</time></trkpt><trkpt lat="45.03879139710479" lon="9.942937862925074"><ele>41.0</ele><time>2026-03-22T11:07:27.999Z</time></trkpt><trkpt lat="45.03887755554933" lon="9.942937479847222"><ele>41.0</ele><time>2026-03-22T11:07:28.999Z</time></trkpt><trkpt lat="45.03896327314341" lon="9.94293995729168"><ele>41.0</ele><time>2026-03-22T11:07:29.999Z</time></trkpt><trkpt lat="45.03905008125054" lon="9.942940540574032"><ele>41.0</ele><time>2026-03-22T11:07:30.999Z</time></trkpt><trkpt lat="45.03913889721962" lon="9.942946834744587"><ele>41.0</ele><time>2026-03-22T11:07:31.999Z</time></trkpt><trkpt lat="45.039228387459595" lon="9.942950168739447"><ele>41.0</ele><time>2026-03-22T11:07:32.999Z</time></trkpt><trkpt lat="45.039316763234105" lon="9.942956466208798"><ele>41.0</ele><time>2026-03-22T11:07:33.999Z</time></trkpt><trkpt lat="45.03940451205868" lon="9.942959629917391"><ele>40.83333333333333</ele><time>2026-03-22T11:07:34.999Z</time></trkpt><trkpt lat="45.03949089047741" lon="9.942962805571858"><ele>40.666666666666664</ele><time>2026-03-22T11:07:35.999Z</time></trkpt><trkpt lat="45.03957946367149" lon="9.942964716945594"><ele>40.5</ele><time>2026-03-22T11:07:36.999Z</time></trkpt><trkpt lat="45.03966894642593" lon="9.942965998893769"><ele>40.333333333333336</ele><time>2026-03-22T11:07:37.999Z</time></trkpt><trkpt lat="45.03975535016376" lon="9.942967528918253"><ele>40.16666666666667</ele><time>2026-03-22T11:07:38.999Z</time></trkpt><trkpt lat="45.039842228329434" lon="9.942973415316917"><ele>40.0</ele><time>2026-03-22T11:07:39.999Z</time></trkpt><trkpt lat="45.0399276519845" lon="9.942976462643704"><ele>39.833333333333336</ele><time>2026-03-22T11:07:40.999Z</time></trkpt><trkpt lat="45.04001073926166" lon="9.9429834467688"><ele>39.66666666666667</ele><time>2026-03-22T11:07:41.999Z</time></trkpt><trkpt lat="45.04009364535521" lon="9.942985183219639"><ele>39.5</ele><time>2026-03-22T11:07:42.999Z</time></trkpt><trkpt lat="45.04017750476911" lon="9.942986810454837"><ele>39.333333333333336</ele><time>2026-03-22T11:07:43.999Z</time></trkpt><trkpt lat="45.04025838887367" lon="9.942986854708986"><ele>39.166666666666664</ele><time>2026-03-22T11:07:44.999Z</time></trkpt><trkpt lat="45.04033888052118" lon="9.942990857564023"><ele>39.0</ele><time>2026-03-22T11:07:45.999Z</time></trkpt><trkpt lat="45.04042264502686" lon="9.94299591994166"><ele>39.0</ele><time>2026-03-22T11:07:46.999Z</time></trkpt><trkpt lat="45.04051044226078" lon="9.943001682940853"><ele>39.0</ele><time>2026-03-22T11:07:47.999Z</time></trkpt><trkpt lat="45.04059908737896" lon="9.943005682804962"><ele>39.0</ele><time>2026-03-22T11:07:48.999Z</time></trkpt><trkpt lat="45.04068631511506" lon="9.943007672127848"><ele>39.0</ele><time>2026-03-22T11:07:49.999Z</time></trkpt><trkpt lat="45.04077064395747" lon="9.943011134573752"><ele>39.0</ele><time>2026-03-22T11:07:50.999Z</time></trkpt><trkpt lat="45.04085614349716" lon="9.943017534177967"><ele>39.0</ele><time>2026-03-22T11:07:51.999Z</time></trkpt><trkpt lat="45.040946753887575" lon="9.943025755256798"><ele>38.833333333333336</ele><time>2026-03-22T11:07:52.999Z</time></trkpt><trkpt lat="45.04103640490738" lon="9.943029048073035"><ele>38.666666666666664</ele><time>2026-03-22T11:07:53.999Z</time></trkpt><trkpt lat="45.04112761039638" lon="9.943030772279636"><ele>38.5</ele><time>2026-03-22T11:07:54.999Z</time></trkpt><trkpt lat="45.041218847988" lon="9.943032247838971"><ele>38.33333333333333</ele><time>2026-03-22T11:07:55.999Z</time></trkpt><trkpt lat="45.04130754026444" lon="9.943037049224657"><ele>38.166666666666664</ele><time>2026-03-22T11:07:56.999Z</time></trkpt><trkpt lat="45.04139461530382" lon="9.943043407968313"><ele>38.0</ele><time>2026-03-22T11:07:57.999Z</time></trkpt><trkpt lat="45.04148086086932" lon="9.943044532959112"><ele>38.0</ele><time>2026-03-22T11:07:58.999Z</time></trkpt><trkpt lat="45.041565914630986" lon="9.943042406940162"><ele>38.0</ele><time>2026-03-22T11:07:59.999Z</time></trkpt><trkpt lat="45.04164876549513" lon="9.94304379306527"><ele>38.0</ele><time>2026-03-22T11:08:00.999Z</time></trkpt><trkpt lat="45.04173271844588" lon="9.943051051560424"><ele>38.0</ele><time>2026-03-22T11:08:01.999Z</time></trkpt><trkpt lat="45.04181686356502" lon="9.943058254973577"><ele>38.0</ele><time>2026-03-22T11:08:02.999Z</time></trkpt><trkpt lat="45.04190097993589" lon="9.943060668176802"><ele>38.0</ele><time>2026-03-22T11:08:03.999Z</time></trkpt><trkpt lat="45.04198756667807" lon="9.943063932458289"><ele>38.166666666666664</ele><time>2026-03-22T11:08:04.999Z</time></trkpt><trkpt lat="45.042071432360515" lon="9.943068023500924"><ele>38.33333333333333</ele><time>2026-03-22T11:08:05.999Z</time></trkpt><trkpt lat="45.04215771055778" lon="9.94307025638658"><ele>38.5</ele><time>2026-03-22T11:08:06.998Z</time></trkpt><trkpt lat="45.042243351750535" lon="9.943073456663807"><ele>38.666666666666664</ele><time>2026-03-22T11:08:07.998Z</time></trkpt><trkpt lat="45.04232911887723" lon="9.943079012448877"><ele>38.833333333333336</ele><time>2026-03-22T11:08:08.998Z</time></trkpt><trkpt lat="45.04241514147943" lon="9.943083484126584"><ele>39.0</ele><time>2026-03-22T11:08:09.998Z</time></trkpt><trkpt lat="45.04250048179539" lon="9.943091114256205"><ele>39.0</ele><time>2026-03-22T11:08:10.998Z</time></trkpt><trkpt lat="45.042586111329456" lon="9.943098378595517"><ele>39.0</ele><time>2026-03-22T11:08:11.998Z</time></trkpt><trkpt lat="45.042672782327585" lon="9.943101530489235"><ele>39.0</ele><time>2026-03-22T11:08:12.998Z</time></trkpt><trkpt lat="45.042756913499964" lon="9.943107141820027"><ele>39.0</ele><time>2026-03-22T11:08:13.998Z</time></trkpt><trkpt lat="45.04284412073211" lon="9.943108977611125"><ele>39.0</ele><time>2026-03-22T11:08:14.998Z</time></trkpt><trkpt lat="45.04292843610042" lon="9.943115803203126"><ele>39.0</ele><time>2026-03-22T11:08:15.998Z</time></trkpt><trkpt lat="45.04301358563649" lon="9.943118161190553"><ele>39.0</ele><time>2026-03-22T11:08:16.998Z</time></trkpt><trkpt lat="45.04310006510127" lon="9.943123359117267"><ele>39.0</ele><time>2026-03-22T11:08:17.998Z</time></trkpt><trkpt lat="45.043184950945886" lon="9.94312909528176"><ele>39.0</ele><time>2026-03-22T11:08:18.998Z</time></trkpt><trkpt lat="45.043270292075775" lon="9.943133750454939"><ele>39.0</ele><time>2026-03-22T11:08:19.998Z</time></trkpt><trkpt lat="45.04335505101992" lon="9.943134791984393"><ele>39.0</ele><time>2026-03-22T11:08:20.998Z</time></trkpt><trkpt lat="45.043441737465216" lon="9.94313973035054"><ele>39.0</ele><time>2026-03-22T11:08:21.998Z</time></trkpt><trkpt lat="45.043529233324364" lon="9.943145924805716"><ele>39.0</ele><time>2026-03-22T11:08:22.998Z</time></trkpt><trkpt lat="45.04361539844883" lon="9.943150236010542"><ele>39.0</ele><time>2026-03-22T11:08:23.998Z</time></trkpt><trkpt lat="45.04370113791633" lon="9.943155598140308"><ele>39.0</ele><time>2026-03-22T11:08:24.998Z</time></trkpt><trkpt lat="45.043785337245204" lon="9.94315910642196"><ele>39.0</ele><time>2026-03-22T11:08:25.998Z</time></trkpt><trkpt lat="45.04386908155212" lon="9.943163432213115"><ele>39.0</ele><time>2026-03-22T11:08:26.998Z</time></trkpt><trkpt lat="45.043951979414686" lon="9.94317009708172"><ele>39.0</ele><time>2026-03-22T11:08:27.998Z</time></trkpt><trkpt lat="45.044037692676405" lon="9.943174206617332"><ele>39.0</ele><time>2026-03-22T11:08:28.998Z</time></trkpt><trkpt lat="45.04412215061736" lon="9.943176708739545"><ele>39.0</ele><time>2026-03-22T11:08:29.998Z</time></trkpt><trkpt lat="45.04420785119277" lon="9.943181070217891"><ele>39.0</ele><time>2026-03-22T11:08:30.998Z</time></trkpt><trkpt lat="45.04429156707262" lon="9.943189690610133"><ele>39.0</ele><time>2026-03-22T11:08:31.998Z</time></trkpt><trkpt lat="45.0443777751492" lon="9.94319549567515"><ele>39.0</ele><time>2026-03-22T11:08:32.998Z</time></trkpt><trkpt lat="45.044462939678866" lon="9.943199753527177"><ele>39.0</ele><time>2026-03-22T11:08:33.998Z</time></trkpt><trkpt lat="45.04454783042775" lon="9.943203848030258"><ele>39.166666666666664</ele><time>2026-03-22T11:08:34.998Z</time></trkpt><trkpt lat="45.04463414351802" lon="9.94320679770415"><ele>39.333333333333336</ele><time>2026-03-22T11:08:35.998Z</time></trkpt><trkpt lat="45.04471881317578" lon="9.943209767800989"><ele>39.5</ele><time>2026-03-22T11:08:36.998Z</time></trkpt><trkpt lat="45.04480367514917" lon="9.943214859084597"><ele>39.66666666666667</ele><time>2026-03-22T11:08:37.998Z</time></trkpt><trkpt lat="45.044887978328426" lon="9.943220434239999"><ele>39.833333333333336</ele><time>2026-03-22T11:08:38.998Z</time></trkpt><trkpt lat="45.04497270080632" lon="9.943232434935046"><ele>40.0</ele><time>2026-03-22T11:08:39.998Z</time></trkpt><trkpt lat="45.045054078404306" lon="9.943249939926979"><ele>39.66666666666667</ele><time>2026-03-22T11:08:40.998Z</time></trkpt><trkpt lat="45.045138471776546" lon="9.943263434926696"><ele>39.333333333333336</ele><time>2026-03-22T11:08:41.998Z</time></trkpt><trkpt lat="45.04522459738335" lon="9.943271898292664"><ele>39.0</ele><time>2026-03-22T11:08:42.998Z</time></trkpt><trkpt lat="45.04530982623441" lon="9.943278335480684"><ele>38.666666666666664</ele><time>2026-03-22T11:08:43.998Z</time></trkpt><trkpt lat="45.045394131877345" lon="9.943280378948623"><ele>38.33333333333333</ele><time>2026-03-22T11:08:44.998Z</time></trkpt><trkpt lat="45.04548069414605" lon="9.943281545372896"><ele>38.0</ele><time>2026-03-22T11:08:45.998Z</time></trkpt><trkpt lat="45.045565199510285" lon="9.943286359757549"><ele>38.0</ele><time>2026-03-22T11:08:46.998Z</time></trkpt><trkpt lat="45.04564965985997" lon="9.94328862734248"><ele>38.0</ele><time>2026-03-22T11:08:47.998Z</time></trkpt><trkpt lat="45.04573320832271" lon="9.943291888289636"><ele>38.0</ele><time>2026-03-22T11:08:48.998Z</time></trkpt><trkpt lat="45.045816081877916" lon="9.943291147293207"><ele>38.0</ele><time>2026-03-22T11:08:49.998Z</time></trkpt><trkpt lat="45.04589760735144" lon="9.943294339551862"><ele>38.0</ele><time>2026-03-22T11:08:50.998Z</time></trkpt><trkpt lat="45.045980231170915" lon="9.943299251009147"><ele>38.0</ele><time>2026-03-22T11:08:51.998Z</time></trkpt><trkpt lat="45.04606188333758" lon="9.94330212220343"><ele>38.0</ele><time>2026-03-22T11:08:52.998Z</time></trkpt><trkpt lat="45.04614418122365" lon="9.943303402951049"><ele>38.0</ele><time>2026-03-22T11:08:53.998Z</time></trkpt><trkpt lat="45.046226372795594" lon="9.943301048939999"><ele>38.0</ele><time>2026-03-22T11:08:55Z</time></trkpt><trkpt lat="45.04630992613022" lon="9.943301806095784"><ele>38.0</ele><time>2026-03-22T11:08:56Z</time></trkpt><trkpt lat="45.04639525184549" lon="9.943307678527397"><ele>38.0</ele><time>2026-03-22T11:08:57Z</time></trkpt><trkpt lat="45.04648050355374" lon="9.94331486219895"><ele>38.0</ele><time>2026-03-22T11:08:58Z</time></trkpt><trkpt lat="45.046566061137014" lon="9.943319535000237"><ele>38.0</ele><time>2026-03-22T11:08:59Z</time></trkpt><trkpt lat="45.046653352296396" lon="9.943323561308258"><ele>38.0</ele><time>2026-03-22T11:09:00Z</time></trkpt><trkpt lat="45.04674096733482" lon="9.94332803408722"><ele>38.0</ele><time>2026-03-22T11:09:01Z</time></trkpt><trkpt lat="45.04682861450023" lon="9.943330707451901"><ele>38.0</ele><time>2026-03-22T11:09:02Z</time></trkpt><trkpt lat="45.046915621057074" lon="9.943331432208815"><ele>38.0</ele><time>2026-03-22T11:09:03Z</time></trkpt><trkpt lat="45.04700323279796" lon="9.943331691487666"><ele>38.0</ele><time>2026-03-22T11:09:04Z</time></trkpt><trkpt lat="45.04709093453108" lon="9.9433309552299"><ele>38.0</ele><time>2026-03-22T11:09:05Z</time></trkpt><trkpt lat="45.04717850273601" lon="9.943327553569686"><ele>38.0</ele><time>2026-03-22T11:09:06Z</time></trkpt><trkpt lat="45.04726762433164" lon="9.94332436973834"><ele>38.0</ele><time>2026-03-22T11:09:07Z</time></trkpt><trkpt lat="45.04735782751994" lon="9.9433182256016"><ele>38.0</ele><time>2026-03-22T11:09:08Z</time></trkpt><trkpt lat="45.04744565163887" lon="9.94332344844566"><ele>38.0</ele><time>2026-03-22T11:09:09Z</time></trkpt><trkpt lat="45.047534157550274" lon="9.94332358389424"><ele>38.0</ele><time>2026-03-22T11:09:10Z</time></trkpt><trkpt lat="45.04762283858602" lon="9.943327165046178"><ele>38.0</ele><time>2026-03-22T11:09:11Z</time></trkpt><trkpt lat="45.04770768468763" lon="9.943333093670784"><ele>38.0</ele><time>2026-03-22T11:09:12Z</time></trkpt><trkpt lat="45.047794540504384" lon="9.94333803215226"><ele>38.0</ele><time>2026-03-22T11:09:13Z</time></trkpt><trkpt lat="45.04788168113225" lon="9.943343289351041"><ele>38.0</ele><time>2026-03-22T11:09:14Z</time></trkpt><trkpt lat="45.04796724684667" lon="9.94334805165745"><ele>38.0</ele><time>2026-03-22T11:09:15Z</time></trkpt><trkpt lat="45.04805120184103" lon="9.94335216381645"><ele>38.0</ele><time>2026-03-22T11:09:16Z</time></trkpt><trkpt lat="45.048135538331124" lon="9.943353344406058"><ele>38.0</ele><time>2026-03-22T11:09:17Z</time></trkpt><trkpt lat="45.04821730110742" lon="9.943356875997834"><ele>38.0</ele><time>2026-03-22T11:09:18Z</time></trkpt><trkpt lat="45.04830043324243" lon="9.94335771409225"><ele>38.0</ele><time>2026-03-22T11:09:18.999Z</time></trkpt><trkpt lat="45.048383112740694" lon="9.94336103935059"><ele>38.0</ele><time>2026-03-22T11:09:19.999Z</time></trkpt><trkpt lat="45.04846462373396" lon="9.943362236624207"><ele>38.0</ele><time>2026-03-22T11:09:20.999Z</time></trkpt><trkpt lat="45.04854736467124" lon="9.943363073409426"><ele>38.0</ele><time>2026-03-22T11:09:21.999Z</time></trkpt><trkpt lat="45.04862584500986" lon="9.943367071924246"><ele>37.83333333333333</ele><time>2026-03-22T11:09:22.999Z</time></trkpt><trkpt lat="45.04870655541851" lon="9.943371560721898"><ele>37.666666666666664</ele><time>2026-03-22T11:09:23.999Z</time></trkpt><trkpt lat="45.04879015304844" lon="9.943376239891222"><ele>37.5</ele><time>2026-03-22T11:09:24.999Z</time></trkpt><trkpt lat="45.04887156155631" lon="9.943380300457086"><ele>37.333333333333336</ele><time>2026-03-22T11:09:25.999Z</time></trkpt><trkpt lat="45.048952767947355" lon="9.943380356449975"><ele>37.16666666666667</ele><time>2026-03-22T11:09:26.999Z</time></trkpt><trkpt lat="45.049037928613814" lon="9.943386944691577"><ele>37.0</ele><time>2026-03-22T11:09:27.999Z</time></trkpt><trkpt lat="45.049121858145725" lon="9.943388049084998"><ele>37.0</ele><time>2026-03-22T11:09:28.999Z</time></trkpt><trkpt lat="45.04920982084248" lon="9.943390694326506"><ele>37.0</ele><time>2026-03-22T11:09:29.999Z</time></trkpt><trkpt lat="45.049294452203256" lon="9.943396178023233"><ele>37.0</ele><time>2026-03-22T11:09:30.999Z</time></trkpt><trkpt lat="45.04938118419857" lon="9.943399412846873"><ele>37.0</ele><time>2026-03-22T11:09:31.999Z</time></trkpt><trkpt lat="45.04946603867821" lon="9.943400677266876"><ele>37.0</ele><time>2026-03-22T11:09:32.999Z</time></trkpt><trkpt lat="45.04955328712153" lon="9.943404386613073"><ele>37.0</ele><time>2026-03-22T11:09:33.999Z</time></trkpt><trkpt lat="45.04963936004792" lon="9.9434110545084"><ele>37.0</ele><time>2026-03-22T11:09:34.999Z</time></trkpt><trkpt lat="45.049725207730404" lon="9.943413604112711"><ele>37.0</ele><time>2026-03-22T11:09:35.999Z</time></trkpt><trkpt lat="45.04981215237861" lon="9.943417077449267"><ele>37.0</ele><time>2026-03-22T11:09:36.999Z</time></trkpt><trkpt lat="45.04989908076215" lon="9.943420906316286"><ele>37.0</ele><time>2026-03-22T11:09:37.999Z</time></trkpt><trkpt lat="45.0499865699405" lon="9.943427029515657"><ele>37.0</ele><time>2026-03-22T11:09:38.999Z</time></trkpt><trkpt lat="45.05007412799684" lon="9.943431939757215"><ele>37.0</ele><time>2026-03-22T11:09:39.999Z</time></trkpt><trkpt lat="45.0501621295011" lon="9.94343680953986"><ele>37.0</ele><time>2026-03-22T11:09:40.999Z</time></trkpt><trkpt lat="45.050250150019394" lon="9.94344035571776"><ele>37.0</ele><time>2026-03-22T11:09:41.999Z</time></trkpt><trkpt lat="45.050337114489864" lon="9.943444214153024"><ele>37.0</ele><time>2026-03-22T11:09:42.999Z</time></trkpt><trkpt lat="45.05042449101311" lon="9.943449654617996"><ele>37.0</ele><time>2026-03-22T11:09:43.999Z</time></trkpt><trkpt lat="45.05051163068574" lon="9.943455516849122"><ele>37.0</ele><time>2026-03-22T11:09:44.999Z</time></trkpt><trkpt lat="45.05060003919247" lon="9.943464971873063"><ele>37.0</ele><time>2026-03-22T11:09:45.999Z</time></trkpt><trkpt lat="45.0506865791922" lon="9.943478534394677"><ele>37.0</ele><time>2026-03-22T11:09:46.999Z</time></trkpt><trkpt lat="45.05077466413189" lon="9.943495683001915"><ele>37.0</ele><time>2026-03-22T11:09:47.999Z</time></trkpt><trkpt lat="45.05085994099523" lon="9.94351372442942"><ele>37.0</ele><time>2026-03-22T11:09:48.999Z</time></trkpt><trkpt lat="45.05094505187462" lon="9.943533072079303"><ele>37.0</ele><time>2026-03-22T11:09:49.999Z</time></trkpt><trkpt lat="45.051028866544414" lon="9.943553909250593"><ele>37.0</ele><time>2026-03-22T11:09:50.999Z</time></trkpt><trkpt lat="45.0511126908093" lon="9.943579014859827"><ele>37.0</ele><time>2026-03-22T11:09:51.999Z</time></trkpt><trkpt lat="45.05119604688776" lon="9.9436049884755"><ele>37.0</ele><time>2026-03-22T11:09:52.999Z</time></trkpt><trkpt lat="45.05127959130224" lon="9.943632748583125"><ele>37.0</ele><time>2026-03-22T11:09:53.999Z</time></trkpt><trkpt lat="45.05136109914954" lon="9.94366562162147"><ele>37.0</ele><time>2026-03-22T11:09:54.999Z</time></trkpt><trkpt lat="45.051441065466115" lon="9.943696691702417"><ele>37.0</ele><time>2026-03-22T11:09:55.999Z</time></trkpt><trkpt lat="45.05152088239608" lon="9.943736181355396"><ele>37.0</ele><time>2026-03-22T11:09:56.999Z</time></trkpt><trkpt lat="45.05160143692676" lon="9.943773688372566"><ele>37.0</ele><time>2026-03-22T11:09:57.999Z</time></trkpt><trkpt lat="45.05168238313903" lon="9.94381614045952"><ele>37.16666666666667</ele><time>2026-03-22T11:09:58.999Z</time></trkpt><trkpt lat="45.05176298773684" lon="9.943858875516462"><ele>37.333333333333336</ele><time>2026-03-22T11:09:59.999Z</time></trkpt><trkpt lat="45.051844893843636" lon="9.943902464548957"><ele>37.5</ele><time>2026-03-22T11:10:00.999Z</time></trkpt><trkpt lat="45.05192644620667" lon="9.943948020377592"><ele>37.666666666666664</ele><time>2026-03-22T11:10:01.999Z</time></trkpt><trkpt lat="45.05200691663841" lon="9.943992973124347"><ele>37.83333333333333</ele><time>2026-03-22T11:10:02.999Z</time></trkpt><trkpt lat="45.05208799444456" lon="9.944033687975924"><ele>38.0</ele><time>2026-03-22T11:10:03.999Z</time></trkpt><trkpt lat="45.052167860201514" lon="9.944076266414253"><ele>38.0</ele><time>2026-03-22T11:10:04.999Z</time></trkpt><trkpt lat="45.05224879264018" lon="9.944123202769754"><ele>38.0</ele><time>2026-03-22T11:10:05.999Z</time></trkpt><trkpt lat="45.052330577693226" lon="9.944163143850638"><ele>38.0</ele><time>2026-03-22T11:10:06.999Z</time></trkpt><trkpt lat="45.05241313292499" lon="9.944206496550445"><ele>38.0</ele><time>2026-03-22T11:10:07.999Z</time></trkpt><trkpt lat="45.05249438302464" lon="9.944251750701216"><ele>38.0</ele><time>2026-03-22T11:10:08.999Z</time></trkpt><trkpt lat="45.052576256275415" lon="9.944298459466268"><ele>38.0</ele><time>2026-03-22T11:10:09.999Z</time></trkpt><trkpt lat="45.05265811798612" lon="9.9443422273456"><ele>38.0</ele><time>2026-03-22T11:10:10.998Z</time></trkpt><trkpt lat="45.0527404039201" lon="9.944387517003777"><ele>38.0</ele><time>2026-03-22T11:10:11.998Z</time></trkpt><trkpt lat="45.052821131851424" lon="9.9444316699304"><ele>38.0</ele><time>2026-03-22T11:10:12.998Z</time></trkpt><trkpt lat="45.05290003653925" lon="9.9444747915602"><ele>38.0</ele><time>2026-03-22T11:10:13.998Z</time></trkpt><trkpt lat="45.05297698422093" lon="9.944514374043049"><ele>38.0</ele><time>2026-03-22T11:10:14.998Z</time></trkpt><trkpt lat="45.053053916352724" lon="9.94455493274538"><ele>38.0</ele><time>2026-03-22T11:10:15.998Z</time></trkpt><trkpt lat="45.053134058062625" lon="9.9445996289026"><ele>38.0</ele><time>2026-03-22T11:10:16.998Z</time></trkpt><trkpt lat="45.053214062249644" lon="9.944637945881041"><ele>38.0</ele><time>2026-03-22T11:10:17.998Z</time></trkpt><trkpt lat="45.05329458297913" lon="9.94468281160425"><ele>38.0</ele><time>2026-03-22T11:10:18.998Z</time></trkpt><trkpt lat="45.0533758587939" lon="9.944725126600698"><ele>38.0</ele><time>2026-03-22T11:10:19.998Z</time></trkpt><trkpt lat="45.05345649332362" lon="9.944770125487313"><ele>38.0</ele><time>2026-03-22T11:10:20.998Z</time></trkpt><trkpt lat="45.05353593136367" lon="9.944813973554451"><ele>38.0</ele><time>2026-03-22T11:10:21.998Z</time></trkpt><trkpt lat="45.05361480578585" lon="9.944858055996193"><ele>38.0</ele><time>2026-03-22T11:10:22.998Z</time></trkpt><trkpt lat="45.05369524976781" lon="9.94490262763438"><ele>38.0</ele><time>2026-03-22T11:10:23.998Z</time></trkpt><trkpt lat="45.05377422342411" lon="9.944944274931077"><ele>38.0</ele><time>2026-03-22T11:10:24.998Z</time></trkpt><trkpt lat="45.05385505908347" lon="9.944988398002177"><ele>38.0</ele><time>2026-03-22T11:10:25.998Z</time></trkpt><trkpt lat="45.053935012562185" lon="9.945030388640244"><ele>38.0</ele><time>2026-03-22T11:10:26.998Z</time></trkpt><trkpt lat="45.05401640428012" lon="9.945073751599407"><ele>38.0</ele><time>2026-03-22T11:10:27.998Z</time></trkpt><trkpt lat="45.054096651675245" lon="9.945116708443823"><ele>37.83333333333333</ele><time>2026-03-22T11:10:28.998Z</time></trkpt><trkpt lat="45.05417653443725" lon="9.945160198275264"><ele>37.666666666666664</ele><time>2026-03-22T11:10:29.998Z</time></trkpt><trkpt lat="45.05425595572053" lon="9.945203502406407"><ele>37.5</ele><time>2026-03-22T11:10:30.998Z</time></trkpt><trkpt lat="45.05433430539874" lon="9.945248412918733"><ele>37.333333333333336</ele><time>2026-03-22T11:10:31.998Z</time></trkpt><trkpt lat="45.054413059384906" lon="9.94529316030879"><ele>37.16666666666667</ele><time>2026-03-22T11:10:32.998Z</time></trkpt><trkpt lat="45.05449067185828" lon="9.945334335281125"><ele>37.0</ele><time>2026-03-22T11:10:33.998Z</time></trkpt><trkpt lat="45.05456929596702" lon="9.945376623495475"><ele>37.0</ele><time>2026-03-22T11:10:34.998Z</time></trkpt><trkpt lat="45.0546463418867" lon="9.945417424243361"><ele>37.0</ele><time>2026-03-22T11:10:35.998Z</time></trkpt><trkpt lat="45.05472344851259" lon="9.945460598792646"><ele>37.0</ele><time>2026-03-22T11:10:36.998Z</time></trkpt><trkpt lat="45.05479848071745" lon="9.945503653638083"><ele>37.0</ele><time>2026-03-22T11:10:37.998Z</time></trkpt><trkpt lat="45.05487348941081" lon="9.945545820668007"><ele>37.0</ele><time>2026-03-22T11:10:38.998Z</time></trkpt><trkpt lat="45.05494982712355" lon="9.945591289592025"><ele>37.0</ele><time>2026-03-22T11:10:39.998Z</time></trkpt><trkpt lat="45.05502637223423" lon="9.945631980609166"><ele>37.16666666666667</ele><time>2026-03-22T11:10:40.998Z</time></trkpt><trkpt lat="45.05510366149949" lon="9.945677171748908"><ele>37.333333333333336</ele><time>2026-03-22T11:10:41.998Z</time></trkpt><trkpt lat="45.05517987213696" lon="9.94571832767518"><ele>37.5</ele><time>2026-03-22T11:10:42.998Z</time></trkpt><trkpt lat="45.05525587406806" lon="9.945759957295163"><ele>37.666666666666664</ele><time>2026-03-22T11:10:43.998Z</time></trkpt><trkpt lat="45.05533076528197" lon="9.945796791012043"><ele>37.83333333333333</ele><time>2026-03-22T11:10:44.998Z</time></trkpt><trkpt lat="45.055404173124366" lon="9.945836383212797"><ele>38.0</ele><time>2026-03-22T11:10:45.998Z</time></trkpt><trkpt lat="45.05547782221574" lon="9.945874572834189"><ele>38.0</ele><time>2026-03-22T11:10:46.998Z</time></trkpt><trkpt lat="45.055549764422985" lon="9.945908280532942"><ele>38.0</ele><time>2026-03-22T11:10:47.998Z</time></trkpt><trkpt lat="45.05562320622947" lon="9.945942205139048"><ele>38.0</ele><time>2026-03-22T11:10:48.998Z</time></trkpt><trkpt lat="45.05569662458853" lon="9.945980498060429"><ele>38.0</ele><time>2026-03-22T11:10:49.998Z</time></trkpt><trkpt lat="45.055769280456005" lon="9.946013964047083"><ele>38.0</ele><time>2026-03-22T11:10:50.998Z</time></trkpt><trkpt lat="45.05584386147194" lon="9.946045635340043"><ele>38.0</ele><time>2026-03-22T11:10:51.998Z</time></trkpt><trkpt lat="45.05592060733543" lon="9.946073589985113"><ele>38.0</ele><time>2026-03-22T11:10:52.998Z</time></trkpt><trkpt lat="45.05599850626662" lon="9.94610110404068"><ele>38.0</ele><time>2026-03-22T11:10:53.998Z</time></trkpt><trkpt lat="45.056075568312586" lon="9.946126112236191"><ele>38.0</ele><time>2026-03-22T11:10:54.998Z</time></trkpt><trkpt lat="45.056156512205945" lon="9.946148191594668"><ele>38.0</ele><time>2026-03-22T11:10:55.998Z</time></trkpt><trkpt lat="45.05623884103782" lon="9.946166211165293"><ele>38.0</ele><time>2026-03-22T11:10:56.998Z</time></trkpt><trkpt lat="45.05632065581838" lon="9.946186718639233"><ele>38.0</ele><time>2026-03-22T11:10:57.998Z</time></trkpt><trkpt lat="45.05640277741541" lon="9.946204441703708"><ele>38.0</ele><time>2026-03-22T11:10:58.998Z</time></trkpt><trkpt lat="45.05648717189902" lon="9.946224287556756"><ele>38.0</ele><time>2026-03-22T11:10:59.998Z</time></trkpt><trkpt lat="45.056572877347435" lon="9.946236609358303"><ele>38.0</ele><time>2026-03-22T11:11:01Z</time></trkpt><trkpt lat="45.05666211216429" lon="9.94624688985977"><ele>38.0</ele><time>2026-03-22T11:11:02Z</time></trkpt><trkpt lat="45.05674814394037" lon="9.946254319561993"><ele>38.0</ele><time>2026-03-22T11:11:03Z</time></trkpt><trkpt lat="45.05683698300588" lon="9.946259231636123"><ele>38.0</ele><time>2026-03-22T11:11:04Z</time></trkpt><trkpt lat="45.056928725646095" lon="9.946266896754445"><ele>37.6</ele><time>2026-03-22T11:11:05Z</time></trkpt><trkpt lat="45.05702276368334" lon="9.946267986217187"><ele>37.199999999999996</ele><time>2026-03-22T11:11:06Z</time></trkpt><trkpt lat="45.05711440411431" lon="9.946266385411992"><ele>36.8</ele><time>2026-03-22T11:11:07Z</time></trkpt><trkpt lat="45.05720997762979" lon="9.946265866953725"><ele>36.4</ele><time>2026-03-22T11:11:08Z</time></trkpt><trkpt lat="45.05730513489929" lon="9.946264765745362"><ele>36.0</ele><time>2026-03-22T11:11:09Z</time></trkpt><trkpt lat="45.05739766353331" lon="9.946259153064206"><ele>36.0</ele><time>2026-03-22T11:11:10Z</time></trkpt><trkpt lat="45.05749147574095" lon="9.94625498029781"><ele>36.0</ele><time>2026-03-22T11:11:11Z</time></trkpt><trkpt lat="45.05758311748543" lon="9.946251220080336"><ele>36.0</ele><time>2026-03-22T11:11:12Z</time></trkpt><trkpt lat="45.05767641705538" lon="9.946246719654404"><ele>36.0</ele><time>2026-03-22T11:11:13Z</time></trkpt><trkpt lat="45.05777042765641" lon="9.946238458795525"><ele>36.0</ele><time>2026-03-22T11:11:14Z</time></trkpt><trkpt lat="45.05786321131833" lon="9.946237139307465"><ele>36.0</ele><time>2026-03-22T11:11:15Z</time></trkpt><trkpt lat="45.0579529993596" lon="9.946232104024133"><ele>36.0</ele><time>2026-03-22T11:11:16Z</time></trkpt><trkpt lat="45.05804706771459" lon="9.946229040013137"><ele>36.0</ele><time>2026-03-22T11:11:17Z</time></trkpt><trkpt lat="45.058136731339054" lon="9.9462290962848"><ele>36.0</ele><time>2026-03-22T11:11:18Z</time></trkpt><trkpt lat="45.058229352983595" lon="9.946229481164494"><ele>36.0</ele><time>2026-03-22T11:11:19Z</time></trkpt><trkpt lat="45.058318845533805" lon="9.946230887575416"><ele>36.166666666666664</ele><time>2026-03-22T11:11:20Z</time></trkpt><trkpt lat="45.05840591521386" lon="9.94623984720379"><ele>36.333333333333336</ele><time>2026-03-22T11:11:21Z</time></trkpt><trkpt lat="45.05849584110399" lon="9.94624624856992"><ele>36.5</ele><time>2026-03-22T11:11:22Z</time></trkpt><trkpt lat="45.058586389623514" lon="9.946256307130064"><ele>36.66666666666667</ele><time>2026-03-22T11:11:22.999Z</time></trkpt><trkpt lat="45.058675125268756" lon="9.946266496351274"><ele>36.833333333333336</ele><time>2026-03-22T11:11:23.999Z</time></trkpt><trkpt lat="45.0587638241891" lon="9.946281618652744"><ele>37.0</ele><time>2026-03-22T11:11:24.999Z</time></trkpt><trkpt lat="45.058849712153176" lon="9.946292451173512"><ele>37.0</ele><time>2026-03-22T11:11:25.999Z</time></trkpt><trkpt lat="45.05893965993341" lon="9.946303721817975"><ele>37.0</ele><time>2026-03-22T11:11:26.999Z</time></trkpt><trkpt lat="45.059023611666845" lon="9.946311833947838"><ele>37.0</ele><time>2026-03-22T11:11:27.999Z</time></trkpt><trkpt lat="45.05911090500544" lon="9.946327443785114"><ele>37.0</ele><time>2026-03-22T11:11:28.999Z</time></trkpt><trkpt lat="45.05919801753588" lon="9.946343623022852"><ele>37.0</ele><time>2026-03-22T11:11:29.999Z</time></trkpt><trkpt lat="45.0592843219431" lon="9.946362785913832"><ele>37.0</ele><time>2026-03-22T11:11:30.999Z</time></trkpt><trkpt lat="45.059370287676515" lon="9.946383998592818"><ele>37.0</ele><time>2026-03-22T11:11:31.999Z</time></trkpt><trkpt lat="45.059456176168084" lon="9.946408250398626"><ele>37.0</ele><time>2026-03-22T11:11:32.999Z</time></trkpt><trkpt lat="45.0595399898485" lon="9.946431249941872"><ele>37.0</ele><time>2026-03-22T11:11:33.999Z</time></trkpt><trkpt lat="45.05962291312244" lon="9.946451611310927"><ele>37.0</ele><time>2026-03-22T11:11:34.999Z</time></trkpt><trkpt lat="45.05970557150255" lon="9.946475426310718"><ele>37.0</ele><time>2026-03-22T11:11:35.999Z</time></trkpt><trkpt lat="45.05978531571611" lon="9.946501985152587"><ele>37.0</ele><time>2026-03-22T11:11:36.999Z</time></trkpt><trkpt lat="45.059864877305245" lon="9.94652808327982"><ele>37.0</ele><time>2026-03-22T11:11:37.999Z</time></trkpt><trkpt lat="45.05994195244495" lon="9.946556347469517"><ele>37.0</ele><time>2026-03-22T11:11:38.999Z</time></trkpt><trkpt lat="45.06001822264251" lon="9.94658534072473"><ele>37.0</ele><time>2026-03-22T11:11:39.999Z</time></trkpt><trkpt lat="45.06009309078349" lon="9.94661258947381"><ele>37.0</ele><time>2026-03-22T11:11:40.999Z</time></trkpt><trkpt lat="45.06016885566782" lon="9.946640208798863"><ele>37.0</ele><time>2026-03-22T11:11:41.999Z</time></trkpt><trkpt lat="45.06024202953997" lon="9.946673670865879"><ele>37.0</ele><time>2026-03-22T11:11:42.999Z</time></trkpt><trkpt lat="45.060318212551856" lon="9.946706954092761"><ele>37.333333333333336</ele><time>2026-03-22T11:11:43.999Z</time></trkpt><trkpt lat="45.06039629528504" lon="9.946739033504256"><ele>37.66666666666667</ele><time>2026-03-22T11:11:44.999Z</time></trkpt><trkpt lat="45.060472671313406" lon="9.94677342845101"><ele>38.0</ele><time>2026-03-22T11:11:45.999Z</time></trkpt><trkpt lat="45.06054755507189" lon="9.946807098528012"><ele>38.333333333333336</ele><time>2026-03-22T11:11:46.999Z</time></trkpt><trkpt lat="45.06062215074106" lon="9.946844199345486"><ele>38.666666666666664</ele><time>2026-03-22T11:11:47.999Z</time></trkpt><trkpt lat="45.06069616049728" lon="9.946877120484139"><ele>39.0</ele><time>2026-03-22T11:11:48.999Z</time></trkpt><trkpt lat="45.06077099909964" lon="9.946912653244423"><ele>38.5</ele><time>2026-03-22T11:11:49.999Z</time></trkpt><trkpt lat="45.06084401073757" lon="9.946949673254332"><ele>38.0</ele><time>2026-03-22T11:11:50.999Z</time></trkpt><trkpt lat="45.06091734002671" lon="9.946985787616324"><ele>37.5</ele><time>2026-03-22T11:11:51.999Z</time></trkpt><trkpt lat="45.06098976705641" lon="9.947020779139766"><ele>37.0</ele><time>2026-03-22T11:11:52.999Z</time></trkpt><trkpt lat="45.061061250379915" lon="9.947054944357355"><ele>36.5</ele><time>2026-03-22T11:11:53.999Z</time></trkpt><trkpt lat="45.06113135335954" lon="9.9470875108115"><ele>36.0</ele><time>2026-03-22T11:11:54.999Z</time></trkpt><trkpt lat="45.0612011919952" lon="9.94712230518238"><ele>36.00000000000001</ele><time>2026-03-22T11:11:55.999Z</time></trkpt><trkpt lat="45.06127029454407" lon="9.947151842787198"><ele>36.0</ele><time>2026-03-22T11:11:56.999Z</time></trkpt><trkpt lat="45.0613433591469" lon="9.947185472936283"><ele>36.0</ele><time>2026-03-22T11:11:57.999Z</time></trkpt><trkpt lat="45.06141360204827" lon="9.94721882221611"><ele>36.0</ele><time>2026-03-22T11:11:58.999Z</time></trkpt><trkpt lat="45.06148481188326" lon="9.94725500579105"><ele>36.0</ele><time>2026-03-22T11:11:59.999Z</time></trkpt><trkpt lat="45.06155621129137" lon="9.947287787933522"><ele>36.00000000000001</ele><time>2026-03-22T11:12:00.999Z</time></trkpt><trkpt lat="45.06162460176499" lon="9.947323378450092"><ele>36.0</ele><time>2026-03-22T11:12:01.999Z</time></trkpt><trkpt lat="45.061695857440135" lon="9.947355325239904"><ele>36.0</ele><time>2026-03-22T11:12:02.999Z</time></trkpt><trkpt lat="45.06176712479805" lon="9.947389554700138"><ele>36.0</ele><time>2026-03-22T11:12:03.999Z</time></trkpt><trkpt lat="45.06183758302939" lon="9.947422032959624"><ele>36.0</ele><time>2026-03-22T11:12:04.999Z</time></trkpt><trkpt lat="45.06190696452184" lon="9.94745513079597"><ele>36.0</ele><time>2026-03-22T11:12:05.999Z</time></trkpt><trkpt lat="45.06197975428186" lon="9.947491654261261"><ele>36.0</ele><time>2026-03-22T11:12:06.999Z</time></trkpt><trkpt lat="45.06205095009265" lon="9.947526459502207"><ele>36.0</ele><time>2026-03-22T11:12:07.999Z</time></trkpt><trkpt lat="45.062122626677954" lon="9.947559257545954"><ele>36.00000000000001</ele><time>2026-03-22T11:12:08.999Z</time></trkpt><trkpt lat="45.06219271851236" lon="9.947596527673047"><ele>36.0</ele><time>2026-03-22T11:12:09.999Z</time></trkpt><trkpt lat="45.062263181592655" lon="9.947625993191904"><ele>36.0</ele><time>2026-03-22T11:12:10.999Z</time></trkpt><trkpt lat="45.06233458233554" lon="9.94766052308932"><ele>36.0</ele><time>2026-03-22T11:12:11.999Z</time></trkpt><trkpt lat="45.06240581522901" lon="9.947690590554851"><ele>36.0</ele><time>2026-03-22T11:12:12.999Z</time></trkpt><trkpt lat="45.06247522094389" lon="9.947725869601069"><ele>36.00000000000001</ele><time>2026-03-22T11:12:13.999Z</time></trkpt><trkpt lat="45.06254743704217" lon="9.9477561666745"><ele>36.0</ele><time>2026-03-22T11:12:14.998Z</time></trkpt><trkpt lat="45.06262216474315" lon="9.94778999592082"><ele>36.833333333333336</ele><time>2026-03-22T11:12:15.998Z</time></trkpt><trkpt lat="45.06269749582428" lon="9.947819489634876"><ele>37.666666666666664</ele><time>2026-03-22T11:12:16.998Z</time></trkpt><trkpt lat="45.0627729969492" lon="9.947851087347019"><ele>38.5</ele><time>2026-03-22T11:12:17.998Z</time></trkpt><trkpt lat="45.062848994140715" lon="9.947876271744503"><ele>39.33333333333333</ele><time>2026-03-22T11:12:18.998Z</time></trkpt><trkpt lat="45.062922646249405" lon="9.94789957707941"><ele>40.166666666666664</ele><time>2026-03-22T11:12:19.998Z</time></trkpt><trkpt lat="45.0629940925091" lon="9.947926176271286"><ele>41.0</ele><time>2026-03-22T11:12:20.998Z</time></trkpt><trkpt lat="45.063067352998864" lon="9.947952304770716"><ele>41.0</ele><time>2026-03-22T11:12:21.998Z</time></trkpt><trkpt lat="45.063145179378374" lon="9.947977781229907"><ele>41.0</ele><time>2026-03-22T11:12:22.998Z</time></trkpt><trkpt lat="45.063220468217324" lon="9.948008767934846"><ele>41.0</ele><time>2026-03-22T11:12:23.998Z</time></trkpt><trkpt lat="45.06329706847052" lon="9.948033335772317"><ele>41.0</ele><time>2026-03-22T11:12:24.998Z</time></trkpt><trkpt lat="45.06337529531304" lon="9.9480583744153"><ele>41.0</ele><time>2026-03-22T11:12:25.998Z</time></trkpt><trkpt lat="45.06345288540612" lon="9.948082725751439"><ele>41.0</ele><time>2026-03-22T11:12:26.998Z</time></trkpt><trkpt lat="45.0635287742377" lon="9.948109494414892"><ele>41.0</ele><time>2026-03-22T11:12:27.998Z</time></trkpt><trkpt lat="45.06360955333164" lon="9.9481353381889"><ele>41.0</ele><time>2026-03-22T11:12:28.998Z</time></trkpt><trkpt lat="45.06368575456425" lon="9.948164233304265"><ele>41.0</ele><time>2026-03-22T11:12:29.998Z</time></trkpt><trkpt lat="45.06376715233865" lon="9.948196653299767"><ele>41.0</ele><time>2026-03-22T11:12:30.998Z</time></trkpt><trkpt lat="45.06385076660584" lon="9.948228489550953"><ele>41.0</ele><time>2026-03-22T11:12:31.998Z</time></trkpt><trkpt lat="45.06393394933664" lon="9.948262095066356"><ele>41.0</ele><time>2026-03-22T11:12:32.998Z</time></trkpt><trkpt lat="45.06401579750926" lon="9.948304043792692"><ele>41.0</ele><time>2026-03-22T11:12:33.998Z</time></trkpt><trkpt lat="45.064100251531116" lon="9.948341530442464"><ele>41.0</ele><time>2026-03-22T11:12:34.998Z</time></trkpt><trkpt lat="45.064184970907334" lon="9.948384227723595"><ele>41.0</ele><time>2026-03-22T11:12:35.998Z</time></trkpt><trkpt lat="45.064269992187974" lon="9.94842207434048"><ele>41.0</ele><time>2026-03-22T11:12:36.998Z</time></trkpt><trkpt lat="45.06435907589979" lon="9.948463551012892"><ele>41.0</ele><time>2026-03-22T11:12:37.998Z</time></trkpt><trkpt lat="45.06444931608895" lon="9.948505028846798"><ele>40.8</ele><time>2026-03-22T11:12:38.998Z</time></trkpt><trkpt lat="45.06453527016379" lon="9.948545791490005"><ele>40.599999999999994</ele><time>2026-03-22T11:12:39.998Z</time></trkpt><trkpt lat="45.0646258842924" lon="9.948592019710421"><ele>40.4</ele><time>2026-03-22T11:12:40.998Z</time></trkpt><trkpt lat="45.064717769955536" lon="9.948641404535953"><ele>40.2</ele><time>2026-03-22T11:12:41.998Z</time></trkpt><trkpt lat="45.064809604469225" lon="9.94868897160503"><ele>40.0</ele><time>2026-03-22T11:12:42.998Z</time></trkpt><trkpt lat="45.06489802285866" lon="9.948730328601991"><ele>40.0</ele><time>2026-03-22T11:12:43.998Z</time></trkpt><trkpt lat="45.06498558055161" lon="9.948769844699997"><ele>40.0</ele><time>2026-03-22T11:12:44.998Z</time></trkpt><trkpt lat="45.065074793654" lon="9.948807979856003"><ele>40.0</ele><time>2026-03-22T11:12:45.998Z</time></trkpt><trkpt lat="45.0651621840385" lon="9.948849158988013"><ele>40.0</ele><time>2026-03-22T11:12:46.998Z</time></trkpt><trkpt lat="45.06524694952781" lon="9.948890222488433"><ele>40.0</ele><time>2026-03-22T11:12:47.998Z</time></trkpt><trkpt lat="45.065331972847254" lon="9.948925442292072"><ele>40.0</ele><time>2026-03-22T11:12:48.998Z</time></trkpt><trkpt lat="45.0654151947845" lon="9.948963703375439"><ele>40.0</ele><time>2026-03-22T11:12:49.998Z</time></trkpt><trkpt lat="45.06550003986029" lon="9.948998759891177"><ele>40.0</ele><time>2026-03-22T11:12:50.998Z</time></trkpt><trkpt lat="45.065586320248286" lon="9.949039281354711"><ele>40.0</ele><time>2026-03-22T11:12:51.998Z</time></trkpt><trkpt lat="45.06567378038174" lon="9.94908061248963"><ele>40.0</ele><time>2026-03-22T11:12:52.998Z</time></trkpt><trkpt lat="45.065760905904234" lon="9.949125055857131"><ele>39.8</ele><time>2026-03-22T11:12:53.998Z</time></trkpt><trkpt lat="45.06584774965634" lon="9.949170827797044"><ele>39.6</ele><time>2026-03-22T11:12:54.998Z</time></trkpt><trkpt lat="45.065935311422116" lon="9.949217993236411"><ele>39.4</ele><time>2026-03-22T11:12:55.998Z</time></trkpt><trkpt lat="45.066023752429146" lon="9.949263893395823"><ele>39.2</ele><time>2026-03-22T11:12:56.998Z</time></trkpt><trkpt lat="45.06611437936846" lon="9.949310720638485"><ele>39.0</ele><time>2026-03-22T11:12:57.998Z</time></trkpt><trkpt lat="45.0662060000873" lon="9.94936056919733"><ele>39.0</ele><time>2026-03-22T11:12:58.998Z</time></trkpt><trkpt lat="45.06629777072841" lon="9.94940879599578"><ele>39.0</ele><time>2026-03-22T11:12:59.998Z</time></trkpt><trkpt lat="45.066388564156455" lon="9.949459163525688"><ele>39.0</ele><time>2026-03-22T11:13:00.998Z</time></trkpt><trkpt lat="45.06647769834549" lon="9.949510215423672"><ele>39.0</ele><time>2026-03-22T11:13:01.998Z</time></trkpt><trkpt lat="45.066567898285285" lon="9.94956624007233"><ele>39.0</ele><time>2026-03-22T11:13:02.998Z</time></trkpt><trkpt lat="45.06665138496" lon="9.949622705470105"><ele>39.0</ele><time>2026-03-22T11:13:03.998Z</time></trkpt><trkpt lat="45.06673667842364" lon="9.949672695537426"><ele>39.0</ele><time>2026-03-22T11:13:04.998Z</time></trkpt><trkpt lat="45.06682070239705" lon="9.949722858424767"><ele>39.0</ele><time>2026-03-22T11:13:05.998Z</time></trkpt><trkpt lat="45.06690391755752" lon="9.949770756280925"><ele>39.0</ele><time>2026-03-22T11:13:07Z</time></trkpt><trkpt lat="45.0669865296228" lon="9.949820467703267"><ele>39.0</ele><time>2026-03-22T11:13:08Z</time></trkpt><trkpt lat="45.06706564822974" lon="9.94987008713642"><ele>39.0</ele><time>2026-03-22T11:13:09Z</time></trkpt><trkpt lat="45.067143557179946" lon="9.949920189000379"><ele>39.0</ele><time>2026-03-22T11:13:10Z</time></trkpt><trkpt lat="45.06722499444676" lon="9.94996856768531"><ele>39.0</ele><time>2026-03-22T11:13:11Z</time></trkpt><trkpt lat="45.06730690330358" lon="9.950018383559062"><ele>39.0</ele><time>2026-03-22T11:13:12Z</time></trkpt><trkpt lat="45.067389244229474" lon="9.950068791540438"><ele>39.0</ele><time>2026-03-22T11:13:13Z</time></trkpt><trkpt lat="45.06746961572636" lon="9.950121947639522"><ele>39.0</ele><time>2026-03-22T11:13:14Z</time></trkpt><trkpt lat="45.067548564952254" lon="9.95017561979727"><ele>38.5</ele><time>2026-03-22T11:13:15Z</time></trkpt><trkpt lat="45.06762687457032" lon="9.95022760384139"><ele>38.0</ele><time>2026-03-22T11:13:16Z</time></trkpt><trkpt lat="45.06770436850976" lon="9.950281294684393"><ele>37.5</ele><time>2026-03-22T11:13:17Z</time></trkpt><trkpt lat="45.067781255939465" lon="9.950337201413955"><ele>37.0</ele><time>2026-03-22T11:13:18Z</time></trkpt><trkpt lat="45.06785979353969" lon="9.95039475780643"><ele>36.5</ele><time>2026-03-22T11:13:19Z</time></trkpt><trkpt lat="45.06793381464736" lon="9.950450880968814"><ele>36.0</ele><time>2026-03-22T11:13:20Z</time></trkpt><trkpt lat="45.06800666269304" lon="9.95050949426826"><ele>36.0</ele><time>2026-03-22T11:13:21Z</time></trkpt><trkpt lat="45.06807852755287" lon="9.950572203465958"><ele>36.0</ele><time>2026-03-22T11:13:22Z</time></trkpt><trkpt lat="45.068148492544175" lon="9.950639300566904"><ele>36.0</ele><time>2026-03-22T11:13:23Z</time></trkpt><trkpt lat="45.06821838566888" lon="9.950708714575542"><ele>36.0</ele><time>2026-03-22T11:13:24Z</time></trkpt><trkpt lat="45.06828613509368" lon="9.950778546005024"><ele>36.0</ele><time>2026-03-22T11:13:25Z</time></trkpt><trkpt lat="45.06835228198018" lon="9.95085323557323"><ele>36.0</ele><time>2026-03-22T11:13:26Z</time></trkpt><trkpt lat="45.06841569373273" lon="9.950924926638855"><ele>35.666666666666664</ele><time>2026-03-22T11:13:26.999Z</time></trkpt><trkpt lat="45.06847842585527" lon="9.95099991033909"><ele>35.333333333333336</ele><time>2026-03-22T11:13:27.999Z</time></trkpt><trkpt lat="45.06854173836174" lon="9.951073356587822"><ele>35.0</ele><time>2026-03-22T11:13:28.999Z</time></trkpt><trkpt lat="45.06860537449534" lon="9.95114777424645"><ele>34.66666666666667</ele><time>2026-03-22T11:13:29.999Z</time></trkpt><trkpt lat="45.06866906925314" lon="9.951223604380628"><ele>34.333333333333336</ele><time>2026-03-22T11:13:30.999Z</time></trkpt><trkpt lat="45.06873341886271" lon="9.95129788329023"><ele>34.0</ele><time>2026-03-22T11:13:31.999Z</time></trkpt><trkpt lat="45.06879909134174" lon="9.951374045862119"><ele>34.0</ele><time>2026-03-22T11:13:32.999Z</time></trkpt><trkpt lat="45.068863000857235" lon="9.951452852762266"><ele>34.0</ele><time>2026-03-22T11:13:33.999Z</time></trkpt><trkpt lat="45.06892806010833" lon="9.951526838032592"><ele>34.0</ele><time>2026-03-22T11:13:34.999Z</time></trkpt><trkpt lat="45.06899300929816" lon="9.951605196273569"><ele>34.0</ele><time>2026-03-22T11:13:35.999Z</time></trkpt><trkpt lat="45.06905890544287" lon="9.951682237694278"><ele>34.0</ele><time>2026-03-22T11:13:36.999Z</time></trkpt><trkpt lat="45.069125117676855" lon="9.951759669074745"><ele>34.0</ele><time>2026-03-22T11:13:37.999Z</time></trkpt><trkpt lat="45.069191099314885" lon="9.951837583177014"><ele>34.5</ele><time>2026-03-22T11:13:38.999Z</time></trkpt><trkpt lat="45.06925695598282" lon="9.951918624120847"><ele>35.0</ele><time>2026-03-22T11:13:39.999Z</time></trkpt><trkpt lat="45.069321304084745" lon="9.951993790648205"><ele>35.5</ele><time>2026-03-22T11:13:40.999Z</time></trkpt><trkpt lat="45.06938766093186" lon="9.952068971333183"><ele>36.0</ele><time>2026-03-22T11:13:41.999Z</time></trkpt><trkpt lat="45.069452875266435" lon="9.952142914804403"><ele>36.5</ele><time>2026-03-22T11:13:42.999Z</time></trkpt><trkpt lat="45.06951770617658" lon="9.9522178850958"><ele>37.0</ele><time>2026-03-22T11:13:43.999Z</time></trkpt><trkpt lat="45.06958377525925" lon="9.952294297898904"><ele>37.0</ele><time>2026-03-22T11:13:44.999Z</time></trkpt><trkpt lat="45.06965058022209" lon="9.952370438844058"><ele>37.0</ele><time>2026-03-22T11:13:45.999Z</time></trkpt><trkpt lat="45.069718876227526" lon="9.952446748905327"><ele>37.0</ele><time>2026-03-22T11:13:46.999Z</time></trkpt><trkpt lat="45.0697859957461" lon="9.952527182385413"><ele>37.0</ele><time>2026-03-22T11:13:47.999Z</time></trkpt><trkpt lat="45.069854080289254" lon="9.952604832052863"><ele>37.0</ele><time>2026-03-22T11:13:48.999Z</time></trkpt><trkpt lat="45.06992014955764" lon="9.952685662799498"><ele>37.0</ele><time>2026-03-22T11:13:49.999Z</time></trkpt><trkpt lat="45.06998617169008" lon="9.952762708974292"><ele>37.0</ele><time>2026-03-22T11:13:50.999Z</time></trkpt><trkpt lat="45.07005399334266" lon="9.952843455209262"><ele>37.0</ele><time>2026-03-22T11:13:51.999Z</time></trkpt><trkpt lat="45.07012168356374" lon="9.952924060866492"><ele>37.0</ele><time>2026-03-22T11:13:52.999Z</time></trkpt><trkpt lat="45.0701902987136" lon="9.953004738310188"><ele>37.0</ele><time>2026-03-22T11:13:53.999Z</time></trkpt><trkpt lat="45.07026195543615" lon="9.953085969695266"><ele>37.0</ele><time>2026-03-22T11:13:54.999Z</time></trkpt><trkpt lat="45.07033133713931" lon="9.953167653801398"><ele>37.0</ele><time>2026-03-22T11:13:55.999Z</time></trkpt><trkpt lat="45.07039799585989" lon="9.953250084134499"><ele>37.0</ele><time>2026-03-22T11:13:56.999Z</time></trkpt><trkpt lat="45.070468071564655" lon="9.953332932398126"><ele>37.0</ele><time>2026-03-22T11:13:57.999Z</time></trkpt><trkpt lat="45.070537439388886" lon="9.953412676320788"><ele>37.0</ele><time>2026-03-22T11:13:58.999Z</time></trkpt><trkpt lat="45.070608800215375" lon="9.953491890034742"><ele>37.0</ele><time>2026-03-22T11:13:59.999Z</time></trkpt><trkpt lat="45.070681227907926" lon="9.953573334305664"><ele>37.0</ele><time>2026-03-22T11:14:00.999Z</time></trkpt><trkpt lat="45.07075041326865" lon="9.953655156875065"><ele>37.16666666666667</ele><time>2026-03-22T11:14:01.999Z</time></trkpt><trkpt lat="45.07082142945673" lon="9.953739780012668"><ele>37.333333333333336</ele><time>2026-03-22T11:14:02.999Z</time></trkpt><trkpt lat="45.0708913035153" lon="9.953821428119474"><ele>37.5</ele><time>2026-03-22T11:14:03.999Z</time></trkpt><trkpt lat="45.07095721762535" lon="9.953898702353943"><ele>37.666666666666664</ele><time>2026-03-22T11:14:04.999Z</time></trkpt><trkpt lat="45.071023504298545" lon="9.953975683601215"><ele>37.83333333333333</ele><time>2026-03-22T11:14:05.999Z</time></trkpt><trkpt lat="45.07108843661451" lon="9.954052396822357"><ele>38.0</ele><time>2026-03-22T11:14:06.999Z</time></trkpt><trkpt lat="45.07115424379818" lon="9.95412640284159"><ele>38.0</ele><time>2026-03-22T11:14:07.999Z</time></trkpt><trkpt lat="45.07121773558016" lon="9.954199963318912"><ele>38.0</ele><time>2026-03-22T11:14:08.999Z</time></trkpt><trkpt lat="45.071281202467475" lon="9.954276067013508"><ele>38.0</ele><time>2026-03-22T11:14:09.999Z</time></trkpt><trkpt lat="45.07134353001955" lon="9.954351514742315"><ele>38.0</ele><time>2026-03-22T11:14:10.999Z</time></trkpt><trkpt lat="45.071406008404786" lon="9.954425827698616"><ele>38.0</ele><time>2026-03-22T11:14:11.999Z</time></trkpt><trkpt lat="45.0714702322205" lon="9.95450091367097"><ele>38.0</ele><time>2026-03-22T11:14:12.999Z</time></trkpt><trkpt lat="45.071532193258335" lon="9.954573227387767"><ele>37.83333333333333</ele><time>2026-03-22T11:14:13.999Z</time></trkpt><trkpt lat="45.071594640646474" lon="9.954644472962345"><ele>37.666666666666664</ele><time>2026-03-22T11:14:14.999Z</time></trkpt><trkpt lat="45.071656352125146" lon="9.954717779543198"><ele>37.5</ele><time>2026-03-22T11:14:15.999Z</time></trkpt><trkpt lat="45.07171808801584" lon="9.954790206140943"><ele>37.333333333333336</ele><time>2026-03-22T11:14:16.999Z</time></trkpt><trkpt lat="45.07178393018955" lon="9.95486241307555"><ele>37.16666666666667</ele><time>2026-03-22T11:14:17.999Z</time></trkpt><trkpt lat="45.071845587387976" lon="9.954934892047275"><ele>37.0</ele><time>2026-03-22T11:14:18.999Z</time></trkpt><trkpt lat="45.071911042616115" lon="9.955011656429825"><ele>36.66666666666667</ele><time>2026-03-22T11:14:19.998Z</time></trkpt><trkpt lat="45.071974577739745" lon="9.955086341160694"><ele>36.333333333333336</ele><time>2026-03-22T11:14:20.998Z</time></trkpt><trkpt lat="45.07203626103291" lon="9.95516137787518"><ele>36.0</ele><time>2026-03-22T11:14:21.998Z</time></trkpt><trkpt lat="45.07210244261496" lon="9.955240728475928"><ele>35.666666666666664</ele><time>2026-03-22T11:14:22.998Z</time></trkpt><trkpt lat="45.072168626810544" lon="9.955316042685931"><ele>35.33333333333333</ele><time>2026-03-22T11:14:23.998Z</time></trkpt><trkpt lat="45.07223666389573" lon="9.955393745545397"><ele>35.0</ele><time>2026-03-22T11:14:24.998Z</time></trkpt><trkpt lat="45.07230243589777" lon="9.955473107655633"><ele>35.0</ele><time>2026-03-22T11:14:25.998Z</time></trkpt><trkpt lat="45.07236875721997" lon="9.955551850170666"><ele>35.0</ele><time>2026-03-22T11:14:26.998Z</time></trkpt><trkpt lat="45.07243660487649" lon="9.955630312451877"><ele>35.0</ele><time>2026-03-22T11:14:27.998Z</time></trkpt><trkpt lat="45.07250317809553" lon="9.955709733594707"><ele>35.0</ele><time>2026-03-22T11:14:28.998Z</time></trkpt><trkpt lat="45.072570051976925" lon="9.955787021629567"><ele>35.0</ele><time>2026-03-22T11:14:29.998Z</time></trkpt><trkpt lat="45.07263776046185" lon="9.955864872502444"><ele>35.0</ele><time>2026-03-22T11:14:30.998Z</time></trkpt><trkpt lat="45.072704299452276" lon="9.955943660406568"><ele>35.0</ele><time>2026-03-22T11:14:31.998Z</time></trkpt><trkpt lat="45.07277000490876" lon="9.956020759878044"><ele>35.0</ele><time>2026-03-22T11:14:32.998Z</time></trkpt><trkpt lat="45.07283538341432" lon="9.956100166386555"><ele>35.0</ele><time>2026-03-22T11:14:33.998Z</time></trkpt><trkpt lat="45.07290234285209" lon="9.956176230975018"><ele>35.0</ele><time>2026-03-22T11:14:34.998Z</time></trkpt><trkpt lat="45.072969393677056" lon="9.956254568853215"><ele>35.0</ele><time>2026-03-22T11:14:35.998Z</time></trkpt><trkpt lat="45.07303522475426" lon="9.956330350352117"><ele>35.0</ele><time>2026-03-22T11:14:36.998Z</time></trkpt><trkpt lat="45.073100466352656" lon="9.956410089847124"><ele>35.0</ele><time>2026-03-22T11:14:37.998Z</time></trkpt><trkpt lat="45.07316598503872" lon="9.956484906875543"><ele>35.0</ele><time>2026-03-22T11:14:38.998Z</time></trkpt><trkpt lat="45.07323073610883" lon="9.956563637301729"><ele>35.0</ele><time>2026-03-22T11:14:39.998Z</time></trkpt><trkpt lat="45.07329444079993" lon="9.956639628074777"><ele>35.0</ele><time>2026-03-22T11:14:40.998Z</time></trkpt><trkpt lat="45.07336075503571" lon="9.956714935530547"><ele>35.0</ele><time>2026-03-22T11:14:41.998Z</time></trkpt><trkpt lat="45.07342804986044" lon="9.956787205382719"><ele>35.0</ele><time>2026-03-22T11:14:42.998Z</time></trkpt><trkpt lat="45.07349434657014" lon="9.956863777309756"><ele>35.166666666666664</ele><time>2026-03-22T11:14:43.998Z</time></trkpt><trkpt lat="45.07356144558238" lon="9.956940321224726"><ele>35.33333333333333</ele><time>2026-03-22T11:14:44.998Z</time></trkpt><trkpt lat="45.07362810564711" lon="9.957018992941725"><ele>35.5</ele><time>2026-03-22T11:14:45.998Z</time></trkpt><trkpt lat="45.07369401396642" lon="9.957093026253833"><ele>35.666666666666664</ele><time>2026-03-22T11:14:46.998Z</time></trkpt><trkpt lat="45.07376290760499" lon="9.957169676660863"><ele>35.833333333333336</ele><time>2026-03-22T11:14:47.998Z</time></trkpt><trkpt lat="45.073829232500074" lon="9.957245570415422"><ele>36.0</ele><time>2026-03-22T11:14:48.998Z</time></trkpt><trkpt lat="45.07389618631128" lon="9.95732419839976"><ele>36.0</ele><time>2026-03-22T11:14:49.998Z</time></trkpt><trkpt lat="45.07396230409074" lon="9.957398505995181"><ele>36.0</ele><time>2026-03-22T11:14:50.998Z</time></trkpt><trkpt lat="45.074030639814374" lon="9.957475538028396"><ele>36.0</ele><time>2026-03-22T11:14:51.998Z</time></trkpt><trkpt lat="45.074095661750896" lon="9.95755224898573"><ele>36.0</ele><time>2026-03-22T11:14:52.998Z</time></trkpt><trkpt lat="45.07415827294865" lon="9.957634820057091"><ele>36.0</ele><time>2026-03-22T11:14:53.998Z</time></trkpt><trkpt lat="45.07422384876269" lon="9.957713523461846"><ele>36.0</ele><time>2026-03-22T11:14:54.998Z</time></trkpt><trkpt lat="45.074283992407324" lon="9.957795810974918"><ele>36.333333333333336</ele><time>2026-03-22T11:14:55.998Z</time></trkpt><trkpt lat="45.074340591283054" lon="9.957886943749946"><ele>36.666666666666664</ele><time>2026-03-22T11:14:56.998Z</time></trkpt><trkpt lat="45.07439368766722" lon="9.957977465527394"><ele>37.0</ele><time>2026-03-22T11:14:57.998Z</time></trkpt><trkpt lat="45.07444639480337" lon="9.95807939458385"><ele>37.33333333333333</ele><time>2026-03-22T11:14:58.998Z</time></trkpt><trkpt lat="45.07449639820049" lon="9.958177272278565"><ele>37.666666666666664</ele><time>2026-03-22T11:14:59.998Z</time></trkpt><trkpt lat="45.07454338962109" lon="9.958277195389266"><ele>38.0</ele><time>2026-03-22T11:15:00.998Z</time></trkpt><trkpt lat="45.074589558473065" lon="9.958377154564905"><ele>38.0</ele><time>2026-03-22T11:15:01.998Z</time></trkpt><trkpt lat="45.074635711330046" lon="9.95847804053532"><ele>38.0</ele><time>2026-03-22T11:15:02.998Z</time></trkpt><trkpt lat="45.07468187683463" lon="9.958579626491654"><ele>38.0</ele><time>2026-03-22T11:15:03.998Z</time></trkpt><trkpt lat="45.074728226006705" lon="9.958679885634186"><ele>38.0</ele><time>2026-03-22T11:15:04.998Z</time></trkpt><trkpt lat="45.074769319676236" lon="9.958787182969822"><ele>38.0</ele><time>2026-03-22T11:15:05.998Z</time></trkpt><trkpt lat="45.07480812640092" lon="9.958892894200408"><ele>38.0</ele><time>2026-03-22T11:15:06.998Z</time></trkpt><trkpt lat="45.074846326277516" lon="9.959001896153557"><ele>38.0</ele><time>2026-03-22T11:15:07.998Z</time></trkpt><trkpt lat="45.074883982602685" lon="9.959106530276099"><ele>38.0</ele><time>2026-03-22T11:15:08.998Z</time></trkpt><trkpt lat="45.07492122046673" lon="9.95921311995871"><ele>38.0</ele><time>2026-03-22T11:15:09.998Z</time></trkpt><trkpt lat="45.074958424207146" lon="9.959316453563268"><ele>38.0</ele><time>2026-03-22T11:15:10.998Z</time></trkpt><trkpt lat="45.07500044567058" lon="9.95941958126636"><ele>38.0</ele><time>2026-03-22T11:15:11.997Z</time></trkpt><trkpt lat="45.07502957735423" lon="9.959519482415295"><ele>38.0</ele><time>2026-03-22T11:15:13Z</time></trkpt><trkpt lat="45.075062328478175" lon="9.95962797990947"><ele>38.166666666666664</ele><time>2026-03-22T11:15:14Z</time></trkpt><trkpt lat="45.07510058106523" lon="9.959727337929053"><ele>38.33333333333333</ele><time>2026-03-22T11:15:15Z</time></trkpt><trkpt lat="45.07513952196274" lon="9.959826657527229"><ele>38.5</ele><time>2026-03-22T11:15:16Z</time></trkpt><trkpt lat="45.075176248082286" lon="9.959925553785322"><ele>38.666666666666664</ele><time>2026-03-22T11:15:17Z</time></trkpt><trkpt lat="45.07521845600199" lon="9.96002652581754"><ele>38.833333333333336</ele><time>2026-03-22T11:15:18Z</time></trkpt><trkpt lat="45.075260451427624" lon="9.96012839361642"><ele>39.0</ele><time>2026-03-22T11:15:19Z</time></trkpt><trkpt lat="45.075308654700564" lon="9.960227219043874"><ele>39.0</ele><time>2026-03-22T11:15:20Z</time></trkpt><trkpt lat="45.07535759899737" lon="9.960328502897696"><ele>39.0</ele><time>2026-03-22T11:15:21Z</time></trkpt><trkpt lat="45.075401199239856" lon="9.960431714492888"><ele>39.0</ele><time>2026-03-22T11:15:22Z</time></trkpt><trkpt lat="45.07545062954418" lon="9.960533290066618"><ele>39.0</ele><time>2026-03-22T11:15:23Z</time></trkpt><trkpt lat="45.07550459001115" lon="9.960632898618682"><ele>39.0</ele><time>2026-03-22T11:15:24Z</time></trkpt><trkpt lat="45.07555694042984" lon="9.960729609597355"><ele>39.0</ele><time>2026-03-22T11:15:25Z</time></trkpt><trkpt lat="45.07561118822282" lon="9.960826469892824"><ele>39.0</ele><time>2026-03-22T11:15:26Z</time></trkpt><trkpt lat="45.075665427221615" lon="9.96092016175683"><ele>39.0</ele><time>2026-03-22T11:15:27Z</time></trkpt><trkpt lat="45.07571715104967" lon="9.961018141706994"><ele>39.0</ele><time>2026-03-22T11:15:28Z</time></trkpt><trkpt lat="45.07577227674642" lon="9.961109269735688"><ele>39.0</ele><time>2026-03-22T11:15:29Z</time></trkpt><trkpt lat="45.07582919568716" lon="9.961201298788815"><ele>39.0</ele><time>2026-03-22T11:15:30Z</time></trkpt><trkpt lat="45.075883140899556" lon="9.961288723809844"><ele>39.0</ele><time>2026-03-22T11:15:31Z</time></trkpt><trkpt lat="45.075941520503605" lon="9.961375465500774"><ele>38.833333333333336</ele><time>2026-03-22T11:15:31.999Z</time></trkpt><trkpt lat="45.07599551301886" lon="9.961466824589142"><ele>38.666666666666664</ele><time>2026-03-22T11:15:32.999Z</time></trkpt><trkpt lat="45.07605557323364" lon="9.961552863946803"><ele>38.5</ele><time>2026-03-22T11:15:33.999Z</time></trkpt><trkpt lat="45.076116372265425" lon="9.961635894111236"><ele>38.33333333333333</ele><time>2026-03-22T11:15:34.999Z</time></trkpt><trkpt lat="45.07618050415662" lon="9.96171275125256"><ele>38.166666666666664</ele><time>2026-03-22T11:15:35.999Z</time></trkpt><trkpt lat="45.07624511678469" lon="9.961785256238514"><ele>38.0</ele><time>2026-03-22T11:15:36.999Z</time></trkpt><trkpt lat="45.07631192903923" lon="9.96184507447799"><ele>38.0</ele><time>2026-03-22T11:15:37.999Z</time></trkpt><trkpt lat="45.07637799090493" lon="9.961902188223197"><ele>38.0</ele><time>2026-03-22T11:15:38.999Z</time></trkpt><trkpt lat="45.07644413689734" lon="9.96195757224629"><ele>38.0</ele><time>2026-03-22T11:15:39.999Z</time></trkpt><trkpt lat="45.076510141959474" lon="9.96200862148769"><ele>38.0</ele><time>2026-03-22T11:15:40.999Z</time></trkpt><trkpt lat="45.076578227278866" lon="9.962065497352935"><ele>38.0</ele><time>2026-03-22T11:15:41.999Z</time></trkpt><trkpt lat="45.07664663990294" lon="9.962115598856098"><ele>38.0</ele><time>2026-03-22T11:15:42.999Z</time></trkpt><trkpt lat="45.07671243540556" lon="9.962170985549758"><ele>38.0</ele><time>2026-03-22T11:15:43.999Z</time></trkpt><trkpt lat="45.076782131002304" lon="9.96222652432261"><ele>38.0</ele><time>2026-03-22T11:15:44.999Z</time></trkpt><trkpt lat="45.07685390038411" lon="9.962277513529704"><ele>38.0</ele><time>2026-03-22T11:15:45.999Z</time></trkpt><trkpt lat="45.07692919788618" lon="9.962323642521437"><ele>38.0</ele><time>2026-03-22T11:15:46.999Z</time></trkpt><trkpt lat="45.0770048279511" lon="9.96236005505076"><ele>38.0</ele><time>2026-03-22T11:15:47.999Z</time></trkpt><trkpt lat="45.07707967755862" lon="9.96239380578354"><ele>38.0</ele><time>2026-03-22T11:15:48.999Z</time></trkpt><trkpt lat="45.077149901746516" lon="9.96242957806016"><ele>38.0</ele><time>2026-03-22T11:15:49.999Z</time></trkpt><trkpt lat="45.077222026604005" lon="9.962464584018875"><ele>38.0</ele><time>2026-03-22T11:15:50.999Z</time></trkpt><trkpt lat="45.07729341147147" lon="9.962492124796466"><ele>38.0</ele><time>2026-03-22T11:15:51.999Z</time></trkpt><trkpt lat="45.07736762472854" lon="9.96251361453008"><ele>38.0</ele><time>2026-03-22T11:15:52.999Z</time></trkpt><trkpt lat="45.077444520987775" lon="9.962537551328277"><ele>38.0</ele><time>2026-03-22T11:15:53.999Z</time></trkpt><trkpt lat="45.07751933479307" lon="9.962568696645402"><ele>38.0</ele><time>2026-03-22T11:15:54.999Z</time></trkpt><trkpt lat="45.07759388351037" lon="9.962598040870217"><ele>38.0</ele><time>2026-03-22T11:15:55.999Z</time></trkpt><trkpt lat="45.07767033891925" lon="9.962631068497151"><ele>38.0</ele><time>2026-03-22T11:15:56.999Z</time></trkpt><trkpt lat="45.07774739512851" lon="9.962659528499342"><ele>38.0</ele><time>2026-03-22T11:15:57.999Z</time></trkpt><trkpt lat="45.07782813827908" lon="9.96269165060304"><ele>38.0</ele><time>2026-03-22T11:15:58.999Z</time></trkpt><trkpt lat="45.07791035503013" lon="9.962727154782934"><ele>38.0</ele><time>2026-03-22T11:15:59.999Z</time></trkpt><trkpt lat="45.07799595848697" lon="9.962758909150736"><ele>38.0</ele><time>2026-03-22T11:16:00.999Z</time></trkpt><trkpt lat="45.07807990512856" lon="9.962797195333993"><ele>38.0</ele><time>2026-03-22T11:16:01.999Z</time></trkpt><trkpt lat="45.07816295712433" lon="9.9628309457098"><ele>38.0</ele><time>2026-03-22T11:16:02.999Z</time></trkpt><trkpt lat="45.07824417428153" lon="9.962870150085486"><ele>38.0</ele><time>2026-03-22T11:16:03.999Z</time></trkpt><trkpt lat="45.0783199277422" lon="9.962906726989278"><ele>38.0</ele><time>2026-03-22T11:16:04.999Z</time></trkpt><trkpt lat="45.07839510278352" lon="9.962943562804579"><ele>38.0</ele><time>2026-03-22T11:16:05.999Z</time></trkpt><trkpt lat="45.07847179355324" lon="9.962977725026834"><ele>38.0</ele><time>2026-03-22T11:16:06.999Z</time></trkpt><trkpt lat="45.078544954707525" lon="9.963017533448237"><ele>37.666666666666664</ele><time>2026-03-22T11:16:07.999Z</time></trkpt><trkpt lat="45.078616464703934" lon="9.963061366742595"><ele>37.33333333333333</ele><time>2026-03-22T11:16:08.999Z</time></trkpt><trkpt lat="45.078687647983" lon="9.96310855890297"><ele>37.0</ele><time>2026-03-22T11:16:09.999Z</time></trkpt><trkpt lat="45.07875362420037" lon="9.963159932021837"><ele>36.666666666666664</ele><time>2026-03-22T11:16:10.999Z</time></trkpt><trkpt lat="45.07881936680836" lon="9.963213636441912"><ele>36.333333333333336</ele><time>2026-03-22T11:16:11.999Z</time></trkpt><trkpt lat="45.078882344470195" lon="9.96326871987051"><ele>36.0</ele><time>2026-03-22T11:16:12.999Z</time></trkpt><trkpt lat="45.07894543248383" lon="9.96332478278118"><ele>36.0</ele><time>2026-03-22T11:16:13.999Z</time></trkpt><trkpt lat="45.07900847947516" lon="9.963384807841921"><ele>36.0</ele><time>2026-03-22T11:16:14.999Z</time></trkpt><trkpt lat="45.07907111686546" lon="9.963444012161737"><ele>36.0</ele><time>2026-03-22T11:16:15.999Z</time></trkpt><trkpt lat="45.07913385159188" lon="9.963506466067946"><ele>36.0</ele><time>2026-03-22T11:16:16.999Z</time></trkpt><trkpt lat="45.079194006364276" lon="9.963568122946903"><ele>36.0</ele><time>2026-03-22T11:16:17.999Z</time></trkpt><trkpt lat="45.079256351991795" lon="9.963632711467062"><ele>36.0</ele><time>2026-03-22T11:16:18.999Z</time></trkpt><trkpt lat="45.079316665718444" lon="9.96368973737406"><ele>36.0</ele><time>2026-03-22T11:16:19.999Z</time></trkpt><trkpt lat="45.07937675000063" lon="9.963749382451251"><ele>36.0</ele><time>2026-03-22T11:16:20.999Z</time></trkpt><trkpt lat="45.07943972766689" lon="9.963808735596288"><ele>36.0</ele><time>2026-03-22T11:16:21.999Z</time></trkpt><trkpt lat="45.07950310527367" lon="9.96387279989191"><ele>36.0</ele><time>2026-03-22T11:16:22.999Z</time></trkpt><trkpt lat="45.079567268948466" lon="9.963932265492845"><ele>36.0</ele><time>2026-03-22T11:16:23.998Z</time></trkpt><trkpt lat="45.07962966121885" lon="9.963989189716628"><ele>36.0</ele><time>2026-03-22T11:16:24.998Z</time></trkpt><trkpt lat="45.079693515324" lon="9.964044981699189"><ele>36.0</ele><time>2026-03-22T11:16:25.998Z</time></trkpt><trkpt lat="45.079757672051215" lon="9.964100595134713"><ele>36.0</ele><time>2026-03-22T11:16:26.998Z</time></trkpt><trkpt lat="45.07982343715522" lon="9.964155469254374"><ele>36.0</ele><time>2026-03-22T11:16:27.998Z</time></trkpt><trkpt lat="45.07989297795585" lon="9.964199146156037"><ele>36.0</ele><time>2026-03-22T11:16:28.998Z</time></trkpt><trkpt lat="45.07996534357557" lon="9.964232932876522"><ele>36.0</ele><time>2026-03-22T11:16:29.998Z</time></trkpt><trkpt lat="45.080038400614534" lon="9.9642592760324"><ele>36.0</ele><time>2026-03-22T11:16:30.998Z</time></trkpt><trkpt lat="45.08011155789174" lon="9.964279140821773"><ele>36.0</ele><time>2026-03-22T11:16:31.998Z</time></trkpt><trkpt lat="45.08018764223604" lon="9.96429125451645"><ele>36.0</ele><time>2026-03-22T11:16:32.998Z</time></trkpt><trkpt lat="45.080264360177075" lon="9.964292573224446"><ele>36.0</ele><time>2026-03-22T11:16:33.998Z</time></trkpt><trkpt lat="45.08034049052111" lon="9.964288013613842"><ele>36.0</ele><time>2026-03-22T11:16:34.998Z</time></trkpt><trkpt lat="45.080417108502004" lon="9.964273253392896"><ele>36.0</ele><time>2026-03-22T11:16:35.998Z</time></trkpt><trkpt lat="45.080491468624416" lon="9.964258328127569"><ele>36.0</ele><time>2026-03-22T11:16:36.998Z</time></trkpt><trkpt lat="45.08056861578021" lon="9.964244780496958"><ele>36.00000000000001</ele><time>2026-03-22T11:16:37.998Z</time></trkpt><trkpt lat="45.0806413108364" lon="9.964232711892848"><ele>36.0</ele><time>2026-03-22T11:16:38.998Z</time></trkpt><trkpt lat="45.08071743774785" lon="9.964216942231749"><ele>36.0</ele><time>2026-03-22T11:16:39.998Z</time></trkpt><trkpt lat="45.080790035950216" lon="9.964203588747775"><ele>36.0</ele><time>2026-03-22T11:16:40.998Z</time></trkpt><trkpt lat="45.08086217286904" lon="9.964191156845816"><ele>36.0</ele><time>2026-03-22T11:16:41.998Z</time></trkpt><trkpt lat="45.08093525164417" lon="9.964176135550096"><ele>36.00000000000001</ele><time>2026-03-22T11:16:42.998Z</time></trkpt><trkpt lat="45.081004438866515" lon="9.964168290883851"><ele>36.0</ele><time>2026-03-22T11:16:43.998Z</time></trkpt><trkpt lat="45.08107539454809" lon="9.964154617174701"><ele>36.42857142857143</ele><time>2026-03-22T11:16:44.998Z</time></trkpt><trkpt lat="45.081146079689795" lon="9.96413768468754"><ele>36.85714285714286</ele><time>2026-03-22T11:16:45.998Z</time></trkpt><trkpt lat="45.08121882323772" lon="9.9641259456661"><ele>37.28571428571429</ele><time>2026-03-22T11:16:46.998Z</time></trkpt><trkpt lat="45.081288434070906" lon="9.964111374905972"><ele>37.714285714285715</ele><time>2026-03-22T11:16:47.998Z</time></trkpt><trkpt lat="45.081360545607616" lon="9.964094184865559"><ele>38.14285714285714</ele><time>2026-03-22T11:16:48.998Z</time></trkpt><trkpt lat="45.08142888329459" lon="9.964087124796329"><ele>38.57142857142858</ele><time>2026-03-22T11:16:49.998Z</time></trkpt><trkpt lat="45.08150036030952" lon="9.964073382486033"><ele>39.0</ele><time>2026-03-22T11:16:50.998Z</time></trkpt><trkpt lat="45.08156912804928" lon="9.964055775806575"><ele>39.0</ele><time>2026-03-22T11:16:51.998Z</time></trkpt><trkpt lat="45.08163933536322" lon="9.964043999677607"><ele>39.0</ele><time>2026-03-22T11:16:52.998Z</time></trkpt><trkpt lat="45.081709471243244" lon="9.964028276439208"><ele>39.0</ele><time>2026-03-22T11:16:53.998Z</time></trkpt><trkpt lat="45.08177733559446" lon="9.964008973654238"><ele>39.0</ele><time>2026-03-22T11:16:54.998Z</time></trkpt><trkpt lat="45.08184544884176" lon="9.96398044750449"><ele>39.0</ele><time>2026-03-22T11:16:55.998Z</time></trkpt><trkpt lat="45.08191397566319" lon="9.963948769512044"><ele>39.0</ele><time>2026-03-22T11:16:56.998Z</time></trkpt><trkpt lat="45.08198033643214" lon="9.963910658341707"><ele>39.0</ele><time>2026-03-22T11:16:57.998Z</time></trkpt><trkpt lat="45.08204712322606" lon="9.96386658271026"><ele>39.0</ele><time>2026-03-22T11:16:58.998Z</time></trkpt><trkpt lat="45.08210860854588" lon="9.963816011549744"><ele>39.0</ele><time>2026-03-22T11:16:59.998Z</time></trkpt><trkpt lat="45.08217348222719" lon="9.963767708820063"><ele>39.0</ele><time>2026-03-22T11:17:00.998Z</time></trkpt><trkpt lat="45.082234660637376" lon="9.963711397169996"><ele>39.0</ele><time>2026-03-22T11:17:01.998Z</time></trkpt><trkpt lat="45.082300591364145" lon="9.963649053173082"><ele>39.0</ele><time>2026-03-22T11:17:02.998Z</time></trkpt><trkpt lat="45.082367429626785" lon="9.963590427964117"><ele>39.0</ele><time>2026-03-22T11:17:03.998Z</time></trkpt><trkpt lat="45.0824389699617" lon="9.963527944931773"><ele>38.833333333333336</ele><time>2026-03-22T11:17:04.998Z</time></trkpt><trkpt lat="45.08250979751854" lon="9.963464040617119"><ele>38.666666666666664</ele><time>2026-03-22T11:17:05.998Z</time></trkpt><trkpt lat="45.08258245269544" lon="9.963399688883642"><ele>38.5</ele><time>2026-03-22T11:17:06.998Z</time></trkpt><trkpt lat="45.08265644701143" lon="9.963332604977074"><ele>38.33333333333333</ele><time>2026-03-22T11:17:07.998Z</time></trkpt><trkpt lat="45.082729673406725" lon="9.963266777284497"><ele>38.166666666666664</ele><time>2026-03-22T11:17:08.998Z</time></trkpt><trkpt lat="45.08280412936063" lon="9.963196344356811"><ele>38.0</ele><time>2026-03-22T11:17:09.998Z</time></trkpt><trkpt lat="45.08287458881347" lon="9.963132126705654"><ele>38.0</ele><time>2026-03-22T11:17:10.998Z</time></trkpt><trkpt lat="45.08295206743862" lon="9.963064017996789"><ele>38.0</ele><time>2026-03-22T11:17:11.998Z</time></trkpt><trkpt lat="45.083027213321245" lon="9.962997918985334"><ele>38.0</ele><time>2026-03-22T11:17:12.998Z</time></trkpt><trkpt lat="45.08310305563764" lon="9.96293152558544"><ele>38.0</ele><time>2026-03-22T11:17:13.998Z</time></trkpt><trkpt lat="45.08317810667333" lon="9.96286432830804"><ele>38.0</ele><time>2026-03-22T11:17:14.998Z</time></trkpt><trkpt lat="45.08325556991169" lon="9.962796246359769"><ele>38.0</ele><time>2026-03-22T11:17:15.998Z</time></trkpt><trkpt lat="45.08333286053834" lon="9.962727351022298"><ele>38.0</ele><time>2026-03-22T11:17:16.997Z</time></trkpt><trkpt lat="45.083410992416425" lon="9.962658092924071"><ele>38.0</ele><time>2026-03-22T11:17:17.997Z</time></trkpt><trkpt lat="45.083488060120054" lon="9.96259106685905"><ele>38.0</ele><time>2026-03-22T11:17:19Z</time></trkpt><trkpt lat="45.08356877747194" lon="9.96252040418241"><ele>38.0</ele><time>2026-03-22T11:17:20Z</time></trkpt><trkpt lat="45.08364729641882" lon="9.96245221799823"><ele>38.0</ele><time>2026-03-22T11:17:21Z</time></trkpt><trkpt lat="45.0837262362469" lon="9.962387277385126"><ele>38.199999999999996</ele><time>2026-03-22T11:17:22Z</time></trkpt><trkpt lat="45.08380700754405" lon="9.96231879067423"><ele>38.4</ele><time>2026-03-22T11:17:23Z</time></trkpt><trkpt lat="45.083888341710654" lon="9.962257353145088"><ele>38.599999999999994</ele><time>2026-03-22T11:17:24Z</time></trkpt><trkpt lat="45.083969898075566" lon="9.962198774241044"><ele>38.8</ele><time>2026-03-22T11:17:25Z</time></trkpt><trkpt lat="45.084053554162615" lon="9.962143363528593"><ele>39.0</ele><time>2026-03-22T11:17:26Z</time></trkpt><trkpt lat="45.084137106066706" lon="9.962087513580444"><ele>38.6</ele><time>2026-03-22T11:17:27Z</time></trkpt><trkpt lat="45.08422265600208" lon="9.96203269561703"><ele>38.2</ele><time>2026-03-22T11:17:28Z</time></trkpt><trkpt lat="45.08430951439349" lon="9.961984900850572"><ele>37.800000000000004</ele><time>2026-03-22T11:17:29Z</time></trkpt><trkpt lat="45.08440030777177" lon="9.96194308305275"><ele>37.4</ele><time>2026-03-22T11:17:30Z</time></trkpt><trkpt lat="45.08449245865995" lon="9.961911703098771"><ele>37.0</ele><time>2026-03-22T11:17:31Z</time></trkpt><trkpt lat="45.08458532344811" lon="9.961881161567847"><ele>37.0</ele><time>2026-03-22T11:17:32Z</time></trkpt><trkpt lat="45.08468020482145" lon="9.961847555235563"><ele>37.0</ele><time>2026-03-22T11:17:33Z</time></trkpt><trkpt lat="45.0847724397849" lon="9.961813760484905"><ele>37.0</ele><time>2026-03-22T11:17:34Z</time></trkpt><trkpt lat="45.08486596945231" lon="9.96177872655966"><ele>37.0</ele><time>2026-03-22T11:17:35Z</time></trkpt><trkpt lat="45.08495942686786" lon="9.961744482848134"><ele>37.0</ele><time>2026-03-22T11:17:35.999Z</time></trkpt><trkpt lat="45.085051105427176" lon="9.961709682609387"><ele>37.2</ele><time>2026-03-22T11:17:36.999Z</time></trkpt><trkpt lat="45.085143654613866" lon="9.96167643114132"><ele>37.400000000000006</ele><time>2026-03-22T11:17:37.999Z</time></trkpt><trkpt lat="45.085236750849894" lon="9.961645440337607"><ele>37.599999999999994</ele><time>2026-03-22T11:17:38.999Z</time></trkpt><trkpt lat="45.08532847479709" lon="9.96161448019716"><ele>37.8</ele><time>2026-03-22T11:17:39.999Z</time></trkpt><trkpt lat="45.085420170315814" lon="9.961583440568225"><ele>38.0</ele><time>2026-03-22T11:17:40.999Z</time></trkpt><trkpt lat="45.08551093134751" lon="9.961551471197913"><ele>38.0</ele><time>2026-03-22T11:17:41.999Z</time></trkpt><trkpt lat="45.08559876048409" lon="9.961518000722307"><ele>38.0</ele><time>2026-03-22T11:17:42.999Z</time></trkpt><trkpt lat="45.08568675767217" lon="9.961485091869868"><ele>38.0</ele><time>2026-03-22T11:17:43.999Z</time></trkpt><trkpt lat="45.08577605926956" lon="9.961450634144198"><ele>38.0</ele><time>2026-03-22T11:17:44.999Z</time></trkpt><trkpt lat="45.08586378836751" lon="9.961423562817002"><ele>38.0</ele><time>2026-03-22T11:17:45.999Z</time></trkpt><trkpt lat="45.08595237925189" lon="9.961405490171574"><ele>37.83333333333333</ele><time>2026-03-22T11:17:46.999Z</time></trkpt><trkpt lat="45.086042566394255" lon="9.961396463705402"><ele>37.666666666666664</ele><time>2026-03-22T11:17:47.999Z</time></trkpt><trkpt lat="45.08613337219127" lon="9.961392684268159"><ele>37.5</ele><time>2026-03-22T11:17:48.999Z</time></trkpt><trkpt lat="45.086221411852186" lon="9.961391442029154"><ele>37.333333333333336</ele><time>2026-03-22T11:17:49.999Z</time></trkpt><trkpt lat="45.086312451124854" lon="9.961390522123141"><ele>37.16666666666667</ele><time>2026-03-22T11:17:50.999Z</time></trkpt><trkpt lat="45.08640149777815" lon="9.961388828974345"><ele>37.0</ele><time>2026-03-22T11:17:51.999Z</time></trkpt><trkpt lat="45.08649386036291" lon="9.961389490658574"><ele>37.0</ele><time>2026-03-22T11:17:52.999Z</time></trkpt><trkpt lat="45.08658423954905" lon="9.96139209506942"><ele>37.0</ele><time>2026-03-22T11:17:53.999Z</time></trkpt><trkpt lat="45.08666986883478" lon="9.961393169556576"><ele>37.0</ele><time>2026-03-22T11:17:54.999Z</time></trkpt><trkpt lat="45.086755367374245" lon="9.961393270507788"><ele>37.0</ele><time>2026-03-22T11:17:55.999Z</time></trkpt><trkpt lat="45.08684191996057" lon="9.961397701987396"><ele>37.0</ele><time>2026-03-22T11:17:56.999Z</time></trkpt><trkpt lat="45.08692841105844" lon="9.961405028407043"><ele>37.0</ele><time>2026-03-22T11:17:57.999Z</time></trkpt><trkpt lat="45.08701259978367" lon="9.9614124571322"><ele>37.0</ele><time>2026-03-22T11:17:58.999Z</time></trkpt><trkpt lat="45.08709500252236" lon="9.961425598448646"><ele>37.0</ele><time>2026-03-22T11:17:59.999Z</time></trkpt><trkpt lat="45.08717723636617" lon="9.961440207293919"><ele>37.0</ele><time>2026-03-22T11:18:00.999Z</time></trkpt><trkpt lat="45.08726039118087" lon="9.96145798658628"><ele>37.0</ele><time>2026-03-22T11:18:01.999Z</time></trkpt><trkpt lat="45.087344793070194" lon="9.961477485841312"><ele>37.0</ele><time>2026-03-22T11:18:02.999Z</time></trkpt><trkpt lat="45.08743190861683" lon="9.961497745781381"><ele>37.0</ele><time>2026-03-22T11:18:03.999Z</time></trkpt><trkpt lat="45.087517287554064" lon="9.961514361897962"><ele>37.16666666666667</ele><time>2026-03-22T11:18:04.999Z</time></trkpt><trkpt lat="45.087604309809926" lon="9.961536077128356"><ele>37.333333333333336</ele><time>2026-03-22T11:18:05.999Z</time></trkpt><trkpt lat="45.087692269410574" lon="9.96155576396051"><ele>37.5</ele><time>2026-03-22T11:18:06.999Z</time></trkpt><trkpt lat="45.08778062299141" lon="9.96157588964481"><ele>37.666666666666664</ele><time>2026-03-22T11:18:07.999Z</time></trkpt><trkpt lat="45.08786677304004" lon="9.96159074511954"><ele>37.83333333333333</ele><time>2026-03-22T11:18:08.999Z</time></trkpt><trkpt lat="45.08795240124421" lon="9.961604838338681"><ele>38.0</ele><time>2026-03-22T11:18:09.999Z</time></trkpt><trkpt lat="45.08803939173717" lon="9.961621413314997"><ele>38.0</ele><time>2026-03-22T11:18:10.999Z</time></trkpt><trkpt lat="45.08812438738354" lon="9.96163408957581"><ele>38.0</ele><time>2026-03-22T11:18:11.999Z</time></trkpt><trkpt lat="45.08821034251144" lon="9.961644020202545"><ele>38.0</ele><time>2026-03-22T11:18:12.999Z</time></trkpt><trkpt lat="45.08829339845305" lon="9.961659378554577"><ele>38.0</ele><time>2026-03-22T11:18:13.999Z</time></trkpt><trkpt lat="45.08837752108459" lon="9.961673408095928"><ele>38.0</ele><time>2026-03-22T11:18:14.999Z</time></trkpt><trkpt lat="45.088460412377955" lon="9.961683677875818"><ele>38.0</ele><time>2026-03-22T11:18:15.999Z</time></trkpt><trkpt lat="45.088544217224445" lon="9.961692929138788"><ele>37.5</ele><time>2026-03-22T11:18:16.999Z</time></trkpt><trkpt lat="45.088628962376525" lon="9.96170026245257"><ele>37.0</ele><time>2026-03-22T11:18:17.999Z</time></trkpt><trkpt lat="45.088711090385154" lon="9.961705095519973"><ele>36.5</ele><time>2026-03-22T11:18:18.999Z</time></trkpt><trkpt lat="45.08879343309665" lon="9.961710079204503"><ele>36.0</ele><time>2026-03-22T11:18:19.999Z</time></trkpt><trkpt lat="45.08887737897513" lon="9.961715111938728"><ele>35.5</ele><time>2026-03-22T11:18:20.999Z</time></trkpt><trkpt lat="45.08895960704817" lon="9.961720796171498"><ele>35.0</ele><time>2026-03-22T11:18:21.999Z</time></trkpt><trkpt lat="45.0890441262949" lon="9.961726347425918"><ele>35.166666666666664</ele><time>2026-03-22T11:18:22.999Z</time></trkpt><trkpt lat="45.089127392213456" lon="9.961732330388669"><ele>35.33333333333333</ele><time>2026-03-22T11:18:23.999Z</time></trkpt><trkpt lat="45.08921076358362" lon="9.961737735662936"><ele>35.5</ele><time>2026-03-22T11:18:24.999Z</time></trkpt><trkpt lat="45.08929401713998" lon="9.961742697945455"><ele>35.666666666666664</ele><time>2026-03-22T11:18:25.999Z</time></trkpt><trkpt lat="45.08937677796852" lon="9.961755600835827"><ele>35.833333333333336</ele><time>2026-03-22T11:18:26.999Z</time></trkpt><trkpt lat="45.08946022705316" lon="9.961775324701541"><ele>36.0</ele><time>2026-03-22T11:18:27.998Z</time></trkpt><trkpt lat="45.08954079516716" lon="9.961802419536223"><ele>36.0</ele><time>2026-03-22T11:18:28.998Z</time></trkpt><trkpt lat="45.089619789054964" lon="9.961836658869142"><ele>36.0</ele><time>2026-03-22T11:18:29.998Z</time></trkpt><trkpt lat="45.08969672501606" lon="9.961876875331187"><ele>36.0</ele><time>2026-03-22T11:18:30.998Z</time></trkpt><trkpt lat="45.089772722958315" lon="9.961920791043198"><ele>36.0</ele><time>2026-03-22T11:18:31.998Z</time></trkpt><trkpt lat="45.08984854092279" lon="9.961970068460065"><ele>36.0</ele><time>2026-03-22T11:18:32.998Z</time></trkpt><trkpt lat="45.089923230448655" lon="9.962024777889535"><ele>36.0</ele><time>2026-03-22T11:18:33.998Z</time></trkpt><trkpt lat="45.08999740986827" lon="9.962081704712308"><ele>36.166666666666664</ele><time>2026-03-22T11:18:34.998Z</time></trkpt><trkpt lat="45.09007093379466" lon="9.962140836841613"><ele>36.333333333333336</ele><time>2026-03-22T11:18:35.998Z</time></trkpt><trkpt lat="45.09013921736681" lon="9.962202757918927"><ele>36.5</ele><time>2026-03-22T11:18:36.998Z</time></trkpt><trkpt lat="45.090207878043614" lon="9.96226783610689"><ele>36.66666666666667</ele><time>2026-03-22T11:18:37.998Z</time></trkpt><trkpt lat="45.09027681238031" lon="9.962330735705653"><ele>36.833333333333336</ele><time>2026-03-22T11:18:38.998Z</time></trkpt><trkpt lat="45.09034370213242" lon="9.962396360469729"><ele>37.0</ele><time>2026-03-22T11:18:39.998Z</time></trkpt><trkpt lat="45.09041183549983" lon="9.962465223219414"><ele>37.0</ele><time>2026-03-22T11:18:40.998Z</time></trkpt><trkpt lat="45.09048012342478" lon="9.962533309995898"><ele>37.0</ele><time>2026-03-22T11:18:41.998Z</time></trkpt><trkpt lat="45.09054803628758" lon="9.96260006649923"><ele>37.0</ele><time>2026-03-22T11:18:42.998Z</time></trkpt><trkpt lat="45.09061624127774" lon="9.962667517116696"><ele>37.0</ele><time>2026-03-22T11:18:43.998Z</time></trkpt><trkpt lat="45.09068451135761" lon="9.96273545654884"><ele>37.0</ele><time>2026-03-22T11:18:44.998Z</time></trkpt><trkpt lat="45.09075150700976" lon="9.962804610382333"><ele>37.0</ele><time>2026-03-22T11:18:45.998Z</time></trkpt><trkpt lat="45.090817330269694" lon="9.962870508827484"><ele>37.0</ele><time>2026-03-22T11:18:46.998Z</time></trkpt><trkpt lat="45.09088413386881" lon="9.962938452392606"><ele>37.0</ele><time>2026-03-22T11:18:47.998Z</time></trkpt><trkpt lat="45.090951892946855" lon="9.963003287668057"><ele>37.0</ele><time>2026-03-22T11:18:48.998Z</time></trkpt><trkpt lat="45.09101855049737" lon="9.963071850620452"><ele>37.0</ele><time>2026-03-22T11:18:49.998Z</time></trkpt><trkpt lat="45.0910857371833" lon="9.963136602346344"><ele>37.0</ele><time>2026-03-22T11:18:50.998Z</time></trkpt><trkpt lat="45.091149705268144" lon="9.963203553357356"><ele>37.0</ele><time>2026-03-22T11:18:51.998Z</time></trkpt><trkpt lat="45.09121445340546" lon="9.96326771397826"><ele>37.0</ele><time>2026-03-22T11:18:52.998Z</time></trkpt><trkpt lat="45.0912811188972" lon="9.96334283303583"><ele>37.0</ele><time>2026-03-22T11:18:53.998Z</time></trkpt><trkpt lat="45.0913412308062" lon="9.963416014089972"><ele>37.0</ele><time>2026-03-22T11:18:54.998Z</time></trkpt><trkpt lat="45.091399856017695" lon="9.9634995560224"><ele>37.0</ele><time>2026-03-22T11:18:55.998Z</time></trkpt><trkpt lat="45.09145466905635" lon="9.96358834810511"><ele>37.0</ele><time>2026-03-22T11:18:56.998Z</time></trkpt><trkpt lat="45.091507956188615" lon="9.963678971002755"><ele>37.0</ele><time>2026-03-22T11:18:57.998Z</time></trkpt><trkpt lat="45.09156166785098" lon="9.963760491254941"><ele>37.16666666666667</ele><time>2026-03-22T11:18:58.998Z</time></trkpt><trkpt lat="45.091617410274516" lon="9.963846395077791"><ele>37.333333333333336</ele><time>2026-03-22T11:18:59.998Z</time></trkpt><trkpt lat="45.091678017387025" lon="9.963922707375959"><ele>37.5</ele><time>2026-03-22T11:19:00.998Z</time></trkpt><trkpt lat="45.091748379067575" lon="9.963984878953598"><ele>37.666666666666664</ele><time>2026-03-22T11:19:01.998Z</time></trkpt><trkpt lat="45.091824726072645" lon="9.964030529853158"><ele>37.83333333333333</ele><time>2026-03-22T11:19:02.998Z</time></trkpt><trkpt lat="45.09190114393659" lon="9.964076971253476"><ele>38.0</ele><time>2026-03-22T11:19:03.998Z</time></trkpt><trkpt lat="45.09197494198499" lon="9.964132138958739"><ele>38.0</ele><time>2026-03-22T11:19:04.998Z</time></trkpt><trkpt lat="45.09204429137583" lon="9.964193071518427"><ele>38.0</ele><time>2026-03-22T11:19:05.998Z</time></trkpt><trkpt lat="45.09210812104895" lon="9.964260234307217"><ele>38.0</ele><time>2026-03-22T11:19:06.998Z</time></trkpt><trkpt lat="45.09216263448004" lon="9.964337330900328"><ele>38.0</ele><time>2026-03-22T11:19:07.998Z</time></trkpt><trkpt lat="45.09220619236101" lon="9.964430822465024"><ele>38.0</ele><time>2026-03-22T11:19:08.998Z</time></trkpt><trkpt lat="45.09224048414889" lon="9.964529336453815"><ele>38.0</ele><time>2026-03-22T11:19:09.998Z</time></trkpt><trkpt lat="45.09225154959702" lon="9.964646828273034"><ele>37.83333333333333</ele><time>2026-03-22T11:19:10.998Z</time></trkpt><trkpt lat="45.09225631306043" lon="9.964760296841929"><ele>37.666666666666664</ele><time>2026-03-22T11:19:11.998Z</time></trkpt><trkpt lat="45.09226508960618" lon="9.96487434181412"><ele>37.5</ele><time>2026-03-22T11:19:12.998Z</time></trkpt><trkpt lat="45.09227865722305" lon="9.964984497215282"><ele>37.333333333333336</ele><time>2026-03-22T11:19:13.998Z</time></trkpt><trkpt lat="45.0922939618348" lon="9.96509980176451"><ele>37.16666666666667</ele><time>2026-03-22T11:19:14.998Z</time></trkpt><trkpt lat="45.09231062949576" lon="9.965212714306245"><ele>37.0</ele><time>2026-03-22T11:19:15.998Z</time></trkpt><trkpt lat="45.09232742842259" lon="9.965324306834894"><ele>36.833333333333336</ele><time>2026-03-22T11:19:16.998Z</time></trkpt><trkpt lat="45.09234381603536" lon="9.965437028754287"><ele>36.66666666666667</ele><time>2026-03-22T11:19:17.998Z</time></trkpt><trkpt lat="45.092360150941154" lon="9.965552874554282"><ele>36.5</ele><time>2026-03-22T11:19:18.998Z</time></trkpt><trkpt lat="45.09237742968845" lon="9.965669110048198"><ele>36.333333333333336</ele><time>2026-03-22T11:19:19.998Z</time></trkpt><trkpt lat="45.092396278791135" lon="9.965782545256523"><ele>36.166666666666664</ele><time>2026-03-22T11:19:20.997Z</time></trkpt><trkpt lat="45.09242030005195" lon="9.965893499218122"><ele>36.0</ele><time>2026-03-22T11:19:21.997Z</time></trkpt><trkpt lat="45.09244799520678" lon="9.966003771123688"><ele>36.333333333333336</ele><time>2026-03-22T11:19:22.997Z</time></trkpt><trkpt lat="45.09247937138408" lon="9.966116108188139"><ele>36.666666666666664</ele><time>2026-03-22T11:19:23.997Z</time></trkpt><trkpt lat="45.09250957176192" lon="9.9662274300141"><ele>37.0</ele><time>2026-03-22T11:19:25Z</time></trkpt><trkpt lat="45.09254072740495" lon="9.966335048910839"><ele>37.33333333333333</ele><time>2026-03-22T11:19:26Z</time></trkpt><trkpt lat="45.092572922765896" lon="9.966442789796801"><ele>37.666666666666664</ele><time>2026-03-22T11:19:27Z</time></trkpt><trkpt lat="45.092604933230426" lon="9.966549624976073"><ele>38.0</ele><time>2026-03-22T11:19:28Z</time></trkpt><trkpt lat="45.092642105152024" lon="9.966655502496826"><ele>37.83333333333333</ele><time>2026-03-22T11:19:29Z</time></trkpt><trkpt lat="45.09268066768597" lon="9.966759163078745"><ele>37.666666666666664</ele><time>2026-03-22T11:19:30Z</time></trkpt><trkpt lat="45.09272039590221" lon="9.966863942841595"><ele>37.5</ele><time>2026-03-22T11:19:31Z</time></trkpt><trkpt lat="45.0927628085588" lon="9.966969438230375"><ele>37.333333333333336</ele><time>2026-03-22T11:19:32Z</time></trkpt><trkpt lat="45.09280265283833" lon="9.967071285524522"><ele>37.16666666666667</ele><time>2026-03-22T11:19:33Z</time></trkpt><trkpt lat="45.09284080399864" lon="9.967173643420994"><ele>37.0</ele><time>2026-03-22T11:19:34Z</time></trkpt><trkpt lat="45.0928783858378" lon="9.967281216239519"><ele>37.0</ele><time>2026-03-22T11:19:35Z</time></trkpt><trkpt lat="45.092917204957054" lon="9.967389749202614"><ele>37.0</ele><time>2026-03-22T11:19:36Z</time></trkpt><trkpt lat="45.092957607352524" lon="9.967497557676605"><ele>37.0</ele><time>2026-03-22T11:19:37Z</time></trkpt><trkpt lat="45.09299927599817" lon="9.967602789831282"><ele>37.0</ele><time>2026-03-22T11:19:38Z</time></trkpt><trkpt lat="45.09303900640462" lon="9.967706987022137"><ele>37.0</ele><time>2026-03-22T11:19:39Z</time></trkpt><trkpt lat="45.09307892314881" lon="9.967809010278327"><ele>37.0</ele><time>2026-03-22T11:19:39.999Z</time></trkpt><trkpt lat="45.09311814021326" lon="9.967908829351009"><ele>37.0</ele><time>2026-03-22T11:19:40.999Z</time></trkpt><trkpt lat="45.09315336453497" lon="9.96800628120266"><ele>37.0</ele><time>2026-03-22T11:19:41.999Z</time></trkpt><trkpt lat="45.09319168702286" lon="9.968105275056343"><ele>37.0</ele><time>2026-03-22T11:19:42.999Z</time></trkpt><trkpt lat="45.09323229950315" lon="9.968205439190672"><ele>37.0</ele><time>2026-03-22T11:19:43.999Z</time></trkpt><trkpt lat="45.093270649756874" lon="9.968302894414133"><ele>37.0</ele><time>2026-03-22T11:19:44.999Z</time></trkpt><trkpt lat="45.09330628061601" lon="9.968399819437154"><ele>37.0</ele><time>2026-03-22T11:19:45.999Z</time></trkpt><trkpt lat="45.09334463667365" lon="9.968498848974667"><ele>37.0</ele><time>2026-03-22T11:19:46.999Z</time></trkpt><trkpt lat="45.093380637173766" lon="9.968596977010844"><ele>37.0</ele><time>2026-03-22T11:19:47.999Z</time></trkpt><trkpt lat="45.09341902131968" lon="9.968696628454351"><ele>37.0</ele><time>2026-03-22T11:19:48.999Z</time></trkpt><trkpt lat="45.09345796437605" lon="9.96879677375334"><ele>37.0</ele><time>2026-03-22T11:19:49.999Z</time></trkpt><trkpt lat="45.0934964802911" lon="9.968899245313594"><ele>37.0</ele><time>2026-03-22T11:19:50.999Z</time></trkpt><trkpt lat="45.09353455193299" lon="9.969004119053979"><ele>37.0</ele><time>2026-03-22T11:19:51.999Z</time></trkpt><trkpt lat="45.09357478751032" lon="9.969103183621272"><ele>36.66666666666667</ele><time>2026-03-22T11:19:52.999Z</time></trkpt><trkpt lat="45.093615309147076" lon="9.969209059990472"><ele>36.333333333333336</ele><time>2026-03-22T11:19:53.999Z</time></trkpt><trkpt lat="45.093654880674784" lon="9.969314136283417"><ele>36.0</ele><time>2026-03-22T11:19:54.999Z</time></trkpt><trkpt lat="45.0936955635893" lon="9.969417687349168"><ele>35.666666666666664</ele><time>2026-03-22T11:19:55.999Z</time></trkpt><trkpt lat="45.09373410322784" lon="9.969523838654393"><ele>35.33333333333333</ele><time>2026-03-22T11:19:56.999Z</time></trkpt><trkpt lat="45.0937743676282" lon="9.969630318522714"><ele>35.0</ele><time>2026-03-22T11:19:57.999Z</time></trkpt><trkpt lat="45.09381497316371" lon="9.969739096626457"><ele>35.0</ele><time>2026-03-22T11:19:58.999Z</time></trkpt><trkpt lat="45.09385497689042" lon="9.969844375328003"><ele>35.0</ele><time>2026-03-22T11:19:59.999Z</time></trkpt><trkpt lat="45.09389714707581" lon="9.969947717732058"><ele>35.0</ele><time>2026-03-22T11:20:00.999Z</time></trkpt><trkpt lat="45.09393530230475" lon="9.970049862315172"><ele>35.0</ele><time>2026-03-22T11:20:01.999Z</time></trkpt><trkpt lat="45.093974297179926" lon="9.970152805318934"><ele>35.0</ele><time>2026-03-22T11:20:02.999Z</time></trkpt><trkpt lat="45.09401330899575" lon="9.970253912704896"><ele>35.0</ele><time>2026-03-22T11:20:03.999Z</time></trkpt><trkpt lat="45.09405390137436" lon="9.970358182681913"><ele>35.0</ele><time>2026-03-22T11:20:04.999Z</time></trkpt><trkpt lat="45.09409297044544" lon="9.970462374217837"><ele>35.0</ele><time>2026-03-22T11:20:05.999Z</time></trkpt><trkpt lat="45.09413227914569" lon="9.970562058007683"><ele>35.0</ele><time>2026-03-22T11:20:06.999Z</time></trkpt><trkpt lat="45.09417109507608" lon="9.970665981371853"><ele>35.0</ele><time>2026-03-22T11:20:07.999Z</time></trkpt><trkpt lat="45.09421053394238" lon="9.970766765396645"><ele>35.0</ele><time>2026-03-22T11:20:08.999Z</time></trkpt><trkpt lat="45.09425006824521" lon="9.970868274035677"><ele>35.0</ele><time>2026-03-22T11:20:09.999Z</time></trkpt><trkpt lat="45.09429038745955" lon="9.970967132888227"><ele>35.0</ele><time>2026-03-22T11:20:10.999Z</time></trkpt><trkpt lat="45.09433062784736" lon="9.97106595631433"><ele>35.0</ele><time>2026-03-22T11:20:11.999Z</time></trkpt><trkpt lat="45.09436966119364" lon="9.971162284158002"><ele>35.0</ele><time>2026-03-22T11:20:12.999Z</time></trkpt><trkpt lat="45.09440838344807" lon="9.971265466077696"><ele>35.0</ele><time>2026-03-22T11:20:13.999Z</time></trkpt><trkpt lat="45.09444511609182" lon="9.971360627429565"><ele>35.0</ele><time>2026-03-22T11:20:14.999Z</time></trkpt><trkpt lat="45.09448497243849" lon="9.971459032344251"><ele>35.0</ele><time>2026-03-22T11:20:15.999Z</time></trkpt><trkpt lat="45.09452447466566" lon="9.971557086059418"><ele>35.0</ele><time>2026-03-22T11:20:16.999Z</time></trkpt><trkpt lat="45.09456240941595" lon="9.97165490113659"><ele>35.0</ele><time>2026-03-22T11:20:17.999Z</time></trkpt><trkpt lat="45.09460220360433" lon="9.971752819210238"><ele>35.0</ele><time>2026-03-22T11:20:18.999Z</time></trkpt><trkpt lat="45.09464191289042" lon="9.971853515452699"><ele>35.0</ele><time>2026-03-22T11:20:19.999Z</time></trkpt><trkpt lat="45.094678925076146" lon="9.971948109917493"><ele>35.0</ele><time>2026-03-22T11:20:20.999Z</time></trkpt><trkpt lat="45.09471658908758" lon="9.972046610803645"><ele>35.0</ele><time>2026-03-22T11:20:21.999Z</time></trkpt><trkpt lat="45.0947558450744" lon="9.972144703609827"><ele>35.0</ele><time>2026-03-22T11:20:22.999Z</time></trkpt><trkpt lat="45.09479550814716" lon="9.972243863980438"><ele>35.0</ele><time>2026-03-22T11:20:23.999Z</time></trkpt><trkpt lat="45.09483712428928" lon="9.97234805554351"><ele>35.0</ele><time>2026-03-22T11:20:24.999Z</time></trkpt><trkpt lat="45.09487685737554" lon="9.972448074733657"><ele>35.0</ele><time>2026-03-22T11:20:25.999Z</time></trkpt><trkpt lat="45.09492109226712" lon="9.972555006132731"><ele>35.0</ele><time>2026-03-22T11:20:26.999Z</time></trkpt><trkpt lat="45.094963700552775" lon="9.972657110866564"><ele>35.0</ele><time>2026-03-22T11:20:27.999Z</time></trkpt><trkpt lat="45.09500209647991" lon="9.972757388939756"><ele>35.33333333333333</ele><time>2026-03-22T11:20:28.999Z</time></trkpt><trkpt lat="45.095044766694734" lon="9.972862452468457"><ele>35.666666666666664</ele><time>2026-03-22T11:20:29.999Z</time></trkpt><trkpt lat="45.09508314963236" lon="9.972964037985932"><ele>36.0</ele><time>2026-03-22T11:20:30.999Z</time></trkpt><trkpt lat="45.09512356546369" lon="9.973066390128979"><ele>36.333333333333336</ele><time>2026-03-22T11:20:31.999Z</time></trkpt><trkpt lat="45.095159161690226" lon="9.973172947196968"><ele>36.66666666666667</ele><time>2026-03-22T11:20:32.998Z</time></trkpt><trkpt lat="45.0951954269669" lon="9.973275514621216"><ele>37.0</ele><time>2026-03-22T11:20:33.998Z</time></trkpt><trkpt lat="45.09523367623014" lon="9.973378785094836"><ele>37.16666666666667</ele><time>2026-03-22T11:20:34.998Z</time></trkpt><trkpt lat="45.09527055377031" lon="9.973476540673985"><ele>37.333333333333336</ele><time>2026-03-22T11:20:35.998Z</time></trkpt><trkpt lat="45.095307811285785" lon="9.973575359089047"><ele>37.5</ele><time>2026-03-22T11:20:36.998Z</time></trkpt><trkpt lat="45.095344855226315" lon="9.973678313052307"><ele>37.666666666666664</ele><time>2026-03-22T11:20:37.998Z</time></trkpt><trkpt lat="45.09538117041985" lon="9.973779943845582"><ele>37.83333333333333</ele><time>2026-03-22T11:20:38.998Z</time></trkpt><trkpt lat="45.09542027207752" lon="9.973880344314324"><ele>38.0</ele><time>2026-03-22T11:20:39.998Z</time></trkpt><trkpt lat="45.09545990598463" lon="9.97397461388576"><ele>38.0</ele><time>2026-03-22T11:20:40.998Z</time></trkpt><trkpt lat="45.09549986244935" lon="9.974073067909512"><ele>38.0</ele><time>2026-03-22T11:20:41.998Z</time></trkpt><trkpt lat="45.09553886958835" lon="9.97417170155574"><ele>38.0</ele><time>2026-03-22T11:20:42.998Z</time></trkpt><trkpt lat="45.09557858084214" lon="9.9742687466369"><ele>38.0</ele><time>2026-03-22T11:20:43.998Z</time></trkpt><trkpt lat="45.09561651681355" lon="9.97436538097323"><ele>38.0</ele><time>2026-03-22T11:20:44.998Z</time></trkpt><trkpt lat="45.09565449546062" lon="9.974463775694517"><ele>38.0</ele><time>2026-03-22T11:20:45.998Z</time></trkpt><trkpt lat="45.095693804818886" lon="9.974558755351422"><ele>38.0</ele><time>2026-03-22T11:20:46.998Z</time></trkpt><trkpt lat="45.09573531180395" lon="9.974652264351537"><ele>38.0</ele><time>2026-03-22T11:20:47.998Z</time></trkpt><trkpt lat="45.09577315286632" lon="9.974745690587591"><ele>38.0</ele><time>2026-03-22T11:20:48.998Z</time></trkpt><trkpt lat="45.095814188217155" lon="9.974843098341283"><ele>38.0</ele><time>2026-03-22T11:20:49.998Z</time></trkpt><trkpt lat="45.09585265421349" lon="9.974935632241408"><ele>38.0</ele><time>2026-03-22T11:20:50.998Z</time></trkpt><trkpt lat="45.095891988694646" lon="9.97502820407104"><ele>38.0</ele><time>2026-03-22T11:20:51.998Z</time></trkpt><trkpt lat="45.09593207330021" lon="9.975116012250512"><ele>38.0</ele><time>2026-03-22T11:20:52.998Z</time></trkpt><trkpt lat="45.095973758222" lon="9.975205065037926"><ele>38.0</ele><time>2026-03-22T11:20:53.998Z</time></trkpt><trkpt lat="45.09601698317281" lon="9.975291229220257"><ele>38.0</ele><time>2026-03-22T11:20:54.998Z</time></trkpt><trkpt lat="45.09605944638442" lon="9.975381861636185"><ele>38.0</ele><time>2026-03-22T11:20:55.998Z</time></trkpt><trkpt lat="45.09610172340771" lon="9.975469570716697"><ele>38.0</ele><time>2026-03-22T11:20:56.998Z</time></trkpt><trkpt lat="45.09614886594984" lon="9.975556560355496"><ele>38.0</ele><time>2026-03-22T11:20:57.998Z</time></trkpt><trkpt lat="45.09619872651725" lon="9.975641628596426"><ele>38.0</ele><time>2026-03-22T11:20:58.998Z</time></trkpt><trkpt lat="45.09624797469818" lon="9.975726705009501"><ele>38.0</ele><time>2026-03-22T11:20:59.998Z</time></trkpt><trkpt lat="45.09630238057646" lon="9.975812706360927"><ele>38.0</ele><time>2026-03-22T11:21:00.998Z</time></trkpt><trkpt lat="45.09635525856624" lon="9.975894572482076"><ele>38.0</ele><time>2026-03-22T11:21:01.998Z</time></trkpt><trkpt lat="45.09640913846133" lon="9.975977870737204"><ele>38.0</ele><time>2026-03-22T11:21:02.998Z</time></trkpt><trkpt lat="45.09646292851606" lon="9.976063107834737"><ele>38.0</ele><time>2026-03-22T11:21:03.998Z</time></trkpt><trkpt lat="45.09651923971253" lon="9.976149379656595"><ele>38.0</ele><time>2026-03-22T11:21:04.998Z</time></trkpt><trkpt lat="45.09657465980001" lon="9.976235902521143"><ele>38.0</ele><time>2026-03-22T11:21:05.998Z</time></trkpt><trkpt lat="45.09662356432776" lon="9.97632665020086"><ele>38.0</ele><time>2026-03-22T11:21:06.998Z</time></trkpt><trkpt lat="45.09667961315676" lon="9.976406910811283"><ele>38.0</ele><time>2026-03-22T11:21:07.998Z</time></trkpt><trkpt lat="45.09673777079916" lon="9.97649073597717"><ele>38.0</ele><time>2026-03-22T11:21:08.998Z</time></trkpt><trkpt lat="45.09679536669447" lon="9.976574338480095"><ele>38.0</ele><time>2026-03-22T11:21:09.998Z</time></trkpt><trkpt lat="45.09684953956687" lon="9.976662233110131"><ele>38.166666666666664</ele><time>2026-03-22T11:21:10.998Z</time></trkpt><trkpt lat="45.09690615329166" lon="9.97674717307038"><ele>38.33333333333333</ele><time>2026-03-22T11:21:11.998Z</time></trkpt><trkpt lat="45.09696132101421" lon="9.976831393045641"><ele>38.5</ele><time>2026-03-22T11:21:12.998Z</time></trkpt><trkpt lat="45.097016045787804" lon="9.976914718692164"><ele>38.666666666666664</ele><time>2026-03-22T11:21:13.998Z</time></trkpt><trkpt lat="45.097069894910824" lon="9.976999092683695"><ele>38.833333333333336</ele><time>2026-03-22T11:21:14.998Z</time></trkpt><trkpt lat="45.09712418252653" lon="9.977084618915686"><ele>39.0</ele><time>2026-03-22T11:21:15.998Z</time></trkpt><trkpt lat="45.09717781422968" lon="9.977169180416835"><ele>39.0</ele><time>2026-03-22T11:21:16.998Z</time></trkpt><trkpt lat="45.09723139201423" lon="9.977253024429295"><ele>39.0</ele><time>2026-03-22T11:21:17.998Z</time></trkpt><trkpt lat="45.097289864330506" lon="9.977332482072239"><ele>39.0</ele><time>2026-03-22T11:21:18.998Z</time></trkpt><trkpt lat="45.09734839305546" lon="9.977408394672725"><ele>39.0</ele><time>2026-03-22T11:21:19.998Z</time></trkpt><trkpt lat="45.09740728421778" lon="9.977488096907866"><ele>39.0</ele><time>2026-03-22T11:21:20.998Z</time></trkpt><trkpt lat="45.09746303153067" lon="9.977574399212"><ele>39.0</ele><time>2026-03-22T11:21:21.998Z</time></trkpt><trkpt lat="45.09752224973717" lon="9.97766088840792"><ele>38.666666666666664</ele><time>2026-03-22T11:21:22.998Z</time></trkpt><trkpt lat="45.09757859080139" lon="9.97775099823066"><ele>38.333333333333336</ele><time>2026-03-22T11:21:23.998Z</time></trkpt><trkpt lat="45.09763778467026" lon="9.977837683878313"><ele>38.0</ele><time>2026-03-22T11:21:24.998Z</time></trkpt><trkpt lat="45.09769500229882" lon="9.977926473990276"><ele>37.66666666666667</ele><time>2026-03-22T11:21:25.997Z</time></trkpt><trkpt lat="45.09775292004416" lon="9.97801296352961"><ele>37.333333333333336</ele><time>2026-03-22T11:21:26.997Z</time></trkpt><trkpt lat="45.097810540955585" lon="9.978104541346852"><ele>37.0</ele><time>2026-03-22T11:21:27.997Z</time></trkpt><trkpt lat="45.09786763444268" lon="9.978191881818047"><ele>37.0</ele><time>2026-03-22T11:21:28.997Z</time></trkpt><trkpt lat="45.09792782784989" lon="9.978278273778667"><ele>37.0</ele><time>2026-03-22T11:21:29.999Z</time></trkpt><trkpt lat="45.097987156401345" lon="9.97836219964658"><ele>37.0</ele><time>2026-03-22T11:21:30.999Z</time></trkpt><trkpt lat="45.09805061710559" lon="9.978440182462437"><ele>37.0</ele><time>2026-03-22T11:21:31.999Z</time></trkpt><trkpt lat="45.09811296008117" lon="9.97851740542484"><ele>37.0</ele><time>2026-03-22T11:21:32.999Z</time></trkpt><trkpt lat="45.098175074446864" lon="9.97859807743728"><ele>37.0</ele><time>2026-03-22T11:21:33.999Z</time></trkpt><trkpt lat="45.09824032079105" lon="9.978677843037502"><ele>37.0</ele><time>2026-03-22T11:21:34.999Z</time></trkpt><trkpt lat="45.09830458224491" lon="9.978753298820305"><ele>37.0</ele><time>2026-03-22T11:21:35.999Z</time></trkpt><trkpt lat="45.09837157230744" lon="9.978825229794314"><ele>37.0</ele><time>2026-03-22T11:21:36.999Z</time></trkpt><trkpt lat="45.09843980799365" lon="9.978893307766652"><ele>37.0</ele><time>2026-03-22T11:21:37.999Z</time></trkpt><trkpt lat="45.09850918177741" lon="9.978955336005619"><ele>37.0</ele><time>2026-03-22T11:21:38.999Z</time></trkpt><trkpt lat="45.09857904875689" lon="9.979018725239657"><ele>37.0</ele><time>2026-03-22T11:21:39.999Z</time></trkpt><trkpt lat="45.098649349197565" lon="9.979074126217352"><ele>37.0</ele><time>2026-03-22T11:21:40.999Z</time></trkpt><trkpt lat="45.098724311174365" lon="9.979121008392589"><ele>37.0</ele><time>2026-03-22T11:21:41.999Z</time></trkpt><trkpt lat="45.09879789089407" lon="9.979171350186885"><ele>37.0</ele><time>2026-03-22T11:21:43Z</time></trkpt><trkpt lat="45.098872047655476" lon="9.979220408846432"><ele>37.0</ele><time>2026-03-22T11:21:44Z</time></trkpt><trkpt lat="45.09894912136176" lon="9.979267780537382"><ele>37.0</ele><time>2026-03-22T11:21:45Z</time></trkpt><trkpt lat="45.099023853468935" lon="9.979308423289854"><ele>37.0</ele><time>2026-03-22T11:21:46Z</time></trkpt><trkpt lat="45.099099255719565" lon="9.979352153710973"><ele>36.833333333333336</ele><time>2026-03-22T11:21:47Z</time></trkpt><trkpt lat="45.09917695578633" lon="9.97938839669809"><ele>36.66666666666667</ele><time>2026-03-22T11:21:48Z</time></trkpt><trkpt lat="45.099253904609704" lon="9.97942781835122"><ele>36.5</ele><time>2026-03-22T11:21:49Z</time></trkpt><trkpt lat="45.09933092913231" lon="9.979466105993914"><ele>36.333333333333336</ele><time>2026-03-22T11:21:50Z</time></trkpt><trkpt lat="45.099410913066755" lon="9.979501984858143"><ele>36.166666666666664</ele><time>2026-03-22T11:21:51Z</time></trkpt><trkpt lat="45.09948887675819" lon="9.979532380165283"><ele>36.0</ele><time>2026-03-22T11:21:52Z</time></trkpt><trkpt lat="45.09956860929375" lon="9.979569932376014"><ele>36.0</ele><time>2026-03-22T11:21:53Z</time></trkpt><trkpt lat="45.09964808282854" lon="9.979607568776277"><ele>36.0</ele><time>2026-03-22T11:21:54Z</time></trkpt><trkpt lat="45.09972942497976" lon="9.97964496606522"><ele>36.0</ele><time>2026-03-22T11:21:55Z</time></trkpt><trkpt lat="45.09981206692972" lon="9.979683785320212"><ele>36.0</ele><time>2026-03-22T11:21:56Z</time></trkpt><trkpt lat="45.09989379584089" lon="9.979717801705371"><ele>36.0</ele><time>2026-03-22T11:21:57Z</time></trkpt><trkpt lat="45.099977642018175" lon="9.979755299538674"><ele>36.0</ele><time>2026-03-22T11:21:58Z</time></trkpt><trkpt lat="45.1000592590603" lon="9.979792322987876"><ele>36.0</ele><time>2026-03-22T11:21:59Z</time></trkpt><trkpt lat="45.10014287903701" lon="9.97983005451241"><ele>36.0</ele><time>2026-03-22T11:22:00Z</time></trkpt><trkpt lat="45.100225636552246" lon="9.979864633804599"><ele>36.0</ele><time>2026-03-22T11:22:01Z</time></trkpt><trkpt lat="45.10030679718738" lon="9.979901876126176"><ele>36.0</ele><time>2026-03-22T11:22:02Z</time></trkpt><trkpt lat="45.10038958537183" lon="9.979937557738383"><ele>36.0</ele><time>2026-03-22T11:22:03Z</time></trkpt><trkpt lat="45.10046996511735" lon="9.979976776456999"><ele>36.0</ele><time>2026-03-22T11:22:04Z</time></trkpt><trkpt lat="45.10055106923605" lon="9.980009900411854"><ele>36.333333333333336</ele><time>2026-03-22T11:22:05Z</time></trkpt><trkpt lat="45.10063007202303" lon="9.980045758564529"><ele>36.666666666666664</ele><time>2026-03-22T11:22:06Z</time></trkpt><trkpt lat="45.100708172898855" lon="9.980079829434297"><ele>37.0</ele><time>2026-03-22T11:22:07Z</time></trkpt><trkpt lat="45.100787996249245" lon="9.980114325538787"><ele>37.33333333333333</ele><time>2026-03-22T11:22:08Z</time></trkpt><trkpt lat="45.100867130645156" lon="9.980150058050206"><ele>37.666666666666664</ele><time>2026-03-22T11:22:09Z</time></trkpt><trkpt lat="45.10094469104721" lon="9.980185975228004"><ele>38.0</ele><time>2026-03-22T11:22:10Z</time></trkpt><trkpt lat="45.10102038985154" lon="9.980219699339314"><ele>38.166666666666664</ele><time>2026-03-22T11:22:11Z</time></trkpt><trkpt lat="45.101095179728816" lon="9.980251361310405"><ele>38.33333333333333</ele><time>2026-03-22T11:22:12Z</time></trkpt><trkpt lat="45.10117247064633" lon="9.980283731535541"><ele>38.5</ele><time>2026-03-22T11:22:13Z</time></trkpt><trkpt lat="45.10124736633984" lon="9.980319188930823"><ele>38.666666666666664</ele><time>2026-03-22T11:22:14Z</time></trkpt><trkpt lat="45.10132278153294" lon="9.980354028181978"><ele>38.833333333333336</ele><time>2026-03-22T11:22:15Z</time></trkpt><trkpt lat="45.10140019915075" lon="9.98038806659976"><ele>39.0</ele><time>2026-03-22T11:22:16Z</time></trkpt><trkpt lat="45.10147482061517" lon="9.98042178070844"><ele>39.0</ele><time>2026-03-22T11:22:17Z</time></trkpt><trkpt lat="45.10154938769547" lon="9.98045896376997"><ele>39.0</ele><time>2026-03-22T11:22:18Z</time></trkpt><trkpt lat="45.10162390254954" lon="9.980494457555025"><ele>39.0</ele><time>2026-03-22T11:22:19Z</time></trkpt><trkpt lat="45.1016988188907" lon="9.980528338967236"><ele>39.0</ele><time>2026-03-22T11:22:20Z</time></trkpt><trkpt lat="45.101773955253044" lon="9.98056649827863"><ele>39.0</ele><time>2026-03-22T11:22:21Z</time></trkpt><trkpt lat="45.101848605625484" lon="9.980604930151177"><ele>39.0</ele><time>2026-03-22T11:22:22Z</time></trkpt><trkpt lat="45.10192077638662" lon="9.980646598932687"><ele>39.0</ele><time>2026-03-22T11:22:23Z</time></trkpt><trkpt lat="45.10199116983126" lon="9.980690410051373"><ele>39.0</ele><time>2026-03-22T11:22:24Z</time></trkpt><trkpt lat="45.10206280137524" lon="9.980737323506663"><ele>39.0</ele><time>2026-03-22T11:22:25Z</time></trkpt><trkpt lat="45.102132038233364" lon="9.980783962153302"><ele>39.0</ele><time>2026-03-22T11:22:26Z</time></trkpt><trkpt lat="45.10220061858838" lon="9.980835869213516"><ele>39.0</ele><time>2026-03-22T11:22:27Z</time></trkpt><trkpt lat="45.10226385948092" lon="9.980892281761564"><ele>39.0</ele><time>2026-03-22T11:22:28Z</time></trkpt><trkpt lat="45.1023285854701" lon="9.980950723870107"><ele>39.0</ele><time>2026-03-22T11:22:29Z</time></trkpt><trkpt lat="45.10239284171727" lon="9.981012345925569"><ele>39.0</ele><time>2026-03-22T11:22:30Z</time></trkpt><trkpt lat="45.102451708082185" lon="9.981077884552121"><ele>39.0</ele><time>2026-03-22T11:22:31Z</time></trkpt><trkpt lat="45.10251153399901" lon="9.981145032933966"><ele>39.0</ele><time>2026-03-22T11:22:32Z</time></trkpt><trkpt lat="45.102570936860964" lon="9.981210987135032"><ele>39.0</ele><time>2026-03-22T11:22:33Z</time></trkpt><trkpt lat="45.102626821701584" lon="9.981280590422356"><ele>39.0</ele><time>2026-03-22T11:22:34Z</time></trkpt><trkpt lat="45.10268348379987" lon="9.98135287642099"><ele>39.0</ele><time>2026-03-22T11:22:34.999Z</time></trkpt><trkpt lat="45.102736566711236" lon="9.981426587023833"><ele>39.0</ele><time>2026-03-22T11:22:35.999Z</time></trkpt><trkpt lat="45.102788827653214" lon="9.981506376681097"><ele>39.0</ele><time>2026-03-22T11:22:36.999Z</time></trkpt><trkpt lat="45.102839032710875" lon="9.981581375358735"><ele>39.0</ele><time>2026-03-22T11:22:37.999Z</time></trkpt><trkpt lat="45.102890231245176" lon="9.981664323629992"><ele>39.0</ele><time>2026-03-22T11:22:38.999Z</time></trkpt><trkpt lat="45.10293814069994" lon="9.981746428943168"><ele>39.0</ele><time>2026-03-22T11:22:39.999Z</time></trkpt><trkpt lat="45.10298630416626" lon="9.981830395023888"><ele>39.0</ele><time>2026-03-22T11:22:40.999Z</time></trkpt><trkpt lat="45.10303256336935" lon="9.981917305310539"><ele>39.0</ele><time>2026-03-22T11:22:41.999Z</time></trkpt><trkpt lat="45.103075389600015" lon="9.98200567308524"><ele>39.0</ele><time>2026-03-22T11:22:42.999Z</time></trkpt><trkpt lat="45.1031169840334" lon="9.98209610671503"><ele>39.0</ele><time>2026-03-22T11:22:43.999Z</time></trkpt><trkpt lat="45.10315696020779" lon="9.982187300502748"><ele>39.0</ele><time>2026-03-22T11:22:44.999Z</time></trkpt><trkpt lat="45.103197266119366" lon="9.98228398999962"><ele>39.0</ele><time>2026-03-22T11:22:45.999Z</time></trkpt><trkpt lat="45.10323913873554" lon="9.982375903180037"><ele>38.666666666666664</ele><time>2026-03-22T11:22:46.999Z</time></trkpt><trkpt lat="45.10327585567688" lon="9.98247116322159"><ele>38.333333333333336</ele><time>2026-03-22T11:22:47.999Z</time></trkpt><trkpt lat="45.10331373985875" lon="9.982565306095278"><ele>38.0</ele><time>2026-03-22T11:22:48.999Z</time></trkpt><trkpt lat="45.1033498281085" lon="9.982656247885624"><ele>37.66666666666667</ele><time>2026-03-22T11:22:49.999Z</time></trkpt><trkpt lat="45.10338896087934" lon="9.98274618325562"><ele>37.333333333333336</ele><time>2026-03-22T11:22:50.999Z</time></trkpt><trkpt lat="45.103429030439564" lon="9.982840867135764"><ele>37.0</ele><time>2026-03-22T11:22:51.999Z</time></trkpt><trkpt lat="45.10346604945637" lon="9.982936326719853"><ele>37.0</ele><time>2026-03-22T11:22:52.999Z</time></trkpt><trkpt lat="45.103503766408075" lon="9.983030209509236"><ele>37.0</ele><time>2026-03-22T11:22:53.999Z</time></trkpt><trkpt lat="45.10354108692274" lon="9.983128457245492"><ele>37.0</ele><time>2026-03-22T11:22:54.999Z</time></trkpt><trkpt lat="45.10358280227997" lon="9.983223344330057"><ele>37.0</ele><time>2026-03-22T11:22:55.999Z</time></trkpt><trkpt lat="45.10362380435668" lon="9.983324527292131"><ele>37.0</ele><time>2026-03-22T11:22:56.999Z</time></trkpt><trkpt lat="45.103668096127635" lon="9.983425235327193"><ele>37.0</ele><time>2026-03-22T11:22:57.999Z</time></trkpt><trkpt lat="45.10370880758459" lon="9.98353137201312"><ele>37.333333333333336</ele><time>2026-03-22T11:22:58.999Z</time></trkpt><trkpt lat="45.10375251252335" lon="9.983636920047884"><ele>37.66666666666667</ele><time>2026-03-22T11:22:59.999Z</time></trkpt><trkpt lat="45.10379352156562" lon="9.983743103569976"><ele>38.0</ele><time>2026-03-22T11:23:00.999Z</time></trkpt><trkpt lat="45.10383299221493" lon="9.983848112850373"><ele>38.333333333333336</ele><time>2026-03-22T11:23:01.999Z</time></trkpt><trkpt lat="45.103877094196974" lon="9.983956166922901"><ele>38.666666666666664</ele><time>2026-03-22T11:23:02.999Z</time></trkpt><trkpt lat="45.10392187113343" lon="9.98406307320394"><ele>39.0</ele><time>2026-03-22T11:23:03.999Z</time></trkpt><trkpt lat="45.10396721704421" lon="9.984166642165917"><ele>39.0</ele><time>2026-03-22T11:23:04.999Z</time></trkpt><trkpt lat="45.10401252136681" lon="9.984275992518349"><ele>39.0</ele><time>2026-03-22T11:23:05.999Z</time></trkpt><trkpt lat="45.10405793624205" lon="9.984383999790767"><ele>39.0</ele><time>2026-03-22T11:23:06.999Z</time></trkpt><trkpt lat="45.10410565062384" lon="9.984494211864826"><ele>39.0</ele><time>2026-03-22T11:23:07.999Z</time></trkpt><trkpt lat="45.104152044310595" lon="9.984604649756378"><ele>39.0</ele><time>2026-03-22T11:23:08.999Z</time></trkpt><trkpt lat="45.10419679127919" lon="9.984717381020493"><ele>38.6</ele><time>2026-03-22T11:23:09.999Z</time></trkpt><trkpt lat="45.1042416158563" lon="9.98483067020282"><ele>38.2</ele><time>2026-03-22T11:23:10.999Z</time></trkpt><trkpt lat="45.104287521504936" lon="9.984945361736273"><ele>37.800000000000004</ele><time>2026-03-22T11:23:11.999Z</time></trkpt><trkpt lat="45.10433397028805" lon="9.985056788125537"><ele>37.4</ele><time>2026-03-22T11:23:12.999Z</time></trkpt><trkpt lat="45.10438050022057" lon="9.985170998889737"><ele>37.0</ele><time>2026-03-22T11:23:13.999Z</time></trkpt><trkpt lat="45.10442841685002" lon="9.98528575780052"><ele>37.0</ele><time>2026-03-22T11:23:14.999Z</time></trkpt><trkpt lat="45.104476300404535" lon="9.985400034709937"><ele>37.0</ele><time>2026-03-22T11:23:15.999Z</time></trkpt><trkpt lat="45.10452402385136" lon="9.98551875320965"><ele>37.0</ele><time>2026-03-22T11:23:16.999Z</time></trkpt><trkpt lat="45.10457124870209" lon="9.985635026508476"><ele>37.0</ele><time>2026-03-22T11:23:17.999Z</time></trkpt><trkpt lat="45.104618143503444" lon="9.985753380754167"><ele>37.0</ele><time>2026-03-22T11:23:18.999Z</time></trkpt><trkpt lat="45.10466553820907" lon="9.985871332426274"><ele>37.2</ele><time>2026-03-22T11:23:19.999Z</time></trkpt><trkpt lat="45.10471305441206" lon="9.985987043011583"><ele>37.400000000000006</ele><time>2026-03-22T11:23:20.999Z</time></trkpt><trkpt lat="45.104760587430945" lon="9.986104830805372"><ele>37.599999999999994</ele><time>2026-03-22T11:23:21.999Z</time></trkpt><trkpt lat="45.10480867364488" lon="9.986222495611196"><ele>37.8</ele><time>2026-03-22T11:23:22.999Z</time></trkpt><trkpt lat="45.10485602974297" lon="9.986339797054349"><ele>38.0</ele><time>2026-03-22T11:23:23.999Z</time></trkpt><trkpt lat="45.104903646337604" lon="9.986457073574513"><ele>38.0</ele><time>2026-03-22T11:23:24.999Z</time></trkpt><trkpt lat="45.10495108092322" lon="9.986572537447708"><ele>38.0</ele><time>2026-03-22T11:23:25.999Z</time></trkpt><trkpt lat="45.10500098737751" lon="9.986685385438761"><ele>38.0</ele><time>2026-03-22T11:23:26.999Z</time></trkpt><trkpt lat="45.10505346632055" lon="9.986792814014217"><ele>38.0</ele><time>2026-03-22T11:23:27.998Z</time></trkpt><trkpt lat="45.10511036689833" lon="9.986896051973947"><ele>38.0</ele><time>2026-03-22T11:23:28.998Z</time></trkpt><trkpt lat="45.10517248334498" lon="9.986994025343684"><ele>38.0</ele><time>2026-03-22T11:23:29.998Z</time></trkpt><trkpt lat="45.10524023393072" lon="9.987085500639031"><ele>38.0</ele><time>2026-03-22T11:23:30.998Z</time></trkpt><trkpt lat="45.10530937827803" lon="9.987172196537339"><ele>38.0</ele><time>2026-03-22T11:23:31.998Z</time></trkpt><trkpt lat="45.105380024653435" lon="9.987254500001166"><ele>38.0</ele><time>2026-03-22T11:23:32.998Z</time></trkpt><trkpt lat="45.10545274813011" lon="9.987336339022578"><ele>38.0</ele><time>2026-03-22T11:23:33.998Z</time></trkpt><trkpt lat="45.10552369762546" lon="9.987417358261418"><ele>38.0</ele><time>2026-03-22T11:23:34.998Z</time></trkpt><trkpt lat="45.105594925612884" lon="9.987501132942631"><ele>38.0</ele><time>2026-03-22T11:23:36Z</time></trkpt><trkpt lat="45.10566586491483" lon="9.987582125831969"><ele>38.0</ele><time>2026-03-22T11:23:37Z</time></trkpt><trkpt lat="45.105736731651504" lon="9.987662763877676"><ele>38.0</ele><time>2026-03-22T11:23:38Z</time></trkpt><trkpt lat="45.10580676049561" lon="9.987745123430228"><ele>38.0</ele><time>2026-03-22T11:23:39Z</time></trkpt><trkpt lat="45.10587763213467" lon="9.987823122600076"><ele>38.166666666666664</ele><time>2026-03-22T11:23:40Z</time></trkpt><trkpt lat="45.10594849323032" lon="9.987901984173234"><ele>38.33333333333333</ele><time>2026-03-22T11:23:41Z</time></trkpt><trkpt lat="45.1060177355044" lon="9.987980611750185"><ele>38.5</ele><time>2026-03-22T11:23:42Z</time></trkpt><trkpt lat="45.10608767691121" lon="9.988056518483532"><ele>38.666666666666664</ele><time>2026-03-22T11:23:43Z</time></trkpt><trkpt lat="45.10615782794585" lon="9.988132808540149"><ele>38.833333333333336</ele><time>2026-03-22T11:23:44Z</time></trkpt><trkpt lat="45.1062283128655" lon="9.988208702138765"><ele>39.0</ele><time>2026-03-22T11:23:45Z</time></trkpt><trkpt lat="45.10629790668446" lon="9.988285488836558"><ele>39.0</ele><time>2026-03-22T11:23:46Z</time></trkpt><trkpt lat="45.10636809551626" lon="9.98836101338734"><ele>39.0</ele><time>2026-03-22T11:23:47Z</time></trkpt><trkpt lat="45.10643675109456" lon="9.988438332323879"><ele>39.0</ele><time>2026-03-22T11:23:48Z</time></trkpt><trkpt lat="45.10650425499764" lon="9.988516095785215"><ele>39.0</ele><time>2026-03-22T11:23:49Z</time></trkpt><trkpt lat="45.10657246224269" lon="9.988592273832275"><ele>39.0</ele><time>2026-03-22T11:23:50Z</time></trkpt><trkpt lat="45.10664369846069" lon="9.988665226762611"><ele>39.0</ele><time>2026-03-22T11:23:51Z</time></trkpt><trkpt lat="45.106712086527736" lon="9.988738380059"><ele>39.333333333333336</ele><time>2026-03-22T11:23:52Z</time></trkpt><trkpt lat="45.106778119" lon="9.988811498710081"><ele>39.666666666666664</ele><time>2026-03-22T11:23:53Z</time></trkpt><trkpt lat="45.10684596029214" lon="9.988881297130762"><ele>40.0</ele><time>2026-03-22T11:23:54Z</time></trkpt><trkpt lat="45.106914557181355" lon="9.988953409069666"><ele>40.33333333333333</ele><time>2026-03-22T11:23:55Z</time></trkpt><trkpt lat="45.10698244917628" lon="9.98902625006685"><ele>40.666666666666664</ele><time>2026-03-22T11:23:56Z</time></trkpt><trkpt lat="45.107050762808925" lon="9.98909849715399"><ele>41.0</ele><time>2026-03-22T11:23:57Z</time></trkpt><trkpt lat="45.10711686694883" lon="9.989175244703537"><ele>40.83333333333333</ele><time>2026-03-22T11:23:58Z</time></trkpt><trkpt lat="45.10718407294284" lon="9.989248846559128"><ele>40.666666666666664</ele><time>2026-03-22T11:23:59Z</time></trkpt><trkpt lat="45.10725118676841" lon="9.989325842299477"><ele>40.5</ele><time>2026-03-22T11:24:00Z</time></trkpt><trkpt lat="45.10731775769955" lon="9.989403842986583"><ele>40.333333333333336</ele><time>2026-03-22T11:24:01Z</time></trkpt><trkpt lat="45.10738689588127" lon="9.989480999815965"><ele>40.16666666666667</ele><time>2026-03-22T11:24:02Z</time></trkpt><trkpt lat="45.1074490355895" lon="9.989561413958258"><ele>40.0</ele><time>2026-03-22T11:24:03Z</time></trkpt><trkpt lat="45.10752032306542" lon="9.989637313737727"><ele>39.833333333333336</ele><time>2026-03-22T11:24:04Z</time></trkpt><trkpt lat="45.10759297371226" lon="9.989715811175115"><ele>39.66666666666667</ele><time>2026-03-22T11:24:05Z</time></trkpt><trkpt lat="45.10766327835264" lon="9.98979435625045"><ele>39.5</ele><time>2026-03-22T11:24:06Z</time></trkpt><trkpt lat="45.10773291172709" lon="9.989871260660392"><ele>39.333333333333336</ele><time>2026-03-22T11:24:07Z</time></trkpt><trkpt lat="45.107799841364866" lon="9.989949064361575"><ele>39.166666666666664</ele><time>2026-03-22T11:24:08Z</time></trkpt><trkpt lat="45.10786322544707" lon="9.990027513454603"><ele>39.0</ele><time>2026-03-22T11:24:09Z</time></trkpt><trkpt lat="45.10792688049112" lon="9.990103608350555"><ele>39.0</ele><time>2026-03-22T11:24:10Z</time></trkpt><trkpt lat="45.10799204819661" lon="9.990179436236865"><ele>39.0</ele><time>2026-03-22T11:24:11Z</time></trkpt><trkpt lat="45.10805693608637" lon="9.99025785815109"><ele>39.0</ele><time>2026-03-22T11:24:12Z</time></trkpt><trkpt lat="45.10812276612331" lon="9.990332712886747"><ele>39.0</ele><time>2026-03-22T11:24:13Z</time></trkpt><trkpt lat="45.108188231335554" lon="9.99040505624422"><ele>39.0</ele><time>2026-03-22T11:24:14Z</time></trkpt><trkpt lat="45.1082553224445" lon="9.990479154867359"><ele>39.0</ele><time>2026-03-22T11:24:15Z</time></trkpt><trkpt lat="45.10832330554947" lon="9.990554566994476"><ele>39.0</ele><time>2026-03-22T11:24:16Z</time></trkpt><trkpt lat="45.10839044643672" lon="9.990634679586249"><ele>39.0</ele><time>2026-03-22T11:24:17Z</time></trkpt><trkpt lat="45.10845615987999" lon="9.990711962076576"><ele>39.0</ele><time>2026-03-22T11:24:18Z</time></trkpt><trkpt lat="45.10852354717796" lon="9.990790647961491"><ele>39.0</ele><time>2026-03-22T11:24:19Z</time></trkpt><trkpt lat="45.10858999422135" lon="9.990871550521664"><ele>39.0</ele><time>2026-03-22T11:24:20Z</time></trkpt><trkpt lat="45.108657936552575" lon="9.990949711091528"><ele>39.0</ele><time>2026-03-22T11:24:21Z</time></trkpt><trkpt lat="45.10872545692" lon="9.991027431272444"><ele>39.0</ele><time>2026-03-22T11:24:22Z</time></trkpt><trkpt lat="45.108792756805116" lon="9.99110358407514"><ele>39.0</ele><time>2026-03-22T11:24:23Z</time></trkpt><trkpt lat="45.10886080075638" lon="9.991177710018066"><ele>39.0</ele><time>2026-03-22T11:24:24Z</time></trkpt><trkpt lat="45.1089257730352" lon="9.991258908966536"><ele>39.0</ele><time>2026-03-22T11:24:25Z</time></trkpt><trkpt lat="45.10899063687412" lon="9.991337151562295"><ele>39.0</ele><time>2026-03-22T11:24:26Z</time></trkpt><trkpt lat="45.10905581519705" lon="9.991414027577298"><ele>39.0</ele><time>2026-03-22T11:24:27Z</time></trkpt><trkpt lat="45.10912119388844" lon="9.991488670309817"><ele>39.0</ele><time>2026-03-22T11:24:28Z</time></trkpt><trkpt lat="45.10919131373987" lon="9.99155727429"><ele>39.0</ele><time>2026-03-22T11:24:29Z</time></trkpt><trkpt lat="45.109257562784734" lon="9.991630345371767"><ele>39.0</ele><time>2026-03-22T11:24:30Z</time></trkpt><trkpt lat="45.10932094753733" lon="9.991707587882866"><ele>39.0</ele><time>2026-03-22T11:24:31Z</time></trkpt><trkpt lat="45.10938412267372" lon="9.991781235969876"><ele>39.0</ele><time>2026-03-22T11:24:32Z</time></trkpt><trkpt lat="45.109446600569555" lon="9.991855700342079"><ele>39.0</ele><time>2026-03-22T11:24:33Z</time></trkpt><trkpt lat="45.10951041897928" lon="9.991927403047109"><ele>38.5</ele><time>2026-03-22T11:24:34Z</time></trkpt><trkpt lat="45.109574558917096" lon="9.991997289144589"><ele>38.0</ele><time>2026-03-22T11:24:35Z</time></trkpt><trkpt lat="45.10963971261502" lon="9.992067281005681"><ele>37.5</ele><time>2026-03-22T11:24:36Z</time></trkpt><trkpt lat="45.109701529273025" lon="9.992139498123427"><ele>37.0</ele><time>2026-03-22T11:24:37Z</time></trkpt><trkpt lat="45.10976470297237" lon="9.992211863157394"><ele>36.5</ele><time>2026-03-22T11:24:38Z</time></trkpt><trkpt lat="45.109828836456494" lon="9.992285126675224"><ele>36.0</ele><time>2026-03-22T11:24:39Z</time></trkpt><trkpt lat="45.10989324721175" lon="9.992359932308585"><ele>36.166666666666664</ele><time>2026-03-22T11:24:39.999Z</time></trkpt><trkpt lat="45.109958398778225" lon="9.992434300685636"><ele>36.333333333333336</ele><time>2026-03-22T11:24:40.999Z</time></trkpt><trkpt lat="45.11002436075917" lon="9.992509243397599"><ele>36.5</ele><time>2026-03-22T11:24:41.999Z</time></trkpt><trkpt lat="45.11009053823041" lon="9.992585765610436"><ele>36.66666666666667</ele><time>2026-03-22T11:24:42.999Z</time></trkpt><trkpt lat="45.1101575611534" lon="9.992664532387174"><ele>36.833333333333336</ele><time>2026-03-22T11:24:43.999Z</time></trkpt><trkpt lat="45.11022689659471" lon="9.992742999238866"><ele>37.0</ele><time>2026-03-22T11:24:44.999Z</time></trkpt><trkpt lat="45.110294474963844" lon="9.992821471140033"><ele>37.0</ele><time>2026-03-22T11:24:45.999Z</time></trkpt><trkpt lat="45.11036475967681" lon="9.992902619400354"><ele>37.0</ele><time>2026-03-22T11:24:46.999Z</time></trkpt><trkpt lat="45.11043668350126" lon="9.992980941275736"><ele>37.0</ele><time>2026-03-22T11:24:47.999Z</time></trkpt><trkpt lat="45.11050844180753" lon="9.993060616172363"><ele>37.0</ele><time>2026-03-22T11:24:48.999Z</time></trkpt><trkpt lat="45.110578693437844" lon="9.993141836884849"><ele>37.0</ele><time>2026-03-22T11:24:49.999Z</time></trkpt><trkpt lat="45.11064776831377" lon="9.993217535594301"><ele>37.0</ele><time>2026-03-22T11:24:50.999Z</time></trkpt><trkpt lat="45.11071842216919" lon="9.993291439275298"><ele>37.0</ele><time>2026-03-22T11:24:51.999Z</time></trkpt><trkpt lat="45.11078562731594" lon="9.993366491875838"><ele>37.0</ele><time>2026-03-22T11:24:52.999Z</time></trkpt><trkpt lat="45.11085170844841" lon="9.993440071116504"><ele>37.0</ele><time>2026-03-22T11:24:53.999Z</time></trkpt><trkpt lat="45.1109182228495" lon="9.99351518651344"><ele>37.0</ele><time>2026-03-22T11:24:54.999Z</time></trkpt><trkpt lat="45.11098430357819" lon="9.99358759597948"><ele>37.0</ele><time>2026-03-22T11:24:55.999Z</time></trkpt><trkpt lat="45.11105000931999" lon="9.99365926185302"><ele>37.0</ele><time>2026-03-22T11:24:56.999Z</time></trkpt><trkpt lat="45.11111877114906" lon="9.993733279523399"><ele>37.0</ele><time>2026-03-22T11:24:57.999Z</time></trkpt><trkpt lat="45.11118386026183" lon="9.993809641064225"><ele>37.0</ele><time>2026-03-22T11:24:58.999Z</time></trkpt><trkpt lat="45.1112538651253" lon="9.993883082455703"><ele>37.0</ele><time>2026-03-22T11:24:59.999Z</time></trkpt><trkpt lat="45.11132338899359" lon="9.99395935243363"><ele>37.0</ele><time>2026-03-22T11:25:00.999Z</time></trkpt><trkpt lat="45.1113887535496" lon="9.994032929877271"><ele>37.0</ele><time>2026-03-22T11:25:01.999Z</time></trkpt><trkpt lat="45.11145855991578" lon="9.994111767487533"><ele>37.16666666666667</ele><time>2026-03-22T11:25:02.999Z</time></trkpt><trkpt lat="45.111530248767544" lon="9.994186092019717"><ele>37.333333333333336</ele><time>2026-03-22T11:25:03.999Z</time></trkpt><trkpt lat="45.111600638159466" lon="9.994257960005443"><ele>37.5</ele><time>2026-03-22T11:25:04.999Z</time></trkpt><trkpt lat="45.11167336226211" lon="9.994330189844753"><ele>37.666666666666664</ele><time>2026-03-22T11:25:05.999Z</time></trkpt><trkpt lat="45.1117448548618" lon="9.994403219391064"><ele>37.83333333333333</ele><time>2026-03-22T11:25:06.999Z</time></trkpt><trkpt lat="45.111818920373366" lon="9.994476193557524"><ele>38.0</ele><time>2026-03-22T11:25:07.999Z</time></trkpt><trkpt lat="45.111891767887094" lon="9.994545663813765"><ele>38.166666666666664</ele><time>2026-03-22T11:25:08.999Z</time></trkpt><trkpt lat="45.11196865989932" lon="9.99460824812149"><ele>38.33333333333333</ele><time>2026-03-22T11:25:09.999Z</time></trkpt><trkpt lat="45.11205019484437" lon="9.99466518458225"><ele>38.5</ele><time>2026-03-22T11:25:10.999Z</time></trkpt><trkpt lat="45.112131414446644" lon="9.994710631508145"><ele>38.666666666666664</ele><time>2026-03-22T11:25:11.999Z</time></trkpt><trkpt lat="45.11221701698129" lon="9.994741621440577"><ele>38.833333333333336</ele><time>2026-03-22T11:25:12.999Z</time></trkpt><trkpt lat="45.11230384740431" lon="9.994756616401462"><ele>39.0</ele><time>2026-03-22T11:25:13.999Z</time></trkpt><trkpt lat="45.11239259927306" lon="9.994756497163793"><ele>39.2</ele><time>2026-03-22T11:25:14.999Z</time></trkpt><trkpt lat="45.11248075846941" lon="9.994743031045017"><ele>39.4</ele><time>2026-03-22T11:25:15.999Z</time></trkpt><trkpt lat="45.11256914143119" lon="9.994718962686683"><ele>39.6</ele><time>2026-03-22T11:25:16.999Z</time></trkpt><trkpt lat="45.11265468240298" lon="9.994677439513179"><ele>39.8</ele><time>2026-03-22T11:25:17.999Z</time></trkpt><trkpt lat="45.112739785853904" lon="9.994628478942555"><ele>40.0</ele><time>2026-03-22T11:25:18.999Z</time></trkpt><trkpt lat="45.11282270551817" lon="9.99457485414764"><ele>40.0</ele><time>2026-03-22T11:25:19.999Z</time></trkpt><trkpt lat="45.11290516076599" lon="9.994522085102975"><ele>40.0</ele><time>2026-03-22T11:25:20.999Z</time></trkpt><trkpt lat="45.112987448827354" lon="9.994474750735963"><ele>40.0</ele><time>2026-03-22T11:25:21.999Z</time></trkpt><trkpt lat="45.113070711833004" lon="9.994428109169164"><ele>40.0</ele><time>2026-03-22T11:25:22.999Z</time></trkpt><trkpt lat="45.1131535547476" lon="9.99438023545468"><ele>40.0</ele><time>2026-03-22T11:25:23.999Z</time></trkpt><trkpt lat="45.11323673356134" lon="9.994327331818264"><ele>40.0</ele><time>2026-03-22T11:25:24.999Z</time></trkpt><trkpt lat="45.11332031031887" lon="9.994272600066793"><ele>40.0</ele><time>2026-03-22T11:25:25.999Z</time></trkpt><trkpt lat="45.113401981427415" lon="9.994219102542749"><ele>40.0</ele><time>2026-03-22T11:25:26.999Z</time></trkpt><trkpt lat="45.1134852201656" lon="9.994168309840331"><ele>40.0</ele><time>2026-03-22T11:25:27.999Z</time></trkpt><trkpt lat="45.1135651893976" lon="9.994119304905231"><ele>40.0</ele><time>2026-03-22T11:25:28.999Z</time></trkpt><trkpt lat="45.113645381463755" lon="9.994071207700191"><ele>40.0</ele><time>2026-03-22T11:25:29.999Z</time></trkpt><trkpt lat="45.11372655845736" lon="9.994023198824651"><ele>40.0</ele><time>2026-03-22T11:25:30.999Z</time></trkpt><trkpt lat="45.11380710247569" lon="9.993974160555238"><ele>39.833333333333336</ele><time>2026-03-22T11:25:31.999Z</time></trkpt><trkpt lat="45.11388547964311" lon="9.993924561030619"><ele>39.66666666666667</ele><time>2026-03-22T11:25:32.998Z</time></trkpt><trkpt lat="45.11396326696176" lon="9.993877809447344"><ele>39.5</ele><time>2026-03-22T11:25:33.998Z</time></trkpt><trkpt lat="45.11403943033691" lon="9.993832238152692"><ele>39.333333333333336</ele><time>2026-03-22T11:25:34.998Z</time></trkpt><trkpt lat="45.1141166670645" lon="9.993786982848322"><ele>39.166666666666664</ele><time>2026-03-22T11:25:35.998Z</time></trkpt><trkpt lat="45.1141953810816" lon="9.993742696885905"><ele>39.0</ele><time>2026-03-22T11:25:36.998Z</time></trkpt><trkpt lat="45.11427317564463" lon="9.993695424031571"><ele>39.0</ele><time>2026-03-22T11:25:37.998Z</time></trkpt><trkpt lat="45.11435016475735" lon="9.99364713889604"><ele>39.0</ele><time>2026-03-22T11:25:38.998Z</time></trkpt><trkpt lat="45.1144264713419" lon="9.993600971723698"><ele>39.0</ele><time>2026-03-22T11:25:39.998Z</time></trkpt><trkpt lat="45.114501645491906" lon="9.993556550853707"><ele>39.0</ele><time>2026-03-22T11:25:40.998Z</time></trkpt><trkpt lat="45.114574822557" lon="9.993512112495047"><ele>39.0</ele><time>2026-03-22T11:25:42Z</time></trkpt><trkpt lat="45.11464908304478" lon="9.993466336812935"><ele>39.0</ele><time>2026-03-22T11:25:43Z</time></trkpt><trkpt lat="45.114723785178114" lon="9.993423551063405"><ele>39.0</ele><time>2026-03-22T11:25:44Z</time></trkpt><trkpt lat="45.11479917984213" lon="9.993380139587806"><ele>39.0</ele><time>2026-03-22T11:25:45Z</time></trkpt><trkpt lat="45.11487366623765" lon="9.993336383292535"><ele>39.0</ele><time>2026-03-22T11:25:46Z</time></trkpt><trkpt lat="45.114950115372025" lon="9.993291418258313"><ele>39.0</ele><time>2026-03-22T11:25:47Z</time></trkpt><trkpt lat="45.11502686951283" lon="9.993244790931104"><ele>39.0</ele><time>2026-03-22T11:25:48Z</time></trkpt><trkpt lat="45.115102455023866" lon="9.99319988381709"><ele>39.0</ele><time>2026-03-22T11:25:49Z</time></trkpt><trkpt lat="45.11517779707156" lon="9.993154455867762"><ele>39.166666666666664</ele><time>2026-03-22T11:25:50Z</time></trkpt><trkpt lat="45.11525258464623" lon="9.993105296440278"><ele>39.333333333333336</ele><time>2026-03-22T11:25:51Z</time></trkpt><trkpt lat="45.11532791383931" lon="9.99305276122328"><ele>39.5</ele><time>2026-03-22T11:25:52Z</time></trkpt><trkpt lat="45.11540498286553" lon="9.993002722630267"><ele>39.66666666666667</ele><time>2026-03-22T11:25:53Z</time></trkpt><trkpt lat="45.11548303436784" lon="9.992957440618305"><ele>39.833333333333336</ele><time>2026-03-22T11:25:54Z</time></trkpt><trkpt lat="45.11556293132955" lon="9.99291497953517"><ele>40.0</ele><time>2026-03-22T11:25:55Z</time></trkpt><trkpt lat="45.11564271054177" lon="9.992870338337282"><ele>40.0</ele><time>2026-03-22T11:25:56Z</time></trkpt><trkpt lat="45.1157238300635" lon="9.99282358807123"><ele>40.0</ele><time>2026-03-22T11:25:57Z</time></trkpt><trkpt lat="45.115802429095524" lon="9.992775679061072"><ele>40.0</ele><time>2026-03-22T11:25:58Z</time></trkpt><trkpt lat="45.11588401284335" lon="9.99272908254929"><ele>40.0</ele><time>2026-03-22T11:25:59Z</time></trkpt><trkpt lat="45.115966009247046" lon="9.992681932257826"><ele>40.0</ele><time>2026-03-22T11:26:00Z</time></trkpt><trkpt lat="45.11604789646323" lon="9.992632530121208"><ele>40.0</ele><time>2026-03-22T11:26:01Z</time></trkpt><trkpt lat="45.11612866633498" lon="9.992586146877585"><ele>39.833333333333336</ele><time>2026-03-22T11:26:02Z</time></trkpt><trkpt lat="45.11620776369082" lon="9.992535343294508"><ele>39.66666666666667</ele><time>2026-03-22T11:26:03Z</time></trkpt><trkpt lat="45.11629092275074" lon="9.99248833529158"><ele>39.5</ele><time>2026-03-22T11:26:04Z</time></trkpt><trkpt lat="45.11637326117027" lon="9.992441506204912"><ele>39.333333333333336</ele><time>2026-03-22T11:26:05Z</time></trkpt><trkpt lat="45.11645560079688" lon="9.992389703327747"><ele>39.166666666666664</ele><time>2026-03-22T11:26:06Z</time></trkpt><trkpt lat="45.116536383297685" lon="9.992339994846002"><ele>39.0</ele><time>2026-03-22T11:26:07Z</time></trkpt><trkpt lat="45.116615450864025" lon="9.992291574130391"><ele>39.0</ele><time>2026-03-22T11:26:08Z</time></trkpt><trkpt lat="45.11669630842459" lon="9.992247258826554"><ele>39.0</ele><time>2026-03-22T11:26:09Z</time></trkpt><trkpt lat="45.11677668654747" lon="9.992196933316697"><ele>39.0</ele><time>2026-03-22T11:26:10Z</time></trkpt><trkpt lat="45.11686097956795" lon="9.992146791530898"><ele>39.0</ele><time>2026-03-22T11:26:11Z</time></trkpt><trkpt lat="45.11694075757245" lon="9.992090996808823"><ele>39.0</ele><time>2026-03-22T11:26:12Z</time></trkpt><trkpt lat="45.117026406675" lon="9.992042407718515"><ele>39.0</ele><time>2026-03-22T11:26:13Z</time></trkpt><trkpt lat="45.11710785631425" lon="9.991991626820875"><ele>39.0</ele><time>2026-03-22T11:26:14Z</time></trkpt><trkpt lat="45.11718985217267" lon="9.991948754040742"><ele>39.0</ele><time>2026-03-22T11:26:15Z</time></trkpt><trkpt lat="45.11727345276541" lon="9.991900913240649"><ele>39.0</ele><time>2026-03-22T11:26:16Z</time></trkpt><trkpt lat="45.117355774004324" lon="9.991852302538893"><ele>39.0</ele><time>2026-03-22T11:26:17Z</time></trkpt><trkpt lat="45.11743563222645" lon="9.991800488684756"><ele>39.0</ele><time>2026-03-22T11:26:18Z</time></trkpt><trkpt lat="45.11751843903113" lon="9.991750171571805"><ele>39.0</ele><time>2026-03-22T11:26:19Z</time></trkpt><trkpt lat="45.11760025632592" lon="9.991700506899766"><ele>39.0</ele><time>2026-03-22T11:26:20Z</time></trkpt><trkpt lat="45.11768149570492" lon="9.99164678288136"><ele>39.0</ele><time>2026-03-22T11:26:21Z</time></trkpt><trkpt lat="45.11776283340275" lon="9.991594546211509"><ele>39.0</ele><time>2026-03-22T11:26:22Z</time></trkpt><trkpt lat="45.11784586744371" lon="9.991542745647404"><ele>39.0</ele><time>2026-03-22T11:26:23Z</time></trkpt><trkpt lat="45.11793122902755" lon="9.991490177008863"><ele>39.0</ele><time>2026-03-22T11:26:24Z</time></trkpt><trkpt lat="45.118015909043905" lon="9.99144288347614"><ele>39.0</ele><time>2026-03-22T11:26:25Z</time></trkpt><trkpt lat="45.11809976725084" lon="9.991396750271447"><ele>39.0</ele><time>2026-03-22T11:26:26Z</time></trkpt><trkpt lat="45.118183601968305" lon="9.99134651528773"><ele>39.0</ele><time>2026-03-22T11:26:27Z</time></trkpt><trkpt lat="45.1182666233416" lon="9.991295885060465"><ele>39.0</ele><time>2026-03-22T11:26:28Z</time></trkpt><trkpt lat="45.11834789099309" lon="9.991247867772817"><ele>39.0</ele><time>2026-03-22T11:26:29Z</time></trkpt><trkpt lat="45.11843293711287" lon="9.991200390685195"><ele>38.0</ele><time>2026-03-22T11:26:30Z</time></trkpt><trkpt lat="45.118515585708934" lon="9.991153979335778"><ele>37.0</ele><time>2026-03-22T11:26:31Z</time></trkpt><trkpt lat="45.118598266400426" lon="9.991101390255613"><ele>36.0</ele><time>2026-03-22T11:26:32Z</time></trkpt><trkpt lat="45.11867897184223" lon="9.991049552625219"><ele>35.0</ele><time>2026-03-22T11:26:33Z</time></trkpt><trkpt lat="45.11876207602824" lon="9.990995317037315"><ele>34.0</ele><time>2026-03-22T11:26:34Z</time></trkpt><trkpt lat="45.11884839837866" lon="9.990937758778122"><ele>34.0</ele><time>2026-03-22T11:26:35Z</time></trkpt><trkpt lat="45.118937053532015" lon="9.990870289380094"><ele>34.0</ele><time>2026-03-22T11:26:36Z</time></trkpt><trkpt lat="45.119031960734056" lon="9.990813546963869"><ele>34.0</ele><time>2026-03-22T11:26:37Z</time></trkpt><trkpt lat="45.119132071268865" lon="9.990756750734658"><ele>34.0</ele><time>2026-03-22T11:26:38Z</time></trkpt><trkpt lat="45.1192340439192" lon="9.990694443004001"><ele>34.0</ele><time>2026-03-22T11:26:39Z</time></trkpt><trkpt lat="45.119339777183576" lon="9.990632360311508"><ele>34.5</ele><time>2026-03-22T11:26:40Z</time></trkpt><trkpt lat="45.119448917498616" lon="9.990578023348304"><ele>35.0</ele><time>2026-03-22T11:26:41Z</time></trkpt><trkpt lat="45.11955695381047" lon="9.990515814399082"><ele>35.5</ele><time>2026-03-22T11:26:42Z</time></trkpt><trkpt lat="45.11966757285663" lon="9.990454070237865"><ele>36.0</ele><time>2026-03-22T11:26:43Z</time></trkpt><trkpt lat="45.119777797799166" lon="9.990390970581194"><ele>36.0</ele><time>2026-03-22T11:26:44Z</time></trkpt><trkpt lat="45.11988563170166" lon="9.990323650131108"><ele>36.0</ele><time>2026-03-22T11:26:44.999Z</time></trkpt><trkpt lat="45.11999701206917" lon="9.99025299001743"><ele>36.0</ele><time>2026-03-22T11:26:45.999Z</time></trkpt><trkpt lat="45.120105320406175" lon="9.990188440055633"><ele>36.0</ele><time>2026-03-22T11:26:46.999Z</time></trkpt><trkpt lat="45.120216476572374" lon="9.99012039883475"><ele>36.75</ele><time>2026-03-22T11:26:47.999Z</time></trkpt><trkpt lat="45.12033086615947" lon="9.990059954986325"><ele>37.5</ele><time>2026-03-22T11:26:48.999Z</time></trkpt><trkpt lat="45.12044235794437" lon="9.989992014488076"><ele>38.25</ele><time>2026-03-22T11:26:49.999Z</time></trkpt><trkpt lat="45.120551686982154" lon="9.989930014536222"><ele>39.0</ele><time>2026-03-22T11:26:50.999Z</time></trkpt><trkpt lat="45.12065879499661" lon="9.989867485446533"><ele>38.4</ele><time>2026-03-22T11:26:51.999Z</time></trkpt><trkpt lat="45.120759168906346" lon="9.989806279980133"><ele>37.8</ele><time>2026-03-22T11:26:52.999Z</time></trkpt><trkpt lat="45.12085434479288" lon="9.989750335019481"><ele>37.2</ele><time>2026-03-22T11:26:53.999Z</time></trkpt><trkpt lat="45.12094158572697" lon="9.989708572700357"><ele>36.6</ele><time>2026-03-22T11:26:54.999Z</time></trkpt><trkpt lat="45.12102234042904" lon="9.989654591663774"><ele>36.0</ele><time>2026-03-22T11:26:55.999Z</time></trkpt><trkpt lat="45.12111608709502" lon="9.989642932380917"><ele>36.0</ele><time>2026-03-22T11:26:56.999Z</time></trkpt><trkpt lat="45.12119679601392" lon="9.989599418565984"><ele>36.0</ele><time>2026-03-22T11:26:57.999Z</time></trkpt><trkpt lat="45.121262982483614" lon="9.989508512967701"><ele>36.0</ele><time>2026-03-22T11:26:58.999Z</time></trkpt><trkpt lat="45.121338679201514" lon="9.989463871298762"><ele>36.0</ele><time>2026-03-22T11:26:59.999Z</time></trkpt><trkpt lat="45.12141081697227" lon="9.989421328515524"><ele>36.0</ele><time>2026-03-22T11:27:00.999Z</time></trkpt><trkpt lat="45.121481700020375" lon="9.989380598685049"><ele>36.0</ele><time>2026-03-22T11:27:01.999Z</time></trkpt><trkpt lat="45.12155054380661" lon="9.98934538620862"><ele>36.166666666666664</ele><time>2026-03-22T11:27:02.999Z</time></trkpt><trkpt lat="45.121619778186414" lon="9.98931821300838"><ele>36.333333333333336</ele><time>2026-03-22T11:27:03.999Z</time></trkpt><trkpt lat="45.12168777513296" lon="9.989307463497761"><ele>36.5</ele><time>2026-03-22T11:27:04.999Z</time></trkpt><trkpt lat="45.12175513657913" lon="9.989307279671953"><ele>36.66666666666667</ele><time>2026-03-22T11:27:05.999Z</time></trkpt><trkpt lat="45.12181962717091" lon="9.9893188321815"><ele>36.833333333333336</ele><time>2026-03-22T11:27:06.999Z</time></trkpt><trkpt lat="45.12193324749323" lon="9.989373926200331"><ele>37.0</ele><time>2026-03-22T11:27:08.999Z</time></trkpt><trkpt lat="45.1220410340787" lon="9.98941289039302"><ele>37.0</ele><time>2026-03-22T11:27:10.999Z</time></trkpt><trkpt lat="45.12213724184843" lon="9.989470041296627"><ele>37.0</ele><time>2026-03-22T11:27:12.999Z</time></trkpt><trkpt lat="45.12222399899998" lon="9.989533296211633"><ele>37.0</ele><time>2026-03-22T11:27:14.999Z</time></trkpt><trkpt lat="45.122298398208564" lon="9.989605570370374"><ele>37.0</ele><time>2026-03-22T11:27:16.999Z</time></trkpt><trkpt lat="45.12237862381404" lon="9.989689454679038"><ele>37.0</ele><time>2026-03-22T11:27:18.999Z</time></trkpt><trkpt lat="45.122463375306374" lon="9.989763675663667"><ele>37.2</ele><time>2026-03-22T11:27:20.999Z</time></trkpt><trkpt lat="45.12254979346899" lon="9.989840035298027"><ele>37.400000000000006</ele><time>2026-03-22T11:27:22.999Z</time></trkpt><trkpt lat="45.122638059694886" lon="9.989920030041278"><ele>37.599999999999994</ele><time>2026-03-22T11:27:24.999Z</time></trkpt><trkpt lat="45.12273120071099" lon="9.990002384951278"><ele>37.8</ele><time>2026-03-22T11:27:26.999Z</time></trkpt><trkpt lat="45.122825964378414" lon="9.990083150933579"><ele>38.0</ele><time>2026-03-22T11:27:28.999Z</time></trkpt><trkpt lat="45.1229210805831" lon="9.990167202225015"><ele>38.0</ele><time>2026-03-22T11:27:30.999Z</time></trkpt><trkpt lat="45.12302010076332" lon="9.990255948150134"><ele>38.0</ele><time>2026-03-22T11:27:32.999Z</time></trkpt><trkpt lat="45.12312154020478" lon="9.990347104265428"><ele>38.0</ele><time>2026-03-22T11:27:34.999Z</time></trkpt><trkpt lat="45.12322398673127" lon="9.990436430280655"><ele>38.0</ele><time>2026-03-22T11:27:36.998Z</time></trkpt><trkpt lat="45.123327261255994" lon="9.99052493649807"><ele>37.83333333333333</ele><time>2026-03-22T11:27:38.998Z</time></trkpt><trkpt lat="45.12343229777478" lon="9.99061418698019"><ele>37.666666666666664</ele><time>2026-03-22T11:27:40.998Z</time></trkpt><trkpt lat="45.123536173630065" lon="9.990708118327351"><ele>37.5</ele><time>2026-03-22T11:27:42.998Z</time></trkpt><trkpt lat="45.123589403890136" lon="9.99075602100351"><ele>37.333333333333336</ele><time>2026-03-22T11:27:43.998Z</time></trkpt><trkpt lat="45.12364348104705" lon="9.990804660896996"><ele>37.16666666666667</ele><time>2026-03-22T11:27:44.998Z</time></trkpt><trkpt lat="45.12369874084922" lon="9.99085249775807"><ele>37.0</ele><time>2026-03-22T11:27:45.998Z</time></trkpt><trkpt lat="45.12375484254277" lon="9.99089938499382"><ele>37.0</ele><time>2026-03-22T11:27:46.998Z</time></trkpt><trkpt lat="45.12381030474152" lon="9.990947891282326"><ele>37.0</ele><time>2026-03-22T11:27:48Z</time></trkpt><trkpt lat="45.12386592791383" lon="9.990992086121713"><ele>37.0</ele><time>2026-03-22T11:27:49Z</time></trkpt><trkpt lat="45.123921018356214" lon="9.991040282455126"><ele>37.0</ele><time>2026-03-22T11:27:50Z</time></trkpt><trkpt lat="45.123976015060705" lon="9.991087489239929"><ele>37.0</ele><time>2026-03-22T11:27:51Z</time></trkpt><trkpt lat="45.1240308229984" lon="9.991135919801733"><ele>37.0</ele><time>2026-03-22T11:27:52Z</time></trkpt><trkpt lat="45.12408686629487" lon="9.991184245472304"><ele>37.0</ele><time>2026-03-22T11:27:53Z</time></trkpt><trkpt lat="45.12414122054591" lon="9.991232882723002"><ele>37.285714285714285</ele><time>2026-03-22T11:27:54Z</time></trkpt><trkpt lat="45.12419711122047" lon="9.99128385184195"><ele>37.57142857142857</ele><time>2026-03-22T11:27:55Z</time></trkpt><trkpt lat="45.12425352046604" lon="9.99133146179009"><ele>37.85714285714286</ele><time>2026-03-22T11:27:56Z</time></trkpt><trkpt lat="45.12431004171418" lon="9.991377203145309"><ele>38.14285714285714</ele><time>2026-03-22T11:27:57Z</time></trkpt><trkpt lat="45.124366332051544" lon="9.991427120081243"><ele>38.42857142857142</ele><time>2026-03-22T11:27:58Z</time></trkpt><trkpt lat="45.12442208592448" lon="9.991474881410143"><ele>38.714285714285715</ele><time>2026-03-22T11:27:59Z</time></trkpt><trkpt lat="45.12447749469213" lon="9.991524325251506"><ele>39.0</ele><time>2026-03-22T11:28:00Z</time></trkpt><trkpt lat="45.1245326460146" lon="9.991570188311226"><ele>39.0</ele><time>2026-03-22T11:28:01Z</time></trkpt><trkpt lat="45.12458761049505" lon="9.991618453919667"><ele>39.0</ele><time>2026-03-22T11:28:02Z</time></trkpt><trkpt lat="45.124694641966585" lon="9.991709693376672"><ele>39.0</ele><time>2026-03-22T11:28:04Z</time></trkpt><trkpt lat="45.12474933071351" lon="9.991755409114747"><ele>39.0</ele><time>2026-03-22T11:28:05Z</time></trkpt><trkpt lat="45.12480395076095" lon="9.991803246789084"><ele>39.0</ele><time>2026-03-22T11:28:06Z</time></trkpt><trkpt lat="45.12486037303232" lon="9.991850283439662"><ele>39.0</ele><time>2026-03-22T11:28:07Z</time></trkpt><trkpt lat="45.12491613177321" lon="9.991899241276023"><ele>39.0</ele><time>2026-03-22T11:28:08Z</time></trkpt><trkpt lat="45.12497416473545" lon="9.991947904865803"><ele>39.285714285714285</ele><time>2026-03-22T11:28:09Z</time></trkpt><trkpt lat="45.12503033507531" lon="9.991997127703213"><ele>39.57142857142857</ele><time>2026-03-22T11:28:10Z</time></trkpt><trkpt lat="45.12508733272062" lon="9.992046333570187"><ele>39.857142857142854</ele><time>2026-03-22T11:28:11Z</time></trkpt><trkpt lat="45.12514370411144" lon="9.992098271737262"><ele>40.14285714285714</ele><time>2026-03-22T11:28:12Z</time></trkpt><trkpt lat="45.12520128495548" lon="9.9921475983436"><ele>40.42857142857143</ele><time>2026-03-22T11:28:13Z</time></trkpt><trkpt lat="45.12525819992631" lon="9.992199373696153"><ele>40.71428571428571</ele><time>2026-03-22T11:28:14Z</time></trkpt><trkpt lat="45.12531468847559" lon="9.992247745101274"><ele>41.0</ele><time>2026-03-22T11:28:15Z</time></trkpt><trkpt lat="45.12537137836804" lon="9.99229477762802"><ele>40.99999999999999</ele><time>2026-03-22T11:28:16Z</time></trkpt><trkpt lat="45.12542867940307" lon="9.992341712496394"><ele>41.0</ele><time>2026-03-22T11:28:17Z</time></trkpt><trkpt lat="45.12548438989932" lon="9.992395379968285"><ele>41.0</ele><time>2026-03-22T11:28:18Z</time></trkpt><trkpt lat="45.12554236173379" lon="9.992441839782172"><ele>41.0</ele><time>2026-03-22T11:28:19Z</time></trkpt><trkpt lat="45.12560212336975" lon="9.992489280186012"><ele>41.0</ele><time>2026-03-22T11:28:20Z</time></trkpt><trkpt lat="45.12566007611413" lon="9.992539862786034"><ele>40.99999999999999</ele><time>2026-03-22T11:28:21Z</time></trkpt><trkpt lat="45.12571771548906" lon="9.992590565495373"><ele>41.0</ele><time>2026-03-22T11:28:22Z</time></trkpt><trkpt lat="45.12577674634942" lon="9.992638701562358"><ele>40.71428571428571</ele><time>2026-03-22T11:28:23Z</time></trkpt><trkpt lat="45.12583551741456" lon="9.992685856515179"><ele>40.42857142857143</ele><time>2026-03-22T11:28:24Z</time></trkpt><trkpt lat="45.125892905984756" lon="9.992733131790745"><ele>40.14285714285714</ele><time>2026-03-22T11:28:25Z</time></trkpt><trkpt lat="45.12594958895083" lon="9.992782167091507"><ele>39.857142857142854</ele><time>2026-03-22T11:28:26Z</time></trkpt><trkpt lat="45.12600740517643" lon="9.99283274310277"><ele>39.57142857142857</ele><time>2026-03-22T11:28:27Z</time></trkpt><trkpt lat="45.126064313539445" lon="9.992879865701177"><ele>39.285714285714285</ele><time>2026-03-22T11:28:28Z</time></trkpt><trkpt lat="45.12612074426763" lon="9.992929272767805"><ele>39.0</ele><time>2026-03-22T11:28:29Z</time></trkpt><trkpt lat="45.12617846571351" lon="9.992980435407656"><ele>39.0</ele><time>2026-03-22T11:28:30Z</time></trkpt><trkpt lat="45.12623653211155" lon="9.99302740146948"><ele>39.0</ele><time>2026-03-22T11:28:31Z</time></trkpt><trkpt lat="45.126294430989084" lon="9.993075052874312"><ele>39.0</ele><time>2026-03-22T11:28:32Z</time></trkpt><trkpt lat="45.12635238965291" lon="9.993120638501184"><ele>39.0</ele><time>2026-03-22T11:28:33Z</time></trkpt><trkpt lat="45.126410278142714" lon="9.993169272385284"><ele>39.0</ele><time>2026-03-22T11:28:34Z</time></trkpt><trkpt lat="45.12646694206111" lon="9.993217971656861"><ele>39.0</ele><time>2026-03-22T11:28:35Z</time></trkpt><trkpt lat="45.12652424285924" lon="9.993266142507599"><ele>39.0</ele><time>2026-03-22T11:28:36Z</time></trkpt><trkpt lat="45.12658082809695" lon="9.993312899968437"><ele>38.714285714285715</ele><time>2026-03-22T11:28:37Z</time></trkpt><trkpt lat="45.12663739719893" lon="9.993362346138328"><ele>38.42857142857142</ele><time>2026-03-22T11:28:38Z</time></trkpt><trkpt lat="45.12669434788602" lon="9.99341069814264"><ele>38.14285714285714</ele><time>2026-03-22T11:28:39Z</time></trkpt><trkpt lat="45.126750806374034" lon="9.993457188457326"><ele>37.85714285714286</ele><time>2026-03-22T11:28:40Z</time></trkpt><trkpt lat="45.126808524969704" lon="9.993502839711523"><ele>37.57142857142857</ele><time>2026-03-22T11:28:41Z</time></trkpt><trkpt lat="45.12686489725547" lon="9.993551796948106"><ele>37.285714285714285</ele><time>2026-03-22T11:28:42Z</time></trkpt><trkpt lat="45.12692077986697" lon="9.993601751276117"><ele>37.0</ele><time>2026-03-22T11:28:43Z</time></trkpt><trkpt lat="45.126978489893744" lon="9.993650573482704"><ele>37.0</ele><time>2026-03-22T11:28:44Z</time></trkpt><trkpt lat="45.127035533840356" lon="9.993698922407143"><ele>37.0</ele><time>2026-03-22T11:28:45Z</time></trkpt><trkpt lat="45.12709237797183" lon="9.993750527403"><ele>37.0</ele><time>2026-03-22T11:28:46Z</time></trkpt><trkpt lat="45.12714755041558" lon="9.99379851266329"><ele>37.0</ele><time>2026-03-22T11:28:47Z</time></trkpt><trkpt lat="45.12720389596491" lon="9.993849820065348"><ele>37.0</ele><time>2026-03-22T11:28:47.999Z</time></trkpt><trkpt lat="45.12726146681825" lon="9.993896865082073"><ele>37.0</ele><time>2026-03-22T11:28:48.999Z</time></trkpt><trkpt lat="45.127317299932464" lon="9.993944831244912"><ele>37.0</ele><time>2026-03-22T11:28:49.999Z</time></trkpt><trkpt lat="45.12737522996265" lon="9.993995192174484"><ele>35.714285714285715</ele><time>2026-03-22T11:28:50.999Z</time></trkpt><trkpt lat="45.127432190382386" lon="9.994043375189513"><ele>34.42857142857143</ele><time>2026-03-22T11:28:51.999Z</time></trkpt><trkpt lat="45.127489715147256" lon="9.994089729902463"><ele>33.14285714285714</ele><time>2026-03-22T11:28:52.999Z</time></trkpt><trkpt lat="45.12754593325247" lon="9.994136327140918"><ele>31.857142857142858</ele><time>2026-03-22T11:28:53.999Z</time></trkpt><trkpt lat="45.12760461607782" lon="9.994185623123196"><ele>30.57142857142857</ele><time>2026-03-22T11:28:54.999Z</time></trkpt><trkpt lat="45.12766105274601" lon="9.994235021065682"><ele>29.285714285714285</ele><time>2026-03-22T11:28:55.999Z</time></trkpt><trkpt lat="45.127718358502754" lon="9.994285546850804"><ele>28.0</ele><time>2026-03-22T11:28:56.999Z</time></trkpt><trkpt lat="45.12777621741327" lon="9.994334918844693"><ele>28.0</ele><time>2026-03-22T11:28:57.999Z</time></trkpt><trkpt lat="45.1278324623972" lon="9.9943825762218"><ele>28.0</ele><time>2026-03-22T11:28:58.999Z</time></trkpt><trkpt lat="45.1278910964373" lon="9.994429631790544"><ele>28.0</ele><time>2026-03-22T11:28:59.999Z</time></trkpt><trkpt lat="45.127946552292485" lon="9.994479679066393"><ele>28.0</ele><time>2026-03-22T11:29:00.999Z</time></trkpt><trkpt lat="45.12800524131287" lon="9.99452741161502"><ele>28.0</ele><time>2026-03-22T11:29:01.999Z</time></trkpt><trkpt lat="45.12806282953785" lon="9.99457389897313"><ele>28.0</ele><time>2026-03-22T11:29:02.999Z</time></trkpt><trkpt lat="45.12812108314662" lon="9.994623590419897"><ele>28.0</ele><time>2026-03-22T11:29:03.999Z</time></trkpt><trkpt lat="45.12817862818638" lon="9.994670111444771"><ele>28.0</ele><time>2026-03-22T11:29:04.999Z</time></trkpt><trkpt lat="45.128237230443965" lon="9.99471957111679"><ele>28.0</ele><time>2026-03-22T11:29:05.999Z</time></trkpt><trkpt lat="45.12829592330641" lon="9.994770447513512"><ele>28.0</ele><time>2026-03-22T11:29:06.999Z</time></trkpt><trkpt lat="45.128353555308095" lon="9.994820633859756"><ele>28.0</ele><time>2026-03-22T11:29:07.999Z</time></trkpt><trkpt lat="45.12841294247547" lon="9.994867509446546"><ele>28.0</ele><time>2026-03-22T11:29:08.999Z</time></trkpt><trkpt lat="45.12847037542162" lon="9.994916309168348"><ele>28.0</ele><time>2026-03-22T11:29:09.999Z</time></trkpt><trkpt lat="45.128528326353795" lon="9.994966908620153"><ele>28.0</ele><time>2026-03-22T11:29:10.999Z</time></trkpt><trkpt lat="45.12858287396991" lon="9.995014118741116"><ele>28.714285714285715</ele><time>2026-03-22T11:29:11.999Z</time></trkpt><trkpt lat="45.12864033821759" lon="9.995063093238869"><ele>29.42857142857143</ele><time>2026-03-22T11:29:12.999Z</time></trkpt><trkpt lat="45.128696455132086" lon="9.995114390488201"><ele>30.142857142857142</ele><time>2026-03-22T11:29:13.999Z</time></trkpt><trkpt lat="45.128754078900954" lon="9.995161920264065"><ele>30.857142857142858</ele><time>2026-03-22T11:29:14.999Z</time></trkpt><trkpt lat="45.128812509245556" lon="9.995213656209913"><ele>31.571428571428573</ele><time>2026-03-22T11:29:15.999Z</time></trkpt><trkpt lat="45.12886964121956" lon="9.995261819496374"><ele>32.285714285714285</ele><time>2026-03-22T11:29:16.999Z</time></trkpt><trkpt lat="45.128926377643694" lon="9.995311310333895"><ele>33.0</ele><time>2026-03-22T11:29:17.999Z</time></trkpt><trkpt lat="45.128984369735285" lon="9.995361860633789"><ele>33.0</ele><time>2026-03-22T11:29:18.999Z</time></trkpt><trkpt lat="45.12904535732286" lon="9.995404865441682"><ele>33.0</ele><time>2026-03-22T11:29:19.999Z</time></trkpt><trkpt lat="45.129100808927944" lon="9.99545662974156"><ele>33.0</ele><time>2026-03-22T11:29:20.999Z</time></trkpt><trkpt lat="45.12915650039458" lon="9.995506233561212"><ele>33.0</ele><time>2026-03-22T11:29:21.999Z</time></trkpt><trkpt lat="45.12921284301708" lon="9.995555133516673"><ele>33.0</ele><time>2026-03-22T11:29:22.999Z</time></trkpt><trkpt lat="45.12926887969895" lon="9.995603668358944"><ele>33.0</ele><time>2026-03-22T11:29:23.999Z</time></trkpt><trkpt lat="45.12932584518129" lon="9.995652179599757"><ele>33.0</ele><time>2026-03-22T11:29:24.999Z</time></trkpt><trkpt lat="45.12938007485384" lon="9.99570515557547"><ele>33.333333333333336</ele><time>2026-03-22T11:29:25.999Z</time></trkpt><trkpt lat="45.12943703284245" lon="9.995755065435585"><ele>33.666666666666664</ele><time>2026-03-22T11:29:26.999Z</time></trkpt><trkpt lat="45.129492489488165" lon="9.995805733470332"><ele>34.0</ele><time>2026-03-22T11:29:27.999Z</time></trkpt><trkpt lat="45.129548879256035" lon="9.995852819139781"><ele>34.33333333333333</ele><time>2026-03-22T11:29:28.999Z</time></trkpt><trkpt lat="45.12965473490046" lon="9.995948400108656"><ele>34.666666666666664</ele><time>2026-03-22T11:29:30.999Z</time></trkpt><trkpt lat="45.129749221695114" lon="9.996034171795838"><ele>35.0</ele><time>2026-03-22T11:29:32.999Z</time></trkpt><trkpt lat="45.12984604701309" lon="9.99611601491676"><ele>35.5</ele><time>2026-03-22T11:29:34.999Z</time></trkpt><trkpt lat="45.12991156307932" lon="9.996248971949703"><ele>36.0</ele><time>2026-03-22T11:29:36.999Z</time></trkpt><trkpt lat="45.12997679159261" lon="9.996396663329127"><ele>36.5</ele><time>2026-03-22T11:29:38.999Z</time></trkpt><trkpt lat="45.13000665993151" lon="9.996477088935176"><ele>37.0</ele><time>2026-03-22T11:29:39.999Z</time></trkpt><trkpt lat="45.13002484082405" lon="9.996564560411409"><ele>37.5</ele><time>2026-03-22T11:29:40.998Z</time></trkpt><trkpt lat="45.13003732427354" lon="9.996655187474904"><ele>38.0</ele><time>2026-03-22T11:29:41.998Z</time></trkpt><trkpt lat="45.13005090635674" lon="9.996829666309958"><ele>38.4</ele><time>2026-03-22T11:29:43.998Z</time></trkpt><trkpt lat="45.13006577755844" lon="9.9969214959462"><ele>38.8</ele><time>2026-03-22T11:29:44.998Z</time></trkpt><trkpt lat="45.130090621532986" lon="9.997102366977256"><ele>39.2</ele><time>2026-03-22T11:29:46.998Z</time></trkpt><trkpt lat="45.13010260396482" lon="9.997192188143448"><ele>39.6</ele><time>2026-03-22T11:29:47.998Z</time></trkpt><trkpt lat="45.13012630256556" lon="9.99736008338986"><ele>40.0</ele><time>2026-03-22T11:29:49.998Z</time></trkpt><trkpt lat="45.130150192065564" lon="9.997539130221208"><ele>40.0</ele><time>2026-03-22T11:29:51.998Z</time></trkpt><trkpt lat="45.13016259845279" lon="9.997631684425036"><ele>40.0</ele><time>2026-03-22T11:29:52.998Z</time></trkpt><trkpt lat="45.13017308570684" lon="9.997727594204365"><ele>40.0</ele><time>2026-03-22T11:29:54Z</time></trkpt><trkpt lat="45.13018012774161" lon="9.997826727792747"><ele>40.0</ele><time>2026-03-22T11:29:55Z</time></trkpt><trkpt lat="45.13018844230184" lon="9.997916363050415"><ele>40.0</ele><time>2026-03-22T11:29:56Z</time></trkpt><trkpt lat="45.130194885196204" lon="9.998011238280732"><ele>40.0</ele><time>2026-03-22T11:29:57Z</time></trkpt><trkpt lat="45.13020430065292" lon="9.998111257502988"><ele>40.0</ele><time>2026-03-22T11:29:58Z</time></trkpt><trkpt lat="45.13021280239154" lon="9.998205835360562"><ele>40.0</ele><time>2026-03-22T11:29:59Z</time></trkpt><trkpt lat="45.13022680982612" lon="9.998298683468942"><ele>40.0</ele><time>2026-03-22T11:30:00Z</time></trkpt><trkpt lat="45.13023926305043" lon="9.99839549268304"><ele>40.0</ele><time>2026-03-22T11:30:01Z</time></trkpt><trkpt lat="45.13024831678571" lon="9.998493145489357"><ele>40.0</ele><time>2026-03-22T11:30:02Z</time></trkpt><trkpt lat="45.13025988053232" lon="9.998591086941609"><ele>40.0</ele><time>2026-03-22T11:30:03Z</time></trkpt><trkpt lat="45.1302711907294" lon="9.998690033194839"><ele>40.0</ele><time>2026-03-22T11:30:04Z</time></trkpt><trkpt lat="45.130280557623784" lon="9.998784943479679"><ele>40.0</ele><time>2026-03-22T11:30:05Z</time></trkpt><trkpt lat="45.13029279041132" lon="9.998886075121563"><ele>40.14285714285714</ele><time>2026-03-22T11:30:06Z</time></trkpt><trkpt lat="45.130306449981326" lon="9.998985797236397"><ele>40.285714285714285</ele><time>2026-03-22T11:30:07Z</time></trkpt><trkpt lat="45.13031920162379" lon="9.999086099377308"><ele>40.42857142857143</ele><time>2026-03-22T11:30:08Z</time></trkpt><trkpt lat="45.13032935211835" lon="9.99918409483218"><ele>40.57142857142857</ele><time>2026-03-22T11:30:09Z</time></trkpt><trkpt lat="45.1303392344977" lon="9.999284342542635"><ele>40.714285714285715</ele><time>2026-03-22T11:30:10Z</time></trkpt><trkpt lat="45.130347449179936" lon="9.99938377006694"><ele>40.857142857142854</ele><time>2026-03-22T11:30:11Z</time></trkpt><trkpt lat="45.13035879405605" lon="9.999481606964078"><ele>41.0</ele><time>2026-03-22T11:30:12Z</time></trkpt><trkpt lat="45.130372823449" lon="9.999581517943497"><ele>40.99999999999999</ele><time>2026-03-22T11:30:13Z</time></trkpt><trkpt lat="45.13038418305822" lon="9.999682914756068"><ele>41.0</ele><time>2026-03-22T11:30:14Z</time></trkpt><trkpt lat="45.130393403057056" lon="9.999785170957688"><ele>41.0</ele><time>2026-03-22T11:30:15Z</time></trkpt><trkpt lat="45.13040488931814" lon="9.99988031119755"><ele>41.0</ele><time>2026-03-22T11:30:16Z</time></trkpt><trkpt lat="45.13041233763241" lon="9.99997633586643"><ele>41.0</ele><time>2026-03-22T11:30:17Z</time></trkpt><trkpt lat="45.130421154544365" lon="10.00007035835479"><ele>40.99999999999999</ele><time>2026-03-22T11:30:18Z</time></trkpt><trkpt lat="45.13043254735875" lon="10.000159277173514"><ele>41.0</ele><time>2026-03-22T11:30:19Z</time></trkpt><trkpt lat="45.13044079068877" lon="10.000250400016409"><ele>41.0</ele><time>2026-03-22T11:30:20Z</time></trkpt><trkpt lat="45.13045130817174" lon="10.000425036698358"><ele>41.0</ele><time>2026-03-22T11:30:22Z</time></trkpt><trkpt lat="45.130441503598725" lon="10.000596793487466"><ele>41.0</ele><time>2026-03-22T11:30:24Z</time></trkpt><trkpt lat="45.13040528518548" lon="10.00075386472741"><ele>41.0</ele><time>2026-03-22T11:30:26Z</time></trkpt><trkpt lat="45.13035790841832" lon="10.000890947829802"><ele>40.8</ele><time>2026-03-22T11:30:28Z</time></trkpt><trkpt lat="45.13032698254973" lon="10.001034772306573"><ele>40.599999999999994</ele><time>2026-03-22T11:30:30Z</time></trkpt><trkpt lat="45.130289477171246" lon="10.001158493232637"><ele>40.4</ele><time>2026-03-22T11:30:32Z</time></trkpt><trkpt lat="45.13023131679196" lon="10.001261753140717"><ele>40.2</ele><time>2026-03-22T11:30:34Z</time></trkpt><trkpt lat="45.1301918281426" lon="10.00135880564913"><ele>40.0</ele><time>2026-03-22T11:30:36Z</time></trkpt><trkpt lat="45.13009351272991" lon="10.001361365418878"><ele>40.0</ele><time>2026-03-22T11:30:38Z</time></trkpt><trkpt lat="45.13007855511867" lon="10.001468467249445"><ele>40.0</ele><time>2026-03-22T11:30:41Z</time></trkpt><trkpt lat="45.13006622317422" lon="10.001582216293002"><ele>40.0</ele><time>2026-03-22T11:32:21Z</time></trkpt><trkpt lat="45.13004298558398" lon="10.001682357110687"><ele>40.0</ele><time>2026-03-22T11:32:24Z</time></trkpt><trkpt lat="45.13000685644715" lon="10.001774395363892"><ele>40.0</ele><time>2026-03-22T11:32:26Z</time></trkpt><trkpt lat="45.12996164285128" lon="10.001888357256139"><ele>40.0</ele><time>2026-03-22T11:32:28Z</time></trkpt><trkpt lat="45.12990903729042" lon="10.002020451195587"><ele>39.4</ele><time>2026-03-22T11:32:30Z</time></trkpt><trkpt lat="45.12985139658232" lon="10.00216999236844"><ele>38.8</ele><time>2026-03-22T11:32:32Z</time></trkpt><trkpt lat="45.12979080189432" lon="10.002316164783931"><ele>38.2</ele><time>2026-03-22T11:32:34Z</time></trkpt><trkpt lat="45.129728726436326" lon="10.00246764438071"><ele>37.6</ele><time>2026-03-22T11:32:36Z</time></trkpt><trkpt lat="45.12969484316712" lon="10.00254739946651"><ele>37.0</ele><time>2026-03-22T11:32:37Z</time></trkpt><trkpt lat="45.12966126430991" lon="10.00262949117203"><ele>37.0</ele><time>2026-03-22T11:32:38Z</time></trkpt><trkpt lat="45.129627368440964" lon="10.002712532615874"><ele>37.0</ele><time>2026-03-22T11:32:39Z</time></trkpt><trkpt lat="45.129595702041044" lon="10.002791218943749"><ele>37.0</ele><time>2026-03-22T11:32:40Z</time></trkpt><trkpt lat="45.1295612336538" lon="10.002868795898273"><ele>37.0</ele><time>2026-03-22T11:32:41Z</time></trkpt><trkpt lat="45.1294992709516" lon="10.00301996281578"><ele>37.0</ele><time>2026-03-22T11:32:43Z</time></trkpt><trkpt lat="45.129467161353396" lon="10.00309806213098"><ele>37.0</ele><time>2026-03-22T11:32:44Z</time></trkpt><trkpt lat="45.12943453053829" lon="10.003176597250702"><ele>37.0</ele><time>2026-03-22T11:32:45Z</time></trkpt><trkpt lat="45.12940135064209" lon="10.003257466567707"><ele>37.42857142857143</ele><time>2026-03-22T11:32:46Z</time></trkpt><trkpt lat="45.129368219722764" lon="10.003336236325286"><ele>37.857142857142854</ele><time>2026-03-22T11:32:47Z</time></trkpt><trkpt lat="45.1293350033942" lon="10.003416504610499"><ele>38.285714285714285</ele><time>2026-03-22T11:32:48Z</time></trkpt><trkpt lat="45.12930156237118" lon="10.003494851684362"><ele>38.714285714285715</ele><time>2026-03-22T11:32:49Z</time></trkpt><trkpt lat="45.12926946257611" lon="10.003575762800434"><ele>39.142857142857146</ele><time>2026-03-22T11:32:50Z</time></trkpt><trkpt lat="45.129235831002376" lon="10.003654779031313"><ele>39.57142857142857</ele><time>2026-03-22T11:32:51Z</time></trkpt><trkpt lat="45.12920255328988" lon="10.003734447267709"><ele>40.0</ele><time>2026-03-22T11:32:52Z</time></trkpt><trkpt lat="45.12916928925543" lon="10.003812434344201"><ele>40.0</ele><time>2026-03-22T11:32:53Z</time></trkpt><trkpt lat="45.12913661230819" lon="10.003894126272757"><ele>40.0</ele><time>2026-03-22T11:32:54Z</time></trkpt><trkpt lat="45.12910367931932" lon="10.003973430886465"><ele>40.0</ele><time>2026-03-22T11:32:55Z</time></trkpt><trkpt lat="45.12907034036903" lon="10.004053278246895"><ele>40.0</ele><time>2026-03-22T11:32:56Z</time></trkpt><trkpt lat="45.12903920642586" lon="10.004136052711248"><ele>40.0</ele><time>2026-03-22T11:32:57Z</time></trkpt><trkpt lat="45.12900573710873" lon="10.004219039009778"><ele>40.0</ele><time>2026-03-22T11:32:57.999Z</time></trkpt><trkpt lat="45.12897117830943" lon="10.00430123943511"><ele>40.0</ele><time>2026-03-22T11:32:58.999Z</time></trkpt><trkpt lat="45.12893852862198" lon="10.004384622231463"><ele>39.0</ele><time>2026-03-22T11:32:59.999Z</time></trkpt><trkpt lat="45.128905278176326" lon="10.004468782431884"><ele>38.0</ele><time>2026-03-22T11:33:00.999Z</time></trkpt><trkpt lat="45.12887267134696" lon="10.004553324657564"><ele>37.0</ele><time>2026-03-22T11:33:01.999Z</time></trkpt><trkpt lat="45.128841504982596" lon="10.004637622679512"><ele>36.0</ele><time>2026-03-22T11:33:02.999Z</time></trkpt><trkpt lat="45.128809861841916" lon="10.004721031335514"><ele>35.0</ele><time>2026-03-22T11:33:03.999Z</time></trkpt><trkpt lat="45.12877817854924" lon="10.004804939797745"><ele>34.0</ele><time>2026-03-22T11:33:04.999Z</time></trkpt><trkpt lat="45.12874773908838" lon="10.004890411542757"><ele>33.0</ele><time>2026-03-22T11:33:05.999Z</time></trkpt><trkpt lat="45.128717641646276" lon="10.004977793084413"><ele>33.14285714285714</ele><time>2026-03-22T11:33:06.999Z</time></trkpt><trkpt lat="45.12868822966747" lon="10.005063493838534"><ele>33.285714285714285</ele><time>2026-03-22T11:33:07.999Z</time></trkpt><trkpt lat="45.12865722746387" lon="10.005150745086084"><ele>33.42857142857143</ele><time>2026-03-22T11:33:08.999Z</time></trkpt><trkpt lat="45.12862671657667" lon="10.005237289107889"><ele>33.57142857142857</ele><time>2026-03-22T11:33:09.999Z</time></trkpt><trkpt lat="45.12859505025875" lon="10.005324121343099"><ele>33.714285714285715</ele><time>2026-03-22T11:33:10.999Z</time></trkpt><trkpt lat="45.128563623905215" lon="10.00541107442364"><ele>33.857142857142854</ele><time>2026-03-22T11:33:11.999Z</time></trkpt><trkpt lat="45.12853232254551" lon="10.005497944706654"><ele>34.0</ele><time>2026-03-22T11:33:12.999Z</time></trkpt><trkpt lat="45.12850229458987" lon="10.005581112637016"><ele>34.0</ele><time>2026-03-22T11:33:13.999Z</time></trkpt><trkpt lat="45.12847349400434" lon="10.005665563255391"><ele>34.0</ele><time>2026-03-22T11:33:14.999Z</time></trkpt><trkpt lat="45.12844545876165" lon="10.005747760991195"><ele>34.0</ele><time>2026-03-22T11:33:15.999Z</time></trkpt><trkpt lat="45.128417019180795" lon="10.005830400785907"><ele>34.0</ele><time>2026-03-22T11:33:16.999Z</time></trkpt><trkpt lat="45.128365868405425" lon="10.005991241494975"><ele>34.0</ele><time>2026-03-22T11:33:18.999Z</time></trkpt><trkpt lat="45.12831168700576" lon="10.006149765640533"><ele>34.0</ele><time>2026-03-22T11:33:20.999Z</time></trkpt><trkpt lat="45.128282987683505" lon="10.006233197232882"><ele>34.285714285714285</ele><time>2026-03-22T11:33:21.999Z</time></trkpt><trkpt lat="45.12825059355463" lon="10.006315784165364"><ele>34.57142857142857</ele><time>2026-03-22T11:33:22.999Z</time></trkpt><trkpt lat="45.12822008381964" lon="10.00640430099322"><ele>34.85714285714286</ele><time>2026-03-22T11:33:23.999Z</time></trkpt><trkpt lat="45.12818952074073" lon="10.006491709806856"><ele>35.14285714285714</ele><time>2026-03-22T11:33:24.999Z</time></trkpt><trkpt lat="45.12816018287009" lon="10.006579470515206"><ele>35.42857142857143</ele><time>2026-03-22T11:33:25.999Z</time></trkpt><trkpt lat="45.1281324148669" lon="10.006668674581663"><ele>35.714285714285715</ele><time>2026-03-22T11:33:26.999Z</time></trkpt><trkpt lat="45.12810183477434" lon="10.00675812262755"><ele>36.0</ele><time>2026-03-22T11:33:27.999Z</time></trkpt><trkpt lat="45.128071349284006" lon="10.006848406838488"><ele>36.00000000000001</ele><time>2026-03-22T11:33:28.999Z</time></trkpt><trkpt lat="45.128025333961965" lon="10.00692773340868"><ele>36.0</ele><time>2026-03-22T11:33:29.999Z</time></trkpt><trkpt lat="45.12799412458847" lon="10.007017674621883"><ele>36.0</ele><time>2026-03-22T11:33:30.999Z</time></trkpt><trkpt lat="45.12797794916737" lon="10.007115660360778"><ele>36.0</ele><time>2026-03-22T11:33:31.999Z</time></trkpt><trkpt lat="45.12794756240861" lon="10.007202840978481"><ele>36.0</ele><time>2026-03-22T11:33:32.999Z</time></trkpt><trkpt lat="45.12791795405657" lon="10.007290311904548"><ele>36.00000000000001</ele><time>2026-03-22T11:33:33.999Z</time></trkpt><trkpt lat="45.12787286810228" lon="10.007367119478975"><ele>36.0</ele><time>2026-03-22T11:33:34.999Z</time></trkpt><trkpt lat="45.127843597030314" lon="10.007451474763958"><ele>36.00000000000001</ele><time>2026-03-22T11:33:35.999Z</time></trkpt><trkpt lat="45.12781453905401" lon="10.007535426782452"><ele>36.0</ele><time>2026-03-22T11:33:36.999Z</time></trkpt><trkpt lat="45.12778498629401" lon="10.007621320565377"><ele>36.0</ele><time>2026-03-22T11:33:37.999Z</time></trkpt><trkpt lat="45.12775531234257" lon="10.0077095360623"><ele>36.0</ele><time>2026-03-22T11:33:38.999Z</time></trkpt><trkpt lat="45.127726574345765" lon="10.007794969130698"><ele>36.0</ele><time>2026-03-22T11:33:39.999Z</time></trkpt><trkpt lat="45.12769817135774" lon="10.007879406284703"><ele>36.00000000000001</ele><time>2026-03-22T11:33:40.999Z</time></trkpt><trkpt lat="45.12766859599555" lon="10.007967328684819"><ele>36.0</ele><time>2026-03-22T11:33:41.999Z</time></trkpt><trkpt lat="45.127638476246304" lon="10.008056869462926"><ele>36.00000000000001</ele><time>2026-03-22T11:33:42.999Z</time></trkpt><trkpt lat="45.12760824107854" lon="10.008145712725373"><ele>36.0</ele><time>2026-03-22T11:33:43.999Z</time></trkpt><trkpt lat="45.12757776228474" lon="10.00823429490653"><ele>36.0</ele><time>2026-03-22T11:33:44.999Z</time></trkpt><trkpt lat="45.12754690252891" lon="10.00832398429701"><ele>36.0</ele><time>2026-03-22T11:33:45.999Z</time></trkpt><trkpt lat="45.12751530957678" lon="10.008415804613817"><ele>36.0</ele><time>2026-03-22T11:33:46.999Z</time></trkpt><trkpt lat="45.12748415582221" lon="10.0085063484743"><ele>36.00000000000001</ele><time>2026-03-22T11:33:47.999Z</time></trkpt><trkpt lat="45.12745261773074" lon="10.008600860297413"><ele>36.0</ele><time>2026-03-22T11:33:48.999Z</time></trkpt><trkpt lat="45.12743743230266" lon="10.008703186217819"><ele>36.0</ele><time>2026-03-22T11:33:49.999Z</time></trkpt><trkpt lat="45.12740756775705" lon="10.008793694610816"><ele>36.0</ele><time>2026-03-22T11:33:50.998Z</time></trkpt><trkpt lat="45.12737853644142" lon="10.008880715868191"><ele>36.0</ele><time>2026-03-22T11:33:51.998Z</time></trkpt><trkpt lat="45.12735168150275" lon="10.008966637277261"><ele>36.0</ele><time>2026-03-22T11:33:52.998Z</time></trkpt><trkpt lat="45.12732204523444" lon="10.00904955120228"><ele>36.0</ele><time>2026-03-22T11:33:53.998Z</time></trkpt><trkpt lat="45.12729423334989" lon="10.009131446465219"><ele>36.0</ele><time>2026-03-22T11:33:54.998Z</time></trkpt><trkpt lat="45.12723960752821" lon="10.009286986521099"><ele>36.2</ele><time>2026-03-22T11:33:56.998Z</time></trkpt><trkpt lat="45.127176769136064" lon="10.009409675746886"><ele>36.400000000000006</ele><time>2026-03-22T11:33:58.998Z</time></trkpt><trkpt lat="45.127124354540335" lon="10.009501656094747"><ele>36.6</ele><time>2026-03-22T11:34:00.998Z</time></trkpt><trkpt lat="45.12702037030655" lon="10.009412841120483"><ele>36.800000000000004</ele><time>2026-03-22T11:34:02.998Z</time></trkpt><trkpt lat="45.12694166832123" lon="10.009410661279945"><ele>37.0</ele><time>2026-03-22T11:34:03.998Z</time></trkpt><trkpt lat="45.12684823665188" lon="10.009308931059259"><ele>37.0</ele><time>2026-03-22T11:34:06Z</time></trkpt><trkpt lat="45.1267967552821" lon="10.009253236719495"><ele>37.0</ele><time>2026-03-22T11:34:07Z</time></trkpt><trkpt lat="45.1267443041185" lon="10.009196493309116"><ele>37.0</ele><time>2026-03-22T11:34:08Z</time></trkpt><trkpt lat="45.12664665553751" lon="10.009091208959148"><ele>37.0</ele><time>2026-03-22T11:34:10Z</time></trkpt><trkpt lat="45.12658869812787" lon="10.009028745400514"><ele>37.0</ele><time>2026-03-22T11:34:11Z</time></trkpt><trkpt lat="45.12652836107017" lon="10.008963717210522"><ele>37.0</ele><time>2026-03-22T11:34:12Z</time></trkpt><trkpt lat="45.12646641750977" lon="10.008897647096251"><ele>37.285714285714285</ele><time>2026-03-22T11:34:13Z</time></trkpt><trkpt lat="45.12640514890951" lon="10.00883284815225"><ele>37.57142857142857</ele><time>2026-03-22T11:34:14Z</time></trkpt><trkpt lat="45.12634303466072" lon="10.008767154776743"><ele>37.85714285714286</ele><time>2026-03-22T11:34:15Z</time></trkpt><trkpt lat="45.12628091579342" lon="10.00870145649904"><ele>38.14285714285714</ele><time>2026-03-22T11:34:16Z</time></trkpt><trkpt lat="45.12622202689287" lon="10.008639174269247"><ele>38.42857142857142</ele><time>2026-03-22T11:34:17Z</time></trkpt><trkpt lat="45.12616557882625" lon="10.008579473934212"><ele>38.714285714285715</ele><time>2026-03-22T11:34:18Z</time></trkpt><trkpt lat="45.126109714575435" lon="10.008519753664807"><ele>39.0</ele><time>2026-03-22T11:34:19Z</time></trkpt><trkpt lat="45.1260555087618" lon="10.00846208427664"><ele>39.0</ele><time>2026-03-22T11:34:20Z</time></trkpt><trkpt lat="45.12600243261227" lon="10.008406136066473"><ele>39.0</ele><time>2026-03-22T11:34:21Z</time></trkpt><trkpt lat="45.12595064424402" lon="10.008351542237664"><ele>39.0</ele><time>2026-03-22T11:34:22Z</time></trkpt><trkpt lat="45.125896729019544" lon="10.008294706332507"><ele>39.0</ele><time>2026-03-22T11:34:23Z</time></trkpt><trkpt lat="45.125842047767435" lon="10.008237062901966"><ele>39.0</ele><time>2026-03-22T11:34:24Z</time></trkpt><trkpt lat="45.12578548274938" lon="10.008177433658936"><ele>39.0</ele><time>2026-03-22T11:34:25Z</time></trkpt><trkpt lat="45.12572856365793" lon="10.008117431158379"><ele>39.0</ele><time>2026-03-22T11:34:26Z</time></trkpt><trkpt lat="45.1256727293985" lon="10.008058600342979"><ele>38.333333333333336</ele><time>2026-03-22T11:34:27Z</time></trkpt><trkpt lat="45.125619044648275" lon="10.008002132284204"><ele>37.666666666666664</ele><time>2026-03-22T11:34:28Z</time></trkpt><trkpt lat="45.12556120423847" lon="10.00794129311824"><ele>37.0</ele><time>2026-03-22T11:34:29Z</time></trkpt><trkpt lat="45.12554573793238" lon="10.007815561556496"><ele>36.33333333333333</ele><time>2026-03-22T11:34:30Z</time></trkpt><trkpt lat="45.12549302771275" lon="10.007763854868768"><ele>35.666666666666664</ele><time>2026-03-22T11:34:31Z</time></trkpt><trkpt lat="45.12538737137275" lon="10.007664415154133"><ele>35.0</ele><time>2026-03-22T11:34:33Z</time></trkpt><trkpt lat="45.125333128042044" lon="10.007617839829878"><ele>35.0</ele><time>2026-03-22T11:34:34Z</time></trkpt><trkpt lat="45.12523843930905" lon="10.007515037807783"><ele>35.0</ele><time>2026-03-22T11:34:36Z</time></trkpt><trkpt lat="45.12514869385823" lon="10.00741712160999"><ele>35.0</ele><time>2026-03-22T11:34:38Z</time></trkpt><trkpt lat="45.125026061273225" lon="10.007379853308988"><ele>35.0</ele><time>2026-03-22T11:34:40Z</time></trkpt><trkpt lat="45.124933548185666" lon="10.007283180794882"><ele>36.2</ele><time>2026-03-22T11:34:42Z</time></trkpt><trkpt lat="45.12483827925041" lon="10.007182617442023"><ele>37.4</ele><time>2026-03-22T11:34:44Z</time></trkpt><trkpt lat="45.124755910108014" lon="10.007095670763322"><ele>38.599999999999994</ele><time>2026-03-22T11:34:46Z</time></trkpt><trkpt lat="45.12468825946493" lon="10.007024260550349"><ele>39.8</ele><time>2026-03-22T11:34:48Z</time></trkpt><trkpt lat="45.124560879722395" lon="10.0070261168139"><ele>41.0</ele><time>2026-03-22T11:34:51Z</time></trkpt><trkpt lat="45.124526200941474" lon="10.007142928369884"><ele>41.0</ele><time>2026-03-22T11:34:53Z</time></trkpt><trkpt lat="45.12448848407333" lon="10.007267178319829"><ele>41.0</ele><time>2026-03-22T11:34:55Z</time></trkpt><trkpt lat="45.1244460956568" lon="10.007403071710137"><ele>41.0</ele><time>2026-03-22T11:34:57Z</time></trkpt><trkpt lat="45.12440318698288" lon="10.007540632995756"><ele>41.0</ele><time>2026-03-22T11:34:59Z</time></trkpt><trkpt lat="45.124359638711" lon="10.007679059341791"><ele>41.0</ele><time>2026-03-22T11:35:00.999Z</time></trkpt><trkpt lat="45.1243124647994" lon="10.007825667354146"><ele>40.0</ele><time>2026-03-22T11:35:02.999Z</time></trkpt><trkpt lat="45.12426380335706" lon="10.007972767545162"><ele>39.0</ele><time>2026-03-22T11:35:04.999Z</time></trkpt><trkpt lat="45.124215483886886" lon="10.00811848886206"><ele>38.0</ele><time>2026-03-22T11:35:06.999Z</time></trkpt><trkpt lat="45.12417741708161" lon="10.008268713205807"><ele>37.0</ele><time>2026-03-22T11:35:08.999Z</time></trkpt><trkpt lat="45.12412899107418" lon="10.008419479973195"><ele>36.6</ele><time>2026-03-22T11:35:10.999Z</time></trkpt><trkpt lat="45.12407822979553" lon="10.008578512720161"><ele>36.2</ele><time>2026-03-22T11:35:12.999Z</time></trkpt><trkpt lat="45.12402279654203" lon="10.008736103003562"><ele>35.8</ele><time>2026-03-22T11:35:14.999Z</time></trkpt><trkpt lat="45.12398178281527" lon="10.008805116775527"><ele>35.4</ele><time>2026-03-22T11:35:15.999Z</time></trkpt><trkpt lat="45.12394548689072" lon="10.008973215006785"><ele>35.0</ele><time>2026-03-22T11:35:17.999Z</time></trkpt><trkpt lat="45.123892420847696" lon="10.009134598320944"><ele>35.0</ele><time>2026-03-22T11:35:19.999Z</time></trkpt><trkpt lat="45.12383846970206" lon="10.009293740794508"><ele>35.0</ele><time>2026-03-22T11:35:21.999Z</time></trkpt><trkpt lat="45.1237866436853" lon="10.009452263171285"><ele>35.0</ele><time>2026-03-22T11:35:23.999Z</time></trkpt><trkpt lat="45.123734739838866" lon="10.009612069983913"><ele>35.0</ele><time>2026-03-22T11:35:25.999Z</time></trkpt><trkpt lat="45.12368033317962" lon="10.009773069872105"><ele>35.0</ele><time>2026-03-22T11:35:27.999Z</time></trkpt><trkpt lat="45.12362955753338" lon="10.009930274481125"><ele>35.0</ele><time>2026-03-22T11:35:29.999Z</time></trkpt><trkpt lat="45.12357493650339" lon="10.010090146434184"><ele>35.0</ele><time>2026-03-22T11:35:31.999Z</time></trkpt><trkpt lat="45.12352244823003" lon="10.010250592730715"><ele>35.0</ele><time>2026-03-22T11:35:33.999Z</time></trkpt><trkpt lat="45.12349435345478" lon="10.010334838313648"><ele>35.0</ele><time>2026-03-22T11:35:34.999Z</time></trkpt><trkpt lat="45.12346760622075" lon="10.010416702316903"><ele>34.8</ele><time>2026-03-22T11:35:35.999Z</time></trkpt><trkpt lat="45.12341601268427" lon="10.010579451139455"><ele>34.6</ele><time>2026-03-22T11:35:37.999Z</time></trkpt><trkpt lat="45.12336261254451" lon="10.010740306722987"><ele>34.4</ele><time>2026-03-22T11:35:39.999Z</time></trkpt><trkpt lat="45.12333740134971" lon="10.010822747616809"><ele>34.2</ele><time>2026-03-22T11:35:40.999Z</time></trkpt><trkpt lat="45.123283473988465" lon="10.010980873769826"><ele>34.0</ele><time>2026-03-22T11:35:42.999Z</time></trkpt><trkpt lat="45.12325798174471" lon="10.011062586299722"><ele>34.0</ele><time>2026-03-22T11:35:43.999Z</time></trkpt><trkpt lat="45.12320513312983" lon="10.011225758859473"><ele>34.0</ele><time>2026-03-22T11:35:45.999Z</time></trkpt><trkpt lat="45.123126243305904" lon="10.011366900785614"><ele>34.0</ele><time>2026-03-22T11:35:47.999Z</time></trkpt><trkpt lat="45.123072951244644" lon="10.011525986448216"><ele>34.0</ele><time>2026-03-22T11:35:49.999Z</time></trkpt><trkpt lat="45.12302011542472" lon="10.011683857072828"><ele>34.0</ele><time>2026-03-22T11:35:51.999Z</time></trkpt><trkpt lat="45.12296706617254" lon="10.011842468981195"><ele>34.0</ele><time>2026-03-22T11:35:53.999Z</time></trkpt><trkpt lat="45.12291345951253" lon="10.012002747482802"><ele>34.0</ele><time>2026-03-22T11:35:55.998Z</time></trkpt><trkpt lat="45.12286034594056" lon="10.012163003025297"><ele>34.0</ele><time>2026-03-22T11:35:57.998Z</time></trkpt><trkpt lat="45.122851249162856" lon="10.012257449114873"><ele>34.0</ele><time>2026-03-22T11:35:58.998Z</time></trkpt><trkpt lat="45.12282247197151" lon="10.012338815521646"><ele>33.99999999999999</ele><time>2026-03-22T11:35:59.998Z</time></trkpt><trkpt lat="45.12279357902532" lon="10.012420865193324"><ele>34.0</ele><time>2026-03-22T11:36:00.998Z</time></trkpt><trkpt lat="45.122764646731504" lon="10.012501883403667"><ele>34.0</ele><time>2026-03-22T11:36:01.998Z</time></trkpt><trkpt lat="45.12273567628326" lon="10.012581493890057"><ele>34.0</ele><time>2026-03-22T11:36:02.998Z</time></trkpt><trkpt lat="45.12270596654812" lon="10.012663160628467"><ele>34.0</ele><time>2026-03-22T11:36:03.998Z</time></trkpt><trkpt lat="45.12267315425241" lon="10.012740084157548"><ele>33.99999999999999</ele><time>2026-03-22T11:36:04.998Z</time></trkpt><trkpt lat="45.12262184329379" lon="10.012803176585727"><ele>34.0</ele><time>2026-03-22T11:36:05.998Z</time></trkpt><trkpt lat="45.12258815223937" lon="10.012882976120148"><ele>33.71428571428571</ele><time>2026-03-22T11:36:06.998Z</time></trkpt><trkpt lat="45.122571370021085" lon="10.012971206552068"><ele>33.42857142857143</ele><time>2026-03-22T11:36:07.998Z</time></trkpt><trkpt lat="45.12253351636073" lon="10.013048542011294"><ele>33.14285714285714</ele><time>2026-03-22T11:36:08.998Z</time></trkpt><trkpt lat="45.1224985412795" lon="10.013125649045183"><ele>32.857142857142854</ele><time>2026-03-22T11:36:09.998Z</time></trkpt><trkpt lat="45.12246208587764" lon="10.01319902442925"><ele>32.57142857142857</ele><time>2026-03-22T11:36:10.998Z</time></trkpt><trkpt lat="45.12242241681999" lon="10.013272521395853"><ele>32.285714285714285</ele><time>2026-03-22T11:36:12Z</time></trkpt><trkpt lat="45.12238293526012" lon="10.013347709038946"><ele>32.0</ele><time>2026-03-22T11:36:13Z</time></trkpt><trkpt lat="45.12234076502823" lon="10.013417040966075"><ele>32.0</ele><time>2026-03-22T11:36:14Z</time></trkpt><trkpt lat="45.122297415318116" lon="10.013486650517844"><ele>31.999999999999996</ele><time>2026-03-22T11:36:15Z</time></trkpt><trkpt lat="45.12225420345247" lon="10.013558074279265"><ele>32.0</ele><time>2026-03-22T11:36:16Z</time></trkpt><trkpt lat="45.12218704345953" lon="10.013595145646887"><ele>32.0</ele><time>2026-03-22T11:36:17Z</time></trkpt><trkpt lat="45.12214321929603" lon="10.013666603930458"><ele>31.999999999999996</ele><time>2026-03-22T11:36:18Z</time></trkpt><trkpt lat="45.122100686353626" lon="10.013736227083218"><ele>32.0</ele><time>2026-03-22T11:36:19Z</time></trkpt><trkpt lat="45.122071426313695" lon="10.013825490118059"><ele>32.0</ele><time>2026-03-22T11:36:20Z</time></trkpt><trkpt lat="45.122025754634066" lon="10.013893754864275"><ele>32.0</ele><time>2026-03-22T11:36:21Z</time></trkpt><trkpt lat="45.12198126895462" lon="10.013967079782466"><ele>31.999999999999996</ele><time>2026-03-22T11:36:22Z</time></trkpt><trkpt lat="45.12193725590409" lon="10.014036790057355"><ele>32.0</ele><time>2026-03-22T11:36:23Z</time></trkpt><trkpt lat="45.121895234836735" lon="10.014109215111317"><ele>32.0</ele><time>2026-03-22T11:36:24Z</time></trkpt><trkpt lat="45.12185241621192" lon="10.014180901016019"><ele>31.999999999999996</ele><time>2026-03-22T11:36:25Z</time></trkpt><trkpt lat="45.12180973600909" lon="10.014250483220758"><ele>32.0</ele><time>2026-03-22T11:36:26Z</time></trkpt><trkpt lat="45.121766112975045" lon="10.014322668260633"><ele>32.0</ele><time>2026-03-22T11:36:27Z</time></trkpt><trkpt lat="45.121724902632806" lon="10.014395346192348"><ele>32.285714285714285</ele><time>2026-03-22T11:36:28Z</time></trkpt><trkpt lat="45.121681247008716" lon="10.014466979887043"><ele>32.57142857142857</ele><time>2026-03-22T11:36:29Z</time></trkpt><trkpt lat="45.12163799073265" lon="10.014536035890957"><ele>32.857142857142854</ele><time>2026-03-22T11:36:30Z</time></trkpt><trkpt lat="45.12159312789302" lon="10.014606965506111"><ele>33.14285714285714</ele><time>2026-03-22T11:36:31Z</time></trkpt><trkpt lat="45.12153000451486" lon="10.014654259920514"><ele>33.42857142857143</ele><time>2026-03-22T11:36:32Z</time></trkpt><trkpt lat="45.121485183162775" lon="10.014729505568154"><ele>33.71428571428571</ele><time>2026-03-22T11:36:33Z</time></trkpt><trkpt lat="45.121442508744245" lon="10.014801821107698"><ele>34.0</ele><time>2026-03-22T11:36:34Z</time></trkpt><trkpt lat="45.12139943508244" lon="10.014876606421693"><ele>33.99999999999999</ele><time>2026-03-22T11:36:35Z</time></trkpt><trkpt lat="45.12135759714774" lon="10.014949244570941"><ele>34.0</ele><time>2026-03-22T11:36:36Z</time></trkpt><trkpt lat="45.121327817137626" lon="10.01503789953295"><ele>34.0</ele><time>2026-03-22T11:36:37Z</time></trkpt><trkpt lat="45.12128505809751" lon="10.015109337576462"><ele>34.0</ele><time>2026-03-22T11:36:38Z</time></trkpt><trkpt lat="45.121240707941574" lon="10.015186440724861"><ele>34.0</ele><time>2026-03-22T11:36:39Z</time></trkpt><trkpt lat="45.12120080308508" lon="10.015263661013897"><ele>33.99999999999999</ele><time>2026-03-22T11:36:40Z</time></trkpt><trkpt lat="45.12114627730584" lon="10.015323780741218"><ele>34.0</ele><time>2026-03-22T11:36:41Z</time></trkpt><trkpt lat="45.1211038298107" lon="10.015399595472552"><ele>33.857142857142854</ele><time>2026-03-22T11:36:42Z</time></trkpt><trkpt lat="45.12106182191444" lon="10.015474786971971"><ele>33.714285714285715</ele><time>2026-03-22T11:36:43Z</time></trkpt><trkpt lat="45.12102006898795" lon="10.01555077850573"><ele>33.57142857142857</ele><time>2026-03-22T11:36:44Z</time></trkpt><trkpt lat="45.12099079407677" lon="10.01564074694877"><ele>33.42857142857143</ele><time>2026-03-22T11:36:45Z</time></trkpt><trkpt lat="45.12094910202399" lon="10.01571536585732"><ele>33.285714285714285</ele><time>2026-03-22T11:36:46Z</time></trkpt><trkpt lat="45.12090715948916" lon="10.015791701864432"><ele>33.14285714285714</ele><time>2026-03-22T11:36:47Z</time></trkpt><trkpt lat="45.12086708994882" lon="10.015867849817047"><ele>33.0</ele><time>2026-03-22T11:36:48Z</time></trkpt><trkpt lat="45.120826453858754" lon="10.015944757778762"><ele>33.0</ele><time>2026-03-22T11:36:49Z</time></trkpt><trkpt lat="45.120785603729615" lon="10.016021105702649"><ele>33.0</ele><time>2026-03-22T11:36:50Z</time></trkpt><trkpt lat="45.12073139794146" lon="10.016083897707508"><ele>33.0</ele><time>2026-03-22T11:36:51Z</time></trkpt><trkpt lat="45.12069054609749" lon="10.016159440412903"><ele>33.0</ele><time>2026-03-22T11:36:52Z</time></trkpt><trkpt lat="45.12064985463764" lon="10.016236453317696"><ele>33.0</ele><time>2026-03-22T11:36:53Z</time></trkpt><trkpt lat="45.120623942929626" lon="10.016327081438117"><ele>33.0</ele><time>2026-03-22T11:36:54Z</time></trkpt><trkpt lat="45.12058453380006" lon="10.016405394016928"><ele>33.0</ele><time>2026-03-22T11:36:55Z</time></trkpt><trkpt lat="45.120548734415834" lon="10.016487948169003"><ele>32.857142857142854</ele><time>2026-03-22T11:36:56Z</time></trkpt><trkpt lat="45.120512993182686" lon="10.016569800130627"><ele>32.714285714285715</ele><time>2026-03-22T11:36:57Z</time></trkpt><trkpt lat="45.12047808897776" lon="10.016652264541285"><ele>32.57142857142857</ele><time>2026-03-22T11:36:58Z</time></trkpt><trkpt lat="45.120442878558435" lon="10.01673438059149"><ele>32.42857142857143</ele><time>2026-03-22T11:36:59Z</time></trkpt><trkpt lat="45.1203939623746" lon="10.016803104457123"><ele>32.285714285714285</ele><time>2026-03-22T11:37:00Z</time></trkpt><trkpt lat="45.120357822023486" lon="10.016886574003221"><ele>32.14285714285714</ele><time>2026-03-22T11:37:01Z</time></trkpt><trkpt lat="45.12032293633701" lon="10.016968591328222"><ele>32.0</ele><time>2026-03-22T11:37:02Z</time></trkpt><trkpt lat="45.120287650807015" lon="10.017051548701719"><ele>32.285714285714285</ele><time>2026-03-22T11:37:03Z</time></trkpt><trkpt lat="45.1202522586311" lon="10.017134756800784"><ele>32.57142857142857</ele><time>2026-03-22T11:37:04Z</time></trkpt><trkpt lat="45.12021742223346" lon="10.017216658250025"><ele>32.857142857142854</ele><time>2026-03-22T11:37:05Z</time></trkpt><trkpt lat="45.12018228443593" lon="10.017299268295998"><ele>33.14285714285714</ele><time>2026-03-22T11:37:06Z</time></trkpt><trkpt lat="45.12014698416173" lon="10.017382296621166"><ele>33.42857142857143</ele><time>2026-03-22T11:37:06.999Z</time></trkpt><trkpt lat="45.1201117525636" lon="10.017465165311625"><ele>33.71428571428571</ele><time>2026-03-22T11:37:07.999Z</time></trkpt><trkpt lat="45.12007662582394" lon="10.017547787360384"><ele>34.0</ele><time>2026-03-22T11:37:08.999Z</time></trkpt><trkpt lat="45.12004135408678" lon="10.017630750461514"><ele>33.99999999999999</ele><time>2026-03-22T11:37:09.999Z</time></trkpt><trkpt lat="45.120005108252236" lon="10.01771572266673"><ele>34.0</ele><time>2026-03-22T11:37:10.999Z</time></trkpt><trkpt lat="45.11996924412951" lon="10.017799997364193"><ele>34.0</ele><time>2026-03-22T11:37:11.999Z</time></trkpt><trkpt lat="45.11993379396729" lon="10.017883299337587"><ele>34.0</ele><time>2026-03-22T11:37:12.999Z</time></trkpt><trkpt lat="45.11989837212447" lon="10.017966534760559"><ele>34.0</ele><time>2026-03-22T11:37:13.999Z</time></trkpt><trkpt lat="45.119864070247104" lon="10.018047138448312"><ele>33.99999999999999</ele><time>2026-03-22T11:37:14.999Z</time></trkpt><trkpt lat="45.11982887873177" lon="10.018129709911783"><ele>34.0</ele><time>2026-03-22T11:37:15.999Z</time></trkpt><trkpt lat="45.11979431390902" lon="10.018210126984505"><ele>33.99999999999999</ele><time>2026-03-22T11:37:16.999Z</time></trkpt><trkpt lat="45.11977240708555" lon="10.018303366598204"><ele>34.0</ele><time>2026-03-22T11:37:17.999Z</time></trkpt><trkpt lat="45.119735953822406" lon="10.018384366747478"><ele>34.0</ele><time>2026-03-22T11:37:18.999Z</time></trkpt><trkpt lat="45.11970052594793" lon="10.018464955342225"><ele>34.0</ele><time>2026-03-22T11:37:19.999Z</time></trkpt><trkpt lat="45.11966643287516" lon="10.01854766934749"><ele>34.0</ele><time>2026-03-22T11:37:20.999Z</time></trkpt><trkpt lat="45.11963263987079" lon="10.018628432686485"><ele>33.99999999999999</ele><time>2026-03-22T11:37:21.999Z</time></trkpt><trkpt lat="45.11959678550945" lon="10.01871164131768"><ele>34.0</ele><time>2026-03-22T11:37:22.999Z</time></trkpt><trkpt lat="45.119561805104" lon="10.018792556248734"><ele>33.857142857142854</ele><time>2026-03-22T11:37:23.999Z</time></trkpt><trkpt lat="45.119528476308425" lon="10.018874748170905"><ele>33.714285714285715</ele><time>2026-03-22T11:37:24.999Z</time></trkpt><trkpt lat="45.11949332127999" lon="10.0189569135364"><ele>33.57142857142857</ele><time>2026-03-22T11:37:25.999Z</time></trkpt><trkpt lat="45.1194563488979" lon="10.01903991874279"><ele>33.42857142857143</ele><time>2026-03-22T11:37:26.999Z</time></trkpt><trkpt lat="45.11942022196549" lon="10.019125036825246"><ele>33.285714285714285</ele><time>2026-03-22T11:37:27.999Z</time></trkpt><trkpt lat="45.11938327936381" lon="10.01920666136136"><ele>33.14285714285714</ele><time>2026-03-22T11:37:28.999Z</time></trkpt><trkpt lat="45.11934996919285" lon="10.019290151557083"><ele>33.0</ele><time>2026-03-22T11:37:29.999Z</time></trkpt><trkpt lat="45.119314115942906" lon="10.019371046886862"><ele>33.0</ele><time>2026-03-22T11:37:30.999Z</time></trkpt><trkpt lat="45.11927697154954" lon="10.019453197288872"><ele>33.0</ele><time>2026-03-22T11:37:31.999Z</time></trkpt><trkpt lat="45.11923489320998" lon="10.019528726491746"><ele>33.0</ele><time>2026-03-22T11:37:32.999Z</time></trkpt><trkpt lat="45.11919263830133" lon="10.019602603974649"><ele>33.0</ele><time>2026-03-22T11:37:33.999Z</time></trkpt><trkpt lat="45.11914756025669" lon="10.019674823377219"><ele>33.0</ele><time>2026-03-22T11:37:34.999Z</time></trkpt><trkpt lat="45.119103030132955" lon="10.019747496829236"><ele>33.0</ele><time>2026-03-22T11:37:35.999Z</time></trkpt><trkpt lat="45.11905691594586" lon="10.019819554364556"><ele>33.0</ele><time>2026-03-22T11:37:36.999Z</time></trkpt><trkpt lat="45.119011128043674" lon="10.019892142610075"><ele>33.0</ele><time>2026-03-22T11:37:37.999Z</time></trkpt><trkpt lat="45.118963284739515" lon="10.019962232103664"><ele>33.0</ele><time>2026-03-22T11:37:38.999Z</time></trkpt><trkpt lat="45.118917924472164" lon="10.020034649147421"><ele>33.0</ele><time>2026-03-22T11:37:39.999Z</time></trkpt><trkpt lat="45.11887149487924" lon="10.020106594898197"><ele>33.0</ele><time>2026-03-22T11:37:40.999Z</time></trkpt><trkpt lat="45.11882303632711" lon="10.02017649277031"><ele>33.0</ele><time>2026-03-22T11:37:41.999Z</time></trkpt><trkpt lat="45.11877318106783" lon="10.020246073714715"><ele>33.0</ele><time>2026-03-22T11:37:42.999Z</time></trkpt><trkpt lat="45.11872323327792" lon="10.020318125385513"><ele>33.0</ele><time>2026-03-22T11:37:43.999Z</time></trkpt><trkpt lat="45.11867410479557" lon="10.02038901392537"><ele>33.0</ele><time>2026-03-22T11:37:44.999Z</time></trkpt><trkpt lat="45.118625109606505" lon="10.020461537229275"><ele>33.0</ele><time>2026-03-22T11:37:45.999Z</time></trkpt><trkpt lat="45.11857594135368" lon="10.020534830196468"><ele>33.0</ele><time>2026-03-22T11:37:46.999Z</time></trkpt><trkpt lat="45.11852691815807" lon="10.020606097052488"><ele>33.0</ele><time>2026-03-22T11:37:47.999Z</time></trkpt><trkpt lat="45.11847905379856" lon="10.02067614310272"><ele>33.0</ele><time>2026-03-22T11:37:48.999Z</time></trkpt><trkpt lat="45.11843093265147" lon="10.020746357108585"><ele>33.0</ele><time>2026-03-22T11:37:49.999Z</time></trkpt><trkpt lat="45.118380621384205" lon="10.020819352661952"><ele>33.0</ele><time>2026-03-22T11:37:50.999Z</time></trkpt><trkpt lat="45.11833188068612" lon="10.020889845845506"><ele>33.0</ele><time>2026-03-22T11:37:51.999Z</time></trkpt><trkpt lat="45.118283945028054" lon="10.020958513380187"><ele>33.0</ele><time>2026-03-22T11:37:52.999Z</time></trkpt><trkpt lat="45.118235076692656" lon="10.02102707237939"><ele>33.0</ele><time>2026-03-22T11:37:53.999Z</time></trkpt><trkpt lat="45.11817316463018" lon="10.02107581600954"><ele>33.0</ele><time>2026-03-22T11:37:54.999Z</time></trkpt><trkpt lat="45.11813310834953" lon="10.021157088752489"><ele>33.0</ele><time>2026-03-22T11:37:55.999Z</time></trkpt><trkpt lat="45.11807883085949" lon="10.021218236656155"><ele>33.0</ele><time>2026-03-22T11:37:56.999Z</time></trkpt><trkpt lat="45.11802565011522" lon="10.021279440500855"><ele>33.0</ele><time>2026-03-22T11:37:57.999Z</time></trkpt><trkpt lat="45.117971299272774" lon="10.021341470426195"><ele>33.0</ele><time>2026-03-22T11:37:58.999Z</time></trkpt><trkpt lat="45.11791907574083" lon="10.021405172833592"><ele>33.0</ele><time>2026-03-22T11:37:59.999Z</time></trkpt><trkpt lat="45.11786769874747" lon="10.021470086996707"><ele>33.0</ele><time>2026-03-22T11:38:00.998Z</time></trkpt><trkpt lat="45.11781565181521" lon="10.021532292374475"><ele>33.0</ele><time>2026-03-22T11:38:01.998Z</time></trkpt><trkpt lat="45.117761716486854" lon="10.021592495101464"><ele>33.0</ele><time>2026-03-22T11:38:02.998Z</time></trkpt><trkpt lat="45.117707702661846" lon="10.02165271543287"><ele>33.0</ele><time>2026-03-22T11:38:03.998Z</time></trkpt><trkpt lat="45.11765530996165" lon="10.021714857327982"><ele>33.0</ele><time>2026-03-22T11:38:04.998Z</time></trkpt><trkpt lat="45.11760434590265" lon="10.021778145391899"><ele>33.0</ele><time>2026-03-22T11:38:05.998Z</time></trkpt><trkpt lat="45.117549906298734" lon="10.021838267223893"><ele>33.0</ele><time>2026-03-22T11:38:06.998Z</time></trkpt><trkpt lat="45.11749832060026" lon="10.021896244896068"><ele>33.0</ele><time>2026-03-22T11:38:07.998Z</time></trkpt><trkpt lat="45.11744519900592" lon="10.021957823959129"><ele>33.0</ele><time>2026-03-22T11:38:08.998Z</time></trkpt><trkpt lat="45.11739318735316" lon="10.022019846103081"><ele>33.0</ele><time>2026-03-22T11:38:09.998Z</time></trkpt><trkpt lat="45.11733955340907" lon="10.022081596989793"><ele>33.0</ele><time>2026-03-22T11:38:10.998Z</time></trkpt><trkpt lat="45.11728778739317" lon="10.022142887836113"><ele>33.0</ele><time>2026-03-22T11:38:11.998Z</time></trkpt><trkpt lat="45.11723701901508" lon="10.022206247059842"><ele>33.0</ele><time>2026-03-22T11:38:12.998Z</time></trkpt><trkpt lat="45.11718475084684" lon="10.02226604827191"><ele>33.0</ele><time>2026-03-22T11:38:13.998Z</time></trkpt><trkpt lat="45.11713222787933" lon="10.022326488032755"><ele>33.0</ele><time>2026-03-22T11:38:14.998Z</time></trkpt><trkpt lat="45.11707947607036" lon="10.022387277326509"><ele>33.0</ele><time>2026-03-22T11:38:15.998Z</time></trkpt><trkpt lat="45.11702641144538" lon="10.022450753162016"><ele>33.0</ele><time>2026-03-22T11:38:17Z</time></trkpt><trkpt lat="45.11697611292743" lon="10.022514727651258"><ele>33.0</ele><time>2026-03-22T11:38:18Z</time></trkpt><trkpt lat="45.116925776847815" lon="10.022581596336988"><ele>33.0</ele><time>2026-03-22T11:38:19Z</time></trkpt><trkpt lat="45.116880962097184" lon="10.022652665100756"><ele>33.0</ele><time>2026-03-22T11:38:20Z</time></trkpt><trkpt lat="45.116837545480415" lon="10.02272613588137"><ele>33.0</ele><time>2026-03-22T11:38:21Z</time></trkpt><trkpt lat="45.11679624099593" lon="10.022798146345545"><ele>33.0</ele><time>2026-03-22T11:38:22Z</time></trkpt><trkpt lat="45.116755162358686" lon="10.022871188587596"><ele>33.0</ele><time>2026-03-22T11:38:23Z</time></trkpt><trkpt lat="45.116712517262705" lon="10.022943309789593"><ele>33.0</ele><time>2026-03-22T11:38:24Z</time></trkpt><trkpt lat="45.11667355274056" lon="10.023017675261647"><ele>33.0</ele><time>2026-03-22T11:38:25Z</time></trkpt><trkpt lat="45.1166198088113" lon="10.023078030932803"><ele>33.0</ele><time>2026-03-22T11:38:26Z</time></trkpt><trkpt lat="45.116579170238005" lon="10.023151059739186"><ele>32.857142857142854</ele><time>2026-03-22T11:38:27Z</time></trkpt><trkpt lat="45.11653741551505" lon="10.023226094307992"><ele>32.714285714285715</ele><time>2026-03-22T11:38:28Z</time></trkpt><trkpt lat="45.1164969432921" lon="10.023301936474516"><ele>32.57142857142857</ele><time>2026-03-22T11:38:29Z</time></trkpt><trkpt lat="45.11645684936375" lon="10.023379431371922"><ele>32.42857142857143</ele><time>2026-03-22T11:38:30Z</time></trkpt><trkpt lat="45.11641881184503" lon="10.023458469024167"><ele>32.285714285714285</ele><time>2026-03-22T11:38:31Z</time></trkpt><trkpt lat="45.11638128351242" lon="10.023537835987431"><ele>32.14285714285714</ele><time>2026-03-22T11:38:32Z</time></trkpt><trkpt lat="45.11634625848861" lon="10.02361919833152"><ele>32.0</ele><time>2026-03-22T11:38:33Z</time></trkpt><trkpt lat="45.11631372796969" lon="10.023700705202748"><ele>32.0</ele><time>2026-03-22T11:38:34Z</time></trkpt><trkpt lat="45.11628052415188" lon="10.023785352321616"><ele>31.999999999999996</ele><time>2026-03-22T11:38:35Z</time></trkpt><trkpt lat="45.116248620037275" lon="10.023869514239204"><ele>32.0</ele><time>2026-03-22T11:38:36Z</time></trkpt><trkpt lat="45.11623570004049" lon="10.023965339444652"><ele>32.0</ele><time>2026-03-22T11:38:37Z</time></trkpt><trkpt lat="45.11620654638024" lon="10.02404945642519"><ele>31.999999999999996</ele><time>2026-03-22T11:38:38Z</time></trkpt><trkpt lat="45.11617537362978" lon="10.024130343251622"><ele>32.0</ele><time>2026-03-22T11:38:39Z</time></trkpt><trkpt lat="45.11612614112788" lon="10.024199223285017"><ele>32.0</ele><time>2026-03-22T11:38:40Z</time></trkpt><trkpt lat="45.11609562445039" lon="10.02428137310421"><ele>32.0</ele><time>2026-03-22T11:38:41Z</time></trkpt><trkpt lat="45.11606524874488" lon="10.024363143469207"><ele>31.999999999999996</ele><time>2026-03-22T11:38:42Z</time></trkpt><trkpt lat="45.11603436801322" lon="10.02444627336644"><ele>32.0</ele><time>2026-03-22T11:38:43Z</time></trkpt><trkpt lat="45.11602150080302" lon="10.02454170444911"><ele>32.0</ele><time>2026-03-22T11:38:44Z</time></trkpt><trkpt lat="45.115986524222215" lon="10.024623341115038"><ele>31.999999999999996</ele><time>2026-03-22T11:38:45Z</time></trkpt><trkpt lat="45.1159553727274" lon="10.024704293852327"><ele>32.0</ele><time>2026-03-22T11:38:46Z</time></trkpt><trkpt lat="45.115921637121524" lon="10.024788051305622"><ele>32.0</ele><time>2026-03-22T11:38:47Z</time></trkpt><trkpt lat="45.115885772948474" lon="10.024869505431559"><ele>32.0</ele><time>2026-03-22T11:38:48Z</time></trkpt><trkpt lat="45.1158444466443" lon="10.024942266528996"><ele>31.999999999999996</ele><time>2026-03-22T11:38:49Z</time></trkpt><trkpt lat="45.11579451270188" lon="10.025009369300898"><ele>32.0</ele><time>2026-03-22T11:38:50Z</time></trkpt><trkpt lat="45.115739683610634" lon="10.025063567711264"><ele>32.0</ele><time>2026-03-22T11:38:51Z</time></trkpt><trkpt lat="45.11568084315158" lon="10.025109198695"><ele>31.999999999999996</ele><time>2026-03-22T11:38:52Z</time></trkpt><trkpt lat="45.115621008353216" lon="10.025150515160307"><ele>32.0</ele><time>2026-03-22T11:38:53Z</time></trkpt><trkpt lat="45.11555825741646" lon="10.02518087469958"><ele>32.0</ele><time>2026-03-22T11:38:54Z</time></trkpt><trkpt lat="45.115492556162174" lon="10.02520363749126"><ele>31.857142857142854</ele><time>2026-03-22T11:38:55Z</time></trkpt><trkpt lat="45.115429436800845" lon="10.025232328567533"><ele>31.71428571428571</ele><time>2026-03-22T11:38:56Z</time></trkpt><trkpt lat="45.11536702654835" lon="10.025258186860784"><ele>31.57142857142857</ele><time>2026-03-22T11:38:57Z</time></trkpt><trkpt lat="45.1153033201" lon="10.025284759148976"><ele>31.42857142857143</ele><time>2026-03-22T11:38:58Z</time></trkpt><trkpt lat="45.11523874445635" lon="10.025307946303624"><ele>31.28571428571429</ele><time>2026-03-22T11:38:59Z</time></trkpt><trkpt lat="45.11517366648465" lon="10.02533281005482"><ele>31.142857142857146</ele><time>2026-03-22T11:39:00Z</time></trkpt><trkpt lat="45.115109582772774" lon="10.02536229035908"><ele>31.0</ele><time>2026-03-22T11:39:01Z</time></trkpt><trkpt lat="45.11504381559066" lon="10.025383177494799"><ele>31.0</ele><time>2026-03-22T11:39:02Z</time></trkpt><trkpt lat="45.11497898822012" lon="10.02541217113777"><ele>31.000000000000004</ele><time>2026-03-22T11:39:03Z</time></trkpt><trkpt lat="45.11491352488639" lon="10.025440210820095"><ele>31.0</ele><time>2026-03-22T11:39:04Z</time></trkpt><trkpt lat="45.114849236505904" lon="10.025470859550135"><ele>31.0</ele><time>2026-03-22T11:39:05Z</time></trkpt><trkpt lat="45.11478650358233" lon="10.02550671960841"><ele>31.000000000000004</ele><time>2026-03-22T11:39:06Z</time></trkpt><trkpt lat="45.11471699280765" lon="10.025509093398464"><ele>31.0</ele><time>2026-03-22T11:39:07Z</time></trkpt><trkpt lat="45.114652539540316" lon="10.025531907290523"><ele>31.0</ele><time>2026-03-22T11:39:08Z</time></trkpt><trkpt lat="45.114589916638366" lon="10.025562293138618"><ele>31.0</ele><time>2026-03-22T11:39:09Z</time></trkpt><trkpt lat="45.11452518637999" lon="10.025571690127261"><ele>31.000000000000004</ele><time>2026-03-22T11:39:09.999Z</time></trkpt><trkpt lat="45.11445907236957" lon="10.025591460048611"><ele>31.0</ele><time>2026-03-22T11:39:10.999Z</time></trkpt><trkpt lat="45.11439466976165" lon="10.025614807550454"><ele>31.0</ele><time>2026-03-22T11:39:11.999Z</time></trkpt><trkpt lat="45.11432974319748" lon="10.025636835366416"><ele>31.000000000000004</ele><time>2026-03-22T11:39:12.999Z</time></trkpt><trkpt lat="45.11426360128437" lon="10.02565840173187"><ele>31.0</ele><time>2026-03-22T11:39:13.999Z</time></trkpt><trkpt lat="45.11419578030497" lon="10.025678504131198"><ele>31.0</ele><time>2026-03-22T11:39:14.999Z</time></trkpt><trkpt lat="45.114127291391576" lon="10.025700472205363"><ele>31.28571428571429</ele><time>2026-03-22T11:39:15.999Z</time></trkpt><trkpt lat="45.11405966779369" lon="10.025723193338013"><ele>31.571428571428577</ele><time>2026-03-22T11:39:16.999Z</time></trkpt><trkpt lat="45.11399251994115" lon="10.025743760931771"><ele>31.857142857142858</ele><time>2026-03-22T11:39:17.999Z</time></trkpt><trkpt lat="45.113926434710685" lon="10.025766319542479"><ele>32.142857142857146</ele><time>2026-03-22T11:39:18.999Z</time></trkpt><trkpt lat="45.11386061041045" lon="10.025786488420088"><ele>32.42857142857143</ele><time>2026-03-22T11:39:19.999Z</time></trkpt><trkpt lat="45.113795628325676" lon="10.02580775040785"><ele>32.714285714285715</ele><time>2026-03-22T11:39:20.999Z</time></trkpt><trkpt lat="45.11372950230619" lon="10.025827468669332"><ele>33.0</ele><time>2026-03-22T11:39:21.999Z</time></trkpt><trkpt lat="45.11366693945172" lon="10.02585026700893"><ele>33.0</ele><time>2026-03-22T11:39:22.999Z</time></trkpt><trkpt lat="45.11360391478859" lon="10.025870565312859"><ele>33.0</ele><time>2026-03-22T11:39:23.999Z</time></trkpt><trkpt lat="45.11354092046589" lon="10.025890526944552"><ele>33.0</ele><time>2026-03-22T11:39:24.999Z</time></trkpt><trkpt lat="45.11347215385776" lon="10.025911763616373"><ele>33.0</ele><time>2026-03-22T11:39:25.999Z</time></trkpt><trkpt lat="45.11340106896108" lon="10.025932731218315"><ele>33.0</ele><time>2026-03-22T11:39:26.999Z</time></trkpt><trkpt lat="45.11333133398981" lon="10.025954920966567"><ele>33.0</ele><time>2026-03-22T11:39:27.999Z</time></trkpt><trkpt lat="45.11326478437648" lon="10.025976999635162"><ele>33.0</ele><time>2026-03-22T11:39:28.999Z</time></trkpt><trkpt lat="45.11319849106578" lon="10.025996654647432"><ele>32.857142857142854</ele><time>2026-03-22T11:39:29.999Z</time></trkpt><trkpt lat="45.11313041639059" lon="10.026015467941772"><ele>32.714285714285715</ele><time>2026-03-22T11:39:30.999Z</time></trkpt><trkpt lat="45.113063422109654" lon="10.026034599468305"><ele>32.57142857142857</ele><time>2026-03-22T11:39:31.999Z</time></trkpt><trkpt lat="45.1129959172634" lon="10.026057871981578"><ele>32.42857142857143</ele><time>2026-03-22T11:39:32.999Z</time></trkpt><trkpt lat="45.11292888023005" lon="10.026081161912359"><ele>32.285714285714285</ele><time>2026-03-22T11:39:33.999Z</time></trkpt><trkpt lat="45.112864240717336" lon="10.026106617600975"><ele>32.14285714285714</ele><time>2026-03-22T11:39:34.999Z</time></trkpt><trkpt lat="45.11279809428493" lon="10.026133573952823"><ele>32.0</ele><time>2026-03-22T11:39:35.999Z</time></trkpt><trkpt lat="45.11273279461766" lon="10.026161515367907"><ele>32.0</ele><time>2026-03-22T11:39:36.999Z</time></trkpt><trkpt lat="45.112668420865866" lon="10.026189070844964"><ele>31.999999999999996</ele><time>2026-03-22T11:39:37.999Z</time></trkpt><trkpt lat="45.11260336712978" lon="10.026218953411899"><ele>32.0</ele><time>2026-03-22T11:39:38.999Z</time></trkpt><trkpt lat="45.11253842696183" lon="10.026252113212674"><ele>32.0</ele><time>2026-03-22T11:39:39.999Z</time></trkpt><trkpt lat="45.11247473683845" lon="10.026283471510476"><ele>31.999999999999996</ele><time>2026-03-22T11:39:40.999Z</time></trkpt><trkpt lat="45.11240985270856" lon="10.026318550694103"><ele>32.0</ele><time>2026-03-22T11:39:41.999Z</time></trkpt><trkpt lat="45.11234588038105" lon="10.026354383475407"><ele>32.0</ele><time>2026-03-22T11:39:42.999Z</time></trkpt><trkpt lat="45.11228122163501" lon="10.026390063014375"><ele>32.0</ele><time>2026-03-22T11:39:43.999Z</time></trkpt><trkpt lat="45.11221701948207" lon="10.026425429162655"><ele>31.999999999999996</ele><time>2026-03-22T11:39:44.999Z</time></trkpt><trkpt lat="45.11215297276526" lon="10.026458863133744"><ele>32.0</ele><time>2026-03-22T11:39:45.999Z</time></trkpt><trkpt lat="45.112089080069765" lon="10.026494787268057"><ele>32.0</ele><time>2026-03-22T11:39:46.999Z</time></trkpt><trkpt lat="45.11202553141864" lon="10.026530521929667"><ele>31.999999999999996</ele><time>2026-03-22T11:39:47.999Z</time></trkpt><trkpt lat="45.111961003958584" lon="10.026565917381221"><ele>32.0</ele><time>2026-03-22T11:39:48.999Z</time></trkpt><trkpt lat="45.1118973435761" lon="10.02660040103679"><ele>32.0</ele><time>2026-03-22T11:39:49.999Z</time></trkpt><trkpt lat="45.1118332957061" lon="10.026636551718902"><ele>31.857142857142854</ele><time>2026-03-22T11:39:50.999Z</time></trkpt><trkpt lat="45.111767368543546" lon="10.026670349762547"><ele>31.71428571428571</ele><time>2026-03-22T11:39:51.999Z</time></trkpt><trkpt lat="45.11170280658025" lon="10.02670350679125"><ele>31.57142857142857</ele><time>2026-03-22T11:39:52.999Z</time></trkpt><trkpt lat="45.111638261603126" lon="10.026739036935854"><ele>31.42857142857143</ele><time>2026-03-22T11:39:53.999Z</time></trkpt><trkpt lat="45.111574034335945" lon="10.026775178978063"><ele>31.28571428571429</ele><time>2026-03-22T11:39:54.999Z</time></trkpt><trkpt lat="45.11151256625008" lon="10.026812446094324"><ele>31.142857142857146</ele><time>2026-03-22T11:39:55.999Z</time></trkpt><trkpt lat="45.11144882560317" lon="10.02684659849324"><ele>31.0</ele><time>2026-03-22T11:39:56.999Z</time></trkpt><trkpt lat="45.111384287706315" lon="10.026882369336992"><ele>31.571428571428573</ele><time>2026-03-22T11:39:57.999Z</time></trkpt><trkpt lat="45.11132013251422" lon="10.026921402247794"><ele>32.142857142857146</ele><time>2026-03-22T11:39:58.999Z</time></trkpt><trkpt lat="45.11125678429027" lon="10.026958967022441"><ele>32.714285714285715</ele><time>2026-03-22T11:39:59.999Z</time></trkpt><trkpt lat="45.111193935577305" lon="10.026996457509473"><ele>33.285714285714285</ele><time>2026-03-22T11:40:00.999Z</time></trkpt><trkpt lat="45.1111230659603" lon="10.02700981743678"><ele>33.85714285714286</ele><time>2026-03-22T11:40:01.999Z</time></trkpt><trkpt lat="45.111058351532435" lon="10.027043870834994"><ele>34.42857142857143</ele><time>2026-03-22T11:40:02.999Z</time></trkpt><trkpt lat="45.1109948783727" lon="10.027077271072741"><ele>35.0</ele><time>2026-03-22T11:40:03.998Z</time></trkpt><trkpt lat="45.110932328537196" lon="10.027109533602127"><ele>35.0</ele><time>2026-03-22T11:40:04.998Z</time></trkpt><trkpt lat="45.110867493385236" lon="10.02714292948091"><ele>35.0</ele><time>2026-03-22T11:40:05.998Z</time></trkpt><trkpt lat="45.11080327848431" lon="10.027174638532633"><ele>35.0</ele><time>2026-03-22T11:40:06.998Z</time></trkpt><trkpt lat="45.11073891170343" lon="10.027205007654631"><ele>35.0</ele><time>2026-03-22T11:40:07.998Z</time></trkpt><trkpt lat="45.110673754868834" lon="10.027234524296617"><ele>35.0</ele><time>2026-03-22T11:40:08.998Z</time></trkpt><trkpt lat="45.110612377854665" lon="10.02728196590716"><ele>35.0</ele><time>2026-03-22T11:40:09.998Z</time></trkpt><trkpt lat="45.11054502380877" lon="10.027301641210627"><ele>35.0</ele><time>2026-03-22T11:40:10.998Z</time></trkpt><trkpt lat="45.110478742145" lon="10.027327393444232"><ele>35.0</ele><time>2026-03-22T11:40:11.998Z</time></trkpt><trkpt lat="45.11041125980319" lon="10.027353223455643"><ele>35.0</ele><time>2026-03-22T11:40:12.998Z</time></trkpt><trkpt lat="45.11034316792715" lon="10.027374536296062"><ele>35.0</ele><time>2026-03-22T11:40:13.998Z</time></trkpt><trkpt lat="45.11027427229236" lon="10.027395793770346"><ele>35.0</ele><time>2026-03-22T11:40:14.998Z</time></trkpt><trkpt lat="45.11020681180804" lon="10.027420395977051"><ele>35.0</ele><time>2026-03-22T11:40:15.998Z</time></trkpt><trkpt lat="45.110140373328406" lon="10.027443715433492"><ele>35.0</ele><time>2026-03-22T11:40:16.998Z</time></trkpt><trkpt lat="45.11007072755422" lon="10.027466991765394"><ele>35.0</ele><time>2026-03-22T11:40:17.998Z</time></trkpt><trkpt lat="45.11000282332237" lon="10.02749059899305"><ele>35.0</ele><time>2026-03-22T11:40:18.998Z</time></trkpt><trkpt lat="45.10993443315357" lon="10.027514657285042"><ele>35.0</ele><time>2026-03-22T11:40:19.998Z</time></trkpt><trkpt lat="45.109864924905885" lon="10.027537234767458"><ele>35.0</ele><time>2026-03-22T11:40:20.998Z</time></trkpt><trkpt lat="45.109796161416476" lon="10.027559109766543"><ele>35.0</ele><time>2026-03-22T11:40:21.998Z</time></trkpt><trkpt lat="45.109726520174824" lon="10.02758225423971"><ele>35.0</ele><time>2026-03-22T11:40:23Z</time></trkpt><trkpt lat="45.10965714197927" lon="10.027606444093616"><ele>35.0</ele><time>2026-03-22T11:40:24Z</time></trkpt><trkpt lat="45.10958721771981" lon="10.027631136485665"><ele>35.0</ele><time>2026-03-22T11:40:25Z</time></trkpt><trkpt lat="45.10951905157626" lon="10.027655668748157"><ele>34.714285714285715</ele><time>2026-03-22T11:40:26Z</time></trkpt><trkpt lat="45.109451504854846" lon="10.027677236359487"><ele>34.42857142857143</ele><time>2026-03-22T11:40:27Z</time></trkpt><trkpt lat="45.109382019324485" lon="10.027701945513654"><ele>34.14285714285714</ele><time>2026-03-22T11:40:28Z</time></trkpt><trkpt lat="45.109312708219" lon="10.02772594937135"><ele>33.85714285714286</ele><time>2026-03-22T11:40:29Z</time></trkpt><trkpt lat="45.10924485100536" lon="10.027749614266677"><ele>33.57142857142857</ele><time>2026-03-22T11:40:30Z</time></trkpt><trkpt lat="45.109174492302635" lon="10.027770924894005"><ele>33.285714285714285</ele><time>2026-03-22T11:40:31Z</time></trkpt><trkpt lat="45.10910525902734" lon="10.027794994747312"><ele>33.0</ele><time>2026-03-22T11:40:32Z</time></trkpt><trkpt lat="45.10903544672731" lon="10.02781925958161"><ele>33.0</ele><time>2026-03-22T11:40:33Z</time></trkpt><trkpt lat="45.10896533988701" lon="10.027843324795073"><ele>33.0</ele><time>2026-03-22T11:40:34Z</time></trkpt><trkpt lat="45.108896610688845" lon="10.02786688371846"><ele>33.0</ele><time>2026-03-22T11:40:35Z</time></trkpt><trkpt lat="45.10882610726104" lon="10.027889465158841"><ele>33.0</ele><time>2026-03-22T11:40:36Z</time></trkpt><trkpt lat="45.10875851014631" lon="10.02790923323739"><ele>33.0</ele><time>2026-03-22T11:40:37Z</time></trkpt><trkpt lat="45.108687464839186" lon="10.027928850222333"><ele>33.0</ele><time>2026-03-22T11:40:38Z</time></trkpt><trkpt lat="45.108619558260585" lon="10.02794807913737"><ele>33.0</ele><time>2026-03-22T11:40:39Z</time></trkpt><trkpt lat="45.108549127848086" lon="10.027965791456067"><ele>33.0</ele><time>2026-03-22T11:40:40Z</time></trkpt><trkpt lat="45.1084780379193" lon="10.02798017902865"><ele>33.0</ele><time>2026-03-22T11:40:41Z</time></trkpt><trkpt lat="45.10840673831922" lon="10.027989163122054"><ele>33.0</ele><time>2026-03-22T11:40:42Z</time></trkpt><trkpt lat="45.1083342678137" lon="10.027997394774083"><ele>33.0</ele><time>2026-03-22T11:40:43Z</time></trkpt><trkpt lat="45.10826285944332" lon="10.028000550724466"><ele>33.0</ele><time>2026-03-22T11:40:44Z</time></trkpt><trkpt lat="45.108190425902784" lon="10.027998386481377"><ele>33.0</ele><time>2026-03-22T11:40:45Z</time></trkpt><trkpt lat="45.10811759373035" lon="10.027997229701372"><ele>33.0</ele><time>2026-03-22T11:40:46Z</time></trkpt><trkpt lat="45.10804681050371" lon="10.027996845346019"><ele>32.857142857142854</ele><time>2026-03-22T11:40:47Z</time></trkpt><trkpt lat="45.10797217791821" lon="10.027996554198717"><ele>32.714285714285715</ele><time>2026-03-22T11:40:48Z</time></trkpt><trkpt lat="45.10790017840688" lon="10.0279962230869"><ele>32.57142857142857</ele><time>2026-03-22T11:40:49Z</time></trkpt><trkpt lat="45.10783022305125" lon="10.02799572925788"><ele>32.42857142857143</ele><time>2026-03-22T11:40:50Z</time></trkpt><trkpt lat="45.107758401653356" lon="10.027993776222226"><ele>32.285714285714285</ele><time>2026-03-22T11:40:51Z</time></trkpt><trkpt lat="45.10768686943201" lon="10.027991679117553"><ele>32.14285714285714</ele><time>2026-03-22T11:40:52Z</time></trkpt><trkpt lat="45.107614586461274" lon="10.027991426452372"><ele>32.0</ele><time>2026-03-22T11:40:53Z</time></trkpt><trkpt lat="45.107541792664556" lon="10.027992000765192"><ele>32.0</ele><time>2026-03-22T11:40:54Z</time></trkpt><trkpt lat="45.10747059303882" lon="10.027991291483216"><ele>31.999999999999996</ele><time>2026-03-22T11:40:55Z</time></trkpt><trkpt lat="45.10740000789237" lon="10.027992123010634"><ele>32.0</ele><time>2026-03-22T11:40:56Z</time></trkpt><trkpt lat="45.10732811532812" lon="10.027991260308468"><ele>32.0</ele><time>2026-03-22T11:40:57Z</time></trkpt><trkpt lat="45.107257247889095" lon="10.027985356036032"><ele>31.999999999999996</ele><time>2026-03-22T11:40:58Z</time></trkpt><trkpt lat="45.107185936302" lon="10.02798435237571"><ele>32.0</ele><time>2026-03-22T11:40:59Z</time></trkpt><trkpt lat="45.107115547563055" lon="10.027982520858407"><ele>32.0</ele><time>2026-03-22T11:41:00Z</time></trkpt><trkpt lat="45.10704497814784" lon="10.027982897870176"><ele>32.14285714285714</ele><time>2026-03-22T11:41:01Z</time></trkpt><trkpt lat="45.10697428011697" lon="10.027978896815343"><ele>32.285714285714285</ele><time>2026-03-22T11:41:02Z</time></trkpt><trkpt lat="45.106902413353914" lon="10.027974743795685"><ele>32.42857142857143</ele><time>2026-03-22T11:41:03Z</time></trkpt><trkpt lat="45.106830770127075" lon="10.027972276275618"><ele>32.57142857142857</ele><time>2026-03-22T11:41:04Z</time></trkpt><trkpt lat="45.106758504068885" lon="10.027969323677006"><ele>32.714285714285715</ele><time>2026-03-22T11:41:05Z</time></trkpt><trkpt lat="45.10668723626059" lon="10.027965335658248"><ele>32.857142857142854</ele><time>2026-03-22T11:41:06Z</time></trkpt><trkpt lat="45.106617599210374" lon="10.027960768364094"><ele>33.0</ele><time>2026-03-22T11:41:07Z</time></trkpt><trkpt lat="45.10654677353166" lon="10.027960323946571"><ele>33.0</ele><time>2026-03-22T11:41:08Z</time></trkpt><trkpt lat="45.10647537789363" lon="10.027960555297309"><ele>33.0</ele><time>2026-03-22T11:41:09Z</time></trkpt><trkpt lat="45.106402385003655" lon="10.027960621765716"><ele>33.0</ele><time>2026-03-22T11:41:10Z</time></trkpt><trkpt lat="45.10633013645119" lon="10.027959229801532"><ele>33.0</ele><time>2026-03-22T11:41:11Z</time></trkpt><trkpt lat="45.106257946847194" lon="10.027934897076191"><ele>33.0</ele><time>2026-03-22T11:41:12Z</time></trkpt><trkpt lat="45.10618647734781" lon="10.027932735032913"><ele>33.0</ele><time>2026-03-22T11:41:13Z</time></trkpt><trkpt lat="45.10611390070585" lon="10.027933378716664"><ele>33.0</ele><time>2026-03-22T11:41:14Z</time></trkpt><trkpt lat="45.10604004028085" lon="10.027940026430144"><ele>33.0</ele><time>2026-03-22T11:41:14.999Z</time></trkpt><trkpt lat="45.10596714427196" lon="10.027955792622809"><ele>33.0</ele><time>2026-03-22T11:41:15.999Z</time></trkpt><trkpt lat="45.105894267027395" lon="10.02797855453641"><ele>33.0</ele><time>2026-03-22T11:41:16.999Z</time></trkpt><trkpt lat="45.10582430787393" lon="10.028006559616708"><ele>33.0</ele><time>2026-03-22T11:41:17.999Z</time></trkpt><trkpt lat="45.10575350674691" lon="10.028039469733063"><ele>33.0</ele><time>2026-03-22T11:41:18.999Z</time></trkpt><trkpt lat="45.105685567276" lon="10.028071993934773"><ele>33.0</ele><time>2026-03-22T11:41:19.999Z</time></trkpt><trkpt lat="45.105617510278236" lon="10.028106516674857"><ele>33.0</ele><time>2026-03-22T11:41:20.999Z</time></trkpt><trkpt lat="45.10554958927653" lon="10.028141799762087"><ele>32.714285714285715</ele><time>2026-03-22T11:41:21.999Z</time></trkpt><trkpt lat="45.105481893543924" lon="10.028178106609301"><ele>32.42857142857143</ele><time>2026-03-22T11:41:22.999Z</time></trkpt><trkpt lat="45.10541407000924" lon="10.028214482100275"><ele>32.142857142857146</ele><time>2026-03-22T11:41:23.999Z</time></trkpt><trkpt lat="45.10534503704967" lon="10.028251506135891"><ele>31.857142857142858</ele><time>2026-03-22T11:41:24.999Z</time></trkpt><trkpt lat="45.1052793588321" lon="10.028286730952033"><ele>31.571428571428577</ele><time>2026-03-22T11:41:25.999Z</time></trkpt><trkpt lat="45.10521190900145" lon="10.028323536865805"><ele>31.28571428571429</ele><time>2026-03-22T11:41:26.999Z</time></trkpt><trkpt lat="45.1051455623705" lon="10.028360400693378"><ele>31.0</ele><time>2026-03-22T11:41:27.999Z</time></trkpt><trkpt lat="45.10507855349747" lon="10.028397632501273"><ele>31.571428571428573</ele><time>2026-03-22T11:41:28.999Z</time></trkpt><trkpt lat="45.10501340758688" lon="10.028439642920665"><ele>32.142857142857146</ele><time>2026-03-22T11:41:29.999Z</time></trkpt><trkpt lat="45.10494842042278" lon="10.028483143874505"><ele>32.714285714285715</ele><time>2026-03-22T11:41:30.999Z</time></trkpt><trkpt lat="45.1048832572551" lon="10.028530191446443"><ele>33.285714285714285</ele><time>2026-03-22T11:41:31.999Z</time></trkpt><trkpt lat="45.104819060114046" lon="10.028579496777729"><ele>33.85714285714286</ele><time>2026-03-22T11:41:32.999Z</time></trkpt><trkpt lat="45.104755634905814" lon="10.028628794429686"><ele>34.42857142857143</ele><time>2026-03-22T11:41:33.999Z</time></trkpt><trkpt lat="45.10469295775546" lon="10.028679316458929"><ele>35.0</ele><time>2026-03-22T11:41:34.999Z</time></trkpt><trkpt lat="45.10463040874029" lon="10.028732682210201"><ele>35.285714285714285</ele><time>2026-03-22T11:41:35.999Z</time></trkpt><trkpt lat="45.10457159154708" lon="10.028782131749741"><ele>35.57142857142857</ele><time>2026-03-22T11:41:36.999Z</time></trkpt><trkpt lat="45.104512245548065" lon="10.028829502276693"><ele>35.85714285714286</ele><time>2026-03-22T11:41:37.999Z</time></trkpt><trkpt lat="45.10445284595609" lon="10.02887847334188"><ele>36.14285714285714</ele><time>2026-03-22T11:41:38.999Z</time></trkpt><trkpt lat="45.104401640747106" lon="10.028934707348578"><ele>36.42857142857143</ele><time>2026-03-22T11:41:39.999Z</time></trkpt><trkpt lat="45.104355717551385" lon="10.029006709169021"><ele>36.714285714285715</ele><time>2026-03-22T11:41:40.999Z</time></trkpt><trkpt lat="45.10432449012571" lon="10.029096741023258"><ele>37.0</ele><time>2026-03-22T11:41:41.999Z</time></trkpt><trkpt lat="45.10430465758406" lon="10.029192981982995"><ele>37.16666666666667</ele><time>2026-03-22T11:41:42.999Z</time></trkpt><trkpt lat="45.10428211071663" lon="10.029287332125637"><ele>37.333333333333336</ele><time>2026-03-22T11:41:43.999Z</time></trkpt><trkpt lat="45.10426184804913" lon="10.029386958945377"><ele>37.5</ele><time>2026-03-22T11:41:44.999Z</time></trkpt><trkpt lat="45.104243978273466" lon="10.0294927188083"><ele>37.666666666666664</ele><time>2026-03-22T11:41:45.999Z</time></trkpt><trkpt lat="45.104230838237875" lon="10.029602708683052"><ele>37.83333333333333</ele><time>2026-03-22T11:41:46.999Z</time></trkpt><trkpt lat="45.104233190253424" lon="10.029727079838283"><ele>38.0</ele><time>2026-03-22T11:41:47.999Z</time></trkpt><trkpt lat="45.10423425354189" lon="10.029837661057211"><ele>38.0</ele><time>2026-03-22T11:41:48.999Z</time></trkpt><trkpt lat="45.10423876691423" lon="10.029954976475613"><ele>38.0</ele><time>2026-03-22T11:41:49.999Z</time></trkpt><trkpt lat="45.10423572685343" lon="10.030059712951276"><ele>38.0</ele><time>2026-03-22T11:41:50.999Z</time></trkpt><trkpt lat="45.104214305468915" lon="10.030155300208454"><ele>38.0</ele><time>2026-03-22T11:41:51.999Z</time></trkpt><trkpt lat="45.10417904439032" lon="10.03023914257955"><ele>38.0</ele><time>2026-03-22T11:41:52.999Z</time></trkpt><trkpt lat="45.10412981234597" lon="10.03029880797452"><ele>38.0</ele><time>2026-03-22T11:41:53.999Z</time></trkpt><trkpt lat="45.1040771743771" lon="10.030363056337555"><ele>38.0</ele><time>2026-03-22T11:41:54.999Z</time></trkpt><trkpt lat="45.10402531388258" lon="10.030421078473113"><ele>38.33333333333333</ele><time>2026-03-22T11:41:55.999Z</time></trkpt><trkpt lat="45.10396845444945" lon="10.03047924016101"><ele>38.666666666666664</ele><time>2026-03-22T11:41:56.999Z</time></trkpt><trkpt lat="45.10391132115901" lon="10.0305295868986"><ele>39.0</ele><time>2026-03-22T11:41:57.999Z</time></trkpt><trkpt lat="45.10385115040699" lon="10.030591966663772"><ele>39.333333333333336</ele><time>2026-03-22T11:41:58.999Z</time></trkpt><trkpt lat="45.10378513383283" lon="10.030631343672024"><ele>39.66666666666667</ele><time>2026-03-22T11:41:59.999Z</time></trkpt><trkpt lat="45.1036837937484" lon="10.030711720814393"><ele>40.0</ele><time>2026-03-22T11:42:01.999Z</time></trkpt><trkpt lat="45.10362816371758" lon="10.030757284364551"><ele>39.2</ele><time>2026-03-22T11:42:02.999Z</time></trkpt><trkpt lat="45.10357595633102" lon="10.030811964438566"><ele>38.4</ele><time>2026-03-22T11:42:03.999Z</time></trkpt><trkpt lat="45.10349209924677" lon="10.030936592079671"><ele>37.6</ele><time>2026-03-22T11:42:05.999Z</time></trkpt><trkpt lat="45.10342223867213" lon="10.0310558310683"><ele>36.8</ele><time>2026-03-22T11:42:07.999Z</time></trkpt><trkpt lat="45.10335414324937" lon="10.031176413560972"><ele>36.0</ele><time>2026-03-22T11:42:09.998Z</time></trkpt><trkpt lat="45.103284617468276" lon="10.0312995288988"><ele>35.6</ele><time>2026-03-22T11:42:11.998Z</time></trkpt><trkpt lat="45.10321425818308" lon="10.03142075848941"><ele>35.2</ele><time>2026-03-22T11:42:13.998Z</time></trkpt><trkpt lat="45.103146321553815" lon="10.031535239364198"><ele>34.8</ele><time>2026-03-22T11:42:15.998Z</time></trkpt><trkpt lat="45.10307637730487" lon="10.031645107188284"><ele>34.4</ele><time>2026-03-22T11:42:17.998Z</time></trkpt><trkpt lat="45.10300316889765" lon="10.03177493900466"><ele>34.0</ele><time>2026-03-22T11:42:19.998Z</time></trkpt><trkpt lat="45.102935539419356" lon="10.031911611549305"><ele>34.0</ele><time>2026-03-22T11:42:21.998Z</time></trkpt><trkpt lat="45.10287925853302" lon="10.032051953232592"><ele>34.0</ele><time>2026-03-22T11:42:23.998Z</time></trkpt><trkpt lat="45.10279301997069" lon="10.032155751708515"><ele>34.0</ele><time>2026-03-22T11:42:25.998Z</time></trkpt><trkpt lat="45.10271412433059" lon="10.032280245413741"><ele>34.0</ele><time>2026-03-22T11:42:27.998Z</time></trkpt><trkpt lat="45.10263457551927" lon="10.03240540314866"><ele>34.0</ele><time>2026-03-22T11:42:30Z</time></trkpt><trkpt lat="45.10260754951274" lon="10.032487072467713"><ele>34.0</ele><time>2026-03-22T11:42:31Z</time></trkpt><trkpt lat="45.10252816538961" lon="10.032621317959865"><ele>34.0</ele><time>2026-03-22T11:42:33Z</time></trkpt><trkpt lat="45.10248636070458" lon="10.032691475499664"><ele>34.0</ele><time>2026-03-22T11:42:34Z</time></trkpt><trkpt lat="45.10244428321224" lon="10.032757840364601"><ele>34.0</ele><time>2026-03-22T11:42:35Z</time></trkpt><trkpt lat="45.10240109085809" lon="10.032824780234824"><ele>34.0</ele><time>2026-03-22T11:42:36Z</time></trkpt><trkpt lat="45.102314236241334" lon="10.032948058837249"><ele>34.0</ele><time>2026-03-22T11:42:38Z</time></trkpt><trkpt lat="45.10222142430675" lon="10.033066670389621"><ele>34.0</ele><time>2026-03-22T11:42:40Z</time></trkpt><trkpt lat="45.102170631310265" lon="10.033121179088525"><ele>34.0</ele><time>2026-03-22T11:42:41Z</time></trkpt><trkpt lat="45.10206375798206" lon="10.033213863684834"><ele>34.0</ele><time>2026-03-22T11:42:43Z</time></trkpt><trkpt lat="45.10200663452288" lon="10.033255791511916"><ele>34.0</ele><time>2026-03-22T11:42:44Z</time></trkpt><trkpt lat="45.1019493182669" lon="10.03329793087718"><ele>34.0</ele><time>2026-03-22T11:42:45Z</time></trkpt><trkpt lat="45.101889124960486" lon="10.033340881113228"><ele>34.0</ele><time>2026-03-22T11:42:46Z</time></trkpt><trkpt lat="45.10177723512098" lon="10.033420379179582"><ele>34.0</ele><time>2026-03-22T11:42:48Z</time></trkpt><trkpt lat="45.10166088591307" lon="10.033497998686"><ele>34.0</ele><time>2026-03-22T11:42:50Z</time></trkpt><trkpt lat="45.10160035412922" lon="10.033536992783574"><ele>34.0</ele><time>2026-03-22T11:42:51Z</time></trkpt><trkpt lat="45.10154045293893" lon="10.033575856457967"><ele>34.0</ele><time>2026-03-22T11:42:52Z</time></trkpt><trkpt lat="45.10148132594729" lon="10.033612653227397"><ele>33.857142857142854</ele><time>2026-03-22T11:42:53Z</time></trkpt><trkpt lat="45.10141855760338" lon="10.033649491602356"><ele>33.714285714285715</ele><time>2026-03-22T11:42:54Z</time></trkpt><trkpt lat="45.101356852886994" lon="10.033686680772863"><ele>33.57142857142857</ele><time>2026-03-22T11:42:55Z</time></trkpt><trkpt lat="45.10126428832275" lon="10.033621848715525"><ele>33.42857142857143</ele><time>2026-03-22T11:42:56Z</time></trkpt><trkpt lat="45.10120421356545" lon="10.033659093342836"><ele>33.285714285714285</ele><time>2026-03-22T11:42:57Z</time></trkpt><trkpt lat="45.10114289232561" lon="10.033697110968191"><ele>33.14285714285714</ele><time>2026-03-22T11:42:58Z</time></trkpt><trkpt lat="45.101082844614716" lon="10.033734338862475"><ele>33.0</ele><time>2026-03-22T11:42:59Z</time></trkpt><trkpt lat="45.10102165836177" lon="10.033772191270645"><ele>33.0</ele><time>2026-03-22T11:43:00Z</time></trkpt><trkpt lat="45.10095883197128" lon="10.033810725176103"><ele>33.0</ele><time>2026-03-22T11:43:01Z</time></trkpt><trkpt lat="45.10089699956449" lon="10.033848649615681"><ele>33.0</ele><time>2026-03-22T11:43:02Z</time></trkpt><trkpt lat="45.10083423107781" lon="10.033887643857373"><ele>33.0</ele><time>2026-03-22T11:43:03Z</time></trkpt><trkpt lat="45.10077334250442" lon="10.033925788435365"><ele>33.0</ele><time>2026-03-22T11:43:04Z</time></trkpt><trkpt lat="45.10071147278406" lon="10.033964547815497"><ele>33.0</ele><time>2026-03-22T11:43:05Z</time></trkpt><trkpt lat="45.10064916715189" lon="10.034003579905335"><ele>33.0</ele><time>2026-03-22T11:43:06Z</time></trkpt><trkpt lat="45.100588419369465" lon="10.03404163623454"><ele>33.0</ele><time>2026-03-22T11:43:07Z</time></trkpt><trkpt lat="45.10052803321191" lon="10.034079466293264"><ele>33.0</ele><time>2026-03-22T11:43:08Z</time></trkpt><trkpt lat="45.10046532136432" lon="10.0341187528766"><ele>33.0</ele><time>2026-03-22T11:43:09Z</time></trkpt><trkpt lat="45.10040243538836" lon="10.034158148702822"><ele>33.0</ele><time>2026-03-22T11:43:10Z</time></trkpt><trkpt lat="45.10034163352502" lon="10.034196238958618"><ele>33.0</ele><time>2026-03-22T11:43:11Z</time></trkpt><trkpt lat="45.100281117185936" lon="10.034234150376221"><ele>33.0</ele><time>2026-03-22T11:43:12Z</time></trkpt><trkpt lat="45.100218100500264" lon="10.034274278088235"><ele>33.0</ele><time>2026-03-22T11:43:13Z</time></trkpt><trkpt lat="45.1001568395976" lon="10.0343136671495"><ele>33.14285714285714</ele><time>2026-03-22T11:43:14Z</time></trkpt><trkpt lat="45.10009627254744" lon="10.03435261016688"><ele>33.285714285714285</ele><time>2026-03-22T11:43:15Z</time></trkpt><trkpt lat="45.100034885942684" lon="10.034392080144293"><ele>33.42857142857143</ele><time>2026-03-22T11:43:16Z</time></trkpt><trkpt lat="45.09997338750993" lon="10.034431463750892"><ele>33.57142857142857</ele><time>2026-03-22T11:43:17Z</time></trkpt><trkpt lat="45.099913922956766" lon="10.034468863840075"><ele>33.714285714285715</ele><time>2026-03-22T11:43:18Z</time></trkpt><trkpt lat="45.09985349575974" lon="10.034504373836572"><ele>33.857142857142854</ele><time>2026-03-22T11:43:18.999Z</time></trkpt><trkpt lat="45.099746273721614" lon="10.034556252838883"><ele>34.0</ele><time>2026-03-22T11:43:20.999Z</time></trkpt><trkpt lat="45.09968168214382" lon="10.03457210614035"><ele>33.5</ele><time>2026-03-22T11:43:21.999Z</time></trkpt><trkpt lat="45.099552889091136" lon="10.034589690608655"><ele>33.0</ele><time>2026-03-22T11:43:23.999Z</time></trkpt><trkpt lat="45.099483827505594" lon="10.034598284447364"><ele>32.5</ele><time>2026-03-22T11:43:24.999Z</time></trkpt><trkpt lat="45.099414993973035" lon="10.034606849920277"><ele>32.0</ele><time>2026-03-22T11:43:25.999Z</time></trkpt><trkpt lat="45.099345652090065" lon="10.034615478642124"><ele>31.500000000000004</ele><time>2026-03-22T11:43:26.999Z</time></trkpt><trkpt lat="45.099277326503106" lon="10.03462398088297"><ele>31.0</ele><time>2026-03-22T11:43:27.999Z</time></trkpt><trkpt lat="45.099207983831405" lon="10.034634050176296"><ele>31.0</ele><time>2026-03-22T11:43:28.999Z</time></trkpt><trkpt lat="45.099140444559715" lon="10.034644111609781"><ele>31.000000000000004</ele><time>2026-03-22T11:43:29.999Z</time></trkpt><trkpt lat="45.099070008861354" lon="10.034655187199519"><ele>31.0</ele><time>2026-03-22T11:43:30.999Z</time></trkpt><trkpt lat="45.0990016452495" lon="10.034667794369307"><ele>31.0</ele><time>2026-03-22T11:43:31.999Z</time></trkpt><trkpt lat="45.098931858032174" lon="10.034680664138438"><ele>31.000000000000004</ele><time>2026-03-22T11:43:32.999Z</time></trkpt><trkpt lat="45.09886397606117" lon="10.034693182497664"><ele>31.0</ele><time>2026-03-22T11:43:33.999Z</time></trkpt><trkpt lat="45.098793684850456" lon="10.034706145199353"><ele>31.0</ele><time>2026-03-22T11:43:34.999Z</time></trkpt><trkpt lat="45.098723948369056" lon="10.03471900555151"><ele>31.4</ele><time>2026-03-22T11:43:35.999Z</time></trkpt><trkpt lat="45.09865444721315" lon="10.034731822536985"><ele>31.8</ele><time>2026-03-22T11:43:36.999Z</time></trkpt><trkpt lat="45.09859122571658" lon="10.034740253152547"><ele>32.199999999999996</ele><time>2026-03-22T11:43:37.999Z</time></trkpt><trkpt lat="45.09847906704104" lon="10.034721765528305"><ele>32.6</ele><time>2026-03-22T11:43:39.999Z</time></trkpt><trkpt lat="45.098385839737965" lon="10.034778987891505"><ele>33.0</ele><time>2026-03-22T11:43:40.999Z</time></trkpt><trkpt lat="45.09826054522464" lon="10.034782899042058"><ele>33.42857142857143</ele><time>2026-03-22T11:43:42.999Z</time></trkpt><trkpt lat="45.098189199986514" lon="10.03478328665292"><ele>33.85714285714286</ele><time>2026-03-22T11:43:43.999Z</time></trkpt><trkpt lat="45.0981219484523" lon="10.034786260924488"><ele>34.28571428571429</ele><time>2026-03-22T11:43:44.999Z</time></trkpt><trkpt lat="45.09805353954653" lon="10.034790004203979"><ele>34.714285714285715</ele><time>2026-03-22T11:43:45.999Z</time></trkpt><trkpt lat="45.097985446673235" lon="10.034794233579737"><ele>35.142857142857146</ele><time>2026-03-22T11:43:46.999Z</time></trkpt><trkpt lat="45.097910990321466" lon="10.03480374221824"><ele>35.57142857142858</ele><time>2026-03-22T11:43:47.999Z</time></trkpt><trkpt lat="45.09783951544765" lon="10.034817369478285"><ele>36.0</ele><time>2026-03-22T11:43:48.999Z</time></trkpt><trkpt lat="45.097772905057084" lon="10.034832396774991"><ele>36.0</ele><time>2026-03-22T11:43:49.999Z</time></trkpt><trkpt lat="45.09770333247495" lon="10.034848300953385"><ele>36.0</ele><time>2026-03-22T11:43:50.999Z</time></trkpt><trkpt lat="45.097639885122796" lon="10.034861165929163"><ele>36.0</ele><time>2026-03-22T11:43:51.999Z</time></trkpt><trkpt lat="45.09757696913963" lon="10.034872544985316"><ele>36.0</ele><time>2026-03-22T11:43:52.999Z</time></trkpt><trkpt lat="45.09745620445041" lon="10.034893897202547"><ele>36.0</ele><time>2026-03-22T11:43:54.999Z</time></trkpt><trkpt lat="45.09734030290655" lon="10.034913170243511"><ele>36.0</ele><time>2026-03-22T11:43:56.999Z</time></trkpt><trkpt lat="45.097230373906136" lon="10.034931298894536"><ele>36.0</ele><time>2026-03-22T11:43:58.999Z</time></trkpt><trkpt lat="45.09712229857284" lon="10.03495125305632"><ele>36.0</ele><time>2026-03-22T11:44:00.999Z</time></trkpt><trkpt lat="45.09703497605563" lon="10.03497387914646"><ele>36.0</ele><time>2026-03-22T11:44:02.999Z</time></trkpt><trkpt lat="45.0970810924227" lon="10.035265555894489"><ele>36.0</ele><time>2026-03-22T11:44:04.999Z</time></trkpt><trkpt lat="45.097128161423406" lon="10.035363680903151"><ele>36.0</ele><time>2026-03-22T11:44:06.999Z</time></trkpt><trkpt lat="45.09717636431673" lon="10.03549293065115"><ele>36.0</ele><time>2026-03-22T11:44:08.999Z</time></trkpt><trkpt lat="45.09723717561965" lon="10.035625358732258"><ele>36.0</ele><time>2026-03-22T11:44:10.999Z</time></trkpt><trkpt lat="45.09730099035941" lon="10.03577470735495"><ele>36.0</ele><time>2026-03-22T11:44:12.998Z</time></trkpt><trkpt lat="45.09733360427525" lon="10.035851839798097"><ele>36.0</ele><time>2026-03-22T11:44:13.998Z</time></trkpt><trkpt lat="45.09741504232581" lon="10.035983070058117"><ele>36.333333333333336</ele><time>2026-03-22T11:44:15.998Z</time></trkpt><trkpt lat="45.09750560396971" lon="10.036106667357739"><ele>36.666666666666664</ele><time>2026-03-22T11:44:17.998Z</time></trkpt><trkpt lat="45.097550335052894" lon="10.03617015936214"><ele>37.0</ele><time>2026-03-22T11:44:18.998Z</time></trkpt><trkpt lat="45.09759549590781" lon="10.03623514614522"><ele>37.33333333333333</ele><time>2026-03-22T11:44:19.998Z</time></trkpt><trkpt lat="45.09764274053824" lon="10.036302045085478"><ele>37.666666666666664</ele><time>2026-03-22T11:44:20.998Z</time></trkpt><trkpt lat="45.09769012229597" lon="10.036368903247993"><ele>38.0</ele><time>2026-03-22T11:44:21.998Z</time></trkpt><trkpt lat="45.09773988073984" lon="10.036432067512264"><ele>38.0</ele><time>2026-03-22T11:44:22.998Z</time></trkpt><trkpt lat="45.09778934180503" lon="10.036493369332067"><ele>38.0</ele><time>2026-03-22T11:44:23.998Z</time></trkpt><trkpt lat="45.097850812412815" lon="10.03651668255179"><ele>38.0</ele><time>2026-03-22T11:44:24.998Z</time></trkpt><trkpt lat="45.097965261585934" lon="10.036582770998377"><ele>38.0</ele><time>2026-03-22T11:44:26.998Z</time></trkpt><trkpt lat="45.098026270768635" lon="10.036616354702106"><ele>38.0</ele><time>2026-03-22T11:44:27.998Z</time></trkpt><trkpt lat="45.09808933025435" lon="10.036650394250486"><ele>38.0</ele><time>2026-03-22T11:44:28.998Z</time></trkpt><trkpt lat="45.09814873266825" lon="10.036688662872782"><ele>37.857142857142854</ele><time>2026-03-22T11:44:29.998Z</time></trkpt><trkpt lat="45.09821280601615" lon="10.036735628237363"><ele>37.714285714285715</ele><time>2026-03-22T11:44:30.998Z</time></trkpt><trkpt lat="45.09827451978461" lon="10.036786499844622"><ele>37.57142857142857</ele><time>2026-03-22T11:44:31.998Z</time></trkpt><trkpt lat="45.098336206013464" lon="10.036841646176663"><ele>37.42857142857143</ele><time>2026-03-22T11:44:32.998Z</time></trkpt><trkpt lat="45.09838884597871" lon="10.036918592622936"><ele>37.285714285714285</ele><time>2026-03-22T11:44:33.998Z</time></trkpt><trkpt lat="45.098448225509664" lon="10.03697991313454"><ele>37.142857142857146</ele><time>2026-03-22T11:44:35Z</time></trkpt><trkpt lat="45.098505687397655" lon="10.037046300369738"><ele>37.0</ele><time>2026-03-22T11:44:36Z</time></trkpt><trkpt lat="45.09856035667263" lon="10.03710863082579"><ele>36.57142857142857</ele><time>2026-03-22T11:44:37Z</time></trkpt><trkpt lat="45.09861096100375" lon="10.037167546690052"><ele>36.14285714285714</ele><time>2026-03-22T11:44:38Z</time></trkpt><trkpt lat="45.098661722757626" lon="10.037227392021624"><ele>35.71428571428571</ele><time>2026-03-22T11:44:39Z</time></trkpt><trkpt lat="45.09870858058438" lon="10.037287912333241"><ele>35.285714285714285</ele><time>2026-03-22T11:44:40Z</time></trkpt><trkpt lat="45.098757539884" lon="10.037346377229795"><ele>34.857142857142854</ele><time>2026-03-22T11:44:41Z</time></trkpt><trkpt lat="45.098806500707376" lon="10.03740832031328"><ele>34.42857142857142</ele><time>2026-03-22T11:44:42Z</time></trkpt><trkpt lat="45.098859782042986" lon="10.037470157135957"><ele>34.0</ele><time>2026-03-22T11:44:43Z</time></trkpt><trkpt lat="45.09891116454306" lon="10.037530230292681"><ele>33.857142857142854</ele><time>2026-03-22T11:44:44Z</time></trkpt><trkpt lat="45.098966378936915" lon="10.03759618049598"><ele>33.714285714285715</ele><time>2026-03-22T11:44:45Z</time></trkpt><trkpt lat="45.09901746363147" lon="10.037655779261062"><ele>33.57142857142857</ele><time>2026-03-22T11:44:46Z</time></trkpt><trkpt lat="45.09907289966651" lon="10.037713462836757"><ele>33.42857142857143</ele><time>2026-03-22T11:44:47Z</time></trkpt><trkpt lat="45.09913080660546" lon="10.037767034719918"><ele>33.285714285714285</ele><time>2026-03-22T11:44:48Z</time></trkpt><trkpt lat="45.09918417662843" lon="10.037824362354897"><ele>33.14285714285714</ele><time>2026-03-22T11:44:49Z</time></trkpt><trkpt lat="45.09924037855179" lon="10.037888914654575"><ele>33.0</ele><time>2026-03-22T11:44:50Z</time></trkpt><trkpt lat="45.09929913253296" lon="10.037945462488663"><ele>33.42857142857143</ele><time>2026-03-22T11:44:51Z</time></trkpt><trkpt lat="45.0993598026188" lon="10.037999825393072"><ele>33.85714285714286</ele><time>2026-03-22T11:44:52Z</time></trkpt><trkpt lat="45.09942021083197" lon="10.038048563346267"><ele>34.28571428571429</ele><time>2026-03-22T11:44:53Z</time></trkpt><trkpt lat="45.09948319690901" lon="10.038098629935673"><ele>34.714285714285715</ele><time>2026-03-22T11:44:54Z</time></trkpt><trkpt lat="45.09954310657181" lon="10.038148947081377"><ele>35.142857142857146</ele><time>2026-03-22T11:44:55Z</time></trkpt><trkpt lat="45.099604567418915" lon="10.038201284257202"><ele>35.57142857142858</ele><time>2026-03-22T11:44:56Z</time></trkpt><trkpt lat="45.09966511321261" lon="10.038256096940943"><ele>36.0</ele><time>2026-03-22T11:44:57Z</time></trkpt><trkpt lat="45.09972545494238" lon="10.038306789579487"><ele>36.28571428571429</ele><time>2026-03-22T11:44:58Z</time></trkpt><trkpt lat="45.09979159472778" lon="10.038352717956759"><ele>36.57142857142857</ele><time>2026-03-22T11:44:59Z</time></trkpt><trkpt lat="45.09985330952774" lon="10.038405202370756"><ele>36.85714285714286</ele><time>2026-03-22T11:45:00Z</time></trkpt><trkpt lat="45.09991405784832" lon="10.038459407359994"><ele>37.142857142857146</ele><time>2026-03-22T11:45:01Z</time></trkpt><trkpt lat="45.09997644377772" lon="10.038513580302263"><ele>37.42857142857143</ele><time>2026-03-22T11:45:02Z</time></trkpt><trkpt lat="45.100037155787916" lon="10.038567636698396"><ele>37.714285714285715</ele><time>2026-03-22T11:45:03Z</time></trkpt><trkpt lat="45.10010189969536" lon="10.038620481094865"><ele>38.0</ele><time>2026-03-22T11:45:04Z</time></trkpt><trkpt lat="45.10016423624513" lon="10.038668665145305"><ele>38.0</ele><time>2026-03-22T11:45:05Z</time></trkpt><trkpt lat="45.10022137056695" lon="10.038719339083233"><ele>38.0</ele><time>2026-03-22T11:45:06Z</time></trkpt><trkpt lat="45.10028823339958" lon="10.038743799094444"><ele>38.0</ele><time>2026-03-22T11:45:07Z</time></trkpt><trkpt lat="45.100345504007336" lon="10.038784308524875"><ele>38.0</ele><time>2026-03-22T11:45:08Z</time></trkpt><trkpt lat="45.100405039149" lon="10.038825402947843"><ele>38.0</ele><time>2026-03-22T11:45:09Z</time></trkpt><trkpt lat="45.10046930750534" lon="10.03886857315186"><ele>38.0</ele><time>2026-03-22T11:45:10Z</time></trkpt><trkpt lat="45.100529187018154" lon="10.038931000387274"><ele>38.0</ele><time>2026-03-22T11:45:11Z</time></trkpt><trkpt lat="45.100598816247086" lon="10.038969374542912"><ele>38.0</ele><time>2026-03-22T11:45:12Z</time></trkpt><trkpt lat="45.10066962216566" lon="10.039008191107996"><ele>38.0</ele><time>2026-03-22T11:45:13Z</time></trkpt><trkpt lat="45.10073718268345" lon="10.039052094132938"><ele>38.0</ele><time>2026-03-22T11:45:14Z</time></trkpt><trkpt lat="45.10080453445648" lon="10.039093384447254"><ele>38.0</ele><time>2026-03-22T11:45:15Z</time></trkpt><trkpt lat="45.100873534449036" lon="10.039136604763698"><ele>38.0</ele><time>2026-03-22T11:45:16Z</time></trkpt><trkpt lat="45.100948443483794" lon="10.039156550502293"><ele>38.0</ele><time>2026-03-22T11:45:17Z</time></trkpt><trkpt lat="45.10101648020187" lon="10.03919795857742"><ele>38.0</ele><time>2026-03-22T11:45:18Z</time></trkpt><trkpt lat="45.10108366588111" lon="10.039239078404213"><ele>37.857142857142854</ele><time>2026-03-22T11:45:19Z</time></trkpt><trkpt lat="45.101152999418545" lon="10.039281512671911"><ele>37.714285714285715</ele><time>2026-03-22T11:45:20Z</time></trkpt><trkpt lat="45.101221671746664" lon="10.03932354253919"><ele>37.57142857142857</ele><time>2026-03-22T11:45:21Z</time></trkpt><trkpt lat="45.101290849580174" lon="10.039365881497078"><ele>37.42857142857143</ele><time>2026-03-22T11:45:22Z</time></trkpt><trkpt lat="45.101359211178575" lon="10.039407720885253"><ele>37.285714285714285</ele><time>2026-03-22T11:45:22.999Z</time></trkpt><trkpt lat="45.10142873194601" lon="10.039450269953782"><ele>37.142857142857146</ele><time>2026-03-22T11:45:23.999Z</time></trkpt><trkpt lat="45.10149425592905" lon="10.03949037268418"><ele>37.0</ele><time>2026-03-22T11:45:24.999Z</time></trkpt><trkpt lat="45.10156053940467" lon="10.03953094034796"><ele>36.85714285714286</ele><time>2026-03-22T11:45:25.999Z</time></trkpt><trkpt lat="45.101627223358406" lon="10.039571752609081"><ele>36.714285714285715</ele><time>2026-03-22T11:45:26.999Z</time></trkpt><trkpt lat="45.10169367344197" lon="10.039613262903242"><ele>36.57142857142857</ele><time>2026-03-22T11:45:27.999Z</time></trkpt><trkpt lat="45.101759951436556" lon="10.039654467290152"><ele>36.42857142857143</ele><time>2026-03-22T11:45:28.999Z</time></trkpt><trkpt lat="45.10182360790307" lon="10.039694041792279"><ele>36.285714285714285</ele><time>2026-03-22T11:45:29.999Z</time></trkpt><trkpt lat="45.1018878497143" lon="10.039733980320293"><ele>36.142857142857146</ele><time>2026-03-22T11:45:30.999Z</time></trkpt><trkpt lat="45.10195133172852" lon="10.039772079471126"><ele>36.0</ele><time>2026-03-22T11:45:31.999Z</time></trkpt><trkpt lat="45.102015955907795" lon="10.039808985325742"><ele>36.00000000000001</ele><time>2026-03-22T11:45:32.999Z</time></trkpt><trkpt lat="45.10208300834666" lon="10.039844994482795"><ele>36.0</ele><time>2026-03-22T11:45:33.999Z</time></trkpt><trkpt lat="45.10214927473264" lon="10.039877144575108"><ele>36.0</ele><time>2026-03-22T11:45:34.999Z</time></trkpt><trkpt lat="45.102218262135665" lon="10.03990975937476"><ele>36.0</ele><time>2026-03-22T11:45:35.999Z</time></trkpt><trkpt lat="45.10228707068664" lon="10.03994188882617"><ele>36.0</ele><time>2026-03-22T11:45:36.999Z</time></trkpt><trkpt lat="45.10235668466811" lon="10.039974024079712"><ele>36.00000000000001</ele><time>2026-03-22T11:45:37.999Z</time></trkpt><trkpt lat="45.102423740386314" lon="10.040003689970673"><ele>36.0</ele><time>2026-03-22T11:45:38.999Z</time></trkpt><trkpt lat="45.102490280284464" lon="10.040033127528899"><ele>35.85714285714286</ele><time>2026-03-22T11:45:39.999Z</time></trkpt><trkpt lat="45.10255584035967" lon="10.040062131666382"><ele>35.714285714285715</ele><time>2026-03-22T11:45:40.999Z</time></trkpt><trkpt lat="45.10262617709944" lon="10.040093249009026"><ele>35.57142857142857</ele><time>2026-03-22T11:45:41.999Z</time></trkpt><trkpt lat="45.10269619364903" lon="10.040124224693258"><ele>35.42857142857143</ele><time>2026-03-22T11:45:42.999Z</time></trkpt><trkpt lat="45.10276489317919" lon="10.04015461771801"><ele>35.285714285714285</ele><time>2026-03-22T11:45:43.999Z</time></trkpt><trkpt lat="45.10283536282661" lon="10.04018579388874"><ele>35.142857142857146</ele><time>2026-03-22T11:45:44.999Z</time></trkpt><trkpt lat="45.102903169827734" lon="10.040215795407411"><ele>35.0</ele><time>2026-03-22T11:45:45.999Z</time></trkpt><trkpt lat="45.10297251851073" lon="10.040246998455387"><ele>35.0</ele><time>2026-03-22T11:45:46.999Z</time></trkpt><trkpt lat="45.10304278979896" lon="10.04027861667834"><ele>35.0</ele><time>2026-03-22T11:45:47.999Z</time></trkpt><trkpt lat="45.10311268502676" lon="10.040309251999304"><ele>35.0</ele><time>2026-03-22T11:45:48.999Z</time></trkpt><trkpt lat="45.1031845582023" lon="10.040339878306623"><ele>35.0</ele><time>2026-03-22T11:45:49.999Z</time></trkpt><trkpt lat="45.103255663699926" lon="10.040366639847662"><ele>35.0</ele><time>2026-03-22T11:45:50.999Z</time></trkpt><trkpt lat="45.10332837352485" lon="10.040393325957876"><ele>35.0</ele><time>2026-03-22T11:45:51.999Z</time></trkpt><trkpt lat="45.1034010916838" lon="10.04041822443136"><ele>35.0</ele><time>2026-03-22T11:45:52.999Z</time></trkpt><trkpt lat="45.10347560582095" lon="10.040443739988069"><ele>35.33333333333333</ele><time>2026-03-22T11:45:53.999Z</time></trkpt><trkpt lat="45.10354845933595" lon="10.040468687782893"><ele>35.666666666666664</ele><time>2026-03-22T11:45:54.999Z</time></trkpt><trkpt lat="45.103623397559545" lon="10.04049242913515"><ele>36.0</ele><time>2026-03-22T11:45:55.999Z</time></trkpt><trkpt lat="45.10369589563902" lon="10.040515243780638"><ele>36.333333333333336</ele><time>2026-03-22T11:45:56.999Z</time></trkpt><trkpt lat="45.10377152649422" lon="10.040538906007093"><ele>36.66666666666667</ele><time>2026-03-22T11:45:57.999Z</time></trkpt><trkpt lat="45.10384289615156" lon="10.040561235064501"><ele>37.0</ele><time>2026-03-22T11:45:58.999Z</time></trkpt><trkpt lat="45.10391993219225" lon="10.040585336881822"><ele>37.0</ele><time>2026-03-22T11:45:59.999Z</time></trkpt><trkpt lat="45.10399208649882" lon="10.040608681217078"><ele>37.0</ele><time>2026-03-22T11:46:00.999Z</time></trkpt><trkpt lat="45.10406420351329" lon="10.040632899234465"><ele>37.0</ele><time>2026-03-22T11:46:01.999Z</time></trkpt><trkpt lat="45.10413673029382" lon="10.040657706604422"><ele>37.0</ele><time>2026-03-22T11:46:02.999Z</time></trkpt><trkpt lat="45.104207434025504" lon="10.040682483974244"><ele>37.0</ele><time>2026-03-22T11:46:03.999Z</time></trkpt><trkpt lat="45.10427759409104" lon="10.040707070809242"><ele>37.0</ele><time>2026-03-22T11:46:04.999Z</time></trkpt><trkpt lat="45.104348374269605" lon="10.04073187495957"><ele>37.0</ele><time>2026-03-22T11:46:05.999Z</time></trkpt><trkpt lat="45.10441950387197" lon="10.040756801559207"><ele>37.285714285714285</ele><time>2026-03-22T11:46:06.999Z</time></trkpt><trkpt lat="45.10449113108786" lon="10.040781902537724"><ele>37.57142857142857</ele><time>2026-03-22T11:46:07.999Z</time></trkpt><trkpt lat="45.10456200381481" lon="10.040806549803989"><ele>37.85714285714286</ele><time>2026-03-22T11:46:08.999Z</time></trkpt><trkpt lat="45.104631586389466" lon="10.040830376934897"><ele>38.14285714285714</ele><time>2026-03-22T11:46:09.999Z</time></trkpt><trkpt lat="45.1046994672245" lon="10.040853621326683"><ele>38.42857142857142</ele><time>2026-03-22T11:46:10.999Z</time></trkpt><trkpt lat="45.10476536762364" lon="10.04087618760396"><ele>38.714285714285715</ele><time>2026-03-22T11:46:11.999Z</time></trkpt><trkpt lat="45.10483167614338" lon="10.040898893590935"><ele>39.0</ele><time>2026-03-22T11:46:12.999Z</time></trkpt><trkpt lat="45.104898960507334" lon="10.040921933479682"><ele>38.8</ele><time>2026-03-22T11:46:13.999Z</time></trkpt><trkpt lat="45.10496424473" lon="10.040944287826706"><ele>38.599999999999994</ele><time>2026-03-22T11:46:14.999Z</time></trkpt><trkpt lat="45.10502924249856" lon="10.040978238764072"><ele>38.4</ele><time>2026-03-22T11:46:15.998Z</time></trkpt><trkpt lat="45.105092979150584" lon="10.0410042772743"><ele>38.199999999999996</ele><time>2026-03-22T11:46:16.998Z</time></trkpt><trkpt lat="45.10518009613896" lon="10.041018536479807"><ele>38.0</ele><time>2026-03-22T11:46:18.998Z</time></trkpt><trkpt lat="45.10508232044427" lon="10.04126745067193"><ele>38.0</ele><time>2026-03-22T11:46:21.998Z</time></trkpt><trkpt lat="45.105020410692525" lon="10.041366617108475"><ele>38.0</ele><time>2026-03-22T11:46:23.998Z</time></trkpt><trkpt lat="45.1049921125331" lon="10.041504991334229"><ele>38.0</ele><time>2026-03-22T11:46:25.998Z</time></trkpt><trkpt lat="45.104889710095044" lon="10.041595026827792"><ele>38.0</ele><time>2026-03-22T11:46:27.998Z</time></trkpt><trkpt lat="45.104809756654035" lon="10.04173167919947"><ele>38.0</ele><time>2026-03-22T11:46:29.998Z</time></trkpt><trkpt lat="45.10476697861917" lon="10.04180478246427"><ele>37.8</ele><time>2026-03-22T11:46:30.998Z</time></trkpt><trkpt lat="45.10472487097906" lon="10.041876739942822"><ele>37.599999999999994</ele><time>2026-03-22T11:46:31.998Z</time></trkpt><trkpt lat="45.1046493935029" lon="10.042005722864529"><ele>37.400000000000006</ele><time>2026-03-22T11:46:33.998Z</time></trkpt><trkpt lat="45.10459714430508" lon="10.042146467866448"><ele>37.2</ele><time>2026-03-22T11:46:35.998Z</time></trkpt><trkpt lat="45.10450143291161" lon="10.042258905385783"><ele>37.0</ele><time>2026-03-22T11:46:37.998Z</time></trkpt><trkpt lat="45.10447422797847" lon="10.042340951578295"><ele>37.0</ele><time>2026-03-22T11:46:38.998Z</time></trkpt><trkpt lat="45.104385947357265" lon="10.042457227156032"><ele>37.0</ele><time>2026-03-22T11:46:41Z</time></trkpt><trkpt lat="45.104316122309974" lon="10.042598119914658"><ele>37.0</ele><time>2026-03-22T11:46:43Z</time></trkpt><trkpt lat="45.10423985855121" lon="10.04272200813454"><ele>37.0</ele><time>2026-03-22T11:46:45Z</time></trkpt><trkpt lat="45.104167171932644" lon="10.042840575228348"><ele>37.0</ele><time>2026-03-22T11:46:47Z</time></trkpt><trkpt lat="45.10409724952532" lon="10.042960486370522"><ele>37.0</ele><time>2026-03-22T11:46:49Z</time></trkpt><trkpt lat="45.104035612222695" lon="10.043082699216914"><ele>37.0</ele><time>2026-03-22T11:46:51Z</time></trkpt><trkpt lat="45.103967615313046" lon="10.043188247173891"><ele>37.0</ele><time>2026-03-22T11:46:53Z</time></trkpt><trkpt lat="45.10389409167092" lon="10.043282703702811"><ele>37.0</ele><time>2026-03-22T11:46:55Z</time></trkpt><trkpt lat="45.10393083235124" lon="10.043461424100377"><ele>36.833333333333336</ele><time>2026-03-22T11:46:57Z</time></trkpt><trkpt lat="45.10395853110462" lon="10.043541791961905"><ele>36.66666666666667</ele><time>2026-03-22T11:46:58Z</time></trkpt><trkpt lat="45.103988030088246" lon="10.043620703852573"><ele>36.5</ele><time>2026-03-22T11:46:59Z</time></trkpt><trkpt lat="45.10401857097034" lon="10.043701571058365"><ele>36.333333333333336</ele><time>2026-03-22T11:47:00Z</time></trkpt><trkpt lat="45.10404948034486" lon="10.043781987486257"><ele>36.166666666666664</ele><time>2026-03-22T11:47:01Z</time></trkpt><trkpt lat="45.10411096329333" lon="10.043941409688701"><ele>36.0</ele><time>2026-03-22T11:47:03Z</time></trkpt><trkpt lat="45.10413526383693" lon="10.044029323582658"><ele>36.00000000000001</ele><time>2026-03-22T11:47:04Z</time></trkpt><trkpt lat="45.10416059077593" lon="10.044117553450576"><ele>36.0</ele><time>2026-03-22T11:47:05Z</time></trkpt><trkpt lat="45.10419110497028" lon="10.044206050827581"><ele>36.0</ele><time>2026-03-22T11:47:06Z</time></trkpt><trkpt lat="45.104217892721394" lon="10.044294353259101"><ele>36.0</ele><time>2026-03-22T11:47:07Z</time></trkpt><trkpt lat="45.10424657866991" lon="10.044385375519747"><ele>36.0</ele><time>2026-03-22T11:47:08Z</time></trkpt><trkpt lat="45.10425475855887" lon="10.04448378723365"><ele>36.00000000000001</ele><time>2026-03-22T11:47:09Z</time></trkpt><trkpt lat="45.104291781995315" lon="10.044572962944773"><ele>36.0</ele><time>2026-03-22T11:47:10Z</time></trkpt><trkpt lat="45.10430916859283" lon="10.044669326929975"><ele>36.00000000000001</ele><time>2026-03-22T11:47:11Z</time></trkpt><trkpt lat="45.10432975335935" lon="10.044765064205146"><ele>36.0</ele><time>2026-03-22T11:47:12Z</time></trkpt><trkpt lat="45.104349866840764" lon="10.044860335614683"><ele>36.0</ele><time>2026-03-22T11:47:13Z</time></trkpt><trkpt lat="45.10436884196999" lon="10.044957320901403"><ele>36.0</ele><time>2026-03-22T11:47:14Z</time></trkpt><trkpt lat="45.10438948998551" lon="10.045053784095895"><ele>36.0</ele><time>2026-03-22T11:47:15Z</time></trkpt><trkpt lat="45.10441001352801" lon="10.045151337605377"><ele>36.00000000000001</ele><time>2026-03-22T11:47:16Z</time></trkpt><trkpt lat="45.104432672548874" lon="10.045245694607686"><ele>36.0</ele><time>2026-03-22T11:47:17Z</time></trkpt><trkpt lat="45.10445479345483" lon="10.045342533516974"><ele>35.85714285714286</ele><time>2026-03-22T11:47:18Z</time></trkpt><trkpt lat="45.10447585158745" lon="10.04543775732147"><ele>35.714285714285715</ele><time>2026-03-22T11:47:19Z</time></trkpt><trkpt lat="45.104497594983734" lon="10.045533856110115"><ele>35.57142857142857</ele><time>2026-03-22T11:47:20Z</time></trkpt><trkpt lat="45.104519510737994" lon="10.045630005854312"><ele>35.42857142857143</ele><time>2026-03-22T11:47:21Z</time></trkpt><trkpt lat="45.10454069696062" lon="10.045724595690158"><ele>35.285714285714285</ele><time>2026-03-22T11:47:22Z</time></trkpt><trkpt lat="45.10456152381767" lon="10.045821484917623"><ele>35.142857142857146</ele><time>2026-03-22T11:47:23Z</time></trkpt><trkpt lat="45.10458337625951" lon="10.045914661219143"><ele>35.0</ele><time>2026-03-22T11:47:24Z</time></trkpt><trkpt lat="45.10460500666544" lon="10.046008149703841"><ele>34.714285714285715</ele><time>2026-03-22T11:47:25Z</time></trkpt><trkpt lat="45.104627739043444" lon="10.046099952425386"><ele>34.42857142857143</ele><time>2026-03-22T11:47:26Z</time></trkpt><trkpt lat="45.104650292249" lon="10.046192424693036"><ele>34.14285714285714</ele><time>2026-03-22T11:47:27Z</time></trkpt><trkpt lat="45.10467230074094" lon="10.046285654772088"><ele>33.85714285714286</ele><time>2026-03-22T11:47:27.999Z</time></trkpt><trkpt lat="45.10469497912376" lon="10.046379159124086"><ele>33.57142857142857</ele><time>2026-03-22T11:47:28.999Z</time></trkpt><trkpt lat="45.104714474258955" lon="10.046474376033217"><ele>33.285714285714285</ele><time>2026-03-22T11:47:29.999Z</time></trkpt><trkpt lat="45.10473468856414" lon="10.04656971023338"><ele>33.0</ele><time>2026-03-22T11:47:30.999Z</time></trkpt><trkpt lat="45.104756687130234" lon="10.046663627514173"><ele>33.0</ele><time>2026-03-22T11:47:31.999Z</time></trkpt><trkpt lat="45.10478057569403" lon="10.046756046655403"><ele>33.0</ele><time>2026-03-22T11:47:32.999Z</time></trkpt><trkpt lat="45.10480259864058" lon="10.046849136596245"><ele>33.0</ele><time>2026-03-22T11:47:33.999Z</time></trkpt><trkpt lat="45.1048238474185" lon="10.046944605464388"><ele>33.0</ele><time>2026-03-22T11:47:34.999Z</time></trkpt><trkpt lat="45.10484596457816" lon="10.047037089749443"><ele>33.0</ele><time>2026-03-22T11:47:35.999Z</time></trkpt><trkpt lat="45.104864550641175" lon="10.047130144549387"><ele>33.0</ele><time>2026-03-22T11:47:36.999Z</time></trkpt><trkpt lat="45.10488524977829" lon="10.047226790150791"><ele>33.0</ele><time>2026-03-22T11:47:37.999Z</time></trkpt><trkpt lat="45.104906244559224" lon="10.047318749853465"><ele>33.14285714285714</ele><time>2026-03-22T11:47:38.999Z</time></trkpt><trkpt lat="45.10492650151302" lon="10.047414324017296"><ele>33.285714285714285</ele><time>2026-03-22T11:47:39.999Z</time></trkpt><trkpt lat="45.104949108874514" lon="10.047506478848304"><ele>33.42857142857143</ele><time>2026-03-22T11:47:40.999Z</time></trkpt><trkpt lat="45.10497286896678" lon="10.04759959046478"><ele>33.57142857142857</ele><time>2026-03-22T11:47:41.999Z</time></trkpt><trkpt lat="45.10499658215098" lon="10.047695224312973"><ele>33.714285714285715</ele><time>2026-03-22T11:47:42.999Z</time></trkpt><trkpt lat="45.105024376287496" lon="10.047788278638134"><ele>33.857142857142854</ele><time>2026-03-22T11:47:43.999Z</time></trkpt><trkpt lat="45.10504969110382" lon="10.047887516447368"><ele>34.0</ele><time>2026-03-22T11:47:44.999Z</time></trkpt><trkpt lat="45.10505415910532" lon="10.047990614105723"><ele>34.14285714285714</ele><time>2026-03-22T11:47:45.999Z</time></trkpt><trkpt lat="45.105067708517666" lon="10.048094588819788"><ele>34.285714285714285</ele><time>2026-03-22T11:47:46.999Z</time></trkpt><trkpt lat="45.10508004737904" lon="10.04819631202929"><ele>34.42857142857143</ele><time>2026-03-22T11:47:47.999Z</time></trkpt><trkpt lat="45.105091906479004" lon="10.048295234265112"><ele>34.57142857142857</ele><time>2026-03-22T11:47:48.999Z</time></trkpt><trkpt lat="45.10511946252042" lon="10.048392846023173"><ele>34.714285714285715</ele><time>2026-03-22T11:47:49.999Z</time></trkpt><trkpt lat="45.10512932723988" lon="10.048493044206898"><ele>34.857142857142854</ele><time>2026-03-22T11:47:50.999Z</time></trkpt><trkpt lat="45.10513937433261" lon="10.048592009834072"><ele>35.0</ele><time>2026-03-22T11:47:51.999Z</time></trkpt><trkpt lat="45.10515015649496" lon="10.048691853850466"><ele>35.0</ele><time>2026-03-22T11:47:52.999Z</time></trkpt><trkpt lat="45.105159845672276" lon="10.048789229801132"><ele>35.0</ele><time>2026-03-22T11:47:53.999Z</time></trkpt><trkpt lat="45.105169999067975" lon="10.048885560757258"><ele>35.0</ele><time>2026-03-22T11:47:54.999Z</time></trkpt><trkpt lat="45.10517859968423" lon="10.048981577949903"><ele>35.0</ele><time>2026-03-22T11:47:55.999Z</time></trkpt><trkpt lat="45.10518640369784" lon="10.049081976260021"><ele>35.0</ele><time>2026-03-22T11:47:56.999Z</time></trkpt><trkpt lat="45.10519404987636" lon="10.049178017962047"><ele>35.0</ele><time>2026-03-22T11:47:57.999Z</time></trkpt><trkpt lat="45.10520038627238" lon="10.049277018569642"><ele>35.0</ele><time>2026-03-22T11:47:58.999Z</time></trkpt><trkpt lat="45.10518860084869" lon="10.049378290634127"><ele>34.857142857142854</ele><time>2026-03-22T11:47:59.999Z</time></trkpt><trkpt lat="45.10519207810277" lon="10.04947562023969"><ele>34.714285714285715</ele><time>2026-03-22T11:48:00.999Z</time></trkpt><trkpt lat="45.10519561718072" lon="10.049574680445165"><ele>34.57142857142857</ele><time>2026-03-22T11:48:01.999Z</time></trkpt><trkpt lat="45.10519808800269" lon="10.049673682505983"><ele>34.42857142857143</ele><time>2026-03-22T11:48:02.999Z</time></trkpt><trkpt lat="45.105200353553236" lon="10.04977229355972"><ele>34.285714285714285</ele><time>2026-03-22T11:48:03.999Z</time></trkpt><trkpt lat="45.105202318417234" lon="10.049870965890648"><ele>34.14285714285714</ele><time>2026-03-22T11:48:04.999Z</time></trkpt><trkpt lat="45.10520364341328" lon="10.049966544853737"><ele>34.0</ele><time>2026-03-22T11:48:05.999Z</time></trkpt><trkpt lat="45.10520499877289" lon="10.050064314016318"><ele>33.99999999999999</ele><time>2026-03-22T11:48:06.999Z</time></trkpt><trkpt lat="45.10520603994233" lon="10.050160899200469"><ele>34.0</ele><time>2026-03-22T11:48:07.999Z</time></trkpt><trkpt lat="45.105206871195136" lon="10.050257717945584"><ele>34.0</ele><time>2026-03-22T11:48:08.999Z</time></trkpt><trkpt lat="45.10520748997658" lon="10.050352862027443"><ele>34.0</ele><time>2026-03-22T11:48:09.999Z</time></trkpt><trkpt lat="45.105207613519646" lon="10.050445828286689"><ele>34.0</ele><time>2026-03-22T11:48:10.999Z</time></trkpt><trkpt lat="45.105207739509865" lon="10.050540635667751"><ele>33.99999999999999</ele><time>2026-03-22T11:48:11.999Z</time></trkpt><trkpt lat="45.10520786797509" lon="10.050637305851275"><ele>34.0</ele><time>2026-03-22T11:48:12.999Z</time></trkpt><trkpt lat="45.10520799857661" lon="10.050735583523885"><ele>33.857142857142854</ele><time>2026-03-22T11:48:13.999Z</time></trkpt><trkpt lat="45.10520812215119" lon="10.050828573132948"><ele>33.714285714285715</ele><time>2026-03-22T11:48:14.999Z</time></trkpt><trkpt lat="45.10520824980918" lon="10.050924635928276"><ele>33.57142857142857</ele><time>2026-03-22T11:48:15.999Z</time></trkpt><trkpt lat="45.10520837504248" lon="10.051018873759242"><ele>33.42857142857143</ele><time>2026-03-22T11:48:16.999Z</time></trkpt><trkpt lat="45.105208243287585" lon="10.051112191309423"><ele>33.285714285714285</ele><time>2026-03-22T11:48:17.999Z</time></trkpt><trkpt lat="45.10520766953022" lon="10.051206058111571"><ele>33.14285714285714</ele><time>2026-03-22T11:48:18.999Z</time></trkpt><trkpt lat="45.10519751136645" lon="10.051366455207582"><ele>33.0</ele><time>2026-03-22T11:48:20.998Z</time></trkpt><trkpt lat="45.10514745582357" lon="10.051479746468576"><ele>33.0</ele><time>2026-03-22T11:48:22.998Z</time></trkpt><trkpt lat="45.1050796147444" lon="10.05142476180012"><ele>33.0</ele><time>2026-03-22T11:48:23.998Z</time></trkpt><trkpt lat="45.10501654561917" lon="10.05143501657405"><ele>33.0</ele><time>2026-03-22T11:48:24.998Z</time></trkpt><trkpt lat="45.104953009432286" lon="10.051460211830534"><ele>33.0</ele><time>2026-03-22T11:48:25.998Z</time></trkpt><trkpt lat="45.10488836840799" lon="10.051430849910536"><ele>33.0</ele><time>2026-03-22T11:48:26.998Z</time></trkpt><trkpt lat="45.10482016593581" lon="10.051430253138589"><ele>33.0</ele><time>2026-03-22T11:48:27.998Z</time></trkpt><trkpt lat="45.104751191935556" lon="10.05142964962248"><ele>33.0</ele><time>2026-03-22T11:48:28.998Z</time></trkpt><trkpt lat="45.104683315925634" lon="10.051451445398913"><ele>33.0</ele><time>2026-03-22T11:48:29.998Z</time></trkpt><trkpt lat="45.104614203257576" lon="10.051419829911357"><ele>33.0</ele><time>2026-03-22T11:48:30.998Z</time></trkpt><trkpt lat="45.10454470773628" lon="10.051435589947916"><ele>33.0</ele><time>2026-03-22T11:48:31.998Z</time></trkpt><trkpt lat="45.104474337386264" lon="10.0514186400588"><ele>33.0</ele><time>2026-03-22T11:48:32.998Z</time></trkpt><trkpt lat="45.1044056620366" lon="10.05140510740479"><ele>33.0</ele><time>2026-03-22T11:48:33.998Z</time></trkpt><trkpt lat="45.104336336156095" lon="10.051390573243085"><ele>33.0</ele><time>2026-03-22T11:48:34.998Z</time></trkpt><trkpt lat="45.10426378987734" lon="10.051375008628412"><ele>33.0</ele><time>2026-03-22T11:48:35.998Z</time></trkpt><trkpt lat="45.10419260689399" lon="10.051362332807754"><ele>33.0</ele><time>2026-03-22T11:48:36.998Z</time></trkpt><trkpt lat="45.104119116209255" lon="10.051348917238192"><ele>33.0</ele><time>2026-03-22T11:48:37.998Z</time></trkpt><trkpt lat="45.10404738833491" lon="10.051337257259592"><ele>33.0</ele><time>2026-03-22T11:48:38.998Z</time></trkpt><trkpt lat="45.103975819110545" lon="10.051322233466554"><ele>33.0</ele><time>2026-03-22T11:48:39.998Z</time></trkpt><trkpt lat="45.10390366948955" lon="10.051305717019035"><ele>33.0</ele><time>2026-03-22T11:48:40.998Z</time></trkpt><trkpt lat="45.103830051479754" lon="10.051290274726917"><ele>33.0</ele><time>2026-03-22T11:48:41.998Z</time></trkpt><trkpt lat="45.103756485203256" lon="10.05127229387551"><ele>33.0</ele><time>2026-03-22T11:48:42.998Z</time></trkpt><trkpt lat="45.10368357984996" lon="10.051261192572793"><ele>33.14285714285714</ele><time>2026-03-22T11:48:43.998Z</time></trkpt><trkpt lat="45.103609479590325" lon="10.051248354872055"><ele>33.285714285714285</ele><time>2026-03-22T11:48:44.998Z</time></trkpt><trkpt lat="45.10353813828201" lon="10.051234501742258"><ele>33.42857142857143</ele><time>2026-03-22T11:48:46Z</time></trkpt><trkpt lat="45.103466582289606" lon="10.051218816422653"><ele>33.57142857142857</ele><time>2026-03-22T11:48:47Z</time></trkpt><trkpt lat="45.10339534692343" lon="10.051203700439737"><ele>33.714285714285715</ele><time>2026-03-22T11:48:48Z</time></trkpt><trkpt lat="45.10332238554103" lon="10.051190348610595"><ele>33.857142857142854</ele><time>2026-03-22T11:48:49Z</time></trkpt><trkpt lat="45.103251455523036" lon="10.051180384133723"><ele>34.0</ele><time>2026-03-22T11:48:50Z</time></trkpt><trkpt lat="45.103178720329154" lon="10.051168095291343"><ele>34.14285714285714</ele><time>2026-03-22T11:48:51Z</time></trkpt><trkpt lat="45.10310706303559" lon="10.051154639663725"><ele>34.285714285714285</ele><time>2026-03-22T11:48:52Z</time></trkpt><trkpt lat="45.10303519153739" lon="10.051143866394595"><ele>34.42857142857143</ele><time>2026-03-22T11:48:53Z</time></trkpt><trkpt lat="45.10296236836211" lon="10.051132388155846"><ele>34.57142857142857</ele><time>2026-03-22T11:48:54Z</time></trkpt><trkpt lat="45.102888869461495" lon="10.051125561606"><ele>34.714285714285715</ele><time>2026-03-22T11:48:55Z</time></trkpt><trkpt lat="45.10281486182976" lon="10.05111861793758"><ele>34.857142857142854</ele><time>2026-03-22T11:48:56Z</time></trkpt><trkpt lat="45.10274159381464" lon="10.051110387674312"><ele>35.0</ele><time>2026-03-22T11:48:57Z</time></trkpt><trkpt lat="45.10267066733335" lon="10.051099457518381"><ele>35.0</ele><time>2026-03-22T11:48:58Z</time></trkpt><trkpt lat="45.102598467559034" lon="10.051092975804725"><ele>35.0</ele><time>2026-03-22T11:48:59Z</time></trkpt><trkpt lat="45.1025278582039" lon="10.05108427700147"><ele>35.0</ele><time>2026-03-22T11:49:00Z</time></trkpt><trkpt lat="45.10245784527556" lon="10.051076687105347"><ele>35.0</ele><time>2026-03-22T11:49:01Z</time></trkpt><trkpt lat="45.10238607192255" lon="10.051069963108613"><ele>35.0</ele><time>2026-03-22T11:49:02Z</time></trkpt><trkpt lat="45.10231756837752" lon="10.051066478890514"><ele>35.0</ele><time>2026-03-22T11:49:03Z</time></trkpt><trkpt lat="45.10224912213797" lon="10.051063496945888"><ele>35.0</ele><time>2026-03-22T11:49:04Z</time></trkpt><trkpt lat="45.10217786517894" lon="10.051055520710287"><ele>35.285714285714285</ele><time>2026-03-22T11:49:05Z</time></trkpt><trkpt lat="45.10210802571896" lon="10.051046342272189"><ele>35.57142857142857</ele><time>2026-03-22T11:49:06Z</time></trkpt><trkpt lat="45.10203804249494" lon="10.051035347138892"><ele>35.85714285714286</ele><time>2026-03-22T11:49:07Z</time></trkpt><trkpt lat="45.10196759023438" lon="10.051022995991348"><ele>36.14285714285714</ele><time>2026-03-22T11:49:08Z</time></trkpt><trkpt lat="45.10189845611143" lon="10.051010691585219"><ele>36.42857142857143</ele><time>2026-03-22T11:49:09Z</time></trkpt><trkpt lat="45.101830323994335" lon="10.050997012915829"><ele>36.714285714285715</ele><time>2026-03-22T11:49:10Z</time></trkpt><trkpt lat="45.101762359293645" lon="10.05099173644121"><ele>37.0</ele><time>2026-03-22T11:49:11Z</time></trkpt><trkpt lat="45.10169823794491" lon="10.050985085193393"><ele>37.0</ele><time>2026-03-22T11:49:12Z</time></trkpt><trkpt lat="45.10162531773019" lon="10.051021880892266"><ele>37.0</ele><time>2026-03-22T11:49:13Z</time></trkpt><trkpt lat="45.10155170020597" lon="10.051255882296488"><ele>37.0</ele><time>2026-03-22T11:49:15Z</time></trkpt><trkpt lat="45.10154309044146" lon="10.051361332535683"><ele>37.0</ele><time>2026-03-22T11:49:16Z</time></trkpt><trkpt lat="45.10153523735578" lon="10.051457195395212"><ele>37.0</ele><time>2026-03-22T11:49:17Z</time></trkpt><trkpt lat="45.10152729251161" lon="10.051554178351715"><ele>36.85714285714286</ele><time>2026-03-22T11:49:18Z</time></trkpt><trkpt lat="45.10151936872947" lon="10.051650936579467"><ele>36.714285714285715</ele><time>2026-03-22T11:49:19Z</time></trkpt><trkpt lat="45.10151155138526" lon="10.051746679389412"><ele>36.57142857142857</ele><time>2026-03-22T11:49:20Z</time></trkpt><trkpt lat="45.10150362598922" lon="10.051843745031935"><ele>36.42857142857143</ele><time>2026-03-22T11:49:21Z</time></trkpt><trkpt lat="45.101495879284755" lon="10.051938622544954"><ele>36.285714285714285</ele><time>2026-03-22T11:49:22Z</time></trkpt><trkpt lat="45.10148791825394" lon="10.052036125083163"><ele>36.142857142857146</ele><time>2026-03-22T11:49:23Z</time></trkpt><trkpt lat="45.10148018397222" lon="10.05213085044285"><ele>36.0</ele><time>2026-03-22T11:49:24Z</time></trkpt><trkpt lat="45.101472486021954" lon="10.052225130747136"><ele>36.00000000000001</ele><time>2026-03-22T11:49:25Z</time></trkpt><trkpt lat="45.10146441982868" lon="10.052323921266103"><ele>36.0</ele><time>2026-03-22T11:49:26Z</time></trkpt><trkpt lat="45.10145679018979" lon="10.05241736510663"><ele>36.0</ele><time>2026-03-22T11:49:27Z</time></trkpt><trkpt lat="45.10144882246816" lon="10.052513492460257"><ele>36.0</ele><time>2026-03-22T11:49:28Z</time></trkpt><trkpt lat="45.10144059720892" lon="10.052608897463601"><ele>36.0</ele><time>2026-03-22T11:49:29Z</time></trkpt><trkpt lat="45.1014324083342" lon="10.05270388012403"><ele>36.00000000000001</ele><time>2026-03-22T11:49:30Z</time></trkpt><trkpt lat="45.10142426224238" lon="10.052798366985797"><ele>36.0</ele><time>2026-03-22T11:49:30.999Z</time></trkpt><trkpt lat="45.101415612734115" lon="10.052898692613786"><ele>35.85714285714286</ele><time>2026-03-22T11:49:31.999Z</time></trkpt><trkpt lat="45.10140737403852" lon="10.052994253297934"><ele>35.714285714285715</ele><time>2026-03-22T11:49:32.999Z</time></trkpt><trkpt lat="45.101399089302234" lon="10.053090348093285"><ele>35.57142857142857</ele><time>2026-03-22T11:49:33.999Z</time></trkpt><trkpt lat="45.10139067282813" lon="10.053187970765714"><ele>35.42857142857143</ele><time>2026-03-22T11:49:34.999Z</time></trkpt><trkpt lat="45.101383087615346" lon="10.053283015576339"><ele>35.285714285714285</ele><time>2026-03-22T11:49:35.999Z</time></trkpt><trkpt lat="45.10140627935981" lon="10.053385680433557"><ele>35.142857142857146</ele><time>2026-03-22T11:49:36.999Z</time></trkpt><trkpt lat="45.10139937350374" lon="10.053482008350914"><ele>35.0</ele><time>2026-03-22T11:49:37.999Z</time></trkpt><trkpt lat="45.101390472098664" lon="10.053581545903079"><ele>35.0</ele><time>2026-03-22T11:49:38.999Z</time></trkpt><trkpt lat="45.10138595156067" lon="10.05367838023851"><ele>35.0</ele><time>2026-03-22T11:49:39.999Z</time></trkpt><trkpt lat="45.10138643327235" lon="10.053778688545776"><ele>35.0</ele><time>2026-03-22T11:49:40.999Z</time></trkpt><trkpt lat="45.101382059199395" lon="10.053876596150607"><ele>35.0</ele><time>2026-03-22T11:49:41.999Z</time></trkpt><trkpt lat="45.10137770398457" lon="10.05397467172164"><ele>35.0</ele><time>2026-03-22T11:49:42.999Z</time></trkpt><trkpt lat="45.101351862770926" lon="10.054072462685752"><ele>35.0</ele><time>2026-03-22T11:49:43.999Z</time></trkpt><trkpt lat="45.10136308526951" lon="10.054173558991513"><ele>35.0</ele><time>2026-03-22T11:49:44.999Z</time></trkpt><trkpt lat="45.101398504304804" lon="10.054262815957895"><ele>35.0</ele><time>2026-03-22T11:49:45.999Z</time></trkpt><trkpt lat="45.101401968801234" lon="10.054359206023054"><ele>35.0</ele><time>2026-03-22T11:49:46.999Z</time></trkpt><trkpt lat="45.101429363498305" lon="10.054455587468606"><ele>35.0</ele><time>2026-03-22T11:49:47.999Z</time></trkpt><trkpt lat="45.10145663384615" lon="10.054544788048329"><ele>35.0</ele><time>2026-03-22T11:49:48.999Z</time></trkpt><trkpt lat="45.10148387567069" lon="10.054633311594479"><ele>35.0</ele><time>2026-03-22T11:49:49.999Z</time></trkpt><trkpt lat="45.101512034965175" lon="10.054721809219378"><ele>35.0</ele><time>2026-03-22T11:49:50.999Z</time></trkpt><trkpt lat="45.10154005474066" lon="10.054808412215682"><ele>35.0</ele><time>2026-03-22T11:49:51.999Z</time></trkpt><trkpt lat="45.101568560331216" lon="10.054896516569826"><ele>34.857142857142854</ele><time>2026-03-22T11:49:52.999Z</time></trkpt><trkpt lat="45.101595993596405" lon="10.054981306707898"><ele>34.714285714285715</ele><time>2026-03-22T11:49:53.999Z</time></trkpt><trkpt lat="45.10163908428139" lon="10.055058192083205"><ele>34.57142857142857</ele><time>2026-03-22T11:49:54.999Z</time></trkpt><trkpt lat="45.101667029446276" lon="10.055145482792746"><ele>34.42857142857143</ele><time>2026-03-22T11:49:55.999Z</time></trkpt><trkpt lat="45.10168044055597" lon="10.055242313256585"><ele>34.285714285714285</ele><time>2026-03-22T11:49:56.999Z</time></trkpt><trkpt lat="45.1017083469659" lon="10.055328565756094"><ele>34.14285714285714</ele><time>2026-03-22T11:49:57.999Z</time></trkpt><trkpt lat="45.101737208710105" lon="10.05541777120515"><ele>34.0</ele><time>2026-03-22T11:49:58.999Z</time></trkpt><trkpt lat="45.1017653907304" lon="10.055504875453458"><ele>33.99999999999999</ele><time>2026-03-22T11:49:59.999Z</time></trkpt><trkpt lat="45.10179398560165" lon="10.055593255803146"><ele>34.0</ele><time>2026-03-22T11:50:00.999Z</time></trkpt><trkpt lat="45.10182387277717" lon="10.055685630377733"><ele>34.0</ele><time>2026-03-22T11:50:01.999Z</time></trkpt><trkpt lat="45.101851828827044" lon="10.055772034373321"><ele>34.0</ele><time>2026-03-22T11:50:02.999Z</time></trkpt><trkpt lat="45.10188115740242" lon="10.055861599478403"><ele>34.0</ele><time>2026-03-22T11:50:03.999Z</time></trkpt><trkpt lat="45.101910274562144" lon="10.055950880992793"><ele>33.99999999999999</ele><time>2026-03-22T11:50:04.999Z</time></trkpt><trkpt lat="45.10193885467229" lon="10.056038515752926"><ele>34.0</ele><time>2026-03-22T11:50:05.999Z</time></trkpt><trkpt lat="45.10196875269217" lon="10.056128331022533"><ele>34.285714285714285</ele><time>2026-03-22T11:50:06.999Z</time></trkpt><trkpt lat="45.10199841617707" lon="10.056217298472248"><ele>34.57142857142857</ele><time>2026-03-22T11:50:07.999Z</time></trkpt><trkpt lat="45.102027392905626" lon="10.056304206120663"><ele>34.85714285714286</ele><time>2026-03-22T11:50:08.999Z</time></trkpt><trkpt lat="45.10205736924299" lon="10.056394111855857"><ele>35.14285714285714</ele><time>2026-03-22T11:50:09.999Z</time></trkpt><trkpt lat="45.10208603680137" lon="10.056479869508056"><ele>35.42857142857143</ele><time>2026-03-22T11:50:10.999Z</time></trkpt><trkpt lat="45.1021150731899" lon="10.056566556464468"><ele>35.714285714285715</ele><time>2026-03-22T11:50:11.999Z</time></trkpt><trkpt lat="45.10214420724891" lon="10.05665353504316"><ele>36.0</ele><time>2026-03-22T11:50:12.999Z</time></trkpt><trkpt lat="45.10218809195605" lon="10.056731406060727"><ele>36.28571428571429</ele><time>2026-03-22T11:50:13.999Z</time></trkpt><trkpt lat="45.10220319912444" lon="10.056829652933999"><ele>36.57142857142857</ele><time>2026-03-22T11:50:14.999Z</time></trkpt><trkpt lat="45.102232372688476" lon="10.056916749500532"><ele>36.85714285714286</ele><time>2026-03-22T11:50:15.999Z</time></trkpt><trkpt lat="45.10226121565119" lon="10.057002859050003"><ele>37.142857142857146</ele><time>2026-03-22T11:50:16.999Z</time></trkpt><trkpt lat="45.10229007292413" lon="10.057089011302425"><ele>37.42857142857143</ele><time>2026-03-22T11:50:17.999Z</time></trkpt><trkpt lat="45.102318952737996" lon="10.057175230824205"><ele>37.714285714285715</ele><time>2026-03-22T11:50:18.999Z</time></trkpt><trkpt lat="45.10234845150596" lon="10.057263298242175"><ele>38.0</ele><time>2026-03-22T11:50:19.999Z</time></trkpt><trkpt lat="45.10237719585163" lon="10.057349113409353"><ele>38.0</ele><time>2026-03-22T11:50:20.999Z</time></trkpt><trkpt lat="45.10240586958157" lon="10.05743471763548"><ele>38.0</ele><time>2026-03-22T11:50:21.999Z</time></trkpt><trkpt lat="45.10243527641941" lon="10.057522510604691"><ele>38.0</ele><time>2026-03-22T11:50:22.999Z</time></trkpt><trkpt lat="45.10246559303078" lon="10.057613019625848"><ele>38.0</ele><time>2026-03-22T11:50:23.998Z</time></trkpt><trkpt lat="45.10249582506255" lon="10.05770327622449"><ele>38.0</ele><time>2026-03-22T11:50:24.998Z</time></trkpt><trkpt lat="45.10252387085908" lon="10.057787005806825"><ele>38.0</ele><time>2026-03-22T11:50:25.998Z</time></trkpt><trkpt lat="45.102551118475155" lon="10.057873383048202"><ele>38.0</ele><time>2026-03-22T11:50:26.998Z</time></trkpt><trkpt lat="45.102576935945685" lon="10.057965023358111"><ele>37.857142857142854</ele><time>2026-03-22T11:50:27.998Z</time></trkpt><trkpt lat="45.102600894225766" lon="10.058059862376798"><ele>37.714285714285715</ele><time>2026-03-22T11:50:28.998Z</time></trkpt><trkpt lat="45.102621446536624" lon="10.058150547175465"><ele>37.57142857142857</ele><time>2026-03-22T11:50:29.998Z</time></trkpt><trkpt lat="45.10264152659318" lon="10.058245451324158"><ele>37.42857142857143</ele><time>2026-03-22T11:50:30.998Z</time></trkpt><trkpt lat="45.10266225969911" lon="10.058343441068496"><ele>37.285714285714285</ele><time>2026-03-22T11:50:31.998Z</time></trkpt><trkpt lat="45.102682620175614" lon="10.058439666911998"><ele>37.142857142857146</ele><time>2026-03-22T11:50:32.998Z</time></trkpt><trkpt lat="45.10269688374971" lon="10.058533382567164"><ele>37.0</ele><time>2026-03-22T11:50:33.998Z</time></trkpt><trkpt lat="45.10271283267822" lon="10.058630008065128"><ele>37.0</ele><time>2026-03-22T11:50:34.998Z</time></trkpt><trkpt lat="45.10272849190171" lon="10.058724878304545"><ele>37.0</ele><time>2026-03-22T11:50:35.998Z</time></trkpt><trkpt lat="45.102746075438844" lon="10.058821971065829"><ele>37.0</ele><time>2026-03-22T11:50:36.998Z</time></trkpt><trkpt lat="45.10276510621914" lon="10.058914826624491"><ele>37.0</ele><time>2026-03-22T11:50:37.998Z</time></trkpt><trkpt lat="45.10280479240012" lon="10.058997153126308"><ele>37.0</ele><time>2026-03-22T11:50:38.998Z</time></trkpt><trkpt lat="45.10283838228443" lon="10.059080480523502"><ele>37.0</ele><time>2026-03-22T11:50:39.998Z</time></trkpt><trkpt lat="45.10289435024717" lon="10.05913896125994"><ele>37.0</ele><time>2026-03-22T11:50:40.998Z</time></trkpt><trkpt lat="45.1029644818454" lon="10.059166824262316"><ele>36.85714285714286</ele><time>2026-03-22T11:50:41.998Z</time></trkpt><trkpt lat="45.10303961556895" lon="10.059174321946333"><ele>36.714285714285715</ele><time>2026-03-22T11:50:42.998Z</time></trkpt><trkpt lat="45.103114216010766" lon="10.059185189319987"><ele>36.57142857142857</ele><time>2026-03-22T11:50:43.998Z</time></trkpt><trkpt lat="45.10318403881568" lon="10.059213246903255"><ele>36.42857142857143</ele><time>2026-03-22T11:50:44.998Z</time></trkpt><trkpt lat="45.103246454602775" lon="10.059270902913948"><ele>36.285714285714285</ele><time>2026-03-22T11:50:45.998Z</time></trkpt><trkpt lat="45.10329505044534" lon="10.05934905837514"><ele>36.142857142857146</ele><time>2026-03-22T11:50:46.998Z</time></trkpt><trkpt lat="45.103337285171044" lon="10.059420184648435"><ele>36.0</ele><time>2026-03-22T11:50:47.998Z</time></trkpt><trkpt lat="45.10329976649646" lon="10.059547612198015"><ele>35.85714285714286</ele><time>2026-03-22T11:50:48.998Z</time></trkpt><trkpt lat="45.103294573905075" lon="10.059638664461598"><ele>35.714285714285715</ele><time>2026-03-22T11:50:49.998Z</time></trkpt><trkpt lat="45.103294861917234" lon="10.059737314418651"><ele>35.57142857142857</ele><time>2026-03-22T11:50:51Z</time></trkpt><trkpt lat="45.10329295531236" lon="10.059836909393916"><ele>35.42857142857143</ele><time>2026-03-22T11:50:52Z</time></trkpt><trkpt lat="45.103291063913275" lon="10.059935709461572"><ele>35.285714285714285</ele><time>2026-03-22T11:50:53Z</time></trkpt><trkpt lat="45.10328917036407" lon="10.060034618583195"><ele>35.142857142857146</ele><time>2026-03-22T11:50:54Z</time></trkpt><trkpt lat="45.103286933143536" lon="10.060130916268564"><ele>35.0</ele><time>2026-03-22T11:50:55Z</time></trkpt><trkpt lat="45.103284878217615" lon="10.060228709948914"><ele>34.857142857142854</ele><time>2026-03-22T11:50:56Z</time></trkpt><trkpt lat="45.10328283959371" lon="10.060325727737299"><ele>34.714285714285715</ele><time>2026-03-22T11:50:57Z</time></trkpt><trkpt lat="45.10328086858338" lon="10.060419527823257"><ele>34.57142857142857</ele><time>2026-03-22T11:50:58Z</time></trkpt><trkpt lat="45.103278789319994" lon="10.06051847970347"><ele>34.42857142857143</ele><time>2026-03-22T11:50:59Z</time></trkpt><trkpt lat="45.10327668813386" lon="10.060618474856966"><ele>34.285714285714285</ele><time>2026-03-22T11:51:00Z</time></trkpt><trkpt lat="45.10327467453512" lon="10.06071430181718"><ele>34.14285714285714</ele><time>2026-03-22T11:51:01Z</time></trkpt><trkpt lat="45.1032726364791" lon="10.060811292599748"><ele>34.0</ele><time>2026-03-22T11:51:02Z</time></trkpt><trkpt lat="45.103270640416206" lon="10.06090628500479"><ele>34.285714285714285</ele><time>2026-03-22T11:51:03Z</time></trkpt><trkpt lat="45.1032689999065" lon="10.061002059733594"><ele>34.57142857142857</ele><time>2026-03-22T11:51:04Z</time></trkpt><trkpt lat="45.10326769385451" lon="10.061099337717382"><ele>34.85714285714286</ele><time>2026-03-22T11:51:05Z</time></trkpt><trkpt lat="45.10326640769251" lon="10.061195134279131"><ele>35.14285714285714</ele><time>2026-03-22T11:51:06Z</time></trkpt><trkpt lat="45.10326510892029" lon="10.06129187002962"><ele>35.42857142857143</ele><time>2026-03-22T11:51:07Z</time></trkpt><trkpt lat="45.10326386003143" lon="10.06138489034587"><ele>35.714285714285715</ele><time>2026-03-22T11:51:08Z</time></trkpt><trkpt lat="45.103262612225215" lon="10.061477830066336"><ele>36.0</ele><time>2026-03-22T11:51:09Z</time></trkpt><trkpt lat="45.10326134728413" lon="10.061572045878682"><ele>35.85714285714286</ele><time>2026-03-22T11:51:10Z</time></trkpt><trkpt lat="45.10326006524269" lon="10.061667535446958"><ele>35.714285714285715</ele><time>2026-03-22T11:51:11Z</time></trkpt><trkpt lat="45.103258739853445" lon="10.061766253661467"><ele>35.57142857142857</ele><time>2026-03-22T11:51:12Z</time></trkpt><trkpt lat="45.10325695877924" lon="10.06186627429242"><ele>35.42857142857143</ele><time>2026-03-22T11:51:13Z</time></trkpt><trkpt lat="45.10325498701059" lon="10.06196360418542"><ele>35.285714285714285</ele><time>2026-03-22T11:51:14Z</time></trkpt><trkpt lat="45.10325269618386" lon="10.062060246076426"><ele>35.142857142857146</ele><time>2026-03-22T11:51:15Z</time></trkpt><trkpt lat="45.10324954772375" lon="10.062156062651711"><ele>35.0</ele><time>2026-03-22T11:51:16Z</time></trkpt><trkpt lat="45.10324588327424" lon="10.062252064469103"><ele>35.0</ele><time>2026-03-22T11:51:17Z</time></trkpt><trkpt lat="45.10323953156793" lon="10.06234742949497"><ele>35.0</ele><time>2026-03-22T11:51:18Z</time></trkpt><trkpt lat="45.103233287293435" lon="10.062441181580946"><ele>35.0</ele><time>2026-03-22T11:51:19Z</time></trkpt><trkpt lat="45.10322839191343" lon="10.062534666325982"><ele>35.0</ele><time>2026-03-22T11:51:20Z</time></trkpt><trkpt lat="45.10323175335856" lon="10.062632739501689"><ele>35.0</ele><time>2026-03-22T11:51:21Z</time></trkpt><trkpt lat="45.103250959298315" lon="10.062720462466999"><ele>35.0</ele><time>2026-03-22T11:51:22Z</time></trkpt><trkpt lat="45.10333833627234" lon="10.06276219607335"><ele>35.0</ele><time>2026-03-22T11:51:23Z</time></trkpt><trkpt lat="45.103408287328044" lon="10.062769643711073"><ele>34.857142857142854</ele><time>2026-03-22T11:51:24Z</time></trkpt><trkpt lat="45.10347417032896" lon="10.062732354082941"><ele>34.714285714285715</ele><time>2026-03-22T11:51:25Z</time></trkpt><trkpt lat="45.10353515238146" lon="10.0626869557167"><ele>34.57142857142857</ele><time>2026-03-22T11:51:26Z</time></trkpt><trkpt lat="45.103597219004506" lon="10.06265092123323"><ele>34.42857142857143</ele><time>2026-03-22T11:51:27Z</time></trkpt><trkpt lat="45.10366141975997" lon="10.062622020914942"><ele>34.285714285714285</ele><time>2026-03-22T11:51:28Z</time></trkpt><trkpt lat="45.10372693728511" lon="10.062593330191"><ele>34.14285714285714</ele><time>2026-03-22T11:51:29Z</time></trkpt><trkpt lat="45.10379323004736" lon="10.062560061547137"><ele>34.0</ele><time>2026-03-22T11:51:30Z</time></trkpt><trkpt lat="45.103857870988" lon="10.062522185575405"><ele>33.99999999999999</ele><time>2026-03-22T11:51:31Z</time></trkpt><trkpt lat="45.10392287817349" lon="10.062479379186241"><ele>34.0</ele><time>2026-03-22T11:51:32Z</time></trkpt><trkpt lat="45.103989172833046" lon="10.062439825450175"><ele>34.0</ele><time>2026-03-22T11:51:32.999Z</time></trkpt><trkpt lat="45.10405582648486" lon="10.062402076087315"><ele>34.0</ele><time>2026-03-22T11:51:33.999Z</time></trkpt><trkpt lat="45.104125026264725" lon="10.062368803134232"><ele>34.0</ele><time>2026-03-22T11:51:34.999Z</time></trkpt><trkpt lat="45.104193236379714" lon="10.062335502595882"><ele>33.99999999999999</ele><time>2026-03-22T11:51:35.999Z</time></trkpt><trkpt lat="45.104261124743985" lon="10.062299496630576"><ele>34.0</ele><time>2026-03-22T11:51:36.999Z</time></trkpt><trkpt lat="45.10432918776856" lon="10.062256513633267"><ele>33.71428571428571</ele><time>2026-03-22T11:51:37.999Z</time></trkpt><trkpt lat="45.10439675707794" lon="10.06221656365115"><ele>33.42857142857143</ele><time>2026-03-22T11:51:38.999Z</time></trkpt><trkpt lat="45.1044650942271" lon="10.062177668300974"><ele>33.14285714285714</ele><time>2026-03-22T11:51:39.999Z</time></trkpt><trkpt lat="45.10453406291688" lon="10.062138610161716"><ele>32.857142857142854</ele><time>2026-03-22T11:51:40.999Z</time></trkpt><trkpt lat="45.10460340887847" lon="10.062101613968926"><ele>32.57142857142857</ele><time>2026-03-22T11:51:41.999Z</time></trkpt><trkpt lat="45.10467577865742" lon="10.062068856524611"><ele>32.285714285714285</ele><time>2026-03-22T11:51:42.999Z</time></trkpt><trkpt lat="45.10474824124189" lon="10.06204009090016"><ele>32.0</ele><time>2026-03-22T11:51:43.999Z</time></trkpt><trkpt lat="45.10482137016552" lon="10.06201966509552"><ele>31.999999999999996</ele><time>2026-03-22T11:51:44.999Z</time></trkpt><trkpt lat="45.10489721670779" lon="10.062014544157583"><ele>32.0</ele><time>2026-03-22T11:51:45.999Z</time></trkpt><trkpt lat="45.10497531929119" lon="10.062024500694132"><ele>32.0</ele><time>2026-03-22T11:51:46.999Z</time></trkpt><trkpt lat="45.10505344494381" lon="10.062049208355017"><ele>32.0</ele><time>2026-03-22T11:51:47.999Z</time></trkpt><trkpt lat="45.10512543541465" lon="10.062082284949733"><ele>31.999999999999996</ele><time>2026-03-22T11:51:48.999Z</time></trkpt><trkpt lat="45.10519341503115" lon="10.062127718939278"><ele>32.0</ele><time>2026-03-22T11:51:49.999Z</time></trkpt><trkpt lat="45.1052564289328" lon="10.062177444423304"><ele>31.999999999999996</ele><time>2026-03-22T11:51:50.999Z</time></trkpt><trkpt lat="45.105316158015874" lon="10.06222887905852"><ele>32.0</ele><time>2026-03-22T11:51:51.999Z</time></trkpt><trkpt lat="45.1053707753765" lon="10.062288371227408"><ele>32.0</ele><time>2026-03-22T11:51:52.999Z</time></trkpt><trkpt lat="45.105424306896616" lon="10.062353841017593"><ele>32.0</ele><time>2026-03-22T11:51:53.999Z</time></trkpt><trkpt lat="45.105473257546706" lon="10.062413151107934"><ele>31.999999999999996</ele><time>2026-03-22T11:51:54.999Z</time></trkpt><trkpt lat="45.105520313952574" lon="10.062473932420984"><ele>32.0</ele><time>2026-03-22T11:51:55.999Z</time></trkpt><trkpt lat="45.10560327555601" lon="10.062600110044313"><ele>32.5</ele><time>2026-03-22T11:51:57.999Z</time></trkpt><trkpt lat="45.105684631575556" lon="10.062730335463236"><ele>33.0</ele><time>2026-03-22T11:51:59.999Z</time></trkpt><trkpt lat="45.10576609675598" lon="10.062852200066727"><ele>33.5</ele><time>2026-03-22T11:52:01.999Z</time></trkpt><trkpt lat="45.10584775386444" lon="10.06297575686948"><ele>34.0</ele><time>2026-03-22T11:52:03.999Z</time></trkpt><trkpt lat="45.10592514948587" lon="10.063103555331226"><ele>33.99999999999999</ele><time>2026-03-22T11:52:05.999Z</time></trkpt><trkpt lat="45.106003196235314" lon="10.06322890875531"><ele>34.0</ele><time>2026-03-22T11:52:07.999Z</time></trkpt><trkpt lat="45.106046318359" lon="10.06329441144301"><ele>34.0</ele><time>2026-03-22T11:52:08.999Z</time></trkpt><trkpt lat="45.10608803314338" lon="10.063361237012591"><ele>34.0</ele><time>2026-03-22T11:52:09.999Z</time></trkpt><trkpt lat="45.10612963674985" lon="10.063429327314978"><ele>34.0</ele><time>2026-03-22T11:52:10.999Z</time></trkpt><trkpt lat="45.10617166319213" lon="10.063500021181543"><ele>33.99999999999999</ele><time>2026-03-22T11:52:11.999Z</time></trkpt><trkpt lat="45.1062168892861" lon="10.063569879748208"><ele>34.0</ele><time>2026-03-22T11:52:12.999Z</time></trkpt><trkpt lat="45.10626286416203" lon="10.063641599487214"><ele>34.14285714285714</ele><time>2026-03-22T11:52:13.999Z</time></trkpt><trkpt lat="45.10630960477846" lon="10.063714841179413"><ele>34.285714285714285</ele><time>2026-03-22T11:52:14.999Z</time></trkpt><trkpt lat="45.10635775362159" lon="10.063790820206588"><ele>34.42857142857143</ele><time>2026-03-22T11:52:15.999Z</time></trkpt><trkpt lat="45.10640366976341" lon="10.063868008794019"><ele>34.57142857142857</ele><time>2026-03-22T11:52:16.999Z</time></trkpt><trkpt lat="45.10645349054852" lon="10.063946602679913"><ele>34.714285714285715</ele><time>2026-03-22T11:52:17.999Z</time></trkpt><trkpt lat="45.10650524436166" lon="10.06402764950324"><ele>34.857142857142854</ele><time>2026-03-22T11:52:18.999Z</time></trkpt><trkpt lat="45.10655510017238" lon="10.064110077025687"><ele>35.0</ele><time>2026-03-22T11:52:19.999Z</time></trkpt><trkpt lat="45.106607690958626" lon="10.06419217957498"><ele>34.666666666666664</ele><time>2026-03-22T11:52:20.999Z</time></trkpt><trkpt lat="45.10665809552003" lon="10.06427471549123"><ele>34.33333333333333</ele><time>2026-03-22T11:52:21.999Z</time></trkpt><trkpt lat="45.10670744187153" lon="10.06435688670118"><ele>34.0</ele><time>2026-03-22T11:52:22.999Z</time></trkpt><trkpt lat="45.10675617874936" lon="10.064441171915817"><ele>33.666666666666664</ele><time>2026-03-22T11:52:23.999Z</time></trkpt><trkpt lat="45.106805129563675" lon="10.064521488611158"><ele>33.333333333333336</ele><time>2026-03-22T11:52:24.999Z</time></trkpt><trkpt lat="45.10685597498532" lon="10.064595605345811"><ele>33.0</ele><time>2026-03-22T11:52:25.998Z</time></trkpt><trkpt lat="45.106906811314346" lon="10.06467139390824"><ele>33.0</ele><time>2026-03-22T11:52:26.998Z</time></trkpt><trkpt lat="45.106955046203865" lon="10.06474699087589"><ele>33.0</ele><time>2026-03-22T11:52:27.998Z</time></trkpt><trkpt lat="45.107003574774836" lon="10.06482322646624"><ele>33.0</ele><time>2026-03-22T11:52:28.998Z</time></trkpt><trkpt lat="45.10705214149526" lon="10.064902509461465"><ele>33.0</ele><time>2026-03-22T11:52:29.998Z</time></trkpt><trkpt lat="45.10710000363433" lon="10.064978487167245"><ele>33.0</ele><time>2026-03-22T11:52:30.998Z</time></trkpt><trkpt lat="45.107147893791904" lon="10.065053071647576"><ele>33.0</ele><time>2026-03-22T11:52:31.998Z</time></trkpt><trkpt lat="45.107193519215066" lon="10.065136233522875"><ele>33.0</ele><time>2026-03-22T11:52:32.998Z</time></trkpt><trkpt lat="45.10724165349378" lon="10.06521505396497"><ele>33.0</ele><time>2026-03-22T11:52:33.998Z</time></trkpt><trkpt lat="45.107291026128834" lon="10.065292312954654"><ele>33.0</ele><time>2026-03-22T11:52:34.998Z</time></trkpt><trkpt lat="45.10734211520909" lon="10.065365718666621"><ele>33.0</ele><time>2026-03-22T11:52:35.998Z</time></trkpt><trkpt lat="45.107391604756195" lon="10.065442265061103"><ele>33.0</ele><time>2026-03-22T11:52:36.998Z</time></trkpt><trkpt lat="45.10743682149006" lon="10.065521668374737"><ele>33.0</ele><time>2026-03-22T11:52:37.998Z</time></trkpt><trkpt lat="45.10748467566333" lon="10.065600765026048"><ele>33.0</ele><time>2026-03-22T11:52:38.998Z</time></trkpt><trkpt lat="45.10753404175908" lon="10.06567576095125"><ele>33.0</ele><time>2026-03-22T11:52:39.998Z</time></trkpt><trkpt lat="45.107583621761854" lon="10.065750040304819"><ele>33.0</ele><time>2026-03-22T11:52:40.998Z</time></trkpt><trkpt lat="45.1076292109325" lon="10.065828228768577"><ele>33.0</ele><time>2026-03-22T11:52:41.998Z</time></trkpt><trkpt lat="45.10767646017208" lon="10.06590844404808"><ele>33.0</ele><time>2026-03-22T11:52:42.998Z</time></trkpt><trkpt lat="45.10772171613965" lon="10.065987235350837"><ele>33.0</ele><time>2026-03-22T11:52:43.998Z</time></trkpt><trkpt lat="45.10776749069031" lon="10.066060084641592"><ele>33.0</ele><time>2026-03-22T11:52:44.998Z</time></trkpt><trkpt lat="45.10781632553515" lon="10.066140524274031"><ele>33.0</ele><time>2026-03-22T11:52:45.998Z</time></trkpt><trkpt lat="45.1078633046482" lon="10.066211992822875"><ele>33.0</ele><time>2026-03-22T11:52:46.998Z</time></trkpt><trkpt lat="45.10790964843551" lon="10.066288237893554"><ele>33.0</ele><time>2026-03-22T11:52:47.998Z</time></trkpt><trkpt lat="45.107955552072305" lon="10.06636214762559"><ele>33.0</ele><time>2026-03-22T11:52:48.998Z</time></trkpt><trkpt lat="45.10800104003353" lon="10.066440266561724"><ele>33.0</ele><time>2026-03-22T11:52:49.998Z</time></trkpt><trkpt lat="45.108049906164666" lon="10.066516025664276"><ele>33.0</ele><time>2026-03-22T11:52:50.998Z</time></trkpt><trkpt lat="45.10809467596456" lon="10.066592345217831"><ele>33.0</ele><time>2026-03-22T11:52:51.998Z</time></trkpt><trkpt lat="45.108141248079626" lon="10.066670900015543"><ele>33.0</ele><time>2026-03-22T11:52:52.998Z</time></trkpt><trkpt lat="45.10818523461277" lon="10.066749404739884"><ele>33.0</ele><time>2026-03-22T11:52:53.998Z</time></trkpt><trkpt lat="45.1082323866973" lon="10.06682639531916"><ele>33.0</ele><time>2026-03-22T11:52:54.998Z</time></trkpt><trkpt lat="45.108278930491" lon="10.066901093101192"><ele>33.0</ele><time>2026-03-22T11:52:55.998Z</time></trkpt><trkpt lat="45.108322960348076" lon="10.066976458808439"><ele>33.0</ele><time>2026-03-22T11:52:57Z</time></trkpt><trkpt lat="45.10837154189446" lon="10.067051387768783"><ele>33.0</ele><time>2026-03-22T11:52:58Z</time></trkpt><trkpt lat="45.10841635661348" lon="10.067125568958337"><ele>33.0</ele><time>2026-03-22T11:52:59Z</time></trkpt><trkpt lat="45.10846055532402" lon="10.067206091310283"><ele>33.0</ele><time>2026-03-22T11:53:00Z</time></trkpt><trkpt lat="45.108504207926636" lon="10.067282339350681"><ele>33.0</ele><time>2026-03-22T11:53:01Z</time></trkpt><trkpt lat="45.108549528422394" lon="10.067361321064919"><ele>33.0</ele><time>2026-03-22T11:53:02Z</time></trkpt><trkpt lat="45.10859598737304" lon="10.067434057729816"><ele>33.0</ele><time>2026-03-22T11:53:03Z</time></trkpt><trkpt lat="45.10864094597542" lon="10.067507367598388"><ele>33.0</ele><time>2026-03-22T11:53:04Z</time></trkpt><trkpt lat="45.108686459277024" lon="10.067584312367298"><ele>33.0</ele><time>2026-03-22T11:53:05Z</time></trkpt><trkpt lat="45.10873092727561" lon="10.067658756228754"><ele>33.0</ele><time>2026-03-22T11:53:06Z</time></trkpt><trkpt lat="45.10877672714116" lon="10.067737304454706"><ele>33.0</ele><time>2026-03-22T11:53:07Z</time></trkpt><trkpt lat="45.108822306857256" lon="10.067814771759318"><ele>33.0</ele><time>2026-03-22T11:53:08Z</time></trkpt><trkpt lat="45.10886869464056" lon="10.06789040905984"><ele>33.0</ele><time>2026-03-22T11:53:09Z</time></trkpt><trkpt lat="45.108914730359174" lon="10.067971373411481"><ele>33.0</ele><time>2026-03-22T11:53:10Z</time></trkpt><trkpt lat="45.10896188901096" lon="10.06804420960179"><ele>33.0</ele><time>2026-03-22T11:53:11Z</time></trkpt><trkpt lat="45.109009060486265" lon="10.068119615182592"><ele>33.0</ele><time>2026-03-22T11:53:12Z</time></trkpt><trkpt lat="45.109055090635465" lon="10.068198072364986"><ele>33.0</ele><time>2026-03-22T11:53:13Z</time></trkpt><trkpt lat="45.109101925301914" lon="10.068272106484061"><ele>33.0</ele><time>2026-03-22T11:53:14Z</time></trkpt><trkpt lat="45.10914914759133" lon="10.068352026790379"><ele>33.0</ele><time>2026-03-22T11:53:15Z</time></trkpt><trkpt lat="45.10919372695853" lon="10.068427987995674"><ele>33.0</ele><time>2026-03-22T11:53:16Z</time></trkpt><trkpt lat="45.109240536655385" lon="10.068507877134849"><ele>33.0</ele><time>2026-03-22T11:53:17Z</time></trkpt><trkpt lat="45.109287000596886" lon="10.068584878117145"><ele>33.0</ele><time>2026-03-22T11:53:18Z</time></trkpt><trkpt lat="45.10933446235719" lon="10.068659698314294"><ele>33.0</ele><time>2026-03-22T11:53:19Z</time></trkpt><trkpt lat="45.10938104753344" lon="10.06873537929518"><ele>33.0</ele><time>2026-03-22T11:53:20Z</time></trkpt><trkpt lat="45.109414764558586" lon="10.06882765456038"><ele>33.0</ele><time>2026-03-22T11:53:21Z</time></trkpt><trkpt lat="45.10946192852137" lon="10.068905648813507"><ele>33.0</ele><time>2026-03-22T11:53:22Z</time></trkpt><trkpt lat="45.109508635288" lon="10.068982241571238"><ele>33.0</ele><time>2026-03-22T11:53:23Z</time></trkpt><trkpt lat="45.10955419011613" lon="10.069060545677814"><ele>33.0</ele><time>2026-03-22T11:53:24Z</time></trkpt><trkpt lat="45.10959456354188" lon="10.069140194388279"><ele>33.0</ele><time>2026-03-22T11:53:25Z</time></trkpt><trkpt lat="45.10963275701394" lon="10.069225199966123"><ele>33.0</ele><time>2026-03-22T11:53:26Z</time></trkpt><trkpt lat="45.10966526159528" lon="10.069308388355507"><ele>33.0</ele><time>2026-03-22T11:53:27Z</time></trkpt><trkpt lat="45.10972001197215" lon="10.069379977681955"><ele>33.0</ele><time>2026-03-22T11:53:28Z</time></trkpt><trkpt lat="45.10974662362346" lon="10.069472157602782"><ele>33.0</ele><time>2026-03-22T11:53:29Z</time></trkpt><trkpt lat="45.10977813026283" lon="10.069564233166759"><ele>33.0</ele><time>2026-03-22T11:53:30Z</time></trkpt><trkpt lat="45.10981061601259" lon="10.069650675391074"><ele>33.0</ele><time>2026-03-22T11:53:31Z</time></trkpt><trkpt lat="45.109840106529965" lon="10.06973821972913"><ele>33.0</ele><time>2026-03-22T11:53:32Z</time></trkpt><trkpt lat="45.10987138593302" lon="10.06982578279474"><ele>33.0</ele><time>2026-03-22T11:53:33Z</time></trkpt><trkpt lat="45.1099018363815" lon="10.069915902498288"><ele>33.0</ele><time>2026-03-22T11:53:34Z</time></trkpt><trkpt lat="45.10992801001501" lon="10.070000470532339"><ele>33.0</ele><time>2026-03-22T11:53:35Z</time></trkpt><trkpt lat="45.109959623496565" lon="10.070087141435417"><ele>33.0</ele><time>2026-03-22T11:53:36Z</time></trkpt><trkpt lat="45.1099860032367" lon="10.070172960970964"><ele>33.8</ele><time>2026-03-22T11:53:37Z</time></trkpt><trkpt lat="45.11001397799421" lon="10.070255450356937"><ele>34.599999999999994</ele><time>2026-03-22T11:53:37.999Z</time></trkpt><trkpt lat="45.110075398068304" lon="10.070409216624167"><ele>35.400000000000006</ele><time>2026-03-22T11:53:39.999Z</time></trkpt><trkpt lat="45.11015039150593" lon="10.070534130818864"><ele>36.2</ele><time>2026-03-22T11:53:41.999Z</time></trkpt><trkpt lat="45.110238730902324" lon="10.070631466945827"><ele>37.0</ele><time>2026-03-22T11:53:43.999Z</time></trkpt><trkpt lat="45.11033733933044" lon="10.070704362102294"><ele>37.8</ele><time>2026-03-22T11:53:45.999Z</time></trkpt><trkpt lat="45.11043224602255" lon="10.070774643522212"><ele>38.6</ele><time>2026-03-22T11:53:47.999Z</time></trkpt><trkpt lat="45.110535820006106" lon="10.070851073052781"><ele>39.4</ele><time>2026-03-22T11:53:49.999Z</time></trkpt><trkpt lat="45.11064142340723" lon="10.070914585609781"><ele>40.199999999999996</ele><time>2026-03-22T11:53:51.999Z</time></trkpt><trkpt lat="45.11072593465644" lon="10.070987268879582"><ele>41.0</ele><time>2026-03-22T11:53:53.999Z</time></trkpt><trkpt lat="45.110760732522806" lon="10.0710632383456"><ele>41.0</ele><time>2026-03-22T11:53:55.999Z</time></trkpt><trkpt lat="45.11069181454212" lon="10.071139624889367"><ele>41.0</ele><time>2026-03-22T11:53:57.999Z</time></trkpt><trkpt lat="45.110638185704175" lon="10.071266354393291"><ele>41.0</ele><time>2026-03-22T11:53:59.999Z</time></trkpt><trkpt lat="45.11058927639169" lon="10.071397963279278"><ele>41.0</ele><time>2026-03-22T11:54:01.999Z</time></trkpt><trkpt lat="45.110544648402524" lon="10.071545206704506"><ele>41.0</ele><time>2026-03-22T11:54:03.999Z</time></trkpt><trkpt lat="45.110499146353675" lon="10.071682360698583"><ele>41.0</ele><time>2026-03-22T11:54:05.999Z</time></trkpt><trkpt lat="45.110457320840275" lon="10.071793662871245"><ele>41.0</ele><time>2026-03-22T11:54:07.999Z</time></trkpt><trkpt lat="45.11040813418014" lon="10.07193870124842"><ele>41.0</ele><time>2026-03-22T11:54:09.999Z</time></trkpt><trkpt lat="45.11035598790872" lon="10.072083774310057"><ele>41.0</ele><time>2026-03-22T11:54:11.999Z</time></trkpt><trkpt lat="45.110322840726155" lon="10.072177777056533"><ele>41.0</ele><time>2026-03-22T11:54:12.999Z</time></trkpt><trkpt lat="45.11027176841683" lon="10.072321339814952"><ele>41.0</ele><time>2026-03-22T11:54:14.999Z</time></trkpt><trkpt lat="45.110237627832255" lon="10.072396386662946"><ele>41.0</ele><time>2026-03-22T11:54:15.999Z</time></trkpt><trkpt lat="45.11019270652235" lon="10.072463533150403"><ele>41.0</ele><time>2026-03-22T11:54:16.999Z</time></trkpt><trkpt lat="45.11012709297943" lon="10.072613910022191"><ele>41.0</ele><time>2026-03-22T11:54:18.999Z</time></trkpt><trkpt lat="45.110087388850864" lon="10.072683568582407"><ele>41.0</ele><time>2026-03-22T11:54:19.999Z</time></trkpt><trkpt lat="45.11006174477262" lon="10.072771737948404"><ele>41.0</ele><time>2026-03-22T11:54:20.999Z</time></trkpt><trkpt lat="45.11002004753162" lon="10.072845587671011"><ele>41.0</ele><time>2026-03-22T11:54:21.999Z</time></trkpt><trkpt lat="45.10994135892691" lon="10.072988109733032"><ele>41.0</ele><time>2026-03-22T11:54:23.999Z</time></trkpt><trkpt lat="45.1099022233306" lon="10.07305929761334"><ele>41.0</ele><time>2026-03-22T11:54:24.999Z</time></trkpt><trkpt lat="45.10982799728518" lon="10.07320215313694"><ele>41.0</ele><time>2026-03-22T11:54:26.999Z</time></trkpt><trkpt lat="45.10978830733358" lon="10.073274942768524"><ele>41.0</ele><time>2026-03-22T11:54:27.999Z</time></trkpt><trkpt lat="45.109749654498614" lon="10.073347759004252"><ele>41.0</ele><time>2026-03-22T11:54:28.999Z</time></trkpt><trkpt lat="45.10970898971476" lon="10.073419637818292"><ele>41.0</ele><time>2026-03-22T11:54:29.999Z</time></trkpt><trkpt lat="45.10967030007345" lon="10.073491207182764"><ele>41.0</ele><time>2026-03-22T11:54:30.998Z</time></trkpt><trkpt lat="45.109630317768215" lon="10.073562116762984"><ele>41.0</ele><time>2026-03-22T11:54:31.998Z</time></trkpt><trkpt lat="45.10955162725025" lon="10.073706354773549"><ele>41.0</ele><time>2026-03-22T11:54:33.998Z</time></trkpt><trkpt lat="45.10951097564131" lon="10.07377801706204"><ele>41.0</ele><time>2026-03-22T11:54:34.998Z</time></trkpt><trkpt lat="45.10946812352112" lon="10.07384703177638"><ele>41.0</ele><time>2026-03-22T11:54:35.998Z</time></trkpt><trkpt lat="45.10942966671031" lon="10.073923599096528"><ele>41.0</ele><time>2026-03-22T11:54:36.998Z</time></trkpt><trkpt lat="45.10939100345613" lon="10.074002932040155"><ele>41.0</ele><time>2026-03-22T11:54:37.998Z</time></trkpt><trkpt lat="45.10930153382832" lon="10.074137989089483"><ele>41.0</ele><time>2026-03-22T11:54:39.998Z</time></trkpt><trkpt lat="45.10926364548927" lon="10.074215963701755"><ele>41.0</ele><time>2026-03-22T11:54:40.998Z</time></trkpt><trkpt lat="45.10922835745458" lon="10.074291778850453"><ele>41.0</ele><time>2026-03-22T11:54:41.998Z</time></trkpt><trkpt lat="45.10920606198078" lon="10.074381098093442"><ele>41.0</ele><time>2026-03-22T11:54:42.998Z</time></trkpt><trkpt lat="45.10917072098096" lon="10.074457638833628"><ele>40.71428571428571</ele><time>2026-03-22T11:54:43.998Z</time></trkpt><trkpt lat="45.10914293736871" lon="10.074544649983721"><ele>40.42857142857143</ele><time>2026-03-22T11:54:44.998Z</time></trkpt><trkpt lat="45.1091192252101" lon="10.074633157909492"><ele>40.14285714285714</ele><time>2026-03-22T11:54:45.998Z</time></trkpt><trkpt lat="45.10909706821097" lon="10.074723102979652"><ele>39.857142857142854</ele><time>2026-03-22T11:54:46.998Z</time></trkpt><trkpt lat="45.10907417003869" lon="10.074809370012343"><ele>39.57142857142857</ele><time>2026-03-22T11:54:47.998Z</time></trkpt><trkpt lat="45.109051430267705" lon="10.074899207594303"><ele>39.285714285714285</ele><time>2026-03-22T11:54:48.998Z</time></trkpt><trkpt lat="45.10901216827024" lon="10.074978953495293"><ele>39.0</ele><time>2026-03-22T11:54:49.998Z</time></trkpt><trkpt lat="45.10900316972718" lon="10.075071999028458"><ele>38.714285714285715</ele><time>2026-03-22T11:54:50.998Z</time></trkpt><trkpt lat="45.108978338225846" lon="10.075159256752436"><ele>38.42857142857142</ele><time>2026-03-22T11:54:51.998Z</time></trkpt><trkpt lat="45.10895313736362" lon="10.075244808869725"><ele>38.14285714285714</ele><time>2026-03-22T11:54:52.998Z</time></trkpt><trkpt lat="45.108928112973445" lon="10.075333636305563"><ele>37.85714285714286</ele><time>2026-03-22T11:54:53.998Z</time></trkpt><trkpt lat="45.108899302819204" lon="10.075417278922838"><ele>37.57142857142857</ele><time>2026-03-22T11:54:54.998Z</time></trkpt><trkpt lat="45.10886764584461" lon="10.075500509628794"><ele>37.285714285714285</ele><time>2026-03-22T11:54:55.998Z</time></trkpt><trkpt lat="45.108832029599434" lon="10.075583580964436"><ele>37.0</ele><time>2026-03-22T11:54:56.998Z</time></trkpt><trkpt lat="45.10879308915921" lon="10.075663161865371"><ele>37.0</ele><time>2026-03-22T11:54:57.998Z</time></trkpt><trkpt lat="45.108747888861565" lon="10.07573503072738"><ele>37.0</ele><time>2026-03-22T11:54:58.998Z</time></trkpt><trkpt lat="45.10869705827759" lon="10.075803777710204"><ele>37.0</ele><time>2026-03-22T11:54:59.998Z</time></trkpt><trkpt lat="45.10864538330213" lon="10.075863181772277"><ele>37.0</ele><time>2026-03-22T11:55:00.998Z</time></trkpt><trkpt lat="45.10858741203521" lon="10.075915684262098"><ele>37.0</ele><time>2026-03-22T11:55:01.998Z</time></trkpt><trkpt lat="45.10852533700322" lon="10.07596225701029"><ele>37.0</ele><time>2026-03-22T11:55:03Z</time></trkpt><trkpt lat="45.10846231158903" lon="10.07600582785725"><ele>37.0</ele><time>2026-03-22T11:55:04Z</time></trkpt><trkpt lat="45.10839633470666" lon="10.076042930029086"><ele>37.142857142857146</ele><time>2026-03-22T11:55:05Z</time></trkpt><trkpt lat="45.10832937312319" lon="10.076079885908042"><ele>37.285714285714285</ele><time>2026-03-22T11:55:06Z</time></trkpt><trkpt lat="45.108265176613365" lon="10.076121131665156"><ele>37.42857142857143</ele><time>2026-03-22T11:55:07Z</time></trkpt><trkpt lat="45.10820134342509" lon="10.076162971585411"><ele>37.57142857142857</ele><time>2026-03-22T11:55:08Z</time></trkpt><trkpt lat="45.1081387401989" lon="10.076205011393663"><ele>37.714285714285715</ele><time>2026-03-22T11:55:09Z</time></trkpt><trkpt lat="45.10807428344115" lon="10.076244784221778"><ele>37.857142857142854</ele><time>2026-03-22T11:55:10Z</time></trkpt><trkpt lat="45.10801111350129" lon="10.076286662854907"><ele>38.0</ele><time>2026-03-22T11:55:11Z</time></trkpt><trkpt lat="45.10795010726298" lon="10.076332787936526"><ele>38.0</ele><time>2026-03-22T11:55:12Z</time></trkpt><trkpt lat="45.10788898501558" lon="10.076380533090875"><ele>38.0</ele><time>2026-03-22T11:55:13Z</time></trkpt><trkpt lat="45.1078299951049" lon="10.076434161746699"><ele>38.0</ele><time>2026-03-22T11:55:14Z</time></trkpt><trkpt lat="45.107773783901344" lon="10.076495575126682"><ele>38.0</ele><time>2026-03-22T11:55:15Z</time></trkpt><trkpt lat="45.10772126084199" lon="10.07655921521356"><ele>38.0</ele><time>2026-03-22T11:55:16Z</time></trkpt><trkpt lat="45.10767197993734" lon="10.076629328178639"><ele>38.0</ele><time>2026-03-22T11:55:17Z</time></trkpt><trkpt lat="45.10762369167079" lon="10.076696792391354"><ele>38.0</ele><time>2026-03-22T11:55:18Z</time></trkpt><trkpt lat="45.10757752129507" lon="10.07676811320334"><ele>38.166666666666664</ele><time>2026-03-22T11:55:19Z</time></trkpt><trkpt lat="45.10753312661432" lon="10.07683998977692"><ele>38.33333333333333</ele><time>2026-03-22T11:55:20Z</time></trkpt><trkpt lat="45.10748746465721" lon="10.076909529029232"><ele>38.5</ele><time>2026-03-22T11:55:21Z</time></trkpt><trkpt lat="45.10744484854009" lon="10.076977716949722"><ele>38.666666666666664</ele><time>2026-03-22T11:55:22Z</time></trkpt><trkpt lat="45.10736319081847" lon="10.077105080621514"><ele>38.833333333333336</ele><time>2026-03-22T11:55:24Z</time></trkpt><trkpt lat="45.107289742048195" lon="10.077226741931508"><ele>39.0</ele><time>2026-03-22T11:55:26Z</time></trkpt><trkpt lat="45.10721289352841" lon="10.07732611486725"><ele>38.75</ele><time>2026-03-22T11:55:28Z</time></trkpt><trkpt lat="45.10732813492326" lon="10.077516613927976"><ele>38.5</ele><time>2026-03-22T11:55:31Z</time></trkpt><trkpt lat="45.10742486378253" lon="10.077554881646787"><ele>38.25</ele><time>2026-03-22T11:55:33Z</time></trkpt><trkpt lat="45.10751853643096" lon="10.077607796391007"><ele>38.0</ele><time>2026-03-22T11:55:35Z</time></trkpt><trkpt lat="45.10761311885473" lon="10.07765465429669"><ele>38.599999999999994</ele><time>2026-03-22T11:55:37Z</time></trkpt><trkpt lat="45.10771285327113" lon="10.077697355139145"><ele>39.199999999999996</ele><time>2026-03-22T11:55:39Z</time></trkpt><trkpt lat="45.10781462136147" lon="10.077730985675165"><ele>39.8</ele><time>2026-03-22T11:55:40.999Z</time></trkpt><trkpt lat="45.1079199568008" lon="10.077769138046657"><ele>40.4</ele><time>2026-03-22T11:55:42.999Z</time></trkpt><trkpt lat="45.108026855436385" lon="10.077796252403369"><ele>41.0</ele><time>2026-03-22T11:55:44.999Z</time></trkpt><trkpt lat="45.108124362592704" lon="10.077825512446537"><ele>41.0</ele><time>2026-03-22T11:55:46.999Z</time></trkpt><trkpt lat="45.10822095157661" lon="10.077856485736472"><ele>41.0</ele><time>2026-03-22T11:55:48.999Z</time></trkpt><trkpt lat="45.10830969889175" lon="10.077880666547587"><ele>41.0</ele><time>2026-03-22T11:55:50.999Z</time></trkpt><trkpt lat="45.10839675090055" lon="10.077900102093627"><ele>41.0</ele><time>2026-03-22T11:55:52.999Z</time></trkpt><trkpt lat="45.108480694532595" lon="10.077908663508856"><ele>41.0</ele><time>2026-03-22T11:55:54.999Z</time></trkpt><trkpt lat="45.10856341658581" lon="10.077917217845382"><ele>41.0</ele><time>2026-03-22T11:55:56.999Z</time></trkpt><trkpt lat="45.10873736670149" lon="10.07793267907064"><ele>41.0</ele><time>2026-03-22T11:56:00.999Z</time></trkpt><trkpt lat="45.10880847736414" lon="10.077948846160602"><ele>41.0</ele><time>2026-03-22T11:56:02.999Z</time></trkpt><trkpt lat="45.10880198070755" lon="10.077729464630961"><ele>41.0</ele><time>2026-03-22T11:56:04.999Z</time></trkpt><trkpt lat="45.10882082394188" lon="10.07761104168988"><ele>41.0</ele><time>2026-03-22T11:56:06.999Z</time></trkpt><trkpt lat="45.108838680958804" lon="10.077491632978054"><ele>41.0</ele><time>2026-03-22T11:56:08.999Z</time></trkpt><trkpt lat="45.108866954668855" lon="10.077377562774778"><ele>40.99999999999999</ele><time>2026-03-22T11:56:10.999Z</time></trkpt><trkpt lat="45.10888285937117" lon="10.077268189384672"><ele>41.0</ele><time>2026-03-22T11:56:12.999Z</time></trkpt><trkpt lat="45.10889459277753" lon="10.077163494206316"><ele>41.0</ele><time>2026-03-22T11:56:14.999Z</time></trkpt><trkpt lat="45.10889323561221" lon="10.077066449670136"><ele>41.0</ele><time>2026-03-22T11:56:16.999Z</time></trkpt><trkpt lat="45.10886098715835" lon="10.07696802552905"><ele>41.0</ele><time>2026-03-22T11:56:18.999Z</time></trkpt><trkpt lat="45.108813357106044" lon="10.076887257708833"><ele>40.99999999999999</ele><time>2026-03-22T11:56:20.999Z</time></trkpt><trkpt lat="45.10876495023292" lon="10.07681703903425"><ele>41.0</ele><time>2026-03-22T11:56:22.999Z</time></trkpt><trkpt lat="45.10870292408678" lon="10.076759682854503"><ele>41.0</ele><time>2026-03-22T11:56:25.999Z</time></trkpt><trkpt lat="45.10863851714567" lon="10.07671697954437"><ele>41.0</ele><time>2026-03-22T11:57:02.998Z</time></trkpt><trkpt lat="45.10855768753965" lon="10.076757052891956"><ele>41.0</ele><time>2026-03-22T11:57:05.998Z</time></trkpt><trkpt lat="45.108472474945074" lon="10.07680803804063"><ele>41.0</ele><time>2026-03-22T11:57:09Z</time></trkpt><trkpt lat="45.10839194131074" lon="10.076819081528717"><ele>41.0</ele><time>2026-03-22T11:57:12Z</time></trkpt><trkpt lat="45.10831888892272" lon="10.076829874583064"><ele>41.0</ele><time>2026-03-22T11:57:15Z</time></trkpt></trkseg></trk></gpx>